<?xml version="1.0" encoding="UTF-8" standalone="no" ?>
<gpx xmlns="http://www.topografix.com/GPX/1/1" xmlns:xsi="http://www.w3.org/2001/XMLSchema-instance" xsi:schemaLocation="http://www.topografix.com/GPX/1/1 http://www.topografix.com/GPX/1/1/gpx.xsd" version="1.1" creator="VisuGPX - https://www.visugpx.com">
  <metadata>
    <name>WE Aude P-O trace complète</name>
    <desc><![CDATA[#Catherine]]></desc>
  </metadata>
  <trk>
    <name><![CDATA[Samedi]]></name>
    <extensions>
      <line xmlns="http://www.topografix.com/GPX/gpx_style/0/2">
        <color>0000FF</color>
        <width>4</width>
      </line>
    </extensions>
    <trkseg>
      <trkpt lat="42.77869" lon="2.78754">
        <ele>56</ele>
        <time>2021-06-05T09:51:34Z</time>
      </trkpt>
      <trkpt lat="42.77869" lon="2.78754">
        <ele>57.8</ele>
        <time>2021-06-05T09:51:35Z</time>
      </trkpt>
      <trkpt lat="42.77869" lon="2.78754">
        <ele>55.8</ele>
        <time>2021-06-05T09:51:39Z</time>
      </trkpt>
      <trkpt lat="42.77886" lon="2.78737">
        <ele>57</ele>
        <time>2021-06-05T09:52:23Z</time>
      </trkpt>
      <trkpt lat="42.77886" lon="2.7873">
        <ele>57.4</ele>
        <time>2021-06-05T09:52:27Z</time>
      </trkpt>
      <trkpt lat="42.77886" lon="2.78728">
        <ele>57.4</ele>
        <time>2021-06-05T09:52:31Z</time>
      </trkpt>
      <trkpt lat="42.77885" lon="2.78727">
        <ele>57.6</ele>
        <time>2021-06-05T09:52:35Z</time>
      </trkpt>
      <trkpt lat="42.77867" lon="2.78704">
        <ele>57.4</ele>
        <time>2021-06-05T09:52:48Z</time>
      </trkpt>
      <trkpt lat="42.77857" lon="2.78692">
        <ele>58.6</ele>
        <time>2021-06-05T09:52:52Z</time>
      </trkpt>
      <trkpt lat="42.77849" lon="2.78679">
        <ele>57.8</ele>
        <time>2021-06-05T09:52:56Z</time>
      </trkpt>
      <trkpt lat="42.77842" lon="2.78667">
        <ele>59</ele>
        <time>2021-06-05T09:53:00Z</time>
      </trkpt>
      <trkpt lat="42.77833" lon="2.78655">
        <ele>59.8</ele>
        <time>2021-06-05T09:53:05Z</time>
      </trkpt>
      <trkpt lat="42.77824" lon="2.78647">
        <ele>59.8</ele>
        <time>2021-06-05T09:53:09Z</time>
      </trkpt>
      <trkpt lat="42.77815" lon="2.7864">
        <ele>60.8</ele>
        <time>2021-06-05T09:53:13Z</time>
      </trkpt>
      <trkpt lat="42.77805" lon="2.78634">
        <ele>61.4</ele>
        <time>2021-06-05T09:53:17Z</time>
      </trkpt>
      <trkpt lat="42.77795" lon="2.78628">
        <ele>61.2</ele>
        <time>2021-06-05T09:53:21Z</time>
      </trkpt>
      <trkpt lat="42.77784" lon="2.78623">
        <ele>61.8</ele>
        <time>2021-06-05T09:53:25Z</time>
      </trkpt>
      <trkpt lat="42.77774" lon="2.78617">
        <ele>62.4</ele>
        <time>2021-06-05T09:53:29Z</time>
      </trkpt>
      <trkpt lat="42.77763" lon="2.7861">
        <ele>62.4</ele>
        <time>2021-06-05T09:53:33Z</time>
      </trkpt>
      <trkpt lat="42.77753" lon="2.78604">
        <ele>62.8</ele>
        <time>2021-06-05T09:53:37Z</time>
      </trkpt>
      <trkpt lat="42.77744" lon="2.78597">
        <ele>63.6</ele>
        <time>2021-06-05T09:53:41Z</time>
      </trkpt>
      <trkpt lat="42.77736" lon="2.78587">
        <ele>63.8</ele>
        <time>2021-06-05T09:53:45Z</time>
      </trkpt>
      <trkpt lat="42.77733" lon="2.78574">
        <ele>63.8</ele>
        <time>2021-06-05T09:53:49Z</time>
      </trkpt>
      <trkpt lat="42.77735" lon="2.78562">
        <ele>65.2</ele>
        <time>2021-06-05T09:53:53Z</time>
      </trkpt>
      <trkpt lat="42.7774" lon="2.78552">
        <ele>65.6</ele>
        <time>2021-06-05T09:53:57Z</time>
      </trkpt>
      <trkpt lat="42.77747" lon="2.78546">
        <ele>65.4</ele>
        <time>2021-06-05T09:54:01Z</time>
      </trkpt>
      <trkpt lat="42.77757" lon="2.78545">
        <ele>66</ele>
        <time>2021-06-05T09:54:05Z</time>
      </trkpt>
      <trkpt lat="42.77767" lon="2.78548">
        <ele>66</ele>
        <time>2021-06-05T09:54:09Z</time>
      </trkpt>
      <trkpt lat="42.77777" lon="2.78551">
        <ele>67.4</ele>
        <time>2021-06-05T09:54:13Z</time>
      </trkpt>
      <trkpt lat="42.77787" lon="2.78552">
        <ele>67.8</ele>
        <time>2021-06-05T09:54:17Z</time>
      </trkpt>
      <trkpt lat="42.77797" lon="2.78551">
        <ele>68.6</ele>
        <time>2021-06-05T09:54:21Z</time>
      </trkpt>
      <trkpt lat="42.77809" lon="2.78548">
        <ele>69</ele>
        <time>2021-06-05T09:54:26Z</time>
      </trkpt>
      <trkpt lat="42.77818" lon="2.78544">
        <ele>67.8</ele>
        <time>2021-06-05T09:54:30Z</time>
      </trkpt>
      <trkpt lat="42.77828" lon="2.78542">
        <ele>69.6</ele>
        <time>2021-06-05T09:54:34Z</time>
      </trkpt>
      <trkpt lat="42.77838" lon="2.78541">
        <ele>70.2</ele>
        <time>2021-06-05T09:54:38Z</time>
      </trkpt>
      <trkpt lat="42.77847" lon="2.78543">
        <ele>69.8</ele>
        <time>2021-06-05T09:54:42Z</time>
      </trkpt>
      <trkpt lat="42.77857" lon="2.78545">
        <ele>70.2</ele>
        <time>2021-06-05T09:54:46Z</time>
      </trkpt>
      <trkpt lat="42.77867" lon="2.78549">
        <ele>70.4</ele>
        <time>2021-06-05T09:54:50Z</time>
      </trkpt>
      <trkpt lat="42.77876" lon="2.78553">
        <ele>70.2</ele>
        <time>2021-06-05T09:54:54Z</time>
      </trkpt>
      <trkpt lat="42.77884" lon="2.78556">
        <ele>70.4</ele>
        <time>2021-06-05T09:54:58Z</time>
      </trkpt>
      <trkpt lat="42.7794" lon="2.78546">
        <ele>68.8</ele>
        <time>2021-06-05T09:56:16.582Z</time>
      </trkpt>
      <trkpt lat="42.78" lon="2.78405">
        <ele>69.4</ele>
        <time>2021-06-05T09:57:03Z</time>
      </trkpt>
      <trkpt lat="42.78007" lon="2.78389">
        <ele>68.8</ele>
        <time>2021-06-05T09:57:06Z</time>
      </trkpt>
      <trkpt lat="42.78024" lon="2.78373">
        <ele>67.4</ele>
        <time>2021-06-05T09:57:10Z</time>
      </trkpt>
      <trkpt lat="42.78048" lon="2.78365">
        <ele>66.4</ele>
        <time>2021-06-05T09:57:14Z</time>
      </trkpt>
      <trkpt lat="42.78065" lon="2.78337">
        <ele>64.8</ele>
        <time>2021-06-05T09:57:18Z</time>
      </trkpt>
      <trkpt lat="42.78068" lon="2.78302">
        <ele>64.2</ele>
        <time>2021-06-05T09:57:22Z</time>
      </trkpt>
      <trkpt lat="42.78067" lon="2.78268">
        <ele>63.4</ele>
        <time>2021-06-05T09:57:26Z</time>
      </trkpt>
      <trkpt lat="42.78072" lon="2.78234">
        <ele>62.8</ele>
        <time>2021-06-05T09:57:30Z</time>
      </trkpt>
      <trkpt lat="42.78082" lon="2.78203">
        <ele>61.8</ele>
        <time>2021-06-05T09:57:34Z</time>
      </trkpt>
      <trkpt lat="42.781" lon="2.78165">
        <ele>60.2</ele>
        <time>2021-06-05T09:57:39Z</time>
      </trkpt>
      <trkpt lat="42.78118" lon="2.78136">
        <ele>59</ele>
        <time>2021-06-05T09:57:43Z</time>
      </trkpt>
      <trkpt lat="42.78134" lon="2.78108">
        <ele>58.6</ele>
        <time>2021-06-05T09:57:47Z</time>
      </trkpt>
      <trkpt lat="42.7815" lon="2.78085">
        <ele>58.6</ele>
        <time>2021-06-05T09:57:51Z</time>
      </trkpt>
      <trkpt lat="42.78166" lon="2.78064">
        <ele>58.2</ele>
        <time>2021-06-05T09:57:55Z</time>
      </trkpt>
      <trkpt lat="42.78182" lon="2.78044">
        <ele>57.8</ele>
        <time>2021-06-05T09:57:59Z</time>
      </trkpt>
      <trkpt lat="42.78197" lon="2.78025">
        <ele>57.8</ele>
        <time>2021-06-05T09:58:03Z</time>
      </trkpt>
      <trkpt lat="42.78209" lon="2.78005">
        <ele>57.2</ele>
        <time>2021-06-05T09:58:07Z</time>
      </trkpt>
      <trkpt lat="42.7822" lon="2.77984">
        <ele>57.6</ele>
        <time>2021-06-05T09:58:11Z</time>
      </trkpt>
      <trkpt lat="42.78229" lon="2.77961">
        <ele>57.6</ele>
        <time>2021-06-05T09:58:15Z</time>
      </trkpt>
      <trkpt lat="42.78239" lon="2.77939">
        <ele>57.4</ele>
        <time>2021-06-05T09:58:19Z</time>
      </trkpt>
      <trkpt lat="42.78249" lon="2.77917">
        <ele>57.2</ele>
        <time>2021-06-05T09:58:23Z</time>
      </trkpt>
      <trkpt lat="42.7826" lon="2.77895">
        <ele>57.4</ele>
        <time>2021-06-05T09:58:27Z</time>
      </trkpt>
      <trkpt lat="42.78272" lon="2.77875">
        <ele>57.6</ele>
        <time>2021-06-05T09:58:31Z</time>
      </trkpt>
      <trkpt lat="42.78283" lon="2.77853">
        <ele>57.4</ele>
        <time>2021-06-05T09:58:35Z</time>
      </trkpt>
      <trkpt lat="42.78293" lon="2.77831">
        <ele>57.6</ele>
        <time>2021-06-05T09:58:39Z</time>
      </trkpt>
      <trkpt lat="42.78306" lon="2.77808">
        <ele>57.4</ele>
        <time>2021-06-05T09:58:43Z</time>
      </trkpt>
      <trkpt lat="42.78317" lon="2.77786">
        <ele>57.2</ele>
        <time>2021-06-05T09:58:47Z</time>
      </trkpt>
      <trkpt lat="42.78328" lon="2.77765">
        <ele>57.2</ele>
        <time>2021-06-05T09:58:51Z</time>
      </trkpt>
      <trkpt lat="42.78339" lon="2.77744">
        <ele>57.2</ele>
        <time>2021-06-05T09:58:55Z</time>
      </trkpt>
      <trkpt lat="42.78351" lon="2.7772">
        <ele>57.2</ele>
        <time>2021-06-05T09:59:00Z</time>
      </trkpt>
      <trkpt lat="42.78361" lon="2.77701">
        <ele>57.2</ele>
        <time>2021-06-05T09:59:04Z</time>
      </trkpt>
      <trkpt lat="42.78371" lon="2.77681">
        <ele>57.2</ele>
        <time>2021-06-05T09:59:08Z</time>
      </trkpt>
      <trkpt lat="42.78381" lon="2.77662">
        <ele>57</ele>
        <time>2021-06-05T09:59:12Z</time>
      </trkpt>
      <trkpt lat="42.7839" lon="2.77644">
        <ele>57.4</ele>
        <time>2021-06-05T09:59:16Z</time>
      </trkpt>
      <trkpt lat="42.78399" lon="2.77627">
        <ele>57.8</ele>
        <time>2021-06-05T09:59:20Z</time>
      </trkpt>
      <trkpt lat="42.78407" lon="2.77608">
        <ele>58.6</ele>
        <time>2021-06-05T09:59:24Z</time>
      </trkpt>
      <trkpt lat="42.78414" lon="2.77588">
        <ele>58.4</ele>
        <time>2021-06-05T09:59:28Z</time>
      </trkpt>
      <trkpt lat="42.7842" lon="2.77569">
        <ele>57.8</ele>
        <time>2021-06-05T09:59:32Z</time>
      </trkpt>
      <trkpt lat="42.78427" lon="2.77549">
        <ele>58.4</ele>
        <time>2021-06-05T09:59:36Z</time>
      </trkpt>
      <trkpt lat="42.78434" lon="2.77529">
        <ele>58.6</ele>
        <time>2021-06-05T09:59:40Z</time>
      </trkpt>
      <trkpt lat="42.78441" lon="2.77512">
        <ele>59</ele>
        <time>2021-06-05T09:59:44Z</time>
      </trkpt>
      <trkpt lat="42.78448" lon="2.77494">
        <ele>58.6</ele>
        <time>2021-06-05T09:59:48Z</time>
      </trkpt>
      <trkpt lat="42.78455" lon="2.77475">
        <ele>58.4</ele>
        <time>2021-06-05T09:59:52Z</time>
      </trkpt>
      <trkpt lat="42.78462" lon="2.77455">
        <ele>58.8</ele>
        <time>2021-06-05T09:59:56Z</time>
      </trkpt>
      <trkpt lat="42.78469" lon="2.77436">
        <ele>58.8</ele>
        <time>2021-06-05T10:00:00Z</time>
      </trkpt>
      <trkpt lat="42.78475" lon="2.77417">
        <ele>58</ele>
        <time>2021-06-05T10:00:04Z</time>
      </trkpt>
      <trkpt lat="42.78482" lon="2.77398">
        <ele>58.8</ele>
        <time>2021-06-05T10:00:08Z</time>
      </trkpt>
      <trkpt lat="42.78489" lon="2.77377">
        <ele>58.6</ele>
        <time>2021-06-05T10:00:12Z</time>
      </trkpt>
      <trkpt lat="42.78496" lon="2.77356">
        <ele>58.6</ele>
        <time>2021-06-05T10:00:16Z</time>
      </trkpt>
      <trkpt lat="42.78507" lon="2.77329">
        <ele>58.4</ele>
        <time>2021-06-05T10:00:21Z</time>
      </trkpt>
      <trkpt lat="42.78516" lon="2.77309">
        <ele>58.6</ele>
        <time>2021-06-05T10:00:25Z</time>
      </trkpt>
      <trkpt lat="42.78523" lon="2.77287">
        <ele>58.8</ele>
        <time>2021-06-05T10:00:29Z</time>
      </trkpt>
      <trkpt lat="42.78529" lon="2.77264">
        <ele>59</ele>
        <time>2021-06-05T10:00:33Z</time>
      </trkpt>
      <trkpt lat="42.78532" lon="2.77239">
        <ele>59</ele>
        <time>2021-06-05T10:00:37Z</time>
      </trkpt>
      <trkpt lat="42.78532" lon="2.77212">
        <ele>59</ele>
        <time>2021-06-05T10:00:41Z</time>
      </trkpt>
      <trkpt lat="42.78529" lon="2.77187">
        <ele>59.2</ele>
        <time>2021-06-05T10:00:45Z</time>
      </trkpt>
      <trkpt lat="42.78526" lon="2.77161">
        <ele>59</ele>
        <time>2021-06-05T10:00:49Z</time>
      </trkpt>
      <trkpt lat="42.78522" lon="2.77135">
        <ele>59.2</ele>
        <time>2021-06-05T10:00:53Z</time>
      </trkpt>
      <trkpt lat="42.78517" lon="2.77112">
        <ele>59.2</ele>
        <time>2021-06-05T10:00:57Z</time>
      </trkpt>
      <trkpt lat="42.78512" lon="2.7709">
        <ele>59.2</ele>
        <time>2021-06-05T10:01:01Z</time>
      </trkpt>
      <trkpt lat="42.78506" lon="2.7707">
        <ele>60.4</ele>
        <time>2021-06-05T10:01:05Z</time>
      </trkpt>
      <trkpt lat="42.78499" lon="2.77052">
        <ele>61</ele>
        <time>2021-06-05T10:01:09Z</time>
      </trkpt>
      <trkpt lat="42.78493" lon="2.77035">
        <ele>60.6</ele>
        <time>2021-06-05T10:01:13Z</time>
      </trkpt>
      <trkpt lat="42.78487" lon="2.77018">
        <ele>60.6</ele>
        <time>2021-06-05T10:01:17Z</time>
      </trkpt>
      <trkpt lat="42.78481" lon="2.77001">
        <ele>60.8</ele>
        <time>2021-06-05T10:01:21Z</time>
      </trkpt>
      <trkpt lat="42.78475" lon="2.76985">
        <ele>60.8</ele>
        <time>2021-06-05T10:01:25Z</time>
      </trkpt>
      <trkpt lat="42.78469" lon="2.76968">
        <ele>60.8</ele>
        <time>2021-06-05T10:01:29Z</time>
      </trkpt>
      <trkpt lat="42.78463" lon="2.76953">
        <ele>61.8</ele>
        <time>2021-06-05T10:01:33Z</time>
      </trkpt>
      <trkpt lat="42.78456" lon="2.76934">
        <ele>62</ele>
        <time>2021-06-05T10:01:37Z</time>
      </trkpt>
      <trkpt lat="42.78449" lon="2.76911">
        <ele>62</ele>
        <time>2021-06-05T10:01:42Z</time>
      </trkpt>
      <trkpt lat="42.78443" lon="2.76894">
        <ele>62.6</ele>
        <time>2021-06-05T10:01:46Z</time>
      </trkpt>
      <trkpt lat="42.78437" lon="2.76877">
        <ele>63.2</ele>
        <time>2021-06-05T10:01:50Z</time>
      </trkpt>
      <trkpt lat="42.78432" lon="2.7686">
        <ele>64</ele>
        <time>2021-06-05T10:01:54Z</time>
      </trkpt>
      <trkpt lat="42.78426" lon="2.76839">
        <ele>64.8</ele>
        <time>2021-06-05T10:01:59Z</time>
      </trkpt>
      <trkpt lat="42.78421" lon="2.76823">
        <ele>65</ele>
        <time>2021-06-05T10:02:03Z</time>
      </trkpt>
      <trkpt lat="42.78416" lon="2.76807">
        <ele>64.2</ele>
        <time>2021-06-05T10:02:07Z</time>
      </trkpt>
      <trkpt lat="42.78411" lon="2.7679">
        <ele>64.6</ele>
        <time>2021-06-05T10:02:11Z</time>
      </trkpt>
      <trkpt lat="42.78404" lon="2.76773">
        <ele>64.2</ele>
        <time>2021-06-05T10:02:15Z</time>
      </trkpt>
      <trkpt lat="42.78397" lon="2.76755">
        <ele>64.2</ele>
        <time>2021-06-05T10:02:19Z</time>
      </trkpt>
      <trkpt lat="42.78389" lon="2.76739">
        <ele>64.2</ele>
        <time>2021-06-05T10:02:23Z</time>
      </trkpt>
      <trkpt lat="42.7838" lon="2.76723">
        <ele>65</ele>
        <time>2021-06-05T10:02:27Z</time>
      </trkpt>
      <trkpt lat="42.7837" lon="2.76708">
        <ele>64.8</ele>
        <time>2021-06-05T10:02:31Z</time>
      </trkpt>
      <trkpt lat="42.78358" lon="2.76694">
        <ele>65.4</ele>
        <time>2021-06-05T10:02:35Z</time>
      </trkpt>
      <trkpt lat="42.78345" lon="2.76681">
        <ele>65.2</ele>
        <time>2021-06-05T10:02:39Z</time>
      </trkpt>
      <trkpt lat="42.7833" lon="2.76672">
        <ele>65.6</ele>
        <time>2021-06-05T10:02:43Z</time>
      </trkpt>
      <trkpt lat="42.78315" lon="2.76664">
        <ele>65.4</ele>
        <time>2021-06-05T10:02:47Z</time>
      </trkpt>
      <trkpt lat="42.783" lon="2.76657">
        <ele>65.6</ele>
        <time>2021-06-05T10:02:51Z</time>
      </trkpt>
      <trkpt lat="42.78287" lon="2.76649">
        <ele>66</ele>
        <time>2021-06-05T10:02:55Z</time>
      </trkpt>
      <trkpt lat="42.78273" lon="2.76641">
        <ele>66.4</ele>
        <time>2021-06-05T10:02:59Z</time>
      </trkpt>
      <trkpt lat="42.78256" lon="2.76632">
        <ele>66.6</ele>
        <time>2021-06-05T10:03:04Z</time>
      </trkpt>
      <trkpt lat="42.78243" lon="2.76623">
        <ele>66.8</ele>
        <time>2021-06-05T10:03:08Z</time>
      </trkpt>
      <trkpt lat="42.78233" lon="2.76613">
        <ele>66.8</ele>
        <time>2021-06-05T10:03:12Z</time>
      </trkpt>
      <trkpt lat="42.78222" lon="2.766">
        <ele>67.2</ele>
        <time>2021-06-05T10:03:16Z</time>
      </trkpt>
      <trkpt lat="42.7821" lon="2.76589">
        <ele>67.6</ele>
        <time>2021-06-05T10:03:20Z</time>
      </trkpt>
      <trkpt lat="42.78196" lon="2.7658">
        <ele>68</ele>
        <time>2021-06-05T10:03:24Z</time>
      </trkpt>
      <trkpt lat="42.78182" lon="2.76572">
        <ele>68</ele>
        <time>2021-06-05T10:03:28Z</time>
      </trkpt>
      <trkpt lat="42.78167" lon="2.76565">
        <ele>68.4</ele>
        <time>2021-06-05T10:03:32Z</time>
      </trkpt>
      <trkpt lat="42.78152" lon="2.76557">
        <ele>68.6</ele>
        <time>2021-06-05T10:03:36Z</time>
      </trkpt>
      <trkpt lat="42.78137" lon="2.7655">
        <ele>68.6</ele>
        <time>2021-06-05T10:03:40Z</time>
      </trkpt>
      <trkpt lat="42.78122" lon="2.76543">
        <ele>68.4</ele>
        <time>2021-06-05T10:03:44Z</time>
      </trkpt>
      <trkpt lat="42.78108" lon="2.76536">
        <ele>68.4</ele>
        <time>2021-06-05T10:03:48Z</time>
      </trkpt>
      <trkpt lat="42.78094" lon="2.76529">
        <ele>68.6</ele>
        <time>2021-06-05T10:03:52Z</time>
      </trkpt>
      <trkpt lat="42.7808" lon="2.76523">
        <ele>68.8</ele>
        <time>2021-06-05T10:03:56Z</time>
      </trkpt>
      <trkpt lat="42.78067" lon="2.76516">
        <ele>69</ele>
        <time>2021-06-05T10:04:00Z</time>
      </trkpt>
      <trkpt lat="42.78055" lon="2.76508">
        <ele>68.4</ele>
        <time>2021-06-05T10:04:04Z</time>
      </trkpt>
      <trkpt lat="42.78042" lon="2.76497">
        <ele>68.6</ele>
        <time>2021-06-05T10:04:08Z</time>
      </trkpt>
      <trkpt lat="42.78031" lon="2.76483">
        <ele>68.8</ele>
        <time>2021-06-05T10:04:12Z</time>
      </trkpt>
      <trkpt lat="42.78022" lon="2.76467">
        <ele>69</ele>
        <time>2021-06-05T10:04:16Z</time>
      </trkpt>
      <trkpt lat="42.78014" lon="2.76446">
        <ele>69.6</ele>
        <time>2021-06-05T10:04:21Z</time>
      </trkpt>
      <trkpt lat="42.78009" lon="2.76428">
        <ele>70.2</ele>
        <time>2021-06-05T10:04:25Z</time>
      </trkpt>
      <trkpt lat="42.78003" lon="2.76412">
        <ele>70.8</ele>
        <time>2021-06-05T10:04:29Z</time>
      </trkpt>
      <trkpt lat="42.77999" lon="2.76395">
        <ele>71.4</ele>
        <time>2021-06-05T10:04:33Z</time>
      </trkpt>
      <trkpt lat="42.77998" lon="2.76377">
        <ele>71.2</ele>
        <time>2021-06-05T10:04:37Z</time>
      </trkpt>
      <trkpt lat="42.77999" lon="2.76361">
        <ele>72.4</ele>
        <time>2021-06-05T10:04:41Z</time>
      </trkpt>
      <trkpt lat="42.78" lon="2.76348">
        <ele>72.8</ele>
        <time>2021-06-05T10:04:45Z</time>
      </trkpt>
      <trkpt lat="42.78003" lon="2.76334">
        <ele>73.4</ele>
        <time>2021-06-05T10:04:49Z</time>
      </trkpt>
      <trkpt lat="42.78005" lon="2.7632">
        <ele>73.6</ele>
        <time>2021-06-05T10:04:53Z</time>
      </trkpt>
      <trkpt lat="42.78008" lon="2.76308">
        <ele>73.8</ele>
        <time>2021-06-05T10:04:57Z</time>
      </trkpt>
      <trkpt lat="42.78012" lon="2.76295">
        <ele>74.8</ele>
        <time>2021-06-05T10:05:01Z</time>
      </trkpt>
      <trkpt lat="42.78017" lon="2.76282">
        <ele>75</ele>
        <time>2021-06-05T10:05:05Z</time>
      </trkpt>
      <trkpt lat="42.78023" lon="2.76272">
        <ele>75.8</ele>
        <time>2021-06-05T10:05:09Z</time>
      </trkpt>
      <trkpt lat="42.78029" lon="2.76261">
        <ele>76.4</ele>
        <time>2021-06-05T10:05:13Z</time>
      </trkpt>
      <trkpt lat="42.78036" lon="2.76251">
        <ele>76.6</ele>
        <time>2021-06-05T10:05:17Z</time>
      </trkpt>
      <trkpt lat="42.78043" lon="2.76238">
        <ele>76.8</ele>
        <time>2021-06-05T10:05:22Z</time>
      </trkpt>
      <trkpt lat="42.7805" lon="2.76228">
        <ele>77</ele>
        <time>2021-06-05T10:05:26Z</time>
      </trkpt>
      <trkpt lat="42.78056" lon="2.76217">
        <ele>78.2</ele>
        <time>2021-06-05T10:05:30Z</time>
      </trkpt>
      <trkpt lat="42.78063" lon="2.76208">
        <ele>78.4</ele>
        <time>2021-06-05T10:05:34Z</time>
      </trkpt>
      <trkpt lat="42.7807" lon="2.76199">
        <ele>79.4</ele>
        <time>2021-06-05T10:05:38Z</time>
      </trkpt>
      <trkpt lat="42.78079" lon="2.76188">
        <ele>80</ele>
        <time>2021-06-05T10:05:43Z</time>
      </trkpt>
      <trkpt lat="42.78086" lon="2.76181">
        <ele>80.6</ele>
        <time>2021-06-05T10:05:47Z</time>
      </trkpt>
      <trkpt lat="42.78093" lon="2.76174">
        <ele>80.6</ele>
        <time>2021-06-05T10:05:51Z</time>
      </trkpt>
      <trkpt lat="42.78101" lon="2.76166">
        <ele>80.8</ele>
        <time>2021-06-05T10:05:55Z</time>
      </trkpt>
      <trkpt lat="42.78109" lon="2.76158">
        <ele>80</ele>
        <time>2021-06-05T10:05:59Z</time>
      </trkpt>
      <trkpt lat="42.78118" lon="2.76149">
        <ele>80.4</ele>
        <time>2021-06-05T10:06:03Z</time>
      </trkpt>
      <trkpt lat="42.78127" lon="2.76139">
        <ele>81</ele>
        <time>2021-06-05T10:06:07Z</time>
      </trkpt>
      <trkpt lat="42.78136" lon="2.76131">
        <ele>80.4</ele>
        <time>2021-06-05T10:06:11Z</time>
      </trkpt>
      <trkpt lat="42.78146" lon="2.76124">
        <ele>80.4</ele>
        <time>2021-06-05T10:06:15Z</time>
      </trkpt>
      <trkpt lat="42.78157" lon="2.76119">
        <ele>81.6</ele>
        <time>2021-06-05T10:06:19Z</time>
      </trkpt>
      <trkpt lat="42.78169" lon="2.76116">
        <ele>82.2</ele>
        <time>2021-06-05T10:06:23Z</time>
      </trkpt>
      <trkpt lat="42.78182" lon="2.7611">
        <ele>82.8</ele>
        <time>2021-06-05T10:06:27Z</time>
      </trkpt>
      <trkpt lat="42.78191" lon="2.76097">
        <ele>83.4</ele>
        <time>2021-06-05T10:06:31Z</time>
      </trkpt>
      <trkpt lat="42.78195" lon="2.7608">
        <ele>83.8</ele>
        <time>2021-06-05T10:06:35Z</time>
      </trkpt>
      <trkpt lat="42.78195" lon="2.76066">
        <ele>84.8</ele>
        <time>2021-06-05T10:06:39Z</time>
      </trkpt>
      <trkpt lat="42.78195" lon="2.76051">
        <ele>85.6</ele>
        <time>2021-06-05T10:06:43Z</time>
      </trkpt>
      <trkpt lat="42.78196" lon="2.76037">
        <ele>86</ele>
        <time>2021-06-05T10:06:47Z</time>
      </trkpt>
      <trkpt lat="42.78197" lon="2.76023">
        <ele>86.4</ele>
        <time>2021-06-05T10:06:51Z</time>
      </trkpt>
      <trkpt lat="42.78199" lon="2.76009">
        <ele>87.6</ele>
        <time>2021-06-05T10:06:55Z</time>
      </trkpt>
      <trkpt lat="42.78202" lon="2.75996">
        <ele>88.4</ele>
        <time>2021-06-05T10:06:59Z</time>
      </trkpt>
      <trkpt lat="42.78205" lon="2.75979">
        <ele>89.2</ele>
        <time>2021-06-05T10:07:04Z</time>
      </trkpt>
      <trkpt lat="42.78207" lon="2.75967">
        <ele>89.8</ele>
        <time>2021-06-05T10:07:08Z</time>
      </trkpt>
      <trkpt lat="42.78208" lon="2.75954">
        <ele>89.6</ele>
        <time>2021-06-05T10:07:12Z</time>
      </trkpt>
      <trkpt lat="42.78209" lon="2.75941">
        <ele>90.4</ele>
        <time>2021-06-05T10:07:16Z</time>
      </trkpt>
      <trkpt lat="42.7821" lon="2.75929">
        <ele>90</ele>
        <time>2021-06-05T10:07:20Z</time>
      </trkpt>
      <trkpt lat="42.78211" lon="2.75916">
        <ele>90.4</ele>
        <time>2021-06-05T10:07:24Z</time>
      </trkpt>
      <trkpt lat="42.78211" lon="2.75903">
        <ele>91.2</ele>
        <time>2021-06-05T10:07:28Z</time>
      </trkpt>
      <trkpt lat="42.78212" lon="2.75889">
        <ele>91</ele>
        <time>2021-06-05T10:07:32Z</time>
      </trkpt>
      <trkpt lat="42.78212" lon="2.75876">
        <ele>91.8</ele>
        <time>2021-06-05T10:07:36Z</time>
      </trkpt>
      <trkpt lat="42.78213" lon="2.75863">
        <ele>92</ele>
        <time>2021-06-05T10:07:40Z</time>
      </trkpt>
      <trkpt lat="42.78212" lon="2.7585">
        <ele>92.6</ele>
        <time>2021-06-05T10:07:44Z</time>
      </trkpt>
      <trkpt lat="42.78211" lon="2.75837">
        <ele>92.8</ele>
        <time>2021-06-05T10:07:48Z</time>
      </trkpt>
      <trkpt lat="42.7821" lon="2.75824">
        <ele>93.2</ele>
        <time>2021-06-05T10:07:52Z</time>
      </trkpt>
      <trkpt lat="42.78209" lon="2.75811">
        <ele>94</ele>
        <time>2021-06-05T10:07:56Z</time>
      </trkpt>
      <trkpt lat="42.78208" lon="2.75798">
        <ele>94.4</ele>
        <time>2021-06-05T10:08:00Z</time>
      </trkpt>
      <trkpt lat="42.78208" lon="2.75786">
        <ele>95.4</ele>
        <time>2021-06-05T10:08:04Z</time>
      </trkpt>
      <trkpt lat="42.78207" lon="2.75774">
        <ele>95.6</ele>
        <time>2021-06-05T10:08:08Z</time>
      </trkpt>
      <trkpt lat="42.78206" lon="2.75762">
        <ele>96</ele>
        <time>2021-06-05T10:08:12Z</time>
      </trkpt>
      <trkpt lat="42.78206" lon="2.75745">
        <ele>96.4</ele>
        <time>2021-06-05T10:08:17Z</time>
      </trkpt>
      <trkpt lat="42.78208" lon="2.75732">
        <ele>96.8</ele>
        <time>2021-06-05T10:08:21Z</time>
      </trkpt>
      <trkpt lat="42.78211" lon="2.75716">
        <ele>97.2</ele>
        <time>2021-06-05T10:08:26Z</time>
      </trkpt>
      <trkpt lat="42.78215" lon="2.75705">
        <ele>97.6</ele>
        <time>2021-06-05T10:08:30Z</time>
      </trkpt>
      <trkpt lat="42.78218" lon="2.75693">
        <ele>98</ele>
        <time>2021-06-05T10:08:34Z</time>
      </trkpt>
      <trkpt lat="42.78222" lon="2.75683">
        <ele>98.6</ele>
        <time>2021-06-05T10:08:38Z</time>
      </trkpt>
      <trkpt lat="42.78227" lon="2.75672">
        <ele>99</ele>
        <time>2021-06-05T10:08:42Z</time>
      </trkpt>
      <trkpt lat="42.78233" lon="2.75662">
        <ele>99</ele>
        <time>2021-06-05T10:08:46Z</time>
      </trkpt>
      <trkpt lat="42.78239" lon="2.75654">
        <ele>99.2</ele>
        <time>2021-06-05T10:08:50Z</time>
      </trkpt>
      <trkpt lat="42.78246" lon="2.75647">
        <ele>99.6</ele>
        <time>2021-06-05T10:08:54Z</time>
      </trkpt>
      <trkpt lat="42.78254" lon="2.7564">
        <ele>99.6</ele>
        <time>2021-06-05T10:08:58Z</time>
      </trkpt>
      <trkpt lat="42.78261" lon="2.75634">
        <ele>100.4</ele>
        <time>2021-06-05T10:09:02Z</time>
      </trkpt>
      <trkpt lat="42.78269" lon="2.75627">
        <ele>100.8</ele>
        <time>2021-06-05T10:09:06Z</time>
      </trkpt>
      <trkpt lat="42.78276" lon="2.75619">
        <ele>101.2</ele>
        <time>2021-06-05T10:09:10Z</time>
      </trkpt>
      <trkpt lat="42.78283" lon="2.7561">
        <ele>101.8</ele>
        <time>2021-06-05T10:09:14Z</time>
      </trkpt>
      <trkpt lat="42.78288" lon="2.75599">
        <ele>102.2</ele>
        <time>2021-06-05T10:09:18Z</time>
      </trkpt>
      <trkpt lat="42.78294" lon="2.75589">
        <ele>102.2</ele>
        <time>2021-06-05T10:09:22Z</time>
      </trkpt>
      <trkpt lat="42.783" lon="2.75578">
        <ele>102.8</ele>
        <time>2021-06-05T10:09:26Z</time>
      </trkpt>
      <trkpt lat="42.78306" lon="2.75568">
        <ele>103.4</ele>
        <time>2021-06-05T10:09:30Z</time>
      </trkpt>
      <trkpt lat="42.78312" lon="2.75559">
        <ele>103.4</ele>
        <time>2021-06-05T10:09:34Z</time>
      </trkpt>
      <trkpt lat="42.78318" lon="2.75551">
        <ele>103.6</ele>
        <time>2021-06-05T10:09:38Z</time>
      </trkpt>
      <trkpt lat="42.78324" lon="2.75543">
        <ele>103.8</ele>
        <time>2021-06-05T10:09:42Z</time>
      </trkpt>
      <trkpt lat="42.78332" lon="2.75531">
        <ele>104.4</ele>
        <time>2021-06-05T10:09:47Z</time>
      </trkpt>
      <trkpt lat="42.78339" lon="2.75523">
        <ele>105.2</ele>
        <time>2021-06-05T10:09:51Z</time>
      </trkpt>
      <trkpt lat="42.78344" lon="2.75515">
        <ele>105.6</ele>
        <time>2021-06-05T10:09:55Z</time>
      </trkpt>
      <trkpt lat="42.78349" lon="2.75506">
        <ele>106.6</ele>
        <time>2021-06-05T10:09:59Z</time>
      </trkpt>
      <trkpt lat="42.78354" lon="2.75495">
        <ele>107</ele>
        <time>2021-06-05T10:10:03Z</time>
      </trkpt>
      <trkpt lat="42.78358" lon="2.75482">
        <ele>107.6</ele>
        <time>2021-06-05T10:10:07Z</time>
      </trkpt>
      <trkpt lat="42.7836" lon="2.7547">
        <ele>108.6</ele>
        <time>2021-06-05T10:10:11Z</time>
      </trkpt>
      <trkpt lat="42.78362" lon="2.75458">
        <ele>109.4</ele>
        <time>2021-06-05T10:10:15Z</time>
      </trkpt>
      <trkpt lat="42.78366" lon="2.75447">
        <ele>109.6</ele>
        <time>2021-06-05T10:10:19Z</time>
      </trkpt>
      <trkpt lat="42.7837" lon="2.75437">
        <ele>110.4</ele>
        <time>2021-06-05T10:10:23Z</time>
      </trkpt>
      <trkpt lat="42.78375" lon="2.75431">
        <ele>112</ele>
        <time>2021-06-05T10:10:27Z</time>
      </trkpt>
      <trkpt lat="42.7838" lon="2.75423">
        <ele>111.2</ele>
        <time>2021-06-05T10:10:31Z</time>
      </trkpt>
      <trkpt lat="42.78386" lon="2.75416">
        <ele>111.8</ele>
        <time>2021-06-05T10:10:35Z</time>
      </trkpt>
      <trkpt lat="42.78392" lon="2.75409">
        <ele>111</ele>
        <time>2021-06-05T10:10:39Z</time>
      </trkpt>
      <trkpt lat="42.78398" lon="2.75401">
        <ele>112.8</ele>
        <time>2021-06-05T10:10:43Z</time>
      </trkpt>
      <trkpt lat="42.78404" lon="2.7539">
        <ele>113.4</ele>
        <time>2021-06-05T10:10:47Z</time>
      </trkpt>
      <trkpt lat="42.78408" lon="2.75382">
        <ele>113.2</ele>
        <time>2021-06-05T10:10:51Z</time>
      </trkpt>
      <trkpt lat="42.78413" lon="2.75369">
        <ele>113.6</ele>
        <time>2021-06-05T10:10:55Z</time>
      </trkpt>
      <trkpt lat="42.78416" lon="2.75362">
        <ele>114.6</ele>
        <time>2021-06-05T10:10:59Z</time>
      </trkpt>
      <trkpt lat="42.78422" lon="2.7535">
        <ele>115.4</ele>
        <time>2021-06-05T10:11:04Z</time>
      </trkpt>
      <trkpt lat="42.78429" lon="2.7534">
        <ele>116.4</ele>
        <time>2021-06-05T10:11:08Z</time>
      </trkpt>
      <trkpt lat="42.78435" lon="2.75339">
        <ele>116.6</ele>
        <time>2021-06-05T10:11:12Z</time>
      </trkpt>
      <trkpt lat="42.78444" lon="2.75341">
        <ele>118</ele>
        <time>2021-06-05T10:11:16Z</time>
      </trkpt>
      <trkpt lat="42.7845" lon="2.75342">
        <ele>117</ele>
        <time>2021-06-05T10:11:20Z</time>
      </trkpt>
      <trkpt lat="42.7846" lon="2.75346">
        <ele>117.2</ele>
        <time>2021-06-05T10:11:24Z</time>
      </trkpt>
      <trkpt lat="42.78467" lon="2.75347">
        <ele>117.2</ele>
        <time>2021-06-05T10:11:28Z</time>
      </trkpt>
      <trkpt lat="42.78476" lon="2.75348">
        <ele>117.8</ele>
        <time>2021-06-05T10:11:32Z</time>
      </trkpt>
      <trkpt lat="42.78487" lon="2.75346">
        <ele>118.2</ele>
        <time>2021-06-05T10:11:36Z</time>
      </trkpt>
      <trkpt lat="42.78493" lon="2.75345">
        <ele>118.4</ele>
        <time>2021-06-05T10:11:40Z</time>
      </trkpt>
      <trkpt lat="42.78503" lon="2.75341">
        <ele>119</ele>
        <time>2021-06-05T10:11:44Z</time>
      </trkpt>
      <trkpt lat="42.78513" lon="2.75342">
        <ele>119.6</ele>
        <time>2021-06-05T10:11:48Z</time>
      </trkpt>
      <trkpt lat="42.78521" lon="2.75348">
        <ele>120.8</ele>
        <time>2021-06-05T10:11:52Z</time>
      </trkpt>
      <trkpt lat="42.78529" lon="2.75359">
        <ele>122</ele>
        <time>2021-06-05T10:11:56Z</time>
      </trkpt>
      <trkpt lat="42.78535" lon="2.75365">
        <ele>122</ele>
        <time>2021-06-05T10:12:00Z</time>
      </trkpt>
      <trkpt lat="42.78542" lon="2.75375">
        <ele>122.8</ele>
        <time>2021-06-05T10:12:04Z</time>
      </trkpt>
      <trkpt lat="42.78551" lon="2.75386">
        <ele>123.6</ele>
        <time>2021-06-05T10:12:08Z</time>
      </trkpt>
      <trkpt lat="42.78557" lon="2.75396">
        <ele>124.4</ele>
        <time>2021-06-05T10:12:12Z</time>
      </trkpt>
      <trkpt lat="42.78562" lon="2.75405">
        <ele>125.2</ele>
        <time>2021-06-05T10:12:16Z</time>
      </trkpt>
      <trkpt lat="42.78569" lon="2.75419">
        <ele>126</ele>
        <time>2021-06-05T10:12:20Z</time>
      </trkpt>
      <trkpt lat="42.78577" lon="2.75428">
        <ele>126.6</ele>
        <time>2021-06-05T10:12:25Z</time>
      </trkpt>
      <trkpt lat="42.78587" lon="2.75432">
        <ele>127.4</ele>
        <time>2021-06-05T10:12:29Z</time>
      </trkpt>
      <trkpt lat="42.78596" lon="2.75432">
        <ele>127.2</ele>
        <time>2021-06-05T10:12:33Z</time>
      </trkpt>
      <trkpt lat="42.78606" lon="2.75431">
        <ele>128.2</ele>
        <time>2021-06-05T10:12:37Z</time>
      </trkpt>
      <trkpt lat="42.78616" lon="2.75428">
        <ele>128.8</ele>
        <time>2021-06-05T10:12:41Z</time>
      </trkpt>
      <trkpt lat="42.78625" lon="2.75424">
        <ele>128.8</ele>
        <time>2021-06-05T10:12:45Z</time>
      </trkpt>
      <trkpt lat="42.78633" lon="2.75417">
        <ele>129.4</ele>
        <time>2021-06-05T10:12:49Z</time>
      </trkpt>
      <trkpt lat="42.7864" lon="2.75408">
        <ele>130.2</ele>
        <time>2021-06-05T10:12:53Z</time>
      </trkpt>
      <trkpt lat="42.78645" lon="2.754">
        <ele>131</ele>
        <time>2021-06-05T10:12:57Z</time>
      </trkpt>
      <trkpt lat="42.7865" lon="2.75391">
        <ele>131.6</ele>
        <time>2021-06-05T10:13:01Z</time>
      </trkpt>
      <trkpt lat="42.78655" lon="2.75382">
        <ele>132.2</ele>
        <time>2021-06-05T10:13:05Z</time>
      </trkpt>
      <trkpt lat="42.78661" lon="2.75372">
        <ele>132.6</ele>
        <time>2021-06-05T10:13:09Z</time>
      </trkpt>
      <trkpt lat="42.78666" lon="2.75362">
        <ele>133.4</ele>
        <time>2021-06-05T10:13:13Z</time>
      </trkpt>
      <trkpt lat="42.78672" lon="2.75353">
        <ele>134</ele>
        <time>2021-06-05T10:13:17Z</time>
      </trkpt>
      <trkpt lat="42.78677" lon="2.75344">
        <ele>134.8</ele>
        <time>2021-06-05T10:13:21Z</time>
      </trkpt>
      <trkpt lat="42.78683" lon="2.75335">
        <ele>135</ele>
        <time>2021-06-05T10:13:25Z</time>
      </trkpt>
      <trkpt lat="42.78688" lon="2.75326">
        <ele>135</ele>
        <time>2021-06-05T10:13:29Z</time>
      </trkpt>
      <trkpt lat="42.78692" lon="2.75317">
        <ele>136</ele>
        <time>2021-06-05T10:13:33Z</time>
      </trkpt>
      <trkpt lat="42.78697" lon="2.75308">
        <ele>136.2</ele>
        <time>2021-06-05T10:13:37Z</time>
      </trkpt>
      <trkpt lat="42.78701" lon="2.75299">
        <ele>136.6</ele>
        <time>2021-06-05T10:13:41Z</time>
      </trkpt>
      <trkpt lat="42.78708" lon="2.75286">
        <ele>137</ele>
        <time>2021-06-05T10:13:46Z</time>
      </trkpt>
      <trkpt lat="42.78713" lon="2.75276">
        <ele>137</ele>
        <time>2021-06-05T10:13:50Z</time>
      </trkpt>
      <trkpt lat="42.78718" lon="2.75267">
        <ele>137.8</ele>
        <time>2021-06-05T10:13:54Z</time>
      </trkpt>
      <trkpt lat="42.78724" lon="2.7526">
        <ele>138.6</ele>
        <time>2021-06-05T10:13:58Z</time>
      </trkpt>
      <trkpt lat="42.78729" lon="2.75251">
        <ele>138.2</ele>
        <time>2021-06-05T10:14:02Z</time>
      </trkpt>
      <trkpt lat="42.78735" lon="2.75244">
        <ele>138.6</ele>
        <time>2021-06-05T10:14:06Z</time>
      </trkpt>
      <trkpt lat="42.7874" lon="2.75237">
        <ele>138.4</ele>
        <time>2021-06-05T10:14:10Z</time>
      </trkpt>
      <trkpt lat="42.78745" lon="2.7523">
        <ele>139</ele>
        <time>2021-06-05T10:14:14Z</time>
      </trkpt>
      <trkpt lat="42.78749" lon="2.75224">
        <ele>139.6</ele>
        <time>2021-06-05T10:14:18Z</time>
      </trkpt>
      <trkpt lat="42.78756" lon="2.75216">
        <ele>140</ele>
        <time>2021-06-05T10:14:22Z</time>
      </trkpt>
      <trkpt lat="42.78761" lon="2.75207">
        <ele>140.4</ele>
        <time>2021-06-05T10:14:26Z</time>
      </trkpt>
      <trkpt lat="42.78763" lon="2.75196">
        <ele>140.8</ele>
        <time>2021-06-05T10:14:30Z</time>
      </trkpt>
      <trkpt lat="42.78765" lon="2.75185">
        <ele>141.4</ele>
        <time>2021-06-05T10:14:34Z</time>
      </trkpt>
      <trkpt lat="42.78764" lon="2.75174">
        <ele>141.8</ele>
        <time>2021-06-05T10:14:38Z</time>
      </trkpt>
      <trkpt lat="42.78761" lon="2.75163">
        <ele>141.8</ele>
        <time>2021-06-05T10:14:42Z</time>
      </trkpt>
      <trkpt lat="42.78756" lon="2.75152">
        <ele>142</ele>
        <time>2021-06-05T10:14:46Z</time>
      </trkpt>
      <trkpt lat="42.7875" lon="2.75144">
        <ele>142.6</ele>
        <time>2021-06-05T10:14:50Z</time>
      </trkpt>
      <trkpt lat="42.78744" lon="2.75137">
        <ele>142.8</ele>
        <time>2021-06-05T10:14:54Z</time>
      </trkpt>
      <trkpt lat="42.78737" lon="2.75133">
        <ele>143.6</ele>
        <time>2021-06-05T10:14:58Z</time>
      </trkpt>
      <trkpt lat="42.78729" lon="2.75131">
        <ele>143.8</ele>
        <time>2021-06-05T10:15:02Z</time>
      </trkpt>
      <trkpt lat="42.78718" lon="2.75132">
        <ele>144.2</ele>
        <time>2021-06-05T10:15:07Z</time>
      </trkpt>
      <trkpt lat="42.7871" lon="2.75136">
        <ele>145</ele>
        <time>2021-06-05T10:15:11Z</time>
      </trkpt>
      <trkpt lat="42.78703" lon="2.7514">
        <ele>145.6</ele>
        <time>2021-06-05T10:15:15Z</time>
      </trkpt>
      <trkpt lat="42.78695" lon="2.75146">
        <ele>146.2</ele>
        <time>2021-06-05T10:15:19Z</time>
      </trkpt>
      <trkpt lat="42.78687" lon="2.75152">
        <ele>146.8</ele>
        <time>2021-06-05T10:15:23Z</time>
      </trkpt>
      <trkpt lat="42.7868" lon="2.75157">
        <ele>146.4</ele>
        <time>2021-06-05T10:15:27Z</time>
      </trkpt>
      <trkpt lat="42.78674" lon="2.75163">
        <ele>146.6</ele>
        <time>2021-06-05T10:15:31Z</time>
      </trkpt>
      <trkpt lat="42.78667" lon="2.75169">
        <ele>147.2</ele>
        <time>2021-06-05T10:15:35Z</time>
      </trkpt>
      <trkpt lat="42.7866" lon="2.75173">
        <ele>147.6</ele>
        <time>2021-06-05T10:15:39Z</time>
      </trkpt>
      <trkpt lat="42.78653" lon="2.75178">
        <ele>148</ele>
        <time>2021-06-05T10:15:43Z</time>
      </trkpt>
      <trkpt lat="42.78647" lon="2.75184">
        <ele>147.8</ele>
        <time>2021-06-05T10:15:47Z</time>
      </trkpt>
      <trkpt lat="42.7864" lon="2.7519">
        <ele>148.2</ele>
        <time>2021-06-05T10:15:51Z</time>
      </trkpt>
      <trkpt lat="42.78632" lon="2.75194">
        <ele>148.4</ele>
        <time>2021-06-05T10:15:55Z</time>
      </trkpt>
      <trkpt lat="42.78624" lon="2.75197">
        <ele>149.2</ele>
        <time>2021-06-05T10:15:59Z</time>
      </trkpt>
      <trkpt lat="42.78615" lon="2.752">
        <ele>149.4</ele>
        <time>2021-06-05T10:16:03Z</time>
      </trkpt>
      <trkpt lat="42.78607" lon="2.752">
        <ele>149.8</ele>
        <time>2021-06-05T10:16:07Z</time>
      </trkpt>
      <trkpt lat="42.786" lon="2.75199">
        <ele>150.6</ele>
        <time>2021-06-05T10:16:11Z</time>
      </trkpt>
      <trkpt lat="42.78593" lon="2.75194">
        <ele>151</ele>
        <time>2021-06-05T10:16:15Z</time>
      </trkpt>
      <trkpt lat="42.78587" lon="2.75188">
        <ele>151.4</ele>
        <time>2021-06-05T10:16:19Z</time>
      </trkpt>
      <trkpt lat="42.78581" lon="2.75181">
        <ele>152</ele>
        <time>2021-06-05T10:16:23Z</time>
      </trkpt>
      <trkpt lat="42.78577" lon="2.75171">
        <ele>152.6</ele>
        <time>2021-06-05T10:16:28Z</time>
      </trkpt>
      <trkpt lat="42.78577" lon="2.75161">
        <ele>153</ele>
        <time>2021-06-05T10:16:32Z</time>
      </trkpt>
      <trkpt lat="42.78579" lon="2.75152">
        <ele>153.6</ele>
        <time>2021-06-05T10:16:36Z</time>
      </trkpt>
      <trkpt lat="42.78581" lon="2.75143">
        <ele>153.6</ele>
        <time>2021-06-05T10:16:40Z</time>
      </trkpt>
      <trkpt lat="42.78585" lon="2.75135">
        <ele>154</ele>
        <time>2021-06-05T10:16:44Z</time>
      </trkpt>
      <trkpt lat="42.78589" lon="2.75126">
        <ele>154.4</ele>
        <time>2021-06-05T10:16:48Z</time>
      </trkpt>
      <trkpt lat="42.78593" lon="2.75116">
        <ele>155</ele>
        <time>2021-06-05T10:16:52Z</time>
      </trkpt>
      <trkpt lat="42.78598" lon="2.75107">
        <ele>155</ele>
        <time>2021-06-05T10:16:56Z</time>
      </trkpt>
      <trkpt lat="42.78602" lon="2.75097">
        <ele>155.4</ele>
        <time>2021-06-05T10:17:00Z</time>
      </trkpt>
      <trkpt lat="42.78605" lon="2.75088">
        <ele>155.8</ele>
        <time>2021-06-05T10:17:04Z</time>
      </trkpt>
      <trkpt lat="42.78609" lon="2.75079">
        <ele>156</ele>
        <time>2021-06-05T10:17:08Z</time>
      </trkpt>
      <trkpt lat="42.78611" lon="2.75069">
        <ele>156</ele>
        <time>2021-06-05T10:17:12Z</time>
      </trkpt>
      <trkpt lat="42.78614" lon="2.75059">
        <ele>156.4</ele>
        <time>2021-06-05T10:17:16Z</time>
      </trkpt>
      <trkpt lat="42.78615" lon="2.75049">
        <ele>156</ele>
        <time>2021-06-05T10:17:20Z</time>
      </trkpt>
      <trkpt lat="42.78614" lon="2.75037">
        <ele>156.8</ele>
        <time>2021-06-05T10:17:24Z</time>
      </trkpt>
      <trkpt lat="42.78612" lon="2.75026">
        <ele>157</ele>
        <time>2021-06-05T10:17:28Z</time>
      </trkpt>
      <trkpt lat="42.7861" lon="2.75018">
        <ele>157.2</ele>
        <time>2021-06-05T10:17:32Z</time>
      </trkpt>
      <trkpt lat="42.78607" lon="2.75009">
        <ele>158</ele>
        <time>2021-06-05T10:17:36Z</time>
      </trkpt>
      <trkpt lat="42.78605" lon="2.74999">
        <ele>158.4</ele>
        <time>2021-06-05T10:17:40Z</time>
      </trkpt>
      <trkpt lat="42.78602" lon="2.74986">
        <ele>159</ele>
        <time>2021-06-05T10:17:45Z</time>
      </trkpt>
      <trkpt lat="42.78601" lon="2.74974">
        <ele>159</ele>
        <time>2021-06-05T10:17:49Z</time>
      </trkpt>
      <trkpt lat="42.786" lon="2.74963">
        <ele>159.6</ele>
        <time>2021-06-05T10:17:53Z</time>
      </trkpt>
      <trkpt lat="42.78599" lon="2.74953">
        <ele>160</ele>
        <time>2021-06-05T10:17:57Z</time>
      </trkpt>
      <trkpt lat="42.78598" lon="2.74942">
        <ele>160.6</ele>
        <time>2021-06-05T10:18:01Z</time>
      </trkpt>
      <trkpt lat="42.78596" lon="2.74931">
        <ele>160.8</ele>
        <time>2021-06-05T10:18:05Z</time>
      </trkpt>
      <trkpt lat="42.78594" lon="2.74919">
        <ele>161.4</ele>
        <time>2021-06-05T10:18:09Z</time>
      </trkpt>
      <trkpt lat="42.78591" lon="2.74908">
        <ele>161.8</ele>
        <time>2021-06-05T10:18:13Z</time>
      </trkpt>
      <trkpt lat="42.78588" lon="2.74897">
        <ele>162.4</ele>
        <time>2021-06-05T10:18:17Z</time>
      </trkpt>
      <trkpt lat="42.78588" lon="2.74885">
        <ele>162.8</ele>
        <time>2021-06-05T10:18:21Z</time>
      </trkpt>
      <trkpt lat="42.7859" lon="2.74875">
        <ele>163.4</ele>
        <time>2021-06-05T10:18:25Z</time>
      </trkpt>
      <trkpt lat="42.78594" lon="2.74865">
        <ele>163.6</ele>
        <time>2021-06-05T10:18:29Z</time>
      </trkpt>
      <trkpt lat="42.78596" lon="2.74853">
        <ele>164</ele>
        <time>2021-06-05T10:18:33Z</time>
      </trkpt>
      <trkpt lat="42.78597" lon="2.74841">
        <ele>164.8</ele>
        <time>2021-06-05T10:18:37Z</time>
      </trkpt>
      <trkpt lat="42.78595" lon="2.74831">
        <ele>165.2</ele>
        <time>2021-06-05T10:18:41Z</time>
      </trkpt>
      <trkpt lat="42.78592" lon="2.7482">
        <ele>165.4</ele>
        <time>2021-06-05T10:18:45Z</time>
      </trkpt>
      <trkpt lat="42.78589" lon="2.74808">
        <ele>166</ele>
        <time>2021-06-05T10:18:49Z</time>
      </trkpt>
      <trkpt lat="42.78588" lon="2.74797">
        <ele>166.8</ele>
        <time>2021-06-05T10:18:53Z</time>
      </trkpt>
      <trkpt lat="42.7859" lon="2.74786">
        <ele>168</ele>
        <time>2021-06-05T10:18:57Z</time>
      </trkpt>
      <trkpt lat="42.78592" lon="2.74775">
        <ele>167.8</ele>
        <time>2021-06-05T10:19:01Z</time>
      </trkpt>
      <trkpt lat="42.78596" lon="2.74762">
        <ele>168.4</ele>
        <time>2021-06-05T10:19:06Z</time>
      </trkpt>
      <trkpt lat="42.786" lon="2.74753">
        <ele>168.6</ele>
        <time>2021-06-05T10:19:10Z</time>
      </trkpt>
      <trkpt lat="42.78604" lon="2.74743">
        <ele>168.8</ele>
        <time>2021-06-05T10:19:14Z</time>
      </trkpt>
      <trkpt lat="42.78607" lon="2.74733">
        <ele>169.2</ele>
        <time>2021-06-05T10:19:18Z</time>
      </trkpt>
      <trkpt lat="42.78609" lon="2.74722">
        <ele>169</ele>
        <time>2021-06-05T10:19:22Z</time>
      </trkpt>
      <trkpt lat="42.78611" lon="2.7471">
        <ele>170.2</ele>
        <time>2021-06-05T10:19:26Z</time>
      </trkpt>
      <trkpt lat="42.78611" lon="2.74699">
        <ele>170.6</ele>
        <time>2021-06-05T10:19:30Z</time>
      </trkpt>
      <trkpt lat="42.7861" lon="2.74688">
        <ele>170.8</ele>
        <time>2021-06-05T10:19:34Z</time>
      </trkpt>
      <trkpt lat="42.7861" lon="2.74677">
        <ele>171.6</ele>
        <time>2021-06-05T10:19:38Z</time>
      </trkpt>
      <trkpt lat="42.78608" lon="2.74666">
        <ele>172.2</ele>
        <time>2021-06-05T10:19:42Z</time>
      </trkpt>
      <trkpt lat="42.78605" lon="2.74655">
        <ele>172.6</ele>
        <time>2021-06-05T10:19:46Z</time>
      </trkpt>
      <trkpt lat="42.78601" lon="2.74644">
        <ele>173</ele>
        <time>2021-06-05T10:19:50Z</time>
      </trkpt>
      <trkpt lat="42.78597" lon="2.74633">
        <ele>173.4</ele>
        <time>2021-06-05T10:19:54Z</time>
      </trkpt>
      <trkpt lat="42.78593" lon="2.74623">
        <ele>173.8</ele>
        <time>2021-06-05T10:19:58Z</time>
      </trkpt>
      <trkpt lat="42.7859" lon="2.74613">
        <ele>174.4</ele>
        <time>2021-06-05T10:20:02Z</time>
      </trkpt>
      <trkpt lat="42.78587" lon="2.74605">
        <ele>174.8</ele>
        <time>2021-06-05T10:20:06Z</time>
      </trkpt>
      <trkpt lat="42.78582" lon="2.74596">
        <ele>175.2</ele>
        <time>2021-06-05T10:20:10Z</time>
      </trkpt>
      <trkpt lat="42.7858" lon="2.74587">
        <ele>175.8</ele>
        <time>2021-06-05T10:20:14Z</time>
      </trkpt>
      <trkpt lat="42.78577" lon="2.7458">
        <ele>175.8</ele>
        <time>2021-06-05T10:20:18Z</time>
      </trkpt>
      <trkpt lat="42.78575" lon="2.74581">
        <ele>175.8</ele>
        <time>2021-06-05T10:20:22Z</time>
      </trkpt>
      <trkpt lat="42.78575" lon="2.74581">
        <ele>176</ele>
        <time>2021-06-05T10:20:27Z</time>
      </trkpt>
      <trkpt lat="42.78566" lon="2.74553">
        <ele>176.8</ele>
        <time>2021-06-05T10:20:57Z</time>
      </trkpt>
      <trkpt lat="42.78566" lon="2.74542">
        <ele>177.4</ele>
        <time>2021-06-05T10:21:01Z</time>
      </trkpt>
      <trkpt lat="42.78569" lon="2.74532">
        <ele>178.4</ele>
        <time>2021-06-05T10:21:05Z</time>
      </trkpt>
      <trkpt lat="42.78574" lon="2.74524">
        <ele>178.4</ele>
        <time>2021-06-05T10:21:09Z</time>
      </trkpt>
      <trkpt lat="42.78579" lon="2.74516">
        <ele>178.8</ele>
        <time>2021-06-05T10:21:13Z</time>
      </trkpt>
      <trkpt lat="42.78584" lon="2.74506">
        <ele>179</ele>
        <time>2021-06-05T10:21:17Z</time>
      </trkpt>
      <trkpt lat="42.78589" lon="2.74497">
        <ele>179.6</ele>
        <time>2021-06-05T10:21:21Z</time>
      </trkpt>
      <trkpt lat="42.78595" lon="2.74486">
        <ele>180</ele>
        <time>2021-06-05T10:21:25Z</time>
      </trkpt>
      <trkpt lat="42.78602" lon="2.74475">
        <ele>180.6</ele>
        <time>2021-06-05T10:21:29Z</time>
      </trkpt>
      <trkpt lat="42.78608" lon="2.74466">
        <ele>181.4</ele>
        <time>2021-06-05T10:21:33Z</time>
      </trkpt>
      <trkpt lat="42.78614" lon="2.74461">
        <ele>181.2</ele>
        <time>2021-06-05T10:21:37Z</time>
      </trkpt>
      <trkpt lat="42.7862" lon="2.74456">
        <ele>181.8</ele>
        <time>2021-06-05T10:21:41Z</time>
      </trkpt>
      <trkpt lat="42.78628" lon="2.74451">
        <ele>181.8</ele>
        <time>2021-06-05T10:21:45Z</time>
      </trkpt>
      <trkpt lat="42.78636" lon="2.74447">
        <ele>182</ele>
        <time>2021-06-05T10:21:49Z</time>
      </trkpt>
      <trkpt lat="42.78643" lon="2.74443">
        <ele>182.4</ele>
        <time>2021-06-05T10:21:53Z</time>
      </trkpt>
      <trkpt lat="42.78649" lon="2.7444">
        <ele>182.4</ele>
        <time>2021-06-05T10:21:57Z</time>
      </trkpt>
      <trkpt lat="42.78656" lon="2.74436">
        <ele>182.8</ele>
        <time>2021-06-05T10:22:01Z</time>
      </trkpt>
      <trkpt lat="42.78662" lon="2.74433">
        <ele>183.4</ele>
        <time>2021-06-05T10:22:05Z</time>
      </trkpt>
      <trkpt lat="42.78669" lon="2.74429">
        <ele>183.8</ele>
        <time>2021-06-05T10:22:09Z</time>
      </trkpt>
      <trkpt lat="42.78677" lon="2.74425">
        <ele>184</ele>
        <time>2021-06-05T10:22:14Z</time>
      </trkpt>
      <trkpt lat="42.78684" lon="2.74421">
        <ele>184.2</ele>
        <time>2021-06-05T10:22:18Z</time>
      </trkpt>
      <trkpt lat="42.78691" lon="2.74419">
        <ele>184.4</ele>
        <time>2021-06-05T10:22:22Z</time>
      </trkpt>
      <trkpt lat="42.78699" lon="2.74418">
        <ele>185.4</ele>
        <time>2021-06-05T10:22:26Z</time>
      </trkpt>
      <trkpt lat="42.78707" lon="2.74418">
        <ele>185.6</ele>
        <time>2021-06-05T10:22:30Z</time>
      </trkpt>
      <trkpt lat="42.78717" lon="2.74418">
        <ele>186</ele>
        <time>2021-06-05T10:22:35Z</time>
      </trkpt>
      <trkpt lat="42.78725" lon="2.74419">
        <ele>186</ele>
        <time>2021-06-05T10:22:39Z</time>
      </trkpt>
      <trkpt lat="42.78733" lon="2.74419">
        <ele>186.4</ele>
        <time>2021-06-05T10:22:43Z</time>
      </trkpt>
      <trkpt lat="42.78743" lon="2.7442">
        <ele>187</ele>
        <time>2021-06-05T10:22:49Z</time>
      </trkpt>
      <trkpt lat="42.78751" lon="2.74419">
        <ele>187.8</ele>
        <time>2021-06-05T10:22:53Z</time>
      </trkpt>
      <trkpt lat="42.78759" lon="2.74421">
        <ele>188.2</ele>
        <time>2021-06-05T10:22:57Z</time>
      </trkpt>
      <trkpt lat="42.78766" lon="2.74422">
        <ele>189</ele>
        <time>2021-06-05T10:23:01Z</time>
      </trkpt>
      <trkpt lat="42.78773" lon="2.74421">
        <ele>189.2</ele>
        <time>2021-06-05T10:23:05Z</time>
      </trkpt>
      <trkpt lat="42.78779" lon="2.74421">
        <ele>190</ele>
        <time>2021-06-05T10:23:09Z</time>
      </trkpt>
      <trkpt lat="42.78787" lon="2.74418">
        <ele>190.2</ele>
        <time>2021-06-05T10:23:13Z</time>
      </trkpt>
      <trkpt lat="42.78793" lon="2.74413">
        <ele>190.6</ele>
        <time>2021-06-05T10:23:17Z</time>
      </trkpt>
      <trkpt lat="42.78799" lon="2.74406">
        <ele>191.2</ele>
        <time>2021-06-05T10:23:21Z</time>
      </trkpt>
      <trkpt lat="42.78805" lon="2.74399">
        <ele>191.8</ele>
        <time>2021-06-05T10:23:25Z</time>
      </trkpt>
      <trkpt lat="42.78809" lon="2.74393">
        <ele>192</ele>
        <time>2021-06-05T10:23:29Z</time>
      </trkpt>
      <trkpt lat="42.78815" lon="2.74386">
        <ele>192.6</ele>
        <time>2021-06-05T10:23:33Z</time>
      </trkpt>
      <trkpt lat="42.7882" lon="2.74376">
        <ele>193.2</ele>
        <time>2021-06-05T10:23:38Z</time>
      </trkpt>
      <trkpt lat="42.78824" lon="2.74367">
        <ele>193.8</ele>
        <time>2021-06-05T10:23:42Z</time>
      </trkpt>
      <trkpt lat="42.78828" lon="2.7436">
        <ele>194.4</ele>
        <time>2021-06-05T10:23:46Z</time>
      </trkpt>
      <trkpt lat="42.78832" lon="2.74352">
        <ele>194.8</ele>
        <time>2021-06-05T10:23:50Z</time>
      </trkpt>
      <trkpt lat="42.78837" lon="2.74344">
        <ele>195.4</ele>
        <time>2021-06-05T10:23:54Z</time>
      </trkpt>
      <trkpt lat="42.78841" lon="2.74336">
        <ele>195.8</ele>
        <time>2021-06-05T10:23:58Z</time>
      </trkpt>
      <trkpt lat="42.78847" lon="2.74329">
        <ele>196.2</ele>
        <time>2021-06-05T10:24:02Z</time>
      </trkpt>
      <trkpt lat="42.78852" lon="2.74321">
        <ele>196.6</ele>
        <time>2021-06-05T10:24:06Z</time>
      </trkpt>
      <trkpt lat="42.78857" lon="2.74313">
        <ele>197</ele>
        <time>2021-06-05T10:24:10Z</time>
      </trkpt>
      <trkpt lat="42.7886" lon="2.74303">
        <ele>197.6</ele>
        <time>2021-06-05T10:24:14Z</time>
      </trkpt>
      <trkpt lat="42.78865" lon="2.74295">
        <ele>198.2</ele>
        <time>2021-06-05T10:24:18Z</time>
      </trkpt>
      <trkpt lat="42.78869" lon="2.74287">
        <ele>198.6</ele>
        <time>2021-06-05T10:24:22Z</time>
      </trkpt>
      <trkpt lat="42.78873" lon="2.74278">
        <ele>199</ele>
        <time>2021-06-05T10:24:26Z</time>
      </trkpt>
      <trkpt lat="42.78877" lon="2.74269">
        <ele>199.4</ele>
        <time>2021-06-05T10:24:30Z</time>
      </trkpt>
      <trkpt lat="42.78883" lon="2.74263">
        <ele>200</ele>
        <time>2021-06-05T10:24:34Z</time>
      </trkpt>
      <trkpt lat="42.78888" lon="2.74254">
        <ele>200.2</ele>
        <time>2021-06-05T10:24:38Z</time>
      </trkpt>
      <trkpt lat="42.78891" lon="2.74245">
        <ele>200.8</ele>
        <time>2021-06-05T10:24:42Z</time>
      </trkpt>
      <trkpt lat="42.78895" lon="2.74237">
        <ele>201.2</ele>
        <time>2021-06-05T10:24:46Z</time>
      </trkpt>
      <trkpt lat="42.78899" lon="2.74229">
        <ele>201.4</ele>
        <time>2021-06-05T10:24:50Z</time>
      </trkpt>
      <trkpt lat="42.78905" lon="2.74219">
        <ele>201.8</ele>
        <time>2021-06-05T10:24:55Z</time>
      </trkpt>
      <trkpt lat="42.78908" lon="2.74211">
        <ele>201.6</ele>
        <time>2021-06-05T10:24:59Z</time>
      </trkpt>
      <trkpt lat="42.78911" lon="2.74201">
        <ele>202.4</ele>
        <time>2021-06-05T10:25:03Z</time>
      </trkpt>
      <trkpt lat="42.78914" lon="2.7419">
        <ele>203.2</ele>
        <time>2021-06-05T10:25:07Z</time>
      </trkpt>
      <trkpt lat="42.78915" lon="2.74179">
        <ele>204</ele>
        <time>2021-06-05T10:25:11Z</time>
      </trkpt>
      <trkpt lat="42.78914" lon="2.7417">
        <ele>204.6</ele>
        <time>2021-06-05T10:25:15Z</time>
      </trkpt>
      <trkpt lat="42.78913" lon="2.74161">
        <ele>205.2</ele>
        <time>2021-06-05T10:25:19Z</time>
      </trkpt>
      <trkpt lat="42.78912" lon="2.74152">
        <ele>206.2</ele>
        <time>2021-06-05T10:25:23Z</time>
      </trkpt>
      <trkpt lat="42.78911" lon="2.74144">
        <ele>207.2</ele>
        <time>2021-06-05T10:25:27Z</time>
      </trkpt>
      <trkpt lat="42.7891" lon="2.74138">
        <ele>208.2</ele>
        <time>2021-06-05T10:25:31Z</time>
      </trkpt>
      <trkpt lat="42.78909" lon="2.7413">
        <ele>208.6</ele>
        <time>2021-06-05T10:25:35Z</time>
      </trkpt>
      <trkpt lat="42.78906" lon="2.74126">
        <ele>210.2</ele>
        <time>2021-06-05T10:25:39Z</time>
      </trkpt>
      <trkpt lat="42.78905" lon="2.74118">
        <ele>210.4</ele>
        <time>2021-06-05T10:25:43Z</time>
      </trkpt>
      <trkpt lat="42.78905" lon="2.74111">
        <ele>210.8</ele>
        <time>2021-06-05T10:25:47Z</time>
      </trkpt>
      <trkpt lat="42.78903" lon="2.74103">
        <ele>211.2</ele>
        <time>2021-06-05T10:25:51Z</time>
      </trkpt>
      <trkpt lat="42.78901" lon="2.74094">
        <ele>211.8</ele>
        <time>2021-06-05T10:25:55Z</time>
      </trkpt>
      <trkpt lat="42.78898" lon="2.74085">
        <ele>212.2</ele>
        <time>2021-06-05T10:25:59Z</time>
      </trkpt>
      <trkpt lat="42.78895" lon="2.74077">
        <ele>211.8</ele>
        <time>2021-06-05T10:26:03Z</time>
      </trkpt>
      <trkpt lat="42.78894" lon="2.74067">
        <ele>212</ele>
        <time>2021-06-05T10:26:07Z</time>
      </trkpt>
      <trkpt lat="42.78893" lon="2.74058">
        <ele>212.4</ele>
        <time>2021-06-05T10:26:11Z</time>
      </trkpt>
      <trkpt lat="42.78893" lon="2.74046">
        <ele>212.4</ele>
        <time>2021-06-05T10:26:16Z</time>
      </trkpt>
      <trkpt lat="42.78894" lon="2.74037">
        <ele>212.8</ele>
        <time>2021-06-05T10:26:20Z</time>
      </trkpt>
      <trkpt lat="42.78894" lon="2.74028">
        <ele>212.6</ele>
        <time>2021-06-05T10:26:24Z</time>
      </trkpt>
      <trkpt lat="42.78894" lon="2.74019">
        <ele>212.4</ele>
        <time>2021-06-05T10:26:28Z</time>
      </trkpt>
      <trkpt lat="42.78894" lon="2.74009">
        <ele>212.4</ele>
        <time>2021-06-05T10:26:32Z</time>
      </trkpt>
      <trkpt lat="42.78895" lon="2.73998">
        <ele>212.6</ele>
        <time>2021-06-05T10:26:36Z</time>
      </trkpt>
      <trkpt lat="42.78895" lon="2.73988">
        <ele>212.6</ele>
        <time>2021-06-05T10:26:40Z</time>
      </trkpt>
      <trkpt lat="42.78897" lon="2.73978">
        <ele>212.6</ele>
        <time>2021-06-05T10:26:44Z</time>
      </trkpt>
      <trkpt lat="42.78897" lon="2.73967">
        <ele>212.6</ele>
        <time>2021-06-05T10:26:48Z</time>
      </trkpt>
      <trkpt lat="42.78899" lon="2.73958">
        <ele>212.4</ele>
        <time>2021-06-05T10:26:52Z</time>
      </trkpt>
      <trkpt lat="42.78899" lon="2.73957">
        <ele>212.4</ele>
        <time>2021-06-05T10:26:56Z</time>
      </trkpt>
      <trkpt lat="42.789" lon="2.73957">
        <ele>212.4</ele>
        <time>2021-06-05T10:27:00Z</time>
      </trkpt>
      <trkpt lat="42.78903" lon="2.73913">
        <ele>210</ele>
        <time>2021-06-05T10:31:17Z</time>
      </trkpt>
      <trkpt lat="42.78904" lon="2.73895">
        <ele>209.8</ele>
        <time>2021-06-05T10:31:21Z</time>
      </trkpt>
      <trkpt lat="42.78905" lon="2.73876">
        <ele>209.6</ele>
        <time>2021-06-05T10:31:25Z</time>
      </trkpt>
      <trkpt lat="42.78907" lon="2.73857">
        <ele>209.6</ele>
        <time>2021-06-05T10:31:29Z</time>
      </trkpt>
      <trkpt lat="42.78909" lon="2.73837">
        <ele>209.4</ele>
        <time>2021-06-05T10:31:33Z</time>
      </trkpt>
      <trkpt lat="42.78911" lon="2.73815">
        <ele>209.2</ele>
        <time>2021-06-05T10:31:37Z</time>
      </trkpt>
      <trkpt lat="42.78913" lon="2.73794">
        <ele>209.2</ele>
        <time>2021-06-05T10:31:41Z</time>
      </trkpt>
      <trkpt lat="42.78915" lon="2.73774">
        <ele>209.2</ele>
        <time>2021-06-05T10:31:45Z</time>
      </trkpt>
      <trkpt lat="42.78917" lon="2.73749">
        <ele>209.4</ele>
        <time>2021-06-05T10:31:50Z</time>
      </trkpt>
      <trkpt lat="42.78918" lon="2.73728">
        <ele>209.4</ele>
        <time>2021-06-05T10:31:54Z</time>
      </trkpt>
      <trkpt lat="42.7892" lon="2.73706">
        <ele>209</ele>
        <time>2021-06-05T10:31:58Z</time>
      </trkpt>
      <trkpt lat="42.78923" lon="2.73685">
        <ele>209</ele>
        <time>2021-06-05T10:32:02Z</time>
      </trkpt>
      <trkpt lat="42.78925" lon="2.73665">
        <ele>209</ele>
        <time>2021-06-05T10:32:06Z</time>
      </trkpt>
      <trkpt lat="42.78926" lon="2.73645">
        <ele>209.2</ele>
        <time>2021-06-05T10:32:10Z</time>
      </trkpt>
      <trkpt lat="42.78928" lon="2.73625">
        <ele>209</ele>
        <time>2021-06-05T10:32:14Z</time>
      </trkpt>
      <trkpt lat="42.78929" lon="2.73605">
        <ele>209.2</ele>
        <time>2021-06-05T10:32:18Z</time>
      </trkpt>
      <trkpt lat="42.78929" lon="2.73585">
        <ele>209.2</ele>
        <time>2021-06-05T10:32:22Z</time>
      </trkpt>
      <trkpt lat="42.78928" lon="2.73565">
        <ele>208.8</ele>
        <time>2021-06-05T10:32:26Z</time>
      </trkpt>
      <trkpt lat="42.78924" lon="2.73537">
        <ele>208.6</ele>
        <time>2021-06-05T10:32:31Z</time>
      </trkpt>
      <trkpt lat="42.78921" lon="2.73514">
        <ele>208.2</ele>
        <time>2021-06-05T10:32:35Z</time>
      </trkpt>
      <trkpt lat="42.78919" lon="2.7349">
        <ele>207.6</ele>
        <time>2021-06-05T10:32:39Z</time>
      </trkpt>
      <trkpt lat="42.78924" lon="2.73465">
        <ele>207</ele>
        <time>2021-06-05T10:32:43Z</time>
      </trkpt>
      <trkpt lat="42.78934" lon="2.73439">
        <ele>206.6</ele>
        <time>2021-06-05T10:32:47Z</time>
      </trkpt>
      <trkpt lat="42.78956" lon="2.73428">
        <ele>205.8</ele>
        <time>2021-06-05T10:32:51Z</time>
      </trkpt>
      <trkpt lat="42.78981" lon="2.73431">
        <ele>204.2</ele>
        <time>2021-06-05T10:32:55Z</time>
      </trkpt>
      <trkpt lat="42.79004" lon="2.73419">
        <ele>203.2</ele>
        <time>2021-06-05T10:32:59Z</time>
      </trkpt>
      <trkpt lat="42.79022" lon="2.73398">
        <ele>202.2</ele>
        <time>2021-06-05T10:33:03Z</time>
      </trkpt>
      <trkpt lat="42.79033" lon="2.73368">
        <ele>200.8</ele>
        <time>2021-06-05T10:33:07Z</time>
      </trkpt>
      <trkpt lat="42.79043" lon="2.7333">
        <ele>199.6</ele>
        <time>2021-06-05T10:33:12Z</time>
      </trkpt>
      <trkpt lat="42.7906" lon="2.7331">
        <ele>198.6</ele>
        <time>2021-06-05T10:33:16Z</time>
      </trkpt>
      <trkpt lat="42.79079" lon="2.73328">
        <ele>197.6</ele>
        <time>2021-06-05T10:33:20Z</time>
      </trkpt>
      <trkpt lat="42.79093" lon="2.73355">
        <ele>196.8</ele>
        <time>2021-06-05T10:33:24Z</time>
      </trkpt>
      <trkpt lat="42.79108" lon="2.73383">
        <ele>195.6</ele>
        <time>2021-06-05T10:33:28Z</time>
      </trkpt>
      <trkpt lat="42.7912" lon="2.73413">
        <ele>194.4</ele>
        <time>2021-06-05T10:33:32Z</time>
      </trkpt>
      <trkpt lat="42.79141" lon="2.73433">
        <ele>194.2</ele>
        <time>2021-06-05T10:33:36Z</time>
      </trkpt>
      <trkpt lat="42.79154" lon="2.73409">
        <ele>193.2</ele>
        <time>2021-06-05T10:33:40Z</time>
      </trkpt>
      <trkpt lat="42.79149" lon="2.73379">
        <ele>193</ele>
        <time>2021-06-05T10:33:44Z</time>
      </trkpt>
      <trkpt lat="42.79142" lon="2.73352">
        <ele>192.6</ele>
        <time>2021-06-05T10:33:48Z</time>
      </trkpt>
      <trkpt lat="42.79138" lon="2.73324">
        <ele>192.2</ele>
        <time>2021-06-05T10:33:52Z</time>
      </trkpt>
      <trkpt lat="42.79147" lon="2.73299">
        <ele>192.4</ele>
        <time>2021-06-05T10:33:56Z</time>
      </trkpt>
      <trkpt lat="42.7916" lon="2.73281">
        <ele>192.4</ele>
        <time>2021-06-05T10:34:00Z</time>
      </trkpt>
      <trkpt lat="42.79176" lon="2.73274">
        <ele>192.2</ele>
        <time>2021-06-05T10:34:04Z</time>
      </trkpt>
      <trkpt lat="42.79192" lon="2.73284">
        <ele>191.6</ele>
        <time>2021-06-05T10:34:08Z</time>
      </trkpt>
      <trkpt lat="42.79201" lon="2.73306">
        <ele>191.4</ele>
        <time>2021-06-05T10:34:12Z</time>
      </trkpt>
      <trkpt lat="42.79215" lon="2.7332">
        <ele>191</ele>
        <time>2021-06-05T10:34:16Z</time>
      </trkpt>
      <trkpt lat="42.79231" lon="2.73311">
        <ele>191.4</ele>
        <time>2021-06-05T10:34:20Z</time>
      </trkpt>
      <trkpt lat="42.79233" lon="2.73289">
        <ele>192</ele>
        <time>2021-06-05T10:34:24Z</time>
      </trkpt>
      <trkpt lat="42.79231" lon="2.73265">
        <ele>192.2</ele>
        <time>2021-06-05T10:34:29Z</time>
      </trkpt>
      <trkpt lat="42.79229" lon="2.73246">
        <ele>192.8</ele>
        <time>2021-06-05T10:34:33Z</time>
      </trkpt>
      <trkpt lat="42.79228" lon="2.73227">
        <ele>193</ele>
        <time>2021-06-05T10:34:37Z</time>
      </trkpt>
      <trkpt lat="42.79228" lon="2.7321">
        <ele>193.6</ele>
        <time>2021-06-05T10:34:41Z</time>
      </trkpt>
      <trkpt lat="42.79233" lon="2.73197">
        <ele>193.8</ele>
        <time>2021-06-05T10:34:45Z</time>
      </trkpt>
      <trkpt lat="42.79244" lon="2.73189">
        <ele>194</ele>
        <time>2021-06-05T10:34:49Z</time>
      </trkpt>
      <trkpt lat="42.79257" lon="2.73183">
        <ele>194</ele>
        <time>2021-06-05T10:34:53Z</time>
      </trkpt>
      <trkpt lat="42.79269" lon="2.73179">
        <ele>194.4</ele>
        <time>2021-06-05T10:34:57Z</time>
      </trkpt>
      <trkpt lat="42.7928" lon="2.73174">
        <ele>194.6</ele>
        <time>2021-06-05T10:35:01Z</time>
      </trkpt>
      <trkpt lat="42.7929" lon="2.73169">
        <ele>195</ele>
        <time>2021-06-05T10:35:05Z</time>
      </trkpt>
      <trkpt lat="42.79298" lon="2.7316">
        <ele>195</ele>
        <time>2021-06-05T10:35:09Z</time>
      </trkpt>
      <trkpt lat="42.79299" lon="2.73145">
        <ele>195.4</ele>
        <time>2021-06-05T10:35:13Z</time>
      </trkpt>
      <trkpt lat="42.79293" lon="2.73135">
        <ele>196.2</ele>
        <time>2021-06-05T10:35:17Z</time>
      </trkpt>
      <trkpt lat="42.79285" lon="2.73126">
        <ele>196.4</ele>
        <time>2021-06-05T10:35:21Z</time>
      </trkpt>
      <trkpt lat="42.79277" lon="2.73117">
        <ele>197.2</ele>
        <time>2021-06-05T10:35:25Z</time>
      </trkpt>
      <trkpt lat="42.79271" lon="2.73106">
        <ele>197.8</ele>
        <time>2021-06-05T10:35:29Z</time>
      </trkpt>
      <trkpt lat="42.79269" lon="2.73091">
        <ele>198</ele>
        <time>2021-06-05T10:35:33Z</time>
      </trkpt>
      <trkpt lat="42.79269" lon="2.73078">
        <ele>198.4</ele>
        <time>2021-06-05T10:35:37Z</time>
      </trkpt>
      <trkpt lat="42.79271" lon="2.73065">
        <ele>198.8</ele>
        <time>2021-06-05T10:35:41Z</time>
      </trkpt>
      <trkpt lat="42.79272" lon="2.73051">
        <ele>199.6</ele>
        <time>2021-06-05T10:35:45Z</time>
      </trkpt>
      <trkpt lat="42.79273" lon="2.73034">
        <ele>200</ele>
        <time>2021-06-05T10:35:50Z</time>
      </trkpt>
      <trkpt lat="42.79275" lon="2.7302">
        <ele>200</ele>
        <time>2021-06-05T10:35:54Z</time>
      </trkpt>
      <trkpt lat="42.79281" lon="2.73008">
        <ele>200.8</ele>
        <time>2021-06-05T10:35:58Z</time>
      </trkpt>
      <trkpt lat="42.79289" lon="2.73002">
        <ele>201.4</ele>
        <time>2021-06-05T10:36:02Z</time>
      </trkpt>
      <trkpt lat="42.79298" lon="2.72998">
        <ele>201.8</ele>
        <time>2021-06-05T10:36:06Z</time>
      </trkpt>
      <trkpt lat="42.79307" lon="2.7299">
        <ele>202.2</ele>
        <time>2021-06-05T10:36:10Z</time>
      </trkpt>
      <trkpt lat="42.79312" lon="2.72979">
        <ele>202</ele>
        <time>2021-06-05T10:36:14Z</time>
      </trkpt>
      <trkpt lat="42.79315" lon="2.72966">
        <ele>202.4</ele>
        <time>2021-06-05T10:36:18Z</time>
      </trkpt>
      <trkpt lat="42.79317" lon="2.72952">
        <ele>202.8</ele>
        <time>2021-06-05T10:36:22Z</time>
      </trkpt>
      <trkpt lat="42.79319" lon="2.72937">
        <ele>203</ele>
        <time>2021-06-05T10:36:26Z</time>
      </trkpt>
      <trkpt lat="42.7932" lon="2.72922">
        <ele>203.2</ele>
        <time>2021-06-05T10:36:30Z</time>
      </trkpt>
      <trkpt lat="42.79319" lon="2.72908">
        <ele>203.6</ele>
        <time>2021-06-05T10:36:34Z</time>
      </trkpt>
      <trkpt lat="42.79319" lon="2.72895">
        <ele>204</ele>
        <time>2021-06-05T10:36:38Z</time>
      </trkpt>
      <trkpt lat="42.79319" lon="2.72881">
        <ele>204.4</ele>
        <time>2021-06-05T10:36:42Z</time>
      </trkpt>
      <trkpt lat="42.7932" lon="2.72869">
        <ele>204.8</ele>
        <time>2021-06-05T10:36:46Z</time>
      </trkpt>
      <trkpt lat="42.79319" lon="2.72856">
        <ele>205</ele>
        <time>2021-06-05T10:36:50Z</time>
      </trkpt>
      <trkpt lat="42.7932" lon="2.72842">
        <ele>205.8</ele>
        <time>2021-06-05T10:36:54Z</time>
      </trkpt>
      <trkpt lat="42.79319" lon="2.72828">
        <ele>206.4</ele>
        <time>2021-06-05T10:36:58Z</time>
      </trkpt>
      <trkpt lat="42.79318" lon="2.72814">
        <ele>206.2</ele>
        <time>2021-06-05T10:37:02Z</time>
      </trkpt>
      <trkpt lat="42.79318" lon="2.72799">
        <ele>206.8</ele>
        <time>2021-06-05T10:37:06Z</time>
      </trkpt>
      <trkpt lat="42.79319" lon="2.7278">
        <ele>207</ele>
        <time>2021-06-05T10:37:11Z</time>
      </trkpt>
      <trkpt lat="42.79319" lon="2.72765">
        <ele>207</ele>
        <time>2021-06-05T10:37:15Z</time>
      </trkpt>
      <trkpt lat="42.7932" lon="2.7275">
        <ele>207.2</ele>
        <time>2021-06-05T10:37:19Z</time>
      </trkpt>
      <trkpt lat="42.79323" lon="2.72733">
        <ele>207.4</ele>
        <time>2021-06-05T10:37:23Z</time>
      </trkpt>
      <trkpt lat="42.7933" lon="2.72716">
        <ele>207</ele>
        <time>2021-06-05T10:37:27Z</time>
      </trkpt>
      <trkpt lat="42.79342" lon="2.72701">
        <ele>206.6</ele>
        <time>2021-06-05T10:37:31Z</time>
      </trkpt>
      <trkpt lat="42.79355" lon="2.72692">
        <ele>207.6</ele>
        <time>2021-06-05T10:37:35Z</time>
      </trkpt>
      <trkpt lat="42.79369" lon="2.72688">
        <ele>206.4</ele>
        <time>2021-06-05T10:37:39Z</time>
      </trkpt>
      <trkpt lat="42.79387" lon="2.72691">
        <ele>205.6</ele>
        <time>2021-06-05T10:37:43Z</time>
      </trkpt>
      <trkpt lat="42.79402" lon="2.72678">
        <ele>205.2</ele>
        <time>2021-06-05T10:37:47Z</time>
      </trkpt>
      <trkpt lat="42.79405" lon="2.72653">
        <ele>204.6</ele>
        <time>2021-06-05T10:37:51Z</time>
      </trkpt>
      <trkpt lat="42.79401" lon="2.72629">
        <ele>204.2</ele>
        <time>2021-06-05T10:37:55Z</time>
      </trkpt>
      <trkpt lat="42.79398" lon="2.72604">
        <ele>203.4</ele>
        <time>2021-06-05T10:37:59Z</time>
      </trkpt>
      <trkpt lat="42.79405" lon="2.72578">
        <ele>202.4</ele>
        <time>2021-06-05T10:38:03Z</time>
      </trkpt>
      <trkpt lat="42.79425" lon="2.72559">
        <ele>201.8</ele>
        <time>2021-06-05T10:38:07Z</time>
      </trkpt>
      <trkpt lat="42.79448" lon="2.72544">
        <ele>200.8</ele>
        <time>2021-06-05T10:38:11Z</time>
      </trkpt>
      <trkpt lat="42.79467" lon="2.7253">
        <ele>198.6</ele>
        <time>2021-06-05T10:38:15Z</time>
      </trkpt>
      <trkpt lat="42.79468" lon="2.72501">
        <ele>197.2</ele>
        <time>2021-06-05T10:38:19Z</time>
      </trkpt>
      <trkpt lat="42.79463" lon="2.72491">
        <ele>196.6</ele>
        <time>2021-06-05T10:38:23Z</time>
      </trkpt>
      <trkpt lat="42.79462" lon="2.72485">
        <ele>196.4</ele>
        <time>2021-06-05T10:38:27Z</time>
      </trkpt>
      <trkpt lat="42.79463" lon="2.7247">
        <ele>195.6</ele>
        <time>2021-06-05T10:38:32Z</time>
      </trkpt>
      <trkpt lat="42.79464" lon="2.72464">
        <ele>195.6</ele>
        <time>2021-06-05T10:38:36Z</time>
      </trkpt>
      <trkpt lat="42.79464" lon="2.72463">
        <ele>195.2</ele>
        <time>2021-06-05T10:38:40Z</time>
      </trkpt>
      <trkpt lat="42.79488" lon="2.72438">
        <ele>196</ele>
        <time>2021-06-05T10:40:44Z</time>
      </trkpt>
      <trkpt lat="42.79497" lon="2.72431">
        <ele>195.4</ele>
        <time>2021-06-05T10:40:48Z</time>
      </trkpt>
      <trkpt lat="42.79506" lon="2.7243">
        <ele>195.6</ele>
        <time>2021-06-05T10:40:52Z</time>
      </trkpt>
      <trkpt lat="42.79513" lon="2.7243">
        <ele>195.8</ele>
        <time>2021-06-05T10:40:56Z</time>
      </trkpt>
      <trkpt lat="42.79514" lon="2.72431">
        <ele>196.6</ele>
        <time>2021-06-05T10:41:00Z</time>
      </trkpt>
      <trkpt lat="42.79514" lon="2.72431">
        <ele>196.4</ele>
        <time>2021-06-05T10:41:04Z</time>
      </trkpt>
      <trkpt lat="42.79551" lon="2.72478">
        <ele>191</ele>
        <time>2021-06-05T10:41:51Z</time>
      </trkpt>
      <trkpt lat="42.79564" lon="2.72453">
        <ele>189.2</ele>
        <time>2021-06-05T10:41:56Z</time>
      </trkpt>
      <trkpt lat="42.79571" lon="2.7244">
        <ele>188.8</ele>
        <time>2021-06-05T10:42:00Z</time>
      </trkpt>
      <trkpt lat="42.79572" lon="2.7244">
        <ele>188.4</ele>
        <time>2021-06-05T10:42:04Z</time>
      </trkpt>
      <trkpt lat="42.79572" lon="2.7244">
        <ele>188.6</ele>
        <time>2021-06-05T10:42:08Z</time>
      </trkpt>
      <trkpt lat="42.79606" lon="2.72433">
        <ele>187.8</ele>
        <time>2021-06-05T10:42:31Z</time>
      </trkpt>
      <trkpt lat="42.79619" lon="2.72442">
        <ele>186.6</ele>
        <time>2021-06-05T10:42:35Z</time>
      </trkpt>
      <trkpt lat="42.79634" lon="2.72455">
        <ele>185.6</ele>
        <time>2021-06-05T10:42:39Z</time>
      </trkpt>
      <trkpt lat="42.79655" lon="2.72449">
        <ele>184.6</ele>
        <time>2021-06-05T10:42:43Z</time>
      </trkpt>
      <trkpt lat="42.79675" lon="2.72436">
        <ele>183.6</ele>
        <time>2021-06-05T10:42:47Z</time>
      </trkpt>
      <trkpt lat="42.79693" lon="2.72421">
        <ele>182.8</ele>
        <time>2021-06-05T10:42:51Z</time>
      </trkpt>
      <trkpt lat="42.79712" lon="2.72415">
        <ele>180.6</ele>
        <time>2021-06-05T10:42:56Z</time>
      </trkpt>
      <trkpt lat="42.79719" lon="2.7244">
        <ele>179.4</ele>
        <time>2021-06-05T10:43:00Z</time>
      </trkpt>
      <trkpt lat="42.7972" lon="2.72472">
        <ele>178.4</ele>
        <time>2021-06-05T10:43:05Z</time>
      </trkpt>
      <trkpt lat="42.79745" lon="2.72493">
        <ele>176.4</ele>
        <time>2021-06-05T10:43:09Z</time>
      </trkpt>
      <trkpt lat="42.7977" lon="2.72497">
        <ele>174.8</ele>
        <time>2021-06-05T10:43:13Z</time>
      </trkpt>
      <trkpt lat="42.79793" lon="2.72515">
        <ele>174</ele>
        <time>2021-06-05T10:43:17Z</time>
      </trkpt>
      <trkpt lat="42.7982" lon="2.72505">
        <ele>172.2</ele>
        <time>2021-06-05T10:43:21Z</time>
      </trkpt>
      <trkpt lat="42.79841" lon="2.72475">
        <ele>170.8</ele>
        <time>2021-06-05T10:43:25Z</time>
      </trkpt>
      <trkpt lat="42.79863" lon="2.72431">
        <ele>169.2</ele>
        <time>2021-06-05T10:43:30Z</time>
      </trkpt>
      <trkpt lat="42.79871" lon="2.72391">
        <ele>167.6</ele>
        <time>2021-06-05T10:43:34Z</time>
      </trkpt>
      <trkpt lat="42.79889" lon="2.72378">
        <ele>166.8</ele>
        <time>2021-06-05T10:43:38Z</time>
      </trkpt>
      <trkpt lat="42.79906" lon="2.72403">
        <ele>165</ele>
        <time>2021-06-05T10:43:42Z</time>
      </trkpt>
      <trkpt lat="42.79913" lon="2.72437">
        <ele>163.2</ele>
        <time>2021-06-05T10:43:46Z</time>
      </trkpt>
      <trkpt lat="42.79908" lon="2.72474">
        <ele>161.6</ele>
        <time>2021-06-05T10:43:51Z</time>
      </trkpt>
      <trkpt lat="42.79884" lon="2.72516">
        <ele>159.6</ele>
        <time>2021-06-05T10:43:55Z</time>
      </trkpt>
      <trkpt lat="42.79881" lon="2.72556">
        <ele>156.4</ele>
        <time>2021-06-05T10:43:59Z</time>
      </trkpt>
      <trkpt lat="42.79908" lon="2.72568">
        <ele>156</ele>
        <time>2021-06-05T10:44:03Z</time>
      </trkpt>
      <trkpt lat="42.79935" lon="2.72558">
        <ele>154.6</ele>
        <time>2021-06-05T10:44:07Z</time>
      </trkpt>
      <trkpt lat="42.79962" lon="2.72545">
        <ele>153.2</ele>
        <time>2021-06-05T10:44:11Z</time>
      </trkpt>
      <trkpt lat="42.79996" lon="2.72556">
        <ele>151.2</ele>
        <time>2021-06-05T10:44:16Z</time>
      </trkpt>
      <trkpt lat="42.80011" lon="2.72594">
        <ele>148.6</ele>
        <time>2021-06-05T10:44:20Z</time>
      </trkpt>
      <trkpt lat="42.80026" lon="2.72634">
        <ele>147.2</ele>
        <time>2021-06-05T10:44:24Z</time>
      </trkpt>
      <trkpt lat="42.80031" lon="2.72681">
        <ele>145.2</ele>
        <time>2021-06-05T10:44:28Z</time>
      </trkpt>
      <trkpt lat="42.80036" lon="2.72724">
        <ele>143.6</ele>
        <time>2021-06-05T10:44:32Z</time>
      </trkpt>
      <trkpt lat="42.80039" lon="2.72765">
        <ele>141.4</ele>
        <time>2021-06-05T10:44:36Z</time>
      </trkpt>
      <trkpt lat="42.80056" lon="2.72797">
        <ele>140</ele>
        <time>2021-06-05T10:44:40Z</time>
      </trkpt>
      <trkpt lat="42.8007" lon="2.72834">
        <ele>138.2</ele>
        <time>2021-06-05T10:44:44Z</time>
      </trkpt>
      <trkpt lat="42.80082" lon="2.72871">
        <ele>136.8</ele>
        <time>2021-06-05T10:44:48Z</time>
      </trkpt>
      <trkpt lat="42.80098" lon="2.72904">
        <ele>135.2</ele>
        <time>2021-06-05T10:44:52Z</time>
      </trkpt>
      <trkpt lat="42.80109" lon="2.72944">
        <ele>133.4</ele>
        <time>2021-06-05T10:44:56Z</time>
      </trkpt>
      <trkpt lat="42.80118" lon="2.72986">
        <ele>131.4</ele>
        <time>2021-06-05T10:45:00Z</time>
      </trkpt>
      <trkpt lat="42.80131" lon="2.7303">
        <ele>129.6</ele>
        <time>2021-06-05T10:45:04Z</time>
      </trkpt>
      <trkpt lat="42.80145" lon="2.73071">
        <ele>127.6</ele>
        <time>2021-06-05T10:45:08Z</time>
      </trkpt>
      <trkpt lat="42.80154" lon="2.73114">
        <ele>125.6</ele>
        <time>2021-06-05T10:45:12Z</time>
      </trkpt>
      <trkpt lat="42.80165" lon="2.73157">
        <ele>124</ele>
        <time>2021-06-05T10:45:16Z</time>
      </trkpt>
      <trkpt lat="42.8017" lon="2.73199">
        <ele>121.8</ele>
        <time>2021-06-05T10:45:20Z</time>
      </trkpt>
      <trkpt lat="42.80167" lon="2.73234">
        <ele>121</ele>
        <time>2021-06-05T10:45:24Z</time>
      </trkpt>
      <trkpt lat="42.80178" lon="2.73257">
        <ele>119.4</ele>
        <time>2021-06-05T10:45:28Z</time>
      </trkpt>
      <trkpt lat="42.80187" lon="2.73262">
        <ele>118.6</ele>
        <time>2021-06-05T10:45:32Z</time>
      </trkpt>
      <trkpt lat="42.80188" lon="2.73263">
        <ele>118.6</ele>
        <time>2021-06-05T10:45:37Z</time>
      </trkpt>
      <trkpt lat="42.80188" lon="2.73264">
        <ele>118.4</ele>
        <time>2021-06-05T10:45:41Z</time>
      </trkpt>
      <trkpt lat="42.80218" lon="2.73267">
        <ele>115</ele>
        <time>2021-06-05T10:46:02Z</time>
      </trkpt>
      <trkpt lat="42.80219" lon="2.73267">
        <ele>114.6</ele>
        <time>2021-06-05T10:46:06Z</time>
      </trkpt>
      <trkpt lat="42.80219" lon="2.73266">
        <ele>114.8</ele>
        <time>2021-06-05T10:46:10Z</time>
      </trkpt>
      <trkpt lat="42.80255" lon="2.73312">
        <ele>112</ele>
        <time>2021-06-05T10:46:46Z</time>
      </trkpt>
      <trkpt lat="42.80277" lon="2.73333">
        <ele>110.6</ele>
        <time>2021-06-05T10:46:50Z</time>
      </trkpt>
      <trkpt lat="42.80297" lon="2.73361">
        <ele>109</ele>
        <time>2021-06-05T10:46:54Z</time>
      </trkpt>
      <trkpt lat="42.80318" lon="2.73397">
        <ele>107.4</ele>
        <time>2021-06-05T10:46:58Z</time>
      </trkpt>
      <trkpt lat="42.80337" lon="2.73436">
        <ele>107.4</ele>
        <time>2021-06-05T10:47:02Z</time>
      </trkpt>
      <trkpt lat="42.80355" lon="2.73476">
        <ele>107</ele>
        <time>2021-06-05T10:47:07Z</time>
      </trkpt>
      <trkpt lat="42.80389" lon="2.7351">
        <ele>107.6</ele>
        <time>2021-06-05T10:47:11Z</time>
      </trkpt>
      <trkpt lat="42.80413" lon="2.73541">
        <ele>107.8</ele>
        <time>2021-06-05T10:47:15Z</time>
      </trkpt>
      <trkpt lat="42.80432" lon="2.73578">
        <ele>109.2</ele>
        <time>2021-06-05T10:47:20Z</time>
      </trkpt>
      <trkpt lat="42.80454" lon="2.73621">
        <ele>109.8</ele>
        <time>2021-06-05T10:47:24Z</time>
      </trkpt>
      <trkpt lat="42.80478" lon="2.73645">
        <ele>107.6</ele>
        <time>2021-06-05T10:47:28Z</time>
      </trkpt>
      <trkpt lat="42.80503" lon="2.73667">
        <ele>108</ele>
        <time>2021-06-05T10:47:32Z</time>
      </trkpt>
      <trkpt lat="42.80524" lon="2.73696">
        <ele>107.8</ele>
        <time>2021-06-05T10:47:36Z</time>
      </trkpt>
      <trkpt lat="42.80542" lon="2.73726">
        <ele>107.8</ele>
        <time>2021-06-05T10:47:40Z</time>
      </trkpt>
      <trkpt lat="42.80558" lon="2.73752">
        <ele>107.6</ele>
        <time>2021-06-05T10:47:44Z</time>
      </trkpt>
      <trkpt lat="42.80577" lon="2.73782">
        <ele>109.8</ele>
        <time>2021-06-05T10:47:49Z</time>
      </trkpt>
      <trkpt lat="42.80592" lon="2.73803">
        <ele>110</ele>
        <time>2021-06-05T10:47:53Z</time>
      </trkpt>
      <trkpt lat="42.80604" lon="2.73821">
        <ele>110.6</ele>
        <time>2021-06-05T10:47:57Z</time>
      </trkpt>
      <trkpt lat="42.80614" lon="2.73836">
        <ele>110.6</ele>
        <time>2021-06-05T10:48:01Z</time>
      </trkpt>
      <trkpt lat="42.80623" lon="2.7385">
        <ele>111.6</ele>
        <time>2021-06-05T10:48:05Z</time>
      </trkpt>
      <trkpt lat="42.80631" lon="2.73861">
        <ele>111.8</ele>
        <time>2021-06-05T10:48:09Z</time>
      </trkpt>
      <trkpt lat="42.80639" lon="2.73872">
        <ele>112.6</ele>
        <time>2021-06-05T10:48:13Z</time>
      </trkpt>
      <trkpt lat="42.80647" lon="2.73884">
        <ele>113</ele>
        <time>2021-06-05T10:48:17Z</time>
      </trkpt>
      <trkpt lat="42.80654" lon="2.73896">
        <ele>113.8</ele>
        <time>2021-06-05T10:48:21Z</time>
      </trkpt>
      <trkpt lat="42.80661" lon="2.73908">
        <ele>114.2</ele>
        <time>2021-06-05T10:48:25Z</time>
      </trkpt>
      <trkpt lat="42.80667" lon="2.73921">
        <ele>114.6</ele>
        <time>2021-06-05T10:48:29Z</time>
      </trkpt>
      <trkpt lat="42.80673" lon="2.73932">
        <ele>115.2</ele>
        <time>2021-06-05T10:48:33Z</time>
      </trkpt>
      <trkpt lat="42.80679" lon="2.73943">
        <ele>114.8</ele>
        <time>2021-06-05T10:48:37Z</time>
      </trkpt>
      <trkpt lat="42.80687" lon="2.73954">
        <ele>115</ele>
        <time>2021-06-05T10:48:41Z</time>
      </trkpt>
      <trkpt lat="42.80693" lon="2.73966">
        <ele>115.8</ele>
        <time>2021-06-05T10:48:45Z</time>
      </trkpt>
      <trkpt lat="42.80699" lon="2.73978">
        <ele>117</ele>
        <time>2021-06-05T10:48:49Z</time>
      </trkpt>
      <trkpt lat="42.80704" lon="2.73991">
        <ele>117.2</ele>
        <time>2021-06-05T10:48:53Z</time>
      </trkpt>
      <trkpt lat="42.80709" lon="2.74003">
        <ele>116.8</ele>
        <time>2021-06-05T10:48:57Z</time>
      </trkpt>
      <trkpt lat="42.80715" lon="2.74016">
        <ele>118.2</ele>
        <time>2021-06-05T10:49:01Z</time>
      </trkpt>
      <trkpt lat="42.80721" lon="2.74028">
        <ele>118.4</ele>
        <time>2021-06-05T10:49:05Z</time>
      </trkpt>
      <trkpt lat="42.80728" lon="2.74043">
        <ele>118.8</ele>
        <time>2021-06-05T10:49:10Z</time>
      </trkpt>
      <trkpt lat="42.80733" lon="2.74056">
        <ele>118.4</ele>
        <time>2021-06-05T10:49:14Z</time>
      </trkpt>
      <trkpt lat="42.80738" lon="2.74069">
        <ele>118.2</ele>
        <time>2021-06-05T10:49:18Z</time>
      </trkpt>
      <trkpt lat="42.80743" lon="2.74082">
        <ele>118.4</ele>
        <time>2021-06-05T10:49:22Z</time>
      </trkpt>
      <trkpt lat="42.80746" lon="2.74095">
        <ele>118.8</ele>
        <time>2021-06-05T10:49:26Z</time>
      </trkpt>
      <trkpt lat="42.8075" lon="2.74104">
        <ele>118.8</ele>
        <time>2021-06-05T10:49:30Z</time>
      </trkpt>
      <trkpt lat="42.8075" lon="2.74104">
        <ele>118.6</ele>
        <time>2021-06-05T10:49:34Z</time>
      </trkpt>
      <trkpt lat="42.8074" lon="2.74133">
        <ele>117</ele>
        <time>2021-06-05T10:51:07Z</time>
      </trkpt>
      <trkpt lat="42.8073" lon="2.74152">
        <ele>116.4</ele>
        <time>2021-06-05T10:51:11Z</time>
      </trkpt>
      <trkpt lat="42.80716" lon="2.74171">
        <ele>115.6</ele>
        <time>2021-06-05T10:51:15Z</time>
      </trkpt>
      <trkpt lat="42.80707" lon="2.742">
        <ele>114.8</ele>
        <time>2021-06-05T10:51:19Z</time>
      </trkpt>
      <trkpt lat="42.80696" lon="2.74229">
        <ele>113.6</ele>
        <time>2021-06-05T10:51:23Z</time>
      </trkpt>
      <trkpt lat="42.80689" lon="2.74261">
        <ele>112</ele>
        <time>2021-06-05T10:51:27Z</time>
      </trkpt>
      <trkpt lat="42.80694" lon="2.74299">
        <ele>111.4</ele>
        <time>2021-06-05T10:51:31Z</time>
      </trkpt>
      <trkpt lat="42.80695" lon="2.74336">
        <ele>110.6</ele>
        <time>2021-06-05T10:51:35Z</time>
      </trkpt>
      <trkpt lat="42.80699" lon="2.74374">
        <ele>110.2</ele>
        <time>2021-06-05T10:51:39Z</time>
      </trkpt>
      <trkpt lat="42.80707" lon="2.7441">
        <ele>109.8</ele>
        <time>2021-06-05T10:51:43Z</time>
      </trkpt>
      <trkpt lat="42.80721" lon="2.74442">
        <ele>108</ele>
        <time>2021-06-05T10:51:47Z</time>
      </trkpt>
      <trkpt lat="42.8074" lon="2.74463">
        <ele>107</ele>
        <time>2021-06-05T10:51:51Z</time>
      </trkpt>
      <trkpt lat="42.80761" lon="2.74477">
        <ele>105.8</ele>
        <time>2021-06-05T10:51:55Z</time>
      </trkpt>
      <trkpt lat="42.80788" lon="2.74489">
        <ele>105.2</ele>
        <time>2021-06-05T10:52:00Z</time>
      </trkpt>
      <trkpt lat="42.80808" lon="2.74496">
        <ele>104.4</ele>
        <time>2021-06-05T10:52:04Z</time>
      </trkpt>
      <trkpt lat="42.80833" lon="2.74494">
        <ele>103.6</ele>
        <time>2021-06-05T10:52:08Z</time>
      </trkpt>
      <trkpt lat="42.80857" lon="2.74492">
        <ele>103.2</ele>
        <time>2021-06-05T10:52:12Z</time>
      </trkpt>
      <trkpt lat="42.80882" lon="2.74485">
        <ele>103.4</ele>
        <time>2021-06-05T10:52:16Z</time>
      </trkpt>
      <trkpt lat="42.80893" lon="2.74481">
        <ele>103.8</ele>
        <time>2021-06-05T10:52:20Z</time>
      </trkpt>
      <trkpt lat="42.80909" lon="2.74479">
        <ele>103.8</ele>
        <time>2021-06-05T10:52:24Z</time>
      </trkpt>
      <trkpt lat="42.80921" lon="2.74472">
        <ele>104</ele>
        <time>2021-06-05T10:52:28Z</time>
      </trkpt>
      <trkpt lat="42.80933" lon="2.74464">
        <ele>104.4</ele>
        <time>2021-06-05T10:52:32Z</time>
      </trkpt>
      <trkpt lat="42.80942" lon="2.74459">
        <ele>105.2</ele>
        <time>2021-06-05T10:52:36Z</time>
      </trkpt>
      <trkpt lat="42.80952" lon="2.74457">
        <ele>105.6</ele>
        <time>2021-06-05T10:52:40Z</time>
      </trkpt>
      <trkpt lat="42.80962" lon="2.74457">
        <ele>106.2</ele>
        <time>2021-06-05T10:52:44Z</time>
      </trkpt>
      <trkpt lat="42.80971" lon="2.7446">
        <ele>106.4</ele>
        <time>2021-06-05T10:52:48Z</time>
      </trkpt>
      <trkpt lat="42.8098" lon="2.74463">
        <ele>106.6</ele>
        <time>2021-06-05T10:52:52Z</time>
      </trkpt>
      <trkpt lat="42.80988" lon="2.74465">
        <ele>107</ele>
        <time>2021-06-05T10:52:56Z</time>
      </trkpt>
      <trkpt lat="42.80997" lon="2.74466">
        <ele>107.2</ele>
        <time>2021-06-05T10:53:00Z</time>
      </trkpt>
      <trkpt lat="42.81004" lon="2.74467">
        <ele>107.6</ele>
        <time>2021-06-05T10:53:04Z</time>
      </trkpt>
      <trkpt lat="42.81013" lon="2.74464">
        <ele>108.6</ele>
        <time>2021-06-05T10:53:09Z</time>
      </trkpt>
      <trkpt lat="42.81023" lon="2.74461">
        <ele>109</ele>
        <time>2021-06-05T10:53:14Z</time>
      </trkpt>
      <trkpt lat="42.81041" lon="2.74458">
        <ele>110.2</ele>
        <time>2021-06-05T10:53:22Z</time>
      </trkpt>
      <trkpt lat="42.8105" lon="2.74453">
        <ele>110.8</ele>
        <time>2021-06-05T10:53:27Z</time>
      </trkpt>
      <trkpt lat="42.81058" lon="2.7445">
        <ele>111.2</ele>
        <time>2021-06-05T10:53:31Z</time>
      </trkpt>
      <trkpt lat="42.81067" lon="2.74447">
        <ele>111.4</ele>
        <time>2021-06-05T10:53:35Z</time>
      </trkpt>
      <trkpt lat="42.81077" lon="2.74446">
        <ele>111.4</ele>
        <time>2021-06-05T10:53:39Z</time>
      </trkpt>
      <trkpt lat="42.81086" lon="2.74451">
        <ele>111.6</ele>
        <time>2021-06-05T10:53:43Z</time>
      </trkpt>
      <trkpt lat="42.81093" lon="2.74452">
        <ele>111.8</ele>
        <time>2021-06-05T10:53:47Z</time>
      </trkpt>
      <trkpt lat="42.81102" lon="2.74453">
        <ele>112.2</ele>
        <time>2021-06-05T10:53:51Z</time>
      </trkpt>
      <trkpt lat="42.81111" lon="2.74453">
        <ele>112.4</ele>
        <time>2021-06-05T10:53:55Z</time>
      </trkpt>
      <trkpt lat="42.81121" lon="2.74455">
        <ele>112.8</ele>
        <time>2021-06-05T10:53:59Z</time>
      </trkpt>
      <trkpt lat="42.8113" lon="2.74458">
        <ele>113.4</ele>
        <time>2021-06-05T10:54:03Z</time>
      </trkpt>
      <trkpt lat="42.81139" lon="2.7446">
        <ele>113.8</ele>
        <time>2021-06-05T10:54:07Z</time>
      </trkpt>
      <trkpt lat="42.81148" lon="2.74462">
        <ele>114</ele>
        <time>2021-06-05T10:54:11Z</time>
      </trkpt>
      <trkpt lat="42.81156" lon="2.74467">
        <ele>114.4</ele>
        <time>2021-06-05T10:54:16Z</time>
      </trkpt>
      <trkpt lat="42.81167" lon="2.74472">
        <ele>114.4</ele>
        <time>2021-06-05T10:54:20Z</time>
      </trkpt>
      <trkpt lat="42.81176" lon="2.74477">
        <ele>114.6</ele>
        <time>2021-06-05T10:54:24Z</time>
      </trkpt>
      <trkpt lat="42.81184" lon="2.7448">
        <ele>114.6</ele>
        <time>2021-06-05T10:54:28Z</time>
      </trkpt>
      <trkpt lat="42.81197" lon="2.74489">
        <ele>114.6</ele>
        <time>2021-06-05T10:54:32Z</time>
      </trkpt>
      <trkpt lat="42.81206" lon="2.74498">
        <ele>115</ele>
        <time>2021-06-05T10:54:36Z</time>
      </trkpt>
      <trkpt lat="42.81213" lon="2.74505">
        <ele>115.6</ele>
        <time>2021-06-05T10:54:40Z</time>
      </trkpt>
      <trkpt lat="42.81221" lon="2.74513">
        <ele>116.4</ele>
        <time>2021-06-05T10:54:45Z</time>
      </trkpt>
      <trkpt lat="42.81227" lon="2.74518">
        <ele>117</ele>
        <time>2021-06-05T10:54:49Z</time>
      </trkpt>
      <trkpt lat="42.81233" lon="2.74524">
        <ele>117.4</ele>
        <time>2021-06-05T10:54:53Z</time>
      </trkpt>
      <trkpt lat="42.8124" lon="2.7453">
        <ele>118</ele>
        <time>2021-06-05T10:54:57Z</time>
      </trkpt>
      <trkpt lat="42.81246" lon="2.74536">
        <ele>118.2</ele>
        <time>2021-06-05T10:55:01Z</time>
      </trkpt>
      <trkpt lat="42.81254" lon="2.74543">
        <ele>118.2</ele>
        <time>2021-06-05T10:55:05Z</time>
      </trkpt>
      <trkpt lat="42.81261" lon="2.74546">
        <ele>118.2</ele>
        <time>2021-06-05T10:55:09Z</time>
      </trkpt>
      <trkpt lat="42.81268" lon="2.7455">
        <ele>118.4</ele>
        <time>2021-06-05T10:55:13Z</time>
      </trkpt>
      <trkpt lat="42.81276" lon="2.74555">
        <ele>118.4</ele>
        <time>2021-06-05T10:55:17Z</time>
      </trkpt>
      <trkpt lat="42.81287" lon="2.74556">
        <ele>117.8</ele>
        <time>2021-06-05T10:55:21Z</time>
      </trkpt>
      <trkpt lat="42.81299" lon="2.74555">
        <ele>116.6</ele>
        <time>2021-06-05T10:55:25Z</time>
      </trkpt>
      <trkpt lat="42.8131" lon="2.74554">
        <ele>115.6</ele>
        <time>2021-06-05T10:55:29Z</time>
      </trkpt>
      <trkpt lat="42.8132" lon="2.7456">
        <ele>115</ele>
        <time>2021-06-05T10:55:33Z</time>
      </trkpt>
      <trkpt lat="42.81328" lon="2.74564">
        <ele>114.6</ele>
        <time>2021-06-05T10:55:37Z</time>
      </trkpt>
      <trkpt lat="42.81334" lon="2.74564">
        <ele>114</ele>
        <time>2021-06-05T10:55:41Z</time>
      </trkpt>
      <trkpt lat="42.8134" lon="2.74564">
        <ele>113.4</ele>
        <time>2021-06-05T10:55:45Z</time>
      </trkpt>
      <trkpt lat="42.81346" lon="2.7456">
        <ele>112.6</ele>
        <time>2021-06-05T10:55:49Z</time>
      </trkpt>
      <trkpt lat="42.81355" lon="2.74551">
        <ele>111.4</ele>
        <time>2021-06-05T10:55:53Z</time>
      </trkpt>
      <trkpt lat="42.81365" lon="2.7454">
        <ele>110.4</ele>
        <time>2021-06-05T10:55:57Z</time>
      </trkpt>
      <trkpt lat="42.8137" lon="2.74532">
        <ele>109.6</ele>
        <time>2021-06-05T10:56:01Z</time>
      </trkpt>
      <trkpt lat="42.81373" lon="2.74525">
        <ele>109.2</ele>
        <time>2021-06-05T10:56:06Z</time>
      </trkpt>
      <trkpt lat="42.81367" lon="2.74518">
        <ele>108.8</ele>
        <time>2021-06-05T10:56:10Z</time>
      </trkpt>
      <trkpt lat="42.81359" lon="2.74512">
        <ele>108.6</ele>
        <time>2021-06-05T10:56:14Z</time>
      </trkpt>
      <trkpt lat="42.81353" lon="2.74507">
        <ele>108.2</ele>
        <time>2021-06-05T10:56:18Z</time>
      </trkpt>
      <trkpt lat="42.81345" lon="2.74503">
        <ele>108.4</ele>
        <time>2021-06-05T10:56:22Z</time>
      </trkpt>
      <trkpt lat="42.81339" lon="2.74497">
        <ele>108.8</ele>
        <time>2021-06-05T10:56:26Z</time>
      </trkpt>
      <trkpt lat="42.81331" lon="2.74492">
        <ele>108.6</ele>
        <time>2021-06-05T10:56:30Z</time>
      </trkpt>
      <trkpt lat="42.81318" lon="2.74484">
        <ele>108.4</ele>
        <time>2021-06-05T10:56:34Z</time>
      </trkpt>
      <trkpt lat="42.81303" lon="2.74477">
        <ele>108.2</ele>
        <time>2021-06-05T10:56:38Z</time>
      </trkpt>
      <trkpt lat="42.81288" lon="2.74472">
        <ele>108</ele>
        <time>2021-06-05T10:56:42Z</time>
      </trkpt>
      <trkpt lat="42.8127" lon="2.74468">
        <ele>107.8</ele>
        <time>2021-06-05T10:56:46Z</time>
      </trkpt>
      <trkpt lat="42.81251" lon="2.74464">
        <ele>108</ele>
        <time>2021-06-05T10:56:50Z</time>
      </trkpt>
      <trkpt lat="42.81233" lon="2.7446">
        <ele>108</ele>
        <time>2021-06-05T10:56:54Z</time>
      </trkpt>
      <trkpt lat="42.81215" lon="2.74455">
        <ele>108.2</ele>
        <time>2021-06-05T10:56:58Z</time>
      </trkpt>
      <trkpt lat="42.81198" lon="2.74451">
        <ele>108.2</ele>
        <time>2021-06-05T10:57:02Z</time>
      </trkpt>
      <trkpt lat="42.81181" lon="2.74446">
        <ele>108.4</ele>
        <time>2021-06-05T10:57:06Z</time>
      </trkpt>
      <trkpt lat="42.81166" lon="2.74443">
        <ele>108.8</ele>
        <time>2021-06-05T10:57:10Z</time>
      </trkpt>
      <trkpt lat="42.81157" lon="2.7444">
        <ele>108.8</ele>
        <time>2021-06-05T10:57:14Z</time>
      </trkpt>
      <trkpt lat="42.81147" lon="2.74435">
        <ele>108.8</ele>
        <time>2021-06-05T10:57:19Z</time>
      </trkpt>
      <trkpt lat="42.81136" lon="2.74432">
        <ele>109</ele>
        <time>2021-06-05T10:57:23Z</time>
      </trkpt>
      <trkpt lat="42.81119" lon="2.74437">
        <ele>109.2</ele>
        <time>2021-06-05T10:57:28Z</time>
      </trkpt>
      <trkpt lat="42.81104" lon="2.74437">
        <ele>109.6</ele>
        <time>2021-06-05T10:57:32Z</time>
      </trkpt>
      <trkpt lat="42.8109" lon="2.74442">
        <ele>110</ele>
        <time>2021-06-05T10:57:36Z</time>
      </trkpt>
      <trkpt lat="42.81079" lon="2.74448">
        <ele>110.2</ele>
        <time>2021-06-05T10:57:40Z</time>
      </trkpt>
      <trkpt lat="42.81068" lon="2.74454">
        <ele>110.2</ele>
        <time>2021-06-05T10:57:44Z</time>
      </trkpt>
      <trkpt lat="42.81057" lon="2.74459">
        <ele>109.6</ele>
        <time>2021-06-05T10:57:48Z</time>
      </trkpt>
      <trkpt lat="42.8105" lon="2.74461">
        <ele>109</ele>
        <time>2021-06-05T10:57:52Z</time>
      </trkpt>
      <trkpt lat="42.81038" lon="2.74464">
        <ele>108.4</ele>
        <time>2021-06-05T10:57:56Z</time>
      </trkpt>
      <trkpt lat="42.81023" lon="2.74463">
        <ele>107.4</ele>
        <time>2021-06-05T10:58:00Z</time>
      </trkpt>
      <trkpt lat="42.80998" lon="2.74454">
        <ele>106.6</ele>
        <time>2021-06-05T10:58:05Z</time>
      </trkpt>
      <trkpt lat="42.80963" lon="2.74452">
        <ele>106.2</ele>
        <time>2021-06-05T10:58:10Z</time>
      </trkpt>
      <trkpt lat="42.80938" lon="2.74462">
        <ele>105</ele>
        <time>2021-06-05T10:58:14Z</time>
      </trkpt>
      <trkpt lat="42.80917" lon="2.74473">
        <ele>104.6</ele>
        <time>2021-06-05T10:58:18Z</time>
      </trkpt>
      <trkpt lat="42.80903" lon="2.74478">
        <ele>103.6</ele>
        <time>2021-06-05T10:58:22Z</time>
      </trkpt>
      <trkpt lat="42.80894" lon="2.74475">
        <ele>103.4</ele>
        <time>2021-06-05T10:58:26Z</time>
      </trkpt>
      <trkpt lat="42.80893" lon="2.74475">
        <ele>103.2</ele>
        <time>2021-06-05T10:58:30Z</time>
      </trkpt>
      <trkpt lat="42.80893" lon="2.74476">
        <ele>103.2</ele>
        <time>2021-06-05T10:58:34Z</time>
      </trkpt>
      <trkpt lat="42.80917" lon="2.74475">
        <ele>108.6</ele>
        <time>2021-06-05T11:42:39Z</time>
      </trkpt>
      <trkpt lat="42.80927" lon="2.74469">
        <ele>108.8</ele>
        <time>2021-06-05T11:42:43Z</time>
      </trkpt>
      <trkpt lat="42.80937" lon="2.74464">
        <ele>109.2</ele>
        <time>2021-06-05T11:42:47Z</time>
      </trkpt>
      <trkpt lat="42.8095" lon="2.74459">
        <ele>109.8</ele>
        <time>2021-06-05T11:42:52Z</time>
      </trkpt>
      <trkpt lat="42.80955" lon="2.74451">
        <ele>110.8</ele>
        <time>2021-06-05T11:42:56Z</time>
      </trkpt>
      <trkpt lat="42.80959" lon="2.74451">
        <ele>110.8</ele>
        <time>2021-06-05T11:43:00Z</time>
      </trkpt>
      <trkpt lat="42.80966" lon="2.74458">
        <ele>111.8</ele>
        <time>2021-06-05T11:43:04Z</time>
      </trkpt>
      <trkpt lat="42.80975" lon="2.7446">
        <ele>112</ele>
        <time>2021-06-05T11:43:08Z</time>
      </trkpt>
      <trkpt lat="42.80984" lon="2.74464">
        <ele>111.4</ele>
        <time>2021-06-05T11:43:12Z</time>
      </trkpt>
      <trkpt lat="42.80991" lon="2.74468">
        <ele>111.4</ele>
        <time>2021-06-05T11:43:16Z</time>
      </trkpt>
      <trkpt lat="42.80998" lon="2.7447">
        <ele>111</ele>
        <time>2021-06-05T11:43:20Z</time>
      </trkpt>
      <trkpt lat="42.81007" lon="2.74472">
        <ele>111.6</ele>
        <time>2021-06-05T11:43:24Z</time>
      </trkpt>
      <trkpt lat="42.81017" lon="2.74472">
        <ele>112</ele>
        <time>2021-06-05T11:43:29Z</time>
      </trkpt>
      <trkpt lat="42.81027" lon="2.7447">
        <ele>112.6</ele>
        <time>2021-06-05T11:43:34Z</time>
      </trkpt>
      <trkpt lat="42.81041" lon="2.74465">
        <ele>113.4</ele>
        <time>2021-06-05T11:43:41Z</time>
      </trkpt>
      <trkpt lat="42.81052" lon="2.7446">
        <ele>113.4</ele>
        <time>2021-06-05T11:43:46Z</time>
      </trkpt>
      <trkpt lat="42.8106" lon="2.74456">
        <ele>113.6</ele>
        <time>2021-06-05T11:43:50Z</time>
      </trkpt>
      <trkpt lat="42.81071" lon="2.74451">
        <ele>114</ele>
        <time>2021-06-05T11:43:54Z</time>
      </trkpt>
      <trkpt lat="42.8108" lon="2.74447">
        <ele>113.6</ele>
        <time>2021-06-05T11:43:58Z</time>
      </trkpt>
      <trkpt lat="42.81093" lon="2.74443">
        <ele>113.2</ele>
        <time>2021-06-05T11:44:02Z</time>
      </trkpt>
      <trkpt lat="42.81106" lon="2.74437">
        <ele>112.6</ele>
        <time>2021-06-05T11:44:06Z</time>
      </trkpt>
      <trkpt lat="42.81122" lon="2.74433">
        <ele>112.2</ele>
        <time>2021-06-05T11:44:10Z</time>
      </trkpt>
      <trkpt lat="42.81143" lon="2.74435">
        <ele>112</ele>
        <time>2021-06-05T11:44:15Z</time>
      </trkpt>
      <trkpt lat="42.8116" lon="2.74441">
        <ele>112.2</ele>
        <time>2021-06-05T11:44:20Z</time>
      </trkpt>
      <trkpt lat="42.81181" lon="2.74448">
        <ele>111.8</ele>
        <time>2021-06-05T11:44:24Z</time>
      </trkpt>
      <trkpt lat="42.81201" lon="2.74451">
        <ele>111.8</ele>
        <time>2021-06-05T11:44:28Z</time>
      </trkpt>
      <trkpt lat="42.8122" lon="2.74457">
        <ele>111.2</ele>
        <time>2021-06-05T11:44:32Z</time>
      </trkpt>
      <trkpt lat="42.81238" lon="2.74462">
        <ele>110.8</ele>
        <time>2021-06-05T11:44:36Z</time>
      </trkpt>
      <trkpt lat="42.81256" lon="2.74466">
        <ele>110.4</ele>
        <time>2021-06-05T11:44:40Z</time>
      </trkpt>
      <trkpt lat="42.81273" lon="2.7447">
        <ele>110.4</ele>
        <time>2021-06-05T11:44:44Z</time>
      </trkpt>
      <trkpt lat="42.81289" lon="2.74474">
        <ele>110.8</ele>
        <time>2021-06-05T11:44:48Z</time>
      </trkpt>
      <trkpt lat="42.81304" lon="2.7448">
        <ele>110.8</ele>
        <time>2021-06-05T11:44:52Z</time>
      </trkpt>
      <trkpt lat="42.81318" lon="2.74487">
        <ele>111.4</ele>
        <time>2021-06-05T11:44:56Z</time>
      </trkpt>
      <trkpt lat="42.8133" lon="2.74494">
        <ele>112.2</ele>
        <time>2021-06-05T11:45:00Z</time>
      </trkpt>
      <trkpt lat="42.81343" lon="2.74503">
        <ele>112</ele>
        <time>2021-06-05T11:45:04Z</time>
      </trkpt>
      <trkpt lat="42.81358" lon="2.74515">
        <ele>111.6</ele>
        <time>2021-06-05T11:45:08Z</time>
      </trkpt>
      <trkpt lat="42.8137" lon="2.74525">
        <ele>112</ele>
        <time>2021-06-05T11:45:12Z</time>
      </trkpt>
      <trkpt lat="42.81377" lon="2.74533">
        <ele>112.2</ele>
        <time>2021-06-05T11:45:16Z</time>
      </trkpt>
      <trkpt lat="42.81382" lon="2.74537">
        <ele>112.2</ele>
        <time>2021-06-05T11:45:20Z</time>
      </trkpt>
      <trkpt lat="42.81385" lon="2.74539">
        <ele>112</ele>
        <time>2021-06-05T11:45:24Z</time>
      </trkpt>
      <trkpt lat="42.81386" lon="2.74537">
        <ele>112</ele>
        <time>2021-06-05T11:45:28Z</time>
      </trkpt>
      <trkpt lat="42.81399" lon="2.74506">
        <ele>113.2</ele>
        <time>2021-06-05T12:00:21Z</time>
      </trkpt>
      <trkpt lat="42.8141" lon="2.7449">
        <ele>112.8</ele>
        <time>2021-06-05T12:00:26Z</time>
      </trkpt>
      <trkpt lat="42.81419" lon="2.7448">
        <ele>112.6</ele>
        <time>2021-06-05T12:00:30Z</time>
      </trkpt>
      <trkpt lat="42.81423" lon="2.74467">
        <ele>112.2</ele>
        <time>2021-06-05T12:00:34Z</time>
      </trkpt>
      <trkpt lat="42.81431" lon="2.74451">
        <ele>112</ele>
        <time>2021-06-05T12:00:38Z</time>
      </trkpt>
      <trkpt lat="42.81441" lon="2.74435">
        <ele>111.8</ele>
        <time>2021-06-05T12:00:42Z</time>
      </trkpt>
      <trkpt lat="42.81453" lon="2.74416">
        <ele>112</ele>
        <time>2021-06-05T12:00:46Z</time>
      </trkpt>
      <trkpt lat="42.81466" lon="2.74398">
        <ele>111.6</ele>
        <time>2021-06-05T12:00:50Z</time>
      </trkpt>
      <trkpt lat="42.81477" lon="2.74379">
        <ele>111.6</ele>
        <time>2021-06-05T12:00:54Z</time>
      </trkpt>
      <trkpt lat="42.81487" lon="2.74362">
        <ele>111.8</ele>
        <time>2021-06-05T12:00:58Z</time>
      </trkpt>
      <trkpt lat="42.81492" lon="2.74344">
        <ele>112.4</ele>
        <time>2021-06-05T12:01:02Z</time>
      </trkpt>
      <trkpt lat="42.81496" lon="2.74329">
        <ele>112.8</ele>
        <time>2021-06-05T12:01:06Z</time>
      </trkpt>
      <trkpt lat="42.815" lon="2.74315">
        <ele>113.2</ele>
        <time>2021-06-05T12:01:10Z</time>
      </trkpt>
      <trkpt lat="42.81504" lon="2.743">
        <ele>113</ele>
        <time>2021-06-05T12:01:14Z</time>
      </trkpt>
      <trkpt lat="42.81507" lon="2.74284">
        <ele>112.8</ele>
        <time>2021-06-05T12:01:18Z</time>
      </trkpt>
      <trkpt lat="42.81511" lon="2.74269">
        <ele>112.8</ele>
        <time>2021-06-05T12:01:22Z</time>
      </trkpt>
      <trkpt lat="42.81515" lon="2.74252">
        <ele>112.4</ele>
        <time>2021-06-05T12:01:26Z</time>
      </trkpt>
      <trkpt lat="42.81519" lon="2.74235">
        <ele>112.4</ele>
        <time>2021-06-05T12:01:30Z</time>
      </trkpt>
      <trkpt lat="42.8153" lon="2.74234">
        <ele>112.4</ele>
        <time>2021-06-05T12:01:34Z</time>
      </trkpt>
      <trkpt lat="42.81543" lon="2.74244">
        <ele>111.6</ele>
        <time>2021-06-05T12:01:38Z</time>
      </trkpt>
      <trkpt lat="42.81556" lon="2.74258">
        <ele>111.2</ele>
        <time>2021-06-05T12:01:42Z</time>
      </trkpt>
      <trkpt lat="42.81572" lon="2.74272">
        <ele>111</ele>
        <time>2021-06-05T12:01:47Z</time>
      </trkpt>
      <trkpt lat="42.81579" lon="2.74278">
        <ele>111</ele>
        <time>2021-06-05T12:01:51Z</time>
      </trkpt>
      <trkpt lat="42.81583" lon="2.74282">
        <ele>110.8</ele>
        <time>2021-06-05T12:01:55Z</time>
      </trkpt>
      <trkpt lat="42.81585" lon="2.74284">
        <ele>110.8</ele>
        <time>2021-06-05T12:01:59Z</time>
      </trkpt>
      <trkpt lat="42.81584" lon="2.74284">
        <ele>110.8</ele>
        <time>2021-06-05T12:02:03Z</time>
      </trkpt>
      <trkpt lat="42.81572" lon="2.7427">
        <ele>110.2</ele>
        <time>2021-06-05T12:02:51Z</time>
      </trkpt>
      <trkpt lat="42.81563" lon="2.74264">
        <ele>110.2</ele>
        <time>2021-06-05T12:02:55Z</time>
      </trkpt>
      <trkpt lat="42.81554" lon="2.74254">
        <ele>110.2</ele>
        <time>2021-06-05T12:02:59Z</time>
      </trkpt>
      <trkpt lat="42.81545" lon="2.74244">
        <ele>110.4</ele>
        <time>2021-06-05T12:03:03Z</time>
      </trkpt>
      <trkpt lat="42.81537" lon="2.74235">
        <ele>110.6</ele>
        <time>2021-06-05T12:03:07Z</time>
      </trkpt>
      <trkpt lat="42.81531" lon="2.74226">
        <ele>110.8</ele>
        <time>2021-06-05T12:03:11Z</time>
      </trkpt>
      <trkpt lat="42.81527" lon="2.74217">
        <ele>111</ele>
        <time>2021-06-05T12:03:15Z</time>
      </trkpt>
      <trkpt lat="42.81524" lon="2.74206">
        <ele>110.8</ele>
        <time>2021-06-05T12:03:19Z</time>
      </trkpt>
      <trkpt lat="42.81524" lon="2.74191">
        <ele>110.8</ele>
        <time>2021-06-05T12:03:23Z</time>
      </trkpt>
      <trkpt lat="42.81524" lon="2.74172">
        <ele>110.4</ele>
        <time>2021-06-05T12:03:27Z</time>
      </trkpt>
      <trkpt lat="42.81523" lon="2.74152">
        <ele>110</ele>
        <time>2021-06-05T12:03:31Z</time>
      </trkpt>
      <trkpt lat="42.81521" lon="2.74131">
        <ele>110</ele>
        <time>2021-06-05T12:03:35Z</time>
      </trkpt>
      <trkpt lat="42.81521" lon="2.7411">
        <ele>110</ele>
        <time>2021-06-05T12:03:39Z</time>
      </trkpt>
      <trkpt lat="42.81519" lon="2.7409">
        <ele>109.8</ele>
        <time>2021-06-05T12:03:43Z</time>
      </trkpt>
      <trkpt lat="42.81517" lon="2.74071">
        <ele>110</ele>
        <time>2021-06-05T12:03:47Z</time>
      </trkpt>
      <trkpt lat="42.81514" lon="2.74048">
        <ele>110.2</ele>
        <time>2021-06-05T12:03:52Z</time>
      </trkpt>
      <trkpt lat="42.81511" lon="2.74032">
        <ele>110.6</ele>
        <time>2021-06-05T12:03:56Z</time>
      </trkpt>
      <trkpt lat="42.81509" lon="2.74015">
        <ele>110.6</ele>
        <time>2021-06-05T12:04:00Z</time>
      </trkpt>
      <trkpt lat="42.81506" lon="2.73999">
        <ele>110.8</ele>
        <time>2021-06-05T12:04:04Z</time>
      </trkpt>
      <trkpt lat="42.81505" lon="2.73984">
        <ele>111</ele>
        <time>2021-06-05T12:04:08Z</time>
      </trkpt>
      <trkpt lat="42.8151" lon="2.73971">
        <ele>111.4</ele>
        <time>2021-06-05T12:04:12Z</time>
      </trkpt>
      <trkpt lat="42.81519" lon="2.73963">
        <ele>111.4</ele>
        <time>2021-06-05T12:04:16Z</time>
      </trkpt>
      <trkpt lat="42.81528" lon="2.73956">
        <ele>112.2</ele>
        <time>2021-06-05T12:04:20Z</time>
      </trkpt>
      <trkpt lat="42.81537" lon="2.73948">
        <ele>112.2</ele>
        <time>2021-06-05T12:04:24Z</time>
      </trkpt>
      <trkpt lat="42.81546" lon="2.73939">
        <ele>112.4</ele>
        <time>2021-06-05T12:04:28Z</time>
      </trkpt>
      <trkpt lat="42.81554" lon="2.73929">
        <ele>112.4</ele>
        <time>2021-06-05T12:04:32Z</time>
      </trkpt>
      <trkpt lat="42.81563" lon="2.73917">
        <ele>112.8</ele>
        <time>2021-06-05T12:04:36Z</time>
      </trkpt>
      <trkpt lat="42.81571" lon="2.73905">
        <ele>113</ele>
        <time>2021-06-05T12:04:40Z</time>
      </trkpt>
      <trkpt lat="42.8158" lon="2.73893">
        <ele>113.2</ele>
        <time>2021-06-05T12:04:44Z</time>
      </trkpt>
      <trkpt lat="42.81589" lon="2.7388">
        <ele>113.4</ele>
        <time>2021-06-05T12:04:48Z</time>
      </trkpt>
      <trkpt lat="42.81598" lon="2.73868">
        <ele>113.8</ele>
        <time>2021-06-05T12:04:52Z</time>
      </trkpt>
      <trkpt lat="42.81606" lon="2.73856">
        <ele>114</ele>
        <time>2021-06-05T12:04:56Z</time>
      </trkpt>
      <trkpt lat="42.81615" lon="2.73844">
        <ele>114.2</ele>
        <time>2021-06-05T12:05:00Z</time>
      </trkpt>
      <trkpt lat="42.81622" lon="2.73832">
        <ele>114.4</ele>
        <time>2021-06-05T12:05:04Z</time>
      </trkpt>
      <trkpt lat="42.8163" lon="2.73823">
        <ele>114.2</ele>
        <time>2021-06-05T12:05:08Z</time>
      </trkpt>
      <trkpt lat="42.81642" lon="2.73809">
        <ele>114.4</ele>
        <time>2021-06-05T12:05:13Z</time>
      </trkpt>
      <trkpt lat="42.81651" lon="2.73796">
        <ele>114.8</ele>
        <time>2021-06-05T12:05:17Z</time>
      </trkpt>
      <trkpt lat="42.81658" lon="2.73785">
        <ele>115.6</ele>
        <time>2021-06-05T12:05:21Z</time>
      </trkpt>
      <trkpt lat="42.81665" lon="2.73774">
        <ele>116</ele>
        <time>2021-06-05T12:05:25Z</time>
      </trkpt>
      <trkpt lat="42.81673" lon="2.73763">
        <ele>116</ele>
        <time>2021-06-05T12:05:29Z</time>
      </trkpt>
      <trkpt lat="42.8168" lon="2.73753">
        <ele>116</ele>
        <time>2021-06-05T12:05:33Z</time>
      </trkpt>
      <trkpt lat="42.81687" lon="2.73743">
        <ele>116.8</ele>
        <time>2021-06-05T12:05:37Z</time>
      </trkpt>
      <trkpt lat="42.81693" lon="2.73732">
        <ele>117</ele>
        <time>2021-06-05T12:05:41Z</time>
      </trkpt>
      <trkpt lat="42.817" lon="2.73722">
        <ele>117.2</ele>
        <time>2021-06-05T12:05:45Z</time>
      </trkpt>
      <trkpt lat="42.81706" lon="2.73711">
        <ele>117.6</ele>
        <time>2021-06-05T12:05:49Z</time>
      </trkpt>
      <trkpt lat="42.81713" lon="2.73699">
        <ele>118</ele>
        <time>2021-06-05T12:05:53Z</time>
      </trkpt>
      <trkpt lat="42.81721" lon="2.73687">
        <ele>118.4</ele>
        <time>2021-06-05T12:05:57Z</time>
      </trkpt>
      <trkpt lat="42.81729" lon="2.73676">
        <ele>118.6</ele>
        <time>2021-06-05T12:06:01Z</time>
      </trkpt>
      <trkpt lat="42.81736" lon="2.73664">
        <ele>119.2</ele>
        <time>2021-06-05T12:06:05Z</time>
      </trkpt>
      <trkpt lat="42.81745" lon="2.73652">
        <ele>119.2</ele>
        <time>2021-06-05T12:06:09Z</time>
      </trkpt>
      <trkpt lat="42.81754" lon="2.73639">
        <ele>119.4</ele>
        <time>2021-06-05T12:06:13Z</time>
      </trkpt>
      <trkpt lat="42.81763" lon="2.73627">
        <ele>119.4</ele>
        <time>2021-06-05T12:06:17Z</time>
      </trkpt>
      <trkpt lat="42.81771" lon="2.73615">
        <ele>120</ele>
        <time>2021-06-05T12:06:21Z</time>
      </trkpt>
      <trkpt lat="42.81781" lon="2.73604">
        <ele>120</ele>
        <time>2021-06-05T12:06:25Z</time>
      </trkpt>
      <trkpt lat="42.81792" lon="2.73592">
        <ele>120.4</ele>
        <time>2021-06-05T12:06:30Z</time>
      </trkpt>
      <trkpt lat="42.81801" lon="2.73584">
        <ele>120.6</ele>
        <time>2021-06-05T12:06:34Z</time>
      </trkpt>
      <trkpt lat="42.81809" lon="2.73575">
        <ele>120.8</ele>
        <time>2021-06-05T12:06:38Z</time>
      </trkpt>
      <trkpt lat="42.81817" lon="2.73566">
        <ele>121.2</ele>
        <time>2021-06-05T12:06:42Z</time>
      </trkpt>
      <trkpt lat="42.81827" lon="2.73559">
        <ele>121</ele>
        <time>2021-06-05T12:06:46Z</time>
      </trkpt>
      <trkpt lat="42.81837" lon="2.73548">
        <ele>122.2</ele>
        <time>2021-06-05T12:06:51Z</time>
      </trkpt>
      <trkpt lat="42.81845" lon="2.73539">
        <ele>122.2</ele>
        <time>2021-06-05T12:06:55Z</time>
      </trkpt>
      <trkpt lat="42.81852" lon="2.73527">
        <ele>122.8</ele>
        <time>2021-06-05T12:06:59Z</time>
      </trkpt>
      <trkpt lat="42.81859" lon="2.73514">
        <ele>122.8</ele>
        <time>2021-06-05T12:07:03Z</time>
      </trkpt>
      <trkpt lat="42.81865" lon="2.735">
        <ele>123.4</ele>
        <time>2021-06-05T12:07:07Z</time>
      </trkpt>
      <trkpt lat="42.81872" lon="2.73487">
        <ele>124</ele>
        <time>2021-06-05T12:07:11Z</time>
      </trkpt>
      <trkpt lat="42.81878" lon="2.73473">
        <ele>124.2</ele>
        <time>2021-06-05T12:07:15Z</time>
      </trkpt>
      <trkpt lat="42.81884" lon="2.73458">
        <ele>124.4</ele>
        <time>2021-06-05T12:07:19Z</time>
      </trkpt>
      <trkpt lat="42.8189" lon="2.73444">
        <ele>125</ele>
        <time>2021-06-05T12:07:23Z</time>
      </trkpt>
      <trkpt lat="42.81895" lon="2.73429">
        <ele>125.2</ele>
        <time>2021-06-05T12:07:27Z</time>
      </trkpt>
      <trkpt lat="42.819" lon="2.73408">
        <ele>125.6</ele>
        <time>2021-06-05T12:07:32Z</time>
      </trkpt>
      <trkpt lat="42.81905" lon="2.73389">
        <ele>126.2</ele>
        <time>2021-06-05T12:07:37Z</time>
      </trkpt>
      <trkpt lat="42.81908" lon="2.73374">
        <ele>126.8</ele>
        <time>2021-06-05T12:07:41Z</time>
      </trkpt>
      <trkpt lat="42.81912" lon="2.73358">
        <ele>127</ele>
        <time>2021-06-05T12:07:45Z</time>
      </trkpt>
      <trkpt lat="42.81916" lon="2.73343">
        <ele>127.4</ele>
        <time>2021-06-05T12:07:49Z</time>
      </trkpt>
      <trkpt lat="42.81921" lon="2.73322">
        <ele>128</ele>
        <time>2021-06-05T12:07:54Z</time>
      </trkpt>
      <trkpt lat="42.81924" lon="2.73306">
        <ele>128.4</ele>
        <time>2021-06-05T12:07:58Z</time>
      </trkpt>
      <trkpt lat="42.81927" lon="2.73291">
        <ele>128.8</ele>
        <time>2021-06-05T12:08:02Z</time>
      </trkpt>
      <trkpt lat="42.81931" lon="2.73276">
        <ele>129.2</ele>
        <time>2021-06-05T12:08:06Z</time>
      </trkpt>
      <trkpt lat="42.81935" lon="2.73262">
        <ele>129.8</ele>
        <time>2021-06-05T12:08:10Z</time>
      </trkpt>
      <trkpt lat="42.81938" lon="2.73246">
        <ele>130.8</ele>
        <time>2021-06-05T12:08:14Z</time>
      </trkpt>
      <trkpt lat="42.81942" lon="2.7323">
        <ele>131.2</ele>
        <time>2021-06-05T12:08:18Z</time>
      </trkpt>
      <trkpt lat="42.81946" lon="2.73215">
        <ele>131.4</ele>
        <time>2021-06-05T12:08:22Z</time>
      </trkpt>
      <trkpt lat="42.8195" lon="2.73199">
        <ele>131.6</ele>
        <time>2021-06-05T12:08:26Z</time>
      </trkpt>
      <trkpt lat="42.81953" lon="2.73183">
        <ele>131.6</ele>
        <time>2021-06-05T12:08:30Z</time>
      </trkpt>
      <trkpt lat="42.81956" lon="2.73167">
        <ele>131.4</ele>
        <time>2021-06-05T12:08:34Z</time>
      </trkpt>
      <trkpt lat="42.81959" lon="2.73149">
        <ele>131.2</ele>
        <time>2021-06-05T12:08:38Z</time>
      </trkpt>
      <trkpt lat="42.81963" lon="2.73126">
        <ele>130.6</ele>
        <time>2021-06-05T12:08:43Z</time>
      </trkpt>
      <trkpt lat="42.81966" lon="2.73106">
        <ele>130.4</ele>
        <time>2021-06-05T12:08:47Z</time>
      </trkpt>
      <trkpt lat="42.8197" lon="2.73086">
        <ele>130.8</ele>
        <time>2021-06-05T12:08:51Z</time>
      </trkpt>
      <trkpt lat="42.81974" lon="2.73066">
        <ele>130.6</ele>
        <time>2021-06-05T12:08:55Z</time>
      </trkpt>
      <trkpt lat="42.81977" lon="2.73047">
        <ele>131.4</ele>
        <time>2021-06-05T12:08:59Z</time>
      </trkpt>
      <trkpt lat="42.81981" lon="2.73029">
        <ele>131.4</ele>
        <time>2021-06-05T12:09:03Z</time>
      </trkpt>
      <trkpt lat="42.81988" lon="2.73011">
        <ele>130.8</ele>
        <time>2021-06-05T12:09:07Z</time>
      </trkpt>
      <trkpt lat="42.81994" lon="2.72994">
        <ele>130.8</ele>
        <time>2021-06-05T12:09:11Z</time>
      </trkpt>
      <trkpt lat="42.82002" lon="2.72973">
        <ele>131.8</ele>
        <time>2021-06-05T12:09:16Z</time>
      </trkpt>
      <trkpt lat="42.82007" lon="2.72957">
        <ele>131.8</ele>
        <time>2021-06-05T12:09:20Z</time>
      </trkpt>
      <trkpt lat="42.82013" lon="2.72943">
        <ele>131.8</ele>
        <time>2021-06-05T12:09:24Z</time>
      </trkpt>
      <trkpt lat="42.82016" lon="2.72929">
        <ele>132</ele>
        <time>2021-06-05T12:09:28Z</time>
      </trkpt>
      <trkpt lat="42.8202" lon="2.72914">
        <ele>132.2</ele>
        <time>2021-06-05T12:09:32Z</time>
      </trkpt>
      <trkpt lat="42.82024" lon="2.729">
        <ele>132.6</ele>
        <time>2021-06-05T12:09:36Z</time>
      </trkpt>
      <trkpt lat="42.82028" lon="2.72885">
        <ele>132.8</ele>
        <time>2021-06-05T12:09:40Z</time>
      </trkpt>
      <trkpt lat="42.82034" lon="2.72872">
        <ele>133.4</ele>
        <time>2021-06-05T12:09:44Z</time>
      </trkpt>
      <trkpt lat="42.82041" lon="2.7286">
        <ele>133.8</ele>
        <time>2021-06-05T12:09:48Z</time>
      </trkpt>
      <trkpt lat="42.82048" lon="2.72851">
        <ele>134.2</ele>
        <time>2021-06-05T12:09:52Z</time>
      </trkpt>
      <trkpt lat="42.82055" lon="2.72841">
        <ele>134.6</ele>
        <time>2021-06-05T12:09:56Z</time>
      </trkpt>
      <trkpt lat="42.82063" lon="2.72832">
        <ele>135.2</ele>
        <time>2021-06-05T12:10:00Z</time>
      </trkpt>
      <trkpt lat="42.82071" lon="2.72823">
        <ele>135.6</ele>
        <time>2021-06-05T12:10:04Z</time>
      </trkpt>
      <trkpt lat="42.82078" lon="2.72814">
        <ele>136.2</ele>
        <time>2021-06-05T12:10:08Z</time>
      </trkpt>
      <trkpt lat="42.82085" lon="2.72805">
        <ele>136.4</ele>
        <time>2021-06-05T12:10:12Z</time>
      </trkpt>
      <trkpt lat="42.82092" lon="2.72797">
        <ele>136.4</ele>
        <time>2021-06-05T12:10:16Z</time>
      </trkpt>
      <trkpt lat="42.82099" lon="2.72788">
        <ele>137</ele>
        <time>2021-06-05T12:10:20Z</time>
      </trkpt>
      <trkpt lat="42.82105" lon="2.7278">
        <ele>137.8</ele>
        <time>2021-06-05T12:10:24Z</time>
      </trkpt>
      <trkpt lat="42.82112" lon="2.72771">
        <ele>137.8</ele>
        <time>2021-06-05T12:10:28Z</time>
      </trkpt>
      <trkpt lat="42.82117" lon="2.7276">
        <ele>138.6</ele>
        <time>2021-06-05T12:10:32Z</time>
      </trkpt>
      <trkpt lat="42.82119" lon="2.72745">
        <ele>138.8</ele>
        <time>2021-06-05T12:10:37Z</time>
      </trkpt>
      <trkpt lat="42.8212" lon="2.72732">
        <ele>139.6</ele>
        <time>2021-06-05T12:10:41Z</time>
      </trkpt>
      <trkpt lat="42.8212" lon="2.7272">
        <ele>140</ele>
        <time>2021-06-05T12:10:45Z</time>
      </trkpt>
      <trkpt lat="42.82119" lon="2.72709">
        <ele>141</ele>
        <time>2021-06-05T12:10:49Z</time>
      </trkpt>
      <trkpt lat="42.8212" lon="2.72697">
        <ele>140.6</ele>
        <time>2021-06-05T12:10:53Z</time>
      </trkpt>
      <trkpt lat="42.82121" lon="2.72686">
        <ele>141.6</ele>
        <time>2021-06-05T12:10:57Z</time>
      </trkpt>
      <trkpt lat="42.82123" lon="2.72674">
        <ele>142.2</ele>
        <time>2021-06-05T12:11:01Z</time>
      </trkpt>
      <trkpt lat="42.82125" lon="2.72663">
        <ele>142.8</ele>
        <time>2021-06-05T12:11:05Z</time>
      </trkpt>
      <trkpt lat="42.82126" lon="2.72652">
        <ele>143.6</ele>
        <time>2021-06-05T12:11:09Z</time>
      </trkpt>
      <trkpt lat="42.82126" lon="2.7264">
        <ele>144.2</ele>
        <time>2021-06-05T12:11:13Z</time>
      </trkpt>
      <trkpt lat="42.82126" lon="2.72628">
        <ele>145</ele>
        <time>2021-06-05T12:11:17Z</time>
      </trkpt>
      <trkpt lat="42.82125" lon="2.72615">
        <ele>145.4</ele>
        <time>2021-06-05T12:11:21Z</time>
      </trkpt>
      <trkpt lat="42.82123" lon="2.72603">
        <ele>145.8</ele>
        <time>2021-06-05T12:11:25Z</time>
      </trkpt>
      <trkpt lat="42.82121" lon="2.72588">
        <ele>146.4</ele>
        <time>2021-06-05T12:11:29Z</time>
      </trkpt>
      <trkpt lat="42.82118" lon="2.72571">
        <ele>146.8</ele>
        <time>2021-06-05T12:11:33Z</time>
      </trkpt>
      <trkpt lat="42.82116" lon="2.72554">
        <ele>147.2</ele>
        <time>2021-06-05T12:11:37Z</time>
      </trkpt>
      <trkpt lat="42.82113" lon="2.72538">
        <ele>147.4</ele>
        <time>2021-06-05T12:11:41Z</time>
      </trkpt>
      <trkpt lat="42.82111" lon="2.72521">
        <ele>147.8</ele>
        <time>2021-06-05T12:11:45Z</time>
      </trkpt>
      <trkpt lat="42.82109" lon="2.72503">
        <ele>148.2</ele>
        <time>2021-06-05T12:11:49Z</time>
      </trkpt>
      <trkpt lat="42.82108" lon="2.72485">
        <ele>148.6</ele>
        <time>2021-06-05T12:11:53Z</time>
      </trkpt>
      <trkpt lat="42.82109" lon="2.72465">
        <ele>149</ele>
        <time>2021-06-05T12:11:58Z</time>
      </trkpt>
      <trkpt lat="42.82111" lon="2.72447">
        <ele>149.2</ele>
        <time>2021-06-05T12:12:03Z</time>
      </trkpt>
      <trkpt lat="42.82112" lon="2.72433">
        <ele>149.8</ele>
        <time>2021-06-05T12:12:07Z</time>
      </trkpt>
      <trkpt lat="42.82114" lon="2.72419">
        <ele>150</ele>
        <time>2021-06-05T12:12:11Z</time>
      </trkpt>
      <trkpt lat="42.82115" lon="2.72404">
        <ele>150.8</ele>
        <time>2021-06-05T12:12:15Z</time>
      </trkpt>
      <trkpt lat="42.82116" lon="2.72391">
        <ele>150.8</ele>
        <time>2021-06-05T12:12:19Z</time>
      </trkpt>
      <trkpt lat="42.82117" lon="2.72377">
        <ele>151.4</ele>
        <time>2021-06-05T12:12:23Z</time>
      </trkpt>
      <trkpt lat="42.82119" lon="2.72363">
        <ele>151.4</ele>
        <time>2021-06-05T12:12:27Z</time>
      </trkpt>
      <trkpt lat="42.8212" lon="2.7235">
        <ele>151.8</ele>
        <time>2021-06-05T12:12:31Z</time>
      </trkpt>
      <trkpt lat="42.82121" lon="2.72336">
        <ele>152.6</ele>
        <time>2021-06-05T12:12:35Z</time>
      </trkpt>
      <trkpt lat="42.82122" lon="2.72323">
        <ele>153.2</ele>
        <time>2021-06-05T12:12:39Z</time>
      </trkpt>
      <trkpt lat="42.82122" lon="2.72309">
        <ele>154.4</ele>
        <time>2021-06-05T12:12:43Z</time>
      </trkpt>
      <trkpt lat="42.82124" lon="2.72293">
        <ele>155.4</ele>
        <time>2021-06-05T12:12:47Z</time>
      </trkpt>
      <trkpt lat="42.82126" lon="2.72278">
        <ele>155.6</ele>
        <time>2021-06-05T12:12:51Z</time>
      </trkpt>
      <trkpt lat="42.82128" lon="2.72263">
        <ele>155.8</ele>
        <time>2021-06-05T12:12:55Z</time>
      </trkpt>
      <trkpt lat="42.82129" lon="2.7225">
        <ele>156</ele>
        <time>2021-06-05T12:12:59Z</time>
      </trkpt>
      <trkpt lat="42.8213" lon="2.72237">
        <ele>157</ele>
        <time>2021-06-05T12:13:03Z</time>
      </trkpt>
      <trkpt lat="42.82133" lon="2.72225">
        <ele>157.8</ele>
        <time>2021-06-05T12:13:07Z</time>
      </trkpt>
      <trkpt lat="42.82135" lon="2.72213">
        <ele>158.2</ele>
        <time>2021-06-05T12:13:11Z</time>
      </trkpt>
      <trkpt lat="42.82139" lon="2.722">
        <ele>159</ele>
        <time>2021-06-05T12:13:16Z</time>
      </trkpt>
      <trkpt lat="42.82142" lon="2.72189">
        <ele>159.2</ele>
        <time>2021-06-05T12:13:20Z</time>
      </trkpt>
      <trkpt lat="42.82145" lon="2.72179">
        <ele>159.8</ele>
        <time>2021-06-05T12:13:24Z</time>
      </trkpt>
      <trkpt lat="42.82148" lon="2.72169">
        <ele>160.4</ele>
        <time>2021-06-05T12:13:28Z</time>
      </trkpt>
      <trkpt lat="42.82152" lon="2.72159">
        <ele>161.4</ele>
        <time>2021-06-05T12:13:32Z</time>
      </trkpt>
      <trkpt lat="42.82156" lon="2.7215">
        <ele>161.6</ele>
        <time>2021-06-05T12:13:36Z</time>
      </trkpt>
      <trkpt lat="42.82161" lon="2.72139">
        <ele>161.8</ele>
        <time>2021-06-05T12:13:40Z</time>
      </trkpt>
      <trkpt lat="42.82166" lon="2.72127">
        <ele>162.2</ele>
        <time>2021-06-05T12:13:44Z</time>
      </trkpt>
      <trkpt lat="42.8217" lon="2.72114">
        <ele>162.6</ele>
        <time>2021-06-05T12:13:48Z</time>
      </trkpt>
      <trkpt lat="42.82176" lon="2.721">
        <ele>162.8</ele>
        <time>2021-06-05T12:13:52Z</time>
      </trkpt>
      <trkpt lat="42.82181" lon="2.72087">
        <ele>163.4</ele>
        <time>2021-06-05T12:13:56Z</time>
      </trkpt>
      <trkpt lat="42.82186" lon="2.72076">
        <ele>163.8</ele>
        <time>2021-06-05T12:14:00Z</time>
      </trkpt>
      <trkpt lat="42.82191" lon="2.72065">
        <ele>163.6</ele>
        <time>2021-06-05T12:14:04Z</time>
      </trkpt>
      <trkpt lat="42.82195" lon="2.72054">
        <ele>164</ele>
        <time>2021-06-05T12:14:08Z</time>
      </trkpt>
      <trkpt lat="42.822" lon="2.72043">
        <ele>164.6</ele>
        <time>2021-06-05T12:14:12Z</time>
      </trkpt>
      <trkpt lat="42.82204" lon="2.7203">
        <ele>164.8</ele>
        <time>2021-06-05T12:14:16Z</time>
      </trkpt>
      <trkpt lat="42.82209" lon="2.72018">
        <ele>165.4</ele>
        <time>2021-06-05T12:14:20Z</time>
      </trkpt>
      <trkpt lat="42.82214" lon="2.72005">
        <ele>166.4</ele>
        <time>2021-06-05T12:14:24Z</time>
      </trkpt>
      <trkpt lat="42.82219" lon="2.71993">
        <ele>166.6</ele>
        <time>2021-06-05T12:14:28Z</time>
      </trkpt>
      <trkpt lat="42.82223" lon="2.71982">
        <ele>167</ele>
        <time>2021-06-05T12:14:32Z</time>
      </trkpt>
      <trkpt lat="42.82229" lon="2.71968">
        <ele>167.2</ele>
        <time>2021-06-05T12:14:37Z</time>
      </trkpt>
      <trkpt lat="42.82233" lon="2.71955">
        <ele>167.6</ele>
        <time>2021-06-05T12:14:41Z</time>
      </trkpt>
      <trkpt lat="42.82237" lon="2.71942">
        <ele>168</ele>
        <time>2021-06-05T12:14:45Z</time>
      </trkpt>
      <trkpt lat="42.82241" lon="2.7193">
        <ele>167.4</ele>
        <time>2021-06-05T12:14:49Z</time>
      </trkpt>
      <trkpt lat="42.82244" lon="2.71918">
        <ele>168.2</ele>
        <time>2021-06-05T12:14:53Z</time>
      </trkpt>
      <trkpt lat="42.82248" lon="2.71905">
        <ele>168.4</ele>
        <time>2021-06-05T12:14:57Z</time>
      </trkpt>
      <trkpt lat="42.82252" lon="2.71892">
        <ele>168.8</ele>
        <time>2021-06-05T12:15:01Z</time>
      </trkpt>
      <trkpt lat="42.82255" lon="2.7188">
        <ele>169.4</ele>
        <time>2021-06-05T12:15:05Z</time>
      </trkpt>
      <trkpt lat="42.82259" lon="2.71868">
        <ele>169.8</ele>
        <time>2021-06-05T12:15:09Z</time>
      </trkpt>
      <trkpt lat="42.82263" lon="2.71856">
        <ele>170.2</ele>
        <time>2021-06-05T12:15:13Z</time>
      </trkpt>
      <trkpt lat="42.82266" lon="2.71844">
        <ele>170.8</ele>
        <time>2021-06-05T12:15:17Z</time>
      </trkpt>
      <trkpt lat="42.82268" lon="2.71832">
        <ele>171.2</ele>
        <time>2021-06-05T12:15:21Z</time>
      </trkpt>
      <trkpt lat="42.8227" lon="2.71818">
        <ele>171.6</ele>
        <time>2021-06-05T12:15:25Z</time>
      </trkpt>
      <trkpt lat="42.82271" lon="2.71804">
        <ele>172.2</ele>
        <time>2021-06-05T12:15:29Z</time>
      </trkpt>
      <trkpt lat="42.82272" lon="2.71789">
        <ele>172.4</ele>
        <time>2021-06-05T12:15:33Z</time>
      </trkpt>
      <trkpt lat="42.82271" lon="2.71773">
        <ele>172.4</ele>
        <time>2021-06-05T12:15:37Z</time>
      </trkpt>
      <trkpt lat="42.8227" lon="2.71756">
        <ele>172.4</ele>
        <time>2021-06-05T12:15:41Z</time>
      </trkpt>
      <trkpt lat="42.82269" lon="2.7174">
        <ele>172.6</ele>
        <time>2021-06-05T12:15:45Z</time>
      </trkpt>
      <trkpt lat="42.82267" lon="2.71725">
        <ele>172.4</ele>
        <time>2021-06-05T12:15:49Z</time>
      </trkpt>
      <trkpt lat="42.82266" lon="2.7171">
        <ele>172.8</ele>
        <time>2021-06-05T12:15:53Z</time>
      </trkpt>
      <trkpt lat="42.82264" lon="2.71693">
        <ele>173</ele>
        <time>2021-06-05T12:15:58Z</time>
      </trkpt>
      <trkpt lat="42.82263" lon="2.71678">
        <ele>173.4</ele>
        <time>2021-06-05T12:16:02Z</time>
      </trkpt>
      <trkpt lat="42.82262" lon="2.71661">
        <ele>172.8</ele>
        <time>2021-06-05T12:16:06Z</time>
      </trkpt>
      <trkpt lat="42.82263" lon="2.71643">
        <ele>172.6</ele>
        <time>2021-06-05T12:16:10Z</time>
      </trkpt>
      <trkpt lat="42.82265" lon="2.71626">
        <ele>171.8</ele>
        <time>2021-06-05T12:16:14Z</time>
      </trkpt>
      <trkpt lat="42.82268" lon="2.71608">
        <ele>171.6</ele>
        <time>2021-06-05T12:16:18Z</time>
      </trkpt>
      <trkpt lat="42.82272" lon="2.71589">
        <ele>172</ele>
        <time>2021-06-05T12:16:22Z</time>
      </trkpt>
      <trkpt lat="42.82276" lon="2.7157">
        <ele>171.6</ele>
        <time>2021-06-05T12:16:26Z</time>
      </trkpt>
      <trkpt lat="42.82276" lon="2.71548">
        <ele>171.6</ele>
        <time>2021-06-05T12:16:30Z</time>
      </trkpt>
      <trkpt lat="42.82275" lon="2.71523">
        <ele>170.4</ele>
        <time>2021-06-05T12:16:34Z</time>
      </trkpt>
      <trkpt lat="42.82272" lon="2.71495">
        <ele>170</ele>
        <time>2021-06-05T12:16:38Z</time>
      </trkpt>
      <trkpt lat="42.8227" lon="2.71464">
        <ele>169.4</ele>
        <time>2021-06-05T12:16:42Z</time>
      </trkpt>
      <trkpt lat="42.82269" lon="2.71431">
        <ele>168.8</ele>
        <time>2021-06-05T12:16:46Z</time>
      </trkpt>
      <trkpt lat="42.82269" lon="2.71401">
        <ele>169</ele>
        <time>2021-06-05T12:16:50Z</time>
      </trkpt>
      <trkpt lat="42.82268" lon="2.71376">
        <ele>169.2</ele>
        <time>2021-06-05T12:16:54Z</time>
      </trkpt>
      <trkpt lat="42.82266" lon="2.71358">
        <ele>169.8</ele>
        <time>2021-06-05T12:16:59Z</time>
      </trkpt>
      <trkpt lat="42.82269" lon="2.71337">
        <ele>169.6</ele>
        <time>2021-06-05T12:17:03Z</time>
      </trkpt>
      <trkpt lat="42.82276" lon="2.71328">
        <ele>171</ele>
        <time>2021-06-05T12:17:07Z</time>
      </trkpt>
      <trkpt lat="42.82283" lon="2.71322">
        <ele>171.4</ele>
        <time>2021-06-05T12:17:11Z</time>
      </trkpt>
      <trkpt lat="42.82288" lon="2.71315">
        <ele>172.2</ele>
        <time>2021-06-05T12:17:15Z</time>
      </trkpt>
      <trkpt lat="42.82285" lon="2.71304">
        <ele>172.4</ele>
        <time>2021-06-05T12:17:20Z</time>
      </trkpt>
      <trkpt lat="42.82276" lon="2.71296">
        <ele>172.4</ele>
        <time>2021-06-05T12:17:24Z</time>
      </trkpt>
      <trkpt lat="42.82268" lon="2.71289">
        <ele>173.2</ele>
        <time>2021-06-05T12:17:28Z</time>
      </trkpt>
      <trkpt lat="42.8226" lon="2.7128">
        <ele>173.8</ele>
        <time>2021-06-05T12:17:32Z</time>
      </trkpt>
      <trkpt lat="42.82253" lon="2.71272">
        <ele>174</ele>
        <time>2021-06-05T12:17:36Z</time>
      </trkpt>
      <trkpt lat="42.82246" lon="2.71264">
        <ele>175</ele>
        <time>2021-06-05T12:17:40Z</time>
      </trkpt>
      <trkpt lat="42.8224" lon="2.71256">
        <ele>175.2</ele>
        <time>2021-06-05T12:17:44Z</time>
      </trkpt>
      <trkpt lat="42.82233" lon="2.71245">
        <ele>175.4</ele>
        <time>2021-06-05T12:17:48Z</time>
      </trkpt>
      <trkpt lat="42.82227" lon="2.71232">
        <ele>175.8</ele>
        <time>2021-06-05T12:17:52Z</time>
      </trkpt>
      <trkpt lat="42.82224" lon="2.7122">
        <ele>175.2</ele>
        <time>2021-06-05T12:17:56Z</time>
      </trkpt>
      <trkpt lat="42.82221" lon="2.71207">
        <ele>176.4</ele>
        <time>2021-06-05T12:18:00Z</time>
      </trkpt>
      <trkpt lat="42.8222" lon="2.71193">
        <ele>177.2</ele>
        <time>2021-06-05T12:18:04Z</time>
      </trkpt>
      <trkpt lat="42.82218" lon="2.7118">
        <ele>177.2</ele>
        <time>2021-06-05T12:18:08Z</time>
      </trkpt>
      <trkpt lat="42.82216" lon="2.71167">
        <ele>178</ele>
        <time>2021-06-05T12:18:12Z</time>
      </trkpt>
      <trkpt lat="42.82212" lon="2.71155">
        <ele>178.4</ele>
        <time>2021-06-05T12:18:16Z</time>
      </trkpt>
      <trkpt lat="42.82206" lon="2.71141">
        <ele>177.4</ele>
        <time>2021-06-05T12:18:20Z</time>
      </trkpt>
      <trkpt lat="42.82192" lon="2.7112">
        <ele>176</ele>
        <time>2021-06-05T12:18:24Z</time>
      </trkpt>
      <trkpt lat="42.82175" lon="2.71092">
        <ele>174.4</ele>
        <time>2021-06-05T12:18:28Z</time>
      </trkpt>
      <trkpt lat="42.82153" lon="2.71062">
        <ele>172.4</ele>
        <time>2021-06-05T12:18:32Z</time>
      </trkpt>
      <trkpt lat="42.8212" lon="2.71025">
        <ele>169.4</ele>
        <time>2021-06-05T12:18:37Z</time>
      </trkpt>
      <trkpt lat="42.82091" lon="2.70993">
        <ele>167</ele>
        <time>2021-06-05T12:18:41Z</time>
      </trkpt>
      <trkpt lat="42.8206" lon="2.7096">
        <ele>164.6</ele>
        <time>2021-06-05T12:18:45Z</time>
      </trkpt>
      <trkpt lat="42.82029" lon="2.70927">
        <ele>162.6</ele>
        <time>2021-06-05T12:18:49Z</time>
      </trkpt>
      <trkpt lat="42.81999" lon="2.70893">
        <ele>160.6</ele>
        <time>2021-06-05T12:18:53Z</time>
      </trkpt>
      <trkpt lat="42.81972" lon="2.70859">
        <ele>159.6</ele>
        <time>2021-06-05T12:18:57Z</time>
      </trkpt>
      <trkpt lat="42.81956" lon="2.7082">
        <ele>159.4</ele>
        <time>2021-06-05T12:19:02Z</time>
      </trkpt>
      <trkpt lat="42.81941" lon="2.70777">
        <ele>159.2</ele>
        <time>2021-06-05T12:19:06Z</time>
      </trkpt>
      <trkpt lat="42.8193" lon="2.70747">
        <ele>159</ele>
        <time>2021-06-05T12:19:10Z</time>
      </trkpt>
      <trkpt lat="42.81921" lon="2.70719">
        <ele>158.6</ele>
        <time>2021-06-05T12:19:14Z</time>
      </trkpt>
      <trkpt lat="42.81911" lon="2.70693">
        <ele>158.8</ele>
        <time>2021-06-05T12:19:18Z</time>
      </trkpt>
      <trkpt lat="42.81902" lon="2.70668">
        <ele>158.4</ele>
        <time>2021-06-05T12:19:22Z</time>
      </trkpt>
      <trkpt lat="42.81894" lon="2.70644">
        <ele>158.4</ele>
        <time>2021-06-05T12:19:26Z</time>
      </trkpt>
      <trkpt lat="42.81886" lon="2.70621">
        <ele>158.4</ele>
        <time>2021-06-05T12:19:30Z</time>
      </trkpt>
      <trkpt lat="42.81879" lon="2.70601">
        <ele>158.2</ele>
        <time>2021-06-05T12:19:34Z</time>
      </trkpt>
      <trkpt lat="42.81871" lon="2.70582">
        <ele>157.6</ele>
        <time>2021-06-05T12:19:38Z</time>
      </trkpt>
      <trkpt lat="42.81871" lon="2.70563">
        <ele>157.2</ele>
        <time>2021-06-05T12:19:42Z</time>
      </trkpt>
      <trkpt lat="42.81873" lon="2.70545">
        <ele>157.6</ele>
        <time>2021-06-05T12:19:46Z</time>
      </trkpt>
      <trkpt lat="42.81873" lon="2.70529">
        <ele>158.2</ele>
        <time>2021-06-05T12:19:50Z</time>
      </trkpt>
      <trkpt lat="42.81872" lon="2.70518">
        <ele>158.8</ele>
        <time>2021-06-05T12:19:54Z</time>
      </trkpt>
      <trkpt lat="42.81868" lon="2.70495">
        <ele>158.6</ele>
        <time>2021-06-05T12:19:59Z</time>
      </trkpt>
      <trkpt lat="42.81863" lon="2.70479">
        <ele>158.6</ele>
        <time>2021-06-05T12:20:03Z</time>
      </trkpt>
      <trkpt lat="42.81851" lon="2.70458">
        <ele>157.8</ele>
        <time>2021-06-05T12:20:08Z</time>
      </trkpt>
      <trkpt lat="42.8184" lon="2.70439">
        <ele>157</ele>
        <time>2021-06-05T12:20:12Z</time>
      </trkpt>
      <trkpt lat="42.8183" lon="2.70417">
        <ele>157</ele>
        <time>2021-06-05T12:20:16Z</time>
      </trkpt>
      <trkpt lat="42.81824" lon="2.70392">
        <ele>156.4</ele>
        <time>2021-06-05T12:20:20Z</time>
      </trkpt>
      <trkpt lat="42.81818" lon="2.70365">
        <ele>156.6</ele>
        <time>2021-06-05T12:20:24Z</time>
      </trkpt>
      <trkpt lat="42.81815" lon="2.70337">
        <ele>156.2</ele>
        <time>2021-06-05T12:20:28Z</time>
      </trkpt>
      <trkpt lat="42.81814" lon="2.70311">
        <ele>156.2</ele>
        <time>2021-06-05T12:20:32Z</time>
      </trkpt>
      <trkpt lat="42.81815" lon="2.70286">
        <ele>155.8</ele>
        <time>2021-06-05T12:20:36Z</time>
      </trkpt>
      <trkpt lat="42.81817" lon="2.70262">
        <ele>156</ele>
        <time>2021-06-05T12:20:40Z</time>
      </trkpt>
      <trkpt lat="42.81818" lon="2.70232">
        <ele>156.2</ele>
        <time>2021-06-05T12:20:45Z</time>
      </trkpt>
      <trkpt lat="42.81816" lon="2.70206">
        <ele>156.2</ele>
        <time>2021-06-05T12:20:49Z</time>
      </trkpt>
      <trkpt lat="42.81811" lon="2.70179">
        <ele>155.8</ele>
        <time>2021-06-05T12:20:53Z</time>
      </trkpt>
      <trkpt lat="42.81806" lon="2.70153">
        <ele>155.8</ele>
        <time>2021-06-05T12:20:57Z</time>
      </trkpt>
      <trkpt lat="42.81799" lon="2.70127">
        <ele>155.4</ele>
        <time>2021-06-05T12:21:01Z</time>
      </trkpt>
      <trkpt lat="42.81788" lon="2.70104">
        <ele>155</ele>
        <time>2021-06-05T12:21:05Z</time>
      </trkpt>
      <trkpt lat="42.81776" lon="2.70082">
        <ele>154.6</ele>
        <time>2021-06-05T12:21:09Z</time>
      </trkpt>
      <trkpt lat="42.81761" lon="2.70059">
        <ele>153.6</ele>
        <time>2021-06-05T12:21:13Z</time>
      </trkpt>
      <trkpt lat="42.81744" lon="2.70036">
        <ele>152.4</ele>
        <time>2021-06-05T12:21:17Z</time>
      </trkpt>
      <trkpt lat="42.8172" lon="2.70005">
        <ele>150.4</ele>
        <time>2021-06-05T12:21:22Z</time>
      </trkpt>
      <trkpt lat="42.81706" lon="2.69971">
        <ele>149</ele>
        <time>2021-06-05T12:21:26Z</time>
      </trkpt>
      <trkpt lat="42.81699" lon="2.69936">
        <ele>148.6</ele>
        <time>2021-06-05T12:21:30Z</time>
      </trkpt>
      <trkpt lat="42.81694" lon="2.69905">
        <ele>148.8</ele>
        <time>2021-06-05T12:21:34Z</time>
      </trkpt>
      <trkpt lat="42.81689" lon="2.69876">
        <ele>149.6</ele>
        <time>2021-06-05T12:21:38Z</time>
      </trkpt>
      <trkpt lat="42.81686" lon="2.69854">
        <ele>150.6</ele>
        <time>2021-06-05T12:21:42Z</time>
      </trkpt>
      <trkpt lat="42.81683" lon="2.69837">
        <ele>151.8</ele>
        <time>2021-06-05T12:21:46Z</time>
      </trkpt>
      <trkpt lat="42.81682" lon="2.69822">
        <ele>152.2</ele>
        <time>2021-06-05T12:21:50Z</time>
      </trkpt>
      <trkpt lat="42.81681" lon="2.69806">
        <ele>152.6</ele>
        <time>2021-06-05T12:21:54Z</time>
      </trkpt>
      <trkpt lat="42.8168" lon="2.69789">
        <ele>153.2</ele>
        <time>2021-06-05T12:21:58Z</time>
      </trkpt>
      <trkpt lat="42.8168" lon="2.69772">
        <ele>153.6</ele>
        <time>2021-06-05T12:22:02Z</time>
      </trkpt>
      <trkpt lat="42.81679" lon="2.69756">
        <ele>154</ele>
        <time>2021-06-05T12:22:06Z</time>
      </trkpt>
      <trkpt lat="42.81679" lon="2.6974">
        <ele>154.8</ele>
        <time>2021-06-05T12:22:10Z</time>
      </trkpt>
      <trkpt lat="42.81679" lon="2.69724">
        <ele>154.4</ele>
        <time>2021-06-05T12:22:14Z</time>
      </trkpt>
      <trkpt lat="42.81681" lon="2.69706">
        <ele>154.4</ele>
        <time>2021-06-05T12:22:18Z</time>
      </trkpt>
      <trkpt lat="42.81684" lon="2.69687">
        <ele>153.8</ele>
        <time>2021-06-05T12:22:22Z</time>
      </trkpt>
      <trkpt lat="42.81689" lon="2.69664">
        <ele>152.6</ele>
        <time>2021-06-05T12:22:26Z</time>
      </trkpt>
      <trkpt lat="42.81695" lon="2.6964">
        <ele>152.2</ele>
        <time>2021-06-05T12:22:30Z</time>
      </trkpt>
      <trkpt lat="42.81701" lon="2.69615">
        <ele>152.2</ele>
        <time>2021-06-05T12:22:34Z</time>
      </trkpt>
      <trkpt lat="42.81708" lon="2.6959">
        <ele>152.2</ele>
        <time>2021-06-05T12:22:38Z</time>
      </trkpt>
      <trkpt lat="42.81716" lon="2.69559">
        <ele>151.8</ele>
        <time>2021-06-05T12:22:43Z</time>
      </trkpt>
      <trkpt lat="42.81721" lon="2.69536">
        <ele>152</ele>
        <time>2021-06-05T12:22:47Z</time>
      </trkpt>
      <trkpt lat="42.81726" lon="2.69514">
        <ele>151.8</ele>
        <time>2021-06-05T12:22:51Z</time>
      </trkpt>
      <trkpt lat="42.81731" lon="2.69491">
        <ele>151.8</ele>
        <time>2021-06-05T12:22:55Z</time>
      </trkpt>
      <trkpt lat="42.81735" lon="2.69469">
        <ele>151.6</ele>
        <time>2021-06-05T12:22:59Z</time>
      </trkpt>
      <trkpt lat="42.81736" lon="2.69447">
        <ele>152</ele>
        <time>2021-06-05T12:23:03Z</time>
      </trkpt>
      <trkpt lat="42.81736" lon="2.69423">
        <ele>151.2</ele>
        <time>2021-06-05T12:23:07Z</time>
      </trkpt>
      <trkpt lat="42.81735" lon="2.69399">
        <ele>150.6</ele>
        <time>2021-06-05T12:23:11Z</time>
      </trkpt>
      <trkpt lat="42.81734" lon="2.69376">
        <ele>150.8</ele>
        <time>2021-06-05T12:23:15Z</time>
      </trkpt>
      <trkpt lat="42.8173" lon="2.69351">
        <ele>150</ele>
        <time>2021-06-05T12:23:19Z</time>
      </trkpt>
      <trkpt lat="42.8172" lon="2.69326">
        <ele>149.4</ele>
        <time>2021-06-05T12:23:23Z</time>
      </trkpt>
      <trkpt lat="42.81709" lon="2.69301">
        <ele>148.6</ele>
        <time>2021-06-05T12:23:27Z</time>
      </trkpt>
      <trkpt lat="42.81698" lon="2.69277">
        <ele>148.4</ele>
        <time>2021-06-05T12:23:31Z</time>
      </trkpt>
      <trkpt lat="42.81687" lon="2.69251">
        <ele>148</ele>
        <time>2021-06-05T12:23:35Z</time>
      </trkpt>
      <trkpt lat="42.81677" lon="2.69224">
        <ele>147.8</ele>
        <time>2021-06-05T12:23:39Z</time>
      </trkpt>
      <trkpt lat="42.81672" lon="2.69196">
        <ele>147.2</ele>
        <time>2021-06-05T12:23:43Z</time>
      </trkpt>
      <trkpt lat="42.81668" lon="2.69172">
        <ele>147.8</ele>
        <time>2021-06-05T12:23:47Z</time>
      </trkpt>
      <trkpt lat="42.81663" lon="2.69149">
        <ele>148.6</ele>
        <time>2021-06-05T12:23:52Z</time>
      </trkpt>
      <trkpt lat="42.8166" lon="2.69133">
        <ele>149.2</ele>
        <time>2021-06-05T12:23:56Z</time>
      </trkpt>
      <trkpt lat="42.81657" lon="2.69119">
        <ele>149.6</ele>
        <time>2021-06-05T12:24:00Z</time>
      </trkpt>
      <trkpt lat="42.81654" lon="2.69102">
        <ele>150.2</ele>
        <time>2021-06-05T12:24:05Z</time>
      </trkpt>
      <trkpt lat="42.81652" lon="2.69089">
        <ele>150.8</ele>
        <time>2021-06-05T12:24:09Z</time>
      </trkpt>
      <trkpt lat="42.8165" lon="2.69076">
        <ele>151.2</ele>
        <time>2021-06-05T12:24:13Z</time>
      </trkpt>
      <trkpt lat="42.81647" lon="2.69063">
        <ele>151.8</ele>
        <time>2021-06-05T12:24:17Z</time>
      </trkpt>
      <trkpt lat="42.81645" lon="2.6905">
        <ele>152.4</ele>
        <time>2021-06-05T12:24:21Z</time>
      </trkpt>
      <trkpt lat="42.81643" lon="2.69037">
        <ele>152.8</ele>
        <time>2021-06-05T12:24:25Z</time>
      </trkpt>
      <trkpt lat="42.81642" lon="2.69025">
        <ele>153.4</ele>
        <time>2021-06-05T12:24:29Z</time>
      </trkpt>
      <trkpt lat="42.81642" lon="2.69012">
        <ele>154</ele>
        <time>2021-06-05T12:24:33Z</time>
      </trkpt>
      <trkpt lat="42.81643" lon="2.68999">
        <ele>154.6</ele>
        <time>2021-06-05T12:24:37Z</time>
      </trkpt>
      <trkpt lat="42.81644" lon="2.68985">
        <ele>154.8</ele>
        <time>2021-06-05T12:24:41Z</time>
      </trkpt>
      <trkpt lat="42.81646" lon="2.68969">
        <ele>154.8</ele>
        <time>2021-06-05T12:24:45Z</time>
      </trkpt>
      <trkpt lat="42.81648" lon="2.68952">
        <ele>155</ele>
        <time>2021-06-05T12:24:49Z</time>
      </trkpt>
      <trkpt lat="42.8165" lon="2.68934">
        <ele>155.2</ele>
        <time>2021-06-05T12:24:53Z</time>
      </trkpt>
      <trkpt lat="42.81652" lon="2.68914">
        <ele>155.2</ele>
        <time>2021-06-05T12:24:57Z</time>
      </trkpt>
      <trkpt lat="42.81655" lon="2.68892">
        <ele>155</ele>
        <time>2021-06-05T12:25:01Z</time>
      </trkpt>
      <trkpt lat="42.81657" lon="2.68869">
        <ele>154.6</ele>
        <time>2021-06-05T12:25:05Z</time>
      </trkpt>
      <trkpt lat="42.8166" lon="2.68845">
        <ele>154.2</ele>
        <time>2021-06-05T12:25:09Z</time>
      </trkpt>
      <trkpt lat="42.81662" lon="2.68823">
        <ele>154.2</ele>
        <time>2021-06-05T12:25:13Z</time>
      </trkpt>
      <trkpt lat="42.8166" lon="2.68802">
        <ele>154.6</ele>
        <time>2021-06-05T12:25:17Z</time>
      </trkpt>
      <trkpt lat="42.81656" lon="2.68778">
        <ele>154.2</ele>
        <time>2021-06-05T12:25:22Z</time>
      </trkpt>
      <trkpt lat="42.81651" lon="2.68757">
        <ele>154.4</ele>
        <time>2021-06-05T12:25:26Z</time>
      </trkpt>
      <trkpt lat="42.81646" lon="2.68737">
        <ele>154.8</ele>
        <time>2021-06-05T12:25:30Z</time>
      </trkpt>
      <trkpt lat="42.81642" lon="2.68718">
        <ele>155.6</ele>
        <time>2021-06-05T12:25:34Z</time>
      </trkpt>
      <trkpt lat="42.81638" lon="2.68699">
        <ele>154.6</ele>
        <time>2021-06-05T12:25:38Z</time>
      </trkpt>
      <trkpt lat="42.81633" lon="2.68681">
        <ele>154.6</ele>
        <time>2021-06-05T12:25:42Z</time>
      </trkpt>
      <trkpt lat="42.81629" lon="2.68663">
        <ele>155.8</ele>
        <time>2021-06-05T12:25:46Z</time>
      </trkpt>
      <trkpt lat="42.81626" lon="2.68647">
        <ele>156.2</ele>
        <time>2021-06-05T12:25:50Z</time>
      </trkpt>
      <trkpt lat="42.81623" lon="2.68633">
        <ele>156.2</ele>
        <time>2021-06-05T12:25:54Z</time>
      </trkpt>
      <trkpt lat="42.8162" lon="2.68619">
        <ele>156.6</ele>
        <time>2021-06-05T12:25:58Z</time>
      </trkpt>
      <trkpt lat="42.81618" lon="2.68602">
        <ele>156</ele>
        <time>2021-06-05T12:26:02Z</time>
      </trkpt>
      <trkpt lat="42.81613" lon="2.6858">
        <ele>154.6</ele>
        <time>2021-06-05T12:26:06Z</time>
      </trkpt>
      <trkpt lat="42.81608" lon="2.68559">
        <ele>153.6</ele>
        <time>2021-06-05T12:26:10Z</time>
      </trkpt>
      <trkpt lat="42.81607" lon="2.68554">
        <ele>153.6</ele>
        <time>2021-06-05T12:26:14Z</time>
      </trkpt>
      <trkpt lat="42.81607" lon="2.68554">
        <ele>152.8</ele>
        <time>2021-06-05T12:26:18Z</time>
      </trkpt>
      <trkpt lat="42.81598" lon="2.68514">
        <ele>152.6</ele>
        <time>2021-06-05T12:27:32Z</time>
      </trkpt>
      <trkpt lat="42.81595" lon="2.68501">
        <ele>151.8</ele>
        <time>2021-06-05T12:27:36Z</time>
      </trkpt>
      <trkpt lat="42.81594" lon="2.68495">
        <ele>151.4</ele>
        <time>2021-06-05T12:27:40Z</time>
      </trkpt>
      <trkpt lat="42.81592" lon="2.68488">
        <ele>150.8</ele>
        <time>2021-06-05T12:27:44Z</time>
      </trkpt>
      <trkpt lat="42.81591" lon="2.68481">
        <ele>150.4</ele>
        <time>2021-06-05T12:27:48Z</time>
      </trkpt>
      <trkpt lat="42.81588" lon="2.68472">
        <ele>150.4</ele>
        <time>2021-06-05T12:27:53Z</time>
      </trkpt>
      <trkpt lat="42.81585" lon="2.68461">
        <ele>149.6</ele>
        <time>2021-06-05T12:27:57Z</time>
      </trkpt>
      <trkpt lat="42.81584" lon="2.68448">
        <ele>149.2</ele>
        <time>2021-06-05T12:28:01Z</time>
      </trkpt>
      <trkpt lat="42.8158" lon="2.68432">
        <ele>148.2</ele>
        <time>2021-06-05T12:28:05Z</time>
      </trkpt>
      <trkpt lat="42.81575" lon="2.68411">
        <ele>147.4</ele>
        <time>2021-06-05T12:28:09Z</time>
      </trkpt>
      <trkpt lat="42.81569" lon="2.68389">
        <ele>146.2</ele>
        <time>2021-06-05T12:28:13Z</time>
      </trkpt>
      <trkpt lat="42.81564" lon="2.68364">
        <ele>145.6</ele>
        <time>2021-06-05T12:28:17Z</time>
      </trkpt>
      <trkpt lat="42.81558" lon="2.68337">
        <ele>145.2</ele>
        <time>2021-06-05T12:28:21Z</time>
      </trkpt>
      <trkpt lat="42.81551" lon="2.68307">
        <ele>143.4</ele>
        <time>2021-06-05T12:28:25Z</time>
      </trkpt>
      <trkpt lat="42.81543" lon="2.68272">
        <ele>141.2</ele>
        <time>2021-06-05T12:28:29Z</time>
      </trkpt>
      <trkpt lat="42.81546" lon="2.68238">
        <ele>140</ele>
        <time>2021-06-05T12:28:33Z</time>
      </trkpt>
      <trkpt lat="42.81567" lon="2.68232">
        <ele>139.8</ele>
        <time>2021-06-05T12:28:37Z</time>
      </trkpt>
      <trkpt lat="42.81586" lon="2.68233">
        <ele>140.4</ele>
        <time>2021-06-05T12:28:41Z</time>
      </trkpt>
      <trkpt lat="42.81603" lon="2.68232">
        <ele>140.4</ele>
        <time>2021-06-05T12:28:45Z</time>
      </trkpt>
      <trkpt lat="42.81619" lon="2.68229">
        <ele>140.6</ele>
        <time>2021-06-05T12:28:49Z</time>
      </trkpt>
      <trkpt lat="42.81631" lon="2.68227">
        <ele>141.4</ele>
        <time>2021-06-05T12:28:53Z</time>
      </trkpt>
      <trkpt lat="42.81643" lon="2.68225">
        <ele>141.4</ele>
        <time>2021-06-05T12:28:57Z</time>
      </trkpt>
      <trkpt lat="42.81654" lon="2.68221">
        <ele>142</ele>
        <time>2021-06-05T12:29:01Z</time>
      </trkpt>
      <trkpt lat="42.81662" lon="2.68222">
        <ele>142.2</ele>
        <time>2021-06-05T12:29:05Z</time>
      </trkpt>
      <trkpt lat="42.81669" lon="2.68218">
        <ele>142</ele>
        <time>2021-06-05T12:29:09Z</time>
      </trkpt>
      <trkpt lat="42.81675" lon="2.68199">
        <ele>140.8</ele>
        <time>2021-06-05T12:29:14Z</time>
      </trkpt>
      <trkpt lat="42.81665" lon="2.68184">
        <ele>140.6</ele>
        <time>2021-06-05T12:29:18Z</time>
      </trkpt>
      <trkpt lat="42.81655" lon="2.68174">
        <ele>140.8</ele>
        <time>2021-06-05T12:29:22Z</time>
      </trkpt>
      <trkpt lat="42.81645" lon="2.68163">
        <ele>141</ele>
        <time>2021-06-05T12:29:26Z</time>
      </trkpt>
      <trkpt lat="42.81634" lon="2.68152">
        <ele>141.4</ele>
        <time>2021-06-05T12:29:30Z</time>
      </trkpt>
      <trkpt lat="42.81624" lon="2.68143">
        <ele>142.2</ele>
        <time>2021-06-05T12:29:34Z</time>
      </trkpt>
      <trkpt lat="42.81615" lon="2.68134">
        <ele>142.6</ele>
        <time>2021-06-05T12:29:38Z</time>
      </trkpt>
      <trkpt lat="42.81606" lon="2.68125">
        <ele>143.2</ele>
        <time>2021-06-05T12:29:42Z</time>
      </trkpt>
      <trkpt lat="42.81597" lon="2.68116">
        <ele>143.2</ele>
        <time>2021-06-05T12:29:46Z</time>
      </trkpt>
      <trkpt lat="42.81588" lon="2.68107">
        <ele>143.2</ele>
        <time>2021-06-05T12:29:50Z</time>
      </trkpt>
      <trkpt lat="42.81579" lon="2.68097">
        <ele>143.4</ele>
        <time>2021-06-05T12:29:54Z</time>
      </trkpt>
      <trkpt lat="42.81568" lon="2.68085">
        <ele>143.2</ele>
        <time>2021-06-05T12:29:58Z</time>
      </trkpt>
      <trkpt lat="42.81557" lon="2.68071">
        <ele>143.2</ele>
        <time>2021-06-05T12:30:02Z</time>
      </trkpt>
      <trkpt lat="42.81536" lon="2.68047">
        <ele>142.6</ele>
        <time>2021-06-05T12:30:08Z</time>
      </trkpt>
      <trkpt lat="42.81521" lon="2.68032">
        <ele>142.8</ele>
        <time>2021-06-05T12:30:12Z</time>
      </trkpt>
      <trkpt lat="42.81505" lon="2.68021">
        <ele>142.8</ele>
        <time>2021-06-05T12:30:16Z</time>
      </trkpt>
      <trkpt lat="42.81489" lon="2.68011">
        <ele>143</ele>
        <time>2021-06-05T12:30:20Z</time>
      </trkpt>
      <trkpt lat="42.81473" lon="2.68">
        <ele>143.4</ele>
        <time>2021-06-05T12:30:24Z</time>
      </trkpt>
      <trkpt lat="42.8146" lon="2.67986">
        <ele>143.4</ele>
        <time>2021-06-05T12:30:28Z</time>
      </trkpt>
      <trkpt lat="42.81453" lon="2.67965">
        <ele>144</ele>
        <time>2021-06-05T12:30:32Z</time>
      </trkpt>
      <trkpt lat="42.81455" lon="2.67939">
        <ele>144.2</ele>
        <time>2021-06-05T12:30:37Z</time>
      </trkpt>
      <trkpt lat="42.8146" lon="2.6792">
        <ele>144.2</ele>
        <time>2021-06-05T12:30:41Z</time>
      </trkpt>
      <trkpt lat="42.81462" lon="2.67901">
        <ele>144.6</ele>
        <time>2021-06-05T12:30:45Z</time>
      </trkpt>
      <trkpt lat="42.81464" lon="2.67883">
        <ele>145</ele>
        <time>2021-06-05T12:30:49Z</time>
      </trkpt>
      <trkpt lat="42.81467" lon="2.67865">
        <ele>144.8</ele>
        <time>2021-06-05T12:30:53Z</time>
      </trkpt>
      <trkpt lat="42.8147" lon="2.67848">
        <ele>145</ele>
        <time>2021-06-05T12:30:57Z</time>
      </trkpt>
      <trkpt lat="42.81473" lon="2.67832">
        <ele>145.8</ele>
        <time>2021-06-05T12:31:01Z</time>
      </trkpt>
      <trkpt lat="42.81475" lon="2.67815">
        <ele>145.6</ele>
        <time>2021-06-05T12:31:05Z</time>
      </trkpt>
      <trkpt lat="42.81478" lon="2.67798">
        <ele>145.8</ele>
        <time>2021-06-05T12:31:09Z</time>
      </trkpt>
      <trkpt lat="42.8148" lon="2.67781">
        <ele>145.8</ele>
        <time>2021-06-05T12:31:13Z</time>
      </trkpt>
      <trkpt lat="42.81483" lon="2.67764">
        <ele>146</ele>
        <time>2021-06-05T12:31:17Z</time>
      </trkpt>
      <trkpt lat="42.81485" lon="2.67747">
        <ele>146</ele>
        <time>2021-06-05T12:31:21Z</time>
      </trkpt>
      <trkpt lat="42.81488" lon="2.67731">
        <ele>146.4</ele>
        <time>2021-06-05T12:31:25Z</time>
      </trkpt>
      <trkpt lat="42.8149" lon="2.67715">
        <ele>146.8</ele>
        <time>2021-06-05T12:31:29Z</time>
      </trkpt>
      <trkpt lat="42.81494" lon="2.67698">
        <ele>147.2</ele>
        <time>2021-06-05T12:31:33Z</time>
      </trkpt>
      <trkpt lat="42.81496" lon="2.67681">
        <ele>147.4</ele>
        <time>2021-06-05T12:31:37Z</time>
      </trkpt>
      <trkpt lat="42.81499" lon="2.67665">
        <ele>147.6</ele>
        <time>2021-06-05T12:31:41Z</time>
      </trkpt>
      <trkpt lat="42.81501" lon="2.67648">
        <ele>147.4</ele>
        <time>2021-06-05T12:31:45Z</time>
      </trkpt>
      <trkpt lat="42.81504" lon="2.6763">
        <ele>147.4</ele>
        <time>2021-06-05T12:31:49Z</time>
      </trkpt>
      <trkpt lat="42.81508" lon="2.67611">
        <ele>148.2</ele>
        <time>2021-06-05T12:31:53Z</time>
      </trkpt>
      <trkpt lat="42.81512" lon="2.67586">
        <ele>147.8</ele>
        <time>2021-06-05T12:31:58Z</time>
      </trkpt>
      <trkpt lat="42.81515" lon="2.67566">
        <ele>148</ele>
        <time>2021-06-05T12:32:02Z</time>
      </trkpt>
      <trkpt lat="42.81518" lon="2.67547">
        <ele>148.2</ele>
        <time>2021-06-05T12:32:06Z</time>
      </trkpt>
      <trkpt lat="42.8152" lon="2.67529">
        <ele>148.4</ele>
        <time>2021-06-05T12:32:10Z</time>
      </trkpt>
      <trkpt lat="42.81523" lon="2.67509">
        <ele>147.8</ele>
        <time>2021-06-05T12:32:14Z</time>
      </trkpt>
      <trkpt lat="42.81526" lon="2.67489">
        <ele>147.8</ele>
        <time>2021-06-05T12:32:18Z</time>
      </trkpt>
      <trkpt lat="42.81529" lon="2.67468">
        <ele>147.6</ele>
        <time>2021-06-05T12:32:22Z</time>
      </trkpt>
      <trkpt lat="42.81533" lon="2.67448">
        <ele>147.6</ele>
        <time>2021-06-05T12:32:26Z</time>
      </trkpt>
      <trkpt lat="42.81536" lon="2.67429">
        <ele>147.6</ele>
        <time>2021-06-05T12:32:30Z</time>
      </trkpt>
      <trkpt lat="42.81539" lon="2.67409">
        <ele>147.8</ele>
        <time>2021-06-05T12:32:34Z</time>
      </trkpt>
      <trkpt lat="42.81542" lon="2.6739">
        <ele>148.2</ele>
        <time>2021-06-05T12:32:38Z</time>
      </trkpt>
      <trkpt lat="42.81545" lon="2.67371">
        <ele>148</ele>
        <time>2021-06-05T12:32:42Z</time>
      </trkpt>
      <trkpt lat="42.81548" lon="2.67353">
        <ele>148.2</ele>
        <time>2021-06-05T12:32:46Z</time>
      </trkpt>
      <trkpt lat="42.8155" lon="2.67335">
        <ele>148.8</ele>
        <time>2021-06-05T12:32:50Z</time>
      </trkpt>
      <trkpt lat="42.81553" lon="2.67317">
        <ele>148.6</ele>
        <time>2021-06-05T12:32:54Z</time>
      </trkpt>
      <trkpt lat="42.81556" lon="2.673">
        <ele>148.8</ele>
        <time>2021-06-05T12:32:58Z</time>
      </trkpt>
      <trkpt lat="42.81559" lon="2.67284">
        <ele>149.4</ele>
        <time>2021-06-05T12:33:02Z</time>
      </trkpt>
      <trkpt lat="42.81561" lon="2.67269">
        <ele>149.6</ele>
        <time>2021-06-05T12:33:06Z</time>
      </trkpt>
      <trkpt lat="42.81564" lon="2.67254">
        <ele>149.8</ele>
        <time>2021-06-05T12:33:10Z</time>
      </trkpt>
      <trkpt lat="42.81567" lon="2.67235">
        <ele>150.6</ele>
        <time>2021-06-05T12:33:15Z</time>
      </trkpt>
      <trkpt lat="42.81569" lon="2.67221">
        <ele>150.6</ele>
        <time>2021-06-05T12:33:19Z</time>
      </trkpt>
      <trkpt lat="42.81572" lon="2.67206">
        <ele>150.8</ele>
        <time>2021-06-05T12:33:23Z</time>
      </trkpt>
      <trkpt lat="42.81574" lon="2.67192">
        <ele>151.2</ele>
        <time>2021-06-05T12:33:27Z</time>
      </trkpt>
      <trkpt lat="42.81576" lon="2.67177">
        <ele>151.6</ele>
        <time>2021-06-05T12:33:31Z</time>
      </trkpt>
      <trkpt lat="42.81579" lon="2.67163">
        <ele>152</ele>
        <time>2021-06-05T12:33:35Z</time>
      </trkpt>
      <trkpt lat="42.81581" lon="2.6715">
        <ele>152.4</ele>
        <time>2021-06-05T12:33:39Z</time>
      </trkpt>
      <trkpt lat="42.81583" lon="2.67137">
        <ele>152.6</ele>
        <time>2021-06-05T12:33:43Z</time>
      </trkpt>
      <trkpt lat="42.81585" lon="2.67123">
        <ele>153.2</ele>
        <time>2021-06-05T12:33:47Z</time>
      </trkpt>
      <trkpt lat="42.81587" lon="2.6711">
        <ele>153.2</ele>
        <time>2021-06-05T12:33:51Z</time>
      </trkpt>
      <trkpt lat="42.8159" lon="2.67097">
        <ele>153.6</ele>
        <time>2021-06-05T12:33:55Z</time>
      </trkpt>
      <trkpt lat="42.81591" lon="2.67085">
        <ele>153.8</ele>
        <time>2021-06-05T12:33:59Z</time>
      </trkpt>
      <trkpt lat="42.81593" lon="2.67072">
        <ele>154.4</ele>
        <time>2021-06-05T12:34:03Z</time>
      </trkpt>
      <trkpt lat="42.81595" lon="2.67059">
        <ele>154</ele>
        <time>2021-06-05T12:34:07Z</time>
      </trkpt>
      <trkpt lat="42.81597" lon="2.67048">
        <ele>154.4</ele>
        <time>2021-06-05T12:34:11Z</time>
      </trkpt>
      <trkpt lat="42.81598" lon="2.67038">
        <ele>154.4</ele>
        <time>2021-06-05T12:34:15Z</time>
      </trkpt>
      <trkpt lat="42.816" lon="2.6703">
        <ele>155.2</ele>
        <time>2021-06-05T12:34:19Z</time>
      </trkpt>
      <trkpt lat="42.81602" lon="2.6702">
        <ele>155.8</ele>
        <time>2021-06-05T12:34:23Z</time>
      </trkpt>
      <trkpt lat="42.81603" lon="2.6701">
        <ele>156.4</ele>
        <time>2021-06-05T12:34:27Z</time>
      </trkpt>
      <trkpt lat="42.81601" lon="2.66999">
        <ele>156.6</ele>
        <time>2021-06-05T12:34:31Z</time>
      </trkpt>
      <trkpt lat="42.81594" lon="2.66986">
        <ele>156.8</ele>
        <time>2021-06-05T12:34:36Z</time>
      </trkpt>
      <trkpt lat="42.81584" lon="2.66977">
        <ele>156.6</ele>
        <time>2021-06-05T12:34:40Z</time>
      </trkpt>
      <trkpt lat="42.81572" lon="2.66968">
        <ele>156.4</ele>
        <time>2021-06-05T12:34:44Z</time>
      </trkpt>
      <trkpt lat="42.81551" lon="2.66953">
        <ele>155.8</ele>
        <time>2021-06-05T12:34:50Z</time>
      </trkpt>
      <trkpt lat="42.81533" lon="2.66944">
        <ele>155.6</ele>
        <time>2021-06-05T12:34:54Z</time>
      </trkpt>
      <trkpt lat="42.81516" lon="2.66939">
        <ele>156</ele>
        <time>2021-06-05T12:34:58Z</time>
      </trkpt>
      <trkpt lat="42.81501" lon="2.66934">
        <ele>156.6</ele>
        <time>2021-06-05T12:35:02Z</time>
      </trkpt>
      <trkpt lat="42.81487" lon="2.66933">
        <ele>156.8</ele>
        <time>2021-06-05T12:35:06Z</time>
      </trkpt>
      <trkpt lat="42.81476" lon="2.66941">
        <ele>157.4</ele>
        <time>2021-06-05T12:35:10Z</time>
      </trkpt>
      <trkpt lat="42.81469" lon="2.66958">
        <ele>157.2</ele>
        <time>2021-06-05T12:35:14Z</time>
      </trkpt>
      <trkpt lat="42.81456" lon="2.6699">
        <ele>157.2</ele>
        <time>2021-06-05T12:35:20Z</time>
      </trkpt>
      <trkpt lat="42.81448" lon="2.67011">
        <ele>157.4</ele>
        <time>2021-06-05T12:35:24Z</time>
      </trkpt>
      <trkpt lat="42.8144" lon="2.67032">
        <ele>157.6</ele>
        <time>2021-06-05T12:35:28Z</time>
      </trkpt>
      <trkpt lat="42.81434" lon="2.67051">
        <ele>157.8</ele>
        <time>2021-06-05T12:35:32Z</time>
      </trkpt>
      <trkpt lat="42.81426" lon="2.67062">
        <ele>158.4</ele>
        <time>2021-06-05T12:35:36Z</time>
      </trkpt>
      <trkpt lat="42.81414" lon="2.67066">
        <ele>159</ele>
        <time>2021-06-05T12:35:40Z</time>
      </trkpt>
      <trkpt lat="42.81405" lon="2.67062">
        <ele>159.6</ele>
        <time>2021-06-05T12:35:44Z</time>
      </trkpt>
      <trkpt lat="42.81395" lon="2.67057">
        <ele>159.8</ele>
        <time>2021-06-05T12:35:48Z</time>
      </trkpt>
      <trkpt lat="42.81384" lon="2.67052">
        <ele>159.6</ele>
        <time>2021-06-05T12:35:52Z</time>
      </trkpt>
      <trkpt lat="42.81371" lon="2.67045">
        <ele>159.2</ele>
        <time>2021-06-05T12:35:56Z</time>
      </trkpt>
      <trkpt lat="42.81351" lon="2.67031">
        <ele>158.4</ele>
        <time>2021-06-05T12:36:01Z</time>
      </trkpt>
      <trkpt lat="42.8133" lon="2.67015">
        <ele>156.8</ele>
        <time>2021-06-05T12:36:05Z</time>
      </trkpt>
      <trkpt lat="42.81299" lon="2.66994">
        <ele>152.8</ele>
        <time>2021-06-05T12:36:09Z</time>
      </trkpt>
      <trkpt lat="42.81265" lon="2.66976">
        <ele>151.6</ele>
        <time>2021-06-05T12:36:13Z</time>
      </trkpt>
      <trkpt lat="42.8124" lon="2.66966">
        <ele>153.8</ele>
        <time>2021-06-05T12:36:17Z</time>
      </trkpt>
      <trkpt lat="42.81215" lon="2.66954">
        <ele>155</ele>
        <time>2021-06-05T12:36:23Z</time>
      </trkpt>
      <trkpt lat="42.81202" lon="2.66948">
        <ele>154.6</ele>
        <time>2021-06-05T12:36:27Z</time>
      </trkpt>
      <trkpt lat="42.81188" lon="2.66941">
        <ele>155.8</ele>
        <time>2021-06-05T12:36:31Z</time>
      </trkpt>
      <trkpt lat="42.81175" lon="2.66935">
        <ele>157.2</ele>
        <time>2021-06-05T12:36:35Z</time>
      </trkpt>
      <trkpt lat="42.81165" lon="2.6693">
        <ele>158.4</ele>
        <time>2021-06-05T12:36:39Z</time>
      </trkpt>
      <trkpt lat="42.81157" lon="2.66927">
        <ele>159.2</ele>
        <time>2021-06-05T12:36:43Z</time>
      </trkpt>
      <trkpt lat="42.81144" lon="2.66919">
        <ele>159.4</ele>
        <time>2021-06-05T12:36:49Z</time>
      </trkpt>
      <trkpt lat="42.81135" lon="2.66914">
        <ele>160.2</ele>
        <time>2021-06-05T12:36:53Z</time>
      </trkpt>
      <trkpt lat="42.81125" lon="2.66906">
        <ele>160.4</ele>
        <time>2021-06-05T12:36:57Z</time>
      </trkpt>
      <trkpt lat="42.81117" lon="2.66897">
        <ele>160.4</ele>
        <time>2021-06-05T12:37:01Z</time>
      </trkpt>
      <trkpt lat="42.81109" lon="2.66889">
        <ele>160.8</ele>
        <time>2021-06-05T12:37:05Z</time>
      </trkpt>
      <trkpt lat="42.81102" lon="2.6688">
        <ele>161</ele>
        <time>2021-06-05T12:37:09Z</time>
      </trkpt>
      <trkpt lat="42.81095" lon="2.6687">
        <ele>161.2</ele>
        <time>2021-06-05T12:37:13Z</time>
      </trkpt>
      <trkpt lat="42.81094" lon="2.66859">
        <ele>161</ele>
        <time>2021-06-05T12:37:17Z</time>
      </trkpt>
      <trkpt lat="42.81098" lon="2.66851">
        <ele>161</ele>
        <time>2021-06-05T12:37:21Z</time>
      </trkpt>
      <trkpt lat="42.81103" lon="2.66842">
        <ele>161.2</ele>
        <time>2021-06-05T12:37:26Z</time>
      </trkpt>
      <trkpt lat="42.81108" lon="2.66834">
        <ele>160.8</ele>
        <time>2021-06-05T12:37:30Z</time>
      </trkpt>
      <trkpt lat="42.81112" lon="2.66827">
        <ele>161.2</ele>
        <time>2021-06-05T12:37:34Z</time>
      </trkpt>
      <trkpt lat="42.81117" lon="2.66819">
        <ele>161.2</ele>
        <time>2021-06-05T12:37:38Z</time>
      </trkpt>
      <trkpt lat="42.81122" lon="2.66812">
        <ele>161.2</ele>
        <time>2021-06-05T12:37:42Z</time>
      </trkpt>
      <trkpt lat="42.81129" lon="2.66801">
        <ele>161.8</ele>
        <time>2021-06-05T12:37:46Z</time>
      </trkpt>
      <trkpt lat="42.81136" lon="2.66791">
        <ele>162</ele>
        <time>2021-06-05T12:37:50Z</time>
      </trkpt>
      <trkpt lat="42.81143" lon="2.66781">
        <ele>162.4</ele>
        <time>2021-06-05T12:37:54Z</time>
      </trkpt>
      <trkpt lat="42.8115" lon="2.6677">
        <ele>162.8</ele>
        <time>2021-06-05T12:37:58Z</time>
      </trkpt>
      <trkpt lat="42.81158" lon="2.66755">
        <ele>162.8</ele>
        <time>2021-06-05T12:38:04Z</time>
      </trkpt>
      <trkpt lat="42.81167" lon="2.66738">
        <ele>163.6</ele>
        <time>2021-06-05T12:38:08Z</time>
      </trkpt>
      <trkpt lat="42.81172" lon="2.66723">
        <ele>163.2</ele>
        <time>2021-06-05T12:38:12Z</time>
      </trkpt>
      <trkpt lat="42.81176" lon="2.66708">
        <ele>163.6</ele>
        <time>2021-06-05T12:38:16Z</time>
      </trkpt>
      <trkpt lat="42.8118" lon="2.66693">
        <ele>163.8</ele>
        <time>2021-06-05T12:38:20Z</time>
      </trkpt>
      <trkpt lat="42.81184" lon="2.66678">
        <ele>164.4</ele>
        <time>2021-06-05T12:38:24Z</time>
      </trkpt>
      <trkpt lat="42.81189" lon="2.66663">
        <ele>164.2</ele>
        <time>2021-06-05T12:38:28Z</time>
      </trkpt>
      <trkpt lat="42.81193" lon="2.66647">
        <ele>164.4</ele>
        <time>2021-06-05T12:38:32Z</time>
      </trkpt>
      <trkpt lat="42.81197" lon="2.66633">
        <ele>164.6</ele>
        <time>2021-06-05T12:38:36Z</time>
      </trkpt>
      <trkpt lat="42.81202" lon="2.66617">
        <ele>164.8</ele>
        <time>2021-06-05T12:38:40Z</time>
      </trkpt>
      <trkpt lat="42.81207" lon="2.66601">
        <ele>165</ele>
        <time>2021-06-05T12:38:44Z</time>
      </trkpt>
      <trkpt lat="42.81213" lon="2.66581">
        <ele>165</ele>
        <time>2021-06-05T12:38:49Z</time>
      </trkpt>
      <trkpt lat="42.81217" lon="2.66565">
        <ele>165.4</ele>
        <time>2021-06-05T12:38:53Z</time>
      </trkpt>
      <trkpt lat="42.81219" lon="2.66548">
        <ele>165.4</ele>
        <time>2021-06-05T12:38:57Z</time>
      </trkpt>
      <trkpt lat="42.81213" lon="2.66531">
        <ele>165.6</ele>
        <time>2021-06-05T12:39:01Z</time>
      </trkpt>
      <trkpt lat="42.812" lon="2.66518">
        <ele>165.6</ele>
        <time>2021-06-05T12:39:05Z</time>
      </trkpt>
      <trkpt lat="42.81184" lon="2.66507">
        <ele>165.2</ele>
        <time>2021-06-05T12:39:09Z</time>
      </trkpt>
      <trkpt lat="42.81168" lon="2.66496">
        <ele>165</ele>
        <time>2021-06-05T12:39:13Z</time>
      </trkpt>
      <trkpt lat="42.81146" lon="2.6648">
        <ele>164.6</ele>
        <time>2021-06-05T12:39:19Z</time>
      </trkpt>
      <trkpt lat="42.81123" lon="2.66463">
        <ele>164.8</ele>
        <time>2021-06-05T12:39:23Z</time>
      </trkpt>
      <trkpt lat="42.81105" lon="2.6645">
        <ele>164.6</ele>
        <time>2021-06-05T12:39:27Z</time>
      </trkpt>
      <trkpt lat="42.81089" lon="2.66437">
        <ele>164.2</ele>
        <time>2021-06-05T12:39:31Z</time>
      </trkpt>
      <trkpt lat="42.81073" lon="2.66424">
        <ele>164.4</ele>
        <time>2021-06-05T12:39:35Z</time>
      </trkpt>
      <trkpt lat="42.81059" lon="2.66411">
        <ele>164</ele>
        <time>2021-06-05T12:39:39Z</time>
      </trkpt>
      <trkpt lat="42.81044" lon="2.66395">
        <ele>163.6</ele>
        <time>2021-06-05T12:39:43Z</time>
      </trkpt>
      <trkpt lat="42.81031" lon="2.66374">
        <ele>163.4</ele>
        <time>2021-06-05T12:39:47Z</time>
      </trkpt>
      <trkpt lat="42.81027" lon="2.66348">
        <ele>162.8</ele>
        <time>2021-06-05T12:39:51Z</time>
      </trkpt>
      <trkpt lat="42.81031" lon="2.66324">
        <ele>163</ele>
        <time>2021-06-05T12:39:55Z</time>
      </trkpt>
      <trkpt lat="42.8104" lon="2.66303">
        <ele>162.8</ele>
        <time>2021-06-05T12:39:59Z</time>
      </trkpt>
      <trkpt lat="42.8105" lon="2.66284">
        <ele>163.2</ele>
        <time>2021-06-05T12:40:03Z</time>
      </trkpt>
      <trkpt lat="42.81066" lon="2.66268">
        <ele>163.6</ele>
        <time>2021-06-05T12:40:08Z</time>
      </trkpt>
      <trkpt lat="42.81079" lon="2.66261">
        <ele>164</ele>
        <time>2021-06-05T12:40:12Z</time>
      </trkpt>
      <trkpt lat="42.81092" lon="2.66256">
        <ele>164.8</ele>
        <time>2021-06-05T12:40:16Z</time>
      </trkpt>
      <trkpt lat="42.81105" lon="2.66252">
        <ele>165.4</ele>
        <time>2021-06-05T12:40:20Z</time>
      </trkpt>
      <trkpt lat="42.81117" lon="2.66248">
        <ele>165.4</ele>
        <time>2021-06-05T12:40:24Z</time>
      </trkpt>
      <trkpt lat="42.81129" lon="2.66244">
        <ele>166</ele>
        <time>2021-06-05T12:40:28Z</time>
      </trkpt>
      <trkpt lat="42.81139" lon="2.6624">
        <ele>166.6</ele>
        <time>2021-06-05T12:40:32Z</time>
      </trkpt>
      <trkpt lat="42.81149" lon="2.66233">
        <ele>167</ele>
        <time>2021-06-05T12:40:36Z</time>
      </trkpt>
      <trkpt lat="42.81164" lon="2.66223">
        <ele>166.8</ele>
        <time>2021-06-05T12:40:42Z</time>
      </trkpt>
      <trkpt lat="42.81173" lon="2.66216">
        <ele>167.6</ele>
        <time>2021-06-05T12:40:46Z</time>
      </trkpt>
      <trkpt lat="42.81182" lon="2.66209">
        <ele>167.6</ele>
        <time>2021-06-05T12:40:50Z</time>
      </trkpt>
      <trkpt lat="42.81191" lon="2.66203">
        <ele>168.2</ele>
        <time>2021-06-05T12:40:54Z</time>
      </trkpt>
      <trkpt lat="42.812" lon="2.66195">
        <ele>168.2</ele>
        <time>2021-06-05T12:40:58Z</time>
      </trkpt>
      <trkpt lat="42.81209" lon="2.66188">
        <ele>168.8</ele>
        <time>2021-06-05T12:41:02Z</time>
      </trkpt>
      <trkpt lat="42.81218" lon="2.6618">
        <ele>169.2</ele>
        <time>2021-06-05T12:41:06Z</time>
      </trkpt>
      <trkpt lat="42.81227" lon="2.66173">
        <ele>169.6</ele>
        <time>2021-06-05T12:41:10Z</time>
      </trkpt>
      <trkpt lat="42.81235" lon="2.66166">
        <ele>170.4</ele>
        <time>2021-06-05T12:41:14Z</time>
      </trkpt>
      <trkpt lat="42.81243" lon="2.66159">
        <ele>170.2</ele>
        <time>2021-06-05T12:41:18Z</time>
      </trkpt>
      <trkpt lat="42.81251" lon="2.66153">
        <ele>170.8</ele>
        <time>2021-06-05T12:41:22Z</time>
      </trkpt>
      <trkpt lat="42.8126" lon="2.66145">
        <ele>170.2</ele>
        <time>2021-06-05T12:41:26Z</time>
      </trkpt>
      <trkpt lat="42.81271" lon="2.66137">
        <ele>170.8</ele>
        <time>2021-06-05T12:41:31Z</time>
      </trkpt>
      <trkpt lat="42.81279" lon="2.66129">
        <ele>170.6</ele>
        <time>2021-06-05T12:41:35Z</time>
      </trkpt>
      <trkpt lat="42.81289" lon="2.66121">
        <ele>171.2</ele>
        <time>2021-06-05T12:41:39Z</time>
      </trkpt>
      <trkpt lat="42.81298" lon="2.66112">
        <ele>170.4</ele>
        <time>2021-06-05T12:41:43Z</time>
      </trkpt>
      <trkpt lat="42.81308" lon="2.66104">
        <ele>170.4</ele>
        <time>2021-06-05T12:41:47Z</time>
      </trkpt>
      <trkpt lat="42.81319" lon="2.66095">
        <ele>170.4</ele>
        <time>2021-06-05T12:41:51Z</time>
      </trkpt>
      <trkpt lat="42.8133" lon="2.66085">
        <ele>170.6</ele>
        <time>2021-06-05T12:41:55Z</time>
      </trkpt>
      <trkpt lat="42.8134" lon="2.66075">
        <ele>170.8</ele>
        <time>2021-06-05T12:41:59Z</time>
      </trkpt>
      <trkpt lat="42.81351" lon="2.66066">
        <ele>170.8</ele>
        <time>2021-06-05T12:42:03Z</time>
      </trkpt>
      <trkpt lat="42.81361" lon="2.66056">
        <ele>170.8</ele>
        <time>2021-06-05T12:42:07Z</time>
      </trkpt>
      <trkpt lat="42.81372" lon="2.66046">
        <ele>170.8</ele>
        <time>2021-06-05T12:42:11Z</time>
      </trkpt>
      <trkpt lat="42.81384" lon="2.66036">
        <ele>171.2</ele>
        <time>2021-06-05T12:42:15Z</time>
      </trkpt>
      <trkpt lat="42.81395" lon="2.66025">
        <ele>171.2</ele>
        <time>2021-06-05T12:42:19Z</time>
      </trkpt>
      <trkpt lat="42.81408" lon="2.66015">
        <ele>171.4</ele>
        <time>2021-06-05T12:42:23Z</time>
      </trkpt>
      <trkpt lat="42.81419" lon="2.66004">
        <ele>171.6</ele>
        <time>2021-06-05T12:42:27Z</time>
      </trkpt>
      <trkpt lat="42.81431" lon="2.65993">
        <ele>171.2</ele>
        <time>2021-06-05T12:42:31Z</time>
      </trkpt>
      <trkpt lat="42.81443" lon="2.65984">
        <ele>171.2</ele>
        <time>2021-06-05T12:42:35Z</time>
      </trkpt>
      <trkpt lat="42.81454" lon="2.65976">
        <ele>171</ele>
        <time>2021-06-05T12:42:39Z</time>
      </trkpt>
      <trkpt lat="42.81465" lon="2.65968">
        <ele>171.2</ele>
        <time>2021-06-05T12:42:43Z</time>
      </trkpt>
      <trkpt lat="42.81474" lon="2.6596">
        <ele>171.8</ele>
        <time>2021-06-05T12:42:47Z</time>
      </trkpt>
      <trkpt lat="42.81487" lon="2.6595">
        <ele>172.6</ele>
        <time>2021-06-05T12:42:52Z</time>
      </trkpt>
      <trkpt lat="42.81495" lon="2.65945">
        <ele>173</ele>
        <time>2021-06-05T12:42:56Z</time>
      </trkpt>
      <trkpt lat="42.81504" lon="2.65939">
        <ele>173.6</ele>
        <time>2021-06-05T12:43:00Z</time>
      </trkpt>
      <trkpt lat="42.81514" lon="2.65933">
        <ele>173.4</ele>
        <time>2021-06-05T12:43:04Z</time>
      </trkpt>
      <trkpt lat="42.81523" lon="2.65927">
        <ele>174</ele>
        <time>2021-06-05T12:43:08Z</time>
      </trkpt>
      <trkpt lat="42.81531" lon="2.65921">
        <ele>174.4</ele>
        <time>2021-06-05T12:43:12Z</time>
      </trkpt>
      <trkpt lat="42.81539" lon="2.65913">
        <ele>175</ele>
        <time>2021-06-05T12:43:16Z</time>
      </trkpt>
      <trkpt lat="42.81546" lon="2.65905">
        <ele>175.8</ele>
        <time>2021-06-05T12:43:20Z</time>
      </trkpt>
      <trkpt lat="42.81553" lon="2.65896">
        <ele>176</ele>
        <time>2021-06-05T12:43:24Z</time>
      </trkpt>
      <trkpt lat="42.8156" lon="2.65886">
        <ele>176.4</ele>
        <time>2021-06-05T12:43:28Z</time>
      </trkpt>
      <trkpt lat="42.81567" lon="2.65876">
        <ele>177</ele>
        <time>2021-06-05T12:43:32Z</time>
      </trkpt>
      <trkpt lat="42.81576" lon="2.65862">
        <ele>177.4</ele>
        <time>2021-06-05T12:43:38Z</time>
      </trkpt>
      <trkpt lat="42.81582" lon="2.65853">
        <ele>178</ele>
        <time>2021-06-05T12:43:42Z</time>
      </trkpt>
      <trkpt lat="42.81588" lon="2.65844">
        <ele>178.4</ele>
        <time>2021-06-05T12:43:46Z</time>
      </trkpt>
      <trkpt lat="42.81594" lon="2.65834">
        <ele>179</ele>
        <time>2021-06-05T12:43:50Z</time>
      </trkpt>
      <trkpt lat="42.81601" lon="2.65824">
        <ele>179.4</ele>
        <time>2021-06-05T12:43:54Z</time>
      </trkpt>
      <trkpt lat="42.81607" lon="2.65815">
        <ele>179.8</ele>
        <time>2021-06-05T12:43:58Z</time>
      </trkpt>
      <trkpt lat="42.81613" lon="2.65806">
        <ele>180</ele>
        <time>2021-06-05T12:44:02Z</time>
      </trkpt>
      <trkpt lat="42.81619" lon="2.65797">
        <ele>180.6</ele>
        <time>2021-06-05T12:44:06Z</time>
      </trkpt>
      <trkpt lat="42.81625" lon="2.65786">
        <ele>180.6</ele>
        <time>2021-06-05T12:44:10Z</time>
      </trkpt>
      <trkpt lat="42.81634" lon="2.65772">
        <ele>180.6</ele>
        <time>2021-06-05T12:44:15Z</time>
      </trkpt>
      <trkpt lat="42.81643" lon="2.65758">
        <ele>181</ele>
        <time>2021-06-05T12:44:19Z</time>
      </trkpt>
      <trkpt lat="42.81652" lon="2.65743">
        <ele>180.8</ele>
        <time>2021-06-05T12:44:23Z</time>
      </trkpt>
      <trkpt lat="42.81661" lon="2.65728">
        <ele>180.8</ele>
        <time>2021-06-05T12:44:27Z</time>
      </trkpt>
      <trkpt lat="42.8167" lon="2.65714">
        <ele>181</ele>
        <time>2021-06-05T12:44:31Z</time>
      </trkpt>
      <trkpt lat="42.8168" lon="2.65702">
        <ele>180.8</ele>
        <time>2021-06-05T12:44:35Z</time>
      </trkpt>
      <trkpt lat="42.81691" lon="2.65692">
        <ele>180.4</ele>
        <time>2021-06-05T12:44:39Z</time>
      </trkpt>
      <trkpt lat="42.81701" lon="2.65683">
        <ele>180.8</ele>
        <time>2021-06-05T12:44:43Z</time>
      </trkpt>
      <trkpt lat="42.81711" lon="2.65675">
        <ele>180.8</ele>
        <time>2021-06-05T12:44:47Z</time>
      </trkpt>
      <trkpt lat="42.81721" lon="2.65669">
        <ele>181.2</ele>
        <time>2021-06-05T12:44:51Z</time>
      </trkpt>
      <trkpt lat="42.81732" lon="2.65661">
        <ele>181.2</ele>
        <time>2021-06-05T12:44:55Z</time>
      </trkpt>
      <trkpt lat="42.81742" lon="2.65654">
        <ele>181.2</ele>
        <time>2021-06-05T12:44:59Z</time>
      </trkpt>
      <trkpt lat="42.81752" lon="2.65646">
        <ele>181.2</ele>
        <time>2021-06-05T12:45:03Z</time>
      </trkpt>
      <trkpt lat="42.81763" lon="2.65639">
        <ele>181.6</ele>
        <time>2021-06-05T12:45:07Z</time>
      </trkpt>
      <trkpt lat="42.81774" lon="2.65631">
        <ele>181.6</ele>
        <time>2021-06-05T12:45:11Z</time>
      </trkpt>
      <trkpt lat="42.81784" lon="2.65622">
        <ele>181.2</ele>
        <time>2021-06-05T12:45:15Z</time>
      </trkpt>
      <trkpt lat="42.81786" lon="2.65606">
        <ele>181.2</ele>
        <time>2021-06-05T12:45:19Z</time>
      </trkpt>
      <trkpt lat="42.81775" lon="2.65599">
        <ele>181.2</ele>
        <time>2021-06-05T12:45:23Z</time>
      </trkpt>
      <trkpt lat="42.81761" lon="2.65596">
        <ele>180.6</ele>
        <time>2021-06-05T12:45:27Z</time>
      </trkpt>
      <trkpt lat="42.81742" lon="2.6559">
        <ele>180.2</ele>
        <time>2021-06-05T12:45:31Z</time>
      </trkpt>
      <trkpt lat="42.81712" lon="2.65575">
        <ele>178.4</ele>
        <time>2021-06-05T12:45:36Z</time>
      </trkpt>
      <trkpt lat="42.81683" lon="2.6556">
        <ele>176.4</ele>
        <time>2021-06-05T12:45:40Z</time>
      </trkpt>
      <trkpt lat="42.81649" lon="2.65542">
        <ele>174.4</ele>
        <time>2021-06-05T12:45:44Z</time>
      </trkpt>
      <trkpt lat="42.81615" lon="2.65523">
        <ele>172.6</ele>
        <time>2021-06-05T12:45:48Z</time>
      </trkpt>
      <trkpt lat="42.8158" lon="2.65504">
        <ele>170</ele>
        <time>2021-06-05T12:45:52Z</time>
      </trkpt>
      <trkpt lat="42.81544" lon="2.65478">
        <ele>167.2</ele>
        <time>2021-06-05T12:45:56Z</time>
      </trkpt>
      <trkpt lat="42.81511" lon="2.65437">
        <ele>164.4</ele>
        <time>2021-06-05T12:46:00Z</time>
      </trkpt>
      <trkpt lat="42.81477" lon="2.65395">
        <ele>161.6</ele>
        <time>2021-06-05T12:46:04Z</time>
      </trkpt>
      <trkpt lat="42.81448" lon="2.65356">
        <ele>162</ele>
        <time>2021-06-05T12:46:08Z</time>
      </trkpt>
      <trkpt lat="42.81427" lon="2.65323">
        <ele>161.4</ele>
        <time>2021-06-05T12:46:12Z</time>
      </trkpt>
      <trkpt lat="42.81413" lon="2.65293">
        <ele>161.6</ele>
        <time>2021-06-05T12:46:16Z</time>
      </trkpt>
      <trkpt lat="42.814" lon="2.65264">
        <ele>161.6</ele>
        <time>2021-06-05T12:46:20Z</time>
      </trkpt>
      <trkpt lat="42.81386" lon="2.65236">
        <ele>161</ele>
        <time>2021-06-05T12:46:24Z</time>
      </trkpt>
      <trkpt lat="42.8137" lon="2.65211">
        <ele>160.8</ele>
        <time>2021-06-05T12:46:28Z</time>
      </trkpt>
      <trkpt lat="42.81359" lon="2.65184">
        <ele>161.2</ele>
        <time>2021-06-05T12:46:32Z</time>
      </trkpt>
      <trkpt lat="42.81352" lon="2.65155">
        <ele>160.6</ele>
        <time>2021-06-05T12:46:36Z</time>
      </trkpt>
      <trkpt lat="42.81347" lon="2.65129">
        <ele>160.8</ele>
        <time>2021-06-05T12:46:40Z</time>
      </trkpt>
      <trkpt lat="42.81342" lon="2.65104">
        <ele>161</ele>
        <time>2021-06-05T12:46:45Z</time>
      </trkpt>
      <trkpt lat="42.81336" lon="2.65073">
        <ele>161.4</ele>
        <time>2021-06-05T12:46:50Z</time>
      </trkpt>
      <trkpt lat="42.81325" lon="2.65043">
        <ele>161.4</ele>
        <time>2021-06-05T12:46:55Z</time>
      </trkpt>
      <trkpt lat="42.81313" lon="2.65018">
        <ele>160.6</ele>
        <time>2021-06-05T12:46:59Z</time>
      </trkpt>
      <trkpt lat="42.81301" lon="2.64992">
        <ele>160</ele>
        <time>2021-06-05T12:47:03Z</time>
      </trkpt>
      <trkpt lat="42.8129" lon="2.64967">
        <ele>160.2</ele>
        <time>2021-06-05T12:47:07Z</time>
      </trkpt>
      <trkpt lat="42.81284" lon="2.64942">
        <ele>160.2</ele>
        <time>2021-06-05T12:47:11Z</time>
      </trkpt>
      <trkpt lat="42.81283" lon="2.64921">
        <ele>160.4</ele>
        <time>2021-06-05T12:47:15Z</time>
      </trkpt>
      <trkpt lat="42.81282" lon="2.64903">
        <ele>160.4</ele>
        <time>2021-06-05T12:47:19Z</time>
      </trkpt>
      <trkpt lat="42.81282" lon="2.64885">
        <ele>160.6</ele>
        <time>2021-06-05T12:47:23Z</time>
      </trkpt>
      <trkpt lat="42.81282" lon="2.64867">
        <ele>160.6</ele>
        <time>2021-06-05T12:47:27Z</time>
      </trkpt>
      <trkpt lat="42.81282" lon="2.64849">
        <ele>160.8</ele>
        <time>2021-06-05T12:47:31Z</time>
      </trkpt>
      <trkpt lat="42.81281" lon="2.64833">
        <ele>161.2</ele>
        <time>2021-06-05T12:47:35Z</time>
      </trkpt>
      <trkpt lat="42.81282" lon="2.64817">
        <ele>160.6</ele>
        <time>2021-06-05T12:47:39Z</time>
      </trkpt>
      <trkpt lat="42.81282" lon="2.64799">
        <ele>161.4</ele>
        <time>2021-06-05T12:47:43Z</time>
      </trkpt>
      <trkpt lat="42.8128" lon="2.6478">
        <ele>162.2</ele>
        <time>2021-06-05T12:47:47Z</time>
      </trkpt>
      <trkpt lat="42.81278" lon="2.64762">
        <ele>162.2</ele>
        <time>2021-06-05T12:47:52Z</time>
      </trkpt>
      <trkpt lat="42.81274" lon="2.6474">
        <ele>162.8</ele>
        <time>2021-06-05T12:47:56Z</time>
      </trkpt>
      <trkpt lat="42.8127" lon="2.64721">
        <ele>163.2</ele>
        <time>2021-06-05T12:48:00Z</time>
      </trkpt>
      <trkpt lat="42.81269" lon="2.64701">
        <ele>163.4</ele>
        <time>2021-06-05T12:48:04Z</time>
      </trkpt>
      <trkpt lat="42.81269" lon="2.6468">
        <ele>163.4</ele>
        <time>2021-06-05T12:48:08Z</time>
      </trkpt>
      <trkpt lat="42.81269" lon="2.64659">
        <ele>163.8</ele>
        <time>2021-06-05T12:48:12Z</time>
      </trkpt>
      <trkpt lat="42.81269" lon="2.64635">
        <ele>164</ele>
        <time>2021-06-05T12:48:17Z</time>
      </trkpt>
      <trkpt lat="42.81269" lon="2.64615">
        <ele>163.4</ele>
        <time>2021-06-05T12:48:21Z</time>
      </trkpt>
      <trkpt lat="42.8127" lon="2.64596">
        <ele>163.8</ele>
        <time>2021-06-05T12:48:25Z</time>
      </trkpt>
      <trkpt lat="42.81272" lon="2.64578">
        <ele>163.8</ele>
        <time>2021-06-05T12:48:29Z</time>
      </trkpt>
      <trkpt lat="42.81275" lon="2.64561">
        <ele>164</ele>
        <time>2021-06-05T12:48:33Z</time>
      </trkpt>
      <trkpt lat="42.81279" lon="2.64543">
        <ele>164</ele>
        <time>2021-06-05T12:48:37Z</time>
      </trkpt>
      <trkpt lat="42.81283" lon="2.64527">
        <ele>164.4</ele>
        <time>2021-06-05T12:48:41Z</time>
      </trkpt>
      <trkpt lat="42.81287" lon="2.64511">
        <ele>164.8</ele>
        <time>2021-06-05T12:48:45Z</time>
      </trkpt>
      <trkpt lat="42.81289" lon="2.64493">
        <ele>164.8</ele>
        <time>2021-06-05T12:48:49Z</time>
      </trkpt>
      <trkpt lat="42.81288" lon="2.64476">
        <ele>165</ele>
        <time>2021-06-05T12:48:53Z</time>
      </trkpt>
      <trkpt lat="42.81287" lon="2.64457">
        <ele>165.2</ele>
        <time>2021-06-05T12:48:57Z</time>
      </trkpt>
      <trkpt lat="42.81285" lon="2.64434">
        <ele>164.6</ele>
        <time>2021-06-05T12:49:01Z</time>
      </trkpt>
      <trkpt lat="42.81284" lon="2.64406">
        <ele>163.8</ele>
        <time>2021-06-05T12:49:05Z</time>
      </trkpt>
      <trkpt lat="42.81287" lon="2.64374">
        <ele>163.2</ele>
        <time>2021-06-05T12:49:09Z</time>
      </trkpt>
      <trkpt lat="42.81292" lon="2.64345">
        <ele>163</ele>
        <time>2021-06-05T12:49:13Z</time>
      </trkpt>
      <trkpt lat="42.81296" lon="2.64318">
        <ele>163</ele>
        <time>2021-06-05T12:49:17Z</time>
      </trkpt>
      <trkpt lat="42.813" lon="2.64293">
        <ele>163.2</ele>
        <time>2021-06-05T12:49:21Z</time>
      </trkpt>
      <trkpt lat="42.81302" lon="2.64269">
        <ele>163.4</ele>
        <time>2021-06-05T12:49:25Z</time>
      </trkpt>
      <trkpt lat="42.81301" lon="2.64246">
        <ele>164</ele>
        <time>2021-06-05T12:49:29Z</time>
      </trkpt>
      <trkpt lat="42.81298" lon="2.64226">
        <ele>164</ele>
        <time>2021-06-05T12:49:33Z</time>
      </trkpt>
      <trkpt lat="42.81294" lon="2.64202">
        <ele>164.4</ele>
        <time>2021-06-05T12:49:38Z</time>
      </trkpt>
      <trkpt lat="42.81289" lon="2.6418">
        <ele>163.8</ele>
        <time>2021-06-05T12:49:42Z</time>
      </trkpt>
      <trkpt lat="42.81281" lon="2.64153">
        <ele>163</ele>
        <time>2021-06-05T12:49:46Z</time>
      </trkpt>
      <trkpt lat="42.81269" lon="2.64125">
        <ele>162.6</ele>
        <time>2021-06-05T12:49:50Z</time>
      </trkpt>
      <trkpt lat="42.81255" lon="2.64098">
        <ele>162.8</ele>
        <time>2021-06-05T12:49:54Z</time>
      </trkpt>
      <trkpt lat="42.81243" lon="2.64073">
        <ele>163</ele>
        <time>2021-06-05T12:49:58Z</time>
      </trkpt>
      <trkpt lat="42.81234" lon="2.64047">
        <ele>163.4</ele>
        <time>2021-06-05T12:50:02Z</time>
      </trkpt>
      <trkpt lat="42.81228" lon="2.64021">
        <ele>164.8</ele>
        <time>2021-06-05T12:50:06Z</time>
      </trkpt>
      <trkpt lat="42.81222" lon="2.63996">
        <ele>165.8</ele>
        <time>2021-06-05T12:50:10Z</time>
      </trkpt>
      <trkpt lat="42.81217" lon="2.63972">
        <ele>167</ele>
        <time>2021-06-05T12:50:14Z</time>
      </trkpt>
      <trkpt lat="42.81212" lon="2.6395">
        <ele>168.2</ele>
        <time>2021-06-05T12:50:18Z</time>
      </trkpt>
      <trkpt lat="42.81208" lon="2.63931">
        <ele>169.4</ele>
        <time>2021-06-05T12:50:22Z</time>
      </trkpt>
      <trkpt lat="42.81205" lon="2.63912">
        <ele>170.4</ele>
        <time>2021-06-05T12:50:26Z</time>
      </trkpt>
      <trkpt lat="42.81202" lon="2.63895">
        <ele>171</ele>
        <time>2021-06-05T12:50:30Z</time>
      </trkpt>
      <trkpt lat="42.81197" lon="2.63878">
        <ele>171.6</ele>
        <time>2021-06-05T12:50:34Z</time>
      </trkpt>
      <trkpt lat="42.81194" lon="2.63862">
        <ele>171.8</ele>
        <time>2021-06-05T12:50:38Z</time>
      </trkpt>
      <trkpt lat="42.81191" lon="2.63848">
        <ele>172</ele>
        <time>2021-06-05T12:50:42Z</time>
      </trkpt>
      <trkpt lat="42.8119" lon="2.63834">
        <ele>172</ele>
        <time>2021-06-05T12:50:46Z</time>
      </trkpt>
      <trkpt lat="42.81189" lon="2.63822">
        <ele>171.8</ele>
        <time>2021-06-05T12:50:50Z</time>
      </trkpt>
      <trkpt lat="42.8119" lon="2.63808">
        <ele>172</ele>
        <time>2021-06-05T12:50:54Z</time>
      </trkpt>
      <trkpt lat="42.81192" lon="2.63789">
        <ele>171.8</ele>
        <time>2021-06-05T12:50:59Z</time>
      </trkpt>
      <trkpt lat="42.81195" lon="2.63775">
        <ele>171.6</ele>
        <time>2021-06-05T12:51:03Z</time>
      </trkpt>
      <trkpt lat="42.81197" lon="2.63762">
        <ele>171.6</ele>
        <time>2021-06-05T12:51:07Z</time>
      </trkpt>
      <trkpt lat="42.81199" lon="2.63749">
        <ele>171.4</ele>
        <time>2021-06-05T12:51:11Z</time>
      </trkpt>
      <trkpt lat="42.81201" lon="2.63735">
        <ele>171.4</ele>
        <time>2021-06-05T12:51:15Z</time>
      </trkpt>
      <trkpt lat="42.81203" lon="2.63722">
        <ele>171.2</ele>
        <time>2021-06-05T12:51:19Z</time>
      </trkpt>
      <trkpt lat="42.81204" lon="2.63709">
        <ele>171.4</ele>
        <time>2021-06-05T12:51:23Z</time>
      </trkpt>
      <trkpt lat="42.81202" lon="2.63704">
        <ele>170.8</ele>
        <time>2021-06-05T12:51:27Z</time>
      </trkpt>
      <trkpt lat="42.81203" lon="2.63703">
        <ele>170.8</ele>
        <time>2021-06-05T12:51:31Z</time>
      </trkpt>
      <trkpt lat="42.81207" lon="2.63664">
        <ele>173.4</ele>
        <time>2021-06-05T12:57:17Z</time>
      </trkpt>
      <trkpt lat="42.81208" lon="2.63646">
        <ele>173.8</ele>
        <time>2021-06-05T12:57:21Z</time>
      </trkpt>
      <trkpt lat="42.81209" lon="2.63627">
        <ele>174</ele>
        <time>2021-06-05T12:57:25Z</time>
      </trkpt>
      <trkpt lat="42.81209" lon="2.63606">
        <ele>173.8</ele>
        <time>2021-06-05T12:57:29Z</time>
      </trkpt>
      <trkpt lat="42.81209" lon="2.63583">
        <ele>173.4</ele>
        <time>2021-06-05T12:57:33Z</time>
      </trkpt>
      <trkpt lat="42.81209" lon="2.63562">
        <ele>173</ele>
        <time>2021-06-05T12:57:37Z</time>
      </trkpt>
      <trkpt lat="42.81211" lon="2.63542">
        <ele>173</ele>
        <time>2021-06-05T12:57:41Z</time>
      </trkpt>
      <trkpt lat="42.81213" lon="2.63524">
        <ele>173</ele>
        <time>2021-06-05T12:57:45Z</time>
      </trkpt>
      <trkpt lat="42.81216" lon="2.63507">
        <ele>173.4</ele>
        <time>2021-06-05T12:57:49Z</time>
      </trkpt>
      <trkpt lat="42.8122" lon="2.63492">
        <ele>173.2</ele>
        <time>2021-06-05T12:57:53Z</time>
      </trkpt>
      <trkpt lat="42.81223" lon="2.63474">
        <ele>173.8</ele>
        <time>2021-06-05T12:57:58Z</time>
      </trkpt>
      <trkpt lat="42.81226" lon="2.6346">
        <ele>174</ele>
        <time>2021-06-05T12:58:02Z</time>
      </trkpt>
      <trkpt lat="42.81229" lon="2.63446">
        <ele>174.4</ele>
        <time>2021-06-05T12:58:06Z</time>
      </trkpt>
      <trkpt lat="42.81232" lon="2.63433">
        <ele>174.2</ele>
        <time>2021-06-05T12:58:10Z</time>
      </trkpt>
      <trkpt lat="42.81235" lon="2.63418">
        <ele>174.6</ele>
        <time>2021-06-05T12:58:14Z</time>
      </trkpt>
      <trkpt lat="42.81236" lon="2.63405">
        <ele>175.4</ele>
        <time>2021-06-05T12:58:18Z</time>
      </trkpt>
      <trkpt lat="42.81236" lon="2.63392">
        <ele>175.8</ele>
        <time>2021-06-05T12:58:22Z</time>
      </trkpt>
      <trkpt lat="42.81237" lon="2.63381">
        <ele>176.2</ele>
        <time>2021-06-05T12:58:26Z</time>
      </trkpt>
      <trkpt lat="42.81237" lon="2.63369">
        <ele>177</ele>
        <time>2021-06-05T12:58:30Z</time>
      </trkpt>
      <trkpt lat="42.81238" lon="2.63359">
        <ele>177.6</ele>
        <time>2021-06-05T12:58:34Z</time>
      </trkpt>
      <trkpt lat="42.81238" lon="2.63347">
        <ele>177.8</ele>
        <time>2021-06-05T12:58:38Z</time>
      </trkpt>
      <trkpt lat="42.81238" lon="2.63336">
        <ele>178</ele>
        <time>2021-06-05T12:58:42Z</time>
      </trkpt>
      <trkpt lat="42.81237" lon="2.63327">
        <ele>178.2</ele>
        <time>2021-06-05T12:58:46Z</time>
      </trkpt>
      <trkpt lat="42.81237" lon="2.63317">
        <ele>178.8</ele>
        <time>2021-06-05T12:58:50Z</time>
      </trkpt>
      <trkpt lat="42.81235" lon="2.63308">
        <ele>178.8</ele>
        <time>2021-06-05T12:58:54Z</time>
      </trkpt>
      <trkpt lat="42.81236" lon="2.63299">
        <ele>179</ele>
        <time>2021-06-05T12:58:58Z</time>
      </trkpt>
      <trkpt lat="42.81234" lon="2.63291">
        <ele>179.2</ele>
        <time>2021-06-05T12:59:02Z</time>
      </trkpt>
      <trkpt lat="42.81234" lon="2.6328">
        <ele>179.6</ele>
        <time>2021-06-05T12:59:06Z</time>
      </trkpt>
      <trkpt lat="42.81232" lon="2.63271">
        <ele>179.6</ele>
        <time>2021-06-05T12:59:10Z</time>
      </trkpt>
      <trkpt lat="42.81232" lon="2.6326">
        <ele>180</ele>
        <time>2021-06-05T12:59:14Z</time>
      </trkpt>
      <trkpt lat="42.8123" lon="2.63247">
        <ele>180.4</ele>
        <time>2021-06-05T12:59:19Z</time>
      </trkpt>
      <trkpt lat="42.8123" lon="2.63237">
        <ele>181</ele>
        <time>2021-06-05T12:59:23Z</time>
      </trkpt>
      <trkpt lat="42.81228" lon="2.63226">
        <ele>181</ele>
        <time>2021-06-05T12:59:27Z</time>
      </trkpt>
      <trkpt lat="42.81228" lon="2.63216">
        <ele>181.2</ele>
        <time>2021-06-05T12:59:31Z</time>
      </trkpt>
      <trkpt lat="42.81227" lon="2.63205">
        <ele>181.8</ele>
        <time>2021-06-05T12:59:35Z</time>
      </trkpt>
      <trkpt lat="42.81226" lon="2.63195">
        <ele>182</ele>
        <time>2021-06-05T12:59:39Z</time>
      </trkpt>
      <trkpt lat="42.81225" lon="2.63184">
        <ele>182.2</ele>
        <time>2021-06-05T12:59:43Z</time>
      </trkpt>
      <trkpt lat="42.81224" lon="2.63174">
        <ele>182.8</ele>
        <time>2021-06-05T12:59:47Z</time>
      </trkpt>
      <trkpt lat="42.81223" lon="2.63162">
        <ele>183</ele>
        <time>2021-06-05T12:59:51Z</time>
      </trkpt>
      <trkpt lat="42.81222" lon="2.6315">
        <ele>183.2</ele>
        <time>2021-06-05T12:59:55Z</time>
      </trkpt>
      <trkpt lat="42.81222" lon="2.63138">
        <ele>183.4</ele>
        <time>2021-06-05T12:59:59Z</time>
      </trkpt>
      <trkpt lat="42.81222" lon="2.63125">
        <ele>183.2</ele>
        <time>2021-06-05T13:00:03Z</time>
      </trkpt>
      <trkpt lat="42.81225" lon="2.63109">
        <ele>183.2</ele>
        <time>2021-06-05T13:00:07Z</time>
      </trkpt>
      <trkpt lat="42.81227" lon="2.63092">
        <ele>183.2</ele>
        <time>2021-06-05T13:00:11Z</time>
      </trkpt>
      <trkpt lat="42.8123" lon="2.63076">
        <ele>183</ele>
        <time>2021-06-05T13:00:15Z</time>
      </trkpt>
      <trkpt lat="42.81235" lon="2.63059">
        <ele>183</ele>
        <time>2021-06-05T13:00:19Z</time>
      </trkpt>
      <trkpt lat="42.81242" lon="2.63042">
        <ele>183</ele>
        <time>2021-06-05T13:00:23Z</time>
      </trkpt>
      <trkpt lat="42.81251" lon="2.63029">
        <ele>183.2</ele>
        <time>2021-06-05T13:00:27Z</time>
      </trkpt>
      <trkpt lat="42.8126" lon="2.63017">
        <ele>183</ele>
        <time>2021-06-05T13:00:31Z</time>
      </trkpt>
      <trkpt lat="42.81269" lon="2.63002">
        <ele>182.8</ele>
        <time>2021-06-05T13:00:35Z</time>
      </trkpt>
      <trkpt lat="42.81273" lon="2.62976">
        <ele>182.4</ele>
        <time>2021-06-05T13:00:40Z</time>
      </trkpt>
      <trkpt lat="42.8127" lon="2.62957">
        <ele>182.8</ele>
        <time>2021-06-05T13:00:44Z</time>
      </trkpt>
      <trkpt lat="42.81267" lon="2.62941">
        <ele>183</ele>
        <time>2021-06-05T13:00:48Z</time>
      </trkpt>
      <trkpt lat="42.81264" lon="2.62923">
        <ele>182.8</ele>
        <time>2021-06-05T13:00:52Z</time>
      </trkpt>
      <trkpt lat="42.81259" lon="2.62905">
        <ele>182.2</ele>
        <time>2021-06-05T13:00:56Z</time>
      </trkpt>
      <trkpt lat="42.81254" lon="2.62885">
        <ele>182.4</ele>
        <time>2021-06-05T13:01:00Z</time>
      </trkpt>
      <trkpt lat="42.81247" lon="2.62861">
        <ele>182.6</ele>
        <time>2021-06-05T13:01:04Z</time>
      </trkpt>
      <trkpt lat="42.8124" lon="2.62834">
        <ele>182.2</ele>
        <time>2021-06-05T13:01:08Z</time>
      </trkpt>
      <trkpt lat="42.81233" lon="2.62804">
        <ele>181</ele>
        <time>2021-06-05T13:01:12Z</time>
      </trkpt>
      <trkpt lat="42.81226" lon="2.62766">
        <ele>179.2</ele>
        <time>2021-06-05T13:01:16Z</time>
      </trkpt>
      <trkpt lat="42.81223" lon="2.62721">
        <ele>177</ele>
        <time>2021-06-05T13:01:20Z</time>
      </trkpt>
      <trkpt lat="42.81225" lon="2.62674">
        <ele>176.8</ele>
        <time>2021-06-05T13:01:24Z</time>
      </trkpt>
      <trkpt lat="42.8123" lon="2.62635">
        <ele>176</ele>
        <time>2021-06-05T13:01:28Z</time>
      </trkpt>
      <trkpt lat="42.81233" lon="2.62602">
        <ele>177.2</ele>
        <time>2021-06-05T13:01:32Z</time>
      </trkpt>
      <trkpt lat="42.81236" lon="2.62577">
        <ele>178.6</ele>
        <time>2021-06-05T13:01:36Z</time>
      </trkpt>
      <trkpt lat="42.81237" lon="2.62554">
        <ele>180.2</ele>
        <time>2021-06-05T13:01:41Z</time>
      </trkpt>
      <trkpt lat="42.81239" lon="2.62538">
        <ele>181</ele>
        <time>2021-06-05T13:01:45Z</time>
      </trkpt>
      <trkpt lat="42.81241" lon="2.62523">
        <ele>181.6</ele>
        <time>2021-06-05T13:01:49Z</time>
      </trkpt>
      <trkpt lat="42.81243" lon="2.6251">
        <ele>182.6</ele>
        <time>2021-06-05T13:01:53Z</time>
      </trkpt>
      <trkpt lat="42.81244" lon="2.62499">
        <ele>182.8</ele>
        <time>2021-06-05T13:01:57Z</time>
      </trkpt>
      <trkpt lat="42.81246" lon="2.62482">
        <ele>182.8</ele>
        <time>2021-06-05T13:02:02Z</time>
      </trkpt>
      <trkpt lat="42.81248" lon="2.6247">
        <ele>182.8</ele>
        <time>2021-06-05T13:02:06Z</time>
      </trkpt>
      <trkpt lat="42.8125" lon="2.62457">
        <ele>183.2</ele>
        <time>2021-06-05T13:02:10Z</time>
      </trkpt>
      <trkpt lat="42.81252" lon="2.62442">
        <ele>183.4</ele>
        <time>2021-06-05T13:02:14Z</time>
      </trkpt>
      <trkpt lat="42.81253" lon="2.62428">
        <ele>183.8</ele>
        <time>2021-06-05T13:02:18Z</time>
      </trkpt>
      <trkpt lat="42.81255" lon="2.62413">
        <ele>183.8</ele>
        <time>2021-06-05T13:02:22Z</time>
      </trkpt>
      <trkpt lat="42.81257" lon="2.62398">
        <ele>184</ele>
        <time>2021-06-05T13:02:26Z</time>
      </trkpt>
      <trkpt lat="42.81259" lon="2.62381">
        <ele>183.8</ele>
        <time>2021-06-05T13:02:30Z</time>
      </trkpt>
      <trkpt lat="42.8126" lon="2.62363">
        <ele>184</ele>
        <time>2021-06-05T13:02:34Z</time>
      </trkpt>
      <trkpt lat="42.81262" lon="2.62346">
        <ele>184.4</ele>
        <time>2021-06-05T13:02:38Z</time>
      </trkpt>
      <trkpt lat="42.81263" lon="2.62329">
        <ele>184.6</ele>
        <time>2021-06-05T13:02:42Z</time>
      </trkpt>
      <trkpt lat="42.81265" lon="2.62313">
        <ele>185</ele>
        <time>2021-06-05T13:02:46Z</time>
      </trkpt>
      <trkpt lat="42.81268" lon="2.62296">
        <ele>184.8</ele>
        <time>2021-06-05T13:02:50Z</time>
      </trkpt>
      <trkpt lat="42.81273" lon="2.62279">
        <ele>184.6</ele>
        <time>2021-06-05T13:02:54Z</time>
      </trkpt>
      <trkpt lat="42.81278" lon="2.62258">
        <ele>184.2</ele>
        <time>2021-06-05T13:02:58Z</time>
      </trkpt>
      <trkpt lat="42.81283" lon="2.62234">
        <ele>183.4</ele>
        <time>2021-06-05T13:03:02Z</time>
      </trkpt>
      <trkpt lat="42.81287" lon="2.62208">
        <ele>182.8</ele>
        <time>2021-06-05T13:03:06Z</time>
      </trkpt>
      <trkpt lat="42.81286" lon="2.62179">
        <ele>181.6</ele>
        <time>2021-06-05T13:03:10Z</time>
      </trkpt>
      <trkpt lat="42.81281" lon="2.62146">
        <ele>180.4</ele>
        <time>2021-06-05T13:03:14Z</time>
      </trkpt>
      <trkpt lat="42.81274" lon="2.6211">
        <ele>179</ele>
        <time>2021-06-05T13:03:18Z</time>
      </trkpt>
      <trkpt lat="42.81256" lon="2.62065">
        <ele>177.6</ele>
        <time>2021-06-05T13:03:23Z</time>
      </trkpt>
      <trkpt lat="42.81231" lon="2.62035">
        <ele>175.8</ele>
        <time>2021-06-05T13:03:27Z</time>
      </trkpt>
      <trkpt lat="42.8121" lon="2.61996">
        <ele>173.2</ele>
        <time>2021-06-05T13:03:31Z</time>
      </trkpt>
      <trkpt lat="42.8121" lon="2.61945">
        <ele>170.2</ele>
        <time>2021-06-05T13:03:35Z</time>
      </trkpt>
      <trkpt lat="42.812" lon="2.61896">
        <ele>169.2</ele>
        <time>2021-06-05T13:03:39Z</time>
      </trkpt>
      <trkpt lat="42.81188" lon="2.61851">
        <ele>167.8</ele>
        <time>2021-06-05T13:03:43Z</time>
      </trkpt>
      <trkpt lat="42.81171" lon="2.61813">
        <ele>166.4</ele>
        <time>2021-06-05T13:03:47Z</time>
      </trkpt>
      <trkpt lat="42.81141" lon="2.6178">
        <ele>165.2</ele>
        <time>2021-06-05T13:03:52Z</time>
      </trkpt>
      <trkpt lat="42.81121" lon="2.61748">
        <ele>163.8</ele>
        <time>2021-06-05T13:03:56Z</time>
      </trkpt>
      <trkpt lat="42.81106" lon="2.61715">
        <ele>162.8</ele>
        <time>2021-06-05T13:04:00Z</time>
      </trkpt>
      <trkpt lat="42.81085" lon="2.61693">
        <ele>162.4</ele>
        <time>2021-06-05T13:04:04Z</time>
      </trkpt>
      <trkpt lat="42.81066" lon="2.61675">
        <ele>161.6</ele>
        <time>2021-06-05T13:04:08Z</time>
      </trkpt>
      <trkpt lat="42.81047" lon="2.61652">
        <ele>161</ele>
        <time>2021-06-05T13:04:12Z</time>
      </trkpt>
      <trkpt lat="42.8103" lon="2.61626">
        <ele>160.8</ele>
        <time>2021-06-05T13:04:16Z</time>
      </trkpt>
      <trkpt lat="42.81016" lon="2.61597">
        <ele>160.2</ele>
        <time>2021-06-05T13:04:20Z</time>
      </trkpt>
      <trkpt lat="42.80998" lon="2.61575">
        <ele>159.6</ele>
        <time>2021-06-05T13:04:24Z</time>
      </trkpt>
      <trkpt lat="42.80989" lon="2.6154">
        <ele>159</ele>
        <time>2021-06-05T13:04:28Z</time>
      </trkpt>
      <trkpt lat="42.80985" lon="2.61504">
        <ele>159.2</ele>
        <time>2021-06-05T13:04:32Z</time>
      </trkpt>
      <trkpt lat="42.80994" lon="2.6148">
        <ele>159.8</ele>
        <time>2021-06-05T13:04:36Z</time>
      </trkpt>
      <trkpt lat="42.81007" lon="2.61466">
        <ele>161</ele>
        <time>2021-06-05T13:04:42Z</time>
      </trkpt>
      <trkpt lat="42.81014" lon="2.61459">
        <ele>161.6</ele>
        <time>2021-06-05T13:04:46Z</time>
      </trkpt>
      <trkpt lat="42.81022" lon="2.61449">
        <ele>162.4</ele>
        <time>2021-06-05T13:04:50Z</time>
      </trkpt>
      <trkpt lat="42.81026" lon="2.61444">
        <ele>162.8</ele>
        <time>2021-06-05T13:04:54Z</time>
      </trkpt>
      <trkpt lat="42.8103" lon="2.61438">
        <ele>162.8</ele>
        <time>2021-06-05T13:04:58Z</time>
      </trkpt>
      <trkpt lat="42.81031" lon="2.61437">
        <ele>163</ele>
        <time>2021-06-05T13:05:02Z</time>
      </trkpt>
      <trkpt lat="42.81031" lon="2.61437">
        <ele>162.8</ele>
        <time>2021-06-05T13:05:06Z</time>
      </trkpt>
      <trkpt lat="42.81043" lon="2.61414">
        <ele>164.2</ele>
        <time>2021-06-05T13:05:48Z</time>
      </trkpt>
      <trkpt lat="42.81049" lon="2.61403">
        <ele>164.6</ele>
        <time>2021-06-05T13:05:52Z</time>
      </trkpt>
      <trkpt lat="42.81053" lon="2.61396">
        <ele>165</ele>
        <time>2021-06-05T13:05:56Z</time>
      </trkpt>
      <trkpt lat="42.81059" lon="2.61384">
        <ele>165.6</ele>
        <time>2021-06-05T13:06:00Z</time>
      </trkpt>
      <trkpt lat="42.81066" lon="2.61377">
        <ele>165.6</ele>
        <time>2021-06-05T13:06:04Z</time>
      </trkpt>
      <trkpt lat="42.8107" lon="2.61371">
        <ele>166.4</ele>
        <time>2021-06-05T13:06:08Z</time>
      </trkpt>
      <trkpt lat="42.81078" lon="2.6136">
        <ele>166.8</ele>
        <time>2021-06-05T13:06:12Z</time>
      </trkpt>
      <trkpt lat="42.81084" lon="2.61352">
        <ele>167.4</ele>
        <time>2021-06-05T13:06:16Z</time>
      </trkpt>
      <trkpt lat="42.8109" lon="2.61343">
        <ele>167.8</ele>
        <time>2021-06-05T13:06:20Z</time>
      </trkpt>
      <trkpt lat="42.81094" lon="2.61334">
        <ele>168.4</ele>
        <time>2021-06-05T13:06:24Z</time>
      </trkpt>
      <trkpt lat="42.81099" lon="2.61325">
        <ele>169</ele>
        <time>2021-06-05T13:06:28Z</time>
      </trkpt>
      <trkpt lat="42.81103" lon="2.61316">
        <ele>169.6</ele>
        <time>2021-06-05T13:06:32Z</time>
      </trkpt>
      <trkpt lat="42.81106" lon="2.61304">
        <ele>170</ele>
        <time>2021-06-05T13:06:36Z</time>
      </trkpt>
      <trkpt lat="42.8111" lon="2.61288">
        <ele>170.4</ele>
        <time>2021-06-05T13:06:41Z</time>
      </trkpt>
      <trkpt lat="42.81114" lon="2.61272">
        <ele>170.8</ele>
        <time>2021-06-05T13:06:45Z</time>
      </trkpt>
      <trkpt lat="42.81117" lon="2.61256">
        <ele>171.2</ele>
        <time>2021-06-05T13:06:49Z</time>
      </trkpt>
      <trkpt lat="42.81121" lon="2.61239">
        <ele>171.8</ele>
        <time>2021-06-05T13:06:53Z</time>
      </trkpt>
      <trkpt lat="42.81126" lon="2.61222">
        <ele>171.8</ele>
        <time>2021-06-05T13:06:57Z</time>
      </trkpt>
      <trkpt lat="42.81133" lon="2.61205">
        <ele>171.8</ele>
        <time>2021-06-05T13:07:01Z</time>
      </trkpt>
      <trkpt lat="42.81142" lon="2.6119">
        <ele>172</ele>
        <time>2021-06-05T13:07:05Z</time>
      </trkpt>
      <trkpt lat="42.81152" lon="2.61177">
        <ele>172.4</ele>
        <time>2021-06-05T13:07:09Z</time>
      </trkpt>
      <trkpt lat="42.81165" lon="2.61161">
        <ele>172</ele>
        <time>2021-06-05T13:07:14Z</time>
      </trkpt>
      <trkpt lat="42.81175" lon="2.61145">
        <ele>172</ele>
        <time>2021-06-05T13:07:18Z</time>
      </trkpt>
      <trkpt lat="42.81186" lon="2.61128">
        <ele>171.8</ele>
        <time>2021-06-05T13:07:22Z</time>
      </trkpt>
      <trkpt lat="42.81197" lon="2.6111">
        <ele>171.8</ele>
        <time>2021-06-05T13:07:26Z</time>
      </trkpt>
      <trkpt lat="42.81208" lon="2.6109">
        <ele>171.6</ele>
        <time>2021-06-05T13:07:30Z</time>
      </trkpt>
      <trkpt lat="42.81219" lon="2.61069">
        <ele>172.2</ele>
        <time>2021-06-05T13:07:34Z</time>
      </trkpt>
      <trkpt lat="42.8123" lon="2.61047">
        <ele>171.8</ele>
        <time>2021-06-05T13:07:38Z</time>
      </trkpt>
      <trkpt lat="42.81241" lon="2.61027">
        <ele>172.2</ele>
        <time>2021-06-05T13:07:42Z</time>
      </trkpt>
      <trkpt lat="42.8125" lon="2.61006">
        <ele>172.2</ele>
        <time>2021-06-05T13:07:46Z</time>
      </trkpt>
      <trkpt lat="42.81257" lon="2.60985">
        <ele>172.6</ele>
        <time>2021-06-05T13:07:50Z</time>
      </trkpt>
      <trkpt lat="42.81261" lon="2.60963">
        <ele>172</ele>
        <time>2021-06-05T13:07:54Z</time>
      </trkpt>
      <trkpt lat="42.81264" lon="2.60942">
        <ele>172.4</ele>
        <time>2021-06-05T13:07:58Z</time>
      </trkpt>
      <trkpt lat="42.8127" lon="2.60914">
        <ele>173</ele>
        <time>2021-06-05T13:08:03Z</time>
      </trkpt>
      <trkpt lat="42.81275" lon="2.60894">
        <ele>173.6</ele>
        <time>2021-06-05T13:08:07Z</time>
      </trkpt>
      <trkpt lat="42.8128" lon="2.60875">
        <ele>174.4</ele>
        <time>2021-06-05T13:08:11Z</time>
      </trkpt>
      <trkpt lat="42.81283" lon="2.60858">
        <ele>175</ele>
        <time>2021-06-05T13:08:15Z</time>
      </trkpt>
      <trkpt lat="42.81287" lon="2.60842">
        <ele>175.4</ele>
        <time>2021-06-05T13:08:19Z</time>
      </trkpt>
      <trkpt lat="42.8129" lon="2.60827">
        <ele>176</ele>
        <time>2021-06-05T13:08:23Z</time>
      </trkpt>
      <trkpt lat="42.81294" lon="2.60811">
        <ele>176.2</ele>
        <time>2021-06-05T13:08:27Z</time>
      </trkpt>
      <trkpt lat="42.81296" lon="2.60795">
        <ele>176.2</ele>
        <time>2021-06-05T13:08:31Z</time>
      </trkpt>
      <trkpt lat="42.81298" lon="2.60778">
        <ele>177</ele>
        <time>2021-06-05T13:08:35Z</time>
      </trkpt>
      <trkpt lat="42.81299" lon="2.60759">
        <ele>177.6</ele>
        <time>2021-06-05T13:08:39Z</time>
      </trkpt>
      <trkpt lat="42.81301" lon="2.60741">
        <ele>177.8</ele>
        <time>2021-06-05T13:08:43Z</time>
      </trkpt>
      <trkpt lat="42.81303" lon="2.60723">
        <ele>178.4</ele>
        <time>2021-06-05T13:08:47Z</time>
      </trkpt>
      <trkpt lat="42.81305" lon="2.60706">
        <ele>179.2</ele>
        <time>2021-06-05T13:08:51Z</time>
      </trkpt>
      <trkpt lat="42.81307" lon="2.6069">
        <ele>179.6</ele>
        <time>2021-06-05T13:08:55Z</time>
      </trkpt>
      <trkpt lat="42.8131" lon="2.60674">
        <ele>180</ele>
        <time>2021-06-05T13:08:59Z</time>
      </trkpt>
      <trkpt lat="42.81311" lon="2.6066">
        <ele>180.6</ele>
        <time>2021-06-05T13:09:03Z</time>
      </trkpt>
      <trkpt lat="42.81311" lon="2.60646">
        <ele>181</ele>
        <time>2021-06-05T13:09:07Z</time>
      </trkpt>
      <trkpt lat="42.81314" lon="2.60633">
        <ele>181.6</ele>
        <time>2021-06-05T13:09:11Z</time>
      </trkpt>
      <trkpt lat="42.81316" lon="2.6062">
        <ele>181.8</ele>
        <time>2021-06-05T13:09:15Z</time>
      </trkpt>
      <trkpt lat="42.81318" lon="2.60607">
        <ele>182</ele>
        <time>2021-06-05T13:09:19Z</time>
      </trkpt>
      <trkpt lat="42.81319" lon="2.60592">
        <ele>182.4</ele>
        <time>2021-06-05T13:09:24Z</time>
      </trkpt>
      <trkpt lat="42.81321" lon="2.60579">
        <ele>182.4</ele>
        <time>2021-06-05T13:09:28Z</time>
      </trkpt>
      <trkpt lat="42.81322" lon="2.60565">
        <ele>182.8</ele>
        <time>2021-06-05T13:09:32Z</time>
      </trkpt>
      <trkpt lat="42.81323" lon="2.60552">
        <ele>183.6</ele>
        <time>2021-06-05T13:09:36Z</time>
      </trkpt>
      <trkpt lat="42.81325" lon="2.60537">
        <ele>183.8</ele>
        <time>2021-06-05T13:09:40Z</time>
      </trkpt>
      <trkpt lat="42.81326" lon="2.60523">
        <ele>184.6</ele>
        <time>2021-06-05T13:09:44Z</time>
      </trkpt>
      <trkpt lat="42.81328" lon="2.6051">
        <ele>185.2</ele>
        <time>2021-06-05T13:09:48Z</time>
      </trkpt>
      <trkpt lat="42.81329" lon="2.60496">
        <ele>185.6</ele>
        <time>2021-06-05T13:09:52Z</time>
      </trkpt>
      <trkpt lat="42.81331" lon="2.60483">
        <ele>186.2</ele>
        <time>2021-06-05T13:09:56Z</time>
      </trkpt>
      <trkpt lat="42.81333" lon="2.60471">
        <ele>186.8</ele>
        <time>2021-06-05T13:10:00Z</time>
      </trkpt>
      <trkpt lat="42.81335" lon="2.60458">
        <ele>187.4</ele>
        <time>2021-06-05T13:10:04Z</time>
      </trkpt>
      <trkpt lat="42.81337" lon="2.60445">
        <ele>188</ele>
        <time>2021-06-05T13:10:08Z</time>
      </trkpt>
      <trkpt lat="42.81339" lon="2.60433">
        <ele>188.4</ele>
        <time>2021-06-05T13:10:12Z</time>
      </trkpt>
      <trkpt lat="42.8134" lon="2.6042">
        <ele>188.6</ele>
        <time>2021-06-05T13:10:16Z</time>
      </trkpt>
      <trkpt lat="42.81342" lon="2.60408">
        <ele>189.2</ele>
        <time>2021-06-05T13:10:20Z</time>
      </trkpt>
      <trkpt lat="42.81344" lon="2.60396">
        <ele>189.6</ele>
        <time>2021-06-05T13:10:24Z</time>
      </trkpt>
      <trkpt lat="42.81346" lon="2.60384">
        <ele>190.4</ele>
        <time>2021-06-05T13:10:28Z</time>
      </trkpt>
      <trkpt lat="42.81348" lon="2.60372">
        <ele>191.6</ele>
        <time>2021-06-05T13:10:33Z</time>
      </trkpt>
      <trkpt lat="42.81352" lon="2.60358">
        <ele>191.8</ele>
        <time>2021-06-05T13:10:37Z</time>
      </trkpt>
      <trkpt lat="42.81355" lon="2.60348">
        <ele>192.6</ele>
        <time>2021-06-05T13:10:41Z</time>
      </trkpt>
      <trkpt lat="42.8136" lon="2.60337">
        <ele>192.8</ele>
        <time>2021-06-05T13:10:46Z</time>
      </trkpt>
      <trkpt lat="42.81364" lon="2.60327">
        <ele>193.8</ele>
        <time>2021-06-05T13:10:50Z</time>
      </trkpt>
      <trkpt lat="42.81368" lon="2.60319">
        <ele>194.4</ele>
        <time>2021-06-05T13:10:54Z</time>
      </trkpt>
      <trkpt lat="42.81372" lon="2.60309">
        <ele>194.4</ele>
        <time>2021-06-05T13:10:58Z</time>
      </trkpt>
      <trkpt lat="42.81377" lon="2.603">
        <ele>194.8</ele>
        <time>2021-06-05T13:11:02Z</time>
      </trkpt>
      <trkpt lat="42.81382" lon="2.60291">
        <ele>195.2</ele>
        <time>2021-06-05T13:11:06Z</time>
      </trkpt>
      <trkpt lat="42.81387" lon="2.6028">
        <ele>195.8</ele>
        <time>2021-06-05T13:11:10Z</time>
      </trkpt>
      <trkpt lat="42.81392" lon="2.60269">
        <ele>195.8</ele>
        <time>2021-06-05T13:11:14Z</time>
      </trkpt>
      <trkpt lat="42.81398" lon="2.60258">
        <ele>196.6</ele>
        <time>2021-06-05T13:11:18Z</time>
      </trkpt>
      <trkpt lat="42.81403" lon="2.60248">
        <ele>196.4</ele>
        <time>2021-06-05T13:11:22Z</time>
      </trkpt>
      <trkpt lat="42.81408" lon="2.60239">
        <ele>196.4</ele>
        <time>2021-06-05T13:11:26Z</time>
      </trkpt>
      <trkpt lat="42.81412" lon="2.60229">
        <ele>196.2</ele>
        <time>2021-06-05T13:11:30Z</time>
      </trkpt>
      <trkpt lat="42.81417" lon="2.60216">
        <ele>195.4</ele>
        <time>2021-06-05T13:11:34Z</time>
      </trkpt>
      <trkpt lat="42.81423" lon="2.60202">
        <ele>195.4</ele>
        <time>2021-06-05T13:11:38Z</time>
      </trkpt>
      <trkpt lat="42.81428" lon="2.60184">
        <ele>194.6</ele>
        <time>2021-06-05T13:11:42Z</time>
      </trkpt>
      <trkpt lat="42.81429" lon="2.60161">
        <ele>193.4</ele>
        <time>2021-06-05T13:11:46Z</time>
      </trkpt>
      <trkpt lat="42.81425" lon="2.60133">
        <ele>192.2</ele>
        <time>2021-06-05T13:11:50Z</time>
      </trkpt>
      <trkpt lat="42.81422" lon="2.60101">
        <ele>190.2</ele>
        <time>2021-06-05T13:11:54Z</time>
      </trkpt>
      <trkpt lat="42.81423" lon="2.60067">
        <ele>189.6</ele>
        <time>2021-06-05T13:11:58Z</time>
      </trkpt>
      <trkpt lat="42.81421" lon="2.60026">
        <ele>188.4</ele>
        <time>2021-06-05T13:12:03Z</time>
      </trkpt>
      <trkpt lat="42.81415" lon="2.59997">
        <ele>187.2</ele>
        <time>2021-06-05T13:12:07Z</time>
      </trkpt>
      <trkpt lat="42.81408" lon="2.59965">
        <ele>186.4</ele>
        <time>2021-06-05T13:12:11Z</time>
      </trkpt>
      <trkpt lat="42.81404" lon="2.59933">
        <ele>185.8</ele>
        <time>2021-06-05T13:12:15Z</time>
      </trkpt>
      <trkpt lat="42.81403" lon="2.599">
        <ele>185.2</ele>
        <time>2021-06-05T13:12:19Z</time>
      </trkpt>
      <trkpt lat="42.81406" lon="2.59869">
        <ele>184.4</ele>
        <time>2021-06-05T13:12:23Z</time>
      </trkpt>
      <trkpt lat="42.8141" lon="2.59842">
        <ele>184</ele>
        <time>2021-06-05T13:12:27Z</time>
      </trkpt>
      <trkpt lat="42.81413" lon="2.59817">
        <ele>184.4</ele>
        <time>2021-06-05T13:12:31Z</time>
      </trkpt>
      <trkpt lat="42.81418" lon="2.59796">
        <ele>184.8</ele>
        <time>2021-06-05T13:12:35Z</time>
      </trkpt>
      <trkpt lat="42.81429" lon="2.59789">
        <ele>185.8</ele>
        <time>2021-06-05T13:12:39Z</time>
      </trkpt>
      <trkpt lat="42.81438" lon="2.59789">
        <ele>186.4</ele>
        <time>2021-06-05T13:12:43Z</time>
      </trkpt>
      <trkpt lat="42.81447" lon="2.59786">
        <ele>187.2</ele>
        <time>2021-06-05T13:12:47Z</time>
      </trkpt>
      <trkpt lat="42.81457" lon="2.5978">
        <ele>187.6</ele>
        <time>2021-06-05T13:12:51Z</time>
      </trkpt>
      <trkpt lat="42.81466" lon="2.59773">
        <ele>187.6</ele>
        <time>2021-06-05T13:12:55Z</time>
      </trkpt>
      <trkpt lat="42.81473" lon="2.59765">
        <ele>188.6</ele>
        <time>2021-06-05T13:12:59Z</time>
      </trkpt>
      <trkpt lat="42.8148" lon="2.59758">
        <ele>188.4</ele>
        <time>2021-06-05T13:13:03Z</time>
      </trkpt>
      <trkpt lat="42.81486" lon="2.59749">
        <ele>189</ele>
        <time>2021-06-05T13:13:07Z</time>
      </trkpt>
      <trkpt lat="42.81491" lon="2.59737">
        <ele>189.8</ele>
        <time>2021-06-05T13:13:11Z</time>
      </trkpt>
      <trkpt lat="42.81496" lon="2.59723">
        <ele>189.6</ele>
        <time>2021-06-05T13:13:15Z</time>
      </trkpt>
      <trkpt lat="42.815" lon="2.5971">
        <ele>190.2</ele>
        <time>2021-06-05T13:13:19Z</time>
      </trkpt>
      <trkpt lat="42.81505" lon="2.59696">
        <ele>190.8</ele>
        <time>2021-06-05T13:13:24Z</time>
      </trkpt>
      <trkpt lat="42.81511" lon="2.59683">
        <ele>191</ele>
        <time>2021-06-05T13:13:28Z</time>
      </trkpt>
      <trkpt lat="42.81516" lon="2.59669">
        <ele>191.8</ele>
        <time>2021-06-05T13:13:32Z</time>
      </trkpt>
      <trkpt lat="42.81521" lon="2.59656">
        <ele>192</ele>
        <time>2021-06-05T13:13:36Z</time>
      </trkpt>
      <trkpt lat="42.81526" lon="2.59644">
        <ele>192.6</ele>
        <time>2021-06-05T13:13:40Z</time>
      </trkpt>
      <trkpt lat="42.81531" lon="2.59632">
        <ele>192.4</ele>
        <time>2021-06-05T13:13:44Z</time>
      </trkpt>
      <trkpt lat="42.81536" lon="2.5962">
        <ele>192.6</ele>
        <time>2021-06-05T13:13:48Z</time>
      </trkpt>
      <trkpt lat="42.81541" lon="2.59607">
        <ele>193</ele>
        <time>2021-06-05T13:13:52Z</time>
      </trkpt>
      <trkpt lat="42.81546" lon="2.59594">
        <ele>193.2</ele>
        <time>2021-06-05T13:13:56Z</time>
      </trkpt>
      <trkpt lat="42.8155" lon="2.59582">
        <ele>193.8</ele>
        <time>2021-06-05T13:14:00Z</time>
      </trkpt>
      <trkpt lat="42.81554" lon="2.59571">
        <ele>194.4</ele>
        <time>2021-06-05T13:14:04Z</time>
      </trkpt>
      <trkpt lat="42.81559" lon="2.5956">
        <ele>194.8</ele>
        <time>2021-06-05T13:14:08Z</time>
      </trkpt>
      <trkpt lat="42.81563" lon="2.5955">
        <ele>195</ele>
        <time>2021-06-05T13:14:12Z</time>
      </trkpt>
      <trkpt lat="42.81566" lon="2.5954">
        <ele>195.2</ele>
        <time>2021-06-05T13:14:16Z</time>
      </trkpt>
      <trkpt lat="42.81569" lon="2.5953">
        <ele>195.6</ele>
        <time>2021-06-05T13:14:20Z</time>
      </trkpt>
      <trkpt lat="42.81573" lon="2.5952">
        <ele>196.2</ele>
        <time>2021-06-05T13:14:24Z</time>
      </trkpt>
      <trkpt lat="42.81577" lon="2.5951">
        <ele>196.4</ele>
        <time>2021-06-05T13:14:28Z</time>
      </trkpt>
      <trkpt lat="42.8158" lon="2.595">
        <ele>196.8</ele>
        <time>2021-06-05T13:14:32Z</time>
      </trkpt>
      <trkpt lat="42.81583" lon="2.59491">
        <ele>197.6</ele>
        <time>2021-06-05T13:14:36Z</time>
      </trkpt>
      <trkpt lat="42.81587" lon="2.59481">
        <ele>198</ele>
        <time>2021-06-05T13:14:40Z</time>
      </trkpt>
      <trkpt lat="42.8159" lon="2.59467">
        <ele>198.8</ele>
        <time>2021-06-05T13:14:45Z</time>
      </trkpt>
      <trkpt lat="42.81592" lon="2.59455">
        <ele>199</ele>
        <time>2021-06-05T13:14:49Z</time>
      </trkpt>
      <trkpt lat="42.81595" lon="2.59442">
        <ele>199.2</ele>
        <time>2021-06-05T13:14:53Z</time>
      </trkpt>
      <trkpt lat="42.81598" lon="2.59429">
        <ele>199.4</ele>
        <time>2021-06-05T13:14:57Z</time>
      </trkpt>
      <trkpt lat="42.81602" lon="2.59415">
        <ele>199.8</ele>
        <time>2021-06-05T13:15:01Z</time>
      </trkpt>
      <trkpt lat="42.81605" lon="2.59399">
        <ele>199.8</ele>
        <time>2021-06-05T13:15:05Z</time>
      </trkpt>
      <trkpt lat="42.81608" lon="2.59384">
        <ele>200.4</ele>
        <time>2021-06-05T13:15:09Z</time>
      </trkpt>
      <trkpt lat="42.81611" lon="2.59368">
        <ele>200.4</ele>
        <time>2021-06-05T13:15:13Z</time>
      </trkpt>
      <trkpt lat="42.81615" lon="2.59352">
        <ele>200.8</ele>
        <time>2021-06-05T13:15:17Z</time>
      </trkpt>
      <trkpt lat="42.81619" lon="2.59335">
        <ele>200.8</ele>
        <time>2021-06-05T13:15:21Z</time>
      </trkpt>
      <trkpt lat="42.81622" lon="2.59317">
        <ele>201.2</ele>
        <time>2021-06-05T13:15:25Z</time>
      </trkpt>
      <trkpt lat="42.81626" lon="2.59299">
        <ele>201.2</ele>
        <time>2021-06-05T13:15:29Z</time>
      </trkpt>
      <trkpt lat="42.8163" lon="2.5928">
        <ele>201.4</ele>
        <time>2021-06-05T13:15:33Z</time>
      </trkpt>
      <trkpt lat="42.81635" lon="2.59256">
        <ele>201.8</ele>
        <time>2021-06-05T13:15:38Z</time>
      </trkpt>
      <trkpt lat="42.81639" lon="2.59237">
        <ele>201.8</ele>
        <time>2021-06-05T13:15:42Z</time>
      </trkpt>
      <trkpt lat="42.81643" lon="2.59217">
        <ele>202</ele>
        <time>2021-06-05T13:15:46Z</time>
      </trkpt>
      <trkpt lat="42.81648" lon="2.59198">
        <ele>202.2</ele>
        <time>2021-06-05T13:15:50Z</time>
      </trkpt>
      <trkpt lat="42.81656" lon="2.59178">
        <ele>202</ele>
        <time>2021-06-05T13:15:54Z</time>
      </trkpt>
      <trkpt lat="42.8167" lon="2.59162">
        <ele>201.8</ele>
        <time>2021-06-05T13:15:58Z</time>
      </trkpt>
      <trkpt lat="42.81687" lon="2.59146">
        <ele>201.4</ele>
        <time>2021-06-05T13:16:02Z</time>
      </trkpt>
      <trkpt lat="42.81712" lon="2.59123">
        <ele>200.6</ele>
        <time>2021-06-05T13:16:07Z</time>
      </trkpt>
      <trkpt lat="42.81735" lon="2.59101">
        <ele>199</ele>
        <time>2021-06-05T13:16:11Z</time>
      </trkpt>
      <trkpt lat="42.81759" lon="2.59075">
        <ele>198.2</ele>
        <time>2021-06-05T13:16:15Z</time>
      </trkpt>
      <trkpt lat="42.81782" lon="2.5905">
        <ele>197</ele>
        <time>2021-06-05T13:16:19Z</time>
      </trkpt>
      <trkpt lat="42.81806" lon="2.59035">
        <ele>196.8</ele>
        <time>2021-06-05T13:16:23Z</time>
      </trkpt>
      <trkpt lat="42.81825" lon="2.59016">
        <ele>197.2</ele>
        <time>2021-06-05T13:16:27Z</time>
      </trkpt>
      <trkpt lat="42.81841" lon="2.58999">
        <ele>198</ele>
        <time>2021-06-05T13:16:31Z</time>
      </trkpt>
      <trkpt lat="42.81856" lon="2.58988">
        <ele>198.4</ele>
        <time>2021-06-05T13:16:35Z</time>
      </trkpt>
      <trkpt lat="42.81869" lon="2.58976">
        <ele>199</ele>
        <time>2021-06-05T13:16:39Z</time>
      </trkpt>
      <trkpt lat="42.81881" lon="2.58966">
        <ele>199.6</ele>
        <time>2021-06-05T13:16:43Z</time>
      </trkpt>
      <trkpt lat="42.81892" lon="2.58955">
        <ele>200</ele>
        <time>2021-06-05T13:16:47Z</time>
      </trkpt>
      <trkpt lat="42.81902" lon="2.58945">
        <ele>201</ele>
        <time>2021-06-05T13:16:51Z</time>
      </trkpt>
      <trkpt lat="42.81911" lon="2.58936">
        <ele>200.8</ele>
        <time>2021-06-05T13:16:55Z</time>
      </trkpt>
      <trkpt lat="42.81921" lon="2.58927">
        <ele>201</ele>
        <time>2021-06-05T13:16:59Z</time>
      </trkpt>
      <trkpt lat="42.81932" lon="2.58919">
        <ele>201.2</ele>
        <time>2021-06-05T13:17:03Z</time>
      </trkpt>
      <trkpt lat="42.8194" lon="2.58912">
        <ele>201.4</ele>
        <time>2021-06-05T13:17:07Z</time>
      </trkpt>
      <trkpt lat="42.81949" lon="2.58906">
        <ele>202</ele>
        <time>2021-06-05T13:17:11Z</time>
      </trkpt>
      <trkpt lat="42.81958" lon="2.58899">
        <ele>202.2</ele>
        <time>2021-06-05T13:17:15Z</time>
      </trkpt>
      <trkpt lat="42.8197" lon="2.58889">
        <ele>202.2</ele>
        <time>2021-06-05T13:17:20Z</time>
      </trkpt>
      <trkpt lat="42.8198" lon="2.58882">
        <ele>202.6</ele>
        <time>2021-06-05T13:17:24Z</time>
      </trkpt>
      <trkpt lat="42.8199" lon="2.58875">
        <ele>203.2</ele>
        <time>2021-06-05T13:17:29Z</time>
      </trkpt>
      <trkpt lat="42.81997" lon="2.58869">
        <ele>203.4</ele>
        <time>2021-06-05T13:17:33Z</time>
      </trkpt>
      <trkpt lat="42.82005" lon="2.58864">
        <ele>204.2</ele>
        <time>2021-06-05T13:17:37Z</time>
      </trkpt>
      <trkpt lat="42.82012" lon="2.58858">
        <ele>204.2</ele>
        <time>2021-06-05T13:17:41Z</time>
      </trkpt>
      <trkpt lat="42.82019" lon="2.58853">
        <ele>204.6</ele>
        <time>2021-06-05T13:17:45Z</time>
      </trkpt>
      <trkpt lat="42.82025" lon="2.58848">
        <ele>205.2</ele>
        <time>2021-06-05T13:17:49Z</time>
      </trkpt>
      <trkpt lat="42.82031" lon="2.58844">
        <ele>205.6</ele>
        <time>2021-06-05T13:17:53Z</time>
      </trkpt>
      <trkpt lat="42.82037" lon="2.58839">
        <ele>206</ele>
        <time>2021-06-05T13:17:57Z</time>
      </trkpt>
      <trkpt lat="42.82044" lon="2.58834">
        <ele>206</ele>
        <time>2021-06-05T13:18:01Z</time>
      </trkpt>
      <trkpt lat="42.82051" lon="2.58829">
        <ele>206.4</ele>
        <time>2021-06-05T13:18:05Z</time>
      </trkpt>
      <trkpt lat="42.82057" lon="2.58824">
        <ele>206.6</ele>
        <time>2021-06-05T13:18:09Z</time>
      </trkpt>
      <trkpt lat="42.82063" lon="2.58818">
        <ele>207</ele>
        <time>2021-06-05T13:18:13Z</time>
      </trkpt>
      <trkpt lat="42.82068" lon="2.58814">
        <ele>207.4</ele>
        <time>2021-06-05T13:18:17Z</time>
      </trkpt>
      <trkpt lat="42.82074" lon="2.5881">
        <ele>207.8</ele>
        <time>2021-06-05T13:18:21Z</time>
      </trkpt>
      <trkpt lat="42.82079" lon="2.58804">
        <ele>208.2</ele>
        <time>2021-06-05T13:18:25Z</time>
      </trkpt>
      <trkpt lat="42.82084" lon="2.58799">
        <ele>209</ele>
        <time>2021-06-05T13:18:29Z</time>
      </trkpt>
      <trkpt lat="42.82089" lon="2.58795">
        <ele>209.4</ele>
        <time>2021-06-05T13:18:33Z</time>
      </trkpt>
      <trkpt lat="42.82094" lon="2.5879">
        <ele>210</ele>
        <time>2021-06-05T13:18:37Z</time>
      </trkpt>
      <trkpt lat="42.82101" lon="2.58784">
        <ele>210.6</ele>
        <time>2021-06-05T13:18:41Z</time>
      </trkpt>
      <trkpt lat="42.82108" lon="2.58777">
        <ele>211.2</ele>
        <time>2021-06-05T13:18:46Z</time>
      </trkpt>
      <trkpt lat="42.82114" lon="2.58772">
        <ele>211.8</ele>
        <time>2021-06-05T13:18:50Z</time>
      </trkpt>
      <trkpt lat="42.8212" lon="2.58768">
        <ele>212.4</ele>
        <time>2021-06-05T13:18:54Z</time>
      </trkpt>
      <trkpt lat="42.82126" lon="2.58763">
        <ele>213.2</ele>
        <time>2021-06-05T13:18:58Z</time>
      </trkpt>
      <trkpt lat="42.82132" lon="2.58758">
        <ele>213.6</ele>
        <time>2021-06-05T13:19:02Z</time>
      </trkpt>
      <trkpt lat="42.82138" lon="2.58753">
        <ele>214.2</ele>
        <time>2021-06-05T13:19:06Z</time>
      </trkpt>
      <trkpt lat="42.82143" lon="2.58748">
        <ele>214.6</ele>
        <time>2021-06-05T13:19:10Z</time>
      </trkpt>
      <trkpt lat="42.82149" lon="2.58744">
        <ele>215.2</ele>
        <time>2021-06-05T13:19:14Z</time>
      </trkpt>
      <trkpt lat="42.82154" lon="2.5874">
        <ele>215.6</ele>
        <time>2021-06-05T13:19:18Z</time>
      </trkpt>
      <trkpt lat="42.82159" lon="2.58735">
        <ele>216.4</ele>
        <time>2021-06-05T13:19:22Z</time>
      </trkpt>
      <trkpt lat="42.82165" lon="2.58731">
        <ele>216.8</ele>
        <time>2021-06-05T13:19:26Z</time>
      </trkpt>
      <trkpt lat="42.8217" lon="2.58726">
        <ele>217.4</ele>
        <time>2021-06-05T13:19:30Z</time>
      </trkpt>
      <trkpt lat="42.82176" lon="2.58722">
        <ele>217.8</ele>
        <time>2021-06-05T13:19:34Z</time>
      </trkpt>
      <trkpt lat="42.82182" lon="2.58718">
        <ele>218.2</ele>
        <time>2021-06-05T13:19:38Z</time>
      </trkpt>
      <trkpt lat="42.82187" lon="2.58714">
        <ele>218.6</ele>
        <time>2021-06-05T13:19:42Z</time>
      </trkpt>
      <trkpt lat="42.82193" lon="2.58711">
        <ele>219.2</ele>
        <time>2021-06-05T13:19:46Z</time>
      </trkpt>
      <trkpt lat="42.82199" lon="2.58707">
        <ele>219.8</ele>
        <time>2021-06-05T13:19:50Z</time>
      </trkpt>
      <trkpt lat="42.82205" lon="2.58703">
        <ele>220.2</ele>
        <time>2021-06-05T13:19:54Z</time>
      </trkpt>
      <trkpt lat="42.82211" lon="2.587">
        <ele>220.8</ele>
        <time>2021-06-05T13:19:58Z</time>
      </trkpt>
      <trkpt lat="42.82217" lon="2.58697">
        <ele>221</ele>
        <time>2021-06-05T13:20:02Z</time>
      </trkpt>
      <trkpt lat="42.82225" lon="2.58692">
        <ele>222.2</ele>
        <time>2021-06-05T13:20:08Z</time>
      </trkpt>
      <trkpt lat="42.82235" lon="2.58686">
        <ele>222</ele>
        <time>2021-06-05T13:20:14Z</time>
      </trkpt>
      <trkpt lat="42.82242" lon="2.58682">
        <ele>222.8</ele>
        <time>2021-06-05T13:20:19Z</time>
      </trkpt>
      <trkpt lat="42.8225" lon="2.58678">
        <ele>223.4</ele>
        <time>2021-06-05T13:20:24Z</time>
      </trkpt>
      <trkpt lat="42.82257" lon="2.58674">
        <ele>223.8</ele>
        <time>2021-06-05T13:20:29Z</time>
      </trkpt>
      <trkpt lat="42.82263" lon="2.5867">
        <ele>224.2</ele>
        <time>2021-06-05T13:20:33Z</time>
      </trkpt>
      <trkpt lat="42.82268" lon="2.58667">
        <ele>224.2</ele>
        <time>2021-06-05T13:20:37Z</time>
      </trkpt>
      <trkpt lat="42.82274" lon="2.58663">
        <ele>225.2</ele>
        <time>2021-06-05T13:20:41Z</time>
      </trkpt>
      <trkpt lat="42.82281" lon="2.58661">
        <ele>225.8</ele>
        <time>2021-06-05T13:20:45Z</time>
      </trkpt>
      <trkpt lat="42.82287" lon="2.58657">
        <ele>226.4</ele>
        <time>2021-06-05T13:20:49Z</time>
      </trkpt>
      <trkpt lat="42.82293" lon="2.58655">
        <ele>226.6</ele>
        <time>2021-06-05T13:20:53Z</time>
      </trkpt>
      <trkpt lat="42.82299" lon="2.58652">
        <ele>226.8</ele>
        <time>2021-06-05T13:20:57Z</time>
      </trkpt>
      <trkpt lat="42.82304" lon="2.58648">
        <ele>227</ele>
        <time>2021-06-05T13:21:01Z</time>
      </trkpt>
      <trkpt lat="42.82311" lon="2.58645">
        <ele>227.2</ele>
        <time>2021-06-05T13:21:05Z</time>
      </trkpt>
      <trkpt lat="42.82318" lon="2.58641">
        <ele>227.8</ele>
        <time>2021-06-05T13:21:09Z</time>
      </trkpt>
      <trkpt lat="42.82325" lon="2.58638">
        <ele>228.4</ele>
        <time>2021-06-05T13:21:13Z</time>
      </trkpt>
      <trkpt lat="42.82331" lon="2.58635">
        <ele>228.8</ele>
        <time>2021-06-05T13:21:17Z</time>
      </trkpt>
      <trkpt lat="42.82337" lon="2.58632">
        <ele>230.2</ele>
        <time>2021-06-05T13:21:21Z</time>
      </trkpt>
      <trkpt lat="42.82342" lon="2.58629">
        <ele>231.2</ele>
        <time>2021-06-05T13:21:25Z</time>
      </trkpt>
      <trkpt lat="42.82348" lon="2.58626">
        <ele>231</ele>
        <time>2021-06-05T13:21:29Z</time>
      </trkpt>
      <trkpt lat="42.82355" lon="2.58622">
        <ele>231.6</ele>
        <time>2021-06-05T13:21:34Z</time>
      </trkpt>
      <trkpt lat="42.82361" lon="2.58619">
        <ele>232</ele>
        <time>2021-06-05T13:21:38Z</time>
      </trkpt>
      <trkpt lat="42.82368" lon="2.58618">
        <ele>232.2</ele>
        <time>2021-06-05T13:21:42Z</time>
      </trkpt>
      <trkpt lat="42.82374" lon="2.58617">
        <ele>233</ele>
        <time>2021-06-05T13:21:46Z</time>
      </trkpt>
      <trkpt lat="42.82379" lon="2.58617">
        <ele>233.6</ele>
        <time>2021-06-05T13:21:50Z</time>
      </trkpt>
      <trkpt lat="42.82386" lon="2.58618">
        <ele>233.4</ele>
        <time>2021-06-05T13:21:54Z</time>
      </trkpt>
      <trkpt lat="42.82392" lon="2.58618">
        <ele>233.4</ele>
        <time>2021-06-05T13:21:58Z</time>
      </trkpt>
      <trkpt lat="42.82398" lon="2.58618">
        <ele>233.8</ele>
        <time>2021-06-05T13:22:02Z</time>
      </trkpt>
      <trkpt lat="42.82405" lon="2.58618">
        <ele>234</ele>
        <time>2021-06-05T13:22:06Z</time>
      </trkpt>
      <trkpt lat="42.82411" lon="2.58618">
        <ele>234.6</ele>
        <time>2021-06-05T13:22:10Z</time>
      </trkpt>
      <trkpt lat="42.82418" lon="2.58618">
        <ele>235</ele>
        <time>2021-06-05T13:22:14Z</time>
      </trkpt>
      <trkpt lat="42.82427" lon="2.58617">
        <ele>236</ele>
        <time>2021-06-05T13:22:18Z</time>
      </trkpt>
      <trkpt lat="42.82435" lon="2.58615">
        <ele>236.8</ele>
        <time>2021-06-05T13:22:22Z</time>
      </trkpt>
      <trkpt lat="42.82443" lon="2.58614">
        <ele>237.4</ele>
        <time>2021-06-05T13:22:26Z</time>
      </trkpt>
      <trkpt lat="42.8245" lon="2.58614">
        <ele>238.6</ele>
        <time>2021-06-05T13:22:30Z</time>
      </trkpt>
      <trkpt lat="42.82457" lon="2.58614">
        <ele>238.6</ele>
        <time>2021-06-05T13:22:34Z</time>
      </trkpt>
      <trkpt lat="42.82463" lon="2.58615">
        <ele>238.8</ele>
        <time>2021-06-05T13:22:38Z</time>
      </trkpt>
      <trkpt lat="42.8247" lon="2.58615">
        <ele>239.6</ele>
        <time>2021-06-05T13:22:42Z</time>
      </trkpt>
      <trkpt lat="42.82476" lon="2.58615">
        <ele>240</ele>
        <time>2021-06-05T13:22:46Z</time>
      </trkpt>
      <trkpt lat="42.82482" lon="2.58616">
        <ele>240</ele>
        <time>2021-06-05T13:22:50Z</time>
      </trkpt>
      <trkpt lat="42.82492" lon="2.58618">
        <ele>241</ele>
        <time>2021-06-05T13:22:55Z</time>
      </trkpt>
      <trkpt lat="42.82499" lon="2.5862">
        <ele>241.4</ele>
        <time>2021-06-05T13:22:59Z</time>
      </trkpt>
      <trkpt lat="42.82506" lon="2.58623">
        <ele>241.6</ele>
        <time>2021-06-05T13:23:03Z</time>
      </trkpt>
      <trkpt lat="42.82511" lon="2.58625">
        <ele>242.8</ele>
        <time>2021-06-05T13:23:07Z</time>
      </trkpt>
      <trkpt lat="42.82516" lon="2.58628">
        <ele>242.8</ele>
        <time>2021-06-05T13:23:11Z</time>
      </trkpt>
      <trkpt lat="42.82521" lon="2.58631">
        <ele>242.6</ele>
        <time>2021-06-05T13:23:15Z</time>
      </trkpt>
      <trkpt lat="42.82527" lon="2.58635">
        <ele>243.8</ele>
        <time>2021-06-05T13:23:19Z</time>
      </trkpt>
      <trkpt lat="42.82533" lon="2.58638">
        <ele>243.6</ele>
        <time>2021-06-05T13:23:23Z</time>
      </trkpt>
      <trkpt lat="42.8254" lon="2.58642">
        <ele>244</ele>
        <time>2021-06-05T13:23:27Z</time>
      </trkpt>
      <trkpt lat="42.82547" lon="2.58646">
        <ele>244.6</ele>
        <time>2021-06-05T13:23:31Z</time>
      </trkpt>
      <trkpt lat="42.82553" lon="2.58651">
        <ele>245.2</ele>
        <time>2021-06-05T13:23:35Z</time>
      </trkpt>
      <trkpt lat="42.82559" lon="2.58654">
        <ele>246</ele>
        <time>2021-06-05T13:23:39Z</time>
      </trkpt>
      <trkpt lat="42.82565" lon="2.58657">
        <ele>246.6</ele>
        <time>2021-06-05T13:23:43Z</time>
      </trkpt>
      <trkpt lat="42.8257" lon="2.58661">
        <ele>247.2</ele>
        <time>2021-06-05T13:23:47Z</time>
      </trkpt>
      <trkpt lat="42.82576" lon="2.58665">
        <ele>247.6</ele>
        <time>2021-06-05T13:23:51Z</time>
      </trkpt>
      <trkpt lat="42.82582" lon="2.58669">
        <ele>248.2</ele>
        <time>2021-06-05T13:23:55Z</time>
      </trkpt>
      <trkpt lat="42.82589" lon="2.58674">
        <ele>248.4</ele>
        <time>2021-06-05T13:23:59Z</time>
      </trkpt>
      <trkpt lat="42.82595" lon="2.58677">
        <ele>248.6</ele>
        <time>2021-06-05T13:24:03Z</time>
      </trkpt>
      <trkpt lat="42.82601" lon="2.58681">
        <ele>249</ele>
        <time>2021-06-05T13:24:07Z</time>
      </trkpt>
      <trkpt lat="42.82608" lon="2.58685">
        <ele>249.8</ele>
        <time>2021-06-05T13:24:11Z</time>
      </trkpt>
      <trkpt lat="42.82616" lon="2.58691">
        <ele>250.4</ele>
        <time>2021-06-05T13:24:16Z</time>
      </trkpt>
      <trkpt lat="42.82622" lon="2.58696">
        <ele>250.6</ele>
        <time>2021-06-05T13:24:20Z</time>
      </trkpt>
      <trkpt lat="42.82628" lon="2.58701">
        <ele>251.2</ele>
        <time>2021-06-05T13:24:24Z</time>
      </trkpt>
      <trkpt lat="42.82634" lon="2.58707">
        <ele>251.4</ele>
        <time>2021-06-05T13:24:28Z</time>
      </trkpt>
      <trkpt lat="42.8264" lon="2.58714">
        <ele>252.2</ele>
        <time>2021-06-05T13:24:32Z</time>
      </trkpt>
      <trkpt lat="42.82645" lon="2.58721">
        <ele>252.8</ele>
        <time>2021-06-05T13:24:36Z</time>
      </trkpt>
      <trkpt lat="42.82651" lon="2.58727">
        <ele>253.8</ele>
        <time>2021-06-05T13:24:40Z</time>
      </trkpt>
      <trkpt lat="42.82656" lon="2.58734">
        <ele>254.8</ele>
        <time>2021-06-05T13:24:44Z</time>
      </trkpt>
      <trkpt lat="42.82662" lon="2.58741">
        <ele>255</ele>
        <time>2021-06-05T13:24:48Z</time>
      </trkpt>
      <trkpt lat="42.82668" lon="2.58748">
        <ele>255.4</ele>
        <time>2021-06-05T13:24:52Z</time>
      </trkpt>
      <trkpt lat="42.82673" lon="2.58756">
        <ele>255.8</ele>
        <time>2021-06-05T13:24:56Z</time>
      </trkpt>
      <trkpt lat="42.82679" lon="2.58763">
        <ele>256.6</ele>
        <time>2021-06-05T13:25:00Z</time>
      </trkpt>
      <trkpt lat="42.82684" lon="2.5877">
        <ele>257</ele>
        <time>2021-06-05T13:25:04Z</time>
      </trkpt>
      <trkpt lat="42.8269" lon="2.58777">
        <ele>257.6</ele>
        <time>2021-06-05T13:25:08Z</time>
      </trkpt>
      <trkpt lat="42.82696" lon="2.58783">
        <ele>258.4</ele>
        <time>2021-06-05T13:25:12Z</time>
      </trkpt>
      <trkpt lat="42.82704" lon="2.58788">
        <ele>259.2</ele>
        <time>2021-06-05T13:25:16Z</time>
      </trkpt>
      <trkpt lat="42.82712" lon="2.58792">
        <ele>259.6</ele>
        <time>2021-06-05T13:25:20Z</time>
      </trkpt>
      <trkpt lat="42.82721" lon="2.58795">
        <ele>260.4</ele>
        <time>2021-06-05T13:25:24Z</time>
      </trkpt>
      <trkpt lat="42.82729" lon="2.58797">
        <ele>261.2</ele>
        <time>2021-06-05T13:25:28Z</time>
      </trkpt>
      <trkpt lat="42.82739" lon="2.58798">
        <ele>261.6</ele>
        <time>2021-06-05T13:25:33Z</time>
      </trkpt>
      <trkpt lat="42.82747" lon="2.58798">
        <ele>262.4</ele>
        <time>2021-06-05T13:25:37Z</time>
      </trkpt>
      <trkpt lat="42.82754" lon="2.58798">
        <ele>263</ele>
        <time>2021-06-05T13:25:41Z</time>
      </trkpt>
      <trkpt lat="42.82763" lon="2.58797">
        <ele>263.6</ele>
        <time>2021-06-05T13:25:45Z</time>
      </trkpt>
      <trkpt lat="42.8277" lon="2.58795">
        <ele>264.4</ele>
        <time>2021-06-05T13:25:49Z</time>
      </trkpt>
      <trkpt lat="42.82778" lon="2.58793">
        <ele>264</ele>
        <time>2021-06-05T13:25:53Z</time>
      </trkpt>
      <trkpt lat="42.82786" lon="2.58792">
        <ele>264</ele>
        <time>2021-06-05T13:25:57Z</time>
      </trkpt>
      <trkpt lat="42.82795" lon="2.58789">
        <ele>264</ele>
        <time>2021-06-05T13:26:01Z</time>
      </trkpt>
      <trkpt lat="42.82805" lon="2.58788">
        <ele>264.2</ele>
        <time>2021-06-05T13:26:05Z</time>
      </trkpt>
      <trkpt lat="42.82813" lon="2.58786">
        <ele>264.4</ele>
        <time>2021-06-05T13:26:09Z</time>
      </trkpt>
      <trkpt lat="42.82822" lon="2.58785">
        <ele>264.4</ele>
        <time>2021-06-05T13:26:13Z</time>
      </trkpt>
      <trkpt lat="42.82831" lon="2.58784">
        <ele>264.4</ele>
        <time>2021-06-05T13:26:17Z</time>
      </trkpt>
      <trkpt lat="42.82839" lon="2.58782">
        <ele>264.8</ele>
        <time>2021-06-05T13:26:21Z</time>
      </trkpt>
      <trkpt lat="42.82847" lon="2.5878">
        <ele>265.4</ele>
        <time>2021-06-05T13:26:25Z</time>
      </trkpt>
      <trkpt lat="42.82854" lon="2.58779">
        <ele>265.4</ele>
        <time>2021-06-05T13:26:29Z</time>
      </trkpt>
      <trkpt lat="42.82861" lon="2.58776">
        <ele>265.6</ele>
        <time>2021-06-05T13:26:33Z</time>
      </trkpt>
      <trkpt lat="42.82869" lon="2.58774">
        <ele>265.6</ele>
        <time>2021-06-05T13:26:37Z</time>
      </trkpt>
      <trkpt lat="42.82871" lon="2.58773">
        <ele>265.4</ele>
        <time>2021-06-05T13:26:41Z</time>
      </trkpt>
      <trkpt lat="42.82872" lon="2.58773">
        <ele>265.8</ele>
        <time>2021-06-05T13:26:45Z</time>
      </trkpt>
      <trkpt lat="42.82896" lon="2.58758">
        <ele>269.8</ele>
        <time>2021-06-05T13:30:34Z</time>
      </trkpt>
      <trkpt lat="42.82904" lon="2.58754">
        <ele>270.4</ele>
        <time>2021-06-05T13:30:39Z</time>
      </trkpt>
      <trkpt lat="42.82914" lon="2.58749">
        <ele>270.6</ele>
        <time>2021-06-05T13:30:43Z</time>
      </trkpt>
      <trkpt lat="42.8292" lon="2.58746">
        <ele>271</ele>
        <time>2021-06-05T13:30:47Z</time>
      </trkpt>
      <trkpt lat="42.82927" lon="2.58742">
        <ele>271.2</ele>
        <time>2021-06-05T13:30:51Z</time>
      </trkpt>
      <trkpt lat="42.82936" lon="2.58737">
        <ele>271.4</ele>
        <time>2021-06-05T13:30:55Z</time>
      </trkpt>
      <trkpt lat="42.82943" lon="2.58731">
        <ele>271.4</ele>
        <time>2021-06-05T13:30:59Z</time>
      </trkpt>
      <trkpt lat="42.82951" lon="2.58727">
        <ele>271.8</ele>
        <time>2021-06-05T13:31:03Z</time>
      </trkpt>
      <trkpt lat="42.82957" lon="2.58721">
        <ele>272.2</ele>
        <time>2021-06-05T13:31:07Z</time>
      </trkpt>
      <trkpt lat="42.82964" lon="2.58717">
        <ele>272.8</ele>
        <time>2021-06-05T13:31:11Z</time>
      </trkpt>
      <trkpt lat="42.82968" lon="2.58713">
        <ele>273</ele>
        <time>2021-06-05T13:31:15Z</time>
      </trkpt>
      <trkpt lat="42.82976" lon="2.58707">
        <ele>273.8</ele>
        <time>2021-06-05T13:31:19Z</time>
      </trkpt>
      <trkpt lat="42.82982" lon="2.58701">
        <ele>274.2</ele>
        <time>2021-06-05T13:31:23Z</time>
      </trkpt>
      <trkpt lat="42.82988" lon="2.58696">
        <ele>274.8</ele>
        <time>2021-06-05T13:31:27Z</time>
      </trkpt>
      <trkpt lat="42.82994" lon="2.58691">
        <ele>275.4</ele>
        <time>2021-06-05T13:31:31Z</time>
      </trkpt>
      <trkpt lat="42.83" lon="2.58687">
        <ele>276.2</ele>
        <time>2021-06-05T13:31:35Z</time>
      </trkpt>
      <trkpt lat="42.83006" lon="2.58681">
        <ele>276.8</ele>
        <time>2021-06-05T13:31:39Z</time>
      </trkpt>
      <trkpt lat="42.83011" lon="2.58676">
        <ele>277.6</ele>
        <time>2021-06-05T13:31:43Z</time>
      </trkpt>
      <trkpt lat="42.83016" lon="2.58671">
        <ele>278</ele>
        <time>2021-06-05T13:31:47Z</time>
      </trkpt>
      <trkpt lat="42.83021" lon="2.58666">
        <ele>278.8</ele>
        <time>2021-06-05T13:31:51Z</time>
      </trkpt>
      <trkpt lat="42.83026" lon="2.58662">
        <ele>279.6</ele>
        <time>2021-06-05T13:31:55Z</time>
      </trkpt>
      <trkpt lat="42.83031" lon="2.58655">
        <ele>280.2</ele>
        <time>2021-06-05T13:32:00Z</time>
      </trkpt>
      <trkpt lat="42.83036" lon="2.5865">
        <ele>280.8</ele>
        <time>2021-06-05T13:32:04Z</time>
      </trkpt>
      <trkpt lat="42.8304" lon="2.58646">
        <ele>281.6</ele>
        <time>2021-06-05T13:32:08Z</time>
      </trkpt>
      <trkpt lat="42.83045" lon="2.58641">
        <ele>282.4</ele>
        <time>2021-06-05T13:32:12Z</time>
      </trkpt>
      <trkpt lat="42.83049" lon="2.58635">
        <ele>282.6</ele>
        <time>2021-06-05T13:32:16Z</time>
      </trkpt>
      <trkpt lat="42.83054" lon="2.58632">
        <ele>283.2</ele>
        <time>2021-06-05T13:32:20Z</time>
      </trkpt>
      <trkpt lat="42.83059" lon="2.58627">
        <ele>283.6</ele>
        <time>2021-06-05T13:32:24Z</time>
      </trkpt>
      <trkpt lat="42.83063" lon="2.58623">
        <ele>283.8</ele>
        <time>2021-06-05T13:32:28Z</time>
      </trkpt>
      <trkpt lat="42.83067" lon="2.58618">
        <ele>284</ele>
        <time>2021-06-05T13:32:32Z</time>
      </trkpt>
      <trkpt lat="42.83069" lon="2.58616">
        <ele>283.8</ele>
        <time>2021-06-05T13:32:36Z</time>
      </trkpt>
      <trkpt lat="42.83073" lon="2.58611">
        <ele>284.2</ele>
        <time>2021-06-05T13:32:40Z</time>
      </trkpt>
      <trkpt lat="42.83078" lon="2.58606">
        <ele>284.8</ele>
        <time>2021-06-05T13:32:44Z</time>
      </trkpt>
      <trkpt lat="42.83082" lon="2.58601">
        <ele>286.2</ele>
        <time>2021-06-05T13:32:48Z</time>
      </trkpt>
      <trkpt lat="42.83087" lon="2.58596">
        <ele>287.6</ele>
        <time>2021-06-05T13:32:52Z</time>
      </trkpt>
      <trkpt lat="42.83091" lon="2.58592">
        <ele>286.8</ele>
        <time>2021-06-05T13:32:56Z</time>
      </trkpt>
      <trkpt lat="42.83096" lon="2.58588">
        <ele>287.2</ele>
        <time>2021-06-05T13:33:00Z</time>
      </trkpt>
      <trkpt lat="42.83099" lon="2.58583">
        <ele>288.4</ele>
        <time>2021-06-05T13:33:04Z</time>
      </trkpt>
      <trkpt lat="42.83103" lon="2.58577">
        <ele>288.8</ele>
        <time>2021-06-05T13:33:08Z</time>
      </trkpt>
      <trkpt lat="42.83103" lon="2.58567">
        <ele>289.4</ele>
        <time>2021-06-05T13:33:12Z</time>
      </trkpt>
      <trkpt lat="42.83099" lon="2.58557">
        <ele>288.8</ele>
        <time>2021-06-05T13:33:16Z</time>
      </trkpt>
      <trkpt lat="42.83089" lon="2.58547">
        <ele>289.2</ele>
        <time>2021-06-05T13:33:21Z</time>
      </trkpt>
      <trkpt lat="42.8308" lon="2.58539">
        <ele>288.8</ele>
        <time>2021-06-05T13:33:25Z</time>
      </trkpt>
      <trkpt lat="42.8307" lon="2.5853">
        <ele>289.2</ele>
        <time>2021-06-05T13:33:29Z</time>
      </trkpt>
      <trkpt lat="42.83062" lon="2.58522">
        <ele>289.2</ele>
        <time>2021-06-05T13:33:33Z</time>
      </trkpt>
      <trkpt lat="42.83057" lon="2.58514">
        <ele>289.8</ele>
        <time>2021-06-05T13:33:37Z</time>
      </trkpt>
      <trkpt lat="42.83054" lon="2.58504">
        <ele>290.4</ele>
        <time>2021-06-05T13:33:41Z</time>
      </trkpt>
      <trkpt lat="42.83057" lon="2.58495">
        <ele>291.6</ele>
        <time>2021-06-05T13:33:45Z</time>
      </trkpt>
      <trkpt lat="42.83065" lon="2.5849">
        <ele>292.2</ele>
        <time>2021-06-05T13:33:49Z</time>
      </trkpt>
      <trkpt lat="42.83073" lon="2.58493">
        <ele>293</ele>
        <time>2021-06-05T13:33:53Z</time>
      </trkpt>
      <trkpt lat="42.8308" lon="2.585">
        <ele>293.6</ele>
        <time>2021-06-05T13:33:57Z</time>
      </trkpt>
      <trkpt lat="42.83086" lon="2.58506">
        <ele>294.6</ele>
        <time>2021-06-05T13:34:01Z</time>
      </trkpt>
      <trkpt lat="42.83092" lon="2.58515">
        <ele>295</ele>
        <time>2021-06-05T13:34:05Z</time>
      </trkpt>
      <trkpt lat="42.831" lon="2.58519">
        <ele>296</ele>
        <time>2021-06-05T13:34:09Z</time>
      </trkpt>
      <trkpt lat="42.83108" lon="2.5852">
        <ele>296.6</ele>
        <time>2021-06-05T13:34:13Z</time>
      </trkpt>
      <trkpt lat="42.83116" lon="2.58519">
        <ele>297.6</ele>
        <time>2021-06-05T13:34:17Z</time>
      </trkpt>
      <trkpt lat="42.83124" lon="2.58519">
        <ele>297.8</ele>
        <time>2021-06-05T13:34:21Z</time>
      </trkpt>
      <trkpt lat="42.8313" lon="2.58515">
        <ele>298.4</ele>
        <time>2021-06-05T13:34:25Z</time>
      </trkpt>
      <trkpt lat="42.83137" lon="2.58511">
        <ele>298.6</ele>
        <time>2021-06-05T13:34:29Z</time>
      </trkpt>
      <trkpt lat="42.83144" lon="2.58507">
        <ele>299</ele>
        <time>2021-06-05T13:34:33Z</time>
      </trkpt>
      <trkpt lat="42.83152" lon="2.58502">
        <ele>300.2</ele>
        <time>2021-06-05T13:34:38Z</time>
      </trkpt>
      <trkpt lat="42.83158" lon="2.58498">
        <ele>300.4</ele>
        <time>2021-06-05T13:34:42Z</time>
      </trkpt>
      <trkpt lat="42.83163" lon="2.58495">
        <ele>300.8</ele>
        <time>2021-06-05T13:34:46Z</time>
      </trkpt>
      <trkpt lat="42.83164" lon="2.58496">
        <ele>300.6</ele>
        <time>2021-06-05T13:34:50Z</time>
      </trkpt>
      <trkpt lat="42.83142" lon="2.58508">
        <ele>299</ele>
        <time>2021-06-05T13:35:36Z</time>
      </trkpt>
      <trkpt lat="42.83135" lon="2.58514">
        <ele>298.4</ele>
        <time>2021-06-05T13:35:40Z</time>
      </trkpt>
      <trkpt lat="42.83124" lon="2.5852">
        <ele>297.8</ele>
        <time>2021-06-05T13:35:44Z</time>
      </trkpt>
      <trkpt lat="42.83113" lon="2.58524">
        <ele>297</ele>
        <time>2021-06-05T13:35:48Z</time>
      </trkpt>
      <trkpt lat="42.83102" lon="2.58524">
        <ele>296.2</ele>
        <time>2021-06-05T13:35:52Z</time>
      </trkpt>
      <trkpt lat="42.83092" lon="2.58518">
        <ele>295.4</ele>
        <time>2021-06-05T13:35:56Z</time>
      </trkpt>
      <trkpt lat="42.83084" lon="2.58505">
        <ele>294.2</ele>
        <time>2021-06-05T13:36:00Z</time>
      </trkpt>
      <trkpt lat="42.83074" lon="2.58494">
        <ele>293.2</ele>
        <time>2021-06-05T13:36:04Z</time>
      </trkpt>
      <trkpt lat="42.83063" lon="2.58491">
        <ele>292.4</ele>
        <time>2021-06-05T13:36:08Z</time>
      </trkpt>
      <trkpt lat="42.83055" lon="2.58502">
        <ele>292</ele>
        <time>2021-06-05T13:36:12Z</time>
      </trkpt>
      <trkpt lat="42.83062" lon="2.5852">
        <ele>290.6</ele>
        <time>2021-06-05T13:36:16Z</time>
      </trkpt>
      <trkpt lat="42.83079" lon="2.58539">
        <ele>289</ele>
        <time>2021-06-05T13:36:20Z</time>
      </trkpt>
      <trkpt lat="42.83098" lon="2.58557">
        <ele>288.6</ele>
        <time>2021-06-05T13:36:24Z</time>
      </trkpt>
      <trkpt lat="42.83106" lon="2.5857">
        <ele>289</ele>
        <time>2021-06-05T13:36:28Z</time>
      </trkpt>
      <trkpt lat="42.83113" lon="2.58567">
        <ele>289.8</ele>
        <time>2021-06-05T13:36:32Z</time>
      </trkpt>
      <trkpt lat="42.83119" lon="2.58561">
        <ele>290.6</ele>
        <time>2021-06-05T13:36:36Z</time>
      </trkpt>
      <trkpt lat="42.83127" lon="2.58555">
        <ele>291.6</ele>
        <time>2021-06-05T13:36:41Z</time>
      </trkpt>
      <trkpt lat="42.83133" lon="2.58549">
        <ele>292.6</ele>
        <time>2021-06-05T13:36:45Z</time>
      </trkpt>
      <trkpt lat="42.83139" lon="2.58545">
        <ele>293.6</ele>
        <time>2021-06-05T13:36:49Z</time>
      </trkpt>
      <trkpt lat="42.83145" lon="2.58539">
        <ele>294.2</ele>
        <time>2021-06-05T13:36:53Z</time>
      </trkpt>
      <trkpt lat="42.83151" lon="2.58533">
        <ele>294.8</ele>
        <time>2021-06-05T13:36:57Z</time>
      </trkpt>
      <trkpt lat="42.83156" lon="2.58528">
        <ele>295.6</ele>
        <time>2021-06-05T13:37:01Z</time>
      </trkpt>
      <trkpt lat="42.83161" lon="2.58522">
        <ele>296.6</ele>
        <time>2021-06-05T13:37:05Z</time>
      </trkpt>
      <trkpt lat="42.83166" lon="2.58518">
        <ele>297.2</ele>
        <time>2021-06-05T13:37:09Z</time>
      </trkpt>
      <trkpt lat="42.83171" lon="2.58512">
        <ele>297.6</ele>
        <time>2021-06-05T13:37:13Z</time>
      </trkpt>
      <trkpt lat="42.83176" lon="2.58508">
        <ele>298.4</ele>
        <time>2021-06-05T13:37:17Z</time>
      </trkpt>
      <trkpt lat="42.83182" lon="2.58504">
        <ele>299.4</ele>
        <time>2021-06-05T13:37:21Z</time>
      </trkpt>
      <trkpt lat="42.83187" lon="2.58499">
        <ele>300</ele>
        <time>2021-06-05T13:37:25Z</time>
      </trkpt>
      <trkpt lat="42.83187" lon="2.58498">
        <ele>300</ele>
        <time>2021-06-05T13:37:29Z</time>
      </trkpt>
      <trkpt lat="42.83197" lon="2.58487">
        <ele>302</ele>
        <time>2021-06-05T13:37:49Z</time>
      </trkpt>
      <trkpt lat="42.83201" lon="2.58481">
        <ele>303.2</ele>
        <time>2021-06-05T13:37:53Z</time>
      </trkpt>
      <trkpt lat="42.83207" lon="2.58477">
        <ele>303.4</ele>
        <time>2021-06-05T13:37:57Z</time>
      </trkpt>
      <trkpt lat="42.83211" lon="2.58472">
        <ele>303.2</ele>
        <time>2021-06-05T13:38:01Z</time>
      </trkpt>
      <trkpt lat="42.83217" lon="2.58468">
        <ele>304.6</ele>
        <time>2021-06-05T13:38:05Z</time>
      </trkpt>
      <trkpt lat="42.83223" lon="2.58466">
        <ele>305.2</ele>
        <time>2021-06-05T13:38:09Z</time>
      </trkpt>
      <trkpt lat="42.83228" lon="2.58467">
        <ele>306</ele>
        <time>2021-06-05T13:38:13Z</time>
      </trkpt>
      <trkpt lat="42.83236" lon="2.58469">
        <ele>306.4</ele>
        <time>2021-06-05T13:38:18Z</time>
      </trkpt>
      <trkpt lat="42.83241" lon="2.58472">
        <ele>306.8</ele>
        <time>2021-06-05T13:38:22Z</time>
      </trkpt>
      <trkpt lat="42.83246" lon="2.58475">
        <ele>307.4</ele>
        <time>2021-06-05T13:38:26Z</time>
      </trkpt>
      <trkpt lat="42.83251" lon="2.58478">
        <ele>307.8</ele>
        <time>2021-06-05T13:38:30Z</time>
      </trkpt>
      <trkpt lat="42.83257" lon="2.58484">
        <ele>308.6</ele>
        <time>2021-06-05T13:38:34Z</time>
      </trkpt>
      <trkpt lat="42.8326" lon="2.58491">
        <ele>309.4</ele>
        <time>2021-06-05T13:38:38Z</time>
      </trkpt>
      <trkpt lat="42.83264" lon="2.58498">
        <ele>309.6</ele>
        <time>2021-06-05T13:38:42Z</time>
      </trkpt>
      <trkpt lat="42.83268" lon="2.58506">
        <ele>310.4</ele>
        <time>2021-06-05T13:38:46Z</time>
      </trkpt>
      <trkpt lat="42.8327" lon="2.58515">
        <ele>310.6</ele>
        <time>2021-06-05T13:38:50Z</time>
      </trkpt>
      <trkpt lat="42.8327" lon="2.58523">
        <ele>310.8</ele>
        <time>2021-06-05T13:38:54Z</time>
      </trkpt>
      <trkpt lat="42.83269" lon="2.58531">
        <ele>311.2</ele>
        <time>2021-06-05T13:38:58Z</time>
      </trkpt>
      <trkpt lat="42.83266" lon="2.58541">
        <ele>312</ele>
        <time>2021-06-05T13:39:02Z</time>
      </trkpt>
      <trkpt lat="42.83262" lon="2.58551">
        <ele>312.6</ele>
        <time>2021-06-05T13:39:06Z</time>
      </trkpt>
      <trkpt lat="42.83258" lon="2.58562">
        <ele>313.2</ele>
        <time>2021-06-05T13:39:10Z</time>
      </trkpt>
      <trkpt lat="42.83254" lon="2.58573">
        <ele>314</ele>
        <time>2021-06-05T13:39:14Z</time>
      </trkpt>
      <trkpt lat="42.8325" lon="2.58582">
        <ele>314.4</ele>
        <time>2021-06-05T13:39:18Z</time>
      </trkpt>
      <trkpt lat="42.83245" lon="2.58595">
        <ele>315.2</ele>
        <time>2021-06-05T13:39:22Z</time>
      </trkpt>
      <trkpt lat="42.83241" lon="2.58607">
        <ele>315.8</ele>
        <time>2021-06-05T13:39:26Z</time>
      </trkpt>
      <trkpt lat="42.83236" lon="2.58619">
        <ele>316.4</ele>
        <time>2021-06-05T13:39:30Z</time>
      </trkpt>
      <trkpt lat="42.83231" lon="2.5863">
        <ele>317</ele>
        <time>2021-06-05T13:39:34Z</time>
      </trkpt>
      <trkpt lat="42.83225" lon="2.58643">
        <ele>318</ele>
        <time>2021-06-05T13:39:39Z</time>
      </trkpt>
      <trkpt lat="42.83221" lon="2.58653">
        <ele>318.4</ele>
        <time>2021-06-05T13:39:43Z</time>
      </trkpt>
      <trkpt lat="42.83216" lon="2.58663">
        <ele>319.4</ele>
        <time>2021-06-05T13:39:47Z</time>
      </trkpt>
      <trkpt lat="42.83211" lon="2.58674">
        <ele>320.2</ele>
        <time>2021-06-05T13:39:51Z</time>
      </trkpt>
      <trkpt lat="42.83208" lon="2.58685">
        <ele>321</ele>
        <time>2021-06-05T13:39:55Z</time>
      </trkpt>
      <trkpt lat="42.83204" lon="2.58695">
        <ele>321.6</ele>
        <time>2021-06-05T13:39:59Z</time>
      </trkpt>
      <trkpt lat="42.83203" lon="2.58708">
        <ele>322.4</ele>
        <time>2021-06-05T13:40:03Z</time>
      </trkpt>
      <trkpt lat="42.83202" lon="2.58723">
        <ele>323.6</ele>
        <time>2021-06-05T13:40:07Z</time>
      </trkpt>
      <trkpt lat="42.83202" lon="2.58738">
        <ele>323.8</ele>
        <time>2021-06-05T13:40:11Z</time>
      </trkpt>
      <trkpt lat="42.83201" lon="2.58751">
        <ele>324.6</ele>
        <time>2021-06-05T13:40:15Z</time>
      </trkpt>
      <trkpt lat="42.83201" lon="2.58765">
        <ele>325.2</ele>
        <time>2021-06-05T13:40:19Z</time>
      </trkpt>
      <trkpt lat="42.83202" lon="2.58778">
        <ele>326</ele>
        <time>2021-06-05T13:40:23Z</time>
      </trkpt>
      <trkpt lat="42.83204" lon="2.58791">
        <ele>327</ele>
        <time>2021-06-05T13:40:27Z</time>
      </trkpt>
      <trkpt lat="42.83207" lon="2.58805">
        <ele>327.2</ele>
        <time>2021-06-05T13:40:31Z</time>
      </trkpt>
      <trkpt lat="42.83211" lon="2.58818">
        <ele>327.8</ele>
        <time>2021-06-05T13:40:35Z</time>
      </trkpt>
      <trkpt lat="42.83214" lon="2.58832">
        <ele>328.4</ele>
        <time>2021-06-05T13:40:39Z</time>
      </trkpt>
      <trkpt lat="42.83217" lon="2.58846">
        <ele>329.4</ele>
        <time>2021-06-05T13:40:43Z</time>
      </trkpt>
      <trkpt lat="42.83219" lon="2.58859">
        <ele>329.8</ele>
        <time>2021-06-05T13:40:47Z</time>
      </trkpt>
      <trkpt lat="42.83221" lon="2.58872">
        <ele>330.8</ele>
        <time>2021-06-05T13:40:51Z</time>
      </trkpt>
      <trkpt lat="42.83224" lon="2.58885">
        <ele>331.6</ele>
        <time>2021-06-05T13:40:55Z</time>
      </trkpt>
      <trkpt lat="42.83233" lon="2.58897">
        <ele>332.2</ele>
        <time>2021-06-05T13:41:00Z</time>
      </trkpt>
      <trkpt lat="42.83243" lon="2.58901">
        <ele>333.2</ele>
        <time>2021-06-05T13:41:04Z</time>
      </trkpt>
      <trkpt lat="42.83252" lon="2.58902">
        <ele>334.4</ele>
        <time>2021-06-05T13:41:08Z</time>
      </trkpt>
      <trkpt lat="42.83261" lon="2.58902">
        <ele>335.4</ele>
        <time>2021-06-05T13:41:12Z</time>
      </trkpt>
      <trkpt lat="42.83269" lon="2.58904">
        <ele>336.2</ele>
        <time>2021-06-05T13:41:16Z</time>
      </trkpt>
      <trkpt lat="42.83277" lon="2.58911">
        <ele>336.6</ele>
        <time>2021-06-05T13:41:20Z</time>
      </trkpt>
      <trkpt lat="42.83281" lon="2.58923">
        <ele>337.2</ele>
        <time>2021-06-05T13:41:24Z</time>
      </trkpt>
      <trkpt lat="42.83279" lon="2.58933">
        <ele>338.4</ele>
        <time>2021-06-05T13:41:28Z</time>
      </trkpt>
      <trkpt lat="42.83274" lon="2.58943">
        <ele>339.2</ele>
        <time>2021-06-05T13:41:32Z</time>
      </trkpt>
      <trkpt lat="42.83268" lon="2.58953">
        <ele>340.2</ele>
        <time>2021-06-05T13:41:36Z</time>
      </trkpt>
      <trkpt lat="42.83264" lon="2.58964">
        <ele>340.6</ele>
        <time>2021-06-05T13:41:40Z</time>
      </trkpt>
      <trkpt lat="42.83262" lon="2.58976">
        <ele>341.6</ele>
        <time>2021-06-05T13:41:44Z</time>
      </trkpt>
      <trkpt lat="42.83262" lon="2.58987">
        <ele>342</ele>
        <time>2021-06-05T13:41:48Z</time>
      </trkpt>
      <trkpt lat="42.83262" lon="2.58999">
        <ele>342.6</ele>
        <time>2021-06-05T13:41:52Z</time>
      </trkpt>
      <trkpt lat="42.83263" lon="2.59012">
        <ele>343</ele>
        <time>2021-06-05T13:41:56Z</time>
      </trkpt>
      <trkpt lat="42.83263" lon="2.59024">
        <ele>343.6</ele>
        <time>2021-06-05T13:42:00Z</time>
      </trkpt>
      <trkpt lat="42.83263" lon="2.59035">
        <ele>344.2</ele>
        <time>2021-06-05T13:42:04Z</time>
      </trkpt>
      <trkpt lat="42.83262" lon="2.59046">
        <ele>345</ele>
        <time>2021-06-05T13:42:08Z</time>
      </trkpt>
      <trkpt lat="42.8326" lon="2.59058">
        <ele>345.6</ele>
        <time>2021-06-05T13:42:12Z</time>
      </trkpt>
      <trkpt lat="42.83256" lon="2.59073">
        <ele>347</ele>
        <time>2021-06-05T13:42:17Z</time>
      </trkpt>
      <trkpt lat="42.83251" lon="2.59083">
        <ele>347.6</ele>
        <time>2021-06-05T13:42:21Z</time>
      </trkpt>
      <trkpt lat="42.83246" lon="2.59093">
        <ele>348.2</ele>
        <time>2021-06-05T13:42:25Z</time>
      </trkpt>
      <trkpt lat="42.83241" lon="2.59105">
        <ele>348.8</ele>
        <time>2021-06-05T13:42:29Z</time>
      </trkpt>
      <trkpt lat="42.83235" lon="2.59117">
        <ele>349.4</ele>
        <time>2021-06-05T13:42:33Z</time>
      </trkpt>
      <trkpt lat="42.8323" lon="2.59128">
        <ele>350.2</ele>
        <time>2021-06-05T13:42:37Z</time>
      </trkpt>
      <trkpt lat="42.83225" lon="2.59138">
        <ele>350.8</ele>
        <time>2021-06-05T13:42:41Z</time>
      </trkpt>
      <trkpt lat="42.83222" lon="2.5915">
        <ele>351.4</ele>
        <time>2021-06-05T13:42:45Z</time>
      </trkpt>
      <trkpt lat="42.83219" lon="2.59163">
        <ele>352</ele>
        <time>2021-06-05T13:42:49Z</time>
      </trkpt>
      <trkpt lat="42.83217" lon="2.59177">
        <ele>352.6</ele>
        <time>2021-06-05T13:42:53Z</time>
      </trkpt>
      <trkpt lat="42.83216" lon="2.59192">
        <ele>353.2</ele>
        <time>2021-06-05T13:42:57Z</time>
      </trkpt>
      <trkpt lat="42.83215" lon="2.59208">
        <ele>354</ele>
        <time>2021-06-05T13:43:01Z</time>
      </trkpt>
      <trkpt lat="42.83215" lon="2.59221">
        <ele>355.2</ele>
        <time>2021-06-05T13:43:05Z</time>
      </trkpt>
      <trkpt lat="42.83215" lon="2.59234">
        <ele>355.8</ele>
        <time>2021-06-05T13:43:09Z</time>
      </trkpt>
      <trkpt lat="42.83214" lon="2.59247">
        <ele>356.6</ele>
        <time>2021-06-05T13:43:13Z</time>
      </trkpt>
      <trkpt lat="42.83214" lon="2.59259">
        <ele>357.4</ele>
        <time>2021-06-05T13:43:17Z</time>
      </trkpt>
      <trkpt lat="42.83216" lon="2.5927">
        <ele>358.2</ele>
        <time>2021-06-05T13:43:21Z</time>
      </trkpt>
      <trkpt lat="42.83217" lon="2.59282">
        <ele>358.6</ele>
        <time>2021-06-05T13:43:25Z</time>
      </trkpt>
      <trkpt lat="42.83217" lon="2.59295">
        <ele>358.8</ele>
        <time>2021-06-05T13:43:29Z</time>
      </trkpt>
      <trkpt lat="42.83214" lon="2.59308">
        <ele>359.6</ele>
        <time>2021-06-05T13:43:33Z</time>
      </trkpt>
      <trkpt lat="42.83208" lon="2.59319">
        <ele>360.6</ele>
        <time>2021-06-05T13:43:38Z</time>
      </trkpt>
      <trkpt lat="42.83201" lon="2.59329">
        <ele>361.8</ele>
        <time>2021-06-05T13:43:42Z</time>
      </trkpt>
      <trkpt lat="42.83197" lon="2.59341">
        <ele>362.4</ele>
        <time>2021-06-05T13:43:46Z</time>
      </trkpt>
      <trkpt lat="42.83195" lon="2.59354">
        <ele>363.2</ele>
        <time>2021-06-05T13:43:50Z</time>
      </trkpt>
      <trkpt lat="42.83193" lon="2.59366">
        <ele>363.8</ele>
        <time>2021-06-05T13:43:54Z</time>
      </trkpt>
      <trkpt lat="42.8319" lon="2.59378">
        <ele>364.6</ele>
        <time>2021-06-05T13:43:58Z</time>
      </trkpt>
      <trkpt lat="42.83189" lon="2.59389">
        <ele>365.6</ele>
        <time>2021-06-05T13:44:02Z</time>
      </trkpt>
      <trkpt lat="42.83187" lon="2.59401">
        <ele>366.2</ele>
        <time>2021-06-05T13:44:06Z</time>
      </trkpt>
      <trkpt lat="42.83187" lon="2.59414">
        <ele>367</ele>
        <time>2021-06-05T13:44:10Z</time>
      </trkpt>
      <trkpt lat="42.83189" lon="2.59426">
        <ele>368</ele>
        <time>2021-06-05T13:44:14Z</time>
      </trkpt>
      <trkpt lat="42.83191" lon="2.59438">
        <ele>368.6</ele>
        <time>2021-06-05T13:44:18Z</time>
      </trkpt>
      <trkpt lat="42.83194" lon="2.5945">
        <ele>369.2</ele>
        <time>2021-06-05T13:44:22Z</time>
      </trkpt>
      <trkpt lat="42.83196" lon="2.59462">
        <ele>370</ele>
        <time>2021-06-05T13:44:26Z</time>
      </trkpt>
      <trkpt lat="42.83197" lon="2.59475">
        <ele>370.8</ele>
        <time>2021-06-05T13:44:30Z</time>
      </trkpt>
      <trkpt lat="42.83197" lon="2.59489">
        <ele>371.6</ele>
        <time>2021-06-05T13:44:34Z</time>
      </trkpt>
      <trkpt lat="42.83197" lon="2.59503">
        <ele>372.4</ele>
        <time>2021-06-05T13:44:38Z</time>
      </trkpt>
      <trkpt lat="42.83195" lon="2.59517">
        <ele>373</ele>
        <time>2021-06-05T13:44:42Z</time>
      </trkpt>
      <trkpt lat="42.83192" lon="2.59531">
        <ele>373.8</ele>
        <time>2021-06-05T13:44:46Z</time>
      </trkpt>
      <trkpt lat="42.83189" lon="2.59544">
        <ele>374.6</ele>
        <time>2021-06-05T13:44:50Z</time>
      </trkpt>
      <trkpt lat="42.83186" lon="2.59557">
        <ele>375.4</ele>
        <time>2021-06-05T13:44:54Z</time>
      </trkpt>
      <trkpt lat="42.83181" lon="2.59571">
        <ele>376.2</ele>
        <time>2021-06-05T13:44:59Z</time>
      </trkpt>
      <trkpt lat="42.83178" lon="2.59583">
        <ele>377</ele>
        <time>2021-06-05T13:45:03Z</time>
      </trkpt>
      <trkpt lat="42.83174" lon="2.59596">
        <ele>377.6</ele>
        <time>2021-06-05T13:45:07Z</time>
      </trkpt>
      <trkpt lat="42.83172" lon="2.5961">
        <ele>378.4</ele>
        <time>2021-06-05T13:45:11Z</time>
      </trkpt>
      <trkpt lat="42.83173" lon="2.59624">
        <ele>379</ele>
        <time>2021-06-05T13:45:15Z</time>
      </trkpt>
      <trkpt lat="42.83175" lon="2.59635">
        <ele>379.8</ele>
        <time>2021-06-05T13:45:19Z</time>
      </trkpt>
      <trkpt lat="42.83178" lon="2.59646">
        <ele>380.4</ele>
        <time>2021-06-05T13:45:23Z</time>
      </trkpt>
      <trkpt lat="42.8318" lon="2.59659">
        <ele>381.6</ele>
        <time>2021-06-05T13:45:27Z</time>
      </trkpt>
      <trkpt lat="42.8318" lon="2.59673">
        <ele>382.4</ele>
        <time>2021-06-05T13:45:31Z</time>
      </trkpt>
      <trkpt lat="42.83178" lon="2.59687">
        <ele>383</ele>
        <time>2021-06-05T13:45:35Z</time>
      </trkpt>
      <trkpt lat="42.83173" lon="2.59699">
        <ele>384.2</ele>
        <time>2021-06-05T13:45:39Z</time>
      </trkpt>
      <trkpt lat="42.83167" lon="2.59708">
        <ele>384.6</ele>
        <time>2021-06-05T13:45:43Z</time>
      </trkpt>
      <trkpt lat="42.83162" lon="2.59719">
        <ele>385.6</ele>
        <time>2021-06-05T13:45:47Z</time>
      </trkpt>
      <trkpt lat="42.83158" lon="2.59731">
        <ele>386</ele>
        <time>2021-06-05T13:45:51Z</time>
      </trkpt>
      <trkpt lat="42.83156" lon="2.59743">
        <ele>386.8</ele>
        <time>2021-06-05T13:45:55Z</time>
      </trkpt>
      <trkpt lat="42.83154" lon="2.59755">
        <ele>387.4</ele>
        <time>2021-06-05T13:45:59Z</time>
      </trkpt>
      <trkpt lat="42.83154" lon="2.59767">
        <ele>388.2</ele>
        <time>2021-06-05T13:46:03Z</time>
      </trkpt>
      <trkpt lat="42.83154" lon="2.59779">
        <ele>388.6</ele>
        <time>2021-06-05T13:46:07Z</time>
      </trkpt>
      <trkpt lat="42.83155" lon="2.59793">
        <ele>389.2</ele>
        <time>2021-06-05T13:46:11Z</time>
      </trkpt>
      <trkpt lat="42.83158" lon="2.59805">
        <ele>390</ele>
        <time>2021-06-05T13:46:15Z</time>
      </trkpt>
      <trkpt lat="42.83163" lon="2.5982">
        <ele>390.8</ele>
        <time>2021-06-05T13:46:20Z</time>
      </trkpt>
      <trkpt lat="42.83168" lon="2.5983">
        <ele>391.4</ele>
        <time>2021-06-05T13:46:24Z</time>
      </trkpt>
      <trkpt lat="42.83174" lon="2.59839">
        <ele>392.4</ele>
        <time>2021-06-05T13:46:28Z</time>
      </trkpt>
      <trkpt lat="42.83181" lon="2.59847">
        <ele>393</ele>
        <time>2021-06-05T13:46:32Z</time>
      </trkpt>
      <trkpt lat="42.83187" lon="2.59854">
        <ele>393.6</ele>
        <time>2021-06-05T13:46:36Z</time>
      </trkpt>
      <trkpt lat="42.83195" lon="2.59861">
        <ele>394</ele>
        <time>2021-06-05T13:46:40Z</time>
      </trkpt>
      <trkpt lat="42.832" lon="2.59868">
        <ele>394.8</ele>
        <time>2021-06-05T13:46:44Z</time>
      </trkpt>
      <trkpt lat="42.83206" lon="2.59876">
        <ele>395</ele>
        <time>2021-06-05T13:46:48Z</time>
      </trkpt>
      <trkpt lat="42.83209" lon="2.59883">
        <ele>395.6</ele>
        <time>2021-06-05T13:46:52Z</time>
      </trkpt>
      <trkpt lat="42.83213" lon="2.59891">
        <ele>396.2</ele>
        <time>2021-06-05T13:46:56Z</time>
      </trkpt>
      <trkpt lat="42.83217" lon="2.59899">
        <ele>396.6</ele>
        <time>2021-06-05T13:47:00Z</time>
      </trkpt>
      <trkpt lat="42.8322" lon="2.59909">
        <ele>397.2</ele>
        <time>2021-06-05T13:47:04Z</time>
      </trkpt>
      <trkpt lat="42.83224" lon="2.59918">
        <ele>397.8</ele>
        <time>2021-06-05T13:47:08Z</time>
      </trkpt>
      <trkpt lat="42.83227" lon="2.59928">
        <ele>398.2</ele>
        <time>2021-06-05T13:47:12Z</time>
      </trkpt>
      <trkpt lat="42.8323" lon="2.59937">
        <ele>398.8</ele>
        <time>2021-06-05T13:47:16Z</time>
      </trkpt>
      <trkpt lat="42.83234" lon="2.59945">
        <ele>399</ele>
        <time>2021-06-05T13:47:20Z</time>
      </trkpt>
      <trkpt lat="42.83238" lon="2.59953">
        <ele>399.4</ele>
        <time>2021-06-05T13:47:24Z</time>
      </trkpt>
      <trkpt lat="42.83241" lon="2.59962">
        <ele>400</ele>
        <time>2021-06-05T13:47:28Z</time>
      </trkpt>
      <trkpt lat="42.83245" lon="2.59971">
        <ele>400.4</ele>
        <time>2021-06-05T13:47:32Z</time>
      </trkpt>
      <trkpt lat="42.83248" lon="2.59979">
        <ele>401</ele>
        <time>2021-06-05T13:47:36Z</time>
      </trkpt>
      <trkpt lat="42.83251" lon="2.59988">
        <ele>401.8</ele>
        <time>2021-06-05T13:47:41Z</time>
      </trkpt>
      <trkpt lat="42.83254" lon="2.59995">
        <ele>401.8</ele>
        <time>2021-06-05T13:47:45Z</time>
      </trkpt>
      <trkpt lat="42.83258" lon="2.60003">
        <ele>402.6</ele>
        <time>2021-06-05T13:47:49Z</time>
      </trkpt>
      <trkpt lat="42.83262" lon="2.60012">
        <ele>403</ele>
        <time>2021-06-05T13:47:53Z</time>
      </trkpt>
      <trkpt lat="42.83266" lon="2.6002">
        <ele>403.4</ele>
        <time>2021-06-05T13:47:57Z</time>
      </trkpt>
      <trkpt lat="42.83269" lon="2.60028">
        <ele>404</ele>
        <time>2021-06-05T13:48:01Z</time>
      </trkpt>
      <trkpt lat="42.83274" lon="2.60035">
        <ele>404.4</ele>
        <time>2021-06-05T13:48:05Z</time>
      </trkpt>
      <trkpt lat="42.83278" lon="2.60043">
        <ele>405</ele>
        <time>2021-06-05T13:48:09Z</time>
      </trkpt>
      <trkpt lat="42.83283" lon="2.6005">
        <ele>405.2</ele>
        <time>2021-06-05T13:48:13Z</time>
      </trkpt>
      <trkpt lat="42.83287" lon="2.6006">
        <ele>405.6</ele>
        <time>2021-06-05T13:48:17Z</time>
      </trkpt>
      <trkpt lat="42.83293" lon="2.60069">
        <ele>406</ele>
        <time>2021-06-05T13:48:21Z</time>
      </trkpt>
      <trkpt lat="42.83297" lon="2.60077">
        <ele>406.2</ele>
        <time>2021-06-05T13:48:25Z</time>
      </trkpt>
      <trkpt lat="42.83302" lon="2.60086">
        <ele>406.4</ele>
        <time>2021-06-05T13:48:29Z</time>
      </trkpt>
      <trkpt lat="42.83307" lon="2.60095">
        <ele>406.6</ele>
        <time>2021-06-05T13:48:33Z</time>
      </trkpt>
      <trkpt lat="42.83312" lon="2.60103">
        <ele>407</ele>
        <time>2021-06-05T13:48:37Z</time>
      </trkpt>
      <trkpt lat="42.83317" lon="2.60111">
        <ele>407.6</ele>
        <time>2021-06-05T13:48:41Z</time>
      </trkpt>
      <trkpt lat="42.83322" lon="2.60118">
        <ele>407.8</ele>
        <time>2021-06-05T13:48:45Z</time>
      </trkpt>
      <trkpt lat="42.83327" lon="2.60125">
        <ele>408.2</ele>
        <time>2021-06-05T13:48:49Z</time>
      </trkpt>
      <trkpt lat="42.83331" lon="2.60132">
        <ele>408.8</ele>
        <time>2021-06-05T13:48:53Z</time>
      </trkpt>
      <trkpt lat="42.83334" lon="2.60143">
        <ele>409.4</ele>
        <time>2021-06-05T13:48:58Z</time>
      </trkpt>
      <trkpt lat="42.83336" lon="2.60151">
        <ele>409.8</ele>
        <time>2021-06-05T13:49:02Z</time>
      </trkpt>
      <trkpt lat="42.83338" lon="2.60161">
        <ele>410.6</ele>
        <time>2021-06-05T13:49:06Z</time>
      </trkpt>
      <trkpt lat="42.8334" lon="2.60171">
        <ele>410.8</ele>
        <time>2021-06-05T13:49:10Z</time>
      </trkpt>
      <trkpt lat="42.83342" lon="2.60181">
        <ele>411.2</ele>
        <time>2021-06-05T13:49:14Z</time>
      </trkpt>
      <trkpt lat="42.83343" lon="2.6019">
        <ele>411.8</ele>
        <time>2021-06-05T13:49:18Z</time>
      </trkpt>
      <trkpt lat="42.83345" lon="2.602">
        <ele>412</ele>
        <time>2021-06-05T13:49:22Z</time>
      </trkpt>
      <trkpt lat="42.83345" lon="2.6021">
        <ele>412.2</ele>
        <time>2021-06-05T13:49:26Z</time>
      </trkpt>
      <trkpt lat="42.83347" lon="2.60219">
        <ele>413</ele>
        <time>2021-06-05T13:49:30Z</time>
      </trkpt>
      <trkpt lat="42.83348" lon="2.60228">
        <ele>413.4</ele>
        <time>2021-06-05T13:49:34Z</time>
      </trkpt>
      <trkpt lat="42.83349" lon="2.60238">
        <ele>414</ele>
        <time>2021-06-05T13:49:38Z</time>
      </trkpt>
      <trkpt lat="42.8335" lon="2.60248">
        <ele>414.2</ele>
        <time>2021-06-05T13:49:42Z</time>
      </trkpt>
      <trkpt lat="42.8335" lon="2.60253">
        <ele>414.6</ele>
        <time>2021-06-05T13:49:46Z</time>
      </trkpt>
      <trkpt lat="42.83351" lon="2.60254">
        <ele>414.6</ele>
        <time>2021-06-05T13:49:50Z</time>
      </trkpt>
      <trkpt lat="42.83353" lon="2.60278">
        <ele>416.6</ele>
        <time>2021-06-05T13:51:05Z</time>
      </trkpt>
      <trkpt lat="42.83353" lon="2.60288">
        <ele>417.2</ele>
        <time>2021-06-05T13:51:09Z</time>
      </trkpt>
      <trkpt lat="42.83354" lon="2.60299">
        <ele>417.6</ele>
        <time>2021-06-05T13:51:13Z</time>
      </trkpt>
      <trkpt lat="42.83354" lon="2.60311">
        <ele>418.2</ele>
        <time>2021-06-05T13:51:17Z</time>
      </trkpt>
      <trkpt lat="42.83354" lon="2.60322">
        <ele>418.8</ele>
        <time>2021-06-05T13:51:21Z</time>
      </trkpt>
      <trkpt lat="42.83355" lon="2.60333">
        <ele>419.6</ele>
        <time>2021-06-05T13:51:25Z</time>
      </trkpt>
      <trkpt lat="42.83357" lon="2.60346">
        <ele>420.4</ele>
        <time>2021-06-05T13:51:30Z</time>
      </trkpt>
      <trkpt lat="42.83357" lon="2.60356">
        <ele>421.2</ele>
        <time>2021-06-05T13:51:34Z</time>
      </trkpt>
      <trkpt lat="42.83359" lon="2.60367">
        <ele>421.8</ele>
        <time>2021-06-05T13:51:38Z</time>
      </trkpt>
      <trkpt lat="42.83361" lon="2.60377">
        <ele>422.2</ele>
        <time>2021-06-05T13:51:42Z</time>
      </trkpt>
      <trkpt lat="42.83362" lon="2.60387">
        <ele>422.8</ele>
        <time>2021-06-05T13:51:46Z</time>
      </trkpt>
      <trkpt lat="42.83362" lon="2.60399">
        <ele>423.4</ele>
        <time>2021-06-05T13:51:50Z</time>
      </trkpt>
      <trkpt lat="42.83362" lon="2.60412">
        <ele>423.8</ele>
        <time>2021-06-05T13:51:54Z</time>
      </trkpt>
      <trkpt lat="42.83363" lon="2.60424">
        <ele>424.4</ele>
        <time>2021-06-05T13:51:58Z</time>
      </trkpt>
      <trkpt lat="42.83363" lon="2.60437">
        <ele>424.8</ele>
        <time>2021-06-05T13:52:02Z</time>
      </trkpt>
      <trkpt lat="42.83363" lon="2.6045">
        <ele>425</ele>
        <time>2021-06-05T13:52:06Z</time>
      </trkpt>
      <trkpt lat="42.83363" lon="2.60462">
        <ele>425.4</ele>
        <time>2021-06-05T13:52:10Z</time>
      </trkpt>
      <trkpt lat="42.83363" lon="2.60472">
        <ele>426.2</ele>
        <time>2021-06-05T13:52:14Z</time>
      </trkpt>
      <trkpt lat="42.83364" lon="2.60482">
        <ele>426.4</ele>
        <time>2021-06-05T13:52:18Z</time>
      </trkpt>
      <trkpt lat="42.83364" lon="2.60492">
        <ele>426.8</ele>
        <time>2021-06-05T13:52:22Z</time>
      </trkpt>
      <trkpt lat="42.83366" lon="2.60502">
        <ele>427.6</ele>
        <time>2021-06-05T13:52:26Z</time>
      </trkpt>
      <trkpt lat="42.83369" lon="2.60513">
        <ele>428</ele>
        <time>2021-06-05T13:52:30Z</time>
      </trkpt>
      <trkpt lat="42.83371" lon="2.60525">
        <ele>428.4</ele>
        <time>2021-06-05T13:52:34Z</time>
      </trkpt>
      <trkpt lat="42.83373" lon="2.60537">
        <ele>429.2</ele>
        <time>2021-06-05T13:52:38Z</time>
      </trkpt>
      <trkpt lat="42.83374" lon="2.60548">
        <ele>429.8</ele>
        <time>2021-06-05T13:52:42Z</time>
      </trkpt>
      <trkpt lat="42.83375" lon="2.60559">
        <ele>430.2</ele>
        <time>2021-06-05T13:52:46Z</time>
      </trkpt>
      <trkpt lat="42.83377" lon="2.60574">
        <ele>431</ele>
        <time>2021-06-05T13:52:51Z</time>
      </trkpt>
      <trkpt lat="42.83378" lon="2.60586">
        <ele>431.8</ele>
        <time>2021-06-05T13:52:55Z</time>
      </trkpt>
      <trkpt lat="42.8338" lon="2.60598">
        <ele>432.2</ele>
        <time>2021-06-05T13:52:59Z</time>
      </trkpt>
      <trkpt lat="42.83381" lon="2.6061">
        <ele>432.8</ele>
        <time>2021-06-05T13:53:03Z</time>
      </trkpt>
      <trkpt lat="42.83381" lon="2.60623">
        <ele>433.2</ele>
        <time>2021-06-05T13:53:07Z</time>
      </trkpt>
      <trkpt lat="42.83381" lon="2.60636">
        <ele>433.6</ele>
        <time>2021-06-05T13:53:11Z</time>
      </trkpt>
      <trkpt lat="42.83381" lon="2.60649">
        <ele>434.2</ele>
        <time>2021-06-05T13:53:15Z</time>
      </trkpt>
      <trkpt lat="42.8338" lon="2.60661">
        <ele>434.6</ele>
        <time>2021-06-05T13:53:19Z</time>
      </trkpt>
      <trkpt lat="42.8338" lon="2.60673">
        <ele>435.6</ele>
        <time>2021-06-05T13:53:23Z</time>
      </trkpt>
      <trkpt lat="42.83379" lon="2.60682">
        <ele>436.8</ele>
        <time>2021-06-05T13:53:27Z</time>
      </trkpt>
      <trkpt lat="42.83379" lon="2.60685">
        <ele>437.6</ele>
        <time>2021-06-05T13:53:31Z</time>
      </trkpt>
      <trkpt lat="42.83379" lon="2.60685">
        <ele>436.4</ele>
        <time>2021-06-05T13:53:35Z</time>
      </trkpt>
      <trkpt lat="42.83392" lon="2.60709">
        <ele>437.6</ele>
        <time>2021-06-05T13:54:02Z</time>
      </trkpt>
      <trkpt lat="42.83398" lon="2.60716">
        <ele>438</ele>
        <time>2021-06-05T13:54:06Z</time>
      </trkpt>
      <trkpt lat="42.83404" lon="2.60722">
        <ele>438.6</ele>
        <time>2021-06-05T13:54:10Z</time>
      </trkpt>
      <trkpt lat="42.8341" lon="2.60729">
        <ele>439</ele>
        <time>2021-06-05T13:54:14Z</time>
      </trkpt>
      <trkpt lat="42.83418" lon="2.60736">
        <ele>439.4</ele>
        <time>2021-06-05T13:54:18Z</time>
      </trkpt>
      <trkpt lat="42.83426" lon="2.60744">
        <ele>439.6</ele>
        <time>2021-06-05T13:54:22Z</time>
      </trkpt>
      <trkpt lat="42.83435" lon="2.60752">
        <ele>440</ele>
        <time>2021-06-05T13:54:26Z</time>
      </trkpt>
      <trkpt lat="42.83444" lon="2.60759">
        <ele>440.4</ele>
        <time>2021-06-05T13:54:30Z</time>
      </trkpt>
      <trkpt lat="42.8346" lon="2.60762">
        <ele>440.6</ele>
        <time>2021-06-05T13:54:35Z</time>
      </trkpt>
      <trkpt lat="42.83474" lon="2.6076">
        <ele>440.8</ele>
        <time>2021-06-05T13:54:39Z</time>
      </trkpt>
      <trkpt lat="42.83488" lon="2.60757">
        <ele>441</ele>
        <time>2021-06-05T13:54:43Z</time>
      </trkpt>
      <trkpt lat="42.83504" lon="2.60753">
        <ele>440.8</ele>
        <time>2021-06-05T13:54:47Z</time>
      </trkpt>
      <trkpt lat="42.8352" lon="2.60749">
        <ele>440.6</ele>
        <time>2021-06-05T13:54:51Z</time>
      </trkpt>
      <trkpt lat="42.83536" lon="2.60744">
        <ele>440.2</ele>
        <time>2021-06-05T13:54:55Z</time>
      </trkpt>
      <trkpt lat="42.83552" lon="2.60746">
        <ele>440.6</ele>
        <time>2021-06-05T13:54:59Z</time>
      </trkpt>
      <trkpt lat="42.83567" lon="2.60751">
        <ele>441</ele>
        <time>2021-06-05T13:55:03Z</time>
      </trkpt>
      <trkpt lat="42.8358" lon="2.60758">
        <ele>441.2</ele>
        <time>2021-06-05T13:55:07Z</time>
      </trkpt>
      <trkpt lat="42.83593" lon="2.60762">
        <ele>441.2</ele>
        <time>2021-06-05T13:55:11Z</time>
      </trkpt>
      <trkpt lat="42.83599" lon="2.60763">
        <ele>441.6</ele>
        <time>2021-06-05T13:55:15Z</time>
      </trkpt>
      <trkpt lat="42.836" lon="2.60764">
        <ele>441.4</ele>
        <time>2021-06-05T13:55:19Z</time>
      </trkpt>
      <trkpt lat="42.83617" lon="2.60768">
        <ele>441.6</ele>
        <time>2021-06-05T13:55:44Z</time>
      </trkpt>
      <trkpt lat="42.83626" lon="2.60772">
        <ele>442.2</ele>
        <time>2021-06-05T13:55:48Z</time>
      </trkpt>
      <trkpt lat="42.83635" lon="2.60778">
        <ele>442.4</ele>
        <time>2021-06-05T13:55:52Z</time>
      </trkpt>
      <trkpt lat="42.83644" lon="2.60784">
        <ele>443.2</ele>
        <time>2021-06-05T13:55:56Z</time>
      </trkpt>
      <trkpt lat="42.83652" lon="2.60789">
        <ele>443.6</ele>
        <time>2021-06-05T13:56:00Z</time>
      </trkpt>
      <trkpt lat="42.83661" lon="2.60794">
        <ele>444</ele>
        <time>2021-06-05T13:56:04Z</time>
      </trkpt>
      <trkpt lat="42.8367" lon="2.60798">
        <ele>444.8</ele>
        <time>2021-06-05T13:56:08Z</time>
      </trkpt>
      <trkpt lat="42.83679" lon="2.60802">
        <ele>445.2</ele>
        <time>2021-06-05T13:56:12Z</time>
      </trkpt>
      <trkpt lat="42.83691" lon="2.60808">
        <ele>445.2</ele>
        <time>2021-06-05T13:56:17Z</time>
      </trkpt>
      <trkpt lat="42.83699" lon="2.60818">
        <ele>445.2</ele>
        <time>2021-06-05T13:56:21Z</time>
      </trkpt>
      <trkpt lat="42.83706" lon="2.60829">
        <ele>445.2</ele>
        <time>2021-06-05T13:56:25Z</time>
      </trkpt>
      <trkpt lat="42.83709" lon="2.60845">
        <ele>445.4</ele>
        <time>2021-06-05T13:56:29Z</time>
      </trkpt>
      <trkpt lat="42.83709" lon="2.60864">
        <ele>445.2</ele>
        <time>2021-06-05T13:56:33Z</time>
      </trkpt>
      <trkpt lat="42.8371" lon="2.60881">
        <ele>446.2</ele>
        <time>2021-06-05T13:56:37Z</time>
      </trkpt>
      <trkpt lat="42.83712" lon="2.60892">
        <ele>446.8</ele>
        <time>2021-06-05T13:56:41Z</time>
      </trkpt>
      <trkpt lat="42.83714" lon="2.609">
        <ele>447.6</ele>
        <time>2021-06-05T13:56:45Z</time>
      </trkpt>
      <trkpt lat="42.83715" lon="2.60907">
        <ele>448.2</ele>
        <time>2021-06-05T13:56:49Z</time>
      </trkpt>
      <trkpt lat="42.83716" lon="2.60914">
        <ele>448.6</ele>
        <time>2021-06-05T13:56:53Z</time>
      </trkpt>
      <trkpt lat="42.83711" lon="2.60917">
        <ele>448.6</ele>
        <time>2021-06-05T13:56:57Z</time>
      </trkpt>
      <trkpt lat="42.83707" lon="2.60917">
        <ele>449.2</ele>
        <time>2021-06-05T13:57:01Z</time>
      </trkpt>
      <trkpt lat="42.83707" lon="2.60918">
        <ele>449.2</ele>
        <time>2021-06-05T13:57:05Z</time>
      </trkpt>
      <trkpt lat="42.83721" lon="2.60925">
        <ele>454.2</ele>
        <time>2021-06-05T14:02:56Z</time>
      </trkpt>
      <trkpt lat="42.8372" lon="2.6093">
        <ele>454.8</ele>
        <time>2021-06-05T14:03:00Z</time>
      </trkpt>
      <trkpt lat="42.83722" lon="2.60936">
        <ele>455.4</ele>
        <time>2021-06-05T14:03:04Z</time>
      </trkpt>
      <trkpt lat="42.83723" lon="2.60942">
        <ele>456.4</ele>
        <time>2021-06-05T14:03:08Z</time>
      </trkpt>
      <trkpt lat="42.83724" lon="2.60948">
        <ele>456.6</ele>
        <time>2021-06-05T14:03:12Z</time>
      </trkpt>
      <trkpt lat="42.83727" lon="2.60953">
        <ele>457.6</ele>
        <time>2021-06-05T14:03:16Z</time>
      </trkpt>
      <trkpt lat="42.83727" lon="2.60961">
        <ele>458</ele>
        <time>2021-06-05T14:03:21Z</time>
      </trkpt>
      <trkpt lat="42.83728" lon="2.60967">
        <ele>459</ele>
        <time>2021-06-05T14:03:25Z</time>
      </trkpt>
      <trkpt lat="42.83729" lon="2.60974">
        <ele>460</ele>
        <time>2021-06-05T14:03:29Z</time>
      </trkpt>
      <trkpt lat="42.83732" lon="2.60979">
        <ele>460.6</ele>
        <time>2021-06-05T14:03:33Z</time>
      </trkpt>
      <trkpt lat="42.83733" lon="2.60985">
        <ele>461.4</ele>
        <time>2021-06-05T14:03:37Z</time>
      </trkpt>
      <trkpt lat="42.83735" lon="2.6099">
        <ele>461.8</ele>
        <time>2021-06-05T14:03:41Z</time>
      </trkpt>
      <trkpt lat="42.83736" lon="2.60996">
        <ele>462.6</ele>
        <time>2021-06-05T14:03:45Z</time>
      </trkpt>
      <trkpt lat="42.83735" lon="2.61003">
        <ele>463.2</ele>
        <time>2021-06-05T14:03:49Z</time>
      </trkpt>
      <trkpt lat="42.83731" lon="2.61006">
        <ele>463.4</ele>
        <time>2021-06-05T14:03:53Z</time>
      </trkpt>
      <trkpt lat="42.83725" lon="2.61005">
        <ele>464</ele>
        <time>2021-06-05T14:03:57Z</time>
      </trkpt>
      <trkpt lat="42.8372" lon="2.61002">
        <ele>464.4</ele>
        <time>2021-06-05T14:04:01Z</time>
      </trkpt>
      <trkpt lat="42.83716" lon="2.60999">
        <ele>464.6</ele>
        <time>2021-06-05T14:04:05Z</time>
      </trkpt>
      <trkpt lat="42.83712" lon="2.60996">
        <ele>464.8</ele>
        <time>2021-06-05T14:04:09Z</time>
      </trkpt>
      <trkpt lat="42.83707" lon="2.60996">
        <ele>465.2</ele>
        <time>2021-06-05T14:04:13Z</time>
      </trkpt>
      <trkpt lat="42.83702" lon="2.60994">
        <ele>465.6</ele>
        <time>2021-06-05T14:04:17Z</time>
      </trkpt>
      <trkpt lat="42.83697" lon="2.60992">
        <ele>466</ele>
        <time>2021-06-05T14:04:21Z</time>
      </trkpt>
      <trkpt lat="42.83693" lon="2.60989">
        <ele>466.6</ele>
        <time>2021-06-05T14:04:25Z</time>
      </trkpt>
      <trkpt lat="42.83688" lon="2.60987">
        <ele>467.4</ele>
        <time>2021-06-05T14:04:29Z</time>
      </trkpt>
      <trkpt lat="42.83683" lon="2.60984">
        <ele>467.8</ele>
        <time>2021-06-05T14:04:33Z</time>
      </trkpt>
      <trkpt lat="42.83679" lon="2.60982">
        <ele>468.4</ele>
        <time>2021-06-05T14:04:37Z</time>
      </trkpt>
      <trkpt lat="42.83673" lon="2.60982">
        <ele>469.4</ele>
        <time>2021-06-05T14:04:42Z</time>
      </trkpt>
      <trkpt lat="42.83669" lon="2.60988">
        <ele>470</ele>
        <time>2021-06-05T14:04:46Z</time>
      </trkpt>
      <trkpt lat="42.8367" lon="2.60994">
        <ele>470.8</ele>
        <time>2021-06-05T14:04:50Z</time>
      </trkpt>
      <trkpt lat="42.83674" lon="2.60999">
        <ele>471.2</ele>
        <time>2021-06-05T14:04:54Z</time>
      </trkpt>
      <trkpt lat="42.83677" lon="2.61003">
        <ele>472</ele>
        <time>2021-06-05T14:04:58Z</time>
      </trkpt>
      <trkpt lat="42.8368" lon="2.61009">
        <ele>472.8</ele>
        <time>2021-06-05T14:05:02Z</time>
      </trkpt>
      <trkpt lat="42.83683" lon="2.61014">
        <ele>473.8</ele>
        <time>2021-06-05T14:05:06Z</time>
      </trkpt>
      <trkpt lat="42.83686" lon="2.6102">
        <ele>474.4</ele>
        <time>2021-06-05T14:05:10Z</time>
      </trkpt>
      <trkpt lat="42.83688" lon="2.61026">
        <ele>475.2</ele>
        <time>2021-06-05T14:05:14Z</time>
      </trkpt>
      <trkpt lat="42.8369" lon="2.61031">
        <ele>476.4</ele>
        <time>2021-06-05T14:05:18Z</time>
      </trkpt>
      <trkpt lat="42.83691" lon="2.61038">
        <ele>477.2</ele>
        <time>2021-06-05T14:05:22Z</time>
      </trkpt>
      <trkpt lat="42.83691" lon="2.61045">
        <ele>478.4</ele>
        <time>2021-06-05T14:05:26Z</time>
      </trkpt>
      <trkpt lat="42.83691" lon="2.61051">
        <ele>479.2</ele>
        <time>2021-06-05T14:05:30Z</time>
      </trkpt>
      <trkpt lat="42.83692" lon="2.61058">
        <ele>479.8</ele>
        <time>2021-06-05T14:05:34Z</time>
      </trkpt>
      <trkpt lat="42.83693" lon="2.61064">
        <ele>481</ele>
        <time>2021-06-05T14:05:38Z</time>
      </trkpt>
      <trkpt lat="42.83694" lon="2.6107">
        <ele>481.8</ele>
        <time>2021-06-05T14:05:42Z</time>
      </trkpt>
      <trkpt lat="42.83696" lon="2.61077">
        <ele>482.6</ele>
        <time>2021-06-05T14:05:46Z</time>
      </trkpt>
      <trkpt lat="42.83697" lon="2.61083">
        <ele>483.6</ele>
        <time>2021-06-05T14:05:50Z</time>
      </trkpt>
      <trkpt lat="42.83699" lon="2.61089">
        <ele>484.6</ele>
        <time>2021-06-05T14:05:54Z</time>
      </trkpt>
      <trkpt lat="42.83701" lon="2.61096">
        <ele>484.8</ele>
        <time>2021-06-05T14:05:58Z</time>
      </trkpt>
      <trkpt lat="42.83704" lon="2.61103">
        <ele>486.2</ele>
        <time>2021-06-05T14:06:03Z</time>
      </trkpt>
      <trkpt lat="42.83706" lon="2.61109">
        <ele>487.2</ele>
        <time>2021-06-05T14:06:07Z</time>
      </trkpt>
      <trkpt lat="42.83706" lon="2.61115">
        <ele>488</ele>
        <time>2021-06-05T14:06:11Z</time>
      </trkpt>
      <trkpt lat="42.83706" lon="2.61121">
        <ele>489.2</ele>
        <time>2021-06-05T14:06:15Z</time>
      </trkpt>
      <trkpt lat="42.83708" lon="2.61127">
        <ele>489.4</ele>
        <time>2021-06-05T14:06:19Z</time>
      </trkpt>
      <trkpt lat="42.83708" lon="2.61134">
        <ele>489.8</ele>
        <time>2021-06-05T14:06:23Z</time>
      </trkpt>
      <trkpt lat="42.83708" lon="2.61141">
        <ele>489.6</ele>
        <time>2021-06-05T14:06:27Z</time>
      </trkpt>
      <trkpt lat="42.83707" lon="2.61147">
        <ele>490.6</ele>
        <time>2021-06-05T14:06:31Z</time>
      </trkpt>
      <trkpt lat="42.83708" lon="2.61154">
        <ele>491</ele>
        <time>2021-06-05T14:06:35Z</time>
      </trkpt>
      <trkpt lat="42.83708" lon="2.6116">
        <ele>491.6</ele>
        <time>2021-06-05T14:06:39Z</time>
      </trkpt>
      <trkpt lat="42.83709" lon="2.61166">
        <ele>492.6</ele>
        <time>2021-06-05T14:06:43Z</time>
      </trkpt>
      <trkpt lat="42.8371" lon="2.61173">
        <ele>493.2</ele>
        <time>2021-06-05T14:06:47Z</time>
      </trkpt>
      <trkpt lat="42.83712" lon="2.61181">
        <ele>494.2</ele>
        <time>2021-06-05T14:06:51Z</time>
      </trkpt>
      <trkpt lat="42.83712" lon="2.61189">
        <ele>495.2</ele>
        <time>2021-06-05T14:06:55Z</time>
      </trkpt>
      <trkpt lat="42.83713" lon="2.61198">
        <ele>496.6</ele>
        <time>2021-06-05T14:06:59Z</time>
      </trkpt>
      <trkpt lat="42.83715" lon="2.61205">
        <ele>497.6</ele>
        <time>2021-06-05T14:07:03Z</time>
      </trkpt>
      <trkpt lat="42.83715" lon="2.61212">
        <ele>498.2</ele>
        <time>2021-06-05T14:07:07Z</time>
      </trkpt>
      <trkpt lat="42.83716" lon="2.61219">
        <ele>498.8</ele>
        <time>2021-06-05T14:07:11Z</time>
      </trkpt>
      <trkpt lat="42.83715" lon="2.61226">
        <ele>499.2</ele>
        <time>2021-06-05T14:07:15Z</time>
      </trkpt>
      <trkpt lat="42.83714" lon="2.61233">
        <ele>499.8</ele>
        <time>2021-06-05T14:07:19Z</time>
      </trkpt>
      <trkpt lat="42.83711" lon="2.61241">
        <ele>500.4</ele>
        <time>2021-06-05T14:07:24Z</time>
      </trkpt>
      <trkpt lat="42.83709" lon="2.61248">
        <ele>501</ele>
        <time>2021-06-05T14:07:28Z</time>
      </trkpt>
      <trkpt lat="42.83707" lon="2.61255">
        <ele>501.6</ele>
        <time>2021-06-05T14:07:32Z</time>
      </trkpt>
      <trkpt lat="42.83706" lon="2.61262">
        <ele>502</ele>
        <time>2021-06-05T14:07:36Z</time>
      </trkpt>
      <trkpt lat="42.83703" lon="2.6127">
        <ele>502.2</ele>
        <time>2021-06-05T14:07:40Z</time>
      </trkpt>
      <trkpt lat="42.83701" lon="2.61279">
        <ele>502.6</ele>
        <time>2021-06-05T14:07:44Z</time>
      </trkpt>
      <trkpt lat="42.83698" lon="2.61288">
        <ele>503</ele>
        <time>2021-06-05T14:07:48Z</time>
      </trkpt>
      <trkpt lat="42.83694" lon="2.61296">
        <ele>504</ele>
        <time>2021-06-05T14:07:52Z</time>
      </trkpt>
      <trkpt lat="42.83691" lon="2.61304">
        <ele>504.4</ele>
        <time>2021-06-05T14:07:56Z</time>
      </trkpt>
      <trkpt lat="42.83691" lon="2.61312">
        <ele>505</ele>
        <time>2021-06-05T14:08:00Z</time>
      </trkpt>
      <trkpt lat="42.8369" lon="2.6132">
        <ele>505.4</ele>
        <time>2021-06-05T14:08:04Z</time>
      </trkpt>
      <trkpt lat="42.8369" lon="2.61328">
        <ele>506</ele>
        <time>2021-06-05T14:08:08Z</time>
      </trkpt>
      <trkpt lat="42.8369" lon="2.61336">
        <ele>506.8</ele>
        <time>2021-06-05T14:08:12Z</time>
      </trkpt>
      <trkpt lat="42.8369" lon="2.61344">
        <ele>507.6</ele>
        <time>2021-06-05T14:08:16Z</time>
      </trkpt>
      <trkpt lat="42.83691" lon="2.61351">
        <ele>508</ele>
        <time>2021-06-05T14:08:20Z</time>
      </trkpt>
      <trkpt lat="42.83691" lon="2.61359">
        <ele>509</ele>
        <time>2021-06-05T14:08:24Z</time>
      </trkpt>
      <trkpt lat="42.83692" lon="2.61366">
        <ele>510</ele>
        <time>2021-06-05T14:08:28Z</time>
      </trkpt>
      <trkpt lat="42.83692" lon="2.61374">
        <ele>510.6</ele>
        <time>2021-06-05T14:08:32Z</time>
      </trkpt>
      <trkpt lat="42.83693" lon="2.61381">
        <ele>511.2</ele>
        <time>2021-06-05T14:08:36Z</time>
      </trkpt>
      <trkpt lat="42.83693" lon="2.61388">
        <ele>512</ele>
        <time>2021-06-05T14:08:40Z</time>
      </trkpt>
      <trkpt lat="42.83695" lon="2.61397">
        <ele>512.8</ele>
        <time>2021-06-05T14:08:45Z</time>
      </trkpt>
      <trkpt lat="42.83696" lon="2.61404">
        <ele>514</ele>
        <time>2021-06-05T14:08:49Z</time>
      </trkpt>
      <trkpt lat="42.83698" lon="2.61411">
        <ele>515</ele>
        <time>2021-06-05T14:08:53Z</time>
      </trkpt>
      <trkpt lat="42.83699" lon="2.61418">
        <ele>516.2</ele>
        <time>2021-06-05T14:08:57Z</time>
      </trkpt>
      <trkpt lat="42.837" lon="2.61425">
        <ele>517</ele>
        <time>2021-06-05T14:09:01Z</time>
      </trkpt>
      <trkpt lat="42.837" lon="2.61432">
        <ele>517.6</ele>
        <time>2021-06-05T14:09:05Z</time>
      </trkpt>
      <trkpt lat="42.83698" lon="2.61439">
        <ele>518.2</ele>
        <time>2021-06-05T14:09:09Z</time>
      </trkpt>
      <trkpt lat="42.83697" lon="2.61445">
        <ele>519.2</ele>
        <time>2021-06-05T14:09:13Z</time>
      </trkpt>
      <trkpt lat="42.83695" lon="2.61452">
        <ele>520</ele>
        <time>2021-06-05T14:09:17Z</time>
      </trkpt>
      <trkpt lat="42.83694" lon="2.61458">
        <ele>520.8</ele>
        <time>2021-06-05T14:09:21Z</time>
      </trkpt>
      <trkpt lat="42.83693" lon="2.61465">
        <ele>521.8</ele>
        <time>2021-06-05T14:09:25Z</time>
      </trkpt>
      <trkpt lat="42.83693" lon="2.61471">
        <ele>522.6</ele>
        <time>2021-06-05T14:09:29Z</time>
      </trkpt>
      <trkpt lat="42.83691" lon="2.61478">
        <ele>523.8</ele>
        <time>2021-06-05T14:09:33Z</time>
      </trkpt>
      <trkpt lat="42.8369" lon="2.61484">
        <ele>525</ele>
        <time>2021-06-05T14:09:37Z</time>
      </trkpt>
      <trkpt lat="42.83689" lon="2.61491">
        <ele>526</ele>
        <time>2021-06-05T14:09:41Z</time>
      </trkpt>
      <trkpt lat="42.83686" lon="2.61497">
        <ele>527.2</ele>
        <time>2021-06-05T14:09:45Z</time>
      </trkpt>
      <trkpt lat="42.83686" lon="2.61504">
        <ele>528.2</ele>
        <time>2021-06-05T14:09:49Z</time>
      </trkpt>
      <trkpt lat="42.83685" lon="2.6151">
        <ele>529.2</ele>
        <time>2021-06-05T14:09:53Z</time>
      </trkpt>
      <trkpt lat="42.83686" lon="2.61516">
        <ele>530.4</ele>
        <time>2021-06-05T14:09:57Z</time>
      </trkpt>
      <trkpt lat="42.83689" lon="2.61524">
        <ele>531.2</ele>
        <time>2021-06-05T14:10:02Z</time>
      </trkpt>
      <trkpt lat="42.83693" lon="2.61529">
        <ele>531.8</ele>
        <time>2021-06-05T14:10:06Z</time>
      </trkpt>
      <trkpt lat="42.83696" lon="2.61534">
        <ele>533.2</ele>
        <time>2021-06-05T14:10:10Z</time>
      </trkpt>
      <trkpt lat="42.83701" lon="2.61536">
        <ele>533.6</ele>
        <time>2021-06-05T14:10:14Z</time>
      </trkpt>
      <trkpt lat="42.83706" lon="2.61538">
        <ele>534.6</ele>
        <time>2021-06-05T14:10:18Z</time>
      </trkpt>
      <trkpt lat="42.83711" lon="2.61541">
        <ele>535.2</ele>
        <time>2021-06-05T14:10:22Z</time>
      </trkpt>
      <trkpt lat="42.83716" lon="2.61543">
        <ele>536.4</ele>
        <time>2021-06-05T14:10:26Z</time>
      </trkpt>
      <trkpt lat="42.83721" lon="2.61547">
        <ele>537.8</ele>
        <time>2021-06-05T14:10:30Z</time>
      </trkpt>
      <trkpt lat="42.83725" lon="2.61551">
        <ele>538.4</ele>
        <time>2021-06-05T14:10:34Z</time>
      </trkpt>
      <trkpt lat="42.83729" lon="2.61556">
        <ele>539.2</ele>
        <time>2021-06-05T14:10:38Z</time>
      </trkpt>
      <trkpt lat="42.83731" lon="2.61562">
        <ele>540</ele>
        <time>2021-06-05T14:10:42Z</time>
      </trkpt>
      <trkpt lat="42.83734" lon="2.61568">
        <ele>540.6</ele>
        <time>2021-06-05T14:10:46Z</time>
      </trkpt>
      <trkpt lat="42.83736" lon="2.61575">
        <ele>541.2</ele>
        <time>2021-06-05T14:10:50Z</time>
      </trkpt>
      <trkpt lat="42.83737" lon="2.61582">
        <ele>541.4</ele>
        <time>2021-06-05T14:10:54Z</time>
      </trkpt>
      <trkpt lat="42.83738" lon="2.61589">
        <ele>542.4</ele>
        <time>2021-06-05T14:10:58Z</time>
      </trkpt>
      <trkpt lat="42.83739" lon="2.61596">
        <ele>543.4</ele>
        <time>2021-06-05T14:11:02Z</time>
      </trkpt>
      <trkpt lat="42.83741" lon="2.61603">
        <ele>544.2</ele>
        <time>2021-06-05T14:11:06Z</time>
      </trkpt>
      <trkpt lat="42.8374" lon="2.61609">
        <ele>545.6</ele>
        <time>2021-06-05T14:11:10Z</time>
      </trkpt>
      <trkpt lat="42.8374" lon="2.61615">
        <ele>548</ele>
        <time>2021-06-05T14:11:14Z</time>
      </trkpt>
      <trkpt lat="42.8374" lon="2.61621">
        <ele>549</ele>
        <time>2021-06-05T14:11:18Z</time>
      </trkpt>
      <trkpt lat="42.8374" lon="2.61629">
        <ele>548</ele>
        <time>2021-06-05T14:11:23Z</time>
      </trkpt>
      <trkpt lat="42.8374" lon="2.61635">
        <ele>548.6</ele>
        <time>2021-06-05T14:11:27Z</time>
      </trkpt>
      <trkpt lat="42.83741" lon="2.61642">
        <ele>549</ele>
        <time>2021-06-05T14:11:31Z</time>
      </trkpt>
      <trkpt lat="42.83741" lon="2.61649">
        <ele>550.2</ele>
        <time>2021-06-05T14:11:35Z</time>
      </trkpt>
      <trkpt lat="42.83741" lon="2.61656">
        <ele>550.4</ele>
        <time>2021-06-05T14:11:39Z</time>
      </trkpt>
      <trkpt lat="42.83741" lon="2.61663">
        <ele>551.4</ele>
        <time>2021-06-05T14:11:43Z</time>
      </trkpt>
      <trkpt lat="42.8374" lon="2.6167">
        <ele>552.2</ele>
        <time>2021-06-05T14:11:47Z</time>
      </trkpt>
      <trkpt lat="42.83738" lon="2.61675">
        <ele>552.2</ele>
        <time>2021-06-05T14:11:51Z</time>
      </trkpt>
      <trkpt lat="42.83737" lon="2.61682">
        <ele>553.8</ele>
        <time>2021-06-05T14:11:55Z</time>
      </trkpt>
      <trkpt lat="42.83738" lon="2.61689">
        <ele>553.8</ele>
        <time>2021-06-05T14:11:59Z</time>
      </trkpt>
      <trkpt lat="42.8374" lon="2.61696">
        <ele>555</ele>
        <time>2021-06-05T14:12:03Z</time>
      </trkpt>
      <trkpt lat="42.8374" lon="2.61703">
        <ele>556</ele>
        <time>2021-06-05T14:12:07Z</time>
      </trkpt>
      <trkpt lat="42.8374" lon="2.61706">
        <ele>556.4</ele>
        <time>2021-06-05T14:12:11Z</time>
      </trkpt>
      <trkpt lat="42.8374" lon="2.61707">
        <ele>556.2</ele>
        <time>2021-06-05T14:12:15Z</time>
      </trkpt>
      <trkpt lat="42.83724" lon="2.61715">
        <ele>559.4</ele>
        <time>2021-06-05T14:14:19Z</time>
      </trkpt>
      <trkpt lat="42.8372" lon="2.61719">
        <ele>559.4</ele>
        <time>2021-06-05T14:14:23Z</time>
      </trkpt>
      <trkpt lat="42.83717" lon="2.61724">
        <ele>559.8</ele>
        <time>2021-06-05T14:14:27Z</time>
      </trkpt>
      <trkpt lat="42.83714" lon="2.61729">
        <ele>560.4</ele>
        <time>2021-06-05T14:14:31Z</time>
      </trkpt>
      <trkpt lat="42.83713" lon="2.61735">
        <ele>560.4</ele>
        <time>2021-06-05T14:14:35Z</time>
      </trkpt>
      <trkpt lat="42.83711" lon="2.6174">
        <ele>560.8</ele>
        <time>2021-06-05T14:14:39Z</time>
      </trkpt>
      <trkpt lat="42.8371" lon="2.61747">
        <ele>561.8</ele>
        <time>2021-06-05T14:14:44Z</time>
      </trkpt>
      <trkpt lat="42.8371" lon="2.61753">
        <ele>562.4</ele>
        <time>2021-06-05T14:14:48Z</time>
      </trkpt>
      <trkpt lat="42.83712" lon="2.61759">
        <ele>563</ele>
        <time>2021-06-05T14:14:52Z</time>
      </trkpt>
      <trkpt lat="42.83713" lon="2.61765">
        <ele>563.6</ele>
        <time>2021-06-05T14:14:56Z</time>
      </trkpt>
      <trkpt lat="42.83714" lon="2.6177">
        <ele>563.8</ele>
        <time>2021-06-05T14:15:00Z</time>
      </trkpt>
      <trkpt lat="42.83716" lon="2.61776">
        <ele>564.2</ele>
        <time>2021-06-05T14:15:04Z</time>
      </trkpt>
      <trkpt lat="42.83719" lon="2.61781">
        <ele>565</ele>
        <time>2021-06-05T14:15:08Z</time>
      </trkpt>
      <trkpt lat="42.83721" lon="2.61787">
        <ele>565.8</ele>
        <time>2021-06-05T14:15:12Z</time>
      </trkpt>
      <trkpt lat="42.83723" lon="2.61793">
        <ele>566</ele>
        <time>2021-06-05T14:15:16Z</time>
      </trkpt>
      <trkpt lat="42.83726" lon="2.61797">
        <ele>566.6</ele>
        <time>2021-06-05T14:15:20Z</time>
      </trkpt>
      <trkpt lat="42.83729" lon="2.61802">
        <ele>567.8</ele>
        <time>2021-06-05T14:15:24Z</time>
      </trkpt>
      <trkpt lat="42.83732" lon="2.61807">
        <ele>568.2</ele>
        <time>2021-06-05T14:15:28Z</time>
      </trkpt>
      <trkpt lat="42.83734" lon="2.61812">
        <ele>568.8</ele>
        <time>2021-06-05T14:15:32Z</time>
      </trkpt>
      <trkpt lat="42.83736" lon="2.61818">
        <ele>569.4</ele>
        <time>2021-06-05T14:15:36Z</time>
      </trkpt>
      <trkpt lat="42.83737" lon="2.61823">
        <ele>570.8</ele>
        <time>2021-06-05T14:15:40Z</time>
      </trkpt>
      <trkpt lat="42.83738" lon="2.61829">
        <ele>571.6</ele>
        <time>2021-06-05T14:15:44Z</time>
      </trkpt>
      <trkpt lat="42.83739" lon="2.61835">
        <ele>572.2</ele>
        <time>2021-06-05T14:15:48Z</time>
      </trkpt>
      <trkpt lat="42.8374" lon="2.61841">
        <ele>573</ele>
        <time>2021-06-05T14:15:52Z</time>
      </trkpt>
      <trkpt lat="42.83741" lon="2.61847">
        <ele>573.8</ele>
        <time>2021-06-05T14:15:56Z</time>
      </trkpt>
      <trkpt lat="42.8374" lon="2.61852">
        <ele>573.8</ele>
        <time>2021-06-05T14:16:00Z</time>
      </trkpt>
      <trkpt lat="42.83739" lon="2.61859">
        <ele>574.6</ele>
        <time>2021-06-05T14:16:05Z</time>
      </trkpt>
      <trkpt lat="42.83739" lon="2.61865">
        <ele>575.2</ele>
        <time>2021-06-05T14:16:09Z</time>
      </trkpt>
      <trkpt lat="42.83739" lon="2.6187">
        <ele>575.8</ele>
        <time>2021-06-05T14:16:13Z</time>
      </trkpt>
      <trkpt lat="42.83737" lon="2.61875">
        <ele>576.2</ele>
        <time>2021-06-05T14:16:17Z</time>
      </trkpt>
      <trkpt lat="42.83736" lon="2.6188">
        <ele>576.6</ele>
        <time>2021-06-05T14:16:21Z</time>
      </trkpt>
      <trkpt lat="42.83736" lon="2.61886">
        <ele>577.2</ele>
        <time>2021-06-05T14:16:25Z</time>
      </trkpt>
      <trkpt lat="42.83735" lon="2.61891">
        <ele>577.8</ele>
        <time>2021-06-05T14:16:29Z</time>
      </trkpt>
      <trkpt lat="42.83734" lon="2.61896">
        <ele>578.2</ele>
        <time>2021-06-05T14:16:33Z</time>
      </trkpt>
      <trkpt lat="42.83733" lon="2.61902">
        <ele>578.4</ele>
        <time>2021-06-05T14:16:37Z</time>
      </trkpt>
      <trkpt lat="42.83733" lon="2.61907">
        <ele>578</ele>
        <time>2021-06-05T14:16:41Z</time>
      </trkpt>
      <trkpt lat="42.83733" lon="2.61914">
        <ele>578.6</ele>
        <time>2021-06-05T14:16:45Z</time>
      </trkpt>
      <trkpt lat="42.83734" lon="2.6192">
        <ele>579.2</ele>
        <time>2021-06-05T14:16:49Z</time>
      </trkpt>
      <trkpt lat="42.83735" lon="2.61926">
        <ele>580</ele>
        <time>2021-06-05T14:16:53Z</time>
      </trkpt>
      <trkpt lat="42.83737" lon="2.61932">
        <ele>580.6</ele>
        <time>2021-06-05T14:16:57Z</time>
      </trkpt>
      <trkpt lat="42.83738" lon="2.61937">
        <ele>581.4</ele>
        <time>2021-06-05T14:17:01Z</time>
      </trkpt>
      <trkpt lat="42.8374" lon="2.61943">
        <ele>581.6</ele>
        <time>2021-06-05T14:17:05Z</time>
      </trkpt>
      <trkpt lat="42.83742" lon="2.61949">
        <ele>582.4</ele>
        <time>2021-06-05T14:17:09Z</time>
      </trkpt>
      <trkpt lat="42.83744" lon="2.61954">
        <ele>583.2</ele>
        <time>2021-06-05T14:17:13Z</time>
      </trkpt>
      <trkpt lat="42.83745" lon="2.6196">
        <ele>584.2</ele>
        <time>2021-06-05T14:17:17Z</time>
      </trkpt>
      <trkpt lat="42.83748" lon="2.61966">
        <ele>585</ele>
        <time>2021-06-05T14:17:22Z</time>
      </trkpt>
      <trkpt lat="42.8375" lon="2.61972">
        <ele>585.8</ele>
        <time>2021-06-05T14:17:26Z</time>
      </trkpt>
      <trkpt lat="42.83751" lon="2.61977">
        <ele>586.4</ele>
        <time>2021-06-05T14:17:30Z</time>
      </trkpt>
      <trkpt lat="42.83753" lon="2.61983">
        <ele>587.4</ele>
        <time>2021-06-05T14:17:34Z</time>
      </trkpt>
      <trkpt lat="42.83754" lon="2.61988">
        <ele>588.2</ele>
        <time>2021-06-05T14:17:38Z</time>
      </trkpt>
      <trkpt lat="42.83756" lon="2.61994">
        <ele>588.8</ele>
        <time>2021-06-05T14:17:42Z</time>
      </trkpt>
      <trkpt lat="42.83758" lon="2.61999">
        <ele>589.8</ele>
        <time>2021-06-05T14:17:46Z</time>
      </trkpt>
      <trkpt lat="42.83759" lon="2.62005">
        <ele>590.8</ele>
        <time>2021-06-05T14:17:50Z</time>
      </trkpt>
      <trkpt lat="42.83761" lon="2.62011">
        <ele>591.4</ele>
        <time>2021-06-05T14:17:54Z</time>
      </trkpt>
      <trkpt lat="42.83762" lon="2.62016">
        <ele>592.6</ele>
        <time>2021-06-05T14:17:58Z</time>
      </trkpt>
      <trkpt lat="42.83765" lon="2.62022">
        <ele>593.8</ele>
        <time>2021-06-05T14:18:02Z</time>
      </trkpt>
      <trkpt lat="42.83767" lon="2.62028">
        <ele>594.4</ele>
        <time>2021-06-05T14:18:06Z</time>
      </trkpt>
      <trkpt lat="42.83769" lon="2.62033">
        <ele>595</ele>
        <time>2021-06-05T14:18:10Z</time>
      </trkpt>
      <trkpt lat="42.83772" lon="2.62038">
        <ele>595.8</ele>
        <time>2021-06-05T14:18:14Z</time>
      </trkpt>
      <trkpt lat="42.83775" lon="2.62042">
        <ele>596.4</ele>
        <time>2021-06-05T14:18:18Z</time>
      </trkpt>
      <trkpt lat="42.83778" lon="2.62048">
        <ele>597.6</ele>
        <time>2021-06-05T14:18:22Z</time>
      </trkpt>
      <trkpt lat="42.83781" lon="2.62052">
        <ele>598.4</ele>
        <time>2021-06-05T14:18:26Z</time>
      </trkpt>
      <trkpt lat="42.83783" lon="2.62057">
        <ele>599</ele>
        <time>2021-06-05T14:18:30Z</time>
      </trkpt>
      <trkpt lat="42.83787" lon="2.6206">
        <ele>599.6</ele>
        <time>2021-06-05T14:18:34Z</time>
      </trkpt>
      <trkpt lat="42.8379" lon="2.62064">
        <ele>600.8</ele>
        <time>2021-06-05T14:18:38Z</time>
      </trkpt>
      <trkpt lat="42.83793" lon="2.6207">
        <ele>601.4</ele>
        <time>2021-06-05T14:18:43Z</time>
      </trkpt>
      <trkpt lat="42.83796" lon="2.62075">
        <ele>602.2</ele>
        <time>2021-06-05T14:18:47Z</time>
      </trkpt>
      <trkpt lat="42.83798" lon="2.62081">
        <ele>602.6</ele>
        <time>2021-06-05T14:18:51Z</time>
      </trkpt>
      <trkpt lat="42.83801" lon="2.62087">
        <ele>603.2</ele>
        <time>2021-06-05T14:18:55Z</time>
      </trkpt>
      <trkpt lat="42.83805" lon="2.62091">
        <ele>604</ele>
        <time>2021-06-05T14:18:59Z</time>
      </trkpt>
      <trkpt lat="42.83808" lon="2.62095">
        <ele>604.4</ele>
        <time>2021-06-05T14:19:03Z</time>
      </trkpt>
      <trkpt lat="42.83811" lon="2.621">
        <ele>605.2</ele>
        <time>2021-06-05T14:19:07Z</time>
      </trkpt>
      <trkpt lat="42.83814" lon="2.62104">
        <ele>605.8</ele>
        <time>2021-06-05T14:19:11Z</time>
      </trkpt>
      <trkpt lat="42.83819" lon="2.62108">
        <ele>606.6</ele>
        <time>2021-06-05T14:19:15Z</time>
      </trkpt>
      <trkpt lat="42.83823" lon="2.62111">
        <ele>607.4</ele>
        <time>2021-06-05T14:19:19Z</time>
      </trkpt>
      <trkpt lat="42.83827" lon="2.62114">
        <ele>608</ele>
        <time>2021-06-05T14:19:23Z</time>
      </trkpt>
      <trkpt lat="42.83831" lon="2.62117">
        <ele>608.4</ele>
        <time>2021-06-05T14:19:27Z</time>
      </trkpt>
      <trkpt lat="42.83835" lon="2.62121">
        <ele>609</ele>
        <time>2021-06-05T14:19:31Z</time>
      </trkpt>
      <trkpt lat="42.8384" lon="2.62124">
        <ele>609.2</ele>
        <time>2021-06-05T14:19:35Z</time>
      </trkpt>
      <trkpt lat="42.83844" lon="2.62127">
        <ele>609.2</ele>
        <time>2021-06-05T14:19:39Z</time>
      </trkpt>
      <trkpt lat="42.83849" lon="2.6213">
        <ele>609.4</ele>
        <time>2021-06-05T14:19:43Z</time>
      </trkpt>
      <trkpt lat="42.83854" lon="2.62132">
        <ele>609.4</ele>
        <time>2021-06-05T14:19:47Z</time>
      </trkpt>
      <trkpt lat="42.83859" lon="2.62134">
        <ele>609.6</ele>
        <time>2021-06-05T14:19:51Z</time>
      </trkpt>
      <trkpt lat="42.83864" lon="2.62135">
        <ele>610.4</ele>
        <time>2021-06-05T14:19:55Z</time>
      </trkpt>
      <trkpt lat="42.83869" lon="2.62134">
        <ele>611.6</ele>
        <time>2021-06-05T14:19:59Z</time>
      </trkpt>
      <trkpt lat="42.83877" lon="2.62131">
        <ele>612.4</ele>
        <time>2021-06-05T14:20:04Z</time>
      </trkpt>
      <trkpt lat="42.83884" lon="2.62128">
        <ele>612.6</ele>
        <time>2021-06-05T14:20:08Z</time>
      </trkpt>
      <trkpt lat="42.83888" lon="2.62126">
        <ele>612.8</ele>
        <time>2021-06-05T14:20:12Z</time>
      </trkpt>
      <trkpt lat="42.83893" lon="2.62125">
        <ele>613.2</ele>
        <time>2021-06-05T14:20:16Z</time>
      </trkpt>
      <trkpt lat="42.83897" lon="2.62126">
        <ele>613.8</ele>
        <time>2021-06-05T14:20:20Z</time>
      </trkpt>
      <trkpt lat="42.839" lon="2.62122">
        <ele>614.2</ele>
        <time>2021-06-05T14:20:24Z</time>
      </trkpt>
      <trkpt lat="42.83906" lon="2.62121">
        <ele>614.6</ele>
        <time>2021-06-05T14:20:28Z</time>
      </trkpt>
      <trkpt lat="42.83907" lon="2.62131">
        <ele>615</ele>
        <time>2021-06-05T14:20:36Z</time>
      </trkpt>
      <trkpt lat="42.83908" lon="2.62144">
        <ele>614.8</ele>
        <time>2021-06-05T14:20:44Z</time>
      </trkpt>
      <trkpt lat="42.83909" lon="2.62152">
        <ele>614.6</ele>
        <time>2021-06-05T14:20:52Z</time>
      </trkpt>
      <trkpt lat="42.83855" lon="2.6213">
        <ele>597.8</ele>
        <time>2021-06-05T15:34:07Z</time>
      </trkpt>
      <trkpt lat="42.8384" lon="2.62122">
        <ele>595.4</ele>
        <time>2021-06-05T15:34:11Z</time>
      </trkpt>
      <trkpt lat="42.83822" lon="2.62108">
        <ele>592.8</ele>
        <time>2021-06-05T15:34:15Z</time>
      </trkpt>
      <trkpt lat="42.83807" lon="2.62092">
        <ele>589.8</ele>
        <time>2021-06-05T15:34:19Z</time>
      </trkpt>
      <trkpt lat="42.83801" lon="2.62081">
        <ele>587.8</ele>
        <time>2021-06-05T15:34:23Z</time>
      </trkpt>
      <trkpt lat="42.83797" lon="2.62075">
        <ele>586.8</ele>
        <time>2021-06-05T15:34:27Z</time>
      </trkpt>
      <trkpt lat="42.83797" lon="2.62075">
        <ele>586.6</ele>
        <time>2021-06-05T15:34:31Z</time>
      </trkpt>
      <trkpt lat="42.83774" lon="2.62038">
        <ele>581.6</ele>
        <time>2021-06-05T15:34:56Z</time>
      </trkpt>
      <trkpt lat="42.83763" lon="2.62009">
        <ele>576.8</ele>
        <time>2021-06-05T15:35:00Z</time>
      </trkpt>
      <trkpt lat="42.83752" lon="2.61973">
        <ele>571.8</ele>
        <time>2021-06-05T15:35:04Z</time>
      </trkpt>
      <trkpt lat="42.83738" lon="2.61925">
        <ele>565</ele>
        <time>2021-06-05T15:35:09Z</time>
      </trkpt>
      <trkpt lat="42.83739" lon="2.61885">
        <ele>561</ele>
        <time>2021-06-05T15:35:13Z</time>
      </trkpt>
      <trkpt lat="42.83742" lon="2.6185">
        <ele>557.2</ele>
        <time>2021-06-05T15:35:17Z</time>
      </trkpt>
      <trkpt lat="42.83738" lon="2.61818">
        <ele>554.2</ele>
        <time>2021-06-05T15:35:21Z</time>
      </trkpt>
      <trkpt lat="42.83723" lon="2.61787">
        <ele>549.6</ele>
        <time>2021-06-05T15:35:25Z</time>
      </trkpt>
      <trkpt lat="42.83715" lon="2.61751">
        <ele>545.8</ele>
        <time>2021-06-05T15:35:29Z</time>
      </trkpt>
      <trkpt lat="42.83729" lon="2.61719">
        <ele>543.4</ele>
        <time>2021-06-05T15:35:33Z</time>
      </trkpt>
      <trkpt lat="42.8374" lon="2.61694">
        <ele>541.4</ele>
        <time>2021-06-05T15:35:37Z</time>
      </trkpt>
      <trkpt lat="42.83741" lon="2.61656">
        <ele>537.6</ele>
        <time>2021-06-05T15:35:41Z</time>
      </trkpt>
      <trkpt lat="42.83741" lon="2.61618">
        <ele>533</ele>
        <time>2021-06-05T15:35:45Z</time>
      </trkpt>
      <trkpt lat="42.8374" lon="2.61584">
        <ele>528.6</ele>
        <time>2021-06-05T15:35:49Z</time>
      </trkpt>
      <trkpt lat="42.83731" lon="2.61555">
        <ele>524.6</ele>
        <time>2021-06-05T15:35:53Z</time>
      </trkpt>
      <trkpt lat="42.83709" lon="2.61539">
        <ele>520.2</ele>
        <time>2021-06-05T15:35:57Z</time>
      </trkpt>
      <trkpt lat="42.83692" lon="2.61519">
        <ele>516</ele>
        <time>2021-06-05T15:36:01Z</time>
      </trkpt>
      <trkpt lat="42.83694" lon="2.61481">
        <ele>512.2</ele>
        <time>2021-06-05T15:36:05Z</time>
      </trkpt>
      <trkpt lat="42.83701" lon="2.61442">
        <ele>512.2</ele>
        <time>2021-06-05T15:36:09Z</time>
      </trkpt>
      <trkpt lat="42.83698" lon="2.61403">
        <ele>501</ele>
        <time>2021-06-05T15:36:13Z</time>
      </trkpt>
      <trkpt lat="42.83694" lon="2.61355">
        <ele>501</ele>
        <time>2021-06-05T15:36:17Z</time>
      </trkpt>
      <trkpt lat="42.83696" lon="2.61311">
        <ele>491</ele>
        <time>2021-06-05T15:36:21Z</time>
      </trkpt>
      <trkpt lat="42.83708" lon="2.6127">
        <ele>489</ele>
        <time>2021-06-05T15:36:25Z</time>
      </trkpt>
      <trkpt lat="42.83716" lon="2.61226">
        <ele>486.2</ele>
        <time>2021-06-05T15:36:30Z</time>
      </trkpt>
      <trkpt lat="42.83715" lon="2.61191">
        <ele>482.8</ele>
        <time>2021-06-05T15:36:34Z</time>
      </trkpt>
      <trkpt lat="42.8371" lon="2.61152">
        <ele>477.4</ele>
        <time>2021-06-05T15:36:38Z</time>
      </trkpt>
      <trkpt lat="42.83709" lon="2.61118">
        <ele>473.8</ele>
        <time>2021-06-05T15:36:42Z</time>
      </trkpt>
      <trkpt lat="42.83699" lon="2.6108">
        <ele>468.8</ele>
        <time>2021-06-05T15:36:46Z</time>
      </trkpt>
      <trkpt lat="42.83693" lon="2.61042">
        <ele>463.2</ele>
        <time>2021-06-05T15:36:50Z</time>
      </trkpt>
      <trkpt lat="42.83684" lon="2.61014">
        <ele>459.2</ele>
        <time>2021-06-05T15:36:54Z</time>
      </trkpt>
      <trkpt lat="42.83674" lon="2.60993">
        <ele>456</ele>
        <time>2021-06-05T15:36:58Z</time>
      </trkpt>
      <trkpt lat="42.83688" lon="2.6099">
        <ele>453.4</ele>
        <time>2021-06-05T15:37:02Z</time>
      </trkpt>
      <trkpt lat="42.83712" lon="2.61">
        <ele>450.2</ele>
        <time>2021-06-05T15:37:06Z</time>
      </trkpt>
      <trkpt lat="42.83733" lon="2.61006">
        <ele>447.6</ele>
        <time>2021-06-05T15:37:10Z</time>
      </trkpt>
      <trkpt lat="42.83734" lon="2.60978">
        <ele>444.6</ele>
        <time>2021-06-05T15:37:14Z</time>
      </trkpt>
      <trkpt lat="42.83725" lon="2.60942">
        <ele>439.4</ele>
        <time>2021-06-05T15:37:18Z</time>
      </trkpt>
      <trkpt lat="42.83718" lon="2.6092">
        <ele>436.2</ele>
        <time>2021-06-05T15:37:22Z</time>
      </trkpt>
      <trkpt lat="42.8371" lon="2.60918">
        <ele>436</ele>
        <time>2021-06-05T15:37:26Z</time>
      </trkpt>
      <trkpt lat="42.83709" lon="2.60918">
        <ele>435.8</ele>
        <time>2021-06-05T15:37:30Z</time>
      </trkpt>
      <trkpt lat="42.83715" lon="2.60903">
        <ele>435.8</ele>
        <time>2021-06-05T15:41:11Z</time>
      </trkpt>
      <trkpt lat="42.83716" lon="2.60898">
        <ele>435</ele>
        <time>2021-06-05T15:41:15Z</time>
      </trkpt>
      <trkpt lat="42.83713" lon="2.60888">
        <ele>434.4</ele>
        <time>2021-06-05T15:41:19Z</time>
      </trkpt>
      <trkpt lat="42.83712" lon="2.60862">
        <ele>433.8</ele>
        <time>2021-06-05T15:41:24Z</time>
      </trkpt>
      <trkpt lat="42.83723" lon="2.60856">
        <ele>433.2</ele>
        <time>2021-06-05T15:41:28Z</time>
      </trkpt>
      <trkpt lat="42.83738" lon="2.60867">
        <ele>432</ele>
        <time>2021-06-05T15:41:32Z</time>
      </trkpt>
      <trkpt lat="42.83759" lon="2.60864">
        <ele>430.4</ele>
        <time>2021-06-05T15:41:36Z</time>
      </trkpt>
      <trkpt lat="42.83782" lon="2.60852">
        <ele>427.8</ele>
        <time>2021-06-05T15:41:40Z</time>
      </trkpt>
      <trkpt lat="42.83807" lon="2.60841">
        <ele>424.8</ele>
        <time>2021-06-05T15:41:44Z</time>
      </trkpt>
      <trkpt lat="42.83831" lon="2.60832">
        <ele>422.2</ele>
        <time>2021-06-05T15:41:48Z</time>
      </trkpt>
      <trkpt lat="42.83854" lon="2.60823">
        <ele>420.2</ele>
        <time>2021-06-05T15:41:52Z</time>
      </trkpt>
      <trkpt lat="42.83873" lon="2.60789">
        <ele>417.6</ele>
        <time>2021-06-05T15:41:56Z</time>
      </trkpt>
      <trkpt lat="42.83899" lon="2.60759">
        <ele>414.8</ele>
        <time>2021-06-05T15:42:00Z</time>
      </trkpt>
      <trkpt lat="42.8393" lon="2.60731">
        <ele>411.6</ele>
        <time>2021-06-05T15:42:04Z</time>
      </trkpt>
      <trkpt lat="42.83961" lon="2.60706">
        <ele>408.8</ele>
        <time>2021-06-05T15:42:08Z</time>
      </trkpt>
      <trkpt lat="42.83987" lon="2.60672">
        <ele>406.2</ele>
        <time>2021-06-05T15:42:12Z</time>
      </trkpt>
      <trkpt lat="42.84" lon="2.60629">
        <ele>403.4</ele>
        <time>2021-06-05T15:42:16Z</time>
      </trkpt>
      <trkpt lat="42.84027" lon="2.60604">
        <ele>400.8</ele>
        <time>2021-06-05T15:42:20Z</time>
      </trkpt>
      <trkpt lat="42.84058" lon="2.60584">
        <ele>398.6</ele>
        <time>2021-06-05T15:42:24Z</time>
      </trkpt>
      <trkpt lat="42.84086" lon="2.60556">
        <ele>396.2</ele>
        <time>2021-06-05T15:42:28Z</time>
      </trkpt>
      <trkpt lat="42.84108" lon="2.60519">
        <ele>393.8</ele>
        <time>2021-06-05T15:42:32Z</time>
      </trkpt>
      <trkpt lat="42.84137" lon="2.6049">
        <ele>391.6</ele>
        <time>2021-06-05T15:42:36Z</time>
      </trkpt>
      <trkpt lat="42.84166" lon="2.60462">
        <ele>389</ele>
        <time>2021-06-05T15:42:40Z</time>
      </trkpt>
      <trkpt lat="42.84213" lon="2.6045">
        <ele>385.2</ele>
        <time>2021-06-05T15:42:45Z</time>
      </trkpt>
      <trkpt lat="42.84241" lon="2.60472">
        <ele>383</ele>
        <time>2021-06-05T15:42:49Z</time>
      </trkpt>
      <trkpt lat="42.84258" lon="2.60497">
        <ele>381</ele>
        <time>2021-06-05T15:42:53Z</time>
      </trkpt>
      <trkpt lat="42.84262" lon="2.60505">
        <ele>380</ele>
        <time>2021-06-05T15:42:57Z</time>
      </trkpt>
      <trkpt lat="42.84262" lon="2.60505">
        <ele>379.8</ele>
        <time>2021-06-05T15:43:01Z</time>
      </trkpt>
      <trkpt lat="42.84271" lon="2.60551">
        <ele>377.6</ele>
        <time>2021-06-05T15:43:35Z</time>
      </trkpt>
      <trkpt lat="42.8428" lon="2.60566">
        <ele>376.6</ele>
        <time>2021-06-05T15:43:39Z</time>
      </trkpt>
      <trkpt lat="42.84296" lon="2.60554">
        <ele>375.4</ele>
        <time>2021-06-05T15:43:43Z</time>
      </trkpt>
      <trkpt lat="42.84305" lon="2.60523">
        <ele>373.8</ele>
        <time>2021-06-05T15:43:47Z</time>
      </trkpt>
      <trkpt lat="42.84316" lon="2.60486">
        <ele>371.6</ele>
        <time>2021-06-05T15:43:51Z</time>
      </trkpt>
      <trkpt lat="42.84335" lon="2.60456">
        <ele>369.4</ele>
        <time>2021-06-05T15:43:55Z</time>
      </trkpt>
      <trkpt lat="42.84355" lon="2.60424">
        <ele>367.2</ele>
        <time>2021-06-05T15:43:59Z</time>
      </trkpt>
      <trkpt lat="42.84374" lon="2.60392">
        <ele>365.6</ele>
        <time>2021-06-05T15:44:03Z</time>
      </trkpt>
      <trkpt lat="42.84397" lon="2.60367">
        <ele>363.8</ele>
        <time>2021-06-05T15:44:07Z</time>
      </trkpt>
      <trkpt lat="42.84405" lon="2.60329">
        <ele>361.2</ele>
        <time>2021-06-05T15:44:11Z</time>
      </trkpt>
      <trkpt lat="42.84397" lon="2.60291">
        <ele>358.6</ele>
        <time>2021-06-05T15:44:15Z</time>
      </trkpt>
      <trkpt lat="42.84379" lon="2.60264">
        <ele>356.6</ele>
        <time>2021-06-05T15:44:19Z</time>
      </trkpt>
      <trkpt lat="42.8439" lon="2.60231">
        <ele>354.6</ele>
        <time>2021-06-05T15:44:23Z</time>
      </trkpt>
      <trkpt lat="42.84416" lon="2.60208">
        <ele>352.8</ele>
        <time>2021-06-05T15:44:27Z</time>
      </trkpt>
      <trkpt lat="42.84447" lon="2.60191">
        <ele>350.6</ele>
        <time>2021-06-05T15:44:31Z</time>
      </trkpt>
      <trkpt lat="42.84487" lon="2.60205">
        <ele>347</ele>
        <time>2021-06-05T15:44:36Z</time>
      </trkpt>
      <trkpt lat="42.84513" lon="2.6021">
        <ele>345.4</ele>
        <time>2021-06-05T15:44:40Z</time>
      </trkpt>
      <trkpt lat="42.8452" lon="2.60207">
        <ele>344.4</ele>
        <time>2021-06-05T15:44:44Z</time>
      </trkpt>
      <trkpt lat="42.84521" lon="2.60207">
        <ele>344.4</ele>
        <time>2021-06-05T15:44:48Z</time>
      </trkpt>
      <trkpt lat="42.84545" lon="2.60174">
        <ele>343</ele>
        <time>2021-06-05T15:46:00Z</time>
      </trkpt>
      <trkpt lat="42.84565" lon="2.60159">
        <ele>341.2</ele>
        <time>2021-06-05T15:46:04Z</time>
      </trkpt>
      <trkpt lat="42.84589" lon="2.60172">
        <ele>338.4</ele>
        <time>2021-06-05T15:46:08Z</time>
      </trkpt>
      <trkpt lat="42.84597" lon="2.60207">
        <ele>336.2</ele>
        <time>2021-06-05T15:46:12Z</time>
      </trkpt>
      <trkpt lat="42.84619" lon="2.60219">
        <ele>334.8</ele>
        <time>2021-06-05T15:46:16Z</time>
      </trkpt>
      <trkpt lat="42.84647" lon="2.60209">
        <ele>332.8</ele>
        <time>2021-06-05T15:46:20Z</time>
      </trkpt>
      <trkpt lat="42.84679" lon="2.60201">
        <ele>331.4</ele>
        <time>2021-06-05T15:46:24Z</time>
      </trkpt>
      <trkpt lat="42.84709" lon="2.60178">
        <ele>329.4</ele>
        <time>2021-06-05T15:46:28Z</time>
      </trkpt>
      <trkpt lat="42.84735" lon="2.60143">
        <ele>326.6</ele>
        <time>2021-06-05T15:46:32Z</time>
      </trkpt>
      <trkpt lat="42.84763" lon="2.60119">
        <ele>324</ele>
        <time>2021-06-05T15:46:36Z</time>
      </trkpt>
      <trkpt lat="42.84779" lon="2.60107">
        <ele>322.2</ele>
        <time>2021-06-05T15:46:40Z</time>
      </trkpt>
      <trkpt lat="42.84785" lon="2.601">
        <ele>321.6</ele>
        <time>2021-06-05T15:46:44Z</time>
      </trkpt>
      <trkpt lat="42.84785" lon="2.601">
        <ele>321.4</ele>
        <time>2021-06-05T15:46:48Z</time>
      </trkpt>
      <trkpt lat="42.84785" lon="2.601">
        <ele>322</ele>
        <time>2021-06-05T15:46:52Z</time>
      </trkpt>
      <trkpt lat="42.84818" lon="2.60049">
        <ele>319.4</ele>
        <time>2021-06-05T15:47:34Z</time>
      </trkpt>
      <trkpt lat="42.84837" lon="2.60026">
        <ele>317.4</ele>
        <time>2021-06-05T15:47:38Z</time>
      </trkpt>
      <trkpt lat="42.84869" lon="2.60011">
        <ele>315.6</ele>
        <time>2021-06-05T15:47:43Z</time>
      </trkpt>
      <trkpt lat="42.84897" lon="2.59997">
        <ele>313.2</ele>
        <time>2021-06-05T15:47:47Z</time>
      </trkpt>
      <trkpt lat="42.84922" lon="2.5997">
        <ele>311.6</ele>
        <time>2021-06-05T15:47:51Z</time>
      </trkpt>
      <trkpt lat="42.84944" lon="2.59941">
        <ele>309.6</ele>
        <time>2021-06-05T15:47:55Z</time>
      </trkpt>
      <trkpt lat="42.8496" lon="2.59907">
        <ele>307.2</ele>
        <time>2021-06-05T15:47:59Z</time>
      </trkpt>
      <trkpt lat="42.84964" lon="2.59869">
        <ele>304.6</ele>
        <time>2021-06-05T15:48:03Z</time>
      </trkpt>
      <trkpt lat="42.84955" lon="2.59834">
        <ele>302.8</ele>
        <time>2021-06-05T15:48:07Z</time>
      </trkpt>
      <trkpt lat="42.84938" lon="2.59812">
        <ele>302.8</ele>
        <time>2021-06-05T15:48:11Z</time>
      </trkpt>
      <trkpt lat="42.84925" lon="2.59792">
        <ele>302.6</ele>
        <time>2021-06-05T15:48:15Z</time>
      </trkpt>
      <trkpt lat="42.84923" lon="2.59772">
        <ele>303.4</ele>
        <time>2021-06-05T15:48:19Z</time>
      </trkpt>
      <trkpt lat="42.84925" lon="2.59765">
        <ele>303.2</ele>
        <time>2021-06-05T15:48:23Z</time>
      </trkpt>
      <trkpt lat="42.84927" lon="2.59759">
        <ele>303.4</ele>
        <time>2021-06-05T15:48:27Z</time>
      </trkpt>
      <trkpt lat="42.8493" lon="2.59752">
        <ele>303.8</ele>
        <time>2021-06-05T15:48:31Z</time>
      </trkpt>
      <trkpt lat="42.84935" lon="2.59744">
        <ele>304</ele>
        <time>2021-06-05T15:48:35Z</time>
      </trkpt>
      <trkpt lat="42.84939" lon="2.59731">
        <ele>304.2</ele>
        <time>2021-06-05T15:48:39Z</time>
      </trkpt>
      <trkpt lat="42.84943" lon="2.59717">
        <ele>304.6</ele>
        <time>2021-06-05T15:48:43Z</time>
      </trkpt>
      <trkpt lat="42.84943" lon="2.59701">
        <ele>305</ele>
        <time>2021-06-05T15:48:47Z</time>
      </trkpt>
      <trkpt lat="42.84942" lon="2.59684">
        <ele>305.4</ele>
        <time>2021-06-05T15:48:51Z</time>
      </trkpt>
      <trkpt lat="42.8494" lon="2.59668">
        <ele>306</ele>
        <time>2021-06-05T15:48:55Z</time>
      </trkpt>
      <trkpt lat="42.8494" lon="2.59654">
        <ele>306.2</ele>
        <time>2021-06-05T15:48:59Z</time>
      </trkpt>
      <trkpt lat="42.84943" lon="2.59635">
        <ele>306.8</ele>
        <time>2021-06-05T15:49:04Z</time>
      </trkpt>
      <trkpt lat="42.84947" lon="2.5962">
        <ele>306.8</ele>
        <time>2021-06-05T15:49:08Z</time>
      </trkpt>
      <trkpt lat="42.84951" lon="2.59605">
        <ele>307.2</ele>
        <time>2021-06-05T15:49:12Z</time>
      </trkpt>
      <trkpt lat="42.84954" lon="2.59589">
        <ele>307.4</ele>
        <time>2021-06-05T15:49:16Z</time>
      </trkpt>
      <trkpt lat="42.84958" lon="2.59574">
        <ele>307.4</ele>
        <time>2021-06-05T15:49:20Z</time>
      </trkpt>
      <trkpt lat="42.84962" lon="2.59558">
        <ele>307.8</ele>
        <time>2021-06-05T15:49:24Z</time>
      </trkpt>
      <trkpt lat="42.84966" lon="2.59543">
        <ele>308.2</ele>
        <time>2021-06-05T15:49:28Z</time>
      </trkpt>
      <trkpt lat="42.84969" lon="2.59528">
        <ele>308.8</ele>
        <time>2021-06-05T15:49:32Z</time>
      </trkpt>
      <trkpt lat="42.84972" lon="2.59513">
        <ele>309</ele>
        <time>2021-06-05T15:49:36Z</time>
      </trkpt>
      <trkpt lat="42.84976" lon="2.59497">
        <ele>309.2</ele>
        <time>2021-06-05T15:49:40Z</time>
      </trkpt>
      <trkpt lat="42.84979" lon="2.59481">
        <ele>309.6</ele>
        <time>2021-06-05T15:49:44Z</time>
      </trkpt>
      <trkpt lat="42.84981" lon="2.59466">
        <ele>310</ele>
        <time>2021-06-05T15:49:48Z</time>
      </trkpt>
      <trkpt lat="42.84981" lon="2.5945">
        <ele>310.2</ele>
        <time>2021-06-05T15:49:52Z</time>
      </trkpt>
      <trkpt lat="42.8498" lon="2.59434">
        <ele>310.4</ele>
        <time>2021-06-05T15:49:56Z</time>
      </trkpt>
      <trkpt lat="42.84979" lon="2.59418">
        <ele>310.8</ele>
        <time>2021-06-05T15:50:00Z</time>
      </trkpt>
      <trkpt lat="42.84976" lon="2.59403">
        <ele>311.2</ele>
        <time>2021-06-05T15:50:04Z</time>
      </trkpt>
      <trkpt lat="42.84967" lon="2.59394">
        <ele>311.6</ele>
        <time>2021-06-05T15:50:08Z</time>
      </trkpt>
      <trkpt lat="42.84956" lon="2.59391">
        <ele>311.8</ele>
        <time>2021-06-05T15:50:12Z</time>
      </trkpt>
      <trkpt lat="42.84946" lon="2.59395">
        <ele>312.2</ele>
        <time>2021-06-05T15:50:16Z</time>
      </trkpt>
      <trkpt lat="42.84932" lon="2.59402">
        <ele>312.4</ele>
        <time>2021-06-05T15:50:21Z</time>
      </trkpt>
      <trkpt lat="42.8492" lon="2.59403">
        <ele>312.6</ele>
        <time>2021-06-05T15:50:25Z</time>
      </trkpt>
      <trkpt lat="42.8491" lon="2.59399">
        <ele>313</ele>
        <time>2021-06-05T15:50:29Z</time>
      </trkpt>
      <trkpt lat="42.84902" lon="2.59393">
        <ele>313.4</ele>
        <time>2021-06-05T15:50:33Z</time>
      </trkpt>
      <trkpt lat="42.84895" lon="2.59385">
        <ele>313.4</ele>
        <time>2021-06-05T15:50:37Z</time>
      </trkpt>
      <trkpt lat="42.84886" lon="2.59377">
        <ele>313.8</ele>
        <time>2021-06-05T15:50:41Z</time>
      </trkpt>
      <trkpt lat="42.84878" lon="2.59369">
        <ele>314</ele>
        <time>2021-06-05T15:50:45Z</time>
      </trkpt>
      <trkpt lat="42.84871" lon="2.5936">
        <ele>314.2</ele>
        <time>2021-06-05T15:50:49Z</time>
      </trkpt>
      <trkpt lat="42.84864" lon="2.59349">
        <ele>314.2</ele>
        <time>2021-06-05T15:50:53Z</time>
      </trkpt>
      <trkpt lat="42.8486" lon="2.59338">
        <ele>314.6</ele>
        <time>2021-06-05T15:50:57Z</time>
      </trkpt>
      <trkpt lat="42.84857" lon="2.59325">
        <ele>314.8</ele>
        <time>2021-06-05T15:51:01Z</time>
      </trkpt>
      <trkpt lat="42.84856" lon="2.59311">
        <ele>315</ele>
        <time>2021-06-05T15:51:05Z</time>
      </trkpt>
      <trkpt lat="42.84857" lon="2.59299">
        <ele>315.4</ele>
        <time>2021-06-05T15:51:09Z</time>
      </trkpt>
      <trkpt lat="42.84861" lon="2.59288">
        <ele>315.6</ele>
        <time>2021-06-05T15:51:13Z</time>
      </trkpt>
      <trkpt lat="42.84866" lon="2.59278">
        <ele>315.8</ele>
        <time>2021-06-05T15:51:17Z</time>
      </trkpt>
      <trkpt lat="42.84871" lon="2.59266">
        <ele>315.8</ele>
        <time>2021-06-05T15:51:21Z</time>
      </trkpt>
      <trkpt lat="42.84877" lon="2.59254">
        <ele>316.4</ele>
        <time>2021-06-05T15:51:25Z</time>
      </trkpt>
      <trkpt lat="42.84882" lon="2.59243">
        <ele>316.4</ele>
        <time>2021-06-05T15:51:29Z</time>
      </trkpt>
      <trkpt lat="42.84888" lon="2.59232">
        <ele>316.8</ele>
        <time>2021-06-05T15:51:33Z</time>
      </trkpt>
      <trkpt lat="42.84893" lon="2.59221">
        <ele>317</ele>
        <time>2021-06-05T15:51:37Z</time>
      </trkpt>
      <trkpt lat="42.84899" lon="2.59207">
        <ele>317.4</ele>
        <time>2021-06-05T15:51:42Z</time>
      </trkpt>
      <trkpt lat="42.84903" lon="2.59195">
        <ele>317.6</ele>
        <time>2021-06-05T15:51:46Z</time>
      </trkpt>
      <trkpt lat="42.84906" lon="2.59182">
        <ele>317.8</ele>
        <time>2021-06-05T15:51:50Z</time>
      </trkpt>
      <trkpt lat="42.84908" lon="2.59169">
        <ele>318</ele>
        <time>2021-06-05T15:51:54Z</time>
      </trkpt>
      <trkpt lat="42.84908" lon="2.59154">
        <ele>318.4</ele>
        <time>2021-06-05T15:51:58Z</time>
      </trkpt>
      <trkpt lat="42.84906" lon="2.59139">
        <ele>318.6</ele>
        <time>2021-06-05T15:52:02Z</time>
      </trkpt>
      <trkpt lat="42.84903" lon="2.59123">
        <ele>318.8</ele>
        <time>2021-06-05T15:52:06Z</time>
      </trkpt>
      <trkpt lat="42.849" lon="2.59108">
        <ele>319</ele>
        <time>2021-06-05T15:52:10Z</time>
      </trkpt>
      <trkpt lat="42.84897" lon="2.59094">
        <ele>319.4</ele>
        <time>2021-06-05T15:52:14Z</time>
      </trkpt>
      <trkpt lat="42.84896" lon="2.5908">
        <ele>319.6</ele>
        <time>2021-06-05T15:52:18Z</time>
      </trkpt>
      <trkpt lat="42.84894" lon="2.59066">
        <ele>319.8</ele>
        <time>2021-06-05T15:52:22Z</time>
      </trkpt>
      <trkpt lat="42.84893" lon="2.59051">
        <ele>320.2</ele>
        <time>2021-06-05T15:52:26Z</time>
      </trkpt>
      <trkpt lat="42.84895" lon="2.59035">
        <ele>320.4</ele>
        <time>2021-06-05T15:52:30Z</time>
      </trkpt>
      <trkpt lat="42.84896" lon="2.5902">
        <ele>320.6</ele>
        <time>2021-06-05T15:52:34Z</time>
      </trkpt>
      <trkpt lat="42.84899" lon="2.59006">
        <ele>321</ele>
        <time>2021-06-05T15:52:38Z</time>
      </trkpt>
      <trkpt lat="42.84902" lon="2.58992">
        <ele>321</ele>
        <time>2021-06-05T15:52:42Z</time>
      </trkpt>
      <trkpt lat="42.84905" lon="2.58978">
        <ele>321</ele>
        <time>2021-06-05T15:52:46Z</time>
      </trkpt>
      <trkpt lat="42.84909" lon="2.58962">
        <ele>321.2</ele>
        <time>2021-06-05T15:52:50Z</time>
      </trkpt>
      <trkpt lat="42.84912" lon="2.58948">
        <ele>321.4</ele>
        <time>2021-06-05T15:52:54Z</time>
      </trkpt>
      <trkpt lat="42.84916" lon="2.58935">
        <ele>322</ele>
        <time>2021-06-05T15:52:58Z</time>
      </trkpt>
      <trkpt lat="42.84922" lon="2.5892">
        <ele>322.2</ele>
        <time>2021-06-05T15:53:03Z</time>
      </trkpt>
      <trkpt lat="42.8493" lon="2.58909">
        <ele>322.4</ele>
        <time>2021-06-05T15:53:07Z</time>
      </trkpt>
      <trkpt lat="42.84937" lon="2.589">
        <ele>322.8</ele>
        <time>2021-06-05T15:53:11Z</time>
      </trkpt>
      <trkpt lat="42.84946" lon="2.58895">
        <ele>323.2</ele>
        <time>2021-06-05T15:53:15Z</time>
      </trkpt>
      <trkpt lat="42.84954" lon="2.58891">
        <ele>324</ele>
        <time>2021-06-05T15:53:19Z</time>
      </trkpt>
      <trkpt lat="42.84964" lon="2.58887">
        <ele>324.2</ele>
        <time>2021-06-05T15:53:23Z</time>
      </trkpt>
      <trkpt lat="42.84975" lon="2.58881">
        <ele>324.4</ele>
        <time>2021-06-05T15:53:27Z</time>
      </trkpt>
      <trkpt lat="42.84984" lon="2.58872">
        <ele>324.8</ele>
        <time>2021-06-05T15:53:31Z</time>
      </trkpt>
      <trkpt lat="42.84992" lon="2.58863">
        <ele>325</ele>
        <time>2021-06-05T15:53:35Z</time>
      </trkpt>
      <trkpt lat="42.84999" lon="2.58851">
        <ele>325.2</ele>
        <time>2021-06-05T15:53:39Z</time>
      </trkpt>
      <trkpt lat="42.85004" lon="2.5884">
        <ele>325.4</ele>
        <time>2021-06-05T15:53:43Z</time>
      </trkpt>
      <trkpt lat="42.85009" lon="2.5883">
        <ele>326</ele>
        <time>2021-06-05T15:53:47Z</time>
      </trkpt>
      <trkpt lat="42.85013" lon="2.5882">
        <ele>326.4</ele>
        <time>2021-06-05T15:53:51Z</time>
      </trkpt>
      <trkpt lat="42.85017" lon="2.58811">
        <ele>327.2</ele>
        <time>2021-06-05T15:53:55Z</time>
      </trkpt>
      <trkpt lat="42.85021" lon="2.58802">
        <ele>327.8</ele>
        <time>2021-06-05T15:53:59Z</time>
      </trkpt>
      <trkpt lat="42.85025" lon="2.58793">
        <ele>328.4</ele>
        <time>2021-06-05T15:54:03Z</time>
      </trkpt>
      <trkpt lat="42.85029" lon="2.58784">
        <ele>328.6</ele>
        <time>2021-06-05T15:54:07Z</time>
      </trkpt>
      <trkpt lat="42.85033" lon="2.58775">
        <ele>329</ele>
        <time>2021-06-05T15:54:11Z</time>
      </trkpt>
      <trkpt lat="42.85037" lon="2.58766">
        <ele>329.6</ele>
        <time>2021-06-05T15:54:15Z</time>
      </trkpt>
      <trkpt lat="42.85041" lon="2.58757">
        <ele>330</ele>
        <time>2021-06-05T15:54:19Z</time>
      </trkpt>
      <trkpt lat="42.85046" lon="2.58746">
        <ele>330.8</ele>
        <time>2021-06-05T15:54:24Z</time>
      </trkpt>
      <trkpt lat="42.8505" lon="2.58737">
        <ele>331</ele>
        <time>2021-06-05T15:54:28Z</time>
      </trkpt>
      <trkpt lat="42.85054" lon="2.58728">
        <ele>331.6</ele>
        <time>2021-06-05T15:54:32Z</time>
      </trkpt>
      <trkpt lat="42.85059" lon="2.5872">
        <ele>331.8</ele>
        <time>2021-06-05T15:54:36Z</time>
      </trkpt>
      <trkpt lat="42.85064" lon="2.5871">
        <ele>331.8</ele>
        <time>2021-06-05T15:54:40Z</time>
      </trkpt>
      <trkpt lat="42.85071" lon="2.58701">
        <ele>331.8</ele>
        <time>2021-06-05T15:54:44Z</time>
      </trkpt>
      <trkpt lat="42.85079" lon="2.5869">
        <ele>331.6</ele>
        <time>2021-06-05T15:54:48Z</time>
      </trkpt>
      <trkpt lat="42.85088" lon="2.58677">
        <ele>331.6</ele>
        <time>2021-06-05T15:54:52Z</time>
      </trkpt>
      <trkpt lat="42.85099" lon="2.58664">
        <ele>331.2</ele>
        <time>2021-06-05T15:54:56Z</time>
      </trkpt>
      <trkpt lat="42.85109" lon="2.58652">
        <ele>331.6</ele>
        <time>2021-06-05T15:55:00Z</time>
      </trkpt>
      <trkpt lat="42.8512" lon="2.58639">
        <ele>331.8</ele>
        <time>2021-06-05T15:55:04Z</time>
      </trkpt>
      <trkpt lat="42.85129" lon="2.58627">
        <ele>332.2</ele>
        <time>2021-06-05T15:55:08Z</time>
      </trkpt>
      <trkpt lat="42.85136" lon="2.58616">
        <ele>332.4</ele>
        <time>2021-06-05T15:55:12Z</time>
      </trkpt>
      <trkpt lat="42.85143" lon="2.58605">
        <ele>332.6</ele>
        <time>2021-06-05T15:55:16Z</time>
      </trkpt>
      <trkpt lat="42.85149" lon="2.58592">
        <ele>333</ele>
        <time>2021-06-05T15:55:20Z</time>
      </trkpt>
      <trkpt lat="42.85154" lon="2.58579">
        <ele>333.4</ele>
        <time>2021-06-05T15:55:24Z</time>
      </trkpt>
      <trkpt lat="42.85157" lon="2.58565">
        <ele>333.8</ele>
        <time>2021-06-05T15:55:28Z</time>
      </trkpt>
      <trkpt lat="42.85161" lon="2.58551">
        <ele>334.2</ele>
        <time>2021-06-05T15:55:32Z</time>
      </trkpt>
      <trkpt lat="42.85162" lon="2.58535">
        <ele>334.6</ele>
        <time>2021-06-05T15:55:36Z</time>
      </trkpt>
      <trkpt lat="42.85162" lon="2.5852">
        <ele>335</ele>
        <time>2021-06-05T15:55:40Z</time>
      </trkpt>
      <trkpt lat="42.8516" lon="2.585">
        <ele>335.4</ele>
        <time>2021-06-05T15:55:45Z</time>
      </trkpt>
      <trkpt lat="42.85157" lon="2.58483">
        <ele>335.2</ele>
        <time>2021-06-05T15:55:49Z</time>
      </trkpt>
      <trkpt lat="42.85153" lon="2.58466">
        <ele>335</ele>
        <time>2021-06-05T15:55:53Z</time>
      </trkpt>
      <trkpt lat="42.8515" lon="2.5845">
        <ele>335.2</ele>
        <time>2021-06-05T15:55:57Z</time>
      </trkpt>
      <trkpt lat="42.85147" lon="2.58435">
        <ele>335.6</ele>
        <time>2021-06-05T15:56:01Z</time>
      </trkpt>
      <trkpt lat="42.85143" lon="2.5842">
        <ele>335.6</ele>
        <time>2021-06-05T15:56:05Z</time>
      </trkpt>
      <trkpt lat="42.8514" lon="2.58405">
        <ele>335.8</ele>
        <time>2021-06-05T15:56:09Z</time>
      </trkpt>
      <trkpt lat="42.85138" lon="2.5839">
        <ele>335.8</ele>
        <time>2021-06-05T15:56:13Z</time>
      </trkpt>
      <trkpt lat="42.85138" lon="2.58375">
        <ele>335.8</ele>
        <time>2021-06-05T15:56:17Z</time>
      </trkpt>
      <trkpt lat="42.8514" lon="2.5836">
        <ele>335.8</ele>
        <time>2021-06-05T15:56:21Z</time>
      </trkpt>
      <trkpt lat="42.85144" lon="2.58347">
        <ele>336.4</ele>
        <time>2021-06-05T15:56:25Z</time>
      </trkpt>
      <trkpt lat="42.85151" lon="2.58336">
        <ele>336.6</ele>
        <time>2021-06-05T15:56:29Z</time>
      </trkpt>
      <trkpt lat="42.85156" lon="2.58326">
        <ele>337.2</ele>
        <time>2021-06-05T15:56:33Z</time>
      </trkpt>
      <trkpt lat="42.85162" lon="2.58315">
        <ele>337.4</ele>
        <time>2021-06-05T15:56:37Z</time>
      </trkpt>
      <trkpt lat="42.85167" lon="2.58301">
        <ele>337.8</ele>
        <time>2021-06-05T15:56:41Z</time>
      </trkpt>
      <trkpt lat="42.85171" lon="2.58286">
        <ele>338</ele>
        <time>2021-06-05T15:56:45Z</time>
      </trkpt>
      <trkpt lat="42.85175" lon="2.58271">
        <ele>338.2</ele>
        <time>2021-06-05T15:56:49Z</time>
      </trkpt>
      <trkpt lat="42.85179" lon="2.58255">
        <ele>338.6</ele>
        <time>2021-06-05T15:56:53Z</time>
      </trkpt>
      <trkpt lat="42.85183" lon="2.5824">
        <ele>338.6</ele>
        <time>2021-06-05T15:56:57Z</time>
      </trkpt>
      <trkpt lat="42.85188" lon="2.58221">
        <ele>339</ele>
        <time>2021-06-05T15:57:02Z</time>
      </trkpt>
      <trkpt lat="42.85192" lon="2.58205">
        <ele>339.4</ele>
        <time>2021-06-05T15:57:06Z</time>
      </trkpt>
      <trkpt lat="42.85196" lon="2.58191">
        <ele>339.8</ele>
        <time>2021-06-05T15:57:10Z</time>
      </trkpt>
      <trkpt lat="42.85199" lon="2.58176">
        <ele>340</ele>
        <time>2021-06-05T15:57:14Z</time>
      </trkpt>
      <trkpt lat="42.85203" lon="2.58161">
        <ele>340.4</ele>
        <time>2021-06-05T15:57:18Z</time>
      </trkpt>
      <trkpt lat="42.85207" lon="2.58146">
        <ele>340.8</ele>
        <time>2021-06-05T15:57:22Z</time>
      </trkpt>
      <trkpt lat="42.8521" lon="2.58131">
        <ele>340.8</ele>
        <time>2021-06-05T15:57:26Z</time>
      </trkpt>
      <trkpt lat="42.85213" lon="2.58116">
        <ele>341</ele>
        <time>2021-06-05T15:57:30Z</time>
      </trkpt>
      <trkpt lat="42.85216" lon="2.58101">
        <ele>341.2</ele>
        <time>2021-06-05T15:57:34Z</time>
      </trkpt>
      <trkpt lat="42.85217" lon="2.58084">
        <ele>341.4</ele>
        <time>2021-06-05T15:57:38Z</time>
      </trkpt>
      <trkpt lat="42.8522" lon="2.58068">
        <ele>341.8</ele>
        <time>2021-06-05T15:57:42Z</time>
      </trkpt>
      <trkpt lat="42.85221" lon="2.58051">
        <ele>341.8</ele>
        <time>2021-06-05T15:57:46Z</time>
      </trkpt>
      <trkpt lat="42.85224" lon="2.58035">
        <ele>342</ele>
        <time>2021-06-05T15:57:50Z</time>
      </trkpt>
      <trkpt lat="42.85227" lon="2.58018">
        <ele>342.4</ele>
        <time>2021-06-05T15:57:54Z</time>
      </trkpt>
      <trkpt lat="42.8523" lon="2.58003">
        <ele>342.8</ele>
        <time>2021-06-05T15:57:58Z</time>
      </trkpt>
      <trkpt lat="42.85233" lon="2.57987">
        <ele>342.8</ele>
        <time>2021-06-05T15:58:02Z</time>
      </trkpt>
      <trkpt lat="42.85237" lon="2.57972">
        <ele>343</ele>
        <time>2021-06-05T15:58:06Z</time>
      </trkpt>
      <trkpt lat="42.85241" lon="2.57956">
        <ele>343.4</ele>
        <time>2021-06-05T15:58:10Z</time>
      </trkpt>
      <trkpt lat="42.85246" lon="2.57941">
        <ele>343.6</ele>
        <time>2021-06-05T15:58:14Z</time>
      </trkpt>
      <trkpt lat="42.85251" lon="2.57927">
        <ele>344</ele>
        <time>2021-06-05T15:58:18Z</time>
      </trkpt>
      <trkpt lat="42.85259" lon="2.5791">
        <ele>344.2</ele>
        <time>2021-06-05T15:58:23Z</time>
      </trkpt>
      <trkpt lat="42.85266" lon="2.57897">
        <ele>344.6</ele>
        <time>2021-06-05T15:58:27Z</time>
      </trkpt>
      <trkpt lat="42.85273" lon="2.57885">
        <ele>345</ele>
        <time>2021-06-05T15:58:31Z</time>
      </trkpt>
      <trkpt lat="42.85279" lon="2.57872">
        <ele>345.2</ele>
        <time>2021-06-05T15:58:35Z</time>
      </trkpt>
      <trkpt lat="42.85286" lon="2.57859">
        <ele>345.4</ele>
        <time>2021-06-05T15:58:39Z</time>
      </trkpt>
      <trkpt lat="42.85292" lon="2.57847">
        <ele>345.8</ele>
        <time>2021-06-05T15:58:43Z</time>
      </trkpt>
      <trkpt lat="42.85301" lon="2.57836">
        <ele>346</ele>
        <time>2021-06-05T15:58:47Z</time>
      </trkpt>
      <trkpt lat="42.85308" lon="2.57825">
        <ele>346.4</ele>
        <time>2021-06-05T15:58:51Z</time>
      </trkpt>
      <trkpt lat="42.85315" lon="2.57813">
        <ele>346.8</ele>
        <time>2021-06-05T15:58:55Z</time>
      </trkpt>
      <trkpt lat="42.85321" lon="2.578">
        <ele>346.8</ele>
        <time>2021-06-05T15:58:59Z</time>
      </trkpt>
      <trkpt lat="42.85328" lon="2.57785">
        <ele>346.8</ele>
        <time>2021-06-05T15:59:03Z</time>
      </trkpt>
      <trkpt lat="42.85334" lon="2.57771">
        <ele>347</ele>
        <time>2021-06-05T15:59:07Z</time>
      </trkpt>
      <trkpt lat="42.85341" lon="2.57756">
        <ele>347.2</ele>
        <time>2021-06-05T15:59:11Z</time>
      </trkpt>
      <trkpt lat="42.85346" lon="2.57742">
        <ele>347.4</ele>
        <time>2021-06-05T15:59:15Z</time>
      </trkpt>
      <trkpt lat="42.8535" lon="2.57728">
        <ele>347.8</ele>
        <time>2021-06-05T15:59:19Z</time>
      </trkpt>
      <trkpt lat="42.85354" lon="2.57714">
        <ele>347.8</ele>
        <time>2021-06-05T15:59:23Z</time>
      </trkpt>
      <trkpt lat="42.85356" lon="2.57699">
        <ele>348.2</ele>
        <time>2021-06-05T15:59:27Z</time>
      </trkpt>
      <trkpt lat="42.85358" lon="2.57684">
        <ele>348.4</ele>
        <time>2021-06-05T15:59:31Z</time>
      </trkpt>
      <trkpt lat="42.85361" lon="2.57669">
        <ele>348.8</ele>
        <time>2021-06-05T15:59:35Z</time>
      </trkpt>
      <trkpt lat="42.85362" lon="2.57656">
        <ele>348.8</ele>
        <time>2021-06-05T15:59:39Z</time>
      </trkpt>
      <trkpt lat="42.85365" lon="2.57639">
        <ele>348.8</ele>
        <time>2021-06-05T15:59:44Z</time>
      </trkpt>
      <trkpt lat="42.85367" lon="2.57624">
        <ele>349</ele>
        <time>2021-06-05T15:59:48Z</time>
      </trkpt>
      <trkpt lat="42.85369" lon="2.57608">
        <ele>348.8</ele>
        <time>2021-06-05T15:59:52Z</time>
      </trkpt>
      <trkpt lat="42.85371" lon="2.57591">
        <ele>348.6</ele>
        <time>2021-06-05T15:59:56Z</time>
      </trkpt>
      <trkpt lat="42.85374" lon="2.57572">
        <ele>348.2</ele>
        <time>2021-06-05T16:00:00Z</time>
      </trkpt>
      <trkpt lat="42.85376" lon="2.57553">
        <ele>348.2</ele>
        <time>2021-06-05T16:00:04Z</time>
      </trkpt>
      <trkpt lat="42.85378" lon="2.57532">
        <ele>347.8</ele>
        <time>2021-06-05T16:00:08Z</time>
      </trkpt>
      <trkpt lat="42.85382" lon="2.57511">
        <ele>347.2</ele>
        <time>2021-06-05T16:00:12Z</time>
      </trkpt>
      <trkpt lat="42.85389" lon="2.57487">
        <ele>345.8</ele>
        <time>2021-06-05T16:00:16Z</time>
      </trkpt>
      <trkpt lat="42.85395" lon="2.57459">
        <ele>344.6</ele>
        <time>2021-06-05T16:00:20Z</time>
      </trkpt>
      <trkpt lat="42.85395" lon="2.57424">
        <ele>343</ele>
        <time>2021-06-05T16:00:24Z</time>
      </trkpt>
      <trkpt lat="42.85412" lon="2.57396">
        <ele>341.6</ele>
        <time>2021-06-05T16:00:28Z</time>
      </trkpt>
      <trkpt lat="42.8544" lon="2.57389">
        <ele>340.4</ele>
        <time>2021-06-05T16:00:32Z</time>
      </trkpt>
      <trkpt lat="42.85456" lon="2.57357">
        <ele>339</ele>
        <time>2021-06-05T16:00:36Z</time>
      </trkpt>
      <trkpt lat="42.85461" lon="2.57314">
        <ele>336.8</ele>
        <time>2021-06-05T16:00:40Z</time>
      </trkpt>
      <trkpt lat="42.85487" lon="2.57288">
        <ele>334.8</ele>
        <time>2021-06-05T16:00:44Z</time>
      </trkpt>
      <trkpt lat="42.85515" lon="2.57264">
        <ele>333.4</ele>
        <time>2021-06-05T16:00:48Z</time>
      </trkpt>
      <trkpt lat="42.85518" lon="2.57218">
        <ele>331</ele>
        <time>2021-06-05T16:00:52Z</time>
      </trkpt>
      <trkpt lat="42.85519" lon="2.5717">
        <ele>328.6</ele>
        <time>2021-06-05T16:00:56Z</time>
      </trkpt>
      <trkpt lat="42.85531" lon="2.57125">
        <ele>327</ele>
        <time>2021-06-05T16:01:00Z</time>
      </trkpt>
      <trkpt lat="42.85545" lon="2.57067">
        <ele>324.6</ele>
        <time>2021-06-05T16:01:05Z</time>
      </trkpt>
      <trkpt lat="42.85557" lon="2.5702">
        <ele>322.4</ele>
        <time>2021-06-05T16:01:09Z</time>
      </trkpt>
      <trkpt lat="42.85576" lon="2.56977">
        <ele>320.4</ele>
        <time>2021-06-05T16:01:13Z</time>
      </trkpt>
      <trkpt lat="42.85606" lon="2.56943">
        <ele>317.8</ele>
        <time>2021-06-05T16:01:17Z</time>
      </trkpt>
      <trkpt lat="42.85643" lon="2.56925">
        <ele>315.4</ele>
        <time>2021-06-05T16:01:21Z</time>
      </trkpt>
      <trkpt lat="42.85684" lon="2.56919">
        <ele>313</ele>
        <time>2021-06-05T16:01:25Z</time>
      </trkpt>
      <trkpt lat="42.85726" lon="2.56912">
        <ele>309.8</ele>
        <time>2021-06-05T16:01:29Z</time>
      </trkpt>
      <trkpt lat="42.8577" lon="2.56909">
        <ele>307</ele>
        <time>2021-06-05T16:01:33Z</time>
      </trkpt>
      <trkpt lat="42.85812" lon="2.56896">
        <ele>304.6</ele>
        <time>2021-06-05T16:01:37Z</time>
      </trkpt>
      <trkpt lat="42.85829" lon="2.56847">
        <ele>302</ele>
        <time>2021-06-05T16:01:41Z</time>
      </trkpt>
      <trkpt lat="42.85848" lon="2.56801">
        <ele>299</ele>
        <time>2021-06-05T16:01:45Z</time>
      </trkpt>
      <trkpt lat="42.85883" lon="2.56785">
        <ele>298.4</ele>
        <time>2021-06-05T16:01:49Z</time>
      </trkpt>
      <trkpt lat="42.85912" lon="2.56788">
        <ele>299</ele>
        <time>2021-06-05T16:01:53Z</time>
      </trkpt>
      <trkpt lat="42.85923" lon="2.56814">
        <ele>299.6</ele>
        <time>2021-06-05T16:01:57Z</time>
      </trkpt>
      <trkpt lat="42.85926" lon="2.56833">
        <ele>300.4</ele>
        <time>2021-06-05T16:02:01Z</time>
      </trkpt>
      <trkpt lat="42.85927" lon="2.56847">
        <ele>301</ele>
        <time>2021-06-05T16:02:05Z</time>
      </trkpt>
      <trkpt lat="42.85928" lon="2.56858">
        <ele>301.4</ele>
        <time>2021-06-05T16:02:09Z</time>
      </trkpt>
      <trkpt lat="42.85928" lon="2.56869">
        <ele>302</ele>
        <time>2021-06-05T16:02:13Z</time>
      </trkpt>
      <trkpt lat="42.85928" lon="2.56881">
        <ele>302.4</ele>
        <time>2021-06-05T16:02:17Z</time>
      </trkpt>
      <trkpt lat="42.85928" lon="2.56891">
        <ele>303</ele>
        <time>2021-06-05T16:02:21Z</time>
      </trkpt>
      <trkpt lat="42.85927" lon="2.56904">
        <ele>303.6</ele>
        <time>2021-06-05T16:02:26Z</time>
      </trkpt>
      <trkpt lat="42.85928" lon="2.56915">
        <ele>304</ele>
        <time>2021-06-05T16:02:30Z</time>
      </trkpt>
      <trkpt lat="42.85929" lon="2.56926">
        <ele>304.2</ele>
        <time>2021-06-05T16:02:34Z</time>
      </trkpt>
      <trkpt lat="42.85931" lon="2.56937">
        <ele>304.8</ele>
        <time>2021-06-05T16:02:38Z</time>
      </trkpt>
      <trkpt lat="42.85933" lon="2.56948">
        <ele>305.4</ele>
        <time>2021-06-05T16:02:42Z</time>
      </trkpt>
      <trkpt lat="42.85937" lon="2.56958">
        <ele>305.8</ele>
        <time>2021-06-05T16:02:46Z</time>
      </trkpt>
      <trkpt lat="42.85942" lon="2.56968">
        <ele>306.4</ele>
        <time>2021-06-05T16:02:50Z</time>
      </trkpt>
      <trkpt lat="42.85946" lon="2.56976">
        <ele>307</ele>
        <time>2021-06-05T16:02:54Z</time>
      </trkpt>
      <trkpt lat="42.85951" lon="2.56985">
        <ele>307.6</ele>
        <time>2021-06-05T16:02:58Z</time>
      </trkpt>
      <trkpt lat="42.85957" lon="2.56992">
        <ele>308</ele>
        <time>2021-06-05T16:03:02Z</time>
      </trkpt>
      <trkpt lat="42.85963" lon="2.56998">
        <ele>308.4</ele>
        <time>2021-06-05T16:03:06Z</time>
      </trkpt>
      <trkpt lat="42.85969" lon="2.57002">
        <ele>308.4</ele>
        <time>2021-06-05T16:03:10Z</time>
      </trkpt>
      <trkpt lat="42.85977" lon="2.57007">
        <ele>309</ele>
        <time>2021-06-05T16:03:14Z</time>
      </trkpt>
      <trkpt lat="42.85985" lon="2.5701">
        <ele>309.4</ele>
        <time>2021-06-05T16:03:18Z</time>
      </trkpt>
      <trkpt lat="42.85992" lon="2.57012">
        <ele>309.6</ele>
        <time>2021-06-05T16:03:22Z</time>
      </trkpt>
      <trkpt lat="42.85996" lon="2.57014">
        <ele>309.8</ele>
        <time>2021-06-05T16:03:26Z</time>
      </trkpt>
      <trkpt lat="42.85996" lon="2.57014">
        <ele>309.8</ele>
        <time>2021-06-05T16:03:30Z</time>
      </trkpt>
      <trkpt lat="42.86012" lon="2.57018">
        <ele>311.2</ele>
        <time>2021-06-05T16:05:53Z</time>
      </trkpt>
      <trkpt lat="42.86023" lon="2.57018">
        <ele>312.2</ele>
        <time>2021-06-05T16:05:57Z</time>
      </trkpt>
      <trkpt lat="42.86033" lon="2.57018">
        <ele>312.8</ele>
        <time>2021-06-05T16:06:02Z</time>
      </trkpt>
      <trkpt lat="42.86043" lon="2.57014">
        <ele>313</ele>
        <time>2021-06-05T16:06:07Z</time>
      </trkpt>
      <trkpt lat="42.86051" lon="2.57009">
        <ele>313.4</ele>
        <time>2021-06-05T16:06:11Z</time>
      </trkpt>
      <trkpt lat="42.86057" lon="2.57002">
        <ele>313.8</ele>
        <time>2021-06-05T16:06:15Z</time>
      </trkpt>
      <trkpt lat="42.86063" lon="2.56996">
        <ele>314.4</ele>
        <time>2021-06-05T16:06:19Z</time>
      </trkpt>
      <trkpt lat="42.86068" lon="2.56987">
        <ele>315.2</ele>
        <time>2021-06-05T16:06:25Z</time>
      </trkpt>
      <trkpt lat="42.86073" lon="2.56975">
        <ele>315.8</ele>
        <time>2021-06-05T16:06:29Z</time>
      </trkpt>
      <trkpt lat="42.86076" lon="2.56966">
        <ele>316.2</ele>
        <time>2021-06-05T16:06:34Z</time>
      </trkpt>
      <trkpt lat="42.8608" lon="2.56953">
        <ele>316.8</ele>
        <time>2021-06-05T16:06:39Z</time>
      </trkpt>
      <trkpt lat="42.86085" lon="2.56937">
        <ele>317.4</ele>
        <time>2021-06-05T16:06:45Z</time>
      </trkpt>
      <trkpt lat="42.86089" lon="2.56923">
        <ele>318.2</ele>
        <time>2021-06-05T16:06:50Z</time>
      </trkpt>
      <trkpt lat="42.8609" lon="2.5691">
        <ele>319</ele>
        <time>2021-06-05T16:06:56Z</time>
      </trkpt>
      <trkpt lat="42.86093" lon="2.56897">
        <ele>319.6</ele>
        <time>2021-06-05T16:07:01Z</time>
      </trkpt>
      <trkpt lat="42.86097" lon="2.56885">
        <ele>320.2</ele>
        <time>2021-06-05T16:07:06Z</time>
      </trkpt>
      <trkpt lat="42.86099" lon="2.56875">
        <ele>320.8</ele>
        <time>2021-06-05T16:07:10Z</time>
      </trkpt>
      <trkpt lat="42.86101" lon="2.56865">
        <ele>321.2</ele>
        <time>2021-06-05T16:07:14Z</time>
      </trkpt>
      <trkpt lat="42.86104" lon="2.56856">
        <ele>321.6</ele>
        <time>2021-06-05T16:07:18Z</time>
      </trkpt>
      <trkpt lat="42.86107" lon="2.56846">
        <ele>322</ele>
        <time>2021-06-05T16:07:22Z</time>
      </trkpt>
      <trkpt lat="42.8611" lon="2.56835">
        <ele>322.6</ele>
        <time>2021-06-05T16:07:26Z</time>
      </trkpt>
      <trkpt lat="42.86113" lon="2.56826">
        <ele>323</ele>
        <time>2021-06-05T16:07:30Z</time>
      </trkpt>
      <trkpt lat="42.86116" lon="2.56813">
        <ele>323.6</ele>
        <time>2021-06-05T16:07:35Z</time>
      </trkpt>
      <trkpt lat="42.86119" lon="2.56805">
        <ele>324</ele>
        <time>2021-06-05T16:07:39Z</time>
      </trkpt>
      <trkpt lat="42.86122" lon="2.56795">
        <ele>324.6</ele>
        <time>2021-06-05T16:07:43Z</time>
      </trkpt>
      <trkpt lat="42.86127" lon="2.56784">
        <ele>325</ele>
        <time>2021-06-05T16:07:47Z</time>
      </trkpt>
      <trkpt lat="42.86132" lon="2.56774">
        <ele>325.6</ele>
        <time>2021-06-05T16:07:51Z</time>
      </trkpt>
      <trkpt lat="42.86138" lon="2.56766">
        <ele>326</ele>
        <time>2021-06-05T16:07:55Z</time>
      </trkpt>
      <trkpt lat="42.86145" lon="2.56759">
        <ele>326.4</ele>
        <time>2021-06-05T16:07:59Z</time>
      </trkpt>
      <trkpt lat="42.86154" lon="2.56754">
        <ele>326.6</ele>
        <time>2021-06-05T16:08:03Z</time>
      </trkpt>
      <trkpt lat="42.86162" lon="2.56754">
        <ele>327.2</ele>
        <time>2021-06-05T16:08:07Z</time>
      </trkpt>
      <trkpt lat="42.8617" lon="2.56757">
        <ele>327.6</ele>
        <time>2021-06-05T16:08:11Z</time>
      </trkpt>
      <trkpt lat="42.86178" lon="2.56758">
        <ele>328.2</ele>
        <time>2021-06-05T16:08:15Z</time>
      </trkpt>
      <trkpt lat="42.86187" lon="2.5676">
        <ele>328.8</ele>
        <time>2021-06-05T16:08:19Z</time>
      </trkpt>
      <trkpt lat="42.86196" lon="2.56764">
        <ele>329</ele>
        <time>2021-06-05T16:08:23Z</time>
      </trkpt>
      <trkpt lat="42.86205" lon="2.56769">
        <ele>329.4</ele>
        <time>2021-06-05T16:08:27Z</time>
      </trkpt>
      <trkpt lat="42.86214" lon="2.56776">
        <ele>330</ele>
        <time>2021-06-05T16:08:31Z</time>
      </trkpt>
      <trkpt lat="42.86222" lon="2.56783">
        <ele>330.4</ele>
        <time>2021-06-05T16:08:35Z</time>
      </trkpt>
      <trkpt lat="42.8623" lon="2.56789">
        <ele>331.2</ele>
        <time>2021-06-05T16:08:39Z</time>
      </trkpt>
      <trkpt lat="42.86237" lon="2.56797">
        <ele>331.2</ele>
        <time>2021-06-05T16:08:43Z</time>
      </trkpt>
      <trkpt lat="42.86244" lon="2.56804">
        <ele>331.6</ele>
        <time>2021-06-05T16:08:47Z</time>
      </trkpt>
      <trkpt lat="42.86251" lon="2.56812">
        <ele>332.8</ele>
        <time>2021-06-05T16:08:51Z</time>
      </trkpt>
      <trkpt lat="42.86258" lon="2.56819">
        <ele>333.4</ele>
        <time>2021-06-05T16:08:56Z</time>
      </trkpt>
      <trkpt lat="42.86265" lon="2.56823">
        <ele>333.6</ele>
        <time>2021-06-05T16:09:00Z</time>
      </trkpt>
      <trkpt lat="42.86273" lon="2.56821">
        <ele>334.4</ele>
        <time>2021-06-05T16:09:04Z</time>
      </trkpt>
      <trkpt lat="42.86277" lon="2.56817">
        <ele>335.2</ele>
        <time>2021-06-05T16:09:08Z</time>
      </trkpt>
      <trkpt lat="42.8628" lon="2.56812">
        <ele>335.6</ele>
        <time>2021-06-05T16:09:12Z</time>
      </trkpt>
      <trkpt lat="42.8628" lon="2.56812">
        <ele>335.8</ele>
        <time>2021-06-05T16:09:16Z</time>
      </trkpt>
      <trkpt lat="42.86288" lon="2.56839">
        <ele>335.2</ele>
        <time>2021-06-05T16:13:07Z</time>
      </trkpt>
      <trkpt lat="42.86296" lon="2.56846">
        <ele>335.6</ele>
        <time>2021-06-05T16:13:11Z</time>
      </trkpt>
      <trkpt lat="42.86304" lon="2.56846">
        <ele>336.4</ele>
        <time>2021-06-05T16:13:15Z</time>
      </trkpt>
      <trkpt lat="42.86311" lon="2.56845">
        <ele>336.8</ele>
        <time>2021-06-05T16:13:19Z</time>
      </trkpt>
      <trkpt lat="42.86319" lon="2.56843">
        <ele>337.6</ele>
        <time>2021-06-05T16:13:23Z</time>
      </trkpt>
      <trkpt lat="42.86326" lon="2.56839">
        <ele>338.2</ele>
        <time>2021-06-05T16:13:27Z</time>
      </trkpt>
      <trkpt lat="42.86332" lon="2.56834">
        <ele>338.6</ele>
        <time>2021-06-05T16:13:31Z</time>
      </trkpt>
      <trkpt lat="42.86338" lon="2.56827">
        <ele>339.2</ele>
        <time>2021-06-05T16:13:35Z</time>
      </trkpt>
      <trkpt lat="42.86343" lon="2.5682">
        <ele>339.6</ele>
        <time>2021-06-05T16:13:39Z</time>
      </trkpt>
      <trkpt lat="42.86348" lon="2.56814">
        <ele>340.2</ele>
        <time>2021-06-05T16:13:43Z</time>
      </trkpt>
      <trkpt lat="42.86354" lon="2.56808">
        <ele>340.4</ele>
        <time>2021-06-05T16:13:47Z</time>
      </trkpt>
      <trkpt lat="42.86359" lon="2.568">
        <ele>340.6</ele>
        <time>2021-06-05T16:13:51Z</time>
      </trkpt>
      <trkpt lat="42.86365" lon="2.56794">
        <ele>340.8</ele>
        <time>2021-06-05T16:13:55Z</time>
      </trkpt>
      <trkpt lat="42.86371" lon="2.56787">
        <ele>341.4</ele>
        <time>2021-06-05T16:13:59Z</time>
      </trkpt>
      <trkpt lat="42.86376" lon="2.56778">
        <ele>342.2</ele>
        <time>2021-06-05T16:14:04Z</time>
      </trkpt>
      <trkpt lat="42.86381" lon="2.56771">
        <ele>342.8</ele>
        <time>2021-06-05T16:14:08Z</time>
      </trkpt>
      <trkpt lat="42.86386" lon="2.56764">
        <ele>343.2</ele>
        <time>2021-06-05T16:14:12Z</time>
      </trkpt>
      <trkpt lat="42.86391" lon="2.56756">
        <ele>343.6</ele>
        <time>2021-06-05T16:14:16Z</time>
      </trkpt>
      <trkpt lat="42.86396" lon="2.56747">
        <ele>343.8</ele>
        <time>2021-06-05T16:14:20Z</time>
      </trkpt>
      <trkpt lat="42.86399" lon="2.56737">
        <ele>344</ele>
        <time>2021-06-05T16:14:24Z</time>
      </trkpt>
      <trkpt lat="42.86401" lon="2.56727">
        <ele>344.2</ele>
        <time>2021-06-05T16:14:28Z</time>
      </trkpt>
      <trkpt lat="42.86404" lon="2.56718">
        <ele>344.2</ele>
        <time>2021-06-05T16:14:32Z</time>
      </trkpt>
      <trkpt lat="42.86405" lon="2.56709">
        <ele>344.8</ele>
        <time>2021-06-05T16:14:36Z</time>
      </trkpt>
      <trkpt lat="42.86406" lon="2.56701">
        <ele>345.6</ele>
        <time>2021-06-05T16:14:40Z</time>
      </trkpt>
      <trkpt lat="42.86407" lon="2.56695">
        <ele>345.8</ele>
        <time>2021-06-05T16:14:44Z</time>
      </trkpt>
      <trkpt lat="42.86409" lon="2.56688">
        <ele>346.6</ele>
        <time>2021-06-05T16:14:48Z</time>
      </trkpt>
      <trkpt lat="42.86409" lon="2.56686">
        <ele>346.6</ele>
        <time>2021-06-05T16:14:52Z</time>
      </trkpt>
      <trkpt lat="42.86409" lon="2.56684">
        <ele>346.6</ele>
        <time>2021-06-05T16:14:56Z</time>
      </trkpt>
      <trkpt lat="42.86411" lon="2.56657">
        <ele>347.8</ele>
        <time>2021-06-05T16:15:08Z</time>
      </trkpt>
      <trkpt lat="42.86411" lon="2.56648">
        <ele>348.6</ele>
        <time>2021-06-05T16:15:12Z</time>
      </trkpt>
      <trkpt lat="42.86414" lon="2.56639">
        <ele>349</ele>
        <time>2021-06-05T16:15:16Z</time>
      </trkpt>
      <trkpt lat="42.86416" lon="2.56628">
        <ele>349.4</ele>
        <time>2021-06-05T16:15:20Z</time>
      </trkpt>
      <trkpt lat="42.86415" lon="2.56618">
        <ele>349.8</ele>
        <time>2021-06-05T16:15:24Z</time>
      </trkpt>
      <trkpt lat="42.86417" lon="2.56607">
        <ele>349.8</ele>
        <time>2021-06-05T16:15:28Z</time>
      </trkpt>
      <trkpt lat="42.86418" lon="2.56596">
        <ele>350.2</ele>
        <time>2021-06-05T16:15:33Z</time>
      </trkpt>
      <trkpt lat="42.86418" lon="2.56587">
        <ele>350.8</ele>
        <time>2021-06-05T16:15:37Z</time>
      </trkpt>
      <trkpt lat="42.86416" lon="2.56581">
        <ele>351.4</ele>
        <time>2021-06-05T16:15:41Z</time>
      </trkpt>
      <trkpt lat="42.86411" lon="2.56583">
        <ele>352.2</ele>
        <time>2021-06-05T16:15:45Z</time>
      </trkpt>
      <trkpt lat="42.86406" lon="2.56583">
        <ele>352.8</ele>
        <time>2021-06-05T16:15:49Z</time>
      </trkpt>
      <trkpt lat="42.86403" lon="2.56586">
        <ele>353.4</ele>
        <time>2021-06-05T16:15:53Z</time>
      </trkpt>
      <trkpt lat="42.864" lon="2.56585">
        <ele>353.4</ele>
        <time>2021-06-05T16:15:57Z</time>
      </trkpt>
      <trkpt lat="42.864" lon="2.56579">
        <ele>353.4</ele>
        <time>2021-06-05T16:16:01Z</time>
      </trkpt>
      <trkpt lat="42.86401" lon="2.56575">
        <ele>353.6</ele>
        <time>2021-06-05T16:16:05Z</time>
      </trkpt>
      <trkpt lat="42.86402" lon="2.56574">
        <ele>353.6</ele>
        <time>2021-06-05T16:16:09Z</time>
      </trkpt>
      <trkpt lat="42.8642" lon="2.56565">
        <ele>351.6</ele>
        <time>2021-06-05T16:23:00Z</time>
      </trkpt>
      <trkpt lat="42.86422" lon="2.56548">
        <ele>351.2</ele>
        <time>2021-06-05T16:23:04Z</time>
      </trkpt>
      <trkpt lat="42.86431" lon="2.56535">
        <ele>350.6</ele>
        <time>2021-06-05T16:23:08Z</time>
      </trkpt>
      <trkpt lat="42.86445" lon="2.56538">
        <ele>350.6</ele>
        <time>2021-06-05T16:23:12Z</time>
      </trkpt>
      <trkpt lat="42.86456" lon="2.56545">
        <ele>350.8</ele>
        <time>2021-06-05T16:23:16Z</time>
      </trkpt>
      <trkpt lat="42.86462" lon="2.5655">
        <ele>351</ele>
        <time>2021-06-05T16:23:20Z</time>
      </trkpt>
      <trkpt lat="42.86464" lon="2.56553">
        <ele>351.2</ele>
        <time>2021-06-05T16:23:24Z</time>
      </trkpt>
      <trkpt lat="42.86464" lon="2.56553">
        <ele>351.2</ele>
        <time>2021-06-05T16:23:28Z</time>
      </trkpt>
      <trkpt lat="42.86479" lon="2.56568">
        <ele>351.6</ele>
        <time>2021-06-05T16:24:07Z</time>
      </trkpt>
      <trkpt lat="42.86488" lon="2.5658">
        <ele>352.2</ele>
        <time>2021-06-05T16:24:12Z</time>
      </trkpt>
      <trkpt lat="42.86495" lon="2.56589">
        <ele>352.8</ele>
        <time>2021-06-05T16:24:16Z</time>
      </trkpt>
      <trkpt lat="42.86503" lon="2.56597">
        <ele>353.2</ele>
        <time>2021-06-05T16:24:20Z</time>
      </trkpt>
      <trkpt lat="42.8651" lon="2.56605">
        <ele>353.8</ele>
        <time>2021-06-05T16:24:24Z</time>
      </trkpt>
      <trkpt lat="42.86517" lon="2.56614">
        <ele>354.4</ele>
        <time>2021-06-05T16:24:28Z</time>
      </trkpt>
      <trkpt lat="42.86523" lon="2.56621">
        <ele>355</ele>
        <time>2021-06-05T16:24:32Z</time>
      </trkpt>
      <trkpt lat="42.8653" lon="2.56627">
        <ele>355.6</ele>
        <time>2021-06-05T16:24:36Z</time>
      </trkpt>
      <trkpt lat="42.86537" lon="2.56634">
        <ele>356.2</ele>
        <time>2021-06-05T16:24:40Z</time>
      </trkpt>
      <trkpt lat="42.86545" lon="2.56641">
        <ele>356.4</ele>
        <time>2021-06-05T16:24:44Z</time>
      </trkpt>
      <trkpt lat="42.86552" lon="2.56647">
        <ele>357</ele>
        <time>2021-06-05T16:24:48Z</time>
      </trkpt>
      <trkpt lat="42.8656" lon="2.56654">
        <ele>357.4</ele>
        <time>2021-06-05T16:24:52Z</time>
      </trkpt>
      <trkpt lat="42.86567" lon="2.56659">
        <ele>357.8</ele>
        <time>2021-06-05T16:24:56Z</time>
      </trkpt>
      <trkpt lat="42.86575" lon="2.56665">
        <ele>358.2</ele>
        <time>2021-06-05T16:25:00Z</time>
      </trkpt>
      <trkpt lat="42.86582" lon="2.56673">
        <ele>358.4</ele>
        <time>2021-06-05T16:25:04Z</time>
      </trkpt>
      <trkpt lat="42.86587" lon="2.56683">
        <ele>358.8</ele>
        <time>2021-06-05T16:25:08Z</time>
      </trkpt>
      <trkpt lat="42.86588" lon="2.56695">
        <ele>359.2</ele>
        <time>2021-06-05T16:25:12Z</time>
      </trkpt>
      <trkpt lat="42.8659" lon="2.56705">
        <ele>359.6</ele>
        <time>2021-06-05T16:25:16Z</time>
      </trkpt>
      <trkpt lat="42.86596" lon="2.56715">
        <ele>360.2</ele>
        <time>2021-06-05T16:25:20Z</time>
      </trkpt>
      <trkpt lat="42.86603" lon="2.56721">
        <ele>360.6</ele>
        <time>2021-06-05T16:25:24Z</time>
      </trkpt>
      <trkpt lat="42.8661" lon="2.56724">
        <ele>361.2</ele>
        <time>2021-06-05T16:25:28Z</time>
      </trkpt>
      <trkpt lat="42.86616" lon="2.56724">
        <ele>361.6</ele>
        <time>2021-06-05T16:25:33Z</time>
      </trkpt>
      <trkpt lat="42.86623" lon="2.56724">
        <ele>361.8</ele>
        <time>2021-06-05T16:25:37Z</time>
      </trkpt>
      <trkpt lat="42.86629" lon="2.56726">
        <ele>362</ele>
        <time>2021-06-05T16:25:41Z</time>
      </trkpt>
      <trkpt lat="42.86635" lon="2.56728">
        <ele>362.4</ele>
        <time>2021-06-05T16:25:45Z</time>
      </trkpt>
      <trkpt lat="42.86642" lon="2.56731">
        <ele>363</ele>
        <time>2021-06-05T16:25:49Z</time>
      </trkpt>
      <trkpt lat="42.86648" lon="2.56734">
        <ele>363.4</ele>
        <time>2021-06-05T16:25:53Z</time>
      </trkpt>
      <trkpt lat="42.86654" lon="2.56739">
        <ele>363.6</ele>
        <time>2021-06-05T16:25:57Z</time>
      </trkpt>
      <trkpt lat="42.8666" lon="2.56744">
        <ele>363.8</ele>
        <time>2021-06-05T16:26:01Z</time>
      </trkpt>
      <trkpt lat="42.86666" lon="2.56751">
        <ele>364.2</ele>
        <time>2021-06-05T16:26:05Z</time>
      </trkpt>
      <trkpt lat="42.86671" lon="2.56756">
        <ele>364.4</ele>
        <time>2021-06-05T16:26:09Z</time>
      </trkpt>
      <trkpt lat="42.86677" lon="2.56761">
        <ele>365</ele>
        <time>2021-06-05T16:26:13Z</time>
      </trkpt>
      <trkpt lat="42.86683" lon="2.56766">
        <ele>365.4</ele>
        <time>2021-06-05T16:26:17Z</time>
      </trkpt>
      <trkpt lat="42.8669" lon="2.5677">
        <ele>365.8</ele>
        <time>2021-06-05T16:26:21Z</time>
      </trkpt>
      <trkpt lat="42.86698" lon="2.56772">
        <ele>366</ele>
        <time>2021-06-05T16:26:25Z</time>
      </trkpt>
      <trkpt lat="42.86706" lon="2.56777">
        <ele>366.4</ele>
        <time>2021-06-05T16:26:29Z</time>
      </trkpt>
      <trkpt lat="42.86713" lon="2.56783">
        <ele>366.8</ele>
        <time>2021-06-05T16:26:33Z</time>
      </trkpt>
      <trkpt lat="42.86719" lon="2.5679">
        <ele>366.8</ele>
        <time>2021-06-05T16:26:37Z</time>
      </trkpt>
      <trkpt lat="42.86725" lon="2.56795">
        <ele>367.2</ele>
        <time>2021-06-05T16:26:41Z</time>
      </trkpt>
      <trkpt lat="42.86731" lon="2.56801">
        <ele>368</ele>
        <time>2021-06-05T16:26:45Z</time>
      </trkpt>
      <trkpt lat="42.86738" lon="2.56805">
        <ele>368.8</ele>
        <time>2021-06-05T16:26:49Z</time>
      </trkpt>
      <trkpt lat="42.86748" lon="2.5681">
        <ele>369.6</ele>
        <time>2021-06-05T16:26:54Z</time>
      </trkpt>
      <trkpt lat="42.86755" lon="2.56814">
        <ele>370.2</ele>
        <time>2021-06-05T16:26:58Z</time>
      </trkpt>
      <trkpt lat="42.86762" lon="2.56819">
        <ele>370.6</ele>
        <time>2021-06-05T16:27:02Z</time>
      </trkpt>
      <trkpt lat="42.86767" lon="2.56827">
        <ele>370.8</ele>
        <time>2021-06-05T16:27:06Z</time>
      </trkpt>
      <trkpt lat="42.86772" lon="2.56836">
        <ele>371.6</ele>
        <time>2021-06-05T16:27:10Z</time>
      </trkpt>
      <trkpt lat="42.86776" lon="2.56845">
        <ele>371.6</ele>
        <time>2021-06-05T16:27:14Z</time>
      </trkpt>
      <trkpt lat="42.8678" lon="2.56855">
        <ele>372</ele>
        <time>2021-06-05T16:27:18Z</time>
      </trkpt>
      <trkpt lat="42.86782" lon="2.56865">
        <ele>372.6</ele>
        <time>2021-06-05T16:27:22Z</time>
      </trkpt>
      <trkpt lat="42.86784" lon="2.56875">
        <ele>373</ele>
        <time>2021-06-05T16:27:26Z</time>
      </trkpt>
      <trkpt lat="42.86785" lon="2.56885">
        <ele>373.6</ele>
        <time>2021-06-05T16:27:30Z</time>
      </trkpt>
      <trkpt lat="42.86786" lon="2.56895">
        <ele>374</ele>
        <time>2021-06-05T16:27:34Z</time>
      </trkpt>
      <trkpt lat="42.86786" lon="2.56905">
        <ele>374.6</ele>
        <time>2021-06-05T16:27:38Z</time>
      </trkpt>
      <trkpt lat="42.86787" lon="2.5691">
        <ele>375.2</ele>
        <time>2021-06-05T16:27:42Z</time>
      </trkpt>
      <trkpt lat="42.86787" lon="2.5691">
        <ele>375</ele>
        <time>2021-06-05T16:27:46Z</time>
      </trkpt>
      <trkpt lat="42.86794" lon="2.56933">
        <ele>375.8</ele>
        <time>2021-06-05T16:28:12Z</time>
      </trkpt>
      <trkpt lat="42.86799" lon="2.56948">
        <ele>376.6</ele>
        <time>2021-06-05T16:28:16Z</time>
      </trkpt>
      <trkpt lat="42.86804" lon="2.56965">
        <ele>377.4</ele>
        <time>2021-06-05T16:28:20Z</time>
      </trkpt>
      <trkpt lat="42.86809" lon="2.5698">
        <ele>378.2</ele>
        <time>2021-06-05T16:28:24Z</time>
      </trkpt>
      <trkpt lat="42.86812" lon="2.56994">
        <ele>378.6</ele>
        <time>2021-06-05T16:28:28Z</time>
      </trkpt>
      <trkpt lat="42.86816" lon="2.57009">
        <ele>379.4</ele>
        <time>2021-06-05T16:28:32Z</time>
      </trkpt>
      <trkpt lat="42.86819" lon="2.57028">
        <ele>380.4</ele>
        <time>2021-06-05T16:28:37Z</time>
      </trkpt>
      <trkpt lat="42.86821" lon="2.57043">
        <ele>381</ele>
        <time>2021-06-05T16:28:41Z</time>
      </trkpt>
      <trkpt lat="42.86824" lon="2.57055">
        <ele>381.6</ele>
        <time>2021-06-05T16:28:45Z</time>
      </trkpt>
      <trkpt lat="42.86827" lon="2.57066">
        <ele>382.2</ele>
        <time>2021-06-05T16:28:49Z</time>
      </trkpt>
      <trkpt lat="42.86831" lon="2.57077">
        <ele>382.6</ele>
        <time>2021-06-05T16:28:53Z</time>
      </trkpt>
      <trkpt lat="42.86835" lon="2.57087">
        <ele>383.2</ele>
        <time>2021-06-05T16:28:57Z</time>
      </trkpt>
      <trkpt lat="42.8684" lon="2.57095">
        <ele>383.6</ele>
        <time>2021-06-05T16:29:01Z</time>
      </trkpt>
      <trkpt lat="42.86845" lon="2.57104">
        <ele>384</ele>
        <time>2021-06-05T16:29:05Z</time>
      </trkpt>
      <trkpt lat="42.86849" lon="2.57111">
        <ele>384.2</ele>
        <time>2021-06-05T16:29:09Z</time>
      </trkpt>
      <trkpt lat="42.86854" lon="2.57118">
        <ele>384.8</ele>
        <time>2021-06-05T16:29:13Z</time>
      </trkpt>
      <trkpt lat="42.8686" lon="2.57124">
        <ele>385.4</ele>
        <time>2021-06-05T16:29:17Z</time>
      </trkpt>
      <trkpt lat="42.86865" lon="2.5713">
        <ele>386</ele>
        <time>2021-06-05T16:29:21Z</time>
      </trkpt>
      <trkpt lat="42.86871" lon="2.57136">
        <ele>386.4</ele>
        <time>2021-06-05T16:29:25Z</time>
      </trkpt>
      <trkpt lat="42.86877" lon="2.57139">
        <ele>386.8</ele>
        <time>2021-06-05T16:29:29Z</time>
      </trkpt>
      <trkpt lat="42.86884" lon="2.57142">
        <ele>387.2</ele>
        <time>2021-06-05T16:29:33Z</time>
      </trkpt>
      <trkpt lat="42.86891" lon="2.57143">
        <ele>387.8</ele>
        <time>2021-06-05T16:29:37Z</time>
      </trkpt>
      <trkpt lat="42.86898" lon="2.57144">
        <ele>388.2</ele>
        <time>2021-06-05T16:29:41Z</time>
      </trkpt>
      <trkpt lat="42.86904" lon="2.57145">
        <ele>388.8</ele>
        <time>2021-06-05T16:29:45Z</time>
      </trkpt>
      <trkpt lat="42.86911" lon="2.57145">
        <ele>389.2</ele>
        <time>2021-06-05T16:29:49Z</time>
      </trkpt>
      <trkpt lat="42.86919" lon="2.57148">
        <ele>389.8</ele>
        <time>2021-06-05T16:29:54Z</time>
      </trkpt>
      <trkpt lat="42.86926" lon="2.57152">
        <ele>390</ele>
        <time>2021-06-05T16:29:58Z</time>
      </trkpt>
      <trkpt lat="42.86932" lon="2.57157">
        <ele>390.6</ele>
        <time>2021-06-05T16:30:02Z</time>
      </trkpt>
      <trkpt lat="42.86939" lon="2.57162">
        <ele>391.2</ele>
        <time>2021-06-05T16:30:06Z</time>
      </trkpt>
      <trkpt lat="42.86944" lon="2.57169">
        <ele>391.8</ele>
        <time>2021-06-05T16:30:10Z</time>
      </trkpt>
      <trkpt lat="42.86946" lon="2.57176">
        <ele>392.2</ele>
        <time>2021-06-05T16:30:14Z</time>
      </trkpt>
      <trkpt lat="42.86951" lon="2.57182">
        <ele>392.8</ele>
        <time>2021-06-05T16:30:18Z</time>
      </trkpt>
      <trkpt lat="42.86956" lon="2.57187">
        <ele>393.2</ele>
        <time>2021-06-05T16:30:22Z</time>
      </trkpt>
      <trkpt lat="42.86962" lon="2.57191">
        <ele>393.4</ele>
        <time>2021-06-05T16:30:26Z</time>
      </trkpt>
      <trkpt lat="42.86967" lon="2.57197">
        <ele>393.8</ele>
        <time>2021-06-05T16:30:30Z</time>
      </trkpt>
      <trkpt lat="42.86973" lon="2.57203">
        <ele>394.2</ele>
        <time>2021-06-05T16:30:34Z</time>
      </trkpt>
      <trkpt lat="42.86978" lon="2.57207">
        <ele>394.8</ele>
        <time>2021-06-05T16:30:38Z</time>
      </trkpt>
      <trkpt lat="42.86983" lon="2.57211">
        <ele>395.4</ele>
        <time>2021-06-05T16:30:42Z</time>
      </trkpt>
      <trkpt lat="42.86989" lon="2.57216">
        <ele>396.2</ele>
        <time>2021-06-05T16:30:46Z</time>
      </trkpt>
      <trkpt lat="42.86995" lon="2.57221">
        <ele>396.6</ele>
        <time>2021-06-05T16:30:50Z</time>
      </trkpt>
      <trkpt lat="42.87" lon="2.57226">
        <ele>396.8</ele>
        <time>2021-06-05T16:30:54Z</time>
      </trkpt>
      <trkpt lat="42.87005" lon="2.57232">
        <ele>397.2</ele>
        <time>2021-06-05T16:30:58Z</time>
      </trkpt>
      <trkpt lat="42.87009" lon="2.57239">
        <ele>397.8</ele>
        <time>2021-06-05T16:31:02Z</time>
      </trkpt>
      <trkpt lat="42.87013" lon="2.57246">
        <ele>398.4</ele>
        <time>2021-06-05T16:31:06Z</time>
      </trkpt>
      <trkpt lat="42.87018" lon="2.57252">
        <ele>399.2</ele>
        <time>2021-06-05T16:31:10Z</time>
      </trkpt>
      <trkpt lat="42.87024" lon="2.57258">
        <ele>399.8</ele>
        <time>2021-06-05T16:31:15Z</time>
      </trkpt>
      <trkpt lat="42.87029" lon="2.57263">
        <ele>400.6</ele>
        <time>2021-06-05T16:31:19Z</time>
      </trkpt>
      <trkpt lat="42.87035" lon="2.57268">
        <ele>401</ele>
        <time>2021-06-05T16:31:23Z</time>
      </trkpt>
      <trkpt lat="42.87042" lon="2.57271">
        <ele>401.4</ele>
        <time>2021-06-05T16:31:27Z</time>
      </trkpt>
      <trkpt lat="42.87049" lon="2.57273">
        <ele>401.8</ele>
        <time>2021-06-05T16:31:31Z</time>
      </trkpt>
      <trkpt lat="42.87055" lon="2.57274">
        <ele>402.2</ele>
        <time>2021-06-05T16:31:35Z</time>
      </trkpt>
      <trkpt lat="42.87062" lon="2.57275">
        <ele>402.4</ele>
        <time>2021-06-05T16:31:39Z</time>
      </trkpt>
      <trkpt lat="42.8707" lon="2.57275">
        <ele>402.8</ele>
        <time>2021-06-05T16:31:43Z</time>
      </trkpt>
      <trkpt lat="42.8708" lon="2.57276">
        <ele>402.8</ele>
        <time>2021-06-05T16:31:47Z</time>
      </trkpt>
      <trkpt lat="42.87092" lon="2.57276">
        <ele>402.6</ele>
        <time>2021-06-05T16:31:51Z</time>
      </trkpt>
      <trkpt lat="42.87107" lon="2.57277">
        <ele>401.6</ele>
        <time>2021-06-05T16:31:55Z</time>
      </trkpt>
      <trkpt lat="42.87126" lon="2.57279">
        <ele>400.6</ele>
        <time>2021-06-05T16:31:59Z</time>
      </trkpt>
      <trkpt lat="42.87149" lon="2.5728">
        <ele>399.8</ele>
        <time>2021-06-05T16:32:03Z</time>
      </trkpt>
      <trkpt lat="42.87172" lon="2.57281">
        <ele>398</ele>
        <time>2021-06-05T16:32:07Z</time>
      </trkpt>
      <trkpt lat="42.87198" lon="2.57276">
        <ele>397</ele>
        <time>2021-06-05T16:32:11Z</time>
      </trkpt>
      <trkpt lat="42.87219" lon="2.57254">
        <ele>396.2</ele>
        <time>2021-06-05T16:32:15Z</time>
      </trkpt>
      <trkpt lat="42.87233" lon="2.57227">
        <ele>396</ele>
        <time>2021-06-05T16:32:19Z</time>
      </trkpt>
      <trkpt lat="42.87249" lon="2.57206">
        <ele>395.8</ele>
        <time>2021-06-05T16:32:23Z</time>
      </trkpt>
      <trkpt lat="42.87265" lon="2.57197">
        <ele>396</ele>
        <time>2021-06-05T16:32:27Z</time>
      </trkpt>
      <trkpt lat="42.87281" lon="2.57192">
        <ele>396.6</ele>
        <time>2021-06-05T16:32:31Z</time>
      </trkpt>
      <trkpt lat="42.873" lon="2.57186">
        <ele>397</ele>
        <time>2021-06-05T16:32:36Z</time>
      </trkpt>
      <trkpt lat="42.87315" lon="2.57182">
        <ele>397.6</ele>
        <time>2021-06-05T16:32:40Z</time>
      </trkpt>
      <trkpt lat="42.87329" lon="2.57178">
        <ele>398.2</ele>
        <time>2021-06-05T16:32:44Z</time>
      </trkpt>
      <trkpt lat="42.87343" lon="2.57174">
        <ele>398.6</ele>
        <time>2021-06-05T16:32:48Z</time>
      </trkpt>
      <trkpt lat="42.87356" lon="2.5717">
        <ele>399</ele>
        <time>2021-06-05T16:32:52Z</time>
      </trkpt>
      <trkpt lat="42.8737" lon="2.57165">
        <ele>399.4</ele>
        <time>2021-06-05T16:32:56Z</time>
      </trkpt>
      <trkpt lat="42.87382" lon="2.57161">
        <ele>399.8</ele>
        <time>2021-06-05T16:33:00Z</time>
      </trkpt>
      <trkpt lat="42.87394" lon="2.57156">
        <ele>400.2</ele>
        <time>2021-06-05T16:33:04Z</time>
      </trkpt>
      <trkpt lat="42.87406" lon="2.57148">
        <ele>400</ele>
        <time>2021-06-05T16:33:08Z</time>
      </trkpt>
      <trkpt lat="42.87418" lon="2.57135">
        <ele>399.8</ele>
        <time>2021-06-05T16:33:12Z</time>
      </trkpt>
      <trkpt lat="42.8743" lon="2.5712">
        <ele>399.8</ele>
        <time>2021-06-05T16:33:16Z</time>
      </trkpt>
      <trkpt lat="42.8744" lon="2.57103">
        <ele>399.4</ele>
        <time>2021-06-05T16:33:20Z</time>
      </trkpt>
      <trkpt lat="42.87447" lon="2.57078">
        <ele>398.6</ele>
        <time>2021-06-05T16:33:24Z</time>
      </trkpt>
      <trkpt lat="42.87452" lon="2.57048">
        <ele>397.8</ele>
        <time>2021-06-05T16:33:28Z</time>
      </trkpt>
      <trkpt lat="42.87458" lon="2.57017">
        <ele>397</ele>
        <time>2021-06-05T16:33:32Z</time>
      </trkpt>
      <trkpt lat="42.87467" lon="2.56984">
        <ele>395.8</ele>
        <time>2021-06-05T16:33:36Z</time>
      </trkpt>
      <trkpt lat="42.87479" lon="2.56953">
        <ele>395.2</ele>
        <time>2021-06-05T16:33:40Z</time>
      </trkpt>
      <trkpt lat="42.87498" lon="2.56931">
        <ele>394.8</ele>
        <time>2021-06-05T16:33:44Z</time>
      </trkpt>
      <trkpt lat="42.87518" lon="2.56911">
        <ele>394.2</ele>
        <time>2021-06-05T16:33:48Z</time>
      </trkpt>
      <trkpt lat="42.87537" lon="2.5689">
        <ele>394</ele>
        <time>2021-06-05T16:33:52Z</time>
      </trkpt>
      <trkpt lat="42.87563" lon="2.56865">
        <ele>392.8</ele>
        <time>2021-06-05T16:33:57Z</time>
      </trkpt>
      <trkpt lat="42.87583" lon="2.56843">
        <ele>392.4</ele>
        <time>2021-06-05T16:34:01Z</time>
      </trkpt>
      <trkpt lat="42.87604" lon="2.56822">
        <ele>391.4</ele>
        <time>2021-06-05T16:34:05Z</time>
      </trkpt>
      <trkpt lat="42.87619" lon="2.56794">
        <ele>390.6</ele>
        <time>2021-06-05T16:34:09Z</time>
      </trkpt>
      <trkpt lat="42.87627" lon="2.5676">
        <ele>389.4</ele>
        <time>2021-06-05T16:34:13Z</time>
      </trkpt>
      <trkpt lat="42.87631" lon="2.56724">
        <ele>388.8</ele>
        <time>2021-06-05T16:34:17Z</time>
      </trkpt>
      <trkpt lat="42.87628" lon="2.56689">
        <ele>387.8</ele>
        <time>2021-06-05T16:34:21Z</time>
      </trkpt>
      <trkpt lat="42.87632" lon="2.56655">
        <ele>387</ele>
        <time>2021-06-05T16:34:25Z</time>
      </trkpt>
      <trkpt lat="42.8764" lon="2.56627">
        <ele>386.6</ele>
        <time>2021-06-05T16:34:29Z</time>
      </trkpt>
      <trkpt lat="42.87646" lon="2.566">
        <ele>386.4</ele>
        <time>2021-06-05T16:34:33Z</time>
      </trkpt>
      <trkpt lat="42.87649" lon="2.56577">
        <ele>386.2</ele>
        <time>2021-06-05T16:34:37Z</time>
      </trkpt>
      <trkpt lat="42.87653" lon="2.56554">
        <ele>386.4</ele>
        <time>2021-06-05T16:34:41Z</time>
      </trkpt>
      <trkpt lat="42.87655" lon="2.56533">
        <ele>386.8</ele>
        <time>2021-06-05T16:34:45Z</time>
      </trkpt>
      <trkpt lat="42.87658" lon="2.56514">
        <ele>386.8</ele>
        <time>2021-06-05T16:34:49Z</time>
      </trkpt>
      <trkpt lat="42.87661" lon="2.56496">
        <ele>387.2</ele>
        <time>2021-06-05T16:34:53Z</time>
      </trkpt>
      <trkpt lat="42.87664" lon="2.56478">
        <ele>387.2</ele>
        <time>2021-06-05T16:34:57Z</time>
      </trkpt>
      <trkpt lat="42.87666" lon="2.56462">
        <ele>387.8</ele>
        <time>2021-06-05T16:35:01Z</time>
      </trkpt>
      <trkpt lat="42.87668" lon="2.56447">
        <ele>388.2</ele>
        <time>2021-06-05T16:35:05Z</time>
      </trkpt>
      <trkpt lat="42.87671" lon="2.56434">
        <ele>388.4</ele>
        <time>2021-06-05T16:35:09Z</time>
      </trkpt>
      <trkpt lat="42.87674" lon="2.5642">
        <ele>388.4</ele>
        <time>2021-06-05T16:35:13Z</time>
      </trkpt>
      <trkpt lat="42.87679" lon="2.56403">
        <ele>389.2</ele>
        <time>2021-06-05T16:35:18Z</time>
      </trkpt>
      <trkpt lat="42.87683" lon="2.56391">
        <ele>389.6</ele>
        <time>2021-06-05T16:35:22Z</time>
      </trkpt>
      <trkpt lat="42.87687" lon="2.56379">
        <ele>390</ele>
        <time>2021-06-05T16:35:26Z</time>
      </trkpt>
      <trkpt lat="42.87689" lon="2.56366">
        <ele>390.4</ele>
        <time>2021-06-05T16:35:30Z</time>
      </trkpt>
      <trkpt lat="42.8769" lon="2.56352">
        <ele>390.4</ele>
        <time>2021-06-05T16:35:34Z</time>
      </trkpt>
      <trkpt lat="42.87688" lon="2.56337">
        <ele>390.6</ele>
        <time>2021-06-05T16:35:38Z</time>
      </trkpt>
      <trkpt lat="42.87685" lon="2.56322">
        <ele>390.6</ele>
        <time>2021-06-05T16:35:42Z</time>
      </trkpt>
      <trkpt lat="42.8768" lon="2.56308">
        <ele>390.6</ele>
        <time>2021-06-05T16:35:46Z</time>
      </trkpt>
      <trkpt lat="42.87676" lon="2.56293">
        <ele>391</ele>
        <time>2021-06-05T16:35:50Z</time>
      </trkpt>
      <trkpt lat="42.87673" lon="2.56278">
        <ele>391.2</ele>
        <time>2021-06-05T16:35:54Z</time>
      </trkpt>
      <trkpt lat="42.87672" lon="2.56264">
        <ele>391.8</ele>
        <time>2021-06-05T16:35:58Z</time>
      </trkpt>
      <trkpt lat="42.87671" lon="2.56252">
        <ele>392.2</ele>
        <time>2021-06-05T16:36:02Z</time>
      </trkpt>
      <trkpt lat="42.87669" lon="2.5624">
        <ele>392.8</ele>
        <time>2021-06-05T16:36:06Z</time>
      </trkpt>
      <trkpt lat="42.87665" lon="2.56229">
        <ele>393.2</ele>
        <time>2021-06-05T16:36:10Z</time>
      </trkpt>
      <trkpt lat="42.87661" lon="2.56217">
        <ele>393.6</ele>
        <time>2021-06-05T16:36:14Z</time>
      </trkpt>
      <trkpt lat="42.87657" lon="2.56206">
        <ele>393.8</ele>
        <time>2021-06-05T16:36:18Z</time>
      </trkpt>
      <trkpt lat="42.87656" lon="2.56194">
        <ele>394</ele>
        <time>2021-06-05T16:36:22Z</time>
      </trkpt>
      <trkpt lat="42.87656" lon="2.56181">
        <ele>394.2</ele>
        <time>2021-06-05T16:36:26Z</time>
      </trkpt>
      <trkpt lat="42.8766" lon="2.56171">
        <ele>394.8</ele>
        <time>2021-06-05T16:36:30Z</time>
      </trkpt>
      <trkpt lat="42.87666" lon="2.56157">
        <ele>395.4</ele>
        <time>2021-06-05T16:36:35Z</time>
      </trkpt>
      <trkpt lat="42.87669" lon="2.56146">
        <ele>395.8</ele>
        <time>2021-06-05T16:36:39Z</time>
      </trkpt>
      <trkpt lat="42.87673" lon="2.56133">
        <ele>395.4</ele>
        <time>2021-06-05T16:36:43Z</time>
      </trkpt>
      <trkpt lat="42.87678" lon="2.56121">
        <ele>395.6</ele>
        <time>2021-06-05T16:36:47Z</time>
      </trkpt>
      <trkpt lat="42.87684" lon="2.5611">
        <ele>395.8</ele>
        <time>2021-06-05T16:36:51Z</time>
      </trkpt>
      <trkpt lat="42.87691" lon="2.56099">
        <ele>396.2</ele>
        <time>2021-06-05T16:36:55Z</time>
      </trkpt>
      <trkpt lat="42.877" lon="2.56091">
        <ele>396.8</ele>
        <time>2021-06-05T16:36:59Z</time>
      </trkpt>
      <trkpt lat="42.87709" lon="2.56083">
        <ele>397.4</ele>
        <time>2021-06-05T16:37:03Z</time>
      </trkpt>
      <trkpt lat="42.87716" lon="2.56076">
        <ele>397.8</ele>
        <time>2021-06-05T16:37:07Z</time>
      </trkpt>
      <trkpt lat="42.87724" lon="2.56069">
        <ele>397.8</ele>
        <time>2021-06-05T16:37:11Z</time>
      </trkpt>
      <trkpt lat="42.87732" lon="2.56061">
        <ele>398</ele>
        <time>2021-06-05T16:37:15Z</time>
      </trkpt>
      <trkpt lat="42.87738" lon="2.56052">
        <ele>398.4</ele>
        <time>2021-06-05T16:37:19Z</time>
      </trkpt>
      <trkpt lat="42.87744" lon="2.56042">
        <ele>398.4</ele>
        <time>2021-06-05T16:37:23Z</time>
      </trkpt>
      <trkpt lat="42.87747" lon="2.56031">
        <ele>398.8</ele>
        <time>2021-06-05T16:37:27Z</time>
      </trkpt>
      <trkpt lat="42.87748" lon="2.56018">
        <ele>399.2</ele>
        <time>2021-06-05T16:37:31Z</time>
      </trkpt>
      <trkpt lat="42.87749" lon="2.56005">
        <ele>399.4</ele>
        <time>2021-06-05T16:37:35Z</time>
      </trkpt>
      <trkpt lat="42.87749" lon="2.55992">
        <ele>399.6</ele>
        <time>2021-06-05T16:37:39Z</time>
      </trkpt>
      <trkpt lat="42.87749" lon="2.55978">
        <ele>399.8</ele>
        <time>2021-06-05T16:37:43Z</time>
      </trkpt>
      <trkpt lat="42.87749" lon="2.55966">
        <ele>400</ele>
        <time>2021-06-05T16:37:47Z</time>
      </trkpt>
      <trkpt lat="42.8775" lon="2.55953">
        <ele>400.4</ele>
        <time>2021-06-05T16:37:51Z</time>
      </trkpt>
      <trkpt lat="42.87751" lon="2.55938">
        <ele>400.8</ele>
        <time>2021-06-05T16:37:56Z</time>
      </trkpt>
      <trkpt lat="42.87751" lon="2.55926">
        <ele>401</ele>
        <time>2021-06-05T16:38:00Z</time>
      </trkpt>
      <trkpt lat="42.87751" lon="2.55915">
        <ele>401.4</ele>
        <time>2021-06-05T16:38:04Z</time>
      </trkpt>
      <trkpt lat="42.87751" lon="2.55904">
        <ele>402</ele>
        <time>2021-06-05T16:38:08Z</time>
      </trkpt>
      <trkpt lat="42.87751" lon="2.55892">
        <ele>402</ele>
        <time>2021-06-05T16:38:12Z</time>
      </trkpt>
      <trkpt lat="42.8775" lon="2.5588">
        <ele>402.4</ele>
        <time>2021-06-05T16:38:16Z</time>
      </trkpt>
      <trkpt lat="42.87748" lon="2.55869">
        <ele>402.6</ele>
        <time>2021-06-05T16:38:20Z</time>
      </trkpt>
      <trkpt lat="42.87745" lon="2.55858">
        <ele>402.8</ele>
        <time>2021-06-05T16:38:24Z</time>
      </trkpt>
      <trkpt lat="42.87741" lon="2.55848">
        <ele>403</ele>
        <time>2021-06-05T16:38:28Z</time>
      </trkpt>
      <trkpt lat="42.87738" lon="2.55837">
        <ele>403.4</ele>
        <time>2021-06-05T16:38:32Z</time>
      </trkpt>
      <trkpt lat="42.87735" lon="2.55825">
        <ele>403.6</ele>
        <time>2021-06-05T16:38:36Z</time>
      </trkpt>
      <trkpt lat="42.87733" lon="2.55813">
        <ele>404</ele>
        <time>2021-06-05T16:38:40Z</time>
      </trkpt>
      <trkpt lat="42.87732" lon="2.55802">
        <ele>404.4</ele>
        <time>2021-06-05T16:38:44Z</time>
      </trkpt>
      <trkpt lat="42.87732" lon="2.55791">
        <ele>404.8</ele>
        <time>2021-06-05T16:38:48Z</time>
      </trkpt>
      <trkpt lat="42.87734" lon="2.55781">
        <ele>405.2</ele>
        <time>2021-06-05T16:38:52Z</time>
      </trkpt>
      <trkpt lat="42.87736" lon="2.5577">
        <ele>405.6</ele>
        <time>2021-06-05T16:38:56Z</time>
      </trkpt>
      <trkpt lat="42.87737" lon="2.55759">
        <ele>406</ele>
        <time>2021-06-05T16:39:00Z</time>
      </trkpt>
      <trkpt lat="42.8774" lon="2.55748">
        <ele>406.2</ele>
        <time>2021-06-05T16:39:04Z</time>
      </trkpt>
      <trkpt lat="42.87742" lon="2.55736">
        <ele>406.6</ele>
        <time>2021-06-05T16:39:08Z</time>
      </trkpt>
      <trkpt lat="42.87745" lon="2.55724">
        <ele>407</ele>
        <time>2021-06-05T16:39:12Z</time>
      </trkpt>
      <trkpt lat="42.87748" lon="2.5571">
        <ele>407.4</ele>
        <time>2021-06-05T16:39:17Z</time>
      </trkpt>
      <trkpt lat="42.87749" lon="2.55699">
        <ele>407.6</ele>
        <time>2021-06-05T16:39:21Z</time>
      </trkpt>
      <trkpt lat="42.87751" lon="2.55688">
        <ele>408</ele>
        <time>2021-06-05T16:39:25Z</time>
      </trkpt>
      <trkpt lat="42.87752" lon="2.55677">
        <ele>408</ele>
        <time>2021-06-05T16:39:29Z</time>
      </trkpt>
      <trkpt lat="42.87753" lon="2.55665">
        <ele>408.2</ele>
        <time>2021-06-05T16:39:33Z</time>
      </trkpt>
      <trkpt lat="42.87753" lon="2.55655">
        <ele>408.6</ele>
        <time>2021-06-05T16:39:37Z</time>
      </trkpt>
      <trkpt lat="42.87754" lon="2.55645">
        <ele>408.8</ele>
        <time>2021-06-05T16:39:41Z</time>
      </trkpt>
      <trkpt lat="42.87754" lon="2.55635">
        <ele>409</ele>
        <time>2021-06-05T16:39:45Z</time>
      </trkpt>
      <trkpt lat="42.87755" lon="2.55624">
        <ele>409</ele>
        <time>2021-06-05T16:39:49Z</time>
      </trkpt>
      <trkpt lat="42.87756" lon="2.55613">
        <ele>409.2</ele>
        <time>2021-06-05T16:39:53Z</time>
      </trkpt>
      <trkpt lat="42.87759" lon="2.55602">
        <ele>409.2</ele>
        <time>2021-06-05T16:39:57Z</time>
      </trkpt>
      <trkpt lat="42.87762" lon="2.55592">
        <ele>408.8</ele>
        <time>2021-06-05T16:40:01Z</time>
      </trkpt>
      <trkpt lat="42.87763" lon="2.55583">
        <ele>408.6</ele>
        <time>2021-06-05T16:40:05Z</time>
      </trkpt>
      <trkpt lat="42.87764" lon="2.5558">
        <ele>407.8</ele>
        <time>2021-06-05T16:40:09Z</time>
      </trkpt>
      <trkpt lat="42.87763" lon="2.5558">
        <ele>407.8</ele>
        <time>2021-06-05T16:40:13Z</time>
      </trkpt>
      <trkpt lat="42.87765" lon="2.55535">
        <ele>405.8</ele>
        <time>2021-06-05T16:41:40Z</time>
      </trkpt>
      <trkpt lat="42.87763" lon="2.55527">
        <ele>405.4</ele>
        <time>2021-06-05T16:41:44Z</time>
      </trkpt>
      <trkpt lat="42.87762" lon="2.55524">
        <ele>405.4</ele>
        <time>2021-06-05T16:41:48Z</time>
      </trkpt>
      <trkpt lat="42.87761" lon="2.55519">
        <ele>405.8</ele>
        <time>2021-06-05T16:41:52Z</time>
      </trkpt>
      <trkpt lat="42.87762" lon="2.55518">
        <ele>405.6</ele>
        <time>2021-06-05T16:41:56Z</time>
      </trkpt>
      <trkpt lat="42.87776" lon="2.5552">
        <ele>405</ele>
        <time>2021-06-05T16:52:51Z</time>
      </trkpt>
      <trkpt lat="42.87786" lon="2.55508">
        <ele>404.4</ele>
        <time>2021-06-05T16:52:55Z</time>
      </trkpt>
      <trkpt lat="42.87796" lon="2.5549">
        <ele>403.4</ele>
        <time>2021-06-05T16:52:59Z</time>
      </trkpt>
      <trkpt lat="42.87807" lon="2.55465">
        <ele>402</ele>
        <time>2021-06-05T16:53:03Z</time>
      </trkpt>
      <trkpt lat="42.87818" lon="2.55438">
        <ele>400.6</ele>
        <time>2021-06-05T16:53:07Z</time>
      </trkpt>
      <trkpt lat="42.87829" lon="2.5541">
        <ele>399.4</ele>
        <time>2021-06-05T16:53:11Z</time>
      </trkpt>
      <trkpt lat="42.87842" lon="2.55382">
        <ele>397.8</ele>
        <time>2021-06-05T16:53:15Z</time>
      </trkpt>
      <trkpt lat="42.87851" lon="2.55363">
        <ele>396.8</ele>
        <time>2021-06-05T16:53:19Z</time>
      </trkpt>
      <trkpt lat="42.87857" lon="2.55347">
        <ele>395.6</ele>
        <time>2021-06-05T16:53:23Z</time>
      </trkpt>
      <trkpt lat="42.87863" lon="2.55332">
        <ele>394.8</ele>
        <time>2021-06-05T16:53:27Z</time>
      </trkpt>
      <trkpt lat="42.87868" lon="2.55314">
        <ele>394.2</ele>
        <time>2021-06-05T16:53:31Z</time>
      </trkpt>
      <trkpt lat="42.87873" lon="2.55287">
        <ele>393.4</ele>
        <time>2021-06-05T16:53:35Z</time>
      </trkpt>
      <trkpt lat="42.87878" lon="2.55255">
        <ele>392</ele>
        <time>2021-06-05T16:53:39Z</time>
      </trkpt>
      <trkpt lat="42.87881" lon="2.55219">
        <ele>390.2</ele>
        <time>2021-06-05T16:53:43Z</time>
      </trkpt>
      <trkpt lat="42.87889" lon="2.55183">
        <ele>388.4</ele>
        <time>2021-06-05T16:53:47Z</time>
      </trkpt>
      <trkpt lat="42.87902" lon="2.55149">
        <ele>386.4</ele>
        <time>2021-06-05T16:53:51Z</time>
      </trkpt>
      <trkpt lat="42.87915" lon="2.55113">
        <ele>385.4</ele>
        <time>2021-06-05T16:53:55Z</time>
      </trkpt>
      <trkpt lat="42.87917" lon="2.5507">
        <ele>383.4</ele>
        <time>2021-06-05T16:53:59Z</time>
      </trkpt>
      <trkpt lat="42.87919" lon="2.55026">
        <ele>381.4</ele>
        <time>2021-06-05T16:54:03Z</time>
      </trkpt>
      <trkpt lat="42.87914" lon="2.54985">
        <ele>379.4</ele>
        <time>2021-06-05T16:54:07Z</time>
      </trkpt>
      <trkpt lat="42.87899" lon="2.54938">
        <ele>377</ele>
        <time>2021-06-05T16:54:12Z</time>
      </trkpt>
      <trkpt lat="42.87904" lon="2.54899">
        <ele>375.6</ele>
        <time>2021-06-05T16:54:16Z</time>
      </trkpt>
      <trkpt lat="42.8791" lon="2.54858">
        <ele>373.8</ele>
        <time>2021-06-05T16:54:20Z</time>
      </trkpt>
      <trkpt lat="42.87924" lon="2.5482">
        <ele>372.2</ele>
        <time>2021-06-05T16:54:24Z</time>
      </trkpt>
      <trkpt lat="42.87933" lon="2.54777">
        <ele>370.4</ele>
        <time>2021-06-05T16:54:28Z</time>
      </trkpt>
      <trkpt lat="42.87941" lon="2.5473">
        <ele>368.2</ele>
        <time>2021-06-05T16:54:32Z</time>
      </trkpt>
      <trkpt lat="42.87959" lon="2.54692">
        <ele>366.4</ele>
        <time>2021-06-05T16:54:36Z</time>
      </trkpt>
      <trkpt lat="42.87967" lon="2.54658">
        <ele>364.8</ele>
        <time>2021-06-05T16:54:40Z</time>
      </trkpt>
      <trkpt lat="42.87969" lon="2.54626">
        <ele>363</ele>
        <time>2021-06-05T16:54:44Z</time>
      </trkpt>
      <trkpt lat="42.87975" lon="2.54608">
        <ele>362</ele>
        <time>2021-06-05T16:54:48Z</time>
      </trkpt>
      <trkpt lat="42.87984" lon="2.54606">
        <ele>361.6</ele>
        <time>2021-06-05T16:54:52Z</time>
      </trkpt>
      <trkpt lat="42.87992" lon="2.54615">
        <ele>361.6</ele>
        <time>2021-06-05T16:54:56Z</time>
      </trkpt>
      <trkpt lat="42.87999" lon="2.54624">
        <ele>361.4</ele>
        <time>2021-06-05T16:55:00Z</time>
      </trkpt>
      <trkpt lat="42.88003" lon="2.54633">
        <ele>361.2</ele>
        <time>2021-06-05T16:55:04Z</time>
      </trkpt>
      <trkpt lat="42.88005" lon="2.54637">
        <ele>360.8</ele>
        <time>2021-06-05T16:55:08Z</time>
      </trkpt>
      <trkpt lat="42.88005" lon="2.54638">
        <ele>360.8</ele>
        <time>2021-06-05T16:55:12Z</time>
      </trkpt>
      <trkpt lat="42.8801" lon="2.54667">
        <ele>360.2</ele>
        <time>2021-06-05T16:55:42Z</time>
      </trkpt>
      <trkpt lat="42.88012" lon="2.54683">
        <ele>360</ele>
        <time>2021-06-05T16:55:46Z</time>
      </trkpt>
      <trkpt lat="42.88011" lon="2.54694">
        <ele>359.6</ele>
        <time>2021-06-05T16:55:50Z</time>
      </trkpt>
      <trkpt lat="42.88011" lon="2.54696">
        <ele>359.4</ele>
        <time>2021-06-05T16:55:55Z</time>
      </trkpt>
      <trkpt lat="42.88011" lon="2.54696">
        <ele>359.2</ele>
        <time>2021-06-05T16:55:59Z</time>
      </trkpt>
      <trkpt lat="42.88011" lon="2.54655">
        <ele>360.2</ele>
        <time>2021-06-05T17:01:09Z</time>
      </trkpt>
      <trkpt lat="42.88008" lon="2.54642">
        <ele>361.2</ele>
        <time>2021-06-05T17:01:13Z</time>
      </trkpt>
      <trkpt lat="42.88004" lon="2.5463">
        <ele>361.4</ele>
        <time>2021-06-05T17:01:17Z</time>
      </trkpt>
      <trkpt lat="42.87997" lon="2.54621">
        <ele>361.8</ele>
        <time>2021-06-05T17:01:21Z</time>
      </trkpt>
      <trkpt lat="42.87989" lon="2.54612">
        <ele>361.8</ele>
        <time>2021-06-05T17:01:25Z</time>
      </trkpt>
      <trkpt lat="42.8798" lon="2.54603">
        <ele>361.8</ele>
        <time>2021-06-05T17:01:29Z</time>
      </trkpt>
      <trkpt lat="42.8797" lon="2.5459">
        <ele>361.2</ele>
        <time>2021-06-05T17:01:33Z</time>
      </trkpt>
      <trkpt lat="42.87961" lon="2.54568">
        <ele>360</ele>
        <time>2021-06-05T17:01:37Z</time>
      </trkpt>
      <trkpt lat="42.87966" lon="2.54535">
        <ele>358.6</ele>
        <time>2021-06-05T17:01:41Z</time>
      </trkpt>
      <trkpt lat="42.87978" lon="2.54502">
        <ele>357.2</ele>
        <time>2021-06-05T17:01:45Z</time>
      </trkpt>
      <trkpt lat="42.87979" lon="2.54467">
        <ele>355.4</ele>
        <time>2021-06-05T17:01:49Z</time>
      </trkpt>
      <trkpt lat="42.87979" lon="2.54445">
        <ele>354.2</ele>
        <time>2021-06-05T17:01:53Z</time>
      </trkpt>
      <trkpt lat="42.87977" lon="2.54439">
        <ele>354.2</ele>
        <time>2021-06-05T17:01:57Z</time>
      </trkpt>
      <trkpt lat="42.87975" lon="2.54434">
        <ele>354.4</ele>
        <time>2021-06-05T17:02:01Z</time>
      </trkpt>
      <trkpt lat="42.87976" lon="2.54433">
        <ele>354.4</ele>
        <time>2021-06-05T17:02:05Z</time>
      </trkpt>
      <trkpt lat="42.87976" lon="2.54433">
        <ele>354.4</ele>
        <time>2021-06-05T17:02:09Z</time>
      </trkpt>
      <trkpt lat="42.87969" lon="2.54396">
        <ele>354.6</ele>
        <time>2021-06-05T17:02:30Z</time>
      </trkpt>
      <trkpt lat="42.8797" lon="2.5438">
        <ele>354.6</ele>
        <time>2021-06-05T17:02:34Z</time>
      </trkpt>
      <trkpt lat="42.87972" lon="2.54362">
        <ele>354.8</ele>
        <time>2021-06-05T17:02:39Z</time>
      </trkpt>
      <trkpt lat="42.87972" lon="2.54348">
        <ele>355</ele>
        <time>2021-06-05T17:02:43Z</time>
      </trkpt>
      <trkpt lat="42.87972" lon="2.54338">
        <ele>355.2</ele>
        <time>2021-06-05T17:02:47Z</time>
      </trkpt>
      <trkpt lat="42.87972" lon="2.54332">
        <ele>355.2</ele>
        <time>2021-06-05T17:02:51Z</time>
      </trkpt>
      <trkpt lat="42.87973" lon="2.54332">
        <ele>355</ele>
        <time>2021-06-05T17:02:55Z</time>
      </trkpt>
      <trkpt lat="42.87973" lon="2.54355">
        <ele>354.8</ele>
        <time>2021-06-05T17:03:06Z</time>
      </trkpt>
      <trkpt lat="42.87971" lon="2.5437">
        <ele>354.8</ele>
        <time>2021-06-05T17:03:10Z</time>
      </trkpt>
      <trkpt lat="42.8797" lon="2.54386">
        <ele>354.6</ele>
        <time>2021-06-05T17:03:14Z</time>
      </trkpt>
      <trkpt lat="42.87969" lon="2.54404">
        <ele>354.6</ele>
        <time>2021-06-05T17:03:18Z</time>
      </trkpt>
      <trkpt lat="42.87972" lon="2.54422">
        <ele>354.8</ele>
        <time>2021-06-05T17:03:22Z</time>
      </trkpt>
      <trkpt lat="42.87975" lon="2.54435">
        <ele>354.8</ele>
        <time>2021-06-05T17:03:26Z</time>
      </trkpt>
      <trkpt lat="42.87986" lon="2.54434">
        <ele>353.8</ele>
        <time>2021-06-05T17:03:30Z</time>
      </trkpt>
      <trkpt lat="42.88004" lon="2.54423">
        <ele>353</ele>
        <time>2021-06-05T17:03:34Z</time>
      </trkpt>
      <trkpt lat="42.88024" lon="2.54418">
        <ele>352.8</ele>
        <time>2021-06-05T17:03:38Z</time>
      </trkpt>
      <trkpt lat="42.88044" lon="2.54412">
        <ele>352.4</ele>
        <time>2021-06-05T17:03:42Z</time>
      </trkpt>
      <trkpt lat="42.88063" lon="2.54399">
        <ele>352</ele>
        <time>2021-06-05T17:03:46Z</time>
      </trkpt>
      <trkpt lat="42.88078" lon="2.54379">
        <ele>351.4</ele>
        <time>2021-06-05T17:03:50Z</time>
      </trkpt>
      <trkpt lat="42.88088" lon="2.5436">
        <ele>351.6</ele>
        <time>2021-06-05T17:03:54Z</time>
      </trkpt>
      <trkpt lat="42.88097" lon="2.5434">
        <ele>351.8</ele>
        <time>2021-06-05T17:03:58Z</time>
      </trkpt>
      <trkpt lat="42.88102" lon="2.5432">
        <ele>351.8</ele>
        <time>2021-06-05T17:04:02Z</time>
      </trkpt>
      <trkpt lat="42.88105" lon="2.54292">
        <ele>352</ele>
        <time>2021-06-05T17:04:07Z</time>
      </trkpt>
      <trkpt lat="42.88105" lon="2.54271">
        <ele>352.2</ele>
        <time>2021-06-05T17:04:11Z</time>
      </trkpt>
      <trkpt lat="42.88103" lon="2.54251">
        <ele>352.2</ele>
        <time>2021-06-05T17:04:15Z</time>
      </trkpt>
      <trkpt lat="42.88102" lon="2.54231">
        <ele>352.4</ele>
        <time>2021-06-05T17:04:19Z</time>
      </trkpt>
      <trkpt lat="42.881" lon="2.5421">
        <ele>352.6</ele>
        <time>2021-06-05T17:04:23Z</time>
      </trkpt>
      <trkpt lat="42.88098" lon="2.54188">
        <ele>352.6</ele>
        <time>2021-06-05T17:04:27Z</time>
      </trkpt>
      <trkpt lat="42.88096" lon="2.54167">
        <ele>353</ele>
        <time>2021-06-05T17:04:31Z</time>
      </trkpt>
      <trkpt lat="42.88095" lon="2.54146">
        <ele>353</ele>
        <time>2021-06-05T17:04:35Z</time>
      </trkpt>
      <trkpt lat="42.88093" lon="2.54125">
        <ele>353.2</ele>
        <time>2021-06-05T17:04:39Z</time>
      </trkpt>
      <trkpt lat="42.88091" lon="2.54105">
        <ele>353.4</ele>
        <time>2021-06-05T17:04:43Z</time>
      </trkpt>
      <trkpt lat="42.88088" lon="2.54087">
        <ele>353.6</ele>
        <time>2021-06-05T17:04:47Z</time>
      </trkpt>
      <trkpt lat="42.88087" lon="2.54068">
        <ele>353.8</ele>
        <time>2021-06-05T17:04:51Z</time>
      </trkpt>
      <trkpt lat="42.88085" lon="2.54049">
        <ele>354.2</ele>
        <time>2021-06-05T17:04:55Z</time>
      </trkpt>
      <trkpt lat="42.88083" lon="2.54031">
        <ele>354.4</ele>
        <time>2021-06-05T17:04:59Z</time>
      </trkpt>
      <trkpt lat="42.88081" lon="2.54012">
        <ele>354.4</ele>
        <time>2021-06-05T17:05:03Z</time>
      </trkpt>
      <trkpt lat="42.8808" lon="2.53993">
        <ele>354.6</ele>
        <time>2021-06-05T17:05:07Z</time>
      </trkpt>
      <trkpt lat="42.88078" lon="2.53974">
        <ele>354.8</ele>
        <time>2021-06-05T17:05:11Z</time>
      </trkpt>
      <trkpt lat="42.88076" lon="2.53954">
        <ele>355</ele>
        <time>2021-06-05T17:05:15Z</time>
      </trkpt>
      <trkpt lat="42.88074" lon="2.53934">
        <ele>355</ele>
        <time>2021-06-05T17:05:19Z</time>
      </trkpt>
      <trkpt lat="42.88073" lon="2.53914">
        <ele>355.4</ele>
        <time>2021-06-05T17:05:23Z</time>
      </trkpt>
      <trkpt lat="42.88071" lon="2.53888">
        <ele>355.6</ele>
        <time>2021-06-05T17:05:28Z</time>
      </trkpt>
      <trkpt lat="42.88069" lon="2.53868">
        <ele>356</ele>
        <time>2021-06-05T17:05:32Z</time>
      </trkpt>
      <trkpt lat="42.88067" lon="2.53848">
        <ele>356.4</ele>
        <time>2021-06-05T17:05:36Z</time>
      </trkpt>
      <trkpt lat="42.88066" lon="2.53828">
        <ele>356.6</ele>
        <time>2021-06-05T17:05:40Z</time>
      </trkpt>
      <trkpt lat="42.88064" lon="2.53809">
        <ele>356.8</ele>
        <time>2021-06-05T17:05:44Z</time>
      </trkpt>
      <trkpt lat="42.88062" lon="2.53789">
        <ele>357</ele>
        <time>2021-06-05T17:05:48Z</time>
      </trkpt>
      <trkpt lat="42.8806" lon="2.53769">
        <ele>357.2</ele>
        <time>2021-06-05T17:05:52Z</time>
      </trkpt>
      <trkpt lat="42.88058" lon="2.53749">
        <ele>357.4</ele>
        <time>2021-06-05T17:05:56Z</time>
      </trkpt>
      <trkpt lat="42.88053" lon="2.53729">
        <ele>357.8</ele>
        <time>2021-06-05T17:06:00Z</time>
      </trkpt>
      <trkpt lat="42.88047" lon="2.53711">
        <ele>358</ele>
        <time>2021-06-05T17:06:04Z</time>
      </trkpt>
      <trkpt lat="42.88039" lon="2.53694">
        <ele>358.2</ele>
        <time>2021-06-05T17:06:08Z</time>
      </trkpt>
      <trkpt lat="42.88033" lon="2.53677">
        <ele>358.4</ele>
        <time>2021-06-05T17:06:12Z</time>
      </trkpt>
      <trkpt lat="42.88025" lon="2.53661">
        <ele>358.6</ele>
        <time>2021-06-05T17:06:16Z</time>
      </trkpt>
      <trkpt lat="42.88019" lon="2.53644">
        <ele>358.8</ele>
        <time>2021-06-05T17:06:20Z</time>
      </trkpt>
      <trkpt lat="42.88013" lon="2.53626">
        <ele>359.2</ele>
        <time>2021-06-05T17:06:24Z</time>
      </trkpt>
      <trkpt lat="42.88008" lon="2.53608">
        <ele>359.4</ele>
        <time>2021-06-05T17:06:28Z</time>
      </trkpt>
      <trkpt lat="42.88003" lon="2.5359">
        <ele>359.8</ele>
        <time>2021-06-05T17:06:32Z</time>
      </trkpt>
      <trkpt lat="42.87999" lon="2.53573">
        <ele>360</ele>
        <time>2021-06-05T17:06:36Z</time>
      </trkpt>
      <trkpt lat="42.87994" lon="2.53556">
        <ele>360.4</ele>
        <time>2021-06-05T17:06:40Z</time>
      </trkpt>
      <trkpt lat="42.8799" lon="2.53539">
        <ele>360.6</ele>
        <time>2021-06-05T17:06:44Z</time>
      </trkpt>
      <trkpt lat="42.87984" lon="2.53517">
        <ele>360.8</ele>
        <time>2021-06-05T17:06:49Z</time>
      </trkpt>
      <trkpt lat="42.87979" lon="2.53499">
        <ele>360.8</ele>
        <time>2021-06-05T17:06:53Z</time>
      </trkpt>
      <trkpt lat="42.87973" lon="2.53482">
        <ele>361.2</ele>
        <time>2021-06-05T17:06:57Z</time>
      </trkpt>
      <trkpt lat="42.87965" lon="2.53465">
        <ele>361</ele>
        <time>2021-06-05T17:07:01Z</time>
      </trkpt>
      <trkpt lat="42.87956" lon="2.53449">
        <ele>361</ele>
        <time>2021-06-05T17:07:05Z</time>
      </trkpt>
      <trkpt lat="42.87946" lon="2.53432">
        <ele>360.8</ele>
        <time>2021-06-05T17:07:09Z</time>
      </trkpt>
      <trkpt lat="42.87934" lon="2.53415">
        <ele>360.6</ele>
        <time>2021-06-05T17:07:13Z</time>
      </trkpt>
      <trkpt lat="42.87924" lon="2.53394">
        <ele>360.2</ele>
        <time>2021-06-05T17:07:17Z</time>
      </trkpt>
      <trkpt lat="42.87917" lon="2.53372">
        <ele>359.8</ele>
        <time>2021-06-05T17:07:21Z</time>
      </trkpt>
      <trkpt lat="42.87911" lon="2.53351">
        <ele>359.8</ele>
        <time>2021-06-05T17:07:25Z</time>
      </trkpt>
      <trkpt lat="42.87905" lon="2.5333">
        <ele>359.8</ele>
        <time>2021-06-05T17:07:29Z</time>
      </trkpt>
      <trkpt lat="42.87899" lon="2.53309">
        <ele>360</ele>
        <time>2021-06-05T17:07:33Z</time>
      </trkpt>
      <trkpt lat="42.87893" lon="2.5329">
        <ele>360.2</ele>
        <time>2021-06-05T17:07:37Z</time>
      </trkpt>
      <trkpt lat="42.87887" lon="2.5327">
        <ele>360.4</ele>
        <time>2021-06-05T17:07:41Z</time>
      </trkpt>
      <trkpt lat="42.87881" lon="2.53252">
        <ele>360.6</ele>
        <time>2021-06-05T17:07:45Z</time>
      </trkpt>
      <trkpt lat="42.87876" lon="2.53233">
        <ele>360.6</ele>
        <time>2021-06-05T17:07:49Z</time>
      </trkpt>
      <trkpt lat="42.87871" lon="2.53214">
        <ele>360.8</ele>
        <time>2021-06-05T17:07:53Z</time>
      </trkpt>
      <trkpt lat="42.87867" lon="2.53195">
        <ele>361</ele>
        <time>2021-06-05T17:07:57Z</time>
      </trkpt>
      <trkpt lat="42.87864" lon="2.53177">
        <ele>361.2</ele>
        <time>2021-06-05T17:08:01Z</time>
      </trkpt>
      <trkpt lat="42.87861" lon="2.53157">
        <ele>361.2</ele>
        <time>2021-06-05T17:08:06Z</time>
      </trkpt>
      <trkpt lat="42.87857" lon="2.53141">
        <ele>361.4</ele>
        <time>2021-06-05T17:08:10Z</time>
      </trkpt>
      <trkpt lat="42.87854" lon="2.53123">
        <ele>361.6</ele>
        <time>2021-06-05T17:08:14Z</time>
      </trkpt>
      <trkpt lat="42.87851" lon="2.53106">
        <ele>361.8</ele>
        <time>2021-06-05T17:08:18Z</time>
      </trkpt>
      <trkpt lat="42.87849" lon="2.5309">
        <ele>362</ele>
        <time>2021-06-05T17:08:22Z</time>
      </trkpt>
      <trkpt lat="42.87846" lon="2.53074">
        <ele>362.2</ele>
        <time>2021-06-05T17:08:26Z</time>
      </trkpt>
      <trkpt lat="42.87843" lon="2.53059">
        <ele>362.4</ele>
        <time>2021-06-05T17:08:30Z</time>
      </trkpt>
      <trkpt lat="42.87841" lon="2.53043">
        <ele>362.4</ele>
        <time>2021-06-05T17:08:34Z</time>
      </trkpt>
      <trkpt lat="42.87838" lon="2.53027">
        <ele>362.8</ele>
        <time>2021-06-05T17:08:38Z</time>
      </trkpt>
      <trkpt lat="42.87835" lon="2.53011">
        <ele>362.8</ele>
        <time>2021-06-05T17:08:42Z</time>
      </trkpt>
      <trkpt lat="42.87833" lon="2.52995">
        <ele>363.2</ele>
        <time>2021-06-05T17:08:46Z</time>
      </trkpt>
      <trkpt lat="42.8783" lon="2.52979">
        <ele>363.4</ele>
        <time>2021-06-05T17:08:50Z</time>
      </trkpt>
      <trkpt lat="42.87828" lon="2.52963">
        <ele>363.6</ele>
        <time>2021-06-05T17:08:54Z</time>
      </trkpt>
      <trkpt lat="42.87824" lon="2.52947">
        <ele>363.8</ele>
        <time>2021-06-05T17:08:58Z</time>
      </trkpt>
      <trkpt lat="42.87821" lon="2.5293">
        <ele>364.2</ele>
        <time>2021-06-05T17:09:02Z</time>
      </trkpt>
      <trkpt lat="42.87819" lon="2.52913">
        <ele>364.4</ele>
        <time>2021-06-05T17:09:06Z</time>
      </trkpt>
      <trkpt lat="42.87817" lon="2.52896">
        <ele>364.6</ele>
        <time>2021-06-05T17:09:10Z</time>
      </trkpt>
      <trkpt lat="42.87815" lon="2.5288">
        <ele>365</ele>
        <time>2021-06-05T17:09:14Z</time>
      </trkpt>
      <trkpt lat="42.87814" lon="2.52864">
        <ele>365.4</ele>
        <time>2021-06-05T17:09:18Z</time>
      </trkpt>
      <trkpt lat="42.87813" lon="2.52848">
        <ele>365.6</ele>
        <time>2021-06-05T17:09:22Z</time>
      </trkpt>
      <trkpt lat="42.87812" lon="2.52829">
        <ele>366</ele>
        <time>2021-06-05T17:09:27Z</time>
      </trkpt>
      <trkpt lat="42.87811" lon="2.52813">
        <ele>366.2</ele>
        <time>2021-06-05T17:09:31Z</time>
      </trkpt>
      <trkpt lat="42.87811" lon="2.52797">
        <ele>366.4</ele>
        <time>2021-06-05T17:09:35Z</time>
      </trkpt>
      <trkpt lat="42.8781" lon="2.52781">
        <ele>366.6</ele>
        <time>2021-06-05T17:09:39Z</time>
      </trkpt>
      <trkpt lat="42.87808" lon="2.52764">
        <ele>366.6</ele>
        <time>2021-06-05T17:09:43Z</time>
      </trkpt>
      <trkpt lat="42.87807" lon="2.52746">
        <ele>366.8</ele>
        <time>2021-06-05T17:09:47Z</time>
      </trkpt>
      <trkpt lat="42.87805" lon="2.52728">
        <ele>366.8</ele>
        <time>2021-06-05T17:09:51Z</time>
      </trkpt>
      <trkpt lat="42.87802" lon="2.52711">
        <ele>367</ele>
        <time>2021-06-05T17:09:55Z</time>
      </trkpt>
      <trkpt lat="42.878" lon="2.52694">
        <ele>367.4</ele>
        <time>2021-06-05T17:09:59Z</time>
      </trkpt>
      <trkpt lat="42.87798" lon="2.52676">
        <ele>367.6</ele>
        <time>2021-06-05T17:10:03Z</time>
      </trkpt>
      <trkpt lat="42.87796" lon="2.52659">
        <ele>367.4</ele>
        <time>2021-06-05T17:10:07Z</time>
      </trkpt>
      <trkpt lat="42.87795" lon="2.52641">
        <ele>367.4</ele>
        <time>2021-06-05T17:10:11Z</time>
      </trkpt>
      <trkpt lat="42.87795" lon="2.52624">
        <ele>367.4</ele>
        <time>2021-06-05T17:10:15Z</time>
      </trkpt>
      <trkpt lat="42.878" lon="2.52608">
        <ele>367.6</ele>
        <time>2021-06-05T17:10:19Z</time>
      </trkpt>
      <trkpt lat="42.87805" lon="2.52594">
        <ele>367.8</ele>
        <time>2021-06-05T17:10:23Z</time>
      </trkpt>
      <trkpt lat="42.8781" lon="2.52579">
        <ele>368</ele>
        <time>2021-06-05T17:10:27Z</time>
      </trkpt>
      <trkpt lat="42.87816" lon="2.52564">
        <ele>368.4</ele>
        <time>2021-06-05T17:10:31Z</time>
      </trkpt>
      <trkpt lat="42.87821" lon="2.52548">
        <ele>368.6</ele>
        <time>2021-06-05T17:10:35Z</time>
      </trkpt>
      <trkpt lat="42.87827" lon="2.52533">
        <ele>368.8</ele>
        <time>2021-06-05T17:10:39Z</time>
      </trkpt>
      <trkpt lat="42.87832" lon="2.52519">
        <ele>369</ele>
        <time>2021-06-05T17:10:43Z</time>
      </trkpt>
      <trkpt lat="42.87839" lon="2.52501">
        <ele>369.2</ele>
        <time>2021-06-05T17:10:48Z</time>
      </trkpt>
      <trkpt lat="42.87844" lon="2.52486">
        <ele>369.4</ele>
        <time>2021-06-05T17:10:52Z</time>
      </trkpt>
      <trkpt lat="42.8785" lon="2.52471">
        <ele>370</ele>
        <time>2021-06-05T17:10:56Z</time>
      </trkpt>
      <trkpt lat="42.87856" lon="2.52455">
        <ele>370</ele>
        <time>2021-06-05T17:11:00Z</time>
      </trkpt>
      <trkpt lat="42.87861" lon="2.52441">
        <ele>370.2</ele>
        <time>2021-06-05T17:11:04Z</time>
      </trkpt>
      <trkpt lat="42.87867" lon="2.52426">
        <ele>370.6</ele>
        <time>2021-06-05T17:11:08Z</time>
      </trkpt>
      <trkpt lat="42.87872" lon="2.52412">
        <ele>370.8</ele>
        <time>2021-06-05T17:11:12Z</time>
      </trkpt>
      <trkpt lat="42.87876" lon="2.52397">
        <ele>371</ele>
        <time>2021-06-05T17:11:16Z</time>
      </trkpt>
      <trkpt lat="42.87877" lon="2.5238">
        <ele>371.4</ele>
        <time>2021-06-05T17:11:20Z</time>
      </trkpt>
      <trkpt lat="42.87875" lon="2.52365">
        <ele>371.4</ele>
        <time>2021-06-05T17:11:24Z</time>
      </trkpt>
      <trkpt lat="42.87871" lon="2.52348">
        <ele>371.6</ele>
        <time>2021-06-05T17:11:28Z</time>
      </trkpt>
      <trkpt lat="42.87867" lon="2.52331">
        <ele>371.8</ele>
        <time>2021-06-05T17:11:32Z</time>
      </trkpt>
      <trkpt lat="42.87864" lon="2.52314">
        <ele>372</ele>
        <time>2021-06-05T17:11:36Z</time>
      </trkpt>
      <trkpt lat="42.87861" lon="2.52297">
        <ele>372</ele>
        <time>2021-06-05T17:11:40Z</time>
      </trkpt>
      <trkpt lat="42.87858" lon="2.5228">
        <ele>372.2</ele>
        <time>2021-06-05T17:11:44Z</time>
      </trkpt>
      <trkpt lat="42.87855" lon="2.52262">
        <ele>372.2</ele>
        <time>2021-06-05T17:11:48Z</time>
      </trkpt>
      <trkpt lat="42.87852" lon="2.52243">
        <ele>372.4</ele>
        <time>2021-06-05T17:11:52Z</time>
      </trkpt>
      <trkpt lat="42.87849" lon="2.52225">
        <ele>372.6</ele>
        <time>2021-06-05T17:11:56Z</time>
      </trkpt>
      <trkpt lat="42.87847" lon="2.52206">
        <ele>372.6</ele>
        <time>2021-06-05T17:12:00Z</time>
      </trkpt>
      <trkpt lat="42.87845" lon="2.52187">
        <ele>372.4</ele>
        <time>2021-06-05T17:12:04Z</time>
      </trkpt>
      <trkpt lat="42.87843" lon="2.52161">
        <ele>372.6</ele>
        <time>2021-06-05T17:12:09Z</time>
      </trkpt>
      <trkpt lat="42.87842" lon="2.52141">
        <ele>372.8</ele>
        <time>2021-06-05T17:12:13Z</time>
      </trkpt>
      <trkpt lat="42.87841" lon="2.52121">
        <ele>372.8</ele>
        <time>2021-06-05T17:12:17Z</time>
      </trkpt>
      <trkpt lat="42.8784" lon="2.52101">
        <ele>372.8</ele>
        <time>2021-06-05T17:12:21Z</time>
      </trkpt>
      <trkpt lat="42.87839" lon="2.52082">
        <ele>373.2</ele>
        <time>2021-06-05T17:12:25Z</time>
      </trkpt>
      <trkpt lat="42.87838" lon="2.52062">
        <ele>373.2</ele>
        <time>2021-06-05T17:12:29Z</time>
      </trkpt>
      <trkpt lat="42.87836" lon="2.52043">
        <ele>373.4</ele>
        <time>2021-06-05T17:12:33Z</time>
      </trkpt>
      <trkpt lat="42.87835" lon="2.52025">
        <ele>373.6</ele>
        <time>2021-06-05T17:12:37Z</time>
      </trkpt>
      <trkpt lat="42.87832" lon="2.52008">
        <ele>373.8</ele>
        <time>2021-06-05T17:12:41Z</time>
      </trkpt>
      <trkpt lat="42.87828" lon="2.51992">
        <ele>374.2</ele>
        <time>2021-06-05T17:12:45Z</time>
      </trkpt>
      <trkpt lat="42.87823" lon="2.51976">
        <ele>374.4</ele>
        <time>2021-06-05T17:12:49Z</time>
      </trkpt>
      <trkpt lat="42.87817" lon="2.51961">
        <ele>374.6</ele>
        <time>2021-06-05T17:12:53Z</time>
      </trkpt>
      <trkpt lat="42.87812" lon="2.51946">
        <ele>375</ele>
        <time>2021-06-05T17:12:57Z</time>
      </trkpt>
      <trkpt lat="42.87807" lon="2.51933">
        <ele>375.4</ele>
        <time>2021-06-05T17:13:01Z</time>
      </trkpt>
      <trkpt lat="42.87803" lon="2.51919">
        <ele>375.8</ele>
        <time>2021-06-05T17:13:05Z</time>
      </trkpt>
      <trkpt lat="42.87798" lon="2.51905">
        <ele>376</ele>
        <time>2021-06-05T17:13:09Z</time>
      </trkpt>
      <trkpt lat="42.87795" lon="2.51891">
        <ele>376.2</ele>
        <time>2021-06-05T17:13:13Z</time>
      </trkpt>
      <trkpt lat="42.87791" lon="2.51875">
        <ele>376.2</ele>
        <time>2021-06-05T17:13:17Z</time>
      </trkpt>
      <trkpt lat="42.87786" lon="2.51859">
        <ele>376.4</ele>
        <time>2021-06-05T17:13:21Z</time>
      </trkpt>
      <trkpt lat="42.87782" lon="2.51842">
        <ele>376.4</ele>
        <time>2021-06-05T17:13:25Z</time>
      </trkpt>
      <trkpt lat="42.87776" lon="2.51821">
        <ele>376.4</ele>
        <time>2021-06-05T17:13:30Z</time>
      </trkpt>
      <trkpt lat="42.87772" lon="2.51804">
        <ele>376.6</ele>
        <time>2021-06-05T17:13:34Z</time>
      </trkpt>
      <trkpt lat="42.87769" lon="2.51787">
        <ele>376.6</ele>
        <time>2021-06-05T17:13:38Z</time>
      </trkpt>
      <trkpt lat="42.8777" lon="2.51768">
        <ele>376.6</ele>
        <time>2021-06-05T17:13:42Z</time>
      </trkpt>
      <trkpt lat="42.87775" lon="2.51752">
        <ele>376.6</ele>
        <time>2021-06-05T17:13:46Z</time>
      </trkpt>
      <trkpt lat="42.87779" lon="2.51735">
        <ele>376.8</ele>
        <time>2021-06-05T17:13:50Z</time>
      </trkpt>
      <trkpt lat="42.87781" lon="2.51717">
        <ele>377</ele>
        <time>2021-06-05T17:13:54Z</time>
      </trkpt>
      <trkpt lat="42.87782" lon="2.51699">
        <ele>377.2</ele>
        <time>2021-06-05T17:13:58Z</time>
      </trkpt>
      <trkpt lat="42.8778" lon="2.51681">
        <ele>377.4</ele>
        <time>2021-06-05T17:14:02Z</time>
      </trkpt>
      <trkpt lat="42.87776" lon="2.51662">
        <ele>377.4</ele>
        <time>2021-06-05T17:14:06Z</time>
      </trkpt>
      <trkpt lat="42.87773" lon="2.51642">
        <ele>377.4</ele>
        <time>2021-06-05T17:14:10Z</time>
      </trkpt>
      <trkpt lat="42.87768" lon="2.51621">
        <ele>377.4</ele>
        <time>2021-06-05T17:14:14Z</time>
      </trkpt>
      <trkpt lat="42.87764" lon="2.51599">
        <ele>377.4</ele>
        <time>2021-06-05T17:14:18Z</time>
      </trkpt>
      <trkpt lat="42.8776" lon="2.51578">
        <ele>377.4</ele>
        <time>2021-06-05T17:14:22Z</time>
      </trkpt>
      <trkpt lat="42.87755" lon="2.51557">
        <ele>377.4</ele>
        <time>2021-06-05T17:14:26Z</time>
      </trkpt>
      <trkpt lat="42.87749" lon="2.51536">
        <ele>377.4</ele>
        <time>2021-06-05T17:14:30Z</time>
      </trkpt>
      <trkpt lat="42.87743" lon="2.51515">
        <ele>377.4</ele>
        <time>2021-06-05T17:14:34Z</time>
      </trkpt>
      <trkpt lat="42.87737" lon="2.51496">
        <ele>377.4</ele>
        <time>2021-06-05T17:14:38Z</time>
      </trkpt>
      <trkpt lat="42.87732" lon="2.51475">
        <ele>377.4</ele>
        <time>2021-06-05T17:14:42Z</time>
      </trkpt>
      <trkpt lat="42.87727" lon="2.51453">
        <ele>377.6</ele>
        <time>2021-06-05T17:14:47Z</time>
      </trkpt>
      <trkpt lat="42.87723" lon="2.51437">
        <ele>377.6</ele>
        <time>2021-06-05T17:14:51Z</time>
      </trkpt>
      <trkpt lat="42.87719" lon="2.51421">
        <ele>377.8</ele>
        <time>2021-06-05T17:14:55Z</time>
      </trkpt>
      <trkpt lat="42.87714" lon="2.51396">
        <ele>378.2</ele>
        <time>2021-06-05T17:15:00Z</time>
      </trkpt>
      <trkpt lat="42.87712" lon="2.51376">
        <ele>378.6</ele>
        <time>2021-06-05T17:15:06Z</time>
      </trkpt>
      <trkpt lat="42.87709" lon="2.51351">
        <ele>379.2</ele>
        <time>2021-06-05T17:15:11Z</time>
      </trkpt>
      <trkpt lat="42.87706" lon="2.51328">
        <ele>379.8</ele>
        <time>2021-06-05T17:15:17Z</time>
      </trkpt>
      <trkpt lat="42.87703" lon="2.51307">
        <ele>380.2</ele>
        <time>2021-06-05T17:15:22Z</time>
      </trkpt>
      <trkpt lat="42.877" lon="2.51284">
        <ele>380.8</ele>
        <time>2021-06-05T17:15:29Z</time>
      </trkpt>
      <trkpt lat="42.87696" lon="2.51265">
        <ele>381.2</ele>
        <time>2021-06-05T17:15:33Z</time>
      </trkpt>
      <trkpt lat="42.87693" lon="2.51249">
        <ele>381.6</ele>
        <time>2021-06-05T17:15:38Z</time>
      </trkpt>
      <trkpt lat="42.87687" lon="2.51229">
        <ele>381.8</ele>
        <time>2021-06-05T17:15:44Z</time>
      </trkpt>
      <trkpt lat="42.87682" lon="2.51208">
        <ele>382.4</ele>
        <time>2021-06-05T17:15:49Z</time>
      </trkpt>
      <trkpt lat="42.87681" lon="2.51191">
        <ele>382.8</ele>
        <time>2021-06-05T17:15:54Z</time>
      </trkpt>
      <trkpt lat="42.87682" lon="2.51175">
        <ele>383.2</ele>
        <time>2021-06-05T17:15:59Z</time>
      </trkpt>
      <trkpt lat="42.87685" lon="2.51162">
        <ele>383.4</ele>
        <time>2021-06-05T17:16:04Z</time>
      </trkpt>
      <trkpt lat="42.87693" lon="2.51147">
        <ele>383.6</ele>
        <time>2021-06-05T17:16:09Z</time>
      </trkpt>
      <trkpt lat="42.87705" lon="2.51135">
        <ele>384.2</ele>
        <time>2021-06-05T17:16:14Z</time>
      </trkpt>
      <trkpt lat="42.87715" lon="2.51131">
        <ele>384.4</ele>
        <time>2021-06-05T17:16:19Z</time>
      </trkpt>
      <trkpt lat="42.87725" lon="2.51128">
        <ele>384.6</ele>
        <time>2021-06-05T17:16:23Z</time>
      </trkpt>
      <trkpt lat="42.87738" lon="2.51126">
        <ele>385</ele>
        <time>2021-06-05T17:16:28Z</time>
      </trkpt>
      <trkpt lat="42.87748" lon="2.51124">
        <ele>385.2</ele>
        <time>2021-06-05T17:16:32Z</time>
      </trkpt>
      <trkpt lat="42.87758" lon="2.5112">
        <ele>385.6</ele>
        <time>2021-06-05T17:16:36Z</time>
      </trkpt>
      <trkpt lat="42.87767" lon="2.51115">
        <ele>385.8</ele>
        <time>2021-06-05T17:16:40Z</time>
      </trkpt>
      <trkpt lat="42.87776" lon="2.51108">
        <ele>386</ele>
        <time>2021-06-05T17:16:44Z</time>
      </trkpt>
      <trkpt lat="42.87785" lon="2.51101">
        <ele>386.2</ele>
        <time>2021-06-05T17:16:48Z</time>
      </trkpt>
      <trkpt lat="42.87794" lon="2.51092">
        <ele>386.4</ele>
        <time>2021-06-05T17:16:52Z</time>
      </trkpt>
      <trkpt lat="42.87803" lon="2.51084">
        <ele>386.6</ele>
        <time>2021-06-05T17:16:56Z</time>
      </trkpt>
      <trkpt lat="42.87813" lon="2.51075">
        <ele>386.8</ele>
        <time>2021-06-05T17:17:00Z</time>
      </trkpt>
      <trkpt lat="42.87822" lon="2.51067">
        <ele>387</ele>
        <time>2021-06-05T17:17:04Z</time>
      </trkpt>
      <trkpt lat="42.87831" lon="2.51058">
        <ele>387.4</ele>
        <time>2021-06-05T17:17:08Z</time>
      </trkpt>
      <trkpt lat="42.87838" lon="2.51049">
        <ele>387.8</ele>
        <time>2021-06-05T17:17:12Z</time>
      </trkpt>
      <trkpt lat="42.87846" lon="2.51039">
        <ele>388</ele>
        <time>2021-06-05T17:17:16Z</time>
      </trkpt>
      <trkpt lat="42.87852" lon="2.51026">
        <ele>388.2</ele>
        <time>2021-06-05T17:17:20Z</time>
      </trkpt>
      <trkpt lat="42.87858" lon="2.51012">
        <ele>388.6</ele>
        <time>2021-06-05T17:17:24Z</time>
      </trkpt>
      <trkpt lat="42.87862" lon="2.50997">
        <ele>388.8</ele>
        <time>2021-06-05T17:17:28Z</time>
      </trkpt>
      <trkpt lat="42.87865" lon="2.50983">
        <ele>389</ele>
        <time>2021-06-05T17:17:32Z</time>
      </trkpt>
      <trkpt lat="42.87866" lon="2.5097">
        <ele>389.2</ele>
        <time>2021-06-05T17:17:36Z</time>
      </trkpt>
      <trkpt lat="42.87867" lon="2.50955">
        <ele>389.4</ele>
        <time>2021-06-05T17:17:40Z</time>
      </trkpt>
      <trkpt lat="42.87866" lon="2.5094">
        <ele>389.6</ele>
        <time>2021-06-05T17:17:44Z</time>
      </trkpt>
      <trkpt lat="42.87864" lon="2.50922">
        <ele>390</ele>
        <time>2021-06-05T17:17:49Z</time>
      </trkpt>
      <trkpt lat="42.87861" lon="2.50907">
        <ele>390.4</ele>
        <time>2021-06-05T17:17:53Z</time>
      </trkpt>
      <trkpt lat="42.87857" lon="2.50892">
        <ele>390.6</ele>
        <time>2021-06-05T17:17:57Z</time>
      </trkpt>
      <trkpt lat="42.87853" lon="2.50878">
        <ele>390.8</ele>
        <time>2021-06-05T17:18:01Z</time>
      </trkpt>
      <trkpt lat="42.87847" lon="2.50863">
        <ele>391</ele>
        <time>2021-06-05T17:18:05Z</time>
      </trkpt>
      <trkpt lat="42.87841" lon="2.50849">
        <ele>391.2</ele>
        <time>2021-06-05T17:18:09Z</time>
      </trkpt>
      <trkpt lat="42.87836" lon="2.50836">
        <ele>391.6</ele>
        <time>2021-06-05T17:18:13Z</time>
      </trkpt>
      <trkpt lat="42.87831" lon="2.50821">
        <ele>391.6</ele>
        <time>2021-06-05T17:18:17Z</time>
      </trkpt>
      <trkpt lat="42.8783" lon="2.50806">
        <ele>392</ele>
        <time>2021-06-05T17:18:21Z</time>
      </trkpt>
      <trkpt lat="42.87832" lon="2.50791">
        <ele>392.2</ele>
        <time>2021-06-05T17:18:25Z</time>
      </trkpt>
      <trkpt lat="42.87836" lon="2.50778">
        <ele>392.4</ele>
        <time>2021-06-05T17:18:29Z</time>
      </trkpt>
      <trkpt lat="42.87839" lon="2.50763">
        <ele>392.6</ele>
        <time>2021-06-05T17:18:33Z</time>
      </trkpt>
      <trkpt lat="42.87844" lon="2.50748">
        <ele>392.6</ele>
        <time>2021-06-05T17:18:37Z</time>
      </trkpt>
      <trkpt lat="42.8785" lon="2.50733">
        <ele>392.6</ele>
        <time>2021-06-05T17:18:41Z</time>
      </trkpt>
      <trkpt lat="42.87854" lon="2.50718">
        <ele>392.8</ele>
        <time>2021-06-05T17:18:45Z</time>
      </trkpt>
      <trkpt lat="42.87859" lon="2.50704">
        <ele>393</ele>
        <time>2021-06-05T17:18:49Z</time>
      </trkpt>
      <trkpt lat="42.87864" lon="2.5069">
        <ele>393.2</ele>
        <time>2021-06-05T17:18:53Z</time>
      </trkpt>
      <trkpt lat="42.87869" lon="2.50675">
        <ele>393.4</ele>
        <time>2021-06-05T17:18:57Z</time>
      </trkpt>
      <trkpt lat="42.87873" lon="2.5066">
        <ele>393.8</ele>
        <time>2021-06-05T17:19:01Z</time>
      </trkpt>
      <trkpt lat="42.87878" lon="2.50645">
        <ele>393.8</ele>
        <time>2021-06-05T17:19:05Z</time>
      </trkpt>
      <trkpt lat="42.87884" lon="2.50628">
        <ele>394</ele>
        <time>2021-06-05T17:19:10Z</time>
      </trkpt>
      <trkpt lat="42.8789" lon="2.50613">
        <ele>394.2</ele>
        <time>2021-06-05T17:19:14Z</time>
      </trkpt>
      <trkpt lat="42.87896" lon="2.50601">
        <ele>394.4</ele>
        <time>2021-06-05T17:19:18Z</time>
      </trkpt>
      <trkpt lat="42.87903" lon="2.50589">
        <ele>394.4</ele>
        <time>2021-06-05T17:19:22Z</time>
      </trkpt>
      <trkpt lat="42.87911" lon="2.50576">
        <ele>394.6</ele>
        <time>2021-06-05T17:19:26Z</time>
      </trkpt>
      <trkpt lat="42.87917" lon="2.50563">
        <ele>395</ele>
        <time>2021-06-05T17:19:30Z</time>
      </trkpt>
      <trkpt lat="42.87922" lon="2.50551">
        <ele>395</ele>
        <time>2021-06-05T17:19:34Z</time>
      </trkpt>
      <trkpt lat="42.87924" lon="2.50534">
        <ele>395</ele>
        <time>2021-06-05T17:19:38Z</time>
      </trkpt>
      <trkpt lat="42.87924" lon="2.50516">
        <ele>395</ele>
        <time>2021-06-05T17:19:42Z</time>
      </trkpt>
      <trkpt lat="42.87923" lon="2.50498">
        <ele>394.6</ele>
        <time>2021-06-05T17:19:46Z</time>
      </trkpt>
      <trkpt lat="42.87916" lon="2.50478">
        <ele>394.2</ele>
        <time>2021-06-05T17:19:50Z</time>
      </trkpt>
      <trkpt lat="42.87904" lon="2.50467">
        <ele>394.4</ele>
        <time>2021-06-05T17:19:54Z</time>
      </trkpt>
      <trkpt lat="42.87897" lon="2.50459">
        <ele>394.8</ele>
        <time>2021-06-05T17:19:58Z</time>
      </trkpt>
      <trkpt lat="42.87891" lon="2.50453">
        <ele>395.4</ele>
        <time>2021-06-05T17:20:02Z</time>
      </trkpt>
      <trkpt lat="42.87888" lon="2.50452">
        <ele>395.6</ele>
        <time>2021-06-05T17:20:06Z</time>
      </trkpt>
      <trkpt lat="42.87887" lon="2.50452">
        <ele>395.6</ele>
        <time>2021-06-05T17:20:10Z</time>
      </trkpt>
      <trkpt lat="42.87878" lon="2.50438">
        <ele>396.2</ele>
        <time>2021-06-05T17:20:57Z</time>
      </trkpt>
      <trkpt lat="42.87877" lon="2.50438">
        <ele>396.2</ele>
        <time>2021-06-05T17:21:01Z</time>
      </trkpt>
      <trkpt lat="42.87877" lon="2.50434">
        <ele>396.4</ele>
        <time>2021-06-05T17:21:05Z</time>
      </trkpt>
      <trkpt lat="42.87874" lon="2.5041">
        <ele>397.8</ele>
        <time>2021-06-05T17:21:16Z</time>
      </trkpt>
      <trkpt lat="42.87873" lon="2.50401">
        <ele>398.2</ele>
        <time>2021-06-05T17:21:20Z</time>
      </trkpt>
      <trkpt lat="42.87871" lon="2.5039">
        <ele>398.6</ele>
        <time>2021-06-05T17:21:24Z</time>
      </trkpt>
      <trkpt lat="42.87869" lon="2.50379">
        <ele>398.8</ele>
        <time>2021-06-05T17:21:28Z</time>
      </trkpt>
      <trkpt lat="42.87872" lon="2.50371">
        <ele>398.8</ele>
        <time>2021-06-05T17:21:32Z</time>
      </trkpt>
      <trkpt lat="42.87878" lon="2.50369">
        <ele>399.2</ele>
        <time>2021-06-05T17:21:36Z</time>
      </trkpt>
      <trkpt lat="42.87882" lon="2.50366">
        <ele>399.6</ele>
        <time>2021-06-05T17:21:40Z</time>
      </trkpt>
      <trkpt lat="42.87884" lon="2.50359">
        <ele>399.8</ele>
        <time>2021-06-05T17:21:44Z</time>
      </trkpt>
      <trkpt lat="42.87889" lon="2.50354">
        <ele>400.6</ele>
        <time>2021-06-05T17:21:48Z</time>
      </trkpt>
      <trkpt lat="42.87893" lon="2.50352">
        <ele>401.2</ele>
        <time>2021-06-05T17:21:52Z</time>
      </trkpt>
      <trkpt lat="42.87891" lon="2.50347">
        <ele>401.2</ele>
        <time>2021-06-05T17:21:56Z</time>
      </trkpt>
      <trkpt lat="42.87886" lon="2.50357">
        <ele>400.2</ele>
        <time>2021-06-05T17:22:00Z</time>
      </trkpt>
      <trkpt lat="42.87881" lon="2.50368">
        <ele>399.8</ele>
        <time>2021-06-05T17:22:04Z</time>
      </trkpt>
      <trkpt lat="42.87875" lon="2.5037">
        <ele>399.4</ele>
        <time>2021-06-05T17:22:08Z</time>
      </trkpt>
      <trkpt lat="42.8787" lon="2.50362">
        <ele>399.2</ele>
        <time>2021-06-05T17:22:12Z</time>
      </trkpt>
      <trkpt lat="42.87869" lon="2.50349">
        <ele>399</ele>
        <time>2021-06-05T17:22:16Z</time>
      </trkpt>
      <trkpt lat="42.87867" lon="2.50335">
        <ele>399</ele>
        <time>2021-06-05T17:22:20Z</time>
      </trkpt>
      <trkpt lat="42.87865" lon="2.5032">
        <ele>399.2</ele>
        <time>2021-06-05T17:22:24Z</time>
      </trkpt>
      <trkpt lat="42.87864" lon="2.50306">
        <ele>399.6</ele>
        <time>2021-06-05T17:22:28Z</time>
      </trkpt>
      <trkpt lat="42.87863" lon="2.50293">
        <ele>399.8</ele>
        <time>2021-06-05T17:22:32Z</time>
      </trkpt>
      <trkpt lat="42.8786" lon="2.50277">
        <ele>400.4</ele>
        <time>2021-06-05T17:22:37Z</time>
      </trkpt>
      <trkpt lat="42.87859" lon="2.50262">
        <ele>400.6</ele>
        <time>2021-06-05T17:22:41Z</time>
      </trkpt>
      <trkpt lat="42.87858" lon="2.5025">
        <ele>401</ele>
        <time>2021-06-05T17:22:45Z</time>
      </trkpt>
      <trkpt lat="42.87856" lon="2.50238">
        <ele>401.4</ele>
        <time>2021-06-05T17:22:49Z</time>
      </trkpt>
      <trkpt lat="42.87855" lon="2.50226">
        <ele>401.6</ele>
        <time>2021-06-05T17:22:53Z</time>
      </trkpt>
      <trkpt lat="42.87854" lon="2.50214">
        <ele>401.8</ele>
        <time>2021-06-05T17:22:57Z</time>
      </trkpt>
      <trkpt lat="42.87851" lon="2.50203">
        <ele>402.2</ele>
        <time>2021-06-05T17:23:01Z</time>
      </trkpt>
      <trkpt lat="42.87848" lon="2.50193">
        <ele>402.4</ele>
        <time>2021-06-05T17:23:05Z</time>
      </trkpt>
      <trkpt lat="42.87846" lon="2.50183">
        <ele>402.6</ele>
        <time>2021-06-05T17:23:09Z</time>
      </trkpt>
      <trkpt lat="42.87843" lon="2.50172">
        <ele>403</ele>
        <time>2021-06-05T17:23:13Z</time>
      </trkpt>
      <trkpt lat="42.87843" lon="2.50161">
        <ele>403.4</ele>
        <time>2021-06-05T17:23:17Z</time>
      </trkpt>
      <trkpt lat="42.8784" lon="2.50152">
        <ele>403.6</ele>
        <time>2021-06-05T17:23:21Z</time>
      </trkpt>
      <trkpt lat="42.87837" lon="2.50142">
        <ele>404</ele>
        <time>2021-06-05T17:23:25Z</time>
      </trkpt>
      <trkpt lat="42.87835" lon="2.50133">
        <ele>404.4</ele>
        <time>2021-06-05T17:23:29Z</time>
      </trkpt>
      <trkpt lat="42.87831" lon="2.50125">
        <ele>405</ele>
        <time>2021-06-05T17:23:33Z</time>
      </trkpt>
      <trkpt lat="42.8783" lon="2.50114">
        <ele>405</ele>
        <time>2021-06-05T17:23:37Z</time>
      </trkpt>
      <trkpt lat="42.87828" lon="2.50104">
        <ele>405.4</ele>
        <time>2021-06-05T17:23:41Z</time>
      </trkpt>
      <trkpt lat="42.87826" lon="2.50093">
        <ele>405.8</ele>
        <time>2021-06-05T17:23:45Z</time>
      </trkpt>
      <trkpt lat="42.87825" lon="2.50082">
        <ele>406.2</ele>
        <time>2021-06-05T17:23:49Z</time>
      </trkpt>
      <trkpt lat="42.87824" lon="2.50067">
        <ele>406.4</ele>
        <time>2021-06-05T17:23:53Z</time>
      </trkpt>
      <trkpt lat="42.87824" lon="2.50054">
        <ele>406.8</ele>
        <time>2021-06-05T17:23:58Z</time>
      </trkpt>
      <trkpt lat="42.87824" lon="2.50041">
        <ele>407.2</ele>
        <time>2021-06-05T17:24:02Z</time>
      </trkpt>
      <trkpt lat="42.87824" lon="2.50027">
        <ele>407.4</ele>
        <time>2021-06-05T17:24:06Z</time>
      </trkpt>
      <trkpt lat="42.87824" lon="2.50014">
        <ele>407.6</ele>
        <time>2021-06-05T17:24:10Z</time>
      </trkpt>
      <trkpt lat="42.87824" lon="2.50001">
        <ele>407.8</ele>
        <time>2021-06-05T17:24:14Z</time>
      </trkpt>
      <trkpt lat="42.87823" lon="2.49988">
        <ele>408.2</ele>
        <time>2021-06-05T17:24:18Z</time>
      </trkpt>
      <trkpt lat="42.87824" lon="2.49976">
        <ele>408.6</ele>
        <time>2021-06-05T17:24:22Z</time>
      </trkpt>
      <trkpt lat="42.87823" lon="2.49963">
        <ele>408.8</ele>
        <time>2021-06-05T17:24:26Z</time>
      </trkpt>
      <trkpt lat="42.87821" lon="2.49947">
        <ele>409.2</ele>
        <time>2021-06-05T17:24:30Z</time>
      </trkpt>
      <trkpt lat="42.87819" lon="2.49937">
        <ele>409.4</ele>
        <time>2021-06-05T17:24:34Z</time>
      </trkpt>
      <trkpt lat="42.87818" lon="2.49924">
        <ele>409.8</ele>
        <time>2021-06-05T17:24:38Z</time>
      </trkpt>
      <trkpt lat="42.87816" lon="2.49907">
        <ele>410.2</ele>
        <time>2021-06-05T17:24:42Z</time>
      </trkpt>
      <trkpt lat="42.87814" lon="2.49896">
        <ele>410.4</ele>
        <time>2021-06-05T17:24:46Z</time>
      </trkpt>
      <trkpt lat="42.87811" lon="2.4988">
        <ele>410.8</ele>
        <time>2021-06-05T17:24:50Z</time>
      </trkpt>
      <trkpt lat="42.87809" lon="2.4987">
        <ele>411.2</ele>
        <time>2021-06-05T17:24:54Z</time>
      </trkpt>
      <trkpt lat="42.87805" lon="2.49855">
        <ele>411.4</ele>
        <time>2021-06-05T17:24:58Z</time>
      </trkpt>
      <trkpt lat="42.878" lon="2.49843">
        <ele>411.8</ele>
        <time>2021-06-05T17:25:02Z</time>
      </trkpt>
      <trkpt lat="42.87792" lon="2.49832">
        <ele>411.8</ele>
        <time>2021-06-05T17:25:06Z</time>
      </trkpt>
      <trkpt lat="42.87787" lon="2.49825">
        <ele>412</ele>
        <time>2021-06-05T17:25:10Z</time>
      </trkpt>
      <trkpt lat="42.87776" lon="2.49815">
        <ele>412.4</ele>
        <time>2021-06-05T17:25:14Z</time>
      </trkpt>
      <trkpt lat="42.87765" lon="2.49804">
        <ele>413</ele>
        <time>2021-06-05T17:25:19Z</time>
      </trkpt>
      <trkpt lat="42.87756" lon="2.49794">
        <ele>413</ele>
        <time>2021-06-05T17:25:23Z</time>
      </trkpt>
      <trkpt lat="42.87748" lon="2.49783">
        <ele>413.2</ele>
        <time>2021-06-05T17:25:27Z</time>
      </trkpt>
      <trkpt lat="42.87741" lon="2.49772">
        <ele>413.8</ele>
        <time>2021-06-05T17:25:31Z</time>
      </trkpt>
      <trkpt lat="42.87734" lon="2.4976">
        <ele>414.2</ele>
        <time>2021-06-05T17:25:35Z</time>
      </trkpt>
      <trkpt lat="42.87728" lon="2.49748">
        <ele>414.6</ele>
        <time>2021-06-05T17:25:39Z</time>
      </trkpt>
      <trkpt lat="42.87722" lon="2.49735">
        <ele>414.8</ele>
        <time>2021-06-05T17:25:43Z</time>
      </trkpt>
      <trkpt lat="42.87716" lon="2.49722">
        <ele>415</ele>
        <time>2021-06-05T17:25:47Z</time>
      </trkpt>
      <trkpt lat="42.8771" lon="2.4971">
        <ele>415.4</ele>
        <time>2021-06-05T17:25:51Z</time>
      </trkpt>
      <trkpt lat="42.87705" lon="2.49697">
        <ele>415.8</ele>
        <time>2021-06-05T17:25:55Z</time>
      </trkpt>
      <trkpt lat="42.877" lon="2.49685">
        <ele>416</ele>
        <time>2021-06-05T17:25:59Z</time>
      </trkpt>
      <trkpt lat="42.87696" lon="2.49673">
        <ele>416.2</ele>
        <time>2021-06-05T17:26:03Z</time>
      </trkpt>
      <trkpt lat="42.87692" lon="2.49661">
        <ele>416.4</ele>
        <time>2021-06-05T17:26:07Z</time>
      </trkpt>
      <trkpt lat="42.87688" lon="2.4965">
        <ele>416.8</ele>
        <time>2021-06-05T17:26:11Z</time>
      </trkpt>
      <trkpt lat="42.87685" lon="2.49647">
        <ele>416.8</ele>
        <time>2021-06-05T17:26:15Z</time>
      </trkpt>
      <trkpt lat="42.87688" lon="2.49655">
        <ele>416.6</ele>
        <time>2021-06-05T17:26:19Z</time>
      </trkpt>
      <trkpt lat="42.87696" lon="2.49661">
        <ele>416.4</ele>
        <time>2021-06-05T17:26:23Z</time>
      </trkpt>
      <trkpt lat="42.87702" lon="2.49666">
        <ele>417</ele>
        <time>2021-06-05T17:26:27Z</time>
      </trkpt>
      <trkpt lat="42.87707" lon="2.49671">
        <ele>418.2</ele>
        <time>2021-06-05T17:26:31Z</time>
      </trkpt>
      <trkpt lat="42.87711" lon="2.49673">
        <ele>419</ele>
        <time>2021-06-05T17:26:35Z</time>
      </trkpt>
      <trkpt lat="42.87717" lon="2.49675">
        <ele>420.4</ele>
        <time>2021-06-05T17:26:40Z</time>
      </trkpt>
      <trkpt lat="42.87723" lon="2.49678">
        <ele>421.2</ele>
        <time>2021-06-05T17:26:44Z</time>
      </trkpt>
      <trkpt lat="42.87726" lon="2.49679">
        <ele>421.6</ele>
        <time>2021-06-05T17:26:48Z</time>
      </trkpt>
      <trkpt lat="42.87726" lon="2.49679">
        <ele>421.8</ele>
        <time>2021-06-05T17:26:52Z</time>
      </trkpt>
      <trkpt lat="42.87728" lon="2.49678">
        <ele>420</ele>
        <time>2021-06-05T17:40:33Z</time>
      </trkpt>
      <trkpt lat="42.87725" lon="2.49677">
        <ele>419.6</ele>
        <time>2021-06-05T17:40:37Z</time>
      </trkpt>
      <trkpt lat="42.87722" lon="2.49675">
        <ele>419.2</ele>
        <time>2021-06-05T17:40:41Z</time>
      </trkpt>
      <trkpt lat="42.87719" lon="2.49675">
        <ele>418.6</ele>
        <time>2021-06-05T17:40:45Z</time>
      </trkpt>
      <trkpt lat="42.87716" lon="2.49674">
        <ele>417.8</ele>
        <time>2021-06-05T17:40:49Z</time>
      </trkpt>
      <trkpt lat="42.87713" lon="2.49673">
        <ele>417</ele>
        <time>2021-06-05T17:40:53Z</time>
      </trkpt>
      <trkpt lat="42.8771" lon="2.49672">
        <ele>416.6</ele>
        <time>2021-06-05T17:40:57Z</time>
      </trkpt>
      <trkpt lat="42.87708" lon="2.4967">
        <ele>416</ele>
        <time>2021-06-05T17:41:01Z</time>
      </trkpt>
      <trkpt lat="42.87705" lon="2.49666">
        <ele>415.6</ele>
        <time>2021-06-05T17:41:05Z</time>
      </trkpt>
      <trkpt lat="42.87701" lon="2.49663">
        <ele>414.8</ele>
        <time>2021-06-05T17:41:09Z</time>
      </trkpt>
      <trkpt lat="42.87696" lon="2.49661">
        <ele>414.4</ele>
        <time>2021-06-05T17:41:13Z</time>
      </trkpt>
      <trkpt lat="42.87693" lon="2.49658">
        <ele>414.6</ele>
        <time>2021-06-05T17:41:17Z</time>
      </trkpt>
      <trkpt lat="42.87691" lon="2.49654">
        <ele>414.6</ele>
        <time>2021-06-05T17:41:21Z</time>
      </trkpt>
      <trkpt lat="42.87688" lon="2.49647">
        <ele>414.8</ele>
        <time>2021-06-05T17:41:25Z</time>
      </trkpt>
      <trkpt lat="42.87685" lon="2.49639">
        <ele>415.2</ele>
        <time>2021-06-05T17:41:29Z</time>
      </trkpt>
      <trkpt lat="42.87679" lon="2.49629">
        <ele>415.4</ele>
        <time>2021-06-05T17:41:34Z</time>
      </trkpt>
      <trkpt lat="42.87674" lon="2.49621">
        <ele>415.6</ele>
        <time>2021-06-05T17:41:38Z</time>
      </trkpt>
      <trkpt lat="42.87669" lon="2.49614">
        <ele>415.8</ele>
        <time>2021-06-05T17:41:42Z</time>
      </trkpt>
      <trkpt lat="42.87663" lon="2.49607">
        <ele>416.2</ele>
        <time>2021-06-05T17:41:46Z</time>
      </trkpt>
      <trkpt lat="42.87656" lon="2.49604">
        <ele>416.6</ele>
        <time>2021-06-05T17:41:50Z</time>
      </trkpt>
      <trkpt lat="42.87647" lon="2.49601">
        <ele>416.6</ele>
        <time>2021-06-05T17:41:54Z</time>
      </trkpt>
      <trkpt lat="42.87639" lon="2.49598">
        <ele>417</ele>
        <time>2021-06-05T17:41:58Z</time>
      </trkpt>
      <trkpt lat="42.87631" lon="2.49596">
        <ele>417.4</ele>
        <time>2021-06-05T17:42:02Z</time>
      </trkpt>
      <trkpt lat="42.87621" lon="2.49594">
        <ele>417.6</ele>
        <time>2021-06-05T17:42:06Z</time>
      </trkpt>
      <trkpt lat="42.87612" lon="2.49591">
        <ele>418</ele>
        <time>2021-06-05T17:42:10Z</time>
      </trkpt>
      <trkpt lat="42.87602" lon="2.49588">
        <ele>418.2</ele>
        <time>2021-06-05T17:42:14Z</time>
      </trkpt>
      <trkpt lat="42.87592" lon="2.49587">
        <ele>418.6</ele>
        <time>2021-06-05T17:42:18Z</time>
      </trkpt>
      <trkpt lat="42.87582" lon="2.49583">
        <ele>419</ele>
        <time>2021-06-05T17:42:22Z</time>
      </trkpt>
      <trkpt lat="42.87572" lon="2.49579">
        <ele>419.4</ele>
        <time>2021-06-05T17:42:26Z</time>
      </trkpt>
      <trkpt lat="42.87562" lon="2.49573">
        <ele>419.8</ele>
        <time>2021-06-05T17:42:30Z</time>
      </trkpt>
      <trkpt lat="42.87555" lon="2.49562">
        <ele>420.2</ele>
        <time>2021-06-05T17:42:34Z</time>
      </trkpt>
      <trkpt lat="42.87549" lon="2.49551">
        <ele>420.6</ele>
        <time>2021-06-05T17:42:38Z</time>
      </trkpt>
      <trkpt lat="42.87546" lon="2.49538">
        <ele>421</ele>
        <time>2021-06-05T17:42:42Z</time>
      </trkpt>
      <trkpt lat="42.87546" lon="2.49524">
        <ele>421.2</ele>
        <time>2021-06-05T17:42:46Z</time>
      </trkpt>
      <trkpt lat="42.87546" lon="2.4951">
        <ele>421.6</ele>
        <time>2021-06-05T17:42:50Z</time>
      </trkpt>
      <trkpt lat="42.87549" lon="2.49491">
        <ele>421.8</ele>
        <time>2021-06-05T17:42:55Z</time>
      </trkpt>
      <trkpt lat="42.87549" lon="2.49477">
        <ele>422.2</ele>
        <time>2021-06-05T17:42:59Z</time>
      </trkpt>
      <trkpt lat="42.8755" lon="2.49461">
        <ele>422.4</ele>
        <time>2021-06-05T17:43:03Z</time>
      </trkpt>
      <trkpt lat="42.8755" lon="2.49446">
        <ele>422.6</ele>
        <time>2021-06-05T17:43:07Z</time>
      </trkpt>
      <trkpt lat="42.87551" lon="2.49431">
        <ele>422.8</ele>
        <time>2021-06-05T17:43:11Z</time>
      </trkpt>
      <trkpt lat="42.87551" lon="2.49415">
        <ele>423</ele>
        <time>2021-06-05T17:43:15Z</time>
      </trkpt>
      <trkpt lat="42.87551" lon="2.49399">
        <ele>423.2</ele>
        <time>2021-06-05T17:43:19Z</time>
      </trkpt>
      <trkpt lat="42.87551" lon="2.49383">
        <ele>423.4</ele>
        <time>2021-06-05T17:43:23Z</time>
      </trkpt>
      <trkpt lat="42.87551" lon="2.49367">
        <ele>423.6</ele>
        <time>2021-06-05T17:43:27Z</time>
      </trkpt>
      <trkpt lat="42.8755" lon="2.49352">
        <ele>423.8</ele>
        <time>2021-06-05T17:43:31Z</time>
      </trkpt>
      <trkpt lat="42.87551" lon="2.49337">
        <ele>424</ele>
        <time>2021-06-05T17:43:35Z</time>
      </trkpt>
      <trkpt lat="42.87551" lon="2.49322">
        <ele>424.2</ele>
        <time>2021-06-05T17:43:39Z</time>
      </trkpt>
      <trkpt lat="42.87551" lon="2.49306">
        <ele>424.4</ele>
        <time>2021-06-05T17:43:43Z</time>
      </trkpt>
      <trkpt lat="42.8755" lon="2.4929">
        <ele>424.6</ele>
        <time>2021-06-05T17:43:47Z</time>
      </trkpt>
      <trkpt lat="42.87546" lon="2.49274">
        <ele>424.8</ele>
        <time>2021-06-05T17:43:51Z</time>
      </trkpt>
      <trkpt lat="42.8754" lon="2.4926">
        <ele>424.8</ele>
        <time>2021-06-05T17:43:55Z</time>
      </trkpt>
      <trkpt lat="42.87533" lon="2.4925">
        <ele>424.8</ele>
        <time>2021-06-05T17:43:59Z</time>
      </trkpt>
      <trkpt lat="42.87525" lon="2.49242">
        <ele>424.6</ele>
        <time>2021-06-05T17:44:03Z</time>
      </trkpt>
      <trkpt lat="42.87516" lon="2.49234">
        <ele>424.8</ele>
        <time>2021-06-05T17:44:07Z</time>
      </trkpt>
      <trkpt lat="42.87505" lon="2.4923">
        <ele>424.8</ele>
        <time>2021-06-05T17:44:11Z</time>
      </trkpt>
      <trkpt lat="42.87493" lon="2.49231">
        <ele>425</ele>
        <time>2021-06-05T17:44:16Z</time>
      </trkpt>
      <trkpt lat="42.87481" lon="2.49229">
        <ele>425</ele>
        <time>2021-06-05T17:44:20Z</time>
      </trkpt>
      <trkpt lat="42.87473" lon="2.49218">
        <ele>425.2</ele>
        <time>2021-06-05T17:44:24Z</time>
      </trkpt>
      <trkpt lat="42.87469" lon="2.49206">
        <ele>425.2</ele>
        <time>2021-06-05T17:44:28Z</time>
      </trkpt>
      <trkpt lat="42.87467" lon="2.49191">
        <ele>425.4</ele>
        <time>2021-06-05T17:44:32Z</time>
      </trkpt>
      <trkpt lat="42.87466" lon="2.49175">
        <ele>425.4</ele>
        <time>2021-06-05T17:44:36Z</time>
      </trkpt>
      <trkpt lat="42.87464" lon="2.49157">
        <ele>425.4</ele>
        <time>2021-06-05T17:44:40Z</time>
      </trkpt>
      <trkpt lat="42.87461" lon="2.49139">
        <ele>425.4</ele>
        <time>2021-06-05T17:44:44Z</time>
      </trkpt>
      <trkpt lat="42.87455" lon="2.49123">
        <ele>425.4</ele>
        <time>2021-06-05T17:44:48Z</time>
      </trkpt>
      <trkpt lat="42.87448" lon="2.49109">
        <ele>425.4</ele>
        <time>2021-06-05T17:44:52Z</time>
      </trkpt>
      <trkpt lat="42.8744" lon="2.49094">
        <ele>425.6</ele>
        <time>2021-06-05T17:44:56Z</time>
      </trkpt>
      <trkpt lat="42.87433" lon="2.4908">
        <ele>425.6</ele>
        <time>2021-06-05T17:45:00Z</time>
      </trkpt>
      <trkpt lat="42.87425" lon="2.49064">
        <ele>425.8</ele>
        <time>2021-06-05T17:45:04Z</time>
      </trkpt>
      <trkpt lat="42.87417" lon="2.49048">
        <ele>425.8</ele>
        <time>2021-06-05T17:45:08Z</time>
      </trkpt>
      <trkpt lat="42.87408" lon="2.49031">
        <ele>425.8</ele>
        <time>2021-06-05T17:45:12Z</time>
      </trkpt>
      <trkpt lat="42.87398" lon="2.49013">
        <ele>425.8</ele>
        <time>2021-06-05T17:45:16Z</time>
      </trkpt>
      <trkpt lat="42.87389" lon="2.48994">
        <ele>425.6</ele>
        <time>2021-06-05T17:45:20Z</time>
      </trkpt>
      <trkpt lat="42.87379" lon="2.48974">
        <ele>425.6</ele>
        <time>2021-06-05T17:45:24Z</time>
      </trkpt>
      <trkpt lat="42.87373" lon="2.48953">
        <ele>425.4</ele>
        <time>2021-06-05T17:45:28Z</time>
      </trkpt>
      <trkpt lat="42.87367" lon="2.48932">
        <ele>425.4</ele>
        <time>2021-06-05T17:45:32Z</time>
      </trkpt>
      <trkpt lat="42.87359" lon="2.48905">
        <ele>425.4</ele>
        <time>2021-06-05T17:45:37Z</time>
      </trkpt>
      <trkpt lat="42.87351" lon="2.48884">
        <ele>425.2</ele>
        <time>2021-06-05T17:45:41Z</time>
      </trkpt>
      <trkpt lat="42.87343" lon="2.48863">
        <ele>425</ele>
        <time>2021-06-05T17:45:45Z</time>
      </trkpt>
      <trkpt lat="42.87335" lon="2.48842">
        <ele>424.6</ele>
        <time>2021-06-05T17:45:49Z</time>
      </trkpt>
      <trkpt lat="42.87326" lon="2.4882">
        <ele>424.2</ele>
        <time>2021-06-05T17:45:53Z</time>
      </trkpt>
      <trkpt lat="42.87318" lon="2.48799">
        <ele>424.2</ele>
        <time>2021-06-05T17:45:57Z</time>
      </trkpt>
      <trkpt lat="42.87309" lon="2.48776">
        <ele>424</ele>
        <time>2021-06-05T17:46:01Z</time>
      </trkpt>
      <trkpt lat="42.87304" lon="2.48753">
        <ele>423.8</ele>
        <time>2021-06-05T17:46:05Z</time>
      </trkpt>
      <trkpt lat="42.87305" lon="2.48727">
        <ele>423.8</ele>
        <time>2021-06-05T17:46:09Z</time>
      </trkpt>
      <trkpt lat="42.8731" lon="2.48704">
        <ele>423.8</ele>
        <time>2021-06-05T17:46:13Z</time>
      </trkpt>
      <trkpt lat="42.87311" lon="2.48679">
        <ele>423.6</ele>
        <time>2021-06-05T17:46:17Z</time>
      </trkpt>
      <trkpt lat="42.87301" lon="2.48657">
        <ele>423.4</ele>
        <time>2021-06-05T17:46:21Z</time>
      </trkpt>
      <trkpt lat="42.87287" lon="2.48639">
        <ele>423.2</ele>
        <time>2021-06-05T17:46:25Z</time>
      </trkpt>
      <trkpt lat="42.87273" lon="2.48623">
        <ele>422.8</ele>
        <time>2021-06-05T17:46:29Z</time>
      </trkpt>
      <trkpt lat="42.8726" lon="2.48606">
        <ele>422.6</ele>
        <time>2021-06-05T17:46:33Z</time>
      </trkpt>
      <trkpt lat="42.87247" lon="2.4859">
        <ele>422.4</ele>
        <time>2021-06-05T17:46:37Z</time>
      </trkpt>
      <trkpt lat="42.87231" lon="2.48587">
        <ele>422</ele>
        <time>2021-06-05T17:46:41Z</time>
      </trkpt>
      <trkpt lat="42.87214" lon="2.48601">
        <ele>421.6</ele>
        <time>2021-06-05T17:46:45Z</time>
      </trkpt>
      <trkpt lat="42.87197" lon="2.48614">
        <ele>421.4</ele>
        <time>2021-06-05T17:46:49Z</time>
      </trkpt>
      <trkpt lat="42.87179" lon="2.48622">
        <ele>421.2</ele>
        <time>2021-06-05T17:46:53Z</time>
      </trkpt>
      <trkpt lat="42.87157" lon="2.48627">
        <ele>421.4</ele>
        <time>2021-06-05T17:46:58Z</time>
      </trkpt>
      <trkpt lat="42.87139" lon="2.48627">
        <ele>421.6</ele>
        <time>2021-06-05T17:47:02Z</time>
      </trkpt>
      <trkpt lat="42.87125" lon="2.48617">
        <ele>421.6</ele>
        <time>2021-06-05T17:47:06Z</time>
      </trkpt>
      <trkpt lat="42.87114" lon="2.48598">
        <ele>421.6</ele>
        <time>2021-06-05T17:47:10Z</time>
      </trkpt>
      <trkpt lat="42.87105" lon="2.48579">
        <ele>421.8</ele>
        <time>2021-06-05T17:47:14Z</time>
      </trkpt>
      <trkpt lat="42.87091" lon="2.48569">
        <ele>422</ele>
        <time>2021-06-05T17:47:18Z</time>
      </trkpt>
      <trkpt lat="42.87074" lon="2.48569">
        <ele>422.2</ele>
        <time>2021-06-05T17:47:22Z</time>
      </trkpt>
      <trkpt lat="42.87058" lon="2.48564">
        <ele>422.2</ele>
        <time>2021-06-05T17:47:26Z</time>
      </trkpt>
      <trkpt lat="42.87047" lon="2.48548">
        <ele>422.4</ele>
        <time>2021-06-05T17:47:30Z</time>
      </trkpt>
      <trkpt lat="42.87039" lon="2.48527">
        <ele>422.6</ele>
        <time>2021-06-05T17:47:34Z</time>
      </trkpt>
      <trkpt lat="42.87034" lon="2.48507">
        <ele>422.8</ele>
        <time>2021-06-05T17:47:38Z</time>
      </trkpt>
      <trkpt lat="42.87027" lon="2.48487">
        <ele>423.2</ele>
        <time>2021-06-05T17:47:42Z</time>
      </trkpt>
      <trkpt lat="42.87016" lon="2.48472">
        <ele>423.2</ele>
        <time>2021-06-05T17:47:46Z</time>
      </trkpt>
      <trkpt lat="42.87" lon="2.48467">
        <ele>423.2</ele>
        <time>2021-06-05T17:47:50Z</time>
      </trkpt>
      <trkpt lat="42.86982" lon="2.48469">
        <ele>423.4</ele>
        <time>2021-06-05T17:47:54Z</time>
      </trkpt>
      <trkpt lat="42.86964" lon="2.48473">
        <ele>423.4</ele>
        <time>2021-06-05T17:47:58Z</time>
      </trkpt>
      <trkpt lat="42.86948" lon="2.48478">
        <ele>423.6</ele>
        <time>2021-06-05T17:48:02Z</time>
      </trkpt>
      <trkpt lat="42.8693" lon="2.48482">
        <ele>423.8</ele>
        <time>2021-06-05T17:48:06Z</time>
      </trkpt>
      <trkpt lat="42.86913" lon="2.48485">
        <ele>424</ele>
        <time>2021-06-05T17:48:10Z</time>
      </trkpt>
      <trkpt lat="42.86893" lon="2.4849">
        <ele>424</ele>
        <time>2021-06-05T17:48:15Z</time>
      </trkpt>
      <trkpt lat="42.86877" lon="2.48488">
        <ele>424.2</ele>
        <time>2021-06-05T17:48:19Z</time>
      </trkpt>
      <trkpt lat="42.86864" lon="2.48476">
        <ele>425</ele>
        <time>2021-06-05T17:48:23Z</time>
      </trkpt>
      <trkpt lat="42.86855" lon="2.48459">
        <ele>425.2</ele>
        <time>2021-06-05T17:48:27Z</time>
      </trkpt>
      <trkpt lat="42.86848" lon="2.48441">
        <ele>425.4</ele>
        <time>2021-06-05T17:48:31Z</time>
      </trkpt>
      <trkpt lat="42.86842" lon="2.48423">
        <ele>425.8</ele>
        <time>2021-06-05T17:48:35Z</time>
      </trkpt>
      <trkpt lat="42.86836" lon="2.48405">
        <ele>426.2</ele>
        <time>2021-06-05T17:48:39Z</time>
      </trkpt>
      <trkpt lat="42.8683" lon="2.48388">
        <ele>426.4</ele>
        <time>2021-06-05T17:48:43Z</time>
      </trkpt>
      <trkpt lat="42.86825" lon="2.48371">
        <ele>426.8</ele>
        <time>2021-06-05T17:48:47Z</time>
      </trkpt>
      <trkpt lat="42.86819" lon="2.48354">
        <ele>427.4</ele>
        <time>2021-06-05T17:48:51Z</time>
      </trkpt>
      <trkpt lat="42.86815" lon="2.48337">
        <ele>427.6</ele>
        <time>2021-06-05T17:48:55Z</time>
      </trkpt>
      <trkpt lat="42.8681" lon="2.4832">
        <ele>427.8</ele>
        <time>2021-06-05T17:48:59Z</time>
      </trkpt>
      <trkpt lat="42.86807" lon="2.48302">
        <ele>428.2</ele>
        <time>2021-06-05T17:49:03Z</time>
      </trkpt>
      <trkpt lat="42.86805" lon="2.48285">
        <ele>428.6</ele>
        <time>2021-06-05T17:49:07Z</time>
      </trkpt>
      <trkpt lat="42.86805" lon="2.48267">
        <ele>428.8</ele>
        <time>2021-06-05T17:49:11Z</time>
      </trkpt>
      <trkpt lat="42.86807" lon="2.4825">
        <ele>429.2</ele>
        <time>2021-06-05T17:49:15Z</time>
      </trkpt>
      <trkpt lat="42.86811" lon="2.48236">
        <ele>429.4</ele>
        <time>2021-06-05T17:49:19Z</time>
      </trkpt>
      <trkpt lat="42.86816" lon="2.48219">
        <ele>429.8</ele>
        <time>2021-06-05T17:49:23Z</time>
      </trkpt>
      <trkpt lat="42.8682" lon="2.48203">
        <ele>430.2</ele>
        <time>2021-06-05T17:49:27Z</time>
      </trkpt>
      <trkpt lat="42.86817" lon="2.48184">
        <ele>430.8</ele>
        <time>2021-06-05T17:49:31Z</time>
      </trkpt>
      <trkpt lat="42.86808" lon="2.48167">
        <ele>431.2</ele>
        <time>2021-06-05T17:49:36Z</time>
      </trkpt>
      <trkpt lat="42.86799" lon="2.48155">
        <ele>431.4</ele>
        <time>2021-06-05T17:49:40Z</time>
      </trkpt>
      <trkpt lat="42.8679" lon="2.48142">
        <ele>431.4</ele>
        <time>2021-06-05T17:49:44Z</time>
      </trkpt>
      <trkpt lat="42.86782" lon="2.48129">
        <ele>431.8</ele>
        <time>2021-06-05T17:49:48Z</time>
      </trkpt>
      <trkpt lat="42.86776" lon="2.48113">
        <ele>432</ele>
        <time>2021-06-05T17:49:52Z</time>
      </trkpt>
      <trkpt lat="42.86776" lon="2.48097">
        <ele>432.2</ele>
        <time>2021-06-05T17:49:56Z</time>
      </trkpt>
      <trkpt lat="42.8678" lon="2.48081">
        <ele>432.6</ele>
        <time>2021-06-05T17:50:00Z</time>
      </trkpt>
      <trkpt lat="42.86781" lon="2.48065">
        <ele>433</ele>
        <time>2021-06-05T17:50:04Z</time>
      </trkpt>
      <trkpt lat="42.86784" lon="2.48051">
        <ele>433.4</ele>
        <time>2021-06-05T17:50:08Z</time>
      </trkpt>
      <trkpt lat="42.86786" lon="2.48035">
        <ele>433.8</ele>
        <time>2021-06-05T17:50:12Z</time>
      </trkpt>
      <trkpt lat="42.86787" lon="2.48019">
        <ele>434.2</ele>
        <time>2021-06-05T17:50:16Z</time>
      </trkpt>
      <trkpt lat="42.86787" lon="2.48002">
        <ele>434.2</ele>
        <time>2021-06-05T17:50:20Z</time>
      </trkpt>
      <trkpt lat="42.86791" lon="2.47988">
        <ele>434.4</ele>
        <time>2021-06-05T17:50:24Z</time>
      </trkpt>
      <trkpt lat="42.86799" lon="2.47977">
        <ele>434.8</ele>
        <time>2021-06-05T17:50:28Z</time>
      </trkpt>
      <trkpt lat="42.8681" lon="2.47972">
        <ele>435</ele>
        <time>2021-06-05T17:50:32Z</time>
      </trkpt>
      <trkpt lat="42.86821" lon="2.47965">
        <ele>435.4</ele>
        <time>2021-06-05T17:50:36Z</time>
      </trkpt>
      <trkpt lat="42.86831" lon="2.47959">
        <ele>435.6</ele>
        <time>2021-06-05T17:50:40Z</time>
      </trkpt>
      <trkpt lat="42.86842" lon="2.47951">
        <ele>436.2</ele>
        <time>2021-06-05T17:50:44Z</time>
      </trkpt>
      <trkpt lat="42.86852" lon="2.4794">
        <ele>436.4</ele>
        <time>2021-06-05T17:50:48Z</time>
      </trkpt>
      <trkpt lat="42.8686" lon="2.47928">
        <ele>436.8</ele>
        <time>2021-06-05T17:50:52Z</time>
      </trkpt>
      <trkpt lat="42.8687" lon="2.47914">
        <ele>437</ele>
        <time>2021-06-05T17:50:57Z</time>
      </trkpt>
      <trkpt lat="42.86877" lon="2.479">
        <ele>437.2</ele>
        <time>2021-06-05T17:51:01Z</time>
      </trkpt>
      <trkpt lat="42.86882" lon="2.47887">
        <ele>437.6</ele>
        <time>2021-06-05T17:51:05Z</time>
      </trkpt>
      <trkpt lat="42.86886" lon="2.47874">
        <ele>438</ele>
        <time>2021-06-05T17:51:09Z</time>
      </trkpt>
      <trkpt lat="42.86891" lon="2.47861">
        <ele>438.2</ele>
        <time>2021-06-05T17:51:13Z</time>
      </trkpt>
      <trkpt lat="42.86897" lon="2.47849">
        <ele>438.4</ele>
        <time>2021-06-05T17:51:17Z</time>
      </trkpt>
      <trkpt lat="42.86902" lon="2.4784">
        <ele>438.8</ele>
        <time>2021-06-05T17:51:21Z</time>
      </trkpt>
      <trkpt lat="42.86906" lon="2.47836">
        <ele>439</ele>
        <time>2021-06-05T17:51:25Z</time>
      </trkpt>
      <trkpt lat="42.86911" lon="2.47833">
        <ele>439.2</ele>
        <time>2021-06-05T17:51:29Z</time>
      </trkpt>
      <trkpt lat="42.86915" lon="2.4783">
        <ele>439.2</ele>
        <time>2021-06-05T17:51:33Z</time>
      </trkpt>
      <trkpt lat="42.86923" lon="2.47826">
        <ele>439.6</ele>
        <time>2021-06-05T17:51:37Z</time>
      </trkpt>
      <trkpt lat="42.86933" lon="2.47823">
        <ele>440</ele>
        <time>2021-06-05T17:51:41Z</time>
      </trkpt>
      <trkpt lat="42.86943" lon="2.47821">
        <ele>440.4</ele>
        <time>2021-06-05T17:51:45Z</time>
      </trkpt>
      <trkpt lat="42.86953" lon="2.47821">
        <ele>440.6</ele>
        <time>2021-06-05T17:51:49Z</time>
      </trkpt>
      <trkpt lat="42.86963" lon="2.47821">
        <ele>441</ele>
        <time>2021-06-05T17:51:53Z</time>
      </trkpt>
      <trkpt lat="42.86973" lon="2.47822">
        <ele>441.2</ele>
        <time>2021-06-05T17:51:57Z</time>
      </trkpt>
      <trkpt lat="42.86983" lon="2.47823">
        <ele>441.6</ele>
        <time>2021-06-05T17:52:01Z</time>
      </trkpt>
      <trkpt lat="42.86993" lon="2.47819">
        <ele>442</ele>
        <time>2021-06-05T17:52:05Z</time>
      </trkpt>
      <trkpt lat="42.87001" lon="2.47811">
        <ele>442.4</ele>
        <time>2021-06-05T17:52:09Z</time>
      </trkpt>
      <trkpt lat="42.87004" lon="2.478">
        <ele>442.8</ele>
        <time>2021-06-05T17:52:13Z</time>
      </trkpt>
      <trkpt lat="42.87007" lon="2.47784">
        <ele>443.2</ele>
        <time>2021-06-05T17:52:18Z</time>
      </trkpt>
      <trkpt lat="42.87009" lon="2.47769">
        <ele>443.4</ele>
        <time>2021-06-05T17:52:22Z</time>
      </trkpt>
      <trkpt lat="42.87007" lon="2.47754">
        <ele>443.6</ele>
        <time>2021-06-05T17:52:26Z</time>
      </trkpt>
      <trkpt lat="42.87001" lon="2.47741">
        <ele>444</ele>
        <time>2021-06-05T17:52:30Z</time>
      </trkpt>
      <trkpt lat="42.86993" lon="2.4773">
        <ele>444.4</ele>
        <time>2021-06-05T17:52:34Z</time>
      </trkpt>
      <trkpt lat="42.86985" lon="2.47721">
        <ele>445</ele>
        <time>2021-06-05T17:52:38Z</time>
      </trkpt>
      <trkpt lat="42.86977" lon="2.4771">
        <ele>445.4</ele>
        <time>2021-06-05T17:52:42Z</time>
      </trkpt>
      <trkpt lat="42.86971" lon="2.47695">
        <ele>445.8</ele>
        <time>2021-06-05T17:52:46Z</time>
      </trkpt>
      <trkpt lat="42.86971" lon="2.47677">
        <ele>446.2</ele>
        <time>2021-06-05T17:52:50Z</time>
      </trkpt>
      <trkpt lat="42.86974" lon="2.47659">
        <ele>446.6</ele>
        <time>2021-06-05T17:52:54Z</time>
      </trkpt>
      <trkpt lat="42.86977" lon="2.47641">
        <ele>447</ele>
        <time>2021-06-05T17:52:58Z</time>
      </trkpt>
      <trkpt lat="42.8698" lon="2.47622">
        <ele>447.2</ele>
        <time>2021-06-05T17:53:02Z</time>
      </trkpt>
      <trkpt lat="42.8698" lon="2.47603">
        <ele>447.6</ele>
        <time>2021-06-05T17:53:06Z</time>
      </trkpt>
      <trkpt lat="42.86975" lon="2.47585">
        <ele>448.2</ele>
        <time>2021-06-05T17:53:10Z</time>
      </trkpt>
      <trkpt lat="42.86968" lon="2.47568">
        <ele>448.6</ele>
        <time>2021-06-05T17:53:14Z</time>
      </trkpt>
      <trkpt lat="42.86961" lon="2.47552">
        <ele>449</ele>
        <time>2021-06-05T17:53:18Z</time>
      </trkpt>
      <trkpt lat="42.86955" lon="2.47536">
        <ele>449.4</ele>
        <time>2021-06-05T17:53:22Z</time>
      </trkpt>
      <trkpt lat="42.8695" lon="2.47523">
        <ele>449.6</ele>
        <time>2021-06-05T17:53:26Z</time>
      </trkpt>
      <trkpt lat="42.86944" lon="2.47508">
        <ele>450</ele>
        <time>2021-06-05T17:53:30Z</time>
      </trkpt>
      <trkpt lat="42.86937" lon="2.47494">
        <ele>450.6</ele>
        <time>2021-06-05T17:53:34Z</time>
      </trkpt>
      <trkpt lat="42.86928" lon="2.47474">
        <ele>451</ele>
        <time>2021-06-05T17:53:39Z</time>
      </trkpt>
      <trkpt lat="42.86921" lon="2.47459">
        <ele>451.4</ele>
        <time>2021-06-05T17:53:43Z</time>
      </trkpt>
      <trkpt lat="42.86916" lon="2.47443">
        <ele>452</ele>
        <time>2021-06-05T17:53:47Z</time>
      </trkpt>
      <trkpt lat="42.86911" lon="2.47427">
        <ele>452.2</ele>
        <time>2021-06-05T17:53:51Z</time>
      </trkpt>
      <trkpt lat="42.86904" lon="2.47411">
        <ele>452.4</ele>
        <time>2021-06-05T17:53:55Z</time>
      </trkpt>
      <trkpt lat="42.86896" lon="2.47398">
        <ele>453</ele>
        <time>2021-06-05T17:53:59Z</time>
      </trkpt>
      <trkpt lat="42.86887" lon="2.47385">
        <ele>453.4</ele>
        <time>2021-06-05T17:54:03Z</time>
      </trkpt>
      <trkpt lat="42.86877" lon="2.47371">
        <ele>453.8</ele>
        <time>2021-06-05T17:54:07Z</time>
      </trkpt>
      <trkpt lat="42.86868" lon="2.47356">
        <ele>454.4</ele>
        <time>2021-06-05T17:54:11Z</time>
      </trkpt>
      <trkpt lat="42.86858" lon="2.47342">
        <ele>454.8</ele>
        <time>2021-06-05T17:54:15Z</time>
      </trkpt>
      <trkpt lat="42.86849" lon="2.47326">
        <ele>455.4</ele>
        <time>2021-06-05T17:54:19Z</time>
      </trkpt>
      <trkpt lat="42.86839" lon="2.47311">
        <ele>455.6</ele>
        <time>2021-06-05T17:54:23Z</time>
      </trkpt>
      <trkpt lat="42.8683" lon="2.47296">
        <ele>456.2</ele>
        <time>2021-06-05T17:54:27Z</time>
      </trkpt>
      <trkpt lat="42.86823" lon="2.47281">
        <ele>456.6</ele>
        <time>2021-06-05T17:54:31Z</time>
      </trkpt>
      <trkpt lat="42.86817" lon="2.47265">
        <ele>457</ele>
        <time>2021-06-05T17:54:35Z</time>
      </trkpt>
      <trkpt lat="42.86811" lon="2.47249">
        <ele>457.4</ele>
        <time>2021-06-05T17:54:39Z</time>
      </trkpt>
      <trkpt lat="42.86807" lon="2.47233">
        <ele>457.8</ele>
        <time>2021-06-05T17:54:43Z</time>
      </trkpt>
      <trkpt lat="42.86801" lon="2.47218">
        <ele>458.2</ele>
        <time>2021-06-05T17:54:47Z</time>
      </trkpt>
      <trkpt lat="42.86794" lon="2.47202">
        <ele>458.6</ele>
        <time>2021-06-05T17:54:51Z</time>
      </trkpt>
      <trkpt lat="42.86787" lon="2.47183">
        <ele>459</ele>
        <time>2021-06-05T17:54:56Z</time>
      </trkpt>
      <trkpt lat="42.86782" lon="2.47167">
        <ele>459.4</ele>
        <time>2021-06-05T17:55:00Z</time>
      </trkpt>
      <trkpt lat="42.86779" lon="2.4715">
        <ele>459.6</ele>
        <time>2021-06-05T17:55:04Z</time>
      </trkpt>
      <trkpt lat="42.86775" lon="2.47133">
        <ele>460</ele>
        <time>2021-06-05T17:55:08Z</time>
      </trkpt>
      <trkpt lat="42.86774" lon="2.47116">
        <ele>460.4</ele>
        <time>2021-06-05T17:55:12Z</time>
      </trkpt>
      <trkpt lat="42.86774" lon="2.47099">
        <ele>460.8</ele>
        <time>2021-06-05T17:55:16Z</time>
      </trkpt>
      <trkpt lat="42.86776" lon="2.47082">
        <ele>461.2</ele>
        <time>2021-06-05T17:55:20Z</time>
      </trkpt>
      <trkpt lat="42.86774" lon="2.47067">
        <ele>461.8</ele>
        <time>2021-06-05T17:55:24Z</time>
      </trkpt>
      <trkpt lat="42.86767" lon="2.47053">
        <ele>462.2</ele>
        <time>2021-06-05T17:55:28Z</time>
      </trkpt>
      <trkpt lat="42.86757" lon="2.47043">
        <ele>462.6</ele>
        <time>2021-06-05T17:55:32Z</time>
      </trkpt>
      <trkpt lat="42.86749" lon="2.47033">
        <ele>463.4</ele>
        <time>2021-06-05T17:55:36Z</time>
      </trkpt>
      <trkpt lat="42.86742" lon="2.47021">
        <ele>463.6</ele>
        <time>2021-06-05T17:55:40Z</time>
      </trkpt>
      <trkpt lat="42.86738" lon="2.47006">
        <ele>464</ele>
        <time>2021-06-05T17:55:44Z</time>
      </trkpt>
      <trkpt lat="42.86735" lon="2.46991">
        <ele>464.4</ele>
        <time>2021-06-05T17:55:48Z</time>
      </trkpt>
      <trkpt lat="42.86731" lon="2.46974">
        <ele>465</ele>
        <time>2021-06-05T17:55:52Z</time>
      </trkpt>
      <trkpt lat="42.86728" lon="2.46957">
        <ele>465.4</ele>
        <time>2021-06-05T17:55:56Z</time>
      </trkpt>
      <trkpt lat="42.86724" lon="2.4694">
        <ele>466</ele>
        <time>2021-06-05T17:56:00Z</time>
      </trkpt>
      <trkpt lat="42.8672" lon="2.46924">
        <ele>466.4</ele>
        <time>2021-06-05T17:56:04Z</time>
      </trkpt>
      <trkpt lat="42.86717" lon="2.46909">
        <ele>466.8</ele>
        <time>2021-06-05T17:56:08Z</time>
      </trkpt>
      <trkpt lat="42.86715" lon="2.46894">
        <ele>467</ele>
        <time>2021-06-05T17:56:12Z</time>
      </trkpt>
      <trkpt lat="42.86711" lon="2.46876">
        <ele>467.6</ele>
        <time>2021-06-05T17:56:17Z</time>
      </trkpt>
      <trkpt lat="42.8671" lon="2.46861">
        <ele>468</ele>
        <time>2021-06-05T17:56:21Z</time>
      </trkpt>
      <trkpt lat="42.86711" lon="2.46848">
        <ele>468.4</ele>
        <time>2021-06-05T17:56:25Z</time>
      </trkpt>
      <trkpt lat="42.86714" lon="2.46835">
        <ele>469</ele>
        <time>2021-06-05T17:56:29Z</time>
      </trkpt>
      <trkpt lat="42.86717" lon="2.46822">
        <ele>469.2</ele>
        <time>2021-06-05T17:56:33Z</time>
      </trkpt>
      <trkpt lat="42.86722" lon="2.4681">
        <ele>469.8</ele>
        <time>2021-06-05T17:56:37Z</time>
      </trkpt>
      <trkpt lat="42.86727" lon="2.46798">
        <ele>470.2</ele>
        <time>2021-06-05T17:56:41Z</time>
      </trkpt>
      <trkpt lat="42.86732" lon="2.46786">
        <ele>470.8</ele>
        <time>2021-06-05T17:56:45Z</time>
      </trkpt>
      <trkpt lat="42.86737" lon="2.46773">
        <ele>471.4</ele>
        <time>2021-06-05T17:56:49Z</time>
      </trkpt>
      <trkpt lat="42.86742" lon="2.4676">
        <ele>472</ele>
        <time>2021-06-05T17:56:53Z</time>
      </trkpt>
      <trkpt lat="42.86747" lon="2.46747">
        <ele>472.6</ele>
        <time>2021-06-05T17:56:57Z</time>
      </trkpt>
      <trkpt lat="42.86751" lon="2.46733">
        <ele>473.2</ele>
        <time>2021-06-05T17:57:01Z</time>
      </trkpt>
      <trkpt lat="42.86755" lon="2.4672">
        <ele>473.6</ele>
        <time>2021-06-05T17:57:05Z</time>
      </trkpt>
      <trkpt lat="42.86758" lon="2.46707">
        <ele>474.2</ele>
        <time>2021-06-05T17:57:09Z</time>
      </trkpt>
      <trkpt lat="42.86762" lon="2.46696">
        <ele>474.6</ele>
        <time>2021-06-05T17:57:13Z</time>
      </trkpt>
      <trkpt lat="42.86765" lon="2.46685">
        <ele>475</ele>
        <time>2021-06-05T17:57:17Z</time>
      </trkpt>
      <trkpt lat="42.86767" lon="2.46675">
        <ele>475.4</ele>
        <time>2021-06-05T17:57:21Z</time>
      </trkpt>
      <trkpt lat="42.8677" lon="2.46665">
        <ele>476</ele>
        <time>2021-06-05T17:57:25Z</time>
      </trkpt>
      <trkpt lat="42.86773" lon="2.46654">
        <ele>476.4</ele>
        <time>2021-06-05T17:57:29Z</time>
      </trkpt>
      <trkpt lat="42.86775" lon="2.46644">
        <ele>476.8</ele>
        <time>2021-06-05T17:57:33Z</time>
      </trkpt>
      <trkpt lat="42.86779" lon="2.4663">
        <ele>477.2</ele>
        <time>2021-06-05T17:57:38Z</time>
      </trkpt>
      <trkpt lat="42.86782" lon="2.4662">
        <ele>477.6</ele>
        <time>2021-06-05T17:57:42Z</time>
      </trkpt>
      <trkpt lat="42.86784" lon="2.46608">
        <ele>478</ele>
        <time>2021-06-05T17:57:46Z</time>
      </trkpt>
      <trkpt lat="42.86787" lon="2.46598">
        <ele>478.6</ele>
        <time>2021-06-05T17:57:50Z</time>
      </trkpt>
      <trkpt lat="42.86786" lon="2.46587">
        <ele>478.8</ele>
        <time>2021-06-05T17:57:54Z</time>
      </trkpt>
      <trkpt lat="42.86782" lon="2.46575">
        <ele>479.2</ele>
        <time>2021-06-05T17:57:58Z</time>
      </trkpt>
      <trkpt lat="42.86777" lon="2.46566">
        <ele>479.8</ele>
        <time>2021-06-05T17:58:02Z</time>
      </trkpt>
      <trkpt lat="42.86771" lon="2.46557">
        <ele>480.4</ele>
        <time>2021-06-05T17:58:06Z</time>
      </trkpt>
      <trkpt lat="42.86766" lon="2.4655">
        <ele>480.8</ele>
        <time>2021-06-05T17:58:10Z</time>
      </trkpt>
      <trkpt lat="42.86763" lon="2.4654">
        <ele>481.2</ele>
        <time>2021-06-05T17:58:14Z</time>
      </trkpt>
      <trkpt lat="42.86759" lon="2.4653">
        <ele>481.6</ele>
        <time>2021-06-05T17:58:18Z</time>
      </trkpt>
      <trkpt lat="42.86758" lon="2.4652">
        <ele>482</ele>
        <time>2021-06-05T17:58:22Z</time>
      </trkpt>
      <trkpt lat="42.86754" lon="2.4651">
        <ele>482.4</ele>
        <time>2021-06-05T17:58:26Z</time>
      </trkpt>
      <trkpt lat="42.8675" lon="2.46499">
        <ele>482.8</ele>
        <time>2021-06-05T17:58:30Z</time>
      </trkpt>
      <trkpt lat="42.86746" lon="2.46488">
        <ele>483.4</ele>
        <time>2021-06-05T17:58:34Z</time>
      </trkpt>
      <trkpt lat="42.86743" lon="2.46477">
        <ele>483.8</ele>
        <time>2021-06-05T17:58:38Z</time>
      </trkpt>
      <trkpt lat="42.86739" lon="2.46467">
        <ele>484.4</ele>
        <time>2021-06-05T17:58:42Z</time>
      </trkpt>
      <trkpt lat="42.86733" lon="2.46456">
        <ele>484.6</ele>
        <time>2021-06-05T17:58:46Z</time>
      </trkpt>
      <trkpt lat="42.86728" lon="2.46445">
        <ele>485.2</ele>
        <time>2021-06-05T17:58:50Z</time>
      </trkpt>
      <trkpt lat="42.86724" lon="2.46434">
        <ele>485.6</ele>
        <time>2021-06-05T17:58:54Z</time>
      </trkpt>
      <trkpt lat="42.86716" lon="2.46421">
        <ele>486.4</ele>
        <time>2021-06-05T17:58:59Z</time>
      </trkpt>
      <trkpt lat="42.86711" lon="2.46412">
        <ele>487</ele>
        <time>2021-06-05T17:59:03Z</time>
      </trkpt>
      <trkpt lat="42.86706" lon="2.46403">
        <ele>487.4</ele>
        <time>2021-06-05T17:59:07Z</time>
      </trkpt>
      <trkpt lat="42.86702" lon="2.46393">
        <ele>487.8</ele>
        <time>2021-06-05T17:59:11Z</time>
      </trkpt>
      <trkpt lat="42.86698" lon="2.46382">
        <ele>488.2</ele>
        <time>2021-06-05T17:59:15Z</time>
      </trkpt>
      <trkpt lat="42.86693" lon="2.46373">
        <ele>488.8</ele>
        <time>2021-06-05T17:59:19Z</time>
      </trkpt>
      <trkpt lat="42.86687" lon="2.46365">
        <ele>489.4</ele>
        <time>2021-06-05T17:59:23Z</time>
      </trkpt>
      <trkpt lat="42.86682" lon="2.46356">
        <ele>489.8</ele>
        <time>2021-06-05T17:59:27Z</time>
      </trkpt>
      <trkpt lat="42.86676" lon="2.46348">
        <ele>490.2</ele>
        <time>2021-06-05T17:59:31Z</time>
      </trkpt>
      <trkpt lat="42.8667" lon="2.46338">
        <ele>490.6</ele>
        <time>2021-06-05T17:59:35Z</time>
      </trkpt>
      <trkpt lat="42.86665" lon="2.46328">
        <ele>491</ele>
        <time>2021-06-05T17:59:39Z</time>
      </trkpt>
      <trkpt lat="42.86658" lon="2.46317">
        <ele>491.6</ele>
        <time>2021-06-05T17:59:43Z</time>
      </trkpt>
      <trkpt lat="42.86653" lon="2.46306">
        <ele>492</ele>
        <time>2021-06-05T17:59:47Z</time>
      </trkpt>
      <trkpt lat="42.86648" lon="2.46294">
        <ele>492.6</ele>
        <time>2021-06-05T17:59:51Z</time>
      </trkpt>
      <trkpt lat="42.86646" lon="2.46281">
        <ele>493</ele>
        <time>2021-06-05T17:59:55Z</time>
      </trkpt>
      <trkpt lat="42.86647" lon="2.46269">
        <ele>493.6</ele>
        <time>2021-06-05T17:59:59Z</time>
      </trkpt>
      <trkpt lat="42.86648" lon="2.46256">
        <ele>494.2</ele>
        <time>2021-06-05T18:00:03Z</time>
      </trkpt>
      <trkpt lat="42.86651" lon="2.46243">
        <ele>494.8</ele>
        <time>2021-06-05T18:00:07Z</time>
      </trkpt>
      <trkpt lat="42.86653" lon="2.46231">
        <ele>495.2</ele>
        <time>2021-06-05T18:00:11Z</time>
      </trkpt>
      <trkpt lat="42.86655" lon="2.46219">
        <ele>495.6</ele>
        <time>2021-06-05T18:00:15Z</time>
      </trkpt>
      <trkpt lat="42.86659" lon="2.46208">
        <ele>496</ele>
        <time>2021-06-05T18:00:20Z</time>
      </trkpt>
      <trkpt lat="42.86661" lon="2.46201">
        <ele>496.2</ele>
        <time>2021-06-05T18:00:24Z</time>
      </trkpt>
      <trkpt lat="42.86662" lon="2.462">
        <ele>496</ele>
        <time>2021-06-05T18:00:28Z</time>
      </trkpt>
      <trkpt lat="42.86663" lon="2.46201">
        <ele>496</ele>
        <time>2021-06-05T18:00:32Z</time>
      </trkpt>
      <trkpt lat="42.86681" lon="2.46159">
        <ele>495</ele>
        <time>2021-06-05T18:00:52Z</time>
      </trkpt>
      <trkpt lat="42.86682" lon="2.46131">
        <ele>493.6</ele>
        <time>2021-06-05T18:00:56Z</time>
      </trkpt>
      <trkpt lat="42.86678" lon="2.46096">
        <ele>491.6</ele>
        <time>2021-06-05T18:01:00Z</time>
      </trkpt>
      <trkpt lat="42.86662" lon="2.46067">
        <ele>489.4</ele>
        <time>2021-06-05T18:01:04Z</time>
      </trkpt>
      <trkpt lat="42.86636" lon="2.46047">
        <ele>487.8</ele>
        <time>2021-06-05T18:01:08Z</time>
      </trkpt>
      <trkpt lat="42.86612" lon="2.46022">
        <ele>485.6</ele>
        <time>2021-06-05T18:01:12Z</time>
      </trkpt>
      <trkpt lat="42.8659" lon="2.46001">
        <ele>483.6</ele>
        <time>2021-06-05T18:01:16Z</time>
      </trkpt>
      <trkpt lat="42.86562" lon="2.46001">
        <ele>481.8</ele>
        <time>2021-06-05T18:01:20Z</time>
      </trkpt>
      <trkpt lat="42.86533" lon="2.46017">
        <ele>479.6</ele>
        <time>2021-06-05T18:01:24Z</time>
      </trkpt>
      <trkpt lat="42.86507" lon="2.46037">
        <ele>477.6</ele>
        <time>2021-06-05T18:01:28Z</time>
      </trkpt>
      <trkpt lat="42.86477" lon="2.46055">
        <ele>475.6</ele>
        <time>2021-06-05T18:01:32Z</time>
      </trkpt>
      <trkpt lat="42.86445" lon="2.46063">
        <ele>474</ele>
        <time>2021-06-05T18:01:36Z</time>
      </trkpt>
      <trkpt lat="42.86412" lon="2.46068">
        <ele>471.6</ele>
        <time>2021-06-05T18:01:40Z</time>
      </trkpt>
      <trkpt lat="42.86382" lon="2.46063">
        <ele>469.4</ele>
        <time>2021-06-05T18:01:44Z</time>
      </trkpt>
      <trkpt lat="42.8636" lon="2.46079">
        <ele>467.8</ele>
        <time>2021-06-05T18:01:48Z</time>
      </trkpt>
      <trkpt lat="42.86341" lon="2.46123">
        <ele>465.6</ele>
        <time>2021-06-05T18:01:53Z</time>
      </trkpt>
      <trkpt lat="42.86328" lon="2.46162">
        <ele>463.6</ele>
        <time>2021-06-05T18:01:57Z</time>
      </trkpt>
      <trkpt lat="42.86314" lon="2.46201">
        <ele>461.6</ele>
        <time>2021-06-05T18:02:01Z</time>
      </trkpt>
      <trkpt lat="42.86301" lon="2.46235">
        <ele>459.8</ele>
        <time>2021-06-05T18:02:05Z</time>
      </trkpt>
      <trkpt lat="42.86282" lon="2.4625">
        <ele>458.2</ele>
        <time>2021-06-05T18:02:09Z</time>
      </trkpt>
      <trkpt lat="42.86264" lon="2.46244">
        <ele>456.8</ele>
        <time>2021-06-05T18:02:13Z</time>
      </trkpt>
      <trkpt lat="42.86246" lon="2.46223">
        <ele>455.4</ele>
        <time>2021-06-05T18:02:17Z</time>
      </trkpt>
      <trkpt lat="42.86229" lon="2.46195">
        <ele>453.4</ele>
        <time>2021-06-05T18:02:21Z</time>
      </trkpt>
      <trkpt lat="42.86215" lon="2.46171">
        <ele>452</ele>
        <time>2021-06-05T18:02:25Z</time>
      </trkpt>
      <trkpt lat="42.86208" lon="2.46146">
        <ele>451</ele>
        <time>2021-06-05T18:02:29Z</time>
      </trkpt>
      <trkpt lat="42.86206" lon="2.46121">
        <ele>450.4</ele>
        <time>2021-06-05T18:02:33Z</time>
      </trkpt>
      <trkpt lat="42.86205" lon="2.46095">
        <ele>449.6</ele>
        <time>2021-06-05T18:02:37Z</time>
      </trkpt>
      <trkpt lat="42.86205" lon="2.46076">
        <ele>449.2</ele>
        <time>2021-06-05T18:02:41Z</time>
      </trkpt>
      <trkpt lat="42.86205" lon="2.46057">
        <ele>448.6</ele>
        <time>2021-06-05T18:02:45Z</time>
      </trkpt>
      <trkpt lat="42.86201" lon="2.46037">
        <ele>447.8</ele>
        <time>2021-06-05T18:02:49Z</time>
      </trkpt>
      <trkpt lat="42.86197" lon="2.46019">
        <ele>447.4</ele>
        <time>2021-06-05T18:02:53Z</time>
      </trkpt>
      <trkpt lat="42.86193" lon="2.46007">
        <ele>447</ele>
        <time>2021-06-05T18:02:57Z</time>
      </trkpt>
      <trkpt lat="42.86189" lon="2.46002">
        <ele>446.8</ele>
        <time>2021-06-05T18:03:01Z</time>
      </trkpt>
      <trkpt lat="42.86188" lon="2.46">
        <ele>446.6</ele>
        <time>2021-06-05T18:03:05Z</time>
      </trkpt>
      <trkpt lat="42.86188" lon="2.46001">
        <ele>446.4</ele>
        <time>2021-06-05T18:03:09Z</time>
      </trkpt>
      <trkpt lat="42.86181" lon="2.46007">
        <ele>446</ele>
        <time>2021-06-05T18:03:21Z</time>
      </trkpt>
      <trkpt lat="42.86168" lon="2.46011">
        <ele>445</ele>
        <time>2021-06-05T18:03:36Z</time>
      </trkpt>
      <trkpt lat="42.86164" lon="2.46006">
        <ele>444.8</ele>
        <time>2021-06-05T18:03:40Z</time>
      </trkpt>
      <trkpt lat="42.86164" lon="2.45998">
        <ele>444.6</ele>
        <time>2021-06-05T18:03:44Z</time>
      </trkpt>
      <trkpt lat="42.86165" lon="2.4599">
        <ele>444.4</ele>
        <time>2021-06-05T18:03:48Z</time>
      </trkpt>
      <trkpt lat="42.86169" lon="2.45978">
        <ele>444</ele>
        <time>2021-06-05T18:03:52Z</time>
      </trkpt>
      <trkpt lat="42.8617" lon="2.45974">
        <ele>443.8</ele>
        <time>2021-06-05T18:03:56Z</time>
      </trkpt>
      <trkpt lat="42.86168" lon="2.45973">
        <ele>443.8</ele>
        <time>2021-06-05T18:04:00Z</time>
      </trkpt>
      <trkpt lat="42.86174" lon="2.45952">
        <ele>444.2</ele>
        <time>2021-06-05T18:06:35Z</time>
      </trkpt>
      <trkpt lat="42.86174" lon="2.45951">
        <ele>444.2</ele>
        <time>2021-06-05T18:06:39Z</time>
      </trkpt>
      <trkpt lat="42.86174" lon="2.45951">
        <ele>444.2</ele>
        <time>2021-06-05T18:06:42Z</time>
      </trkpt>
      <trkpt lat="42.86192" lon="2.46015">
        <ele>438.2</ele>
        <time>2021-06-06T06:35:18Z</time>
      </trkpt>
      <trkpt lat="42.86192" lon="2.46022">
        <ele>438.4</ele>
        <time>2021-06-06T06:35:19Z</time>
      </trkpt>
      <trkpt lat="42.86196" lon="2.46036">
        <ele>438.6</ele>
        <time>2021-06-06T06:35:23Z</time>
      </trkpt>
      <trkpt lat="42.862" lon="2.46051">
        <ele>439.2</ele>
        <time>2021-06-06T06:35:27Z</time>
      </trkpt>
      <trkpt lat="42.86201" lon="2.46062">
        <ele>439.4</ele>
        <time>2021-06-06T06:35:30Z</time>
      </trkpt>
      <trkpt lat="42.86202" lon="2.46077">
        <ele>439.6</ele>
        <time>2021-06-06T06:35:34Z</time>
      </trkpt>
      <trkpt lat="42.86202" lon="2.46091">
        <ele>440</ele>
        <time>2021-06-06T06:35:38Z</time>
      </trkpt>
      <trkpt lat="42.86203" lon="2.46105">
        <ele>440.4</ele>
        <time>2021-06-06T06:35:42Z</time>
      </trkpt>
      <trkpt lat="42.86205" lon="2.46118">
        <ele>440.6</ele>
        <time>2021-06-06T06:35:46Z</time>
      </trkpt>
      <trkpt lat="42.86206" lon="2.46131">
        <ele>440.8</ele>
        <time>2021-06-06T06:35:50Z</time>
      </trkpt>
      <trkpt lat="42.86206" lon="2.46143">
        <ele>441.2</ele>
        <time>2021-06-06T06:35:54Z</time>
      </trkpt>
      <trkpt lat="42.86208" lon="2.46149">
        <ele>441.4</ele>
        <time>2021-06-06T06:35:57Z</time>
      </trkpt>
      <trkpt lat="42.86213" lon="2.46154">
        <ele>441.8</ele>
        <time>2021-06-06T06:36:01Z</time>
      </trkpt>
      <trkpt lat="42.86219" lon="2.46158">
        <ele>442</ele>
        <time>2021-06-06T06:36:05Z</time>
      </trkpt>
      <trkpt lat="42.8622" lon="2.46158">
        <ele>442.2</ele>
        <time>2021-06-06T06:36:09Z</time>
      </trkpt>
      <trkpt lat="42.86221" lon="2.46158">
        <ele>442.2</ele>
        <time>2021-06-06T06:36:13Z</time>
      </trkpt>
      <trkpt lat="42.86208" lon="2.46147">
        <ele>441</ele>
        <time>2021-06-06T06:56:01Z</time>
      </trkpt>
      <trkpt lat="42.86207" lon="2.46128">
        <ele>440.8</ele>
        <time>2021-06-06T06:56:05Z</time>
      </trkpt>
      <trkpt lat="42.86206" lon="2.46112">
        <ele>440.6</ele>
        <time>2021-06-06T06:56:08Z</time>
      </trkpt>
      <trkpt lat="42.86198" lon="2.46097">
        <ele>440.6</ele>
        <time>2021-06-06T06:56:12Z</time>
      </trkpt>
      <trkpt lat="42.86189" lon="2.46102">
        <ele>441.2</ele>
        <time>2021-06-06T06:56:16Z</time>
      </trkpt>
      <trkpt lat="42.86181" lon="2.46105">
        <ele>441.2</ele>
        <time>2021-06-06T06:56:20Z</time>
      </trkpt>
      <trkpt lat="42.86174" lon="2.46105">
        <ele>441</ele>
        <time>2021-06-06T06:56:24Z</time>
      </trkpt>
      <trkpt lat="42.86164" lon="2.46109">
        <ele>440.4</ele>
        <time>2021-06-06T06:56:28Z</time>
      </trkpt>
      <trkpt lat="42.86153" lon="2.46112">
        <ele>439.4</ele>
        <time>2021-06-06T06:56:32Z</time>
      </trkpt>
      <trkpt lat="42.86151" lon="2.46108">
        <ele>439.2</ele>
        <time>2021-06-06T06:56:35Z</time>
      </trkpt>
      <trkpt lat="42.8615" lon="2.46095">
        <ele>439.2</ele>
        <time>2021-06-06T06:56:39Z</time>
      </trkpt>
      <trkpt lat="42.8615" lon="2.4608">
        <ele>439.2</ele>
        <time>2021-06-06T06:56:43Z</time>
      </trkpt>
      <trkpt lat="42.8615" lon="2.4607">
        <ele>439</ele>
        <time>2021-06-06T06:56:47Z</time>
      </trkpt>
      <trkpt lat="42.86148" lon="2.46065">
        <ele>438.4</ele>
        <time>2021-06-06T06:56:51Z</time>
      </trkpt>
      <trkpt lat="42.86149" lon="2.46062">
        <ele>438.2</ele>
        <time>2021-06-06T06:56:55Z</time>
      </trkpt>
      <trkpt lat="42.8613" lon="2.46057">
        <ele>437.6</ele>
        <time>2021-06-06T06:57:44Z</time>
      </trkpt>
      <trkpt lat="42.86124" lon="2.46051">
        <ele>436.8</ele>
        <time>2021-06-06T06:57:47Z</time>
      </trkpt>
      <trkpt lat="42.86119" lon="2.46043">
        <ele>435.8</ele>
        <time>2021-06-06T06:57:51Z</time>
      </trkpt>
      <trkpt lat="42.86105" lon="2.46035">
        <ele>434.4</ele>
        <time>2021-06-06T06:57:55Z</time>
      </trkpt>
      <trkpt lat="42.86095" lon="2.46023">
        <ele>433.4</ele>
        <time>2021-06-06T06:57:59Z</time>
      </trkpt>
      <trkpt lat="42.86084" lon="2.46016">
        <ele>433.4</ele>
        <time>2021-06-06T06:58:03Z</time>
      </trkpt>
      <trkpt lat="42.86068" lon="2.46019">
        <ele>433.6</ele>
        <time>2021-06-06T06:58:07Z</time>
      </trkpt>
      <trkpt lat="42.86058" lon="2.46036">
        <ele>433.4</ele>
        <time>2021-06-06T06:58:11Z</time>
      </trkpt>
      <trkpt lat="42.86051" lon="2.46048">
        <ele>433.4</ele>
        <time>2021-06-06T06:58:14Z</time>
      </trkpt>
      <trkpt lat="42.86034" lon="2.46058">
        <ele>433.2</ele>
        <time>2021-06-06T06:58:18Z</time>
      </trkpt>
      <trkpt lat="42.86016" lon="2.4606">
        <ele>432.6</ele>
        <time>2021-06-06T06:58:22Z</time>
      </trkpt>
      <trkpt lat="42.85993" lon="2.46064">
        <ele>431.8</ele>
        <time>2021-06-06T06:58:26Z</time>
      </trkpt>
      <trkpt lat="42.85971" lon="2.46073">
        <ele>431.4</ele>
        <time>2021-06-06T06:58:30Z</time>
      </trkpt>
      <trkpt lat="42.85948" lon="2.46083">
        <ele>430.8</ele>
        <time>2021-06-06T06:58:34Z</time>
      </trkpt>
      <trkpt lat="42.85931" lon="2.46093">
        <ele>430.2</ele>
        <time>2021-06-06T06:58:37Z</time>
      </trkpt>
      <trkpt lat="42.8591" lon="2.4611">
        <ele>429.6</ele>
        <time>2021-06-06T06:58:41Z</time>
      </trkpt>
      <trkpt lat="42.85888" lon="2.4613">
        <ele>429</ele>
        <time>2021-06-06T06:58:45Z</time>
      </trkpt>
      <trkpt lat="42.8587" lon="2.46147">
        <ele>427.6</ele>
        <time>2021-06-06T06:58:49Z</time>
      </trkpt>
      <trkpt lat="42.85852" lon="2.46162">
        <ele>427</ele>
        <time>2021-06-06T06:58:53Z</time>
      </trkpt>
      <trkpt lat="42.85833" lon="2.46175">
        <ele>426.8</ele>
        <time>2021-06-06T06:58:57Z</time>
      </trkpt>
      <trkpt lat="42.85814" lon="2.46183">
        <ele>426.6</ele>
        <time>2021-06-06T06:59:01Z</time>
      </trkpt>
      <trkpt lat="42.858" lon="2.46187">
        <ele>426.2</ele>
        <time>2021-06-06T06:59:04Z</time>
      </trkpt>
      <trkpt lat="42.85786" lon="2.46191">
        <ele>426</ele>
        <time>2021-06-06T06:59:08Z</time>
      </trkpt>
      <trkpt lat="42.85775" lon="2.46196">
        <ele>425.6</ele>
        <time>2021-06-06T06:59:12Z</time>
      </trkpt>
      <trkpt lat="42.85766" lon="2.46199">
        <ele>425.2</ele>
        <time>2021-06-06T06:59:16Z</time>
      </trkpt>
      <trkpt lat="42.8576" lon="2.46202">
        <ele>425</ele>
        <time>2021-06-06T06:59:20Z</time>
      </trkpt>
      <trkpt lat="42.85752" lon="2.46204">
        <ele>424.6</ele>
        <time>2021-06-06T06:59:24Z</time>
      </trkpt>
      <trkpt lat="42.85745" lon="2.46207">
        <ele>424.4</ele>
        <time>2021-06-06T06:59:28Z</time>
      </trkpt>
      <trkpt lat="42.8574" lon="2.46209">
        <ele>424.2</ele>
        <time>2021-06-06T06:59:31Z</time>
      </trkpt>
      <trkpt lat="42.85734" lon="2.46214">
        <ele>424</ele>
        <time>2021-06-06T06:59:35Z</time>
      </trkpt>
      <trkpt lat="42.85728" lon="2.46218">
        <ele>423.6</ele>
        <time>2021-06-06T06:59:39Z</time>
      </trkpt>
      <trkpt lat="42.85726" lon="2.4622">
        <ele>423.8</ele>
        <time>2021-06-06T06:59:43Z</time>
      </trkpt>
      <trkpt lat="42.85724" lon="2.46222">
        <ele>423.6</ele>
        <time>2021-06-06T06:59:47Z</time>
      </trkpt>
      <trkpt lat="42.85697" lon="2.46254">
        <ele>422.6</ele>
        <time>2021-06-06T07:00:57Z</time>
      </trkpt>
      <trkpt lat="42.85686" lon="2.46275">
        <ele>422</ele>
        <time>2021-06-06T07:01:01Z</time>
      </trkpt>
      <trkpt lat="42.85677" lon="2.46291">
        <ele>421.4</ele>
        <time>2021-06-06T07:01:04Z</time>
      </trkpt>
      <trkpt lat="42.85666" lon="2.46316">
        <ele>421</ele>
        <time>2021-06-06T07:01:08Z</time>
      </trkpt>
      <trkpt lat="42.85654" lon="2.46341">
        <ele>420.4</ele>
        <time>2021-06-06T07:01:12Z</time>
      </trkpt>
      <trkpt lat="42.85642" lon="2.46363">
        <ele>420.2</ele>
        <time>2021-06-06T07:01:16Z</time>
      </trkpt>
      <trkpt lat="42.85632" lon="2.46386">
        <ele>419.6</ele>
        <time>2021-06-06T07:01:20Z</time>
      </trkpt>
      <trkpt lat="42.85621" lon="2.46409">
        <ele>419.2</ele>
        <time>2021-06-06T07:01:24Z</time>
      </trkpt>
      <trkpt lat="42.85608" lon="2.46433">
        <ele>418.4</ele>
        <time>2021-06-06T07:01:28Z</time>
      </trkpt>
      <trkpt lat="42.85594" lon="2.46449">
        <ele>417.8</ele>
        <time>2021-06-06T07:01:31Z</time>
      </trkpt>
      <trkpt lat="42.8557" lon="2.46458">
        <ele>417.4</ele>
        <time>2021-06-06T07:01:35Z</time>
      </trkpt>
      <trkpt lat="42.85546" lon="2.46465">
        <ele>416.6</ele>
        <time>2021-06-06T07:01:39Z</time>
      </trkpt>
      <trkpt lat="42.85525" lon="2.46481">
        <ele>415.2</ele>
        <time>2021-06-06T07:01:43Z</time>
      </trkpt>
      <trkpt lat="42.85505" lon="2.465">
        <ele>414</ele>
        <time>2021-06-06T07:01:47Z</time>
      </trkpt>
      <trkpt lat="42.85484" lon="2.46521">
        <ele>413.8</ele>
        <time>2021-06-06T07:01:51Z</time>
      </trkpt>
      <trkpt lat="42.85469" lon="2.46539">
        <ele>413.2</ele>
        <time>2021-06-06T07:01:54Z</time>
      </trkpt>
      <trkpt lat="42.85448" lon="2.46566">
        <ele>412.2</ele>
        <time>2021-06-06T07:01:58Z</time>
      </trkpt>
      <trkpt lat="42.85426" lon="2.46593">
        <ele>411.4</ele>
        <time>2021-06-06T07:02:02Z</time>
      </trkpt>
      <trkpt lat="42.85401" lon="2.46619">
        <ele>411</ele>
        <time>2021-06-06T07:02:06Z</time>
      </trkpt>
      <trkpt lat="42.85374" lon="2.46643">
        <ele>410.2</ele>
        <time>2021-06-06T07:02:10Z</time>
      </trkpt>
      <trkpt lat="42.85344" lon="2.46645">
        <ele>409.8</ele>
        <time>2021-06-06T07:02:14Z</time>
      </trkpt>
      <trkpt lat="42.85318" lon="2.46664">
        <ele>410.4</ele>
        <time>2021-06-06T07:02:18Z</time>
      </trkpt>
      <trkpt lat="42.85306" lon="2.46692">
        <ele>409.8</ele>
        <time>2021-06-06T07:02:21Z</time>
      </trkpt>
      <trkpt lat="42.85298" lon="2.46733">
        <ele>409.2</ele>
        <time>2021-06-06T07:02:25Z</time>
      </trkpt>
      <trkpt lat="42.8529" lon="2.46773">
        <ele>408.8</ele>
        <time>2021-06-06T07:02:29Z</time>
      </trkpt>
      <trkpt lat="42.85282" lon="2.46813">
        <ele>407</ele>
        <time>2021-06-06T07:02:33Z</time>
      </trkpt>
      <trkpt lat="42.85274" lon="2.46853">
        <ele>405.6</ele>
        <time>2021-06-06T07:02:37Z</time>
      </trkpt>
      <trkpt lat="42.85267" lon="2.4689">
        <ele>404.8</ele>
        <time>2021-06-06T07:02:41Z</time>
      </trkpt>
      <trkpt lat="42.85261" lon="2.46924">
        <ele>404.2</ele>
        <time>2021-06-06T07:02:45Z</time>
      </trkpt>
      <trkpt lat="42.85259" lon="2.46949">
        <ele>403.8</ele>
        <time>2021-06-06T07:02:48Z</time>
      </trkpt>
      <trkpt lat="42.85254" lon="2.4698">
        <ele>403</ele>
        <time>2021-06-06T07:02:52Z</time>
      </trkpt>
      <trkpt lat="42.85246" lon="2.47006">
        <ele>403</ele>
        <time>2021-06-06T07:02:56Z</time>
      </trkpt>
      <trkpt lat="42.85235" lon="2.47024">
        <ele>402.8</ele>
        <time>2021-06-06T07:03:00Z</time>
      </trkpt>
      <trkpt lat="42.85218" lon="2.47035">
        <ele>402.4</ele>
        <time>2021-06-06T07:03:04Z</time>
      </trkpt>
      <trkpt lat="42.85199" lon="2.47042">
        <ele>401.8</ele>
        <time>2021-06-06T07:03:08Z</time>
      </trkpt>
      <trkpt lat="42.85176" lon="2.47041">
        <ele>401.6</ele>
        <time>2021-06-06T07:03:12Z</time>
      </trkpt>
      <trkpt lat="42.85161" lon="2.47041">
        <ele>401.4</ele>
        <time>2021-06-06T07:03:15Z</time>
      </trkpt>
      <trkpt lat="42.85141" lon="2.47047">
        <ele>400.4</ele>
        <time>2021-06-06T07:03:19Z</time>
      </trkpt>
      <trkpt lat="42.85121" lon="2.47048">
        <ele>400.2</ele>
        <time>2021-06-06T07:03:23Z</time>
      </trkpt>
      <trkpt lat="42.85103" lon="2.47042">
        <ele>400</ele>
        <time>2021-06-06T07:03:27Z</time>
      </trkpt>
      <trkpt lat="42.85086" lon="2.47028">
        <ele>400</ele>
        <time>2021-06-06T07:03:31Z</time>
      </trkpt>
      <trkpt lat="42.85067" lon="2.47019">
        <ele>399.4</ele>
        <time>2021-06-06T07:03:35Z</time>
      </trkpt>
      <trkpt lat="42.85047" lon="2.47026">
        <ele>398.8</ele>
        <time>2021-06-06T07:03:39Z</time>
      </trkpt>
      <trkpt lat="42.85046" lon="2.47027">
        <ele>398.8</ele>
        <time>2021-06-06T07:03:42Z</time>
      </trkpt>
      <trkpt lat="42.85046" lon="2.47026">
        <ele>398.8</ele>
        <time>2021-06-06T07:03:46Z</time>
      </trkpt>
      <trkpt lat="42.85012" lon="2.47045">
        <ele>398</ele>
        <time>2021-06-06T07:04:38Z</time>
      </trkpt>
      <trkpt lat="42.84996" lon="2.47057">
        <ele>397.8</ele>
        <time>2021-06-06T07:04:42Z</time>
      </trkpt>
      <trkpt lat="42.84981" lon="2.47071">
        <ele>397</ele>
        <time>2021-06-06T07:04:46Z</time>
      </trkpt>
      <trkpt lat="42.8497" lon="2.47086">
        <ele>396.4</ele>
        <time>2021-06-06T07:04:50Z</time>
      </trkpt>
      <trkpt lat="42.84964" lon="2.47096">
        <ele>396</ele>
        <time>2021-06-06T07:04:54Z</time>
      </trkpt>
      <trkpt lat="42.84957" lon="2.47103">
        <ele>396</ele>
        <time>2021-06-06T07:04:57Z</time>
      </trkpt>
      <trkpt lat="42.84945" lon="2.47116">
        <ele>395.4</ele>
        <time>2021-06-06T07:05:01Z</time>
      </trkpt>
      <trkpt lat="42.84933" lon="2.4713">
        <ele>394.8</ele>
        <time>2021-06-06T07:05:05Z</time>
      </trkpt>
      <trkpt lat="42.84916" lon="2.47136">
        <ele>394.4</ele>
        <time>2021-06-06T07:05:09Z</time>
      </trkpt>
      <trkpt lat="42.84898" lon="2.47131">
        <ele>394</ele>
        <time>2021-06-06T07:05:13Z</time>
      </trkpt>
      <trkpt lat="42.84881" lon="2.47121">
        <ele>393.6</ele>
        <time>2021-06-06T07:05:17Z</time>
      </trkpt>
      <trkpt lat="42.84869" lon="2.47114">
        <ele>393.4</ele>
        <time>2021-06-06T07:05:20Z</time>
      </trkpt>
      <trkpt lat="42.84853" lon="2.47106">
        <ele>392.8</ele>
        <time>2021-06-06T07:05:24Z</time>
      </trkpt>
      <trkpt lat="42.84836" lon="2.47096">
        <ele>392.4</ele>
        <time>2021-06-06T07:05:28Z</time>
      </trkpt>
      <trkpt lat="42.8482" lon="2.47083">
        <ele>390.8</ele>
        <time>2021-06-06T07:05:32Z</time>
      </trkpt>
      <trkpt lat="42.84807" lon="2.47062">
        <ele>390.6</ele>
        <time>2021-06-06T07:05:36Z</time>
      </trkpt>
      <trkpt lat="42.84803" lon="2.47035">
        <ele>390</ele>
        <time>2021-06-06T07:05:40Z</time>
      </trkpt>
      <trkpt lat="42.84804" lon="2.47006">
        <ele>388.8</ele>
        <time>2021-06-06T07:05:44Z</time>
      </trkpt>
      <trkpt lat="42.84809" lon="2.46987">
        <ele>389</ele>
        <time>2021-06-06T07:05:47Z</time>
      </trkpt>
      <trkpt lat="42.84815" lon="2.46963">
        <ele>388.8</ele>
        <time>2021-06-06T07:05:51Z</time>
      </trkpt>
      <trkpt lat="42.8482" lon="2.4694">
        <ele>388.6</ele>
        <time>2021-06-06T07:05:55Z</time>
      </trkpt>
      <trkpt lat="42.84822" lon="2.46916">
        <ele>388.6</ele>
        <time>2021-06-06T07:05:59Z</time>
      </trkpt>
      <trkpt lat="42.8482" lon="2.46892">
        <ele>388</ele>
        <time>2021-06-06T07:06:03Z</time>
      </trkpt>
      <trkpt lat="42.84808" lon="2.46871">
        <ele>387.4</ele>
        <time>2021-06-06T07:06:07Z</time>
      </trkpt>
      <trkpt lat="42.84794" lon="2.46854">
        <ele>386.6</ele>
        <time>2021-06-06T07:06:11Z</time>
      </trkpt>
      <trkpt lat="42.84786" lon="2.46843">
        <ele>386.2</ele>
        <time>2021-06-06T07:06:14Z</time>
      </trkpt>
      <trkpt lat="42.84785" lon="2.46841">
        <ele>386.2</ele>
        <time>2021-06-06T07:06:18Z</time>
      </trkpt>
      <trkpt lat="42.84785" lon="2.4684">
        <ele>386.2</ele>
        <time>2021-06-06T07:06:22Z</time>
      </trkpt>
      <trkpt lat="42.84766" lon="2.46802">
        <ele>385.8</ele>
        <time>2021-06-06T07:07:50Z</time>
      </trkpt>
      <trkpt lat="42.84752" lon="2.46811">
        <ele>384.8</ele>
        <time>2021-06-06T07:07:54Z</time>
      </trkpt>
      <trkpt lat="42.84743" lon="2.46824">
        <ele>384.4</ele>
        <time>2021-06-06T07:07:58Z</time>
      </trkpt>
      <trkpt lat="42.84742" lon="2.46826">
        <ele>384.2</ele>
        <time>2021-06-06T07:08:02Z</time>
      </trkpt>
      <trkpt lat="42.8474" lon="2.46827">
        <ele>384.2</ele>
        <time>2021-06-06T07:08:05Z</time>
      </trkpt>
      <trkpt lat="42.8473" lon="2.46863">
        <ele>383</ele>
        <time>2021-06-06T07:08:31Z</time>
      </trkpt>
      <trkpt lat="42.84724" lon="2.46873">
        <ele>382.8</ele>
        <time>2021-06-06T07:08:35Z</time>
      </trkpt>
      <trkpt lat="42.84719" lon="2.46883">
        <ele>382.2</ele>
        <time>2021-06-06T07:08:39Z</time>
      </trkpt>
      <trkpt lat="42.84715" lon="2.46887">
        <ele>382.4</ele>
        <time>2021-06-06T07:08:43Z</time>
      </trkpt>
      <trkpt lat="42.84715" lon="2.46887">
        <ele>382.4</ele>
        <time>2021-06-06T07:08:47Z</time>
      </trkpt>
      <trkpt lat="42.84703" lon="2.46916">
        <ele>380.8</ele>
        <time>2021-06-06T07:09:22Z</time>
      </trkpt>
      <trkpt lat="42.84698" lon="2.46924">
        <ele>380.4</ele>
        <time>2021-06-06T07:09:25Z</time>
      </trkpt>
      <trkpt lat="42.84696" lon="2.46927">
        <ele>380.2</ele>
        <time>2021-06-06T07:09:29Z</time>
      </trkpt>
      <trkpt lat="42.84694" lon="2.46928">
        <ele>380.2</ele>
        <time>2021-06-06T07:09:33Z</time>
      </trkpt>
      <trkpt lat="42.84662" lon="2.4695">
        <ele>378</ele>
        <time>2021-06-06T07:12:54Z</time>
      </trkpt>
      <trkpt lat="42.84647" lon="2.46962">
        <ele>377.4</ele>
        <time>2021-06-06T07:12:58Z</time>
      </trkpt>
      <trkpt lat="42.84632" lon="2.46978">
        <ele>376.4</ele>
        <time>2021-06-06T07:13:02Z</time>
      </trkpt>
      <trkpt lat="42.8462" lon="2.47002">
        <ele>375.8</ele>
        <time>2021-06-06T07:13:06Z</time>
      </trkpt>
      <trkpt lat="42.8462" lon="2.47025">
        <ele>375.4</ele>
        <time>2021-06-06T07:13:09Z</time>
      </trkpt>
      <trkpt lat="42.84623" lon="2.47055">
        <ele>374.8</ele>
        <time>2021-06-06T07:13:13Z</time>
      </trkpt>
      <trkpt lat="42.84621" lon="2.47082">
        <ele>374.6</ele>
        <time>2021-06-06T07:13:17Z</time>
      </trkpt>
      <trkpt lat="42.8462" lon="2.47087">
        <ele>374.2</ele>
        <time>2021-06-06T07:13:21Z</time>
      </trkpt>
      <trkpt lat="42.8462" lon="2.47088">
        <ele>374.2</ele>
        <time>2021-06-06T07:13:25Z</time>
      </trkpt>
      <trkpt lat="42.84623" lon="2.47133">
        <ele>373</ele>
        <time>2021-06-06T07:14:25Z</time>
      </trkpt>
      <trkpt lat="42.84622" lon="2.47146">
        <ele>372.6</ele>
        <time>2021-06-06T07:14:28Z</time>
      </trkpt>
      <trkpt lat="42.84619" lon="2.47166">
        <ele>371.8</ele>
        <time>2021-06-06T07:14:32Z</time>
      </trkpt>
      <trkpt lat="42.84625" lon="2.47187">
        <ele>371.2</ele>
        <time>2021-06-06T07:14:36Z</time>
      </trkpt>
      <trkpt lat="42.84636" lon="2.47206">
        <ele>370.8</ele>
        <time>2021-06-06T07:14:40Z</time>
      </trkpt>
      <trkpt lat="42.84652" lon="2.47221">
        <ele>370.2</ele>
        <time>2021-06-06T07:14:44Z</time>
      </trkpt>
      <trkpt lat="42.84665" lon="2.47245">
        <ele>369.4</ele>
        <time>2021-06-06T07:14:48Z</time>
      </trkpt>
      <trkpt lat="42.84674" lon="2.47275">
        <ele>368.2</ele>
        <time>2021-06-06T07:14:52Z</time>
      </trkpt>
      <trkpt lat="42.84679" lon="2.47298">
        <ele>367.8</ele>
        <time>2021-06-06T07:14:55Z</time>
      </trkpt>
      <trkpt lat="42.84682" lon="2.47331">
        <ele>366.8</ele>
        <time>2021-06-06T07:14:59Z</time>
      </trkpt>
      <trkpt lat="42.84683" lon="2.47364">
        <ele>366.2</ele>
        <time>2021-06-06T07:15:03Z</time>
      </trkpt>
      <trkpt lat="42.84683" lon="2.474">
        <ele>365.8</ele>
        <time>2021-06-06T07:15:07Z</time>
      </trkpt>
      <trkpt lat="42.84684" lon="2.47435">
        <ele>364.4</ele>
        <time>2021-06-06T07:15:11Z</time>
      </trkpt>
      <trkpt lat="42.84683" lon="2.47469">
        <ele>363</ele>
        <time>2021-06-06T07:15:15Z</time>
      </trkpt>
      <trkpt lat="42.84669" lon="2.47496">
        <ele>362</ele>
        <time>2021-06-06T07:15:19Z</time>
      </trkpt>
      <trkpt lat="42.84655" lon="2.47515">
        <ele>360.8</ele>
        <time>2021-06-06T07:15:22Z</time>
      </trkpt>
      <trkpt lat="42.84638" lon="2.47539">
        <ele>359.8</ele>
        <time>2021-06-06T07:15:26Z</time>
      </trkpt>
      <trkpt lat="42.84629" lon="2.47569">
        <ele>359.4</ele>
        <time>2021-06-06T07:15:30Z</time>
      </trkpt>
      <trkpt lat="42.84629" lon="2.47605">
        <ele>359</ele>
        <time>2021-06-06T07:15:34Z</time>
      </trkpt>
      <trkpt lat="42.84631" lon="2.47638">
        <ele>358.6</ele>
        <time>2021-06-06T07:15:38Z</time>
      </trkpt>
      <trkpt lat="42.84627" lon="2.47674">
        <ele>357.4</ele>
        <time>2021-06-06T07:15:42Z</time>
      </trkpt>
      <trkpt lat="42.84615" lon="2.47711">
        <ele>356.6</ele>
        <time>2021-06-06T07:15:46Z</time>
      </trkpt>
      <trkpt lat="42.84604" lon="2.47737">
        <ele>356.8</ele>
        <time>2021-06-06T07:15:49Z</time>
      </trkpt>
      <trkpt lat="42.8459" lon="2.47764">
        <ele>356.8</ele>
        <time>2021-06-06T07:15:53Z</time>
      </trkpt>
      <trkpt lat="42.84579" lon="2.47782">
        <ele>356.6</ele>
        <time>2021-06-06T07:15:57Z</time>
      </trkpt>
      <trkpt lat="42.8457" lon="2.47797">
        <ele>356.6</ele>
        <time>2021-06-06T07:16:01Z</time>
      </trkpt>
      <trkpt lat="42.84559" lon="2.47809">
        <ele>356.8</ele>
        <time>2021-06-06T07:16:05Z</time>
      </trkpt>
      <trkpt lat="42.8455" lon="2.47816">
        <ele>356.8</ele>
        <time>2021-06-06T07:16:09Z</time>
      </trkpt>
      <trkpt lat="42.84543" lon="2.47818">
        <ele>357.2</ele>
        <time>2021-06-06T07:16:13Z</time>
      </trkpt>
      <trkpt lat="42.84539" lon="2.47815">
        <ele>358.2</ele>
        <time>2021-06-06T07:16:16Z</time>
      </trkpt>
      <trkpt lat="42.84532" lon="2.47816">
        <ele>359.2</ele>
        <time>2021-06-06T07:16:20Z</time>
      </trkpt>
      <trkpt lat="42.84525" lon="2.4782">
        <ele>359.4</ele>
        <time>2021-06-06T07:16:24Z</time>
      </trkpt>
      <trkpt lat="42.8452" lon="2.47822">
        <ele>360.2</ele>
        <time>2021-06-06T07:16:28Z</time>
      </trkpt>
      <trkpt lat="42.8452" lon="2.47822">
        <ele>358.4</ele>
        <time>2021-06-06T07:16:32Z</time>
      </trkpt>
      <trkpt lat="42.84509" lon="2.47836">
        <ele>359</ele>
        <time>2021-06-06T07:17:34Z</time>
      </trkpt>
      <trkpt lat="42.84508" lon="2.47838">
        <ele>359.2</ele>
        <time>2021-06-06T07:17:37Z</time>
      </trkpt>
      <trkpt lat="42.84508" lon="2.47839">
        <ele>358.8</ele>
        <time>2021-06-06T07:17:41Z</time>
      </trkpt>
      <trkpt lat="42.84498" lon="2.47854">
        <ele>358.6</ele>
        <time>2021-06-06T07:17:51Z</time>
      </trkpt>
      <trkpt lat="42.8449" lon="2.47856">
        <ele>359.4</ele>
        <time>2021-06-06T07:17:55Z</time>
      </trkpt>
      <trkpt lat="42.84481" lon="2.47857">
        <ele>358.6</ele>
        <time>2021-06-06T07:17:59Z</time>
      </trkpt>
      <trkpt lat="42.84478" lon="2.47857">
        <ele>357.8</ele>
        <time>2021-06-06T07:18:03Z</time>
      </trkpt>
      <trkpt lat="42.84478" lon="2.47856">
        <ele>358.8</ele>
        <time>2021-06-06T07:18:07Z</time>
      </trkpt>
      <trkpt lat="42.8446" lon="2.47836">
        <ele>359.2</ele>
        <time>2021-06-06T07:18:40Z</time>
      </trkpt>
      <trkpt lat="42.84452" lon="2.47839">
        <ele>360</ele>
        <time>2021-06-06T07:18:44Z</time>
      </trkpt>
      <trkpt lat="42.84443" lon="2.47841">
        <ele>359.6</ele>
        <time>2021-06-06T07:18:48Z</time>
      </trkpt>
      <trkpt lat="42.84434" lon="2.47843">
        <ele>360.6</ele>
        <time>2021-06-06T07:18:52Z</time>
      </trkpt>
      <trkpt lat="42.84428" lon="2.47852">
        <ele>362.4</ele>
        <time>2021-06-06T07:18:56Z</time>
      </trkpt>
      <trkpt lat="42.84423" lon="2.47861">
        <ele>361.6</ele>
        <time>2021-06-06T07:19:00Z</time>
      </trkpt>
      <trkpt lat="42.84417" lon="2.47864">
        <ele>361.2</ele>
        <time>2021-06-06T07:19:04Z</time>
      </trkpt>
      <trkpt lat="42.84409" lon="2.47868">
        <ele>360.6</ele>
        <time>2021-06-06T07:19:07Z</time>
      </trkpt>
      <trkpt lat="42.844" lon="2.47879">
        <ele>361.8</ele>
        <time>2021-06-06T07:19:11Z</time>
      </trkpt>
      <trkpt lat="42.84392" lon="2.47892">
        <ele>362.2</ele>
        <time>2021-06-06T07:19:15Z</time>
      </trkpt>
      <trkpt lat="42.84381" lon="2.47903">
        <ele>362.2</ele>
        <time>2021-06-06T07:19:19Z</time>
      </trkpt>
      <trkpt lat="42.84372" lon="2.47919">
        <ele>362.4</ele>
        <time>2021-06-06T07:19:23Z</time>
      </trkpt>
      <trkpt lat="42.84365" lon="2.47935">
        <ele>362.8</ele>
        <time>2021-06-06T07:19:27Z</time>
      </trkpt>
      <trkpt lat="42.8436" lon="2.47949">
        <ele>362.8</ele>
        <time>2021-06-06T07:19:31Z</time>
      </trkpt>
      <trkpt lat="42.84356" lon="2.47957">
        <ele>362.8</ele>
        <time>2021-06-06T07:19:34Z</time>
      </trkpt>
      <trkpt lat="42.84354" lon="2.4796">
        <ele>362.8</ele>
        <time>2021-06-06T07:19:38Z</time>
      </trkpt>
      <trkpt lat="42.84354" lon="2.47961">
        <ele>362.6</ele>
        <time>2021-06-06T07:19:42Z</time>
      </trkpt>
      <trkpt lat="42.84329" lon="2.47976">
        <ele>363.6</ele>
        <time>2021-06-06T07:23:49Z</time>
      </trkpt>
      <trkpt lat="42.84319" lon="2.47978">
        <ele>363.8</ele>
        <time>2021-06-06T07:23:53Z</time>
      </trkpt>
      <trkpt lat="42.8431" lon="2.47983">
        <ele>364</ele>
        <time>2021-06-06T07:23:57Z</time>
      </trkpt>
      <trkpt lat="42.84298" lon="2.47982">
        <ele>364.2</ele>
        <time>2021-06-06T07:24:01Z</time>
      </trkpt>
      <trkpt lat="42.8429" lon="2.47982">
        <ele>364.2</ele>
        <time>2021-06-06T07:24:04Z</time>
      </trkpt>
      <trkpt lat="42.84282" lon="2.4798">
        <ele>364.8</ele>
        <time>2021-06-06T07:24:08Z</time>
      </trkpt>
      <trkpt lat="42.84275" lon="2.47978">
        <ele>366</ele>
        <time>2021-06-06T07:24:12Z</time>
      </trkpt>
      <trkpt lat="42.84273" lon="2.47977">
        <ele>366.4</ele>
        <time>2021-06-06T07:24:16Z</time>
      </trkpt>
      <trkpt lat="42.84273" lon="2.47975">
        <ele>366.8</ele>
        <time>2021-06-06T07:24:20Z</time>
      </trkpt>
      <trkpt lat="42.84264" lon="2.4799">
        <ele>365</ele>
        <time>2021-06-06T07:27:14Z</time>
      </trkpt>
      <trkpt lat="42.84263" lon="2.47991">
        <ele>365</ele>
        <time>2021-06-06T07:27:18Z</time>
      </trkpt>
      <trkpt lat="42.84241" lon="2.47996">
        <ele>367.6</ele>
        <time>2021-06-06T07:27:34Z</time>
      </trkpt>
      <trkpt lat="42.8423" lon="2.47995">
        <ele>367.6</ele>
        <time>2021-06-06T07:27:38Z</time>
      </trkpt>
      <trkpt lat="42.8422" lon="2.47989">
        <ele>368.4</ele>
        <time>2021-06-06T07:27:42Z</time>
      </trkpt>
      <trkpt lat="42.84209" lon="2.47986">
        <ele>369</ele>
        <time>2021-06-06T07:27:46Z</time>
      </trkpt>
      <trkpt lat="42.84199" lon="2.47982">
        <ele>369.8</ele>
        <time>2021-06-06T07:27:50Z</time>
      </trkpt>
      <trkpt lat="42.8419" lon="2.4798">
        <ele>370.2</ele>
        <time>2021-06-06T07:27:54Z</time>
      </trkpt>
      <trkpt lat="42.84182" lon="2.47975">
        <ele>370.6</ele>
        <time>2021-06-06T07:27:57Z</time>
      </trkpt>
      <trkpt lat="42.84173" lon="2.47971">
        <ele>370.6</ele>
        <time>2021-06-06T07:28:01Z</time>
      </trkpt>
      <trkpt lat="42.84166" lon="2.47959">
        <ele>370.8</ele>
        <time>2021-06-06T07:28:05Z</time>
      </trkpt>
      <trkpt lat="42.84164" lon="2.47946">
        <ele>371.2</ele>
        <time>2021-06-06T07:28:09Z</time>
      </trkpt>
      <trkpt lat="42.84163" lon="2.4794">
        <ele>371</ele>
        <time>2021-06-06T07:28:13Z</time>
      </trkpt>
      <trkpt lat="42.84141" lon="2.4788">
        <ele>369.2</ele>
        <time>2021-06-06T07:28:47Z</time>
      </trkpt>
      <trkpt lat="42.84131" lon="2.47872">
        <ele>369.4</ele>
        <time>2021-06-06T07:28:51Z</time>
      </trkpt>
      <trkpt lat="42.84127" lon="2.47861">
        <ele>369.4</ele>
        <time>2021-06-06T07:28:54Z</time>
      </trkpt>
      <trkpt lat="42.84125" lon="2.47849">
        <ele>371.2</ele>
        <time>2021-06-06T07:28:58Z</time>
      </trkpt>
      <trkpt lat="42.84133" lon="2.47844">
        <ele>371.2</ele>
        <time>2021-06-06T07:29:02Z</time>
      </trkpt>
      <trkpt lat="42.84115" lon="2.47838">
        <ele>379</ele>
        <time>2021-06-06T07:29:06Z</time>
      </trkpt>
      <trkpt lat="42.84099" lon="2.47832">
        <ele>375.8</ele>
        <time>2021-06-06T07:29:10Z</time>
      </trkpt>
      <trkpt lat="42.84083" lon="2.47828">
        <ele>375.8</ele>
        <time>2021-06-06T07:29:14Z</time>
      </trkpt>
      <trkpt lat="42.84069" lon="2.47822">
        <ele>377</ele>
        <time>2021-06-06T07:29:18Z</time>
      </trkpt>
      <trkpt lat="42.84066" lon="2.47819">
        <ele>376.2</ele>
        <time>2021-06-06T07:29:21Z</time>
      </trkpt>
      <trkpt lat="42.84064" lon="2.47814">
        <ele>376</ele>
        <time>2021-06-06T07:29:25Z</time>
      </trkpt>
      <trkpt lat="42.84046" lon="2.47808">
        <ele>377.4</ele>
        <time>2021-06-06T07:29:36Z</time>
      </trkpt>
      <trkpt lat="42.84039" lon="2.47816">
        <ele>376.8</ele>
        <time>2021-06-06T07:29:40Z</time>
      </trkpt>
      <trkpt lat="42.84032" lon="2.47815">
        <ele>377</ele>
        <time>2021-06-06T07:29:44Z</time>
      </trkpt>
      <trkpt lat="42.84022" lon="2.47813">
        <ele>377.4</ele>
        <time>2021-06-06T07:29:48Z</time>
      </trkpt>
      <trkpt lat="42.8401" lon="2.47811">
        <ele>376.8</ele>
        <time>2021-06-06T07:29:52Z</time>
      </trkpt>
      <trkpt lat="42.84001" lon="2.47812">
        <ele>376.6</ele>
        <time>2021-06-06T07:29:55Z</time>
      </trkpt>
      <trkpt lat="42.8399" lon="2.47817">
        <ele>376.6</ele>
        <time>2021-06-06T07:29:59Z</time>
      </trkpt>
      <trkpt lat="42.83982" lon="2.47817">
        <ele>376.4</ele>
        <time>2021-06-06T07:30:03Z</time>
      </trkpt>
      <trkpt lat="42.83981" lon="2.47818">
        <ele>376.2</ele>
        <time>2021-06-06T07:30:07Z</time>
      </trkpt>
      <trkpt lat="42.83956" lon="2.47829">
        <ele>376.2</ele>
        <time>2021-06-06T07:30:23Z</time>
      </trkpt>
      <trkpt lat="42.83945" lon="2.47835">
        <ele>375.6</ele>
        <time>2021-06-06T07:30:27Z</time>
      </trkpt>
      <trkpt lat="42.83936" lon="2.47841">
        <ele>376</ele>
        <time>2021-06-06T07:30:31Z</time>
      </trkpt>
      <trkpt lat="42.83928" lon="2.47859">
        <ele>375.8</ele>
        <time>2021-06-06T07:30:34Z</time>
      </trkpt>
      <trkpt lat="42.83916" lon="2.47868">
        <ele>375</ele>
        <time>2021-06-06T07:30:38Z</time>
      </trkpt>
      <trkpt lat="42.83907" lon="2.47873">
        <ele>374.4</ele>
        <time>2021-06-06T07:30:42Z</time>
      </trkpt>
      <trkpt lat="42.83906" lon="2.47871">
        <ele>376.2</ele>
        <time>2021-06-06T07:30:46Z</time>
      </trkpt>
      <trkpt lat="42.83907" lon="2.47878">
        <ele>378.2</ele>
        <time>2021-06-06T07:30:50Z</time>
      </trkpt>
      <trkpt lat="42.83907" lon="2.47877">
        <ele>376.8</ele>
        <time>2021-06-06T07:30:54Z</time>
      </trkpt>
      <trkpt lat="42.83872" lon="2.47896">
        <ele>377</ele>
        <time>2021-06-06T07:31:49Z</time>
      </trkpt>
      <trkpt lat="42.83857" lon="2.47909">
        <ele>377.2</ele>
        <time>2021-06-06T07:31:53Z</time>
      </trkpt>
      <trkpt lat="42.83845" lon="2.47927">
        <ele>377.4</ele>
        <time>2021-06-06T07:31:57Z</time>
      </trkpt>
      <trkpt lat="42.83836" lon="2.47944">
        <ele>377.4</ele>
        <time>2021-06-06T07:32:01Z</time>
      </trkpt>
      <trkpt lat="42.83837" lon="2.47971">
        <ele>378.2</ele>
        <time>2021-06-06T07:32:05Z</time>
      </trkpt>
      <trkpt lat="42.83842" lon="2.48012">
        <ele>378</ele>
        <time>2021-06-06T07:32:09Z</time>
      </trkpt>
      <trkpt lat="42.83846" lon="2.48039">
        <ele>377.6</ele>
        <time>2021-06-06T07:32:13Z</time>
      </trkpt>
      <trkpt lat="42.83844" lon="2.48057">
        <ele>377.8</ele>
        <time>2021-06-06T07:32:16Z</time>
      </trkpt>
      <trkpt lat="42.83838" lon="2.48077">
        <ele>378.2</ele>
        <time>2021-06-06T07:32:20Z</time>
      </trkpt>
      <trkpt lat="42.8383" lon="2.48093">
        <ele>378</ele>
        <time>2021-06-06T07:32:24Z</time>
      </trkpt>
      <trkpt lat="42.83825" lon="2.48107">
        <ele>377.8</ele>
        <time>2021-06-06T07:32:28Z</time>
      </trkpt>
      <trkpt lat="42.8382" lon="2.48118">
        <ele>378.4</ele>
        <time>2021-06-06T07:32:32Z</time>
      </trkpt>
      <trkpt lat="42.8381" lon="2.48126">
        <ele>378.2</ele>
        <time>2021-06-06T07:32:36Z</time>
      </trkpt>
      <trkpt lat="42.83801" lon="2.48128">
        <ele>378</ele>
        <time>2021-06-06T07:32:40Z</time>
      </trkpt>
      <trkpt lat="42.83798" lon="2.4813">
        <ele>378.2</ele>
        <time>2021-06-06T07:32:43Z</time>
      </trkpt>
      <trkpt lat="42.83794" lon="2.48133">
        <ele>378</ele>
        <time>2021-06-06T07:32:47Z</time>
      </trkpt>
      <trkpt lat="42.83778" lon="2.48126">
        <ele>377.8</ele>
        <time>2021-06-06T07:32:51Z</time>
      </trkpt>
      <trkpt lat="42.83753" lon="2.48139">
        <ele>377.6</ele>
        <time>2021-06-06T07:32:55Z</time>
      </trkpt>
      <trkpt lat="42.83739" lon="2.48146">
        <ele>377.4</ele>
        <time>2021-06-06T07:32:59Z</time>
      </trkpt>
      <trkpt lat="42.83733" lon="2.48156">
        <ele>377</ele>
        <time>2021-06-06T07:33:03Z</time>
      </trkpt>
      <trkpt lat="42.83729" lon="2.48163">
        <ele>376.8</ele>
        <time>2021-06-06T07:33:07Z</time>
      </trkpt>
      <trkpt lat="42.83731" lon="2.48167">
        <ele>377</ele>
        <time>2021-06-06T07:33:10Z</time>
      </trkpt>
      <trkpt lat="42.83737" lon="2.48165">
        <ele>376.8</ele>
        <time>2021-06-06T07:33:14Z</time>
      </trkpt>
      <trkpt lat="42.83748" lon="2.48164">
        <ele>377.2</ele>
        <time>2021-06-06T07:33:18Z</time>
      </trkpt>
      <trkpt lat="42.83757" lon="2.48167">
        <ele>377.6</ele>
        <time>2021-06-06T07:33:22Z</time>
      </trkpt>
      <trkpt lat="42.83764" lon="2.48172">
        <ele>378.4</ele>
        <time>2021-06-06T07:33:26Z</time>
      </trkpt>
      <trkpt lat="42.83772" lon="2.48177">
        <ele>378.8</ele>
        <time>2021-06-06T07:33:30Z</time>
      </trkpt>
      <trkpt lat="42.83787" lon="2.48164">
        <ele>378.6</ele>
        <time>2021-06-06T07:33:34Z</time>
      </trkpt>
      <trkpt lat="42.83799" lon="2.48159">
        <ele>378.2</ele>
        <time>2021-06-06T07:33:37Z</time>
      </trkpt>
      <trkpt lat="42.83814" lon="2.48144">
        <ele>378.2</ele>
        <time>2021-06-06T07:33:41Z</time>
      </trkpt>
      <trkpt lat="42.83823" lon="2.48133">
        <ele>378</ele>
        <time>2021-06-06T07:33:45Z</time>
      </trkpt>
      <trkpt lat="42.83827" lon="2.48126">
        <ele>378</ele>
        <time>2021-06-06T07:33:49Z</time>
      </trkpt>
      <trkpt lat="42.83828" lon="2.48124">
        <ele>378</ele>
        <time>2021-06-06T07:33:53Z</time>
      </trkpt>
      <trkpt lat="42.8382" lon="2.48147">
        <ele>382.4</ele>
        <time>2021-06-06T08:26:05Z</time>
      </trkpt>
      <trkpt lat="42.83811" lon="2.48151">
        <ele>382.8</ele>
        <time>2021-06-06T08:26:09Z</time>
      </trkpt>
      <trkpt lat="42.83807" lon="2.48152">
        <ele>383</ele>
        <time>2021-06-06T08:26:12Z</time>
      </trkpt>
      <trkpt lat="42.83798" lon="2.48144">
        <ele>382.8</ele>
        <time>2021-06-06T08:26:16Z</time>
      </trkpt>
      <trkpt lat="42.83789" lon="2.48136">
        <ele>382.8</ele>
        <time>2021-06-06T08:26:20Z</time>
      </trkpt>
      <trkpt lat="42.83775" lon="2.48146">
        <ele>383</ele>
        <time>2021-06-06T08:26:24Z</time>
      </trkpt>
      <trkpt lat="42.83758" lon="2.48159">
        <ele>383.2</ele>
        <time>2021-06-06T08:26:28Z</time>
      </trkpt>
      <trkpt lat="42.8374" lon="2.48167">
        <ele>383.2</ele>
        <time>2021-06-06T08:26:32Z</time>
      </trkpt>
      <trkpt lat="42.83731" lon="2.48174">
        <ele>383</ele>
        <time>2021-06-06T08:26:35Z</time>
      </trkpt>
      <trkpt lat="42.83719" lon="2.48182">
        <ele>382.8</ele>
        <time>2021-06-06T08:26:39Z</time>
      </trkpt>
      <trkpt lat="42.83706" lon="2.48185">
        <ele>382.2</ele>
        <time>2021-06-06T08:26:43Z</time>
      </trkpt>
      <trkpt lat="42.8369" lon="2.4818">
        <ele>381.8</ele>
        <time>2021-06-06T08:26:47Z</time>
      </trkpt>
      <trkpt lat="42.83672" lon="2.48171">
        <ele>381.2</ele>
        <time>2021-06-06T08:26:51Z</time>
      </trkpt>
      <trkpt lat="42.83655" lon="2.4816">
        <ele>380.6</ele>
        <time>2021-06-06T08:26:55Z</time>
      </trkpt>
      <trkpt lat="42.83638" lon="2.48147">
        <ele>380</ele>
        <time>2021-06-06T08:26:59Z</time>
      </trkpt>
      <trkpt lat="42.83627" lon="2.48136">
        <ele>380</ele>
        <time>2021-06-06T08:27:02Z</time>
      </trkpt>
      <trkpt lat="42.83615" lon="2.48118">
        <ele>380.2</ele>
        <time>2021-06-06T08:27:06Z</time>
      </trkpt>
      <trkpt lat="42.83604" lon="2.48099">
        <ele>379.8</ele>
        <time>2021-06-06T08:27:10Z</time>
      </trkpt>
      <trkpt lat="42.83596" lon="2.48079">
        <ele>380.2</ele>
        <time>2021-06-06T08:27:14Z</time>
      </trkpt>
      <trkpt lat="42.83589" lon="2.48063">
        <ele>380.4</ele>
        <time>2021-06-06T08:27:18Z</time>
      </trkpt>
      <trkpt lat="42.83585" lon="2.4805">
        <ele>379.6</ele>
        <time>2021-06-06T08:27:22Z</time>
      </trkpt>
      <trkpt lat="42.83581" lon="2.4804">
        <ele>378.6</ele>
        <time>2021-06-06T08:27:26Z</time>
      </trkpt>
      <trkpt lat="42.83578" lon="2.48029">
        <ele>378.8</ele>
        <time>2021-06-06T08:27:29Z</time>
      </trkpt>
      <trkpt lat="42.83575" lon="2.48013">
        <ele>379.4</ele>
        <time>2021-06-06T08:27:33Z</time>
      </trkpt>
      <trkpt lat="42.83576" lon="2.47993">
        <ele>379.4</ele>
        <time>2021-06-06T08:27:37Z</time>
      </trkpt>
      <trkpt lat="42.83579" lon="2.47985">
        <ele>379.2</ele>
        <time>2021-06-06T08:27:41Z</time>
      </trkpt>
      <trkpt lat="42.83584" lon="2.47979">
        <ele>379.2</ele>
        <time>2021-06-06T08:27:45Z</time>
      </trkpt>
      <trkpt lat="42.83585" lon="2.4798">
        <ele>379</ele>
        <time>2021-06-06T08:27:49Z</time>
      </trkpt>
      <trkpt lat="42.83585" lon="2.4798">
        <ele>379.6</ele>
        <time>2021-06-06T08:27:53Z</time>
      </trkpt>
      <trkpt lat="42.83575" lon="2.47981">
        <ele>378.8</ele>
        <time>2021-06-06T08:28:50Z</time>
      </trkpt>
      <trkpt lat="42.83574" lon="2.47981">
        <ele>379</ele>
        <time>2021-06-06T08:28:54Z</time>
      </trkpt>
      <trkpt lat="42.83577" lon="2.4799">
        <ele>381.2</ele>
        <time>2021-06-06T08:29:46Z</time>
      </trkpt>
      <trkpt lat="42.83574" lon="2.47988">
        <ele>380.6</ele>
        <time>2021-06-06T08:29:50Z</time>
      </trkpt>
      <trkpt lat="42.83573" lon="2.47988">
        <ele>380.2</ele>
        <time>2021-06-06T08:29:54Z</time>
      </trkpt>
      <trkpt lat="42.83572" lon="2.4799">
        <ele>379.6</ele>
        <time>2021-06-06T08:29:58Z</time>
      </trkpt>
      <trkpt lat="42.8357" lon="2.48015">
        <ele>381</ele>
        <time>2021-06-06T08:30:08Z</time>
      </trkpt>
      <trkpt lat="42.83569" lon="2.48024">
        <ele>381.8</ele>
        <time>2021-06-06T08:30:11Z</time>
      </trkpt>
      <trkpt lat="42.83565" lon="2.48034">
        <ele>382.6</ele>
        <time>2021-06-06T08:30:15Z</time>
      </trkpt>
      <trkpt lat="42.83555" lon="2.48042">
        <ele>382</ele>
        <time>2021-06-06T08:30:19Z</time>
      </trkpt>
      <trkpt lat="42.83543" lon="2.48052">
        <ele>381.4</ele>
        <time>2021-06-06T08:30:23Z</time>
      </trkpt>
      <trkpt lat="42.8353" lon="2.48065">
        <ele>380.4</ele>
        <time>2021-06-06T08:30:27Z</time>
      </trkpt>
      <trkpt lat="42.83517" lon="2.48079">
        <ele>379.8</ele>
        <time>2021-06-06T08:30:31Z</time>
      </trkpt>
      <trkpt lat="42.83502" lon="2.48093">
        <ele>379.4</ele>
        <time>2021-06-06T08:30:35Z</time>
      </trkpt>
      <trkpt lat="42.8349" lon="2.48099">
        <ele>379.4</ele>
        <time>2021-06-06T08:30:38Z</time>
      </trkpt>
      <trkpt lat="42.83475" lon="2.48099">
        <ele>379.6</ele>
        <time>2021-06-06T08:30:42Z</time>
      </trkpt>
      <trkpt lat="42.83457" lon="2.4809">
        <ele>379.6</ele>
        <time>2021-06-06T08:30:46Z</time>
      </trkpt>
      <trkpt lat="42.83442" lon="2.48079">
        <ele>381</ele>
        <time>2021-06-06T08:30:50Z</time>
      </trkpt>
      <trkpt lat="42.83424" lon="2.4808">
        <ele>382.4</ele>
        <time>2021-06-06T08:30:54Z</time>
      </trkpt>
      <trkpt lat="42.83412" lon="2.48099">
        <ele>383.2</ele>
        <time>2021-06-06T08:30:58Z</time>
      </trkpt>
      <trkpt lat="42.83408" lon="2.48115">
        <ele>382.2</ele>
        <time>2021-06-06T08:31:01Z</time>
      </trkpt>
      <trkpt lat="42.834" lon="2.48137">
        <ele>382.4</ele>
        <time>2021-06-06T08:31:05Z</time>
      </trkpt>
      <trkpt lat="42.83396" lon="2.48161">
        <ele>382</ele>
        <time>2021-06-06T08:31:09Z</time>
      </trkpt>
      <trkpt lat="42.83394" lon="2.48188">
        <ele>381.8</ele>
        <time>2021-06-06T08:31:13Z</time>
      </trkpt>
      <trkpt lat="42.83393" lon="2.48216">
        <ele>381.8</ele>
        <time>2021-06-06T08:31:17Z</time>
      </trkpt>
      <trkpt lat="42.83392" lon="2.48238">
        <ele>381.8</ele>
        <time>2021-06-06T08:31:21Z</time>
      </trkpt>
      <trkpt lat="42.83391" lon="2.48243">
        <ele>382.4</ele>
        <time>2021-06-06T08:31:25Z</time>
      </trkpt>
      <trkpt lat="42.83391" lon="2.48243">
        <ele>382.6</ele>
        <time>2021-06-06T08:31:28Z</time>
      </trkpt>
      <trkpt lat="42.83398" lon="2.48285">
        <ele>383.2</ele>
        <time>2021-06-06T08:31:52Z</time>
      </trkpt>
      <trkpt lat="42.83409" lon="2.48317">
        <ele>386</ele>
        <time>2021-06-06T08:31:56Z</time>
      </trkpt>
      <trkpt lat="42.83425" lon="2.48349">
        <ele>384.2</ele>
        <time>2021-06-06T08:32:00Z</time>
      </trkpt>
      <trkpt lat="42.83442" lon="2.48373">
        <ele>380.6</ele>
        <time>2021-06-06T08:32:04Z</time>
      </trkpt>
      <trkpt lat="42.83461" lon="2.48395">
        <ele>379.2</ele>
        <time>2021-06-06T08:32:08Z</time>
      </trkpt>
      <trkpt lat="42.83481" lon="2.48417">
        <ele>379.6</ele>
        <time>2021-06-06T08:32:12Z</time>
      </trkpt>
      <trkpt lat="42.83496" lon="2.48433">
        <ele>379.2</ele>
        <time>2021-06-06T08:32:15Z</time>
      </trkpt>
      <trkpt lat="42.83515" lon="2.48459">
        <ele>378.2</ele>
        <time>2021-06-06T08:32:19Z</time>
      </trkpt>
      <trkpt lat="42.83528" lon="2.48489">
        <ele>377.6</ele>
        <time>2021-06-06T08:32:23Z</time>
      </trkpt>
      <trkpt lat="42.8353" lon="2.48525">
        <ele>377</ele>
        <time>2021-06-06T08:32:27Z</time>
      </trkpt>
      <trkpt lat="42.83519" lon="2.48556">
        <ele>377.4</ele>
        <time>2021-06-06T08:32:31Z</time>
      </trkpt>
      <trkpt lat="42.83517" lon="2.48588">
        <ele>377</ele>
        <time>2021-06-06T08:32:35Z</time>
      </trkpt>
      <trkpt lat="42.83526" lon="2.48618">
        <ele>376.6</ele>
        <time>2021-06-06T08:32:39Z</time>
      </trkpt>
      <trkpt lat="42.83535" lon="2.48639">
        <ele>376.2</ele>
        <time>2021-06-06T08:32:42Z</time>
      </trkpt>
      <trkpt lat="42.83548" lon="2.48666">
        <ele>375.8</ele>
        <time>2021-06-06T08:32:46Z</time>
      </trkpt>
      <trkpt lat="42.83562" lon="2.48692">
        <ele>375.6</ele>
        <time>2021-06-06T08:32:50Z</time>
      </trkpt>
      <trkpt lat="42.83576" lon="2.48719">
        <ele>375.2</ele>
        <time>2021-06-06T08:32:54Z</time>
      </trkpt>
      <trkpt lat="42.83587" lon="2.4875">
        <ele>375.6</ele>
        <time>2021-06-06T08:32:58Z</time>
      </trkpt>
      <trkpt lat="42.83595" lon="2.48782">
        <ele>375.4</ele>
        <time>2021-06-06T08:33:02Z</time>
      </trkpt>
      <trkpt lat="42.83601" lon="2.48816">
        <ele>374.4</ele>
        <time>2021-06-06T08:33:06Z</time>
      </trkpt>
      <trkpt lat="42.83609" lon="2.4884">
        <ele>374.6</ele>
        <time>2021-06-06T08:33:09Z</time>
      </trkpt>
      <trkpt lat="42.83615" lon="2.48873">
        <ele>374.4</ele>
        <time>2021-06-06T08:33:13Z</time>
      </trkpt>
      <trkpt lat="42.83616" lon="2.48907">
        <ele>374</ele>
        <time>2021-06-06T08:33:17Z</time>
      </trkpt>
      <trkpt lat="42.83616" lon="2.4894">
        <ele>373.8</ele>
        <time>2021-06-06T08:33:21Z</time>
      </trkpt>
      <trkpt lat="42.83611" lon="2.48973">
        <ele>373.8</ele>
        <time>2021-06-06T08:33:25Z</time>
      </trkpt>
      <trkpt lat="42.83602" lon="2.49005">
        <ele>373.2</ele>
        <time>2021-06-06T08:33:29Z</time>
      </trkpt>
      <trkpt lat="42.83593" lon="2.49026">
        <ele>373.4</ele>
        <time>2021-06-06T08:33:32Z</time>
      </trkpt>
      <trkpt lat="42.83581" lon="2.49056">
        <ele>373.2</ele>
        <time>2021-06-06T08:33:36Z</time>
      </trkpt>
      <trkpt lat="42.83582" lon="2.49091">
        <ele>372</ele>
        <time>2021-06-06T08:33:40Z</time>
      </trkpt>
      <trkpt lat="42.83598" lon="2.49125">
        <ele>369.8</ele>
        <time>2021-06-06T08:33:44Z</time>
      </trkpt>
      <trkpt lat="42.8361" lon="2.49168">
        <ele>367.4</ele>
        <time>2021-06-06T08:33:48Z</time>
      </trkpt>
      <trkpt lat="42.83602" lon="2.49218">
        <ele>365.4</ele>
        <time>2021-06-06T08:33:52Z</time>
      </trkpt>
      <trkpt lat="42.8357" lon="2.49235">
        <ele>362.2</ele>
        <time>2021-06-06T08:33:56Z</time>
      </trkpt>
      <trkpt lat="42.83547" lon="2.49217">
        <ele>360.6</ele>
        <time>2021-06-06T08:33:59Z</time>
      </trkpt>
      <trkpt lat="42.83515" lon="2.49196">
        <ele>359</ele>
        <time>2021-06-06T08:34:03Z</time>
      </trkpt>
      <trkpt lat="42.83482" lon="2.49192">
        <ele>357.6</ele>
        <time>2021-06-06T08:34:07Z</time>
      </trkpt>
      <trkpt lat="42.83449" lon="2.49208">
        <ele>355.8</ele>
        <time>2021-06-06T08:34:11Z</time>
      </trkpt>
      <trkpt lat="42.83421" lon="2.4924">
        <ele>352.6</ele>
        <time>2021-06-06T08:34:15Z</time>
      </trkpt>
      <trkpt lat="42.83407" lon="2.49287">
        <ele>349.8</ele>
        <time>2021-06-06T08:34:19Z</time>
      </trkpt>
      <trkpt lat="42.83383" lon="2.49332">
        <ele>346.6</ele>
        <time>2021-06-06T08:34:23Z</time>
      </trkpt>
      <trkpt lat="42.83362" lon="2.49362">
        <ele>344.4</ele>
        <time>2021-06-06T08:34:26Z</time>
      </trkpt>
      <trkpt lat="42.83352" lon="2.49418">
        <ele>341.2</ele>
        <time>2021-06-06T08:34:30Z</time>
      </trkpt>
      <trkpt lat="42.83318" lon="2.49454">
        <ele>337.6</ele>
        <time>2021-06-06T08:34:34Z</time>
      </trkpt>
      <trkpt lat="42.83286" lon="2.49499">
        <ele>334.2</ele>
        <time>2021-06-06T08:34:38Z</time>
      </trkpt>
      <trkpt lat="42.83254" lon="2.49548">
        <ele>331</ele>
        <time>2021-06-06T08:34:42Z</time>
      </trkpt>
      <trkpt lat="42.83229" lon="2.49605">
        <ele>328.2</ele>
        <time>2021-06-06T08:34:46Z</time>
      </trkpt>
      <trkpt lat="42.83197" lon="2.49644">
        <ele>324.4</ele>
        <time>2021-06-06T08:34:50Z</time>
      </trkpt>
      <trkpt lat="42.83181" lon="2.4967">
        <ele>322.2</ele>
        <time>2021-06-06T08:34:53Z</time>
      </trkpt>
      <trkpt lat="42.83192" lon="2.49711">
        <ele>320.2</ele>
        <time>2021-06-06T08:34:57Z</time>
      </trkpt>
      <trkpt lat="42.83166" lon="2.49734">
        <ele>317.8</ele>
        <time>2021-06-06T08:35:01Z</time>
      </trkpt>
      <trkpt lat="42.83133" lon="2.49724">
        <ele>315.2</ele>
        <time>2021-06-06T08:35:05Z</time>
      </trkpt>
      <trkpt lat="42.83099" lon="2.49739">
        <ele>313.2</ele>
        <time>2021-06-06T08:35:09Z</time>
      </trkpt>
      <trkpt lat="42.83064" lon="2.49755">
        <ele>311</ele>
        <time>2021-06-06T08:35:13Z</time>
      </trkpt>
      <trkpt lat="42.83026" lon="2.49758">
        <ele>309.6</ele>
        <time>2021-06-06T08:35:17Z</time>
      </trkpt>
      <trkpt lat="42.83001" lon="2.49738">
        <ele>307.2</ele>
        <time>2021-06-06T08:35:20Z</time>
      </trkpt>
      <trkpt lat="42.82964" lon="2.4972">
        <ele>304.8</ele>
        <time>2021-06-06T08:35:24Z</time>
      </trkpt>
      <trkpt lat="42.82924" lon="2.49708">
        <ele>302.4</ele>
        <time>2021-06-06T08:35:28Z</time>
      </trkpt>
      <trkpt lat="42.82889" lon="2.49695">
        <ele>300</ele>
        <time>2021-06-06T08:35:32Z</time>
      </trkpt>
      <trkpt lat="42.82859" lon="2.49671">
        <ele>296.8</ele>
        <time>2021-06-06T08:35:36Z</time>
      </trkpt>
      <trkpt lat="42.82838" lon="2.49639">
        <ele>296.8</ele>
        <time>2021-06-06T08:35:40Z</time>
      </trkpt>
      <trkpt lat="42.82819" lon="2.49609">
        <ele>295.2</ele>
        <time>2021-06-06T08:35:44Z</time>
      </trkpt>
      <trkpt lat="42.828" lon="2.49594">
        <ele>295</ele>
        <time>2021-06-06T08:35:47Z</time>
      </trkpt>
      <trkpt lat="42.8277" lon="2.49581">
        <ele>294.4</ele>
        <time>2021-06-06T08:35:51Z</time>
      </trkpt>
      <trkpt lat="42.82736" lon="2.49585">
        <ele>293</ele>
        <time>2021-06-06T08:35:55Z</time>
      </trkpt>
      <trkpt lat="42.82702" lon="2.49609">
        <ele>291</ele>
        <time>2021-06-06T08:35:59Z</time>
      </trkpt>
      <trkpt lat="42.82669" lon="2.49645">
        <ele>288.8</ele>
        <time>2021-06-06T08:36:03Z</time>
      </trkpt>
      <trkpt lat="42.82627" lon="2.49662">
        <ele>286.2</ele>
        <time>2021-06-06T08:36:07Z</time>
      </trkpt>
      <trkpt lat="42.82598" lon="2.49678">
        <ele>285.8</ele>
        <time>2021-06-06T08:36:10Z</time>
      </trkpt>
      <trkpt lat="42.82562" lon="2.49699">
        <ele>283.2</ele>
        <time>2021-06-06T08:36:14Z</time>
      </trkpt>
      <trkpt lat="42.82526" lon="2.49721">
        <ele>283.2</ele>
        <time>2021-06-06T08:36:18Z</time>
      </trkpt>
      <trkpt lat="42.82491" lon="2.49747">
        <ele>282.4</ele>
        <time>2021-06-06T08:36:22Z</time>
      </trkpt>
      <trkpt lat="42.82455" lon="2.49743">
        <ele>282</ele>
        <time>2021-06-06T08:36:26Z</time>
      </trkpt>
      <trkpt lat="42.82421" lon="2.49747">
        <ele>281.2</ele>
        <time>2021-06-06T08:36:30Z</time>
      </trkpt>
      <trkpt lat="42.82392" lon="2.49761">
        <ele>281</ele>
        <time>2021-06-06T08:36:34Z</time>
      </trkpt>
      <trkpt lat="42.82371" lon="2.49773">
        <ele>279.6</ele>
        <time>2021-06-06T08:36:37Z</time>
      </trkpt>
      <trkpt lat="42.82343" lon="2.49789">
        <ele>279.2</ele>
        <time>2021-06-06T08:36:41Z</time>
      </trkpt>
      <trkpt lat="42.82313" lon="2.49802">
        <ele>279.4</ele>
        <time>2021-06-06T08:36:45Z</time>
      </trkpt>
      <trkpt lat="42.82282" lon="2.49807">
        <ele>278</ele>
        <time>2021-06-06T08:36:49Z</time>
      </trkpt>
      <trkpt lat="42.82252" lon="2.49807">
        <ele>277.4</ele>
        <time>2021-06-06T08:36:53Z</time>
      </trkpt>
      <trkpt lat="42.82222" lon="2.49808">
        <ele>277.4</ele>
        <time>2021-06-06T08:36:57Z</time>
      </trkpt>
      <trkpt lat="42.82193" lon="2.49808">
        <ele>276.4</ele>
        <time>2021-06-06T08:37:01Z</time>
      </trkpt>
      <trkpt lat="42.82171" lon="2.49807">
        <ele>276</ele>
        <time>2021-06-06T08:37:04Z</time>
      </trkpt>
      <trkpt lat="42.82142" lon="2.49803">
        <ele>275.6</ele>
        <time>2021-06-06T08:37:08Z</time>
      </trkpt>
      <trkpt lat="42.82113" lon="2.49789">
        <ele>274</ele>
        <time>2021-06-06T08:37:12Z</time>
      </trkpt>
      <trkpt lat="42.82085" lon="2.49773">
        <ele>273</ele>
        <time>2021-06-06T08:37:16Z</time>
      </trkpt>
      <trkpt lat="42.82058" lon="2.4976">
        <ele>272.4</ele>
        <time>2021-06-06T08:37:20Z</time>
      </trkpt>
      <trkpt lat="42.82028" lon="2.49757">
        <ele>271.4</ele>
        <time>2021-06-06T08:37:24Z</time>
      </trkpt>
      <trkpt lat="42.81999" lon="2.49759">
        <ele>270</ele>
        <time>2021-06-06T08:37:28Z</time>
      </trkpt>
      <trkpt lat="42.81978" lon="2.49763">
        <ele>269.4</ele>
        <time>2021-06-06T08:37:31Z</time>
      </trkpt>
      <trkpt lat="42.81949" lon="2.49775">
        <ele>268</ele>
        <time>2021-06-06T08:37:35Z</time>
      </trkpt>
      <trkpt lat="42.81918" lon="2.49789">
        <ele>266.2</ele>
        <time>2021-06-06T08:37:39Z</time>
      </trkpt>
      <trkpt lat="42.81884" lon="2.49804">
        <ele>263.8</ele>
        <time>2021-06-06T08:37:43Z</time>
      </trkpt>
      <trkpt lat="42.81847" lon="2.49822">
        <ele>261.4</ele>
        <time>2021-06-06T08:37:47Z</time>
      </trkpt>
      <trkpt lat="42.81811" lon="2.49845">
        <ele>258.4</ele>
        <time>2021-06-06T08:37:51Z</time>
      </trkpt>
      <trkpt lat="42.8178" lon="2.49875">
        <ele>256.6</ele>
        <time>2021-06-06T08:37:55Z</time>
      </trkpt>
      <trkpt lat="42.81757" lon="2.49899">
        <ele>255.6</ele>
        <time>2021-06-06T08:37:58Z</time>
      </trkpt>
      <trkpt lat="42.81728" lon="2.4993">
        <ele>255.2</ele>
        <time>2021-06-06T08:38:02Z</time>
      </trkpt>
      <trkpt lat="42.817" lon="2.49954">
        <ele>255.2</ele>
        <time>2021-06-06T08:38:06Z</time>
      </trkpt>
      <trkpt lat="42.81675" lon="2.49977">
        <ele>253.8</ele>
        <time>2021-06-06T08:38:10Z</time>
      </trkpt>
      <trkpt lat="42.8165" lon="2.49998">
        <ele>253.2</ele>
        <time>2021-06-06T08:38:14Z</time>
      </trkpt>
      <trkpt lat="42.81625" lon="2.50012">
        <ele>253.2</ele>
        <time>2021-06-06T08:38:18Z</time>
      </trkpt>
      <trkpt lat="42.81603" lon="2.50023">
        <ele>253.4</ele>
        <time>2021-06-06T08:38:22Z</time>
      </trkpt>
      <trkpt lat="42.81586" lon="2.50032">
        <ele>253.2</ele>
        <time>2021-06-06T08:38:25Z</time>
      </trkpt>
      <trkpt lat="42.81564" lon="2.50046">
        <ele>253.8</ele>
        <time>2021-06-06T08:38:29Z</time>
      </trkpt>
      <trkpt lat="42.81544" lon="2.50061">
        <ele>254.4</ele>
        <time>2021-06-06T08:38:33Z</time>
      </trkpt>
      <trkpt lat="42.81524" lon="2.50077">
        <ele>254.2</ele>
        <time>2021-06-06T08:38:37Z</time>
      </trkpt>
      <trkpt lat="42.81504" lon="2.50092">
        <ele>254.2</ele>
        <time>2021-06-06T08:38:41Z</time>
      </trkpt>
      <trkpt lat="42.81485" lon="2.50105">
        <ele>254</ele>
        <time>2021-06-06T08:38:45Z</time>
      </trkpt>
      <trkpt lat="42.8147" lon="2.50115">
        <ele>254.2</ele>
        <time>2021-06-06T08:38:48Z</time>
      </trkpt>
      <trkpt lat="42.8145" lon="2.50127">
        <ele>254.4</ele>
        <time>2021-06-06T08:38:52Z</time>
      </trkpt>
      <trkpt lat="42.81432" lon="2.50139">
        <ele>254.4</ele>
        <time>2021-06-06T08:38:56Z</time>
      </trkpt>
      <trkpt lat="42.81417" lon="2.5015">
        <ele>254.8</ele>
        <time>2021-06-06T08:39:00Z</time>
      </trkpt>
      <trkpt lat="42.81405" lon="2.50163">
        <ele>255.2</ele>
        <time>2021-06-06T08:39:04Z</time>
      </trkpt>
      <trkpt lat="42.81398" lon="2.50174">
        <ele>255.4</ele>
        <time>2021-06-06T08:39:08Z</time>
      </trkpt>
      <trkpt lat="42.81393" lon="2.50183">
        <ele>255.6</ele>
        <time>2021-06-06T08:39:12Z</time>
      </trkpt>
      <trkpt lat="42.8139" lon="2.50188">
        <ele>255.8</ele>
        <time>2021-06-06T08:39:15Z</time>
      </trkpt>
      <trkpt lat="42.81387" lon="2.5019">
        <ele>255.8</ele>
        <time>2021-06-06T08:39:19Z</time>
      </trkpt>
      <trkpt lat="42.8138" lon="2.50193">
        <ele>256</ele>
        <time>2021-06-06T08:39:23Z</time>
      </trkpt>
      <trkpt lat="42.81369" lon="2.50193">
        <ele>255.8</ele>
        <time>2021-06-06T08:39:27Z</time>
      </trkpt>
      <trkpt lat="42.81356" lon="2.50201">
        <ele>255.6</ele>
        <time>2021-06-06T08:39:31Z</time>
      </trkpt>
      <trkpt lat="42.81344" lon="2.50216">
        <ele>255.2</ele>
        <time>2021-06-06T08:39:35Z</time>
      </trkpt>
      <trkpt lat="42.81331" lon="2.50234">
        <ele>254.4</ele>
        <time>2021-06-06T08:39:39Z</time>
      </trkpt>
      <trkpt lat="42.81317" lon="2.50239">
        <ele>253.8</ele>
        <time>2021-06-06T08:39:42Z</time>
      </trkpt>
      <trkpt lat="42.813" lon="2.50231">
        <ele>253.4</ele>
        <time>2021-06-06T08:39:46Z</time>
      </trkpt>
      <trkpt lat="42.81285" lon="2.50223">
        <ele>252.6</ele>
        <time>2021-06-06T08:39:50Z</time>
      </trkpt>
      <trkpt lat="42.81269" lon="2.50222">
        <ele>253.6</ele>
        <time>2021-06-06T08:39:54Z</time>
      </trkpt>
      <trkpt lat="42.81257" lon="2.50241">
        <ele>253.2</ele>
        <time>2021-06-06T08:39:58Z</time>
      </trkpt>
      <trkpt lat="42.81249" lon="2.50263">
        <ele>252.6</ele>
        <time>2021-06-06T08:40:02Z</time>
      </trkpt>
      <trkpt lat="42.8124" lon="2.50289">
        <ele>252</ele>
        <time>2021-06-06T08:40:06Z</time>
      </trkpt>
      <trkpt lat="42.81234" lon="2.5031">
        <ele>251.4</ele>
        <time>2021-06-06T08:40:09Z</time>
      </trkpt>
      <trkpt lat="42.81217" lon="2.50317">
        <ele>251</ele>
        <time>2021-06-06T08:40:13Z</time>
      </trkpt>
      <trkpt lat="42.81197" lon="2.50318">
        <ele>251</ele>
        <time>2021-06-06T08:40:17Z</time>
      </trkpt>
      <trkpt lat="42.81181" lon="2.50316">
        <ele>251.4</ele>
        <time>2021-06-06T08:40:21Z</time>
      </trkpt>
      <trkpt lat="42.81169" lon="2.50316">
        <ele>251.6</ele>
        <time>2021-06-06T08:40:25Z</time>
      </trkpt>
      <trkpt lat="42.81165" lon="2.50316">
        <ele>251.4</ele>
        <time>2021-06-06T08:40:29Z</time>
      </trkpt>
      <trkpt lat="42.81158" lon="2.50318">
        <ele>251.2</ele>
        <time>2021-06-06T08:40:33Z</time>
      </trkpt>
      <trkpt lat="42.81154" lon="2.50324">
        <ele>251</ele>
        <time>2021-06-06T08:40:36Z</time>
      </trkpt>
      <trkpt lat="42.81147" lon="2.50335">
        <ele>251.2</ele>
        <time>2021-06-06T08:40:40Z</time>
      </trkpt>
      <trkpt lat="42.81145" lon="2.50335">
        <ele>251.2</ele>
        <time>2021-06-06T08:40:44Z</time>
      </trkpt>
      <trkpt lat="42.81144" lon="2.50336">
        <ele>251</ele>
        <time>2021-06-06T08:40:48Z</time>
      </trkpt>
      <trkpt lat="42.81127" lon="2.50345">
        <ele>252.2</ele>
        <time>2021-06-06T08:53:07Z</time>
      </trkpt>
      <trkpt lat="42.81125" lon="2.50338">
        <ele>252.2</ele>
        <time>2021-06-06T08:53:11Z</time>
      </trkpt>
      <trkpt lat="42.81119" lon="2.50335">
        <ele>252</ele>
        <time>2021-06-06T08:53:14Z</time>
      </trkpt>
      <trkpt lat="42.81109" lon="2.50326">
        <ele>251.8</ele>
        <time>2021-06-06T08:53:18Z</time>
      </trkpt>
      <trkpt lat="42.81097" lon="2.50319">
        <ele>251.4</ele>
        <time>2021-06-06T08:53:22Z</time>
      </trkpt>
      <trkpt lat="42.81087" lon="2.50312">
        <ele>251.4</ele>
        <time>2021-06-06T08:53:26Z</time>
      </trkpt>
      <trkpt lat="42.81078" lon="2.50307">
        <ele>251.6</ele>
        <time>2021-06-06T08:53:30Z</time>
      </trkpt>
      <trkpt lat="42.81074" lon="2.50305">
        <ele>251.8</ele>
        <time>2021-06-06T08:53:34Z</time>
      </trkpt>
      <trkpt lat="42.81071" lon="2.50303">
        <ele>251.8</ele>
        <time>2021-06-06T08:53:38Z</time>
      </trkpt>
      <trkpt lat="42.8107" lon="2.50301">
        <ele>251.6</ele>
        <time>2021-06-06T08:53:41Z</time>
      </trkpt>
      <trkpt lat="42.81035" lon="2.50291">
        <ele>251.4</ele>
        <time>2021-06-06T09:07:39Z</time>
      </trkpt>
      <trkpt lat="42.81023" lon="2.50294">
        <ele>251.2</ele>
        <time>2021-06-06T09:07:43Z</time>
      </trkpt>
      <trkpt lat="42.8101" lon="2.50297">
        <ele>250.4</ele>
        <time>2021-06-06T09:07:47Z</time>
      </trkpt>
      <trkpt lat="42.80997" lon="2.50301">
        <ele>250.6</ele>
        <time>2021-06-06T09:07:51Z</time>
      </trkpt>
      <trkpt lat="42.80988" lon="2.50305">
        <ele>250.2</ele>
        <time>2021-06-06T09:07:55Z</time>
      </trkpt>
      <trkpt lat="42.80975" lon="2.50311">
        <ele>250.2</ele>
        <time>2021-06-06T09:07:59Z</time>
      </trkpt>
      <trkpt lat="42.8097" lon="2.50319">
        <ele>249.6</ele>
        <time>2021-06-06T09:08:02Z</time>
      </trkpt>
      <trkpt lat="42.80953" lon="2.50323">
        <ele>249.2</ele>
        <time>2021-06-06T09:08:06Z</time>
      </trkpt>
      <trkpt lat="42.80945" lon="2.50319">
        <ele>250.2</ele>
        <time>2021-06-06T09:08:10Z</time>
      </trkpt>
      <trkpt lat="42.80938" lon="2.50303">
        <ele>249.2</ele>
        <time>2021-06-06T09:08:14Z</time>
      </trkpt>
      <trkpt lat="42.8093" lon="2.5028">
        <ele>248.6</ele>
        <time>2021-06-06T09:08:18Z</time>
      </trkpt>
      <trkpt lat="42.80925" lon="2.50257">
        <ele>248</ele>
        <time>2021-06-06T09:08:22Z</time>
      </trkpt>
      <trkpt lat="42.80925" lon="2.50236">
        <ele>247.8</ele>
        <time>2021-06-06T09:08:26Z</time>
      </trkpt>
      <trkpt lat="42.80927" lon="2.50218">
        <ele>248.4</ele>
        <time>2021-06-06T09:08:29Z</time>
      </trkpt>
      <trkpt lat="42.80934" lon="2.50199">
        <ele>248.2</ele>
        <time>2021-06-06T09:08:33Z</time>
      </trkpt>
      <trkpt lat="42.80941" lon="2.50178">
        <ele>248.2</ele>
        <time>2021-06-06T09:08:37Z</time>
      </trkpt>
      <trkpt lat="42.80943" lon="2.50152">
        <ele>247.8</ele>
        <time>2021-06-06T09:08:41Z</time>
      </trkpt>
      <trkpt lat="42.80942" lon="2.50127">
        <ele>249</ele>
        <time>2021-06-06T09:08:45Z</time>
      </trkpt>
      <trkpt lat="42.80939" lon="2.50106">
        <ele>249</ele>
        <time>2021-06-06T09:08:49Z</time>
      </trkpt>
      <trkpt lat="42.80936" lon="2.50085">
        <ele>248.8</ele>
        <time>2021-06-06T09:08:53Z</time>
      </trkpt>
      <trkpt lat="42.80935" lon="2.50071">
        <ele>248.8</ele>
        <time>2021-06-06T09:08:56Z</time>
      </trkpt>
      <trkpt lat="42.80933" lon="2.50052">
        <ele>249.4</ele>
        <time>2021-06-06T09:09:00Z</time>
      </trkpt>
      <trkpt lat="42.8093" lon="2.50033">
        <ele>249.6</ele>
        <time>2021-06-06T09:09:04Z</time>
      </trkpt>
      <trkpt lat="42.80927" lon="2.50015">
        <ele>250</ele>
        <time>2021-06-06T09:09:08Z</time>
      </trkpt>
      <trkpt lat="42.80923" lon="2.49996">
        <ele>249.6</ele>
        <time>2021-06-06T09:09:12Z</time>
      </trkpt>
      <trkpt lat="42.8092" lon="2.49974">
        <ele>249.4</ele>
        <time>2021-06-06T09:09:16Z</time>
      </trkpt>
      <trkpt lat="42.80918" lon="2.49954">
        <ele>250</ele>
        <time>2021-06-06T09:09:20Z</time>
      </trkpt>
      <trkpt lat="42.80915" lon="2.49938">
        <ele>250</ele>
        <time>2021-06-06T09:09:23Z</time>
      </trkpt>
      <trkpt lat="42.80912" lon="2.49918">
        <ele>250.2</ele>
        <time>2021-06-06T09:09:27Z</time>
      </trkpt>
      <trkpt lat="42.80909" lon="2.49899">
        <ele>249.6</ele>
        <time>2021-06-06T09:09:31Z</time>
      </trkpt>
      <trkpt lat="42.80906" lon="2.49879">
        <ele>250</ele>
        <time>2021-06-06T09:09:35Z</time>
      </trkpt>
      <trkpt lat="42.80903" lon="2.49858">
        <ele>250.6</ele>
        <time>2021-06-06T09:09:39Z</time>
      </trkpt>
      <trkpt lat="42.809" lon="2.49837">
        <ele>250.2</ele>
        <time>2021-06-06T09:09:43Z</time>
      </trkpt>
      <trkpt lat="42.809" lon="2.49821">
        <ele>251</ele>
        <time>2021-06-06T09:09:46Z</time>
      </trkpt>
      <trkpt lat="42.809" lon="2.49801">
        <ele>250.6</ele>
        <time>2021-06-06T09:09:50Z</time>
      </trkpt>
      <trkpt lat="42.809" lon="2.49781">
        <ele>250.6</ele>
        <time>2021-06-06T09:09:54Z</time>
      </trkpt>
      <trkpt lat="42.80893" lon="2.49765">
        <ele>251.4</ele>
        <time>2021-06-06T09:09:58Z</time>
      </trkpt>
      <trkpt lat="42.80887" lon="2.49746">
        <ele>251</ele>
        <time>2021-06-06T09:10:02Z</time>
      </trkpt>
      <trkpt lat="42.80884" lon="2.49725">
        <ele>251.2</ele>
        <time>2021-06-06T09:10:06Z</time>
      </trkpt>
      <trkpt lat="42.80881" lon="2.49704">
        <ele>250.4</ele>
        <time>2021-06-06T09:10:10Z</time>
      </trkpt>
      <trkpt lat="42.80878" lon="2.49687">
        <ele>251.2</ele>
        <time>2021-06-06T09:10:13Z</time>
      </trkpt>
      <trkpt lat="42.80875" lon="2.49665">
        <ele>251</ele>
        <time>2021-06-06T09:10:17Z</time>
      </trkpt>
      <trkpt lat="42.80871" lon="2.49642">
        <ele>251.4</ele>
        <time>2021-06-06T09:10:21Z</time>
      </trkpt>
      <trkpt lat="42.80867" lon="2.4962">
        <ele>251</ele>
        <time>2021-06-06T09:10:25Z</time>
      </trkpt>
      <trkpt lat="42.80864" lon="2.49598">
        <ele>251.4</ele>
        <time>2021-06-06T09:10:29Z</time>
      </trkpt>
      <trkpt lat="42.8086" lon="2.49575">
        <ele>250.4</ele>
        <time>2021-06-06T09:10:33Z</time>
      </trkpt>
      <trkpt lat="42.80856" lon="2.49552">
        <ele>251.6</ele>
        <time>2021-06-06T09:10:37Z</time>
      </trkpt>
      <trkpt lat="42.80854" lon="2.49537">
        <ele>252.6</ele>
        <time>2021-06-06T09:10:40Z</time>
      </trkpt>
      <trkpt lat="42.80851" lon="2.49517">
        <ele>252.8</ele>
        <time>2021-06-06T09:10:44Z</time>
      </trkpt>
      <trkpt lat="42.80847" lon="2.49497">
        <ele>253.6</ele>
        <time>2021-06-06T09:10:48Z</time>
      </trkpt>
      <trkpt lat="42.80844" lon="2.49479">
        <ele>254.6</ele>
        <time>2021-06-06T09:10:52Z</time>
      </trkpt>
      <trkpt lat="42.80841" lon="2.49459">
        <ele>254.8</ele>
        <time>2021-06-06T09:10:56Z</time>
      </trkpt>
      <trkpt lat="42.80838" lon="2.49441">
        <ele>255.8</ele>
        <time>2021-06-06T09:11:00Z</time>
      </trkpt>
      <trkpt lat="42.80835" lon="2.49421">
        <ele>255.2</ele>
        <time>2021-06-06T09:11:04Z</time>
      </trkpt>
      <trkpt lat="42.80833" lon="2.49407">
        <ele>254.6</ele>
        <time>2021-06-06T09:11:07Z</time>
      </trkpt>
      <trkpt lat="42.8083" lon="2.49388">
        <ele>254</ele>
        <time>2021-06-06T09:11:11Z</time>
      </trkpt>
      <trkpt lat="42.80827" lon="2.49369">
        <ele>254.2</ele>
        <time>2021-06-06T09:11:15Z</time>
      </trkpt>
      <trkpt lat="42.80824" lon="2.49347">
        <ele>254</ele>
        <time>2021-06-06T09:11:19Z</time>
      </trkpt>
      <trkpt lat="42.8082" lon="2.49325">
        <ele>254.6</ele>
        <time>2021-06-06T09:11:23Z</time>
      </trkpt>
      <trkpt lat="42.80817" lon="2.49303">
        <ele>254.6</ele>
        <time>2021-06-06T09:11:27Z</time>
      </trkpt>
      <trkpt lat="42.80813" lon="2.4928">
        <ele>254.4</ele>
        <time>2021-06-06T09:11:31Z</time>
      </trkpt>
      <trkpt lat="42.8081" lon="2.49263">
        <ele>254.6</ele>
        <time>2021-06-06T09:11:34Z</time>
      </trkpt>
      <trkpt lat="42.80807" lon="2.49241">
        <ele>255.4</ele>
        <time>2021-06-06T09:11:38Z</time>
      </trkpt>
      <trkpt lat="42.80803" lon="2.49217">
        <ele>255</ele>
        <time>2021-06-06T09:11:42Z</time>
      </trkpt>
      <trkpt lat="42.80799" lon="2.49195">
        <ele>255.4</ele>
        <time>2021-06-06T09:11:46Z</time>
      </trkpt>
      <trkpt lat="42.80796" lon="2.49172">
        <ele>255.8</ele>
        <time>2021-06-06T09:11:50Z</time>
      </trkpt>
      <trkpt lat="42.80793" lon="2.4915">
        <ele>256.2</ele>
        <time>2021-06-06T09:11:54Z</time>
      </trkpt>
      <trkpt lat="42.80789" lon="2.49129">
        <ele>256.4</ele>
        <time>2021-06-06T09:11:58Z</time>
      </trkpt>
      <trkpt lat="42.80786" lon="2.49114">
        <ele>256.4</ele>
        <time>2021-06-06T09:12:01Z</time>
      </trkpt>
      <trkpt lat="42.80783" lon="2.49094">
        <ele>257</ele>
        <time>2021-06-06T09:12:05Z</time>
      </trkpt>
      <trkpt lat="42.8078" lon="2.49074">
        <ele>257.4</ele>
        <time>2021-06-06T09:12:09Z</time>
      </trkpt>
      <trkpt lat="42.80777" lon="2.49054">
        <ele>257.4</ele>
        <time>2021-06-06T09:12:13Z</time>
      </trkpt>
      <trkpt lat="42.80774" lon="2.49032">
        <ele>257</ele>
        <time>2021-06-06T09:12:17Z</time>
      </trkpt>
      <trkpt lat="42.8077" lon="2.49008">
        <ele>256.6</ele>
        <time>2021-06-06T09:12:21Z</time>
      </trkpt>
      <trkpt lat="42.80767" lon="2.48988">
        <ele>256</ele>
        <time>2021-06-06T09:12:24Z</time>
      </trkpt>
      <trkpt lat="42.80762" lon="2.4896">
        <ele>255.4</ele>
        <time>2021-06-06T09:12:28Z</time>
      </trkpt>
      <trkpt lat="42.80757" lon="2.4893">
        <ele>254.4</ele>
        <time>2021-06-06T09:12:32Z</time>
      </trkpt>
      <trkpt lat="42.80752" lon="2.48899">
        <ele>253.6</ele>
        <time>2021-06-06T09:12:36Z</time>
      </trkpt>
      <trkpt lat="42.80747" lon="2.48867">
        <ele>252.8</ele>
        <time>2021-06-06T09:12:40Z</time>
      </trkpt>
      <trkpt lat="42.80741" lon="2.48833">
        <ele>252.2</ele>
        <time>2021-06-06T09:12:44Z</time>
      </trkpt>
      <trkpt lat="42.80735" lon="2.48799">
        <ele>252.8</ele>
        <time>2021-06-06T09:12:48Z</time>
      </trkpt>
      <trkpt lat="42.80731" lon="2.48773">
        <ele>252</ele>
        <time>2021-06-06T09:12:51Z</time>
      </trkpt>
      <trkpt lat="42.80726" lon="2.4874">
        <ele>251.6</ele>
        <time>2021-06-06T09:12:55Z</time>
      </trkpt>
      <trkpt lat="42.8072" lon="2.48707">
        <ele>251.8</ele>
        <time>2021-06-06T09:12:59Z</time>
      </trkpt>
      <trkpt lat="42.80715" lon="2.48675">
        <ele>251.6</ele>
        <time>2021-06-06T09:13:03Z</time>
      </trkpt>
      <trkpt lat="42.8071" lon="2.48643">
        <ele>251.4</ele>
        <time>2021-06-06T09:13:07Z</time>
      </trkpt>
      <trkpt lat="42.80705" lon="2.48611">
        <ele>251</ele>
        <time>2021-06-06T09:13:11Z</time>
      </trkpt>
      <trkpt lat="42.807" lon="2.48579">
        <ele>251</ele>
        <time>2021-06-06T09:13:15Z</time>
      </trkpt>
      <trkpt lat="42.80696" lon="2.48554">
        <ele>251</ele>
        <time>2021-06-06T09:13:18Z</time>
      </trkpt>
      <trkpt lat="42.8069" lon="2.48522">
        <ele>251</ele>
        <time>2021-06-06T09:13:22Z</time>
      </trkpt>
      <trkpt lat="42.80685" lon="2.48491">
        <ele>251.2</ele>
        <time>2021-06-06T09:13:26Z</time>
      </trkpt>
      <trkpt lat="42.80681" lon="2.48463">
        <ele>251</ele>
        <time>2021-06-06T09:13:30Z</time>
      </trkpt>
      <trkpt lat="42.80676" lon="2.48435">
        <ele>251.4</ele>
        <time>2021-06-06T09:13:34Z</time>
      </trkpt>
      <trkpt lat="42.80672" lon="2.48409">
        <ele>251.2</ele>
        <time>2021-06-06T09:13:38Z</time>
      </trkpt>
      <trkpt lat="42.80668" lon="2.48384">
        <ele>251.4</ele>
        <time>2021-06-06T09:13:42Z</time>
      </trkpt>
      <trkpt lat="42.80666" lon="2.48367">
        <ele>251.6</ele>
        <time>2021-06-06T09:13:45Z</time>
      </trkpt>
      <trkpt lat="42.80662" lon="2.48344">
        <ele>251.8</ele>
        <time>2021-06-06T09:13:49Z</time>
      </trkpt>
      <trkpt lat="42.80659" lon="2.48326">
        <ele>252</ele>
        <time>2021-06-06T09:13:53Z</time>
      </trkpt>
      <trkpt lat="42.80656" lon="2.48311">
        <ele>252.2</ele>
        <time>2021-06-06T09:13:57Z</time>
      </trkpt>
      <trkpt lat="42.80653" lon="2.48296">
        <ele>252.6</ele>
        <time>2021-06-06T09:14:01Z</time>
      </trkpt>
      <trkpt lat="42.8065" lon="2.4828">
        <ele>253.2</ele>
        <time>2021-06-06T09:14:05Z</time>
      </trkpt>
      <trkpt lat="42.80647" lon="2.48265">
        <ele>253.4</ele>
        <time>2021-06-06T09:14:09Z</time>
      </trkpt>
      <trkpt lat="42.80645" lon="2.48254">
        <ele>253.4</ele>
        <time>2021-06-06T09:14:12Z</time>
      </trkpt>
      <trkpt lat="42.80644" lon="2.48239">
        <ele>253.6</ele>
        <time>2021-06-06T09:14:16Z</time>
      </trkpt>
      <trkpt lat="42.80648" lon="2.48222">
        <ele>253.6</ele>
        <time>2021-06-06T09:14:20Z</time>
      </trkpt>
      <trkpt lat="42.80652" lon="2.48206">
        <ele>254.6</ele>
        <time>2021-06-06T09:14:24Z</time>
      </trkpt>
      <trkpt lat="42.80655" lon="2.48192">
        <ele>254.6</ele>
        <time>2021-06-06T09:14:28Z</time>
      </trkpt>
      <trkpt lat="42.80659" lon="2.48176">
        <ele>254.4</ele>
        <time>2021-06-06T09:14:32Z</time>
      </trkpt>
      <trkpt lat="42.80662" lon="2.48165">
        <ele>256</ele>
        <time>2021-06-06T09:14:35Z</time>
      </trkpt>
      <trkpt lat="42.80666" lon="2.4815">
        <ele>255.4</ele>
        <time>2021-06-06T09:14:39Z</time>
      </trkpt>
      <trkpt lat="42.80669" lon="2.48134">
        <ele>255</ele>
        <time>2021-06-06T09:14:43Z</time>
      </trkpt>
      <trkpt lat="42.80672" lon="2.48119">
        <ele>255.2</ele>
        <time>2021-06-06T09:14:47Z</time>
      </trkpt>
      <trkpt lat="42.80674" lon="2.48104">
        <ele>255.4</ele>
        <time>2021-06-06T09:14:51Z</time>
      </trkpt>
      <trkpt lat="42.80676" lon="2.48089">
        <ele>255.8</ele>
        <time>2021-06-06T09:14:55Z</time>
      </trkpt>
      <trkpt lat="42.80678" lon="2.48075">
        <ele>255.8</ele>
        <time>2021-06-06T09:14:59Z</time>
      </trkpt>
      <trkpt lat="42.80679" lon="2.48064">
        <ele>256.2</ele>
        <time>2021-06-06T09:15:02Z</time>
      </trkpt>
      <trkpt lat="42.8068" lon="2.48048">
        <ele>256.6</ele>
        <time>2021-06-06T09:15:06Z</time>
      </trkpt>
      <trkpt lat="42.8068" lon="2.48031">
        <ele>256.6</ele>
        <time>2021-06-06T09:15:10Z</time>
      </trkpt>
      <trkpt lat="42.8068" lon="2.48013">
        <ele>257.2</ele>
        <time>2021-06-06T09:15:14Z</time>
      </trkpt>
      <trkpt lat="42.80679" lon="2.47995">
        <ele>257</ele>
        <time>2021-06-06T09:15:18Z</time>
      </trkpt>
      <trkpt lat="42.80679" lon="2.47976">
        <ele>257.2</ele>
        <time>2021-06-06T09:15:22Z</time>
      </trkpt>
      <trkpt lat="42.80677" lon="2.47959">
        <ele>257.4</ele>
        <time>2021-06-06T09:15:26Z</time>
      </trkpt>
      <trkpt lat="42.80676" lon="2.47947">
        <ele>257.8</ele>
        <time>2021-06-06T09:15:29Z</time>
      </trkpt>
      <trkpt lat="42.80675" lon="2.47932">
        <ele>258.2</ele>
        <time>2021-06-06T09:15:33Z</time>
      </trkpt>
      <trkpt lat="42.80678" lon="2.47916">
        <ele>258.4</ele>
        <time>2021-06-06T09:15:37Z</time>
      </trkpt>
      <trkpt lat="42.80684" lon="2.47905">
        <ele>259.2</ele>
        <time>2021-06-06T09:15:41Z</time>
      </trkpt>
      <trkpt lat="42.80693" lon="2.47897">
        <ele>260.4</ele>
        <time>2021-06-06T09:15:45Z</time>
      </trkpt>
      <trkpt lat="42.80699" lon="2.47883">
        <ele>260.2</ele>
        <time>2021-06-06T09:15:49Z</time>
      </trkpt>
      <trkpt lat="42.80702" lon="2.47866">
        <ele>259.6</ele>
        <time>2021-06-06T09:15:53Z</time>
      </trkpt>
      <trkpt lat="42.80702" lon="2.47853">
        <ele>259.6</ele>
        <time>2021-06-06T09:15:56Z</time>
      </trkpt>
      <trkpt lat="42.80701" lon="2.47835">
        <ele>259.6</ele>
        <time>2021-06-06T09:16:00Z</time>
      </trkpt>
      <trkpt lat="42.807" lon="2.47817">
        <ele>259.8</ele>
        <time>2021-06-06T09:16:04Z</time>
      </trkpt>
      <trkpt lat="42.807" lon="2.47798">
        <ele>259.8</ele>
        <time>2021-06-06T09:16:08Z</time>
      </trkpt>
      <trkpt lat="42.80699" lon="2.47779">
        <ele>259.8</ele>
        <time>2021-06-06T09:16:12Z</time>
      </trkpt>
      <trkpt lat="42.80698" lon="2.4776">
        <ele>260.2</ele>
        <time>2021-06-06T09:16:16Z</time>
      </trkpt>
      <trkpt lat="42.80698" lon="2.47741">
        <ele>260.4</ele>
        <time>2021-06-06T09:16:20Z</time>
      </trkpt>
      <trkpt lat="42.80698" lon="2.47727">
        <ele>260.6</ele>
        <time>2021-06-06T09:16:23Z</time>
      </trkpt>
      <trkpt lat="42.807" lon="2.47709">
        <ele>260.8</ele>
        <time>2021-06-06T09:16:27Z</time>
      </trkpt>
      <trkpt lat="42.80703" lon="2.47692">
        <ele>261.4</ele>
        <time>2021-06-06T09:16:31Z</time>
      </trkpt>
      <trkpt lat="42.80705" lon="2.47677">
        <ele>261.8</ele>
        <time>2021-06-06T09:16:35Z</time>
      </trkpt>
      <trkpt lat="42.80706" lon="2.47663">
        <ele>262</ele>
        <time>2021-06-06T09:16:39Z</time>
      </trkpt>
      <trkpt lat="42.80706" lon="2.47654">
        <ele>262</ele>
        <time>2021-06-06T09:16:43Z</time>
      </trkpt>
      <trkpt lat="42.80708" lon="2.47644">
        <ele>261.8</ele>
        <time>2021-06-06T09:16:47Z</time>
      </trkpt>
      <trkpt lat="42.80708" lon="2.47637">
        <ele>262</ele>
        <time>2021-06-06T09:16:50Z</time>
      </trkpt>
      <trkpt lat="42.80709" lon="2.47627">
        <ele>261.8</ele>
        <time>2021-06-06T09:16:54Z</time>
      </trkpt>
      <trkpt lat="42.8071" lon="2.47616">
        <ele>261.4</ele>
        <time>2021-06-06T09:16:58Z</time>
      </trkpt>
      <trkpt lat="42.80711" lon="2.47606">
        <ele>261.8</ele>
        <time>2021-06-06T09:17:02Z</time>
      </trkpt>
      <trkpt lat="42.80714" lon="2.47594">
        <ele>262.4</ele>
        <time>2021-06-06T09:17:06Z</time>
      </trkpt>
      <trkpt lat="42.80715" lon="2.47581">
        <ele>263.2</ele>
        <time>2021-06-06T09:17:10Z</time>
      </trkpt>
      <trkpt lat="42.80718" lon="2.4757">
        <ele>263.4</ele>
        <time>2021-06-06T09:17:13Z</time>
      </trkpt>
      <trkpt lat="42.80721" lon="2.47553">
        <ele>263.2</ele>
        <time>2021-06-06T09:17:17Z</time>
      </trkpt>
      <trkpt lat="42.80724" lon="2.47536">
        <ele>263</ele>
        <time>2021-06-06T09:17:21Z</time>
      </trkpt>
      <trkpt lat="42.80728" lon="2.47519">
        <ele>263.4</ele>
        <time>2021-06-06T09:17:25Z</time>
      </trkpt>
      <trkpt lat="42.80732" lon="2.47503">
        <ele>263.4</ele>
        <time>2021-06-06T09:17:29Z</time>
      </trkpt>
      <trkpt lat="42.80735" lon="2.47486">
        <ele>262.8</ele>
        <time>2021-06-06T09:17:33Z</time>
      </trkpt>
      <trkpt lat="42.80739" lon="2.47468">
        <ele>263.6</ele>
        <time>2021-06-06T09:17:37Z</time>
      </trkpt>
      <trkpt lat="42.80742" lon="2.47455">
        <ele>263.8</ele>
        <time>2021-06-06T09:17:40Z</time>
      </trkpt>
      <trkpt lat="42.80745" lon="2.47438">
        <ele>264</ele>
        <time>2021-06-06T09:17:44Z</time>
      </trkpt>
      <trkpt lat="42.80749" lon="2.4742">
        <ele>263.8</ele>
        <time>2021-06-06T09:17:48Z</time>
      </trkpt>
      <trkpt lat="42.80752" lon="2.47399">
        <ele>263.2</ele>
        <time>2021-06-06T09:17:52Z</time>
      </trkpt>
      <trkpt lat="42.80752" lon="2.47378">
        <ele>263.2</ele>
        <time>2021-06-06T09:17:56Z</time>
      </trkpt>
      <trkpt lat="42.8075" lon="2.47355">
        <ele>263</ele>
        <time>2021-06-06T09:18:00Z</time>
      </trkpt>
      <trkpt lat="42.80749" lon="2.47333">
        <ele>263</ele>
        <time>2021-06-06T09:18:04Z</time>
      </trkpt>
      <trkpt lat="42.80748" lon="2.47316">
        <ele>263.2</ele>
        <time>2021-06-06T09:18:07Z</time>
      </trkpt>
      <trkpt lat="42.80748" lon="2.47295">
        <ele>263.2</ele>
        <time>2021-06-06T09:18:11Z</time>
      </trkpt>
      <trkpt lat="42.80748" lon="2.47273">
        <ele>263.2</ele>
        <time>2021-06-06T09:18:15Z</time>
      </trkpt>
      <trkpt lat="42.80749" lon="2.47252">
        <ele>263.4</ele>
        <time>2021-06-06T09:18:19Z</time>
      </trkpt>
      <trkpt lat="42.8075" lon="2.47232">
        <ele>263.8</ele>
        <time>2021-06-06T09:18:23Z</time>
      </trkpt>
      <trkpt lat="42.80749" lon="2.47212">
        <ele>264</ele>
        <time>2021-06-06T09:18:27Z</time>
      </trkpt>
      <trkpt lat="42.80751" lon="2.47192">
        <ele>264.2</ele>
        <time>2021-06-06T09:18:31Z</time>
      </trkpt>
      <trkpt lat="42.80752" lon="2.47177">
        <ele>264.2</ele>
        <time>2021-06-06T09:18:34Z</time>
      </trkpt>
      <trkpt lat="42.80753" lon="2.47158">
        <ele>265.2</ele>
        <time>2021-06-06T09:18:38Z</time>
      </trkpt>
      <trkpt lat="42.80754" lon="2.47138">
        <ele>266</ele>
        <time>2021-06-06T09:18:42Z</time>
      </trkpt>
      <trkpt lat="42.80755" lon="2.47118">
        <ele>265.8</ele>
        <time>2021-06-06T09:18:46Z</time>
      </trkpt>
      <trkpt lat="42.80755" lon="2.47096">
        <ele>265.6</ele>
        <time>2021-06-06T09:18:50Z</time>
      </trkpt>
      <trkpt lat="42.80755" lon="2.47074">
        <ele>264.8</ele>
        <time>2021-06-06T09:18:54Z</time>
      </trkpt>
      <trkpt lat="42.80755" lon="2.4705">
        <ele>264.8</ele>
        <time>2021-06-06T09:18:58Z</time>
      </trkpt>
      <trkpt lat="42.80755" lon="2.47032">
        <ele>265.4</ele>
        <time>2021-06-06T09:19:01Z</time>
      </trkpt>
      <trkpt lat="42.80754" lon="2.47011">
        <ele>264.2</ele>
        <time>2021-06-06T09:19:05Z</time>
      </trkpt>
      <trkpt lat="42.80757" lon="2.46992">
        <ele>264.2</ele>
        <time>2021-06-06T09:19:09Z</time>
      </trkpt>
      <trkpt lat="42.8076" lon="2.46974">
        <ele>264.2</ele>
        <time>2021-06-06T09:19:13Z</time>
      </trkpt>
      <trkpt lat="42.80762" lon="2.46959">
        <ele>264.8</ele>
        <time>2021-06-06T09:19:17Z</time>
      </trkpt>
      <trkpt lat="42.80766" lon="2.46945">
        <ele>264.8</ele>
        <time>2021-06-06T09:19:21Z</time>
      </trkpt>
      <trkpt lat="42.80768" lon="2.46935">
        <ele>264.8</ele>
        <time>2021-06-06T09:19:24Z</time>
      </trkpt>
      <trkpt lat="42.80771" lon="2.46923">
        <ele>265.8</ele>
        <time>2021-06-06T09:19:28Z</time>
      </trkpt>
      <trkpt lat="42.80773" lon="2.4691">
        <ele>266.2</ele>
        <time>2021-06-06T09:19:32Z</time>
      </trkpt>
      <trkpt lat="42.80776" lon="2.46897">
        <ele>266.2</ele>
        <time>2021-06-06T09:19:36Z</time>
      </trkpt>
      <trkpt lat="42.80779" lon="2.46884">
        <ele>266.2</ele>
        <time>2021-06-06T09:19:40Z</time>
      </trkpt>
      <trkpt lat="42.80781" lon="2.46871">
        <ele>266.4</ele>
        <time>2021-06-06T09:19:44Z</time>
      </trkpt>
      <trkpt lat="42.80784" lon="2.46859">
        <ele>267.4</ele>
        <time>2021-06-06T09:19:48Z</time>
      </trkpt>
      <trkpt lat="42.80786" lon="2.46849">
        <ele>268.2</ele>
        <time>2021-06-06T09:19:51Z</time>
      </trkpt>
      <trkpt lat="42.80789" lon="2.46837">
        <ele>268.4</ele>
        <time>2021-06-06T09:19:55Z</time>
      </trkpt>
      <trkpt lat="42.80791" lon="2.46824">
        <ele>270</ele>
        <time>2021-06-06T09:19:59Z</time>
      </trkpt>
      <trkpt lat="42.80794" lon="2.46813">
        <ele>271</ele>
        <time>2021-06-06T09:20:03Z</time>
      </trkpt>
      <trkpt lat="42.80795" lon="2.46801">
        <ele>271</ele>
        <time>2021-06-06T09:20:07Z</time>
      </trkpt>
      <trkpt lat="42.80796" lon="2.46789">
        <ele>271.4</ele>
        <time>2021-06-06T09:20:11Z</time>
      </trkpt>
      <trkpt lat="42.80797" lon="2.46777">
        <ele>271.8</ele>
        <time>2021-06-06T09:20:15Z</time>
      </trkpt>
      <trkpt lat="42.80797" lon="2.46767">
        <ele>272.2</ele>
        <time>2021-06-06T09:20:18Z</time>
      </trkpt>
      <trkpt lat="42.80797" lon="2.46755">
        <ele>272.2</ele>
        <time>2021-06-06T09:20:22Z</time>
      </trkpt>
      <trkpt lat="42.80798" lon="2.46742">
        <ele>273</ele>
        <time>2021-06-06T09:20:26Z</time>
      </trkpt>
      <trkpt lat="42.80799" lon="2.4673">
        <ele>273</ele>
        <time>2021-06-06T09:20:30Z</time>
      </trkpt>
      <trkpt lat="42.808" lon="2.46718">
        <ele>273.4</ele>
        <time>2021-06-06T09:20:34Z</time>
      </trkpt>
      <trkpt lat="42.80801" lon="2.46706">
        <ele>274.4</ele>
        <time>2021-06-06T09:20:38Z</time>
      </trkpt>
      <trkpt lat="42.80802" lon="2.46691">
        <ele>275</ele>
        <time>2021-06-06T09:20:42Z</time>
      </trkpt>
      <trkpt lat="42.80803" lon="2.46679">
        <ele>273.8</ele>
        <time>2021-06-06T09:20:45Z</time>
      </trkpt>
      <trkpt lat="42.80806" lon="2.46658">
        <ele>273.6</ele>
        <time>2021-06-06T09:20:49Z</time>
      </trkpt>
      <trkpt lat="42.80809" lon="2.46635">
        <ele>271.8</ele>
        <time>2021-06-06T09:20:53Z</time>
      </trkpt>
      <trkpt lat="42.80813" lon="2.46609">
        <ele>271</ele>
        <time>2021-06-06T09:20:57Z</time>
      </trkpt>
      <trkpt lat="42.80817" lon="2.46583">
        <ele>270.2</ele>
        <time>2021-06-06T09:21:01Z</time>
      </trkpt>
      <trkpt lat="42.80821" lon="2.46555">
        <ele>269.4</ele>
        <time>2021-06-06T09:21:05Z</time>
      </trkpt>
      <trkpt lat="42.80825" lon="2.46527">
        <ele>268.8</ele>
        <time>2021-06-06T09:21:09Z</time>
      </trkpt>
      <trkpt lat="42.80828" lon="2.46505">
        <ele>268.4</ele>
        <time>2021-06-06T09:21:12Z</time>
      </trkpt>
      <trkpt lat="42.80829" lon="2.46475">
        <ele>268</ele>
        <time>2021-06-06T09:21:16Z</time>
      </trkpt>
      <trkpt lat="42.80821" lon="2.46447">
        <ele>267.8</ele>
        <time>2021-06-06T09:21:20Z</time>
      </trkpt>
      <trkpt lat="42.80814" lon="2.46423">
        <ele>268</ele>
        <time>2021-06-06T09:21:24Z</time>
      </trkpt>
      <trkpt lat="42.80809" lon="2.46403">
        <ele>268.8</ele>
        <time>2021-06-06T09:21:28Z</time>
      </trkpt>
      <trkpt lat="42.80808" lon="2.46385">
        <ele>270.4</ele>
        <time>2021-06-06T09:21:32Z</time>
      </trkpt>
      <trkpt lat="42.8081" lon="2.46368">
        <ele>270.2</ele>
        <time>2021-06-06T09:21:36Z</time>
      </trkpt>
      <trkpt lat="42.80814" lon="2.46354">
        <ele>270</ele>
        <time>2021-06-06T09:21:39Z</time>
      </trkpt>
      <trkpt lat="42.80824" lon="2.46337">
        <ele>268.8</ele>
        <time>2021-06-06T09:21:43Z</time>
      </trkpt>
      <trkpt lat="42.80836" lon="2.46323">
        <ele>268.4</ele>
        <time>2021-06-06T09:21:47Z</time>
      </trkpt>
      <trkpt lat="42.8085" lon="2.46313">
        <ele>269.6</ele>
        <time>2021-06-06T09:21:51Z</time>
      </trkpt>
      <trkpt lat="42.80865" lon="2.46301">
        <ele>269.2</ele>
        <time>2021-06-06T09:21:55Z</time>
      </trkpt>
      <trkpt lat="42.8088" lon="2.46287">
        <ele>269.6</ele>
        <time>2021-06-06T09:21:59Z</time>
      </trkpt>
      <trkpt lat="42.8089" lon="2.46274">
        <ele>269.4</ele>
        <time>2021-06-06T09:22:02Z</time>
      </trkpt>
      <trkpt lat="42.80903" lon="2.46256">
        <ele>269.8</ele>
        <time>2021-06-06T09:22:06Z</time>
      </trkpt>
      <trkpt lat="42.80915" lon="2.46238">
        <ele>270</ele>
        <time>2021-06-06T09:22:10Z</time>
      </trkpt>
      <trkpt lat="42.80928" lon="2.46218">
        <ele>269</ele>
        <time>2021-06-06T09:22:14Z</time>
      </trkpt>
      <trkpt lat="42.80942" lon="2.46198">
        <ele>268.4</ele>
        <time>2021-06-06T09:22:18Z</time>
      </trkpt>
      <trkpt lat="42.80954" lon="2.46178">
        <ele>267.8</ele>
        <time>2021-06-06T09:22:22Z</time>
      </trkpt>
      <trkpt lat="42.80964" lon="2.46156">
        <ele>268.4</ele>
        <time>2021-06-06T09:22:26Z</time>
      </trkpt>
      <trkpt lat="42.80971" lon="2.46137">
        <ele>268.4</ele>
        <time>2021-06-06T09:22:29Z</time>
      </trkpt>
      <trkpt lat="42.80979" lon="2.46111">
        <ele>268</ele>
        <time>2021-06-06T09:22:33Z</time>
      </trkpt>
      <trkpt lat="42.80986" lon="2.46086">
        <ele>268</ele>
        <time>2021-06-06T09:22:37Z</time>
      </trkpt>
      <trkpt lat="42.80992" lon="2.46064">
        <ele>267.8</ele>
        <time>2021-06-06T09:22:41Z</time>
      </trkpt>
      <trkpt lat="42.80999" lon="2.46043">
        <ele>268.4</ele>
        <time>2021-06-06T09:22:45Z</time>
      </trkpt>
      <trkpt lat="42.81008" lon="2.46024">
        <ele>268.6</ele>
        <time>2021-06-06T09:22:49Z</time>
      </trkpt>
      <trkpt lat="42.81018" lon="2.46006">
        <ele>269</ele>
        <time>2021-06-06T09:22:53Z</time>
      </trkpt>
      <trkpt lat="42.81027" lon="2.45995">
        <ele>269.6</ele>
        <time>2021-06-06T09:22:56Z</time>
      </trkpt>
      <trkpt lat="42.81041" lon="2.45982">
        <ele>269.2</ele>
        <time>2021-06-06T09:23:00Z</time>
      </trkpt>
      <trkpt lat="42.81055" lon="2.45971">
        <ele>269.4</ele>
        <time>2021-06-06T09:23:04Z</time>
      </trkpt>
      <trkpt lat="42.81069" lon="2.45958">
        <ele>269.2</ele>
        <time>2021-06-06T09:23:08Z</time>
      </trkpt>
      <trkpt lat="42.81083" lon="2.45946">
        <ele>269.6</ele>
        <time>2021-06-06T09:23:12Z</time>
      </trkpt>
      <trkpt lat="42.81097" lon="2.45933">
        <ele>269.4</ele>
        <time>2021-06-06T09:23:16Z</time>
      </trkpt>
      <trkpt lat="42.81109" lon="2.45919">
        <ele>269.4</ele>
        <time>2021-06-06T09:23:20Z</time>
      </trkpt>
      <trkpt lat="42.81119" lon="2.4591">
        <ele>269.8</ele>
        <time>2021-06-06T09:23:23Z</time>
      </trkpt>
      <trkpt lat="42.81132" lon="2.45899">
        <ele>270</ele>
        <time>2021-06-06T09:23:27Z</time>
      </trkpt>
      <trkpt lat="42.81144" lon="2.45888">
        <ele>270.6</ele>
        <time>2021-06-06T09:23:31Z</time>
      </trkpt>
      <trkpt lat="42.81155" lon="2.45872">
        <ele>271.8</ele>
        <time>2021-06-06T09:23:35Z</time>
      </trkpt>
      <trkpt lat="42.81163" lon="2.45853">
        <ele>271.8</ele>
        <time>2021-06-06T09:23:39Z</time>
      </trkpt>
      <trkpt lat="42.81168" lon="2.45832">
        <ele>271.2</ele>
        <time>2021-06-06T09:23:43Z</time>
      </trkpt>
      <trkpt lat="42.81171" lon="2.45811">
        <ele>271</ele>
        <time>2021-06-06T09:23:47Z</time>
      </trkpt>
      <trkpt lat="42.81173" lon="2.45796">
        <ele>271.8</ele>
        <time>2021-06-06T09:23:50Z</time>
      </trkpt>
      <trkpt lat="42.81176" lon="2.45775">
        <ele>271.8</ele>
        <time>2021-06-06T09:23:54Z</time>
      </trkpt>
      <trkpt lat="42.81179" lon="2.45756">
        <ele>271.8</ele>
        <time>2021-06-06T09:23:58Z</time>
      </trkpt>
      <trkpt lat="42.81181" lon="2.45737">
        <ele>271.6</ele>
        <time>2021-06-06T09:24:02Z</time>
      </trkpt>
      <trkpt lat="42.81184" lon="2.45719">
        <ele>271.6</ele>
        <time>2021-06-06T09:24:06Z</time>
      </trkpt>
      <trkpt lat="42.81187" lon="2.45699">
        <ele>272</ele>
        <time>2021-06-06T09:24:10Z</time>
      </trkpt>
      <trkpt lat="42.8119" lon="2.45679">
        <ele>272.2</ele>
        <time>2021-06-06T09:24:14Z</time>
      </trkpt>
      <trkpt lat="42.81192" lon="2.45664">
        <ele>271.8</ele>
        <time>2021-06-06T09:24:17Z</time>
      </trkpt>
      <trkpt lat="42.81196" lon="2.45643">
        <ele>271.6</ele>
        <time>2021-06-06T09:24:21Z</time>
      </trkpt>
      <trkpt lat="42.81199" lon="2.45622">
        <ele>272.6</ele>
        <time>2021-06-06T09:24:25Z</time>
      </trkpt>
      <trkpt lat="42.81202" lon="2.45601">
        <ele>272.6</ele>
        <time>2021-06-06T09:24:29Z</time>
      </trkpt>
      <trkpt lat="42.81206" lon="2.45581">
        <ele>272.2</ele>
        <time>2021-06-06T09:24:33Z</time>
      </trkpt>
      <trkpt lat="42.81208" lon="2.45561">
        <ele>272.6</ele>
        <time>2021-06-06T09:24:37Z</time>
      </trkpt>
      <trkpt lat="42.81211" lon="2.45546">
        <ele>272.8</ele>
        <time>2021-06-06T09:24:40Z</time>
      </trkpt>
      <trkpt lat="42.81215" lon="2.45527">
        <ele>273.2</ele>
        <time>2021-06-06T09:24:44Z</time>
      </trkpt>
      <trkpt lat="42.81221" lon="2.45508">
        <ele>273.2</ele>
        <time>2021-06-06T09:24:48Z</time>
      </trkpt>
      <trkpt lat="42.8123" lon="2.45488">
        <ele>272.8</ele>
        <time>2021-06-06T09:24:52Z</time>
      </trkpt>
      <trkpt lat="42.81241" lon="2.45468">
        <ele>273</ele>
        <time>2021-06-06T09:24:56Z</time>
      </trkpt>
      <trkpt lat="42.81253" lon="2.45452">
        <ele>273.2</ele>
        <time>2021-06-06T09:25:00Z</time>
      </trkpt>
      <trkpt lat="42.81265" lon="2.45438">
        <ele>273.6</ele>
        <time>2021-06-06T09:25:04Z</time>
      </trkpt>
      <trkpt lat="42.81273" lon="2.45427">
        <ele>274.4</ele>
        <time>2021-06-06T09:25:07Z</time>
      </trkpt>
      <trkpt lat="42.81284" lon="2.45411">
        <ele>274.8</ele>
        <time>2021-06-06T09:25:11Z</time>
      </trkpt>
      <trkpt lat="42.81292" lon="2.45393">
        <ele>274.4</ele>
        <time>2021-06-06T09:25:15Z</time>
      </trkpt>
      <trkpt lat="42.81299" lon="2.45371">
        <ele>274.2</ele>
        <time>2021-06-06T09:25:19Z</time>
      </trkpt>
      <trkpt lat="42.81307" lon="2.45347">
        <ele>274.8</ele>
        <time>2021-06-06T09:25:23Z</time>
      </trkpt>
      <trkpt lat="42.81314" lon="2.45324">
        <ele>275</ele>
        <time>2021-06-06T09:25:27Z</time>
      </trkpt>
      <trkpt lat="42.8132" lon="2.45301">
        <ele>275.2</ele>
        <time>2021-06-06T09:25:31Z</time>
      </trkpt>
      <trkpt lat="42.81324" lon="2.45286">
        <ele>275.2</ele>
        <time>2021-06-06T09:25:34Z</time>
      </trkpt>
      <trkpt lat="42.8133" lon="2.45265">
        <ele>275.2</ele>
        <time>2021-06-06T09:25:38Z</time>
      </trkpt>
      <trkpt lat="42.81336" lon="2.45246">
        <ele>276.2</ele>
        <time>2021-06-06T09:25:42Z</time>
      </trkpt>
      <trkpt lat="42.81342" lon="2.45226">
        <ele>275.8</ele>
        <time>2021-06-06T09:25:46Z</time>
      </trkpt>
      <trkpt lat="42.81348" lon="2.45205">
        <ele>276</ele>
        <time>2021-06-06T09:25:50Z</time>
      </trkpt>
      <trkpt lat="42.81354" lon="2.45185">
        <ele>276.2</ele>
        <time>2021-06-06T09:25:54Z</time>
      </trkpt>
      <trkpt lat="42.8136" lon="2.45164">
        <ele>276.4</ele>
        <time>2021-06-06T09:25:58Z</time>
      </trkpt>
      <trkpt lat="42.81363" lon="2.45147">
        <ele>276.4</ele>
        <time>2021-06-06T09:26:01Z</time>
      </trkpt>
      <trkpt lat="42.81368" lon="2.45126">
        <ele>276.4</ele>
        <time>2021-06-06T09:26:05Z</time>
      </trkpt>
      <trkpt lat="42.81371" lon="2.45105">
        <ele>276.2</ele>
        <time>2021-06-06T09:26:09Z</time>
      </trkpt>
      <trkpt lat="42.81373" lon="2.45084">
        <ele>276.8</ele>
        <time>2021-06-06T09:26:13Z</time>
      </trkpt>
      <trkpt lat="42.81374" lon="2.45064">
        <ele>277.4</ele>
        <time>2021-06-06T09:26:17Z</time>
      </trkpt>
      <trkpt lat="42.81375" lon="2.45045">
        <ele>277.6</ele>
        <time>2021-06-06T09:26:21Z</time>
      </trkpt>
      <trkpt lat="42.81376" lon="2.45026">
        <ele>278.2</ele>
        <time>2021-06-06T09:26:25Z</time>
      </trkpt>
      <trkpt lat="42.81377" lon="2.45013">
        <ele>278.6</ele>
        <time>2021-06-06T09:26:28Z</time>
      </trkpt>
      <trkpt lat="42.8138" lon="2.44995">
        <ele>279</ele>
        <time>2021-06-06T09:26:32Z</time>
      </trkpt>
      <trkpt lat="42.81382" lon="2.44978">
        <ele>279.4</ele>
        <time>2021-06-06T09:26:36Z</time>
      </trkpt>
      <trkpt lat="42.81385" lon="2.44962">
        <ele>279.6</ele>
        <time>2021-06-06T09:26:40Z</time>
      </trkpt>
      <trkpt lat="42.81387" lon="2.44945">
        <ele>280</ele>
        <time>2021-06-06T09:26:44Z</time>
      </trkpt>
      <trkpt lat="42.8139" lon="2.44929">
        <ele>281.2</ele>
        <time>2021-06-06T09:26:48Z</time>
      </trkpt>
      <trkpt lat="42.81392" lon="2.44918">
        <ele>281.6</ele>
        <time>2021-06-06T09:26:51Z</time>
      </trkpt>
      <trkpt lat="42.81395" lon="2.44903">
        <ele>281.4</ele>
        <time>2021-06-06T09:26:55Z</time>
      </trkpt>
      <trkpt lat="42.81398" lon="2.4489">
        <ele>281.4</ele>
        <time>2021-06-06T09:26:59Z</time>
      </trkpt>
      <trkpt lat="42.814" lon="2.44875">
        <ele>281.6</ele>
        <time>2021-06-06T09:27:03Z</time>
      </trkpt>
      <trkpt lat="42.81403" lon="2.4486">
        <ele>282</ele>
        <time>2021-06-06T09:27:07Z</time>
      </trkpt>
      <trkpt lat="42.81407" lon="2.44843">
        <ele>281.8</ele>
        <time>2021-06-06T09:27:11Z</time>
      </trkpt>
      <trkpt lat="42.8141" lon="2.44824">
        <ele>282.2</ele>
        <time>2021-06-06T09:27:15Z</time>
      </trkpt>
      <trkpt lat="42.81414" lon="2.44809">
        <ele>282.2</ele>
        <time>2021-06-06T09:27:18Z</time>
      </trkpt>
      <trkpt lat="42.81418" lon="2.44788">
        <ele>282.8</ele>
        <time>2021-06-06T09:27:22Z</time>
      </trkpt>
      <trkpt lat="42.81423" lon="2.44764">
        <ele>282.6</ele>
        <time>2021-06-06T09:27:26Z</time>
      </trkpt>
      <trkpt lat="42.81428" lon="2.44741">
        <ele>282</ele>
        <time>2021-06-06T09:27:30Z</time>
      </trkpt>
      <trkpt lat="42.81433" lon="2.44719">
        <ele>282.4</ele>
        <time>2021-06-06T09:27:34Z</time>
      </trkpt>
      <trkpt lat="42.81437" lon="2.44699">
        <ele>282.6</ele>
        <time>2021-06-06T09:27:38Z</time>
      </trkpt>
      <trkpt lat="42.81439" lon="2.44679">
        <ele>282.8</ele>
        <time>2021-06-06T09:27:42Z</time>
      </trkpt>
      <trkpt lat="42.81441" lon="2.44665">
        <ele>283</ele>
        <time>2021-06-06T09:27:45Z</time>
      </trkpt>
      <trkpt lat="42.81444" lon="2.44648">
        <ele>283</ele>
        <time>2021-06-06T09:27:49Z</time>
      </trkpt>
      <trkpt lat="42.81445" lon="2.44631">
        <ele>283.2</ele>
        <time>2021-06-06T09:27:53Z</time>
      </trkpt>
      <trkpt lat="42.81447" lon="2.44614">
        <ele>283.4</ele>
        <time>2021-06-06T09:27:57Z</time>
      </trkpt>
      <trkpt lat="42.81449" lon="2.44598">
        <ele>283.6</ele>
        <time>2021-06-06T09:28:01Z</time>
      </trkpt>
      <trkpt lat="42.81451" lon="2.44583">
        <ele>283.6</ele>
        <time>2021-06-06T09:28:05Z</time>
      </trkpt>
      <trkpt lat="42.81453" lon="2.4457">
        <ele>284.4</ele>
        <time>2021-06-06T09:28:09Z</time>
      </trkpt>
      <trkpt lat="42.81453" lon="2.44559">
        <ele>284.8</ele>
        <time>2021-06-06T09:28:12Z</time>
      </trkpt>
      <trkpt lat="42.81455" lon="2.44544">
        <ele>285.4</ele>
        <time>2021-06-06T09:28:16Z</time>
      </trkpt>
      <trkpt lat="42.81455" lon="2.4453">
        <ele>285.8</ele>
        <time>2021-06-06T09:28:20Z</time>
      </trkpt>
      <trkpt lat="42.81453" lon="2.44516">
        <ele>286.2</ele>
        <time>2021-06-06T09:28:24Z</time>
      </trkpt>
      <trkpt lat="42.81451" lon="2.44502">
        <ele>286.8</ele>
        <time>2021-06-06T09:28:28Z</time>
      </trkpt>
      <trkpt lat="42.81448" lon="2.44488">
        <ele>287.6</ele>
        <time>2021-06-06T09:28:32Z</time>
      </trkpt>
      <trkpt lat="42.81446" lon="2.44472">
        <ele>287.6</ele>
        <time>2021-06-06T09:28:36Z</time>
      </trkpt>
      <trkpt lat="42.81446" lon="2.4446">
        <ele>287.8</ele>
        <time>2021-06-06T09:28:39Z</time>
      </trkpt>
      <trkpt lat="42.81448" lon="2.44444">
        <ele>287.4</ele>
        <time>2021-06-06T09:28:43Z</time>
      </trkpt>
      <trkpt lat="42.8145" lon="2.44428">
        <ele>288.2</ele>
        <time>2021-06-06T09:28:47Z</time>
      </trkpt>
      <trkpt lat="42.81454" lon="2.44412">
        <ele>289.2</ele>
        <time>2021-06-06T09:28:51Z</time>
      </trkpt>
      <trkpt lat="42.81459" lon="2.44395">
        <ele>289</ele>
        <time>2021-06-06T09:28:55Z</time>
      </trkpt>
      <trkpt lat="42.81466" lon="2.44378">
        <ele>288.8</ele>
        <time>2021-06-06T09:28:59Z</time>
      </trkpt>
      <trkpt lat="42.81473" lon="2.4436">
        <ele>289.2</ele>
        <time>2021-06-06T09:29:03Z</time>
      </trkpt>
      <trkpt lat="42.81479" lon="2.44349">
        <ele>289.2</ele>
        <time>2021-06-06T09:29:06Z</time>
      </trkpt>
      <trkpt lat="42.81487" lon="2.44335">
        <ele>289.4</ele>
        <time>2021-06-06T09:29:10Z</time>
      </trkpt>
      <trkpt lat="42.81495" lon="2.44322">
        <ele>289</ele>
        <time>2021-06-06T09:29:14Z</time>
      </trkpt>
      <trkpt lat="42.81503" lon="2.44309">
        <ele>289.4</ele>
        <time>2021-06-06T09:29:18Z</time>
      </trkpt>
      <trkpt lat="42.81512" lon="2.44297">
        <ele>289.2</ele>
        <time>2021-06-06T09:29:22Z</time>
      </trkpt>
      <trkpt lat="42.81522" lon="2.44285">
        <ele>289.6</ele>
        <time>2021-06-06T09:29:26Z</time>
      </trkpt>
      <trkpt lat="42.81529" lon="2.44276">
        <ele>289.8</ele>
        <time>2021-06-06T09:29:29Z</time>
      </trkpt>
      <trkpt lat="42.81539" lon="2.44264">
        <ele>289.8</ele>
        <time>2021-06-06T09:29:33Z</time>
      </trkpt>
      <trkpt lat="42.81549" lon="2.44253">
        <ele>290</ele>
        <time>2021-06-06T09:29:37Z</time>
      </trkpt>
      <trkpt lat="42.8156" lon="2.44242">
        <ele>290.2</ele>
        <time>2021-06-06T09:29:41Z</time>
      </trkpt>
      <trkpt lat="42.81571" lon="2.44231">
        <ele>290.2</ele>
        <time>2021-06-06T09:29:45Z</time>
      </trkpt>
      <trkpt lat="42.81581" lon="2.44222">
        <ele>290.2</ele>
        <time>2021-06-06T09:29:49Z</time>
      </trkpt>
      <trkpt lat="42.81593" lon="2.44212">
        <ele>290.2</ele>
        <time>2021-06-06T09:29:53Z</time>
      </trkpt>
      <trkpt lat="42.81601" lon="2.44204">
        <ele>290.4</ele>
        <time>2021-06-06T09:29:56Z</time>
      </trkpt>
      <trkpt lat="42.81612" lon="2.44196">
        <ele>290.6</ele>
        <time>2021-06-06T09:30:00Z</time>
      </trkpt>
      <trkpt lat="42.81624" lon="2.44188">
        <ele>291</ele>
        <time>2021-06-06T09:30:04Z</time>
      </trkpt>
      <trkpt lat="42.81636" lon="2.4418">
        <ele>291.8</ele>
        <time>2021-06-06T09:30:08Z</time>
      </trkpt>
      <trkpt lat="42.81648" lon="2.44172">
        <ele>291.8</ele>
        <time>2021-06-06T09:30:12Z</time>
      </trkpt>
      <trkpt lat="42.81659" lon="2.44161">
        <ele>292</ele>
        <time>2021-06-06T09:30:16Z</time>
      </trkpt>
      <trkpt lat="42.8167" lon="2.44149">
        <ele>292</ele>
        <time>2021-06-06T09:30:20Z</time>
      </trkpt>
      <trkpt lat="42.81678" lon="2.44141">
        <ele>292.4</ele>
        <time>2021-06-06T09:30:23Z</time>
      </trkpt>
      <trkpt lat="42.81688" lon="2.44129">
        <ele>293</ele>
        <time>2021-06-06T09:30:27Z</time>
      </trkpt>
      <trkpt lat="42.81698" lon="2.44117">
        <ele>293</ele>
        <time>2021-06-06T09:30:31Z</time>
      </trkpt>
      <trkpt lat="42.81707" lon="2.44105">
        <ele>294.8</ele>
        <time>2021-06-06T09:30:35Z</time>
      </trkpt>
      <trkpt lat="42.81716" lon="2.44091">
        <ele>295.4</ele>
        <time>2021-06-06T09:30:39Z</time>
      </trkpt>
      <trkpt lat="42.81723" lon="2.44076">
        <ele>295.8</ele>
        <time>2021-06-06T09:30:43Z</time>
      </trkpt>
      <trkpt lat="42.8173" lon="2.44062">
        <ele>295.8</ele>
        <time>2021-06-06T09:30:47Z</time>
      </trkpt>
      <trkpt lat="42.81735" lon="2.44051">
        <ele>296.2</ele>
        <time>2021-06-06T09:30:50Z</time>
      </trkpt>
      <trkpt lat="42.81742" lon="2.44039">
        <ele>296</ele>
        <time>2021-06-06T09:30:54Z</time>
      </trkpt>
      <trkpt lat="42.81748" lon="2.44026">
        <ele>296.2</ele>
        <time>2021-06-06T09:30:58Z</time>
      </trkpt>
      <trkpt lat="42.81755" lon="2.44014">
        <ele>297.4</ele>
        <time>2021-06-06T09:31:02Z</time>
      </trkpt>
      <trkpt lat="42.81762" lon="2.44001">
        <ele>297.2</ele>
        <time>2021-06-06T09:31:06Z</time>
      </trkpt>
      <trkpt lat="42.81769" lon="2.43987">
        <ele>297.8</ele>
        <time>2021-06-06T09:31:10Z</time>
      </trkpt>
      <trkpt lat="42.81777" lon="2.43974">
        <ele>297.6</ele>
        <time>2021-06-06T09:31:14Z</time>
      </trkpt>
      <trkpt lat="42.81785" lon="2.43966">
        <ele>298</ele>
        <time>2021-06-06T09:31:17Z</time>
      </trkpt>
      <trkpt lat="42.81796" lon="2.43958">
        <ele>298.6</ele>
        <time>2021-06-06T09:31:21Z</time>
      </trkpt>
      <trkpt lat="42.81807" lon="2.43954">
        <ele>299</ele>
        <time>2021-06-06T09:31:25Z</time>
      </trkpt>
      <trkpt lat="42.81818" lon="2.4395">
        <ele>299</ele>
        <time>2021-06-06T09:31:29Z</time>
      </trkpt>
      <trkpt lat="42.81829" lon="2.43948">
        <ele>300</ele>
        <time>2021-06-06T09:31:33Z</time>
      </trkpt>
      <trkpt lat="42.8184" lon="2.43945">
        <ele>300.8</ele>
        <time>2021-06-06T09:31:37Z</time>
      </trkpt>
      <trkpt lat="42.81852" lon="2.43939">
        <ele>301</ele>
        <time>2021-06-06T09:31:41Z</time>
      </trkpt>
      <trkpt lat="42.81859" lon="2.43933">
        <ele>301</ele>
        <time>2021-06-06T09:31:44Z</time>
      </trkpt>
      <trkpt lat="42.81868" lon="2.43924">
        <ele>301.8</ele>
        <time>2021-06-06T09:31:48Z</time>
      </trkpt>
      <trkpt lat="42.81877" lon="2.43913">
        <ele>302.2</ele>
        <time>2021-06-06T09:31:52Z</time>
      </trkpt>
      <trkpt lat="42.81887" lon="2.43903">
        <ele>302.6</ele>
        <time>2021-06-06T09:31:56Z</time>
      </trkpt>
      <trkpt lat="42.81895" lon="2.43893">
        <ele>303</ele>
        <time>2021-06-06T09:32:00Z</time>
      </trkpt>
      <trkpt lat="42.81905" lon="2.43883">
        <ele>304</ele>
        <time>2021-06-06T09:32:04Z</time>
      </trkpt>
      <trkpt lat="42.81913" lon="2.43875">
        <ele>303.8</ele>
        <time>2021-06-06T09:32:07Z</time>
      </trkpt>
      <trkpt lat="42.81922" lon="2.43866">
        <ele>304</ele>
        <time>2021-06-06T09:32:11Z</time>
      </trkpt>
      <trkpt lat="42.81931" lon="2.43858">
        <ele>304.4</ele>
        <time>2021-06-06T09:32:15Z</time>
      </trkpt>
      <trkpt lat="42.8194" lon="2.4385">
        <ele>304.6</ele>
        <time>2021-06-06T09:32:19Z</time>
      </trkpt>
      <trkpt lat="42.81949" lon="2.43842">
        <ele>305</ele>
        <time>2021-06-06T09:32:23Z</time>
      </trkpt>
      <trkpt lat="42.81958" lon="2.43834">
        <ele>305</ele>
        <time>2021-06-06T09:32:27Z</time>
      </trkpt>
      <trkpt lat="42.81968" lon="2.43826">
        <ele>305.2</ele>
        <time>2021-06-06T09:32:31Z</time>
      </trkpt>
      <trkpt lat="42.81975" lon="2.4382">
        <ele>306</ele>
        <time>2021-06-06T09:32:34Z</time>
      </trkpt>
      <trkpt lat="42.81984" lon="2.43812">
        <ele>306.2</ele>
        <time>2021-06-06T09:32:38Z</time>
      </trkpt>
      <trkpt lat="42.81992" lon="2.43803">
        <ele>306.8</ele>
        <time>2021-06-06T09:32:42Z</time>
      </trkpt>
      <trkpt lat="42.82001" lon="2.43795">
        <ele>306.8</ele>
        <time>2021-06-06T09:32:46Z</time>
      </trkpt>
      <trkpt lat="42.82009" lon="2.43787">
        <ele>307.4</ele>
        <time>2021-06-06T09:32:50Z</time>
      </trkpt>
      <trkpt lat="42.82019" lon="2.43779">
        <ele>308</ele>
        <time>2021-06-06T09:32:54Z</time>
      </trkpt>
      <trkpt lat="42.82027" lon="2.43772">
        <ele>308</ele>
        <time>2021-06-06T09:32:58Z</time>
      </trkpt>
      <trkpt lat="42.82033" lon="2.43766">
        <ele>308.2</ele>
        <time>2021-06-06T09:33:01Z</time>
      </trkpt>
      <trkpt lat="42.82042" lon="2.43758">
        <ele>308.8</ele>
        <time>2021-06-06T09:33:05Z</time>
      </trkpt>
      <trkpt lat="42.8205" lon="2.43751">
        <ele>308.8</ele>
        <time>2021-06-06T09:33:09Z</time>
      </trkpt>
      <trkpt lat="42.82057" lon="2.43743">
        <ele>309.4</ele>
        <time>2021-06-06T09:33:13Z</time>
      </trkpt>
      <trkpt lat="42.82064" lon="2.43734">
        <ele>309.2</ele>
        <time>2021-06-06T09:33:17Z</time>
      </trkpt>
      <trkpt lat="42.82071" lon="2.43725">
        <ele>309.2</ele>
        <time>2021-06-06T09:33:21Z</time>
      </trkpt>
      <trkpt lat="42.82076" lon="2.43713">
        <ele>310.4</ele>
        <time>2021-06-06T09:33:25Z</time>
      </trkpt>
      <trkpt lat="42.82079" lon="2.43704">
        <ele>310.4</ele>
        <time>2021-06-06T09:33:28Z</time>
      </trkpt>
      <trkpt lat="42.82083" lon="2.4369">
        <ele>310.6</ele>
        <time>2021-06-06T09:33:32Z</time>
      </trkpt>
      <trkpt lat="42.8209" lon="2.43676">
        <ele>310.8</ele>
        <time>2021-06-06T09:33:36Z</time>
      </trkpt>
      <trkpt lat="42.82096" lon="2.43665">
        <ele>311.6</ele>
        <time>2021-06-06T09:33:40Z</time>
      </trkpt>
      <trkpt lat="42.82103" lon="2.43656">
        <ele>311.4</ele>
        <time>2021-06-06T09:33:44Z</time>
      </trkpt>
      <trkpt lat="42.8211" lon="2.43647">
        <ele>311.8</ele>
        <time>2021-06-06T09:33:48Z</time>
      </trkpt>
      <trkpt lat="42.82118" lon="2.43639">
        <ele>312.2</ele>
        <time>2021-06-06T09:33:52Z</time>
      </trkpt>
      <trkpt lat="42.82124" lon="2.43634">
        <ele>312.4</ele>
        <time>2021-06-06T09:33:55Z</time>
      </trkpt>
      <trkpt lat="42.82132" lon="2.43631">
        <ele>312</ele>
        <time>2021-06-06T09:33:59Z</time>
      </trkpt>
      <trkpt lat="42.82141" lon="2.43629">
        <ele>312.2</ele>
        <time>2021-06-06T09:34:03Z</time>
      </trkpt>
      <trkpt lat="42.82151" lon="2.4363">
        <ele>313</ele>
        <time>2021-06-06T09:34:07Z</time>
      </trkpt>
      <trkpt lat="42.8216" lon="2.43632">
        <ele>314.4</ele>
        <time>2021-06-06T09:34:11Z</time>
      </trkpt>
      <trkpt lat="42.8217" lon="2.43634">
        <ele>314.4</ele>
        <time>2021-06-06T09:34:15Z</time>
      </trkpt>
      <trkpt lat="42.82176" lon="2.43635">
        <ele>314.2</ele>
        <time>2021-06-06T09:34:18Z</time>
      </trkpt>
      <trkpt lat="42.82185" lon="2.43634">
        <ele>313.6</ele>
        <time>2021-06-06T09:34:22Z</time>
      </trkpt>
      <trkpt lat="42.82195" lon="2.43632">
        <ele>313.8</ele>
        <time>2021-06-06T09:34:26Z</time>
      </trkpt>
      <trkpt lat="42.82204" lon="2.43629">
        <ele>314.6</ele>
        <time>2021-06-06T09:34:30Z</time>
      </trkpt>
      <trkpt lat="42.82214" lon="2.43626">
        <ele>316</ele>
        <time>2021-06-06T09:34:34Z</time>
      </trkpt>
      <trkpt lat="42.82223" lon="2.43621">
        <ele>315.8</ele>
        <time>2021-06-06T09:34:38Z</time>
      </trkpt>
      <trkpt lat="42.82231" lon="2.43613">
        <ele>316</ele>
        <time>2021-06-06T09:34:42Z</time>
      </trkpt>
      <trkpt lat="42.82236" lon="2.43606">
        <ele>317.2</ele>
        <time>2021-06-06T09:34:45Z</time>
      </trkpt>
      <trkpt lat="42.82241" lon="2.43595">
        <ele>317.4</ele>
        <time>2021-06-06T09:34:49Z</time>
      </trkpt>
      <trkpt lat="42.82247" lon="2.43585">
        <ele>318</ele>
        <time>2021-06-06T09:34:53Z</time>
      </trkpt>
      <trkpt lat="42.82252" lon="2.43575">
        <ele>318.4</ele>
        <time>2021-06-06T09:34:57Z</time>
      </trkpt>
      <trkpt lat="42.82258" lon="2.43565">
        <ele>318.6</ele>
        <time>2021-06-06T09:35:01Z</time>
      </trkpt>
      <trkpt lat="42.82263" lon="2.43555">
        <ele>319</ele>
        <time>2021-06-06T09:35:05Z</time>
      </trkpt>
      <trkpt lat="42.82269" lon="2.43546">
        <ele>319.6</ele>
        <time>2021-06-06T09:35:09Z</time>
      </trkpt>
      <trkpt lat="42.82272" lon="2.43539">
        <ele>320</ele>
        <time>2021-06-06T09:35:12Z</time>
      </trkpt>
      <trkpt lat="42.82277" lon="2.4353">
        <ele>320.2</ele>
        <time>2021-06-06T09:35:16Z</time>
      </trkpt>
      <trkpt lat="42.82283" lon="2.43519">
        <ele>320.8</ele>
        <time>2021-06-06T09:35:20Z</time>
      </trkpt>
      <trkpt lat="42.82288" lon="2.4351">
        <ele>320.8</ele>
        <time>2021-06-06T09:35:24Z</time>
      </trkpt>
      <trkpt lat="42.82293" lon="2.435">
        <ele>321.4</ele>
        <time>2021-06-06T09:35:28Z</time>
      </trkpt>
      <trkpt lat="42.82298" lon="2.43491">
        <ele>321.6</ele>
        <time>2021-06-06T09:35:32Z</time>
      </trkpt>
      <trkpt lat="42.82303" lon="2.43482">
        <ele>322.8</ele>
        <time>2021-06-06T09:35:36Z</time>
      </trkpt>
      <trkpt lat="42.82306" lon="2.43477">
        <ele>323</ele>
        <time>2021-06-06T09:35:39Z</time>
      </trkpt>
      <trkpt lat="42.82311" lon="2.43468">
        <ele>322.8</ele>
        <time>2021-06-06T09:35:43Z</time>
      </trkpt>
      <trkpt lat="42.82317" lon="2.43459">
        <ele>323.2</ele>
        <time>2021-06-06T09:35:47Z</time>
      </trkpt>
      <trkpt lat="42.82322" lon="2.4345">
        <ele>323.8</ele>
        <time>2021-06-06T09:35:51Z</time>
      </trkpt>
      <trkpt lat="42.82328" lon="2.43438">
        <ele>324.6</ele>
        <time>2021-06-06T09:35:55Z</time>
      </trkpt>
      <trkpt lat="42.82331" lon="2.43431">
        <ele>324.8</ele>
        <time>2021-06-06T09:35:59Z</time>
      </trkpt>
      <trkpt lat="42.82339" lon="2.43422">
        <ele>325</ele>
        <time>2021-06-06T09:36:03Z</time>
      </trkpt>
      <trkpt lat="42.82344" lon="2.43412">
        <ele>325.4</ele>
        <time>2021-06-06T09:36:06Z</time>
      </trkpt>
      <trkpt lat="42.82349" lon="2.43403">
        <ele>325.8</ele>
        <time>2021-06-06T09:36:10Z</time>
      </trkpt>
      <trkpt lat="42.82355" lon="2.43393">
        <ele>325.6</ele>
        <time>2021-06-06T09:36:14Z</time>
      </trkpt>
      <trkpt lat="42.8236" lon="2.43384">
        <ele>325.6</ele>
        <time>2021-06-06T09:36:18Z</time>
      </trkpt>
      <trkpt lat="42.82366" lon="2.43373">
        <ele>327.2</ele>
        <time>2021-06-06T09:36:22Z</time>
      </trkpt>
      <trkpt lat="42.82373" lon="2.43362">
        <ele>328.4</ele>
        <time>2021-06-06T09:36:26Z</time>
      </trkpt>
      <trkpt lat="42.82382" lon="2.43353">
        <ele>329.2</ele>
        <time>2021-06-06T09:36:30Z</time>
      </trkpt>
      <trkpt lat="42.82388" lon="2.43348">
        <ele>329</ele>
        <time>2021-06-06T09:36:33Z</time>
      </trkpt>
      <trkpt lat="42.82396" lon="2.43344">
        <ele>328.4</ele>
        <time>2021-06-06T09:36:37Z</time>
      </trkpt>
      <trkpt lat="42.82405" lon="2.4334">
        <ele>328</ele>
        <time>2021-06-06T09:36:41Z</time>
      </trkpt>
      <trkpt lat="42.82412" lon="2.43336">
        <ele>327.6</ele>
        <time>2021-06-06T09:36:45Z</time>
      </trkpt>
      <trkpt lat="42.82421" lon="2.43333">
        <ele>327.6</ele>
        <time>2021-06-06T09:36:49Z</time>
      </trkpt>
      <trkpt lat="42.82429" lon="2.43328">
        <ele>328.6</ele>
        <time>2021-06-06T09:36:53Z</time>
      </trkpt>
      <trkpt lat="42.82435" lon="2.43326">
        <ele>327.4</ele>
        <time>2021-06-06T09:36:56Z</time>
      </trkpt>
      <trkpt lat="42.82442" lon="2.43322">
        <ele>329</ele>
        <time>2021-06-06T09:37:00Z</time>
      </trkpt>
      <trkpt lat="42.8245" lon="2.43318">
        <ele>330</ele>
        <time>2021-06-06T09:37:04Z</time>
      </trkpt>
      <trkpt lat="42.82457" lon="2.43318">
        <ele>330.2</ele>
        <time>2021-06-06T09:37:08Z</time>
      </trkpt>
      <trkpt lat="42.82463" lon="2.4332">
        <ele>331</ele>
        <time>2021-06-06T09:37:12Z</time>
      </trkpt>
      <trkpt lat="42.82471" lon="2.43318">
        <ele>331.6</ele>
        <time>2021-06-06T09:37:16Z</time>
      </trkpt>
      <trkpt lat="42.82479" lon="2.43315">
        <ele>332</ele>
        <time>2021-06-06T09:37:20Z</time>
      </trkpt>
      <trkpt lat="42.82481" lon="2.43314">
        <ele>331.6</ele>
        <time>2021-06-06T09:37:23Z</time>
      </trkpt>
      <trkpt lat="42.82478" lon="2.43309">
        <ele>331.6</ele>
        <time>2021-06-06T09:37:27Z</time>
      </trkpt>
      <trkpt lat="42.82478" lon="2.43308">
        <ele>331</ele>
        <time>2021-06-06T09:37:31Z</time>
      </trkpt>
      <trkpt lat="42.82464" lon="2.43307">
        <ele>332</ele>
        <time>2021-06-06T09:50:21Z</time>
      </trkpt>
      <trkpt lat="42.82457" lon="2.43311">
        <ele>331.6</ele>
        <time>2021-06-06T09:50:25Z</time>
      </trkpt>
      <trkpt lat="42.82451" lon="2.43306">
        <ele>330</ele>
        <time>2021-06-06T09:50:29Z</time>
      </trkpt>
      <trkpt lat="42.82451" lon="2.43289">
        <ele>329.4</ele>
        <time>2021-06-06T09:50:33Z</time>
      </trkpt>
      <trkpt lat="42.82447" lon="2.43273">
        <ele>328.4</ele>
        <time>2021-06-06T09:50:36Z</time>
      </trkpt>
      <trkpt lat="42.82437" lon="2.43244">
        <ele>328</ele>
        <time>2021-06-06T09:50:40Z</time>
      </trkpt>
      <trkpt lat="42.82429" lon="2.43211">
        <ele>327</ele>
        <time>2021-06-06T09:50:44Z</time>
      </trkpt>
      <trkpt lat="42.82437" lon="2.43191">
        <ele>326.4</ele>
        <time>2021-06-06T09:50:48Z</time>
      </trkpt>
      <trkpt lat="42.82445" lon="2.43178">
        <ele>328</ele>
        <time>2021-06-06T09:50:52Z</time>
      </trkpt>
      <trkpt lat="42.82452" lon="2.43167">
        <ele>328.6</ele>
        <time>2021-06-06T09:50:56Z</time>
      </trkpt>
      <trkpt lat="42.82457" lon="2.43157">
        <ele>329</ele>
        <time>2021-06-06T09:51:00Z</time>
      </trkpt>
      <trkpt lat="42.8246" lon="2.43149">
        <ele>329</ele>
        <time>2021-06-06T09:51:03Z</time>
      </trkpt>
      <trkpt lat="42.82462" lon="2.43138">
        <ele>330.2</ele>
        <time>2021-06-06T09:51:07Z</time>
      </trkpt>
      <trkpt lat="42.82463" lon="2.43126">
        <ele>330.8</ele>
        <time>2021-06-06T09:51:11Z</time>
      </trkpt>
      <trkpt lat="42.82464" lon="2.43116">
        <ele>331.2</ele>
        <time>2021-06-06T09:51:15Z</time>
      </trkpt>
      <trkpt lat="42.82466" lon="2.43105">
        <ele>331</ele>
        <time>2021-06-06T09:51:19Z</time>
      </trkpt>
      <trkpt lat="42.82468" lon="2.43093">
        <ele>331.4</ele>
        <time>2021-06-06T09:51:23Z</time>
      </trkpt>
      <trkpt lat="42.82468" lon="2.43081">
        <ele>332.2</ele>
        <time>2021-06-06T09:51:27Z</time>
      </trkpt>
      <trkpt lat="42.82469" lon="2.43074">
        <ele>332.4</ele>
        <time>2021-06-06T09:51:30Z</time>
      </trkpt>
      <trkpt lat="42.82469" lon="2.43065">
        <ele>332.8</ele>
        <time>2021-06-06T09:51:34Z</time>
      </trkpt>
      <trkpt lat="42.82469" lon="2.43054">
        <ele>334</ele>
        <time>2021-06-06T09:51:38Z</time>
      </trkpt>
      <trkpt lat="42.82469" lon="2.43045">
        <ele>334</ele>
        <time>2021-06-06T09:51:42Z</time>
      </trkpt>
      <trkpt lat="42.82469" lon="2.43036">
        <ele>334.2</ele>
        <time>2021-06-06T09:51:46Z</time>
      </trkpt>
      <trkpt lat="42.82469" lon="2.43028">
        <ele>334.8</ele>
        <time>2021-06-06T09:51:50Z</time>
      </trkpt>
      <trkpt lat="42.82469" lon="2.43022">
        <ele>335</ele>
        <time>2021-06-06T09:51:53Z</time>
      </trkpt>
      <trkpt lat="42.82469" lon="2.43013">
        <ele>335.2</ele>
        <time>2021-06-06T09:51:57Z</time>
      </trkpt>
      <trkpt lat="42.82468" lon="2.43003">
        <ele>335</ele>
        <time>2021-06-06T09:52:01Z</time>
      </trkpt>
      <trkpt lat="42.82469" lon="2.42995">
        <ele>336.2</ele>
        <time>2021-06-06T09:52:05Z</time>
      </trkpt>
      <trkpt lat="42.82469" lon="2.42987">
        <ele>336.2</ele>
        <time>2021-06-06T09:52:09Z</time>
      </trkpt>
      <trkpt lat="42.82469" lon="2.42978">
        <ele>336</ele>
        <time>2021-06-06T09:52:13Z</time>
      </trkpt>
      <trkpt lat="42.82468" lon="2.42969">
        <ele>337.4</ele>
        <time>2021-06-06T09:52:17Z</time>
      </trkpt>
      <trkpt lat="42.82468" lon="2.42961">
        <ele>338.2</ele>
        <time>2021-06-06T09:52:20Z</time>
      </trkpt>
      <trkpt lat="42.82467" lon="2.42953">
        <ele>339</ele>
        <time>2021-06-06T09:52:24Z</time>
      </trkpt>
      <trkpt lat="42.82467" lon="2.42943">
        <ele>339.2</ele>
        <time>2021-06-06T09:52:28Z</time>
      </trkpt>
      <trkpt lat="42.82468" lon="2.42934">
        <ele>339.4</ele>
        <time>2021-06-06T09:52:32Z</time>
      </trkpt>
      <trkpt lat="42.8247" lon="2.42925">
        <ele>339.6</ele>
        <time>2021-06-06T09:52:36Z</time>
      </trkpt>
      <trkpt lat="42.82471" lon="2.42915">
        <ele>339.4</ele>
        <time>2021-06-06T09:52:40Z</time>
      </trkpt>
      <trkpt lat="42.82474" lon="2.42906">
        <ele>339.2</ele>
        <time>2021-06-06T09:52:44Z</time>
      </trkpt>
      <trkpt lat="42.82476" lon="2.429">
        <ele>340.6</ele>
        <time>2021-06-06T09:52:47Z</time>
      </trkpt>
      <trkpt lat="42.82478" lon="2.42892">
        <ele>341.8</ele>
        <time>2021-06-06T09:52:51Z</time>
      </trkpt>
      <trkpt lat="42.82481" lon="2.42884">
        <ele>340.8</ele>
        <time>2021-06-06T09:52:55Z</time>
      </trkpt>
      <trkpt lat="42.82484" lon="2.42876">
        <ele>341.2</ele>
        <time>2021-06-06T09:52:59Z</time>
      </trkpt>
      <trkpt lat="42.82487" lon="2.42868">
        <ele>341.8</ele>
        <time>2021-06-06T09:53:03Z</time>
      </trkpt>
      <trkpt lat="42.82489" lon="2.4286">
        <ele>343.2</ele>
        <time>2021-06-06T09:53:07Z</time>
      </trkpt>
      <trkpt lat="42.82491" lon="2.42851">
        <ele>343.2</ele>
        <time>2021-06-06T09:53:11Z</time>
      </trkpt>
      <trkpt lat="42.82493" lon="2.42846">
        <ele>343.6</ele>
        <time>2021-06-06T09:53:14Z</time>
      </trkpt>
      <trkpt lat="42.82494" lon="2.42839">
        <ele>343.6</ele>
        <time>2021-06-06T09:53:18Z</time>
      </trkpt>
      <trkpt lat="42.82498" lon="2.42833">
        <ele>344.6</ele>
        <time>2021-06-06T09:53:22Z</time>
      </trkpt>
      <trkpt lat="42.825" lon="2.42826">
        <ele>344.6</ele>
        <time>2021-06-06T09:53:26Z</time>
      </trkpt>
      <trkpt lat="42.82501" lon="2.4282">
        <ele>344.6</ele>
        <time>2021-06-06T09:53:30Z</time>
      </trkpt>
      <trkpt lat="42.82502" lon="2.42814">
        <ele>344.6</ele>
        <time>2021-06-06T09:53:34Z</time>
      </trkpt>
      <trkpt lat="42.82503" lon="2.42808">
        <ele>345</ele>
        <time>2021-06-06T09:53:38Z</time>
      </trkpt>
      <trkpt lat="42.82503" lon="2.42803">
        <ele>345.4</ele>
        <time>2021-06-06T09:53:41Z</time>
      </trkpt>
      <trkpt lat="42.82503" lon="2.42796">
        <ele>346.8</ele>
        <time>2021-06-06T09:53:45Z</time>
      </trkpt>
      <trkpt lat="42.82504" lon="2.4279">
        <ele>346.2</ele>
        <time>2021-06-06T09:53:49Z</time>
      </trkpt>
      <trkpt lat="42.82504" lon="2.42783">
        <ele>347.6</ele>
        <time>2021-06-06T09:53:53Z</time>
      </trkpt>
      <trkpt lat="42.82505" lon="2.42777">
        <ele>347.4</ele>
        <time>2021-06-06T09:53:57Z</time>
      </trkpt>
      <trkpt lat="42.82507" lon="2.42772">
        <ele>347.2</ele>
        <time>2021-06-06T09:54:01Z</time>
      </trkpt>
      <trkpt lat="42.82508" lon="2.42767">
        <ele>348.8</ele>
        <time>2021-06-06T09:54:05Z</time>
      </trkpt>
      <trkpt lat="42.82511" lon="2.42764">
        <ele>351.8</ele>
        <time>2021-06-06T09:54:08Z</time>
      </trkpt>
      <trkpt lat="42.82513" lon="2.42757">
        <ele>349.6</ele>
        <time>2021-06-06T09:54:12Z</time>
      </trkpt>
      <trkpt lat="42.82515" lon="2.4275">
        <ele>348.8</ele>
        <time>2021-06-06T09:54:16Z</time>
      </trkpt>
      <trkpt lat="42.82517" lon="2.42741">
        <ele>349.4</ele>
        <time>2021-06-06T09:54:20Z</time>
      </trkpt>
      <trkpt lat="42.82519" lon="2.42733">
        <ele>348.8</ele>
        <time>2021-06-06T09:54:24Z</time>
      </trkpt>
      <trkpt lat="42.82521" lon="2.42725">
        <ele>348.6</ele>
        <time>2021-06-06T09:54:28Z</time>
      </trkpt>
      <trkpt lat="42.82522" lon="2.42719">
        <ele>350.2</ele>
        <time>2021-06-06T09:54:31Z</time>
      </trkpt>
      <trkpt lat="42.82525" lon="2.4271">
        <ele>350</ele>
        <time>2021-06-06T09:54:35Z</time>
      </trkpt>
      <trkpt lat="42.82527" lon="2.42701">
        <ele>350.2</ele>
        <time>2021-06-06T09:54:39Z</time>
      </trkpt>
      <trkpt lat="42.82528" lon="2.42692">
        <ele>351.4</ele>
        <time>2021-06-06T09:54:43Z</time>
      </trkpt>
      <trkpt lat="42.8253" lon="2.42683">
        <ele>351</ele>
        <time>2021-06-06T09:54:47Z</time>
      </trkpt>
      <trkpt lat="42.82531" lon="2.42674">
        <ele>351.2</ele>
        <time>2021-06-06T09:54:51Z</time>
      </trkpt>
      <trkpt lat="42.82533" lon="2.42665">
        <ele>352.2</ele>
        <time>2021-06-06T09:54:55Z</time>
      </trkpt>
      <trkpt lat="42.82534" lon="2.42659">
        <ele>352.8</ele>
        <time>2021-06-06T09:54:58Z</time>
      </trkpt>
      <trkpt lat="42.82536" lon="2.4265">
        <ele>353</ele>
        <time>2021-06-06T09:55:02Z</time>
      </trkpt>
      <trkpt lat="42.82537" lon="2.42642">
        <ele>352.8</ele>
        <time>2021-06-06T09:55:06Z</time>
      </trkpt>
      <trkpt lat="42.8254" lon="2.42633">
        <ele>352.8</ele>
        <time>2021-06-06T09:55:10Z</time>
      </trkpt>
      <trkpt lat="42.82542" lon="2.42626">
        <ele>353.6</ele>
        <time>2021-06-06T09:55:14Z</time>
      </trkpt>
      <trkpt lat="42.82544" lon="2.42619">
        <ele>354.6</ele>
        <time>2021-06-06T09:55:18Z</time>
      </trkpt>
      <trkpt lat="42.82548" lon="2.42611">
        <ele>354</ele>
        <time>2021-06-06T09:55:22Z</time>
      </trkpt>
      <trkpt lat="42.82549" lon="2.42605">
        <ele>353.8</ele>
        <time>2021-06-06T09:55:25Z</time>
      </trkpt>
      <trkpt lat="42.82552" lon="2.42598">
        <ele>353.4</ele>
        <time>2021-06-06T09:55:29Z</time>
      </trkpt>
      <trkpt lat="42.82555" lon="2.4259">
        <ele>355</ele>
        <time>2021-06-06T09:55:33Z</time>
      </trkpt>
      <trkpt lat="42.8256" lon="2.42583">
        <ele>355.6</ele>
        <time>2021-06-06T09:55:37Z</time>
      </trkpt>
      <trkpt lat="42.82564" lon="2.42576">
        <ele>356</ele>
        <time>2021-06-06T09:55:41Z</time>
      </trkpt>
      <trkpt lat="42.82568" lon="2.42569">
        <ele>356</ele>
        <time>2021-06-06T09:55:45Z</time>
      </trkpt>
      <trkpt lat="42.82572" lon="2.42563">
        <ele>356.6</ele>
        <time>2021-06-06T09:55:49Z</time>
      </trkpt>
      <trkpt lat="42.82575" lon="2.42558">
        <ele>357.6</ele>
        <time>2021-06-06T09:55:52Z</time>
      </trkpt>
      <trkpt lat="42.8258" lon="2.42551">
        <ele>357.8</ele>
        <time>2021-06-06T09:55:56Z</time>
      </trkpt>
      <trkpt lat="42.82584" lon="2.42542">
        <ele>358</ele>
        <time>2021-06-06T09:56:00Z</time>
      </trkpt>
      <trkpt lat="42.82588" lon="2.42534">
        <ele>358</ele>
        <time>2021-06-06T09:56:04Z</time>
      </trkpt>
      <trkpt lat="42.82592" lon="2.42526">
        <ele>358.8</ele>
        <time>2021-06-06T09:56:08Z</time>
      </trkpt>
      <trkpt lat="42.82595" lon="2.42517">
        <ele>359</ele>
        <time>2021-06-06T09:56:12Z</time>
      </trkpt>
      <trkpt lat="42.82599" lon="2.42508">
        <ele>360.2</ele>
        <time>2021-06-06T09:56:16Z</time>
      </trkpt>
      <trkpt lat="42.82603" lon="2.42501">
        <ele>360.4</ele>
        <time>2021-06-06T09:56:19Z</time>
      </trkpt>
      <trkpt lat="42.82608" lon="2.42491">
        <ele>360.4</ele>
        <time>2021-06-06T09:56:23Z</time>
      </trkpt>
      <trkpt lat="42.82614" lon="2.42484">
        <ele>360.6</ele>
        <time>2021-06-06T09:56:27Z</time>
      </trkpt>
      <trkpt lat="42.82622" lon="2.4248">
        <ele>361.2</ele>
        <time>2021-06-06T09:56:31Z</time>
      </trkpt>
      <trkpt lat="42.82629" lon="2.42479">
        <ele>361.8</ele>
        <time>2021-06-06T09:56:35Z</time>
      </trkpt>
      <trkpt lat="42.82637" lon="2.42478">
        <ele>362</ele>
        <time>2021-06-06T09:56:39Z</time>
      </trkpt>
      <trkpt lat="42.82645" lon="2.42476">
        <ele>362.2</ele>
        <time>2021-06-06T09:56:43Z</time>
      </trkpt>
      <trkpt lat="42.8265" lon="2.42473">
        <ele>362.8</ele>
        <time>2021-06-06T09:56:46Z</time>
      </trkpt>
      <trkpt lat="42.82657" lon="2.42465">
        <ele>362.8</ele>
        <time>2021-06-06T09:56:50Z</time>
      </trkpt>
      <trkpt lat="42.8266" lon="2.42453">
        <ele>362.8</ele>
        <time>2021-06-06T09:56:54Z</time>
      </trkpt>
      <trkpt lat="42.82661" lon="2.42438">
        <ele>363.2</ele>
        <time>2021-06-06T09:56:58Z</time>
      </trkpt>
      <trkpt lat="42.82661" lon="2.42423">
        <ele>363.8</ele>
        <time>2021-06-06T09:57:02Z</time>
      </trkpt>
      <trkpt lat="42.82661" lon="2.42407">
        <ele>364.4</ele>
        <time>2021-06-06T09:57:06Z</time>
      </trkpt>
      <trkpt lat="42.82661" lon="2.42395">
        <ele>364.6</ele>
        <time>2021-06-06T09:57:09Z</time>
      </trkpt>
      <trkpt lat="42.82663" lon="2.42378">
        <ele>365</ele>
        <time>2021-06-06T09:57:13Z</time>
      </trkpt>
      <trkpt lat="42.82664" lon="2.42362">
        <ele>365.4</ele>
        <time>2021-06-06T09:57:17Z</time>
      </trkpt>
      <trkpt lat="42.82666" lon="2.42345">
        <ele>365.4</ele>
        <time>2021-06-06T09:57:21Z</time>
      </trkpt>
      <trkpt lat="42.82669" lon="2.42327">
        <ele>365</ele>
        <time>2021-06-06T09:57:25Z</time>
      </trkpt>
      <trkpt lat="42.82673" lon="2.4231">
        <ele>365.2</ele>
        <time>2021-06-06T09:57:29Z</time>
      </trkpt>
      <trkpt lat="42.82678" lon="2.42294">
        <ele>365.8</ele>
        <time>2021-06-06T09:57:33Z</time>
      </trkpt>
      <trkpt lat="42.82683" lon="2.42284">
        <ele>365.4</ele>
        <time>2021-06-06T09:57:36Z</time>
      </trkpt>
      <trkpt lat="42.82691" lon="2.42273">
        <ele>366.2</ele>
        <time>2021-06-06T09:57:40Z</time>
      </trkpt>
      <trkpt lat="42.82699" lon="2.42263">
        <ele>367</ele>
        <time>2021-06-06T09:57:44Z</time>
      </trkpt>
      <trkpt lat="42.82707" lon="2.42254">
        <ele>367.8</ele>
        <time>2021-06-06T09:57:48Z</time>
      </trkpt>
      <trkpt lat="42.82714" lon="2.42244">
        <ele>368.4</ele>
        <time>2021-06-06T09:57:52Z</time>
      </trkpt>
      <trkpt lat="42.82722" lon="2.42235">
        <ele>368.4</ele>
        <time>2021-06-06T09:57:56Z</time>
      </trkpt>
      <trkpt lat="42.82729" lon="2.42225">
        <ele>369.2</ele>
        <time>2021-06-06T09:58:00Z</time>
      </trkpt>
      <trkpt lat="42.82735" lon="2.42219">
        <ele>369.6</ele>
        <time>2021-06-06T09:58:03Z</time>
      </trkpt>
      <trkpt lat="42.82741" lon="2.4221">
        <ele>370</ele>
        <time>2021-06-06T09:58:07Z</time>
      </trkpt>
      <trkpt lat="42.82748" lon="2.42201">
        <ele>371.4</ele>
        <time>2021-06-06T09:58:11Z</time>
      </trkpt>
      <trkpt lat="42.82755" lon="2.42192">
        <ele>371.8</ele>
        <time>2021-06-06T09:58:15Z</time>
      </trkpt>
      <trkpt lat="42.82762" lon="2.42182">
        <ele>371.8</ele>
        <time>2021-06-06T09:58:19Z</time>
      </trkpt>
      <trkpt lat="42.82767" lon="2.42172">
        <ele>371.6</ele>
        <time>2021-06-06T09:58:23Z</time>
      </trkpt>
      <trkpt lat="42.8277" lon="2.42161">
        <ele>371.8</ele>
        <time>2021-06-06T09:58:27Z</time>
      </trkpt>
      <trkpt lat="42.82771" lon="2.42156">
        <ele>372</ele>
        <time>2021-06-06T09:58:30Z</time>
      </trkpt>
      <trkpt lat="42.82767" lon="2.42152">
        <ele>372.2</ele>
        <time>2021-06-06T09:58:34Z</time>
      </trkpt>
      <trkpt lat="42.82762" lon="2.42143">
        <ele>372.4</ele>
        <time>2021-06-06T09:58:38Z</time>
      </trkpt>
      <trkpt lat="42.82755" lon="2.4213">
        <ele>372.8</ele>
        <time>2021-06-06T09:58:42Z</time>
      </trkpt>
      <trkpt lat="42.82747" lon="2.42117">
        <ele>372.4</ele>
        <time>2021-06-06T09:58:46Z</time>
      </trkpt>
      <trkpt lat="42.8274" lon="2.421">
        <ele>371.6</ele>
        <time>2021-06-06T09:58:50Z</time>
      </trkpt>
      <trkpt lat="42.82728" lon="2.42086">
        <ele>371</ele>
        <time>2021-06-06T09:58:54Z</time>
      </trkpt>
      <trkpt lat="42.82716" lon="2.42081">
        <ele>371.2</ele>
        <time>2021-06-06T09:58:57Z</time>
      </trkpt>
      <trkpt lat="42.82701" lon="2.42076">
        <ele>372</ele>
        <time>2021-06-06T09:59:01Z</time>
      </trkpt>
      <trkpt lat="42.82688" lon="2.4206">
        <ele>371.8</ele>
        <time>2021-06-06T09:59:05Z</time>
      </trkpt>
      <trkpt lat="42.82681" lon="2.42042">
        <ele>372.6</ele>
        <time>2021-06-06T09:59:09Z</time>
      </trkpt>
      <trkpt lat="42.82676" lon="2.42023">
        <ele>372.4</ele>
        <time>2021-06-06T09:59:13Z</time>
      </trkpt>
      <trkpt lat="42.8267" lon="2.42008">
        <ele>372.2</ele>
        <time>2021-06-06T09:59:17Z</time>
      </trkpt>
      <trkpt lat="42.82666" lon="2.41996">
        <ele>372.4</ele>
        <time>2021-06-06T09:59:20Z</time>
      </trkpt>
      <trkpt lat="42.82662" lon="2.41983">
        <ele>373</ele>
        <time>2021-06-06T09:59:24Z</time>
      </trkpt>
      <trkpt lat="42.82657" lon="2.4197">
        <ele>373.6</ele>
        <time>2021-06-06T09:59:28Z</time>
      </trkpt>
      <trkpt lat="42.82653" lon="2.41957">
        <ele>374.2</ele>
        <time>2021-06-06T09:59:32Z</time>
      </trkpt>
      <trkpt lat="42.82649" lon="2.41944">
        <ele>374.6</ele>
        <time>2021-06-06T09:59:36Z</time>
      </trkpt>
      <trkpt lat="42.82644" lon="2.41932">
        <ele>375.4</ele>
        <time>2021-06-06T09:59:40Z</time>
      </trkpt>
      <trkpt lat="42.82639" lon="2.4192">
        <ele>376</ele>
        <time>2021-06-06T09:59:44Z</time>
      </trkpt>
      <trkpt lat="42.82636" lon="2.41912">
        <ele>376.4</ele>
        <time>2021-06-06T09:59:47Z</time>
      </trkpt>
      <trkpt lat="42.82633" lon="2.419">
        <ele>376.8</ele>
        <time>2021-06-06T09:59:51Z</time>
      </trkpt>
      <trkpt lat="42.82631" lon="2.41887">
        <ele>377.2</ele>
        <time>2021-06-06T09:59:55Z</time>
      </trkpt>
      <trkpt lat="42.82631" lon="2.41874">
        <ele>378.2</ele>
        <time>2021-06-06T09:59:59Z</time>
      </trkpt>
      <trkpt lat="42.82628" lon="2.41863">
        <ele>379.2</ele>
        <time>2021-06-06T10:00:03Z</time>
      </trkpt>
      <trkpt lat="42.82625" lon="2.41853">
        <ele>380</ele>
        <time>2021-06-06T10:00:07Z</time>
      </trkpt>
      <trkpt lat="42.8262" lon="2.41843">
        <ele>379.6</ele>
        <time>2021-06-06T10:00:11Z</time>
      </trkpt>
      <trkpt lat="42.82617" lon="2.41836">
        <ele>379.8</ele>
        <time>2021-06-06T10:00:14Z</time>
      </trkpt>
      <trkpt lat="42.82614" lon="2.41826">
        <ele>380</ele>
        <time>2021-06-06T10:00:18Z</time>
      </trkpt>
      <trkpt lat="42.8261" lon="2.41817">
        <ele>379.6</ele>
        <time>2021-06-06T10:00:22Z</time>
      </trkpt>
      <trkpt lat="42.82607" lon="2.41808">
        <ele>380.2</ele>
        <time>2021-06-06T10:00:26Z</time>
      </trkpt>
      <trkpt lat="42.82604" lon="2.418">
        <ele>380.8</ele>
        <time>2021-06-06T10:00:30Z</time>
      </trkpt>
      <trkpt lat="42.826" lon="2.4179">
        <ele>381.4</ele>
        <time>2021-06-06T10:00:34Z</time>
      </trkpt>
      <trkpt lat="42.82596" lon="2.4178">
        <ele>381.8</ele>
        <time>2021-06-06T10:00:38Z</time>
      </trkpt>
      <trkpt lat="42.82594" lon="2.41772">
        <ele>382.2</ele>
        <time>2021-06-06T10:00:41Z</time>
      </trkpt>
      <trkpt lat="42.8259" lon="2.41761">
        <ele>382.4</ele>
        <time>2021-06-06T10:00:45Z</time>
      </trkpt>
      <trkpt lat="42.82586" lon="2.41751">
        <ele>382.8</ele>
        <time>2021-06-06T10:00:49Z</time>
      </trkpt>
      <trkpt lat="42.82583" lon="2.41741">
        <ele>383.2</ele>
        <time>2021-06-06T10:00:53Z</time>
      </trkpt>
      <trkpt lat="42.82579" lon="2.41731">
        <ele>383.8</ele>
        <time>2021-06-06T10:00:57Z</time>
      </trkpt>
      <trkpt lat="42.82575" lon="2.41721">
        <ele>384.4</ele>
        <time>2021-06-06T10:01:01Z</time>
      </trkpt>
      <trkpt lat="42.82572" lon="2.41711">
        <ele>384.2</ele>
        <time>2021-06-06T10:01:05Z</time>
      </trkpt>
      <trkpt lat="42.82569" lon="2.41704">
        <ele>384.2</ele>
        <time>2021-06-06T10:01:08Z</time>
      </trkpt>
      <trkpt lat="42.82565" lon="2.41693">
        <ele>384.8</ele>
        <time>2021-06-06T10:01:12Z</time>
      </trkpt>
      <trkpt lat="42.82561" lon="2.41683">
        <ele>386</ele>
        <time>2021-06-06T10:01:16Z</time>
      </trkpt>
      <trkpt lat="42.82557" lon="2.41672">
        <ele>386.2</ele>
        <time>2021-06-06T10:01:20Z</time>
      </trkpt>
      <trkpt lat="42.82554" lon="2.41662">
        <ele>386.4</ele>
        <time>2021-06-06T10:01:24Z</time>
      </trkpt>
      <trkpt lat="42.82551" lon="2.41652">
        <ele>387</ele>
        <time>2021-06-06T10:01:28Z</time>
      </trkpt>
      <trkpt lat="42.82548" lon="2.41642">
        <ele>387.8</ele>
        <time>2021-06-06T10:01:32Z</time>
      </trkpt>
      <trkpt lat="42.82545" lon="2.41635">
        <ele>388.2</ele>
        <time>2021-06-06T10:01:35Z</time>
      </trkpt>
      <trkpt lat="42.82541" lon="2.41625">
        <ele>388.4</ele>
        <time>2021-06-06T10:01:39Z</time>
      </trkpt>
      <trkpt lat="42.82535" lon="2.41616">
        <ele>388.4</ele>
        <time>2021-06-06T10:01:43Z</time>
      </trkpt>
      <trkpt lat="42.82531" lon="2.41606">
        <ele>389.2</ele>
        <time>2021-06-06T10:01:47Z</time>
      </trkpt>
      <trkpt lat="42.82527" lon="2.41596">
        <ele>389.6</ele>
        <time>2021-06-06T10:01:51Z</time>
      </trkpt>
      <trkpt lat="42.82524" lon="2.41587">
        <ele>390</ele>
        <time>2021-06-06T10:01:55Z</time>
      </trkpt>
      <trkpt lat="42.82523" lon="2.4158">
        <ele>390.4</ele>
        <time>2021-06-06T10:01:58Z</time>
      </trkpt>
      <trkpt lat="42.82521" lon="2.4157">
        <ele>391.2</ele>
        <time>2021-06-06T10:02:02Z</time>
      </trkpt>
      <trkpt lat="42.8252" lon="2.4156">
        <ele>391.2</ele>
        <time>2021-06-06T10:02:06Z</time>
      </trkpt>
      <trkpt lat="42.82517" lon="2.41549">
        <ele>392</ele>
        <time>2021-06-06T10:02:10Z</time>
      </trkpt>
      <trkpt lat="42.82515" lon="2.4154">
        <ele>391.6</ele>
        <time>2021-06-06T10:02:14Z</time>
      </trkpt>
      <trkpt lat="42.82512" lon="2.4153">
        <ele>391.2</ele>
        <time>2021-06-06T10:02:18Z</time>
      </trkpt>
      <trkpt lat="42.8251" lon="2.41519">
        <ele>392</ele>
        <time>2021-06-06T10:02:22Z</time>
      </trkpt>
      <trkpt lat="42.8251" lon="2.41511">
        <ele>392.4</ele>
        <time>2021-06-06T10:02:25Z</time>
      </trkpt>
      <trkpt lat="42.82511" lon="2.415">
        <ele>392.2</ele>
        <time>2021-06-06T10:02:29Z</time>
      </trkpt>
      <trkpt lat="42.82513" lon="2.4149">
        <ele>392</ele>
        <time>2021-06-06T10:02:33Z</time>
      </trkpt>
      <trkpt lat="42.82514" lon="2.4148">
        <ele>391.6</ele>
        <time>2021-06-06T10:02:37Z</time>
      </trkpt>
      <trkpt lat="42.82516" lon="2.41471">
        <ele>393.6</ele>
        <time>2021-06-06T10:02:41Z</time>
      </trkpt>
      <trkpt lat="42.82517" lon="2.4146">
        <ele>393.6</ele>
        <time>2021-06-06T10:02:45Z</time>
      </trkpt>
      <trkpt lat="42.82516" lon="2.4145">
        <ele>394.6</ele>
        <time>2021-06-06T10:02:49Z</time>
      </trkpt>
      <trkpt lat="42.82515" lon="2.41443">
        <ele>394.8</ele>
        <time>2021-06-06T10:02:52Z</time>
      </trkpt>
      <trkpt lat="42.82514" lon="2.41432">
        <ele>395.4</ele>
        <time>2021-06-06T10:02:56Z</time>
      </trkpt>
      <trkpt lat="42.82511" lon="2.41422">
        <ele>396.4</ele>
        <time>2021-06-06T10:03:00Z</time>
      </trkpt>
      <trkpt lat="42.82508" lon="2.41412">
        <ele>396.4</ele>
        <time>2021-06-06T10:03:04Z</time>
      </trkpt>
      <trkpt lat="42.82506" lon="2.41402">
        <ele>396.8</ele>
        <time>2021-06-06T10:03:08Z</time>
      </trkpt>
      <trkpt lat="42.82503" lon="2.41392">
        <ele>397.6</ele>
        <time>2021-06-06T10:03:12Z</time>
      </trkpt>
      <trkpt lat="42.82501" lon="2.41382">
        <ele>398</ele>
        <time>2021-06-06T10:03:16Z</time>
      </trkpt>
      <trkpt lat="42.825" lon="2.41374">
        <ele>398.4</ele>
        <time>2021-06-06T10:03:19Z</time>
      </trkpt>
      <trkpt lat="42.82498" lon="2.41363">
        <ele>398.8</ele>
        <time>2021-06-06T10:03:23Z</time>
      </trkpt>
      <trkpt lat="42.82497" lon="2.41352">
        <ele>399.2</ele>
        <time>2021-06-06T10:03:27Z</time>
      </trkpt>
      <trkpt lat="42.82495" lon="2.41341">
        <ele>399.6</ele>
        <time>2021-06-06T10:03:31Z</time>
      </trkpt>
      <trkpt lat="42.82493" lon="2.4133">
        <ele>401.4</ele>
        <time>2021-06-06T10:03:35Z</time>
      </trkpt>
      <trkpt lat="42.8249" lon="2.41321">
        <ele>401.2</ele>
        <time>2021-06-06T10:03:39Z</time>
      </trkpt>
      <trkpt lat="42.82485" lon="2.4131">
        <ele>401.2</ele>
        <time>2021-06-06T10:03:43Z</time>
      </trkpt>
      <trkpt lat="42.82482" lon="2.41302">
        <ele>402.2</ele>
        <time>2021-06-06T10:03:46Z</time>
      </trkpt>
      <trkpt lat="42.82477" lon="2.41292">
        <ele>402</ele>
        <time>2021-06-06T10:03:50Z</time>
      </trkpt>
      <trkpt lat="42.82472" lon="2.41282">
        <ele>403</ele>
        <time>2021-06-06T10:03:54Z</time>
      </trkpt>
      <trkpt lat="42.82468" lon="2.41273">
        <ele>403.4</ele>
        <time>2021-06-06T10:03:58Z</time>
      </trkpt>
      <trkpt lat="42.82463" lon="2.41263">
        <ele>404.2</ele>
        <time>2021-06-06T10:04:02Z</time>
      </trkpt>
      <trkpt lat="42.82459" lon="2.41254">
        <ele>404.4</ele>
        <time>2021-06-06T10:04:06Z</time>
      </trkpt>
      <trkpt lat="42.82455" lon="2.41245">
        <ele>404.6</ele>
        <time>2021-06-06T10:04:10Z</time>
      </trkpt>
      <trkpt lat="42.82452" lon="2.41239">
        <ele>404.8</ele>
        <time>2021-06-06T10:04:13Z</time>
      </trkpt>
      <trkpt lat="42.82447" lon="2.4123">
        <ele>405.2</ele>
        <time>2021-06-06T10:04:17Z</time>
      </trkpt>
      <trkpt lat="42.82444" lon="2.41221">
        <ele>405.2</ele>
        <time>2021-06-06T10:04:21Z</time>
      </trkpt>
      <trkpt lat="42.8244" lon="2.41213">
        <ele>405.6</ele>
        <time>2021-06-06T10:04:25Z</time>
      </trkpt>
      <trkpt lat="42.82435" lon="2.41205">
        <ele>406.4</ele>
        <time>2021-06-06T10:04:29Z</time>
      </trkpt>
      <trkpt lat="42.82433" lon="2.41199">
        <ele>406.4</ele>
        <time>2021-06-06T10:04:33Z</time>
      </trkpt>
      <trkpt lat="42.82431" lon="2.41194">
        <ele>406.2</ele>
        <time>2021-06-06T10:04:36Z</time>
      </trkpt>
      <trkpt lat="42.8243" lon="2.41193">
        <ele>406.2</ele>
        <time>2021-06-06T10:04:40Z</time>
      </trkpt>
      <trkpt lat="42.82435" lon="2.4118">
        <ele>407.8</ele>
        <time>2021-06-06T10:07:11Z</time>
      </trkpt>
      <trkpt lat="42.82436" lon="2.41179">
        <ele>407.8</ele>
        <time>2021-06-06T10:07:15Z</time>
      </trkpt>
      <trkpt lat="42.82436" lon="2.41179">
        <ele>408.4</ele>
        <time>2021-06-06T10:07:19Z</time>
      </trkpt>
      <trkpt lat="42.82438" lon="2.41137">
        <ele>408.8</ele>
        <time>2021-06-06T10:08:22Z</time>
      </trkpt>
      <trkpt lat="42.82446" lon="2.41115">
        <ele>407.6</ele>
        <time>2021-06-06T10:08:26Z</time>
      </trkpt>
      <trkpt lat="42.82452" lon="2.41095">
        <ele>406.4</ele>
        <time>2021-06-06T10:08:29Z</time>
      </trkpt>
      <trkpt lat="42.82458" lon="2.41064">
        <ele>404.8</ele>
        <time>2021-06-06T10:08:33Z</time>
      </trkpt>
      <trkpt lat="42.82457" lon="2.41031">
        <ele>403.2</ele>
        <time>2021-06-06T10:08:37Z</time>
      </trkpt>
      <trkpt lat="42.82456" lon="2.41008">
        <ele>401.8</ele>
        <time>2021-06-06T10:08:41Z</time>
      </trkpt>
      <trkpt lat="42.82456" lon="2.41006">
        <ele>402.4</ele>
        <time>2021-06-06T10:08:45Z</time>
      </trkpt>
      <trkpt lat="42.82455" lon="2.41005">
        <ele>401</ele>
        <time>2021-06-06T10:08:49Z</time>
      </trkpt>
      <trkpt lat="42.82451" lon="2.40953">
        <ele>399.4</ele>
        <time>2021-06-06T10:09:04Z</time>
      </trkpt>
      <trkpt lat="42.82448" lon="2.4093">
        <ele>398.4</ele>
        <time>2021-06-06T10:09:07Z</time>
      </trkpt>
      <trkpt lat="42.82444" lon="2.40897">
        <ele>397</ele>
        <time>2021-06-06T10:09:11Z</time>
      </trkpt>
      <trkpt lat="42.8244" lon="2.40862">
        <ele>396</ele>
        <time>2021-06-06T10:09:15Z</time>
      </trkpt>
      <trkpt lat="42.82437" lon="2.40827">
        <ele>394.8</ele>
        <time>2021-06-06T10:09:19Z</time>
      </trkpt>
      <trkpt lat="42.82433" lon="2.40791">
        <ele>393.6</ele>
        <time>2021-06-06T10:09:23Z</time>
      </trkpt>
      <trkpt lat="42.82428" lon="2.40754">
        <ele>392</ele>
        <time>2021-06-06T10:09:27Z</time>
      </trkpt>
      <trkpt lat="42.82422" lon="2.40714">
        <ele>390.8</ele>
        <time>2021-06-06T10:09:31Z</time>
      </trkpt>
      <trkpt lat="42.8242" lon="2.40685">
        <ele>388.6</ele>
        <time>2021-06-06T10:09:34Z</time>
      </trkpt>
      <trkpt lat="42.82415" lon="2.40643">
        <ele>387.2</ele>
        <time>2021-06-06T10:09:38Z</time>
      </trkpt>
      <trkpt lat="42.82407" lon="2.40599">
        <ele>386.2</ele>
        <time>2021-06-06T10:09:42Z</time>
      </trkpt>
      <trkpt lat="42.82393" lon="2.40555">
        <ele>384</ele>
        <time>2021-06-06T10:09:46Z</time>
      </trkpt>
      <trkpt lat="42.8236" lon="2.40541">
        <ele>383</ele>
        <time>2021-06-06T10:09:50Z</time>
      </trkpt>
      <trkpt lat="42.82327" lon="2.40548">
        <ele>382.2</ele>
        <time>2021-06-06T10:09:54Z</time>
      </trkpt>
      <trkpt lat="42.82299" lon="2.40535">
        <ele>382.2</ele>
        <time>2021-06-06T10:09:58Z</time>
      </trkpt>
      <trkpt lat="42.82291" lon="2.40512">
        <ele>381.2</ele>
        <time>2021-06-06T10:10:01Z</time>
      </trkpt>
      <trkpt lat="42.82284" lon="2.40482">
        <ele>379.8</ele>
        <time>2021-06-06T10:10:05Z</time>
      </trkpt>
      <trkpt lat="42.82277" lon="2.40452">
        <ele>379</ele>
        <time>2021-06-06T10:10:09Z</time>
      </trkpt>
      <trkpt lat="42.8227" lon="2.40422">
        <ele>377.8</ele>
        <time>2021-06-06T10:10:13Z</time>
      </trkpt>
      <trkpt lat="42.82263" lon="2.40392">
        <ele>377</ele>
        <time>2021-06-06T10:10:17Z</time>
      </trkpt>
      <trkpt lat="42.82253" lon="2.40365">
        <ele>375.8</ele>
        <time>2021-06-06T10:10:21Z</time>
      </trkpt>
      <trkpt lat="42.82243" lon="2.40345">
        <ele>374.6</ele>
        <time>2021-06-06T10:10:24Z</time>
      </trkpt>
      <trkpt lat="42.82228" lon="2.40317">
        <ele>374.2</ele>
        <time>2021-06-06T10:10:28Z</time>
      </trkpt>
      <trkpt lat="42.82214" lon="2.40292">
        <ele>373.2</ele>
        <time>2021-06-06T10:10:32Z</time>
      </trkpt>
      <trkpt lat="42.82202" lon="2.40269">
        <ele>373.4</ele>
        <time>2021-06-06T10:10:36Z</time>
      </trkpt>
      <trkpt lat="42.82191" lon="2.40249">
        <ele>371.4</ele>
        <time>2021-06-06T10:10:40Z</time>
      </trkpt>
      <trkpt lat="42.82179" lon="2.40226">
        <ele>370.6</ele>
        <time>2021-06-06T10:10:44Z</time>
      </trkpt>
      <trkpt lat="42.82177" lon="2.40196">
        <ele>369.6</ele>
        <time>2021-06-06T10:10:48Z</time>
      </trkpt>
      <trkpt lat="42.82184" lon="2.40176">
        <ele>369.4</ele>
        <time>2021-06-06T10:10:51Z</time>
      </trkpt>
      <trkpt lat="42.82198" lon="2.40154">
        <ele>366.2</ele>
        <time>2021-06-06T10:10:55Z</time>
      </trkpt>
      <trkpt lat="42.82214" lon="2.40133">
        <ele>365.6</ele>
        <time>2021-06-06T10:10:59Z</time>
      </trkpt>
      <trkpt lat="42.82225" lon="2.40107">
        <ele>363.4</ele>
        <time>2021-06-06T10:11:03Z</time>
      </trkpt>
      <trkpt lat="42.82225" lon="2.40082">
        <ele>361.2</ele>
        <time>2021-06-06T10:11:07Z</time>
      </trkpt>
      <trkpt lat="42.82222" lon="2.40055">
        <ele>360.8</ele>
        <time>2021-06-06T10:11:11Z</time>
      </trkpt>
      <trkpt lat="42.82216" lon="2.40025">
        <ele>359</ele>
        <time>2021-06-06T10:11:15Z</time>
      </trkpt>
      <trkpt lat="42.8221" lon="2.40003">
        <ele>356.8</ele>
        <time>2021-06-06T10:11:18Z</time>
      </trkpt>
      <trkpt lat="42.82193" lon="2.39978">
        <ele>356.4</ele>
        <time>2021-06-06T10:11:22Z</time>
      </trkpt>
      <trkpt lat="42.82168" lon="2.39957">
        <ele>356.4</ele>
        <time>2021-06-06T10:11:26Z</time>
      </trkpt>
      <trkpt lat="42.82138" lon="2.39943">
        <ele>351.2</ele>
        <time>2021-06-06T10:11:30Z</time>
      </trkpt>
      <trkpt lat="42.82107" lon="2.39927">
        <ele>350.6</ele>
        <time>2021-06-06T10:11:35Z</time>
      </trkpt>
      <trkpt lat="42.82064" lon="2.39943">
        <ele>347.6</ele>
        <time>2021-06-06T10:11:40Z</time>
      </trkpt>
      <trkpt lat="42.82037" lon="2.39955">
        <ele>347.2</ele>
        <time>2021-06-06T10:11:44Z</time>
      </trkpt>
      <trkpt lat="42.8201" lon="2.39949">
        <ele>347</ele>
        <time>2021-06-06T10:11:48Z</time>
      </trkpt>
      <trkpt lat="42.81975" lon="2.39939">
        <ele>345.2</ele>
        <time>2021-06-06T10:11:54Z</time>
      </trkpt>
      <trkpt lat="42.81938" lon="2.39937">
        <ele>343.6</ele>
        <time>2021-06-06T10:12:00Z</time>
      </trkpt>
      <trkpt lat="42.81899" lon="2.39951">
        <ele>342.2</ele>
        <time>2021-06-06T10:12:05Z</time>
      </trkpt>
      <trkpt lat="42.81869" lon="2.39971">
        <ele>341.2</ele>
        <time>2021-06-06T10:12:11Z</time>
      </trkpt>
      <trkpt lat="42.81836" lon="2.39994">
        <ele>340.8</ele>
        <time>2021-06-06T10:12:15Z</time>
      </trkpt>
      <trkpt lat="42.81804" lon="2.40019">
        <ele>339.6</ele>
        <time>2021-06-06T10:12:21Z</time>
      </trkpt>
      <trkpt lat="42.81778" lon="2.40039">
        <ele>338.6</ele>
        <time>2021-06-06T10:12:24Z</time>
      </trkpt>
      <trkpt lat="42.81748" lon="2.40064">
        <ele>337.4</ele>
        <time>2021-06-06T10:12:30Z</time>
      </trkpt>
      <trkpt lat="42.81711" lon="2.40082">
        <ele>336</ele>
        <time>2021-06-06T10:12:35Z</time>
      </trkpt>
      <trkpt lat="42.81677" lon="2.40069">
        <ele>335.4</ele>
        <time>2021-06-06T10:12:40Z</time>
      </trkpt>
      <trkpt lat="42.8165" lon="2.40045">
        <ele>334.8</ele>
        <time>2021-06-06T10:12:46Z</time>
      </trkpt>
      <trkpt lat="42.81615" lon="2.40054">
        <ele>334.8</ele>
        <time>2021-06-06T10:12:51Z</time>
      </trkpt>
      <trkpt lat="42.81596" lon="2.40073">
        <ele>334.4</ele>
        <time>2021-06-06T10:12:56Z</time>
      </trkpt>
      <trkpt lat="42.8158" lon="2.40087">
        <ele>334.2</ele>
        <time>2021-06-06T10:12:59Z</time>
      </trkpt>
      <trkpt lat="42.81558" lon="2.40089">
        <ele>334</ele>
        <time>2021-06-06T10:13:03Z</time>
      </trkpt>
      <trkpt lat="42.81538" lon="2.40077">
        <ele>333</ele>
        <time>2021-06-06T10:13:07Z</time>
      </trkpt>
      <trkpt lat="42.81517" lon="2.4006">
        <ele>332.8</ele>
        <time>2021-06-06T10:13:11Z</time>
      </trkpt>
      <trkpt lat="42.81495" lon="2.40043">
        <ele>332.4</ele>
        <time>2021-06-06T10:13:15Z</time>
      </trkpt>
      <trkpt lat="42.81474" lon="2.40026">
        <ele>332.4</ele>
        <time>2021-06-06T10:13:19Z</time>
      </trkpt>
      <trkpt lat="42.81458" lon="2.40014">
        <ele>332.4</ele>
        <time>2021-06-06T10:13:22Z</time>
      </trkpt>
      <trkpt lat="42.81438" lon="2.39995">
        <ele>332.4</ele>
        <time>2021-06-06T10:13:26Z</time>
      </trkpt>
      <trkpt lat="42.8142" lon="2.39973">
        <ele>332</ele>
        <time>2021-06-06T10:13:30Z</time>
      </trkpt>
      <trkpt lat="42.81409" lon="2.39944">
        <ele>332.2</ele>
        <time>2021-06-06T10:13:34Z</time>
      </trkpt>
      <trkpt lat="42.81405" lon="2.39915">
        <ele>332.2</ele>
        <time>2021-06-06T10:13:38Z</time>
      </trkpt>
      <trkpt lat="42.81405" lon="2.3989">
        <ele>332.2</ele>
        <time>2021-06-06T10:13:42Z</time>
      </trkpt>
      <trkpt lat="42.81408" lon="2.39866">
        <ele>332.6</ele>
        <time>2021-06-06T10:13:46Z</time>
      </trkpt>
      <trkpt lat="42.81413" lon="2.3985">
        <ele>332</ele>
        <time>2021-06-06T10:13:49Z</time>
      </trkpt>
      <trkpt lat="42.81419" lon="2.39827">
        <ele>332</ele>
        <time>2021-06-06T10:13:53Z</time>
      </trkpt>
      <trkpt lat="42.81427" lon="2.39801">
        <ele>331.2</ele>
        <time>2021-06-06T10:13:57Z</time>
      </trkpt>
      <trkpt lat="42.81436" lon="2.39773">
        <ele>329.6</ele>
        <time>2021-06-06T10:14:01Z</time>
      </trkpt>
      <trkpt lat="42.81444" lon="2.39743">
        <ele>329.4</ele>
        <time>2021-06-06T10:14:05Z</time>
      </trkpt>
      <trkpt lat="42.81443" lon="2.39709">
        <ele>328.2</ele>
        <time>2021-06-06T10:14:09Z</time>
      </trkpt>
      <trkpt lat="42.81425" lon="2.39683">
        <ele>327.8</ele>
        <time>2021-06-06T10:14:13Z</time>
      </trkpt>
      <trkpt lat="42.81409" lon="2.39672">
        <ele>327.6</ele>
        <time>2021-06-06T10:14:16Z</time>
      </trkpt>
      <trkpt lat="42.81389" lon="2.39658">
        <ele>327.4</ele>
        <time>2021-06-06T10:14:20Z</time>
      </trkpt>
      <trkpt lat="42.81371" lon="2.39643">
        <ele>328.6</ele>
        <time>2021-06-06T10:14:24Z</time>
      </trkpt>
      <trkpt lat="42.8136" lon="2.3962">
        <ele>327.6</ele>
        <time>2021-06-06T10:14:28Z</time>
      </trkpt>
      <trkpt lat="42.81359" lon="2.396">
        <ele>328.2</ele>
        <time>2021-06-06T10:14:32Z</time>
      </trkpt>
      <trkpt lat="42.81362" lon="2.39587">
        <ele>327.8</ele>
        <time>2021-06-06T10:14:36Z</time>
      </trkpt>
      <trkpt lat="42.81365" lon="2.39575">
        <ele>328</ele>
        <time>2021-06-06T10:14:40Z</time>
      </trkpt>
      <trkpt lat="42.81368" lon="2.39566">
        <ele>328</ele>
        <time>2021-06-06T10:14:43Z</time>
      </trkpt>
      <trkpt lat="42.81371" lon="2.39555">
        <ele>328.6</ele>
        <time>2021-06-06T10:14:47Z</time>
      </trkpt>
      <trkpt lat="42.81375" lon="2.39543">
        <ele>329.4</ele>
        <time>2021-06-06T10:14:51Z</time>
      </trkpt>
      <trkpt lat="42.81378" lon="2.39531">
        <ele>329.4</ele>
        <time>2021-06-06T10:14:55Z</time>
      </trkpt>
      <trkpt lat="42.81381" lon="2.3952">
        <ele>329.2</ele>
        <time>2021-06-06T10:14:59Z</time>
      </trkpt>
      <trkpt lat="42.81384" lon="2.39508">
        <ele>332.2</ele>
        <time>2021-06-06T10:15:03Z</time>
      </trkpt>
      <trkpt lat="42.81386" lon="2.39498">
        <ele>332.2</ele>
        <time>2021-06-06T10:15:07Z</time>
      </trkpt>
      <trkpt lat="42.81389" lon="2.39491">
        <ele>331.4</ele>
        <time>2021-06-06T10:15:10Z</time>
      </trkpt>
      <trkpt lat="42.81391" lon="2.3948">
        <ele>331.8</ele>
        <time>2021-06-06T10:15:14Z</time>
      </trkpt>
      <trkpt lat="42.81393" lon="2.39471">
        <ele>332.8</ele>
        <time>2021-06-06T10:15:18Z</time>
      </trkpt>
      <trkpt lat="42.81396" lon="2.39461">
        <ele>332</ele>
        <time>2021-06-06T10:15:22Z</time>
      </trkpt>
      <trkpt lat="42.81398" lon="2.39451">
        <ele>333.6</ele>
        <time>2021-06-06T10:15:26Z</time>
      </trkpt>
      <trkpt lat="42.814" lon="2.39441">
        <ele>333</ele>
        <time>2021-06-06T10:15:30Z</time>
      </trkpt>
      <trkpt lat="42.81403" lon="2.39431">
        <ele>333.4</ele>
        <time>2021-06-06T10:15:34Z</time>
      </trkpt>
      <trkpt lat="42.81405" lon="2.39424">
        <ele>333.8</ele>
        <time>2021-06-06T10:15:37Z</time>
      </trkpt>
      <trkpt lat="42.81407" lon="2.39414">
        <ele>334.6</ele>
        <time>2021-06-06T10:15:41Z</time>
      </trkpt>
      <trkpt lat="42.8141" lon="2.39404">
        <ele>335</ele>
        <time>2021-06-06T10:15:45Z</time>
      </trkpt>
      <trkpt lat="42.81413" lon="2.39395">
        <ele>335.4</ele>
        <time>2021-06-06T10:15:49Z</time>
      </trkpt>
      <trkpt lat="42.81416" lon="2.39384">
        <ele>335.8</ele>
        <time>2021-06-06T10:15:53Z</time>
      </trkpt>
      <trkpt lat="42.8142" lon="2.39373">
        <ele>336</ele>
        <time>2021-06-06T10:15:57Z</time>
      </trkpt>
      <trkpt lat="42.81422" lon="2.39365">
        <ele>336.6</ele>
        <time>2021-06-06T10:16:00Z</time>
      </trkpt>
      <trkpt lat="42.81425" lon="2.39355">
        <ele>337</ele>
        <time>2021-06-06T10:16:04Z</time>
      </trkpt>
      <trkpt lat="42.81428" lon="2.39345">
        <ele>337.8</ele>
        <time>2021-06-06T10:16:08Z</time>
      </trkpt>
      <trkpt lat="42.8143" lon="2.39334">
        <ele>337.6</ele>
        <time>2021-06-06T10:16:12Z</time>
      </trkpt>
      <trkpt lat="42.81433" lon="2.39325">
        <ele>338.2</ele>
        <time>2021-06-06T10:16:16Z</time>
      </trkpt>
      <trkpt lat="42.81437" lon="2.39314">
        <ele>338.4</ele>
        <time>2021-06-06T10:16:20Z</time>
      </trkpt>
      <trkpt lat="42.8144" lon="2.39304">
        <ele>338.6</ele>
        <time>2021-06-06T10:16:24Z</time>
      </trkpt>
      <trkpt lat="42.81442" lon="2.39295">
        <ele>338.6</ele>
        <time>2021-06-06T10:16:27Z</time>
      </trkpt>
      <trkpt lat="42.81446" lon="2.39284">
        <ele>339</ele>
        <time>2021-06-06T10:16:31Z</time>
      </trkpt>
      <trkpt lat="42.81449" lon="2.39273">
        <ele>339</ele>
        <time>2021-06-06T10:16:35Z</time>
      </trkpt>
      <trkpt lat="42.81453" lon="2.39261">
        <ele>339.4</ele>
        <time>2021-06-06T10:16:39Z</time>
      </trkpt>
      <trkpt lat="42.81456" lon="2.39248">
        <ele>339.8</ele>
        <time>2021-06-06T10:16:43Z</time>
      </trkpt>
      <trkpt lat="42.81459" lon="2.39237">
        <ele>339.6</ele>
        <time>2021-06-06T10:16:47Z</time>
      </trkpt>
      <trkpt lat="42.81464" lon="2.39225">
        <ele>339.4</ele>
        <time>2021-06-06T10:16:51Z</time>
      </trkpt>
      <trkpt lat="42.8147" lon="2.39216">
        <ele>340.4</ele>
        <time>2021-06-06T10:16:54Z</time>
      </trkpt>
      <trkpt lat="42.81479" lon="2.39209">
        <ele>340.2</ele>
        <time>2021-06-06T10:16:58Z</time>
      </trkpt>
      <trkpt lat="42.81489" lon="2.39207">
        <ele>340.2</ele>
        <time>2021-06-06T10:17:02Z</time>
      </trkpt>
      <trkpt lat="42.81499" lon="2.39206">
        <ele>340.8</ele>
        <time>2021-06-06T10:17:06Z</time>
      </trkpt>
      <trkpt lat="42.81511" lon="2.39202">
        <ele>340.8</ele>
        <time>2021-06-06T10:17:10Z</time>
      </trkpt>
      <trkpt lat="42.81522" lon="2.39195">
        <ele>341.2</ele>
        <time>2021-06-06T10:17:14Z</time>
      </trkpt>
      <trkpt lat="42.81531" lon="2.39185">
        <ele>341.6</ele>
        <time>2021-06-06T10:17:18Z</time>
      </trkpt>
      <trkpt lat="42.81537" lon="2.39177">
        <ele>341.6</ele>
        <time>2021-06-06T10:17:21Z</time>
      </trkpt>
      <trkpt lat="42.81543" lon="2.39163">
        <ele>341.4</ele>
        <time>2021-06-06T10:17:25Z</time>
      </trkpt>
      <trkpt lat="42.81548" lon="2.39149">
        <ele>341</ele>
        <time>2021-06-06T10:17:29Z</time>
      </trkpt>
      <trkpt lat="42.81552" lon="2.39135">
        <ele>341.6</ele>
        <time>2021-06-06T10:17:33Z</time>
      </trkpt>
      <trkpt lat="42.81556" lon="2.3912">
        <ele>342</ele>
        <time>2021-06-06T10:17:37Z</time>
      </trkpt>
      <trkpt lat="42.81561" lon="2.39104">
        <ele>341.6</ele>
        <time>2021-06-06T10:17:41Z</time>
      </trkpt>
      <trkpt lat="42.81566" lon="2.39087">
        <ele>341.8</ele>
        <time>2021-06-06T10:17:45Z</time>
      </trkpt>
      <trkpt lat="42.8157" lon="2.39073">
        <ele>342</ele>
        <time>2021-06-06T10:17:48Z</time>
      </trkpt>
      <trkpt lat="42.81576" lon="2.39054">
        <ele>342.6</ele>
        <time>2021-06-06T10:17:52Z</time>
      </trkpt>
      <trkpt lat="42.81582" lon="2.39037">
        <ele>342.2</ele>
        <time>2021-06-06T10:17:56Z</time>
      </trkpt>
      <trkpt lat="42.81588" lon="2.39018">
        <ele>341.4</ele>
        <time>2021-06-06T10:18:00Z</time>
      </trkpt>
      <trkpt lat="42.81594" lon="2.38998">
        <ele>340.4</ele>
        <time>2021-06-06T10:18:04Z</time>
      </trkpt>
      <trkpt lat="42.816" lon="2.38978">
        <ele>340.4</ele>
        <time>2021-06-06T10:18:08Z</time>
      </trkpt>
      <trkpt lat="42.81606" lon="2.38962">
        <ele>340.4</ele>
        <time>2021-06-06T10:18:11Z</time>
      </trkpt>
      <trkpt lat="42.81614" lon="2.38942">
        <ele>340.6</ele>
        <time>2021-06-06T10:18:15Z</time>
      </trkpt>
      <trkpt lat="42.81621" lon="2.38922">
        <ele>340.2</ele>
        <time>2021-06-06T10:18:19Z</time>
      </trkpt>
      <trkpt lat="42.81628" lon="2.38901">
        <ele>339.8</ele>
        <time>2021-06-06T10:18:23Z</time>
      </trkpt>
      <trkpt lat="42.81636" lon="2.3888">
        <ele>339.4</ele>
        <time>2021-06-06T10:18:27Z</time>
      </trkpt>
      <trkpt lat="42.81644" lon="2.38858">
        <ele>338.8</ele>
        <time>2021-06-06T10:18:31Z</time>
      </trkpt>
      <trkpt lat="42.81651" lon="2.38837">
        <ele>338.8</ele>
        <time>2021-06-06T10:18:35Z</time>
      </trkpt>
      <trkpt lat="42.81655" lon="2.3882">
        <ele>339</ele>
        <time>2021-06-06T10:18:38Z</time>
      </trkpt>
      <trkpt lat="42.81657" lon="2.38796">
        <ele>338</ele>
        <time>2021-06-06T10:18:42Z</time>
      </trkpt>
      <trkpt lat="42.81658" lon="2.38771">
        <ele>337.4</ele>
        <time>2021-06-06T10:18:46Z</time>
      </trkpt>
      <trkpt lat="42.81657" lon="2.38749">
        <ele>337</ele>
        <time>2021-06-06T10:18:50Z</time>
      </trkpt>
      <trkpt lat="42.81649" lon="2.38728">
        <ele>336.2</ele>
        <time>2021-06-06T10:18:54Z</time>
      </trkpt>
      <trkpt lat="42.81634" lon="2.38712">
        <ele>335.8</ele>
        <time>2021-06-06T10:18:58Z</time>
      </trkpt>
      <trkpt lat="42.81617" lon="2.38699">
        <ele>335.6</ele>
        <time>2021-06-06T10:19:02Z</time>
      </trkpt>
      <trkpt lat="42.81608" lon="2.38684">
        <ele>335.4</ele>
        <time>2021-06-06T10:19:05Z</time>
      </trkpt>
      <trkpt lat="42.81601" lon="2.38658">
        <ele>335</ele>
        <time>2021-06-06T10:19:09Z</time>
      </trkpt>
      <trkpt lat="42.81596" lon="2.38631">
        <ele>335</ele>
        <time>2021-06-06T10:19:13Z</time>
      </trkpt>
      <trkpt lat="42.81589" lon="2.38606">
        <ele>334.2</ele>
        <time>2021-06-06T10:19:17Z</time>
      </trkpt>
      <trkpt lat="42.81579" lon="2.38581">
        <ele>334.2</ele>
        <time>2021-06-06T10:19:21Z</time>
      </trkpt>
      <trkpt lat="42.81569" lon="2.38556">
        <ele>334</ele>
        <time>2021-06-06T10:19:25Z</time>
      </trkpt>
      <trkpt lat="42.81556" lon="2.38531">
        <ele>333.6</ele>
        <time>2021-06-06T10:19:29Z</time>
      </trkpt>
      <trkpt lat="42.81543" lon="2.38516">
        <ele>333.2</ele>
        <time>2021-06-06T10:19:32Z</time>
      </trkpt>
      <trkpt lat="42.81527" lon="2.38493">
        <ele>332.6</ele>
        <time>2021-06-06T10:19:36Z</time>
      </trkpt>
      <trkpt lat="42.81524" lon="2.38463">
        <ele>331.8</ele>
        <time>2021-06-06T10:19:40Z</time>
      </trkpt>
      <trkpt lat="42.81528" lon="2.38435">
        <ele>332.4</ele>
        <time>2021-06-06T10:19:44Z</time>
      </trkpt>
      <trkpt lat="42.81531" lon="2.38408">
        <ele>332.8</ele>
        <time>2021-06-06T10:19:48Z</time>
      </trkpt>
      <trkpt lat="42.81533" lon="2.38383">
        <ele>332</ele>
        <time>2021-06-06T10:19:52Z</time>
      </trkpt>
      <trkpt lat="42.81537" lon="2.3836">
        <ele>330.4</ele>
        <time>2021-06-06T10:19:56Z</time>
      </trkpt>
      <trkpt lat="42.81539" lon="2.38343">
        <ele>330.8</ele>
        <time>2021-06-06T10:19:59Z</time>
      </trkpt>
      <trkpt lat="42.81542" lon="2.38319">
        <ele>330.6</ele>
        <time>2021-06-06T10:20:03Z</time>
      </trkpt>
      <trkpt lat="42.81547" lon="2.38296">
        <ele>330.4</ele>
        <time>2021-06-06T10:20:07Z</time>
      </trkpt>
      <trkpt lat="42.81552" lon="2.38274">
        <ele>330</ele>
        <time>2021-06-06T10:20:11Z</time>
      </trkpt>
      <trkpt lat="42.81559" lon="2.38253">
        <ele>330.4</ele>
        <time>2021-06-06T10:20:15Z</time>
      </trkpt>
      <trkpt lat="42.81565" lon="2.38233">
        <ele>330.4</ele>
        <time>2021-06-06T10:20:19Z</time>
      </trkpt>
      <trkpt lat="42.81571" lon="2.38214">
        <ele>330.4</ele>
        <time>2021-06-06T10:20:23Z</time>
      </trkpt>
      <trkpt lat="42.81575" lon="2.38201">
        <ele>331.2</ele>
        <time>2021-06-06T10:20:26Z</time>
      </trkpt>
      <trkpt lat="42.8158" lon="2.38183">
        <ele>330</ele>
        <time>2021-06-06T10:20:30Z</time>
      </trkpt>
      <trkpt lat="42.81585" lon="2.38167">
        <ele>331.6</ele>
        <time>2021-06-06T10:20:34Z</time>
      </trkpt>
      <trkpt lat="42.81591" lon="2.38153">
        <ele>331.4</ele>
        <time>2021-06-06T10:20:38Z</time>
      </trkpt>
      <trkpt lat="42.81595" lon="2.38138">
        <ele>332</ele>
        <time>2021-06-06T10:20:42Z</time>
      </trkpt>
      <trkpt lat="42.816" lon="2.38124">
        <ele>332.2</ele>
        <time>2021-06-06T10:20:46Z</time>
      </trkpt>
      <trkpt lat="42.81603" lon="2.38113">
        <ele>332.6</ele>
        <time>2021-06-06T10:20:49Z</time>
      </trkpt>
      <trkpt lat="42.81608" lon="2.38098">
        <ele>331.8</ele>
        <time>2021-06-06T10:20:53Z</time>
      </trkpt>
      <trkpt lat="42.81613" lon="2.38082">
        <ele>333.4</ele>
        <time>2021-06-06T10:20:57Z</time>
      </trkpt>
      <trkpt lat="42.8162" lon="2.38069">
        <ele>331</ele>
        <time>2021-06-06T10:21:01Z</time>
      </trkpt>
      <trkpt lat="42.81627" lon="2.38057">
        <ele>332</ele>
        <time>2021-06-06T10:21:05Z</time>
      </trkpt>
      <trkpt lat="42.81636" lon="2.38047">
        <ele>333.4</ele>
        <time>2021-06-06T10:21:09Z</time>
      </trkpt>
      <trkpt lat="42.81646" lon="2.38038">
        <ele>333.2</ele>
        <time>2021-06-06T10:21:13Z</time>
      </trkpt>
      <trkpt lat="42.81653" lon="2.38031">
        <ele>333</ele>
        <time>2021-06-06T10:21:16Z</time>
      </trkpt>
      <trkpt lat="42.81662" lon="2.3802">
        <ele>332.6</ele>
        <time>2021-06-06T10:21:20Z</time>
      </trkpt>
      <trkpt lat="42.8167" lon="2.38006">
        <ele>332.6</ele>
        <time>2021-06-06T10:21:24Z</time>
      </trkpt>
      <trkpt lat="42.81673" lon="2.37987">
        <ele>333.8</ele>
        <time>2021-06-06T10:21:28Z</time>
      </trkpt>
      <trkpt lat="42.8167" lon="2.37963">
        <ele>332.8</ele>
        <time>2021-06-06T10:21:32Z</time>
      </trkpt>
      <trkpt lat="42.8166" lon="2.37944">
        <ele>332.8</ele>
        <time>2021-06-06T10:21:36Z</time>
      </trkpt>
      <trkpt lat="42.8165" lon="2.37925">
        <ele>332.6</ele>
        <time>2021-06-06T10:21:40Z</time>
      </trkpt>
      <trkpt lat="42.81643" lon="2.37908">
        <ele>332</ele>
        <time>2021-06-06T10:21:43Z</time>
      </trkpt>
      <trkpt lat="42.81636" lon="2.37883">
        <ele>331.6</ele>
        <time>2021-06-06T10:21:47Z</time>
      </trkpt>
      <trkpt lat="42.81631" lon="2.37858">
        <ele>332</ele>
        <time>2021-06-06T10:21:51Z</time>
      </trkpt>
      <trkpt lat="42.81622" lon="2.37836">
        <ele>330.8</ele>
        <time>2021-06-06T10:21:55Z</time>
      </trkpt>
      <trkpt lat="42.81607" lon="2.37821">
        <ele>331.2</ele>
        <time>2021-06-06T10:21:59Z</time>
      </trkpt>
      <trkpt lat="42.81588" lon="2.37814">
        <ele>331.4</ele>
        <time>2021-06-06T10:22:03Z</time>
      </trkpt>
      <trkpt lat="42.81567" lon="2.3781">
        <ele>330.4</ele>
        <time>2021-06-06T10:22:07Z</time>
      </trkpt>
      <trkpt lat="42.81552" lon="2.37807">
        <ele>330</ele>
        <time>2021-06-06T10:22:10Z</time>
      </trkpt>
      <trkpt lat="42.8153" lon="2.37803">
        <ele>329.4</ele>
        <time>2021-06-06T10:22:14Z</time>
      </trkpt>
      <trkpt lat="42.81509" lon="2.37799">
        <ele>329.4</ele>
        <time>2021-06-06T10:22:18Z</time>
      </trkpt>
      <trkpt lat="42.8149" lon="2.37794">
        <ele>329.6</ele>
        <time>2021-06-06T10:22:22Z</time>
      </trkpt>
      <trkpt lat="42.81469" lon="2.37786">
        <ele>330</ele>
        <time>2021-06-06T10:22:26Z</time>
      </trkpt>
      <trkpt lat="42.8145" lon="2.37778">
        <ele>328.8</ele>
        <time>2021-06-06T10:22:30Z</time>
      </trkpt>
      <trkpt lat="42.81432" lon="2.37771">
        <ele>329</ele>
        <time>2021-06-06T10:22:34Z</time>
      </trkpt>
      <trkpt lat="42.81418" lon="2.37765">
        <ele>328.6</ele>
        <time>2021-06-06T10:22:37Z</time>
      </trkpt>
      <trkpt lat="42.81399" lon="2.37758">
        <ele>328.8</ele>
        <time>2021-06-06T10:22:41Z</time>
      </trkpt>
      <trkpt lat="42.81384" lon="2.37744">
        <ele>328.6</ele>
        <time>2021-06-06T10:22:45Z</time>
      </trkpt>
      <trkpt lat="42.81385" lon="2.37726">
        <ele>328.8</ele>
        <time>2021-06-06T10:22:49Z</time>
      </trkpt>
      <trkpt lat="42.81392" lon="2.37716">
        <ele>330.6</ele>
        <time>2021-06-06T10:22:53Z</time>
      </trkpt>
      <trkpt lat="42.81398" lon="2.37704">
        <ele>330</ele>
        <time>2021-06-06T10:22:57Z</time>
      </trkpt>
      <trkpt lat="42.81401" lon="2.37693">
        <ele>330.2</ele>
        <time>2021-06-06T10:23:00Z</time>
      </trkpt>
      <trkpt lat="42.81395" lon="2.37679">
        <ele>330.8</ele>
        <time>2021-06-06T10:23:04Z</time>
      </trkpt>
      <trkpt lat="42.81387" lon="2.37668">
        <ele>331</ele>
        <time>2021-06-06T10:23:08Z</time>
      </trkpt>
      <trkpt lat="42.81379" lon="2.37659">
        <ele>331.4</ele>
        <time>2021-06-06T10:23:12Z</time>
      </trkpt>
      <trkpt lat="42.81371" lon="2.37653">
        <ele>332</ele>
        <time>2021-06-06T10:23:16Z</time>
      </trkpt>
      <trkpt lat="42.81362" lon="2.37648">
        <ele>333</ele>
        <time>2021-06-06T10:23:20Z</time>
      </trkpt>
      <trkpt lat="42.81352" lon="2.37645">
        <ele>333</ele>
        <time>2021-06-06T10:23:24Z</time>
      </trkpt>
      <trkpt lat="42.81346" lon="2.37643">
        <ele>334</ele>
        <time>2021-06-06T10:23:27Z</time>
      </trkpt>
      <trkpt lat="42.81338" lon="2.37639">
        <ele>334.6</ele>
        <time>2021-06-06T10:23:31Z</time>
      </trkpt>
      <trkpt lat="42.81329" lon="2.37636">
        <ele>334.6</ele>
        <time>2021-06-06T10:23:35Z</time>
      </trkpt>
      <trkpt lat="42.81321" lon="2.37636">
        <ele>335.4</ele>
        <time>2021-06-06T10:23:39Z</time>
      </trkpt>
      <trkpt lat="42.81312" lon="2.37639">
        <ele>336.6</ele>
        <time>2021-06-06T10:23:43Z</time>
      </trkpt>
      <trkpt lat="42.81304" lon="2.37642">
        <ele>337.6</ele>
        <time>2021-06-06T10:23:47Z</time>
      </trkpt>
      <trkpt lat="42.81296" lon="2.37647">
        <ele>337.2</ele>
        <time>2021-06-06T10:23:51Z</time>
      </trkpt>
      <trkpt lat="42.81291" lon="2.37649">
        <ele>337.2</ele>
        <time>2021-06-06T10:23:54Z</time>
      </trkpt>
      <trkpt lat="42.81282" lon="2.37647">
        <ele>337.2</ele>
        <time>2021-06-06T10:23:58Z</time>
      </trkpt>
      <trkpt lat="42.81273" lon="2.37641">
        <ele>337.4</ele>
        <time>2021-06-06T10:24:02Z</time>
      </trkpt>
      <trkpt lat="42.81265" lon="2.37635">
        <ele>336.8</ele>
        <time>2021-06-06T10:24:06Z</time>
      </trkpt>
      <trkpt lat="42.81256" lon="2.37627">
        <ele>337.6</ele>
        <time>2021-06-06T10:24:10Z</time>
      </trkpt>
      <trkpt lat="42.81247" lon="2.3762">
        <ele>337.8</ele>
        <time>2021-06-06T10:24:14Z</time>
      </trkpt>
      <trkpt lat="42.81238" lon="2.37611">
        <ele>338.4</ele>
        <time>2021-06-06T10:24:18Z</time>
      </trkpt>
      <trkpt lat="42.81233" lon="2.37605">
        <ele>338.4</ele>
        <time>2021-06-06T10:24:21Z</time>
      </trkpt>
      <trkpt lat="42.81224" lon="2.37599">
        <ele>338.4</ele>
        <time>2021-06-06T10:24:25Z</time>
      </trkpt>
      <trkpt lat="42.81215" lon="2.37593">
        <ele>338.4</ele>
        <time>2021-06-06T10:24:29Z</time>
      </trkpt>
      <trkpt lat="42.81205" lon="2.3759">
        <ele>338.4</ele>
        <time>2021-06-06T10:24:33Z</time>
      </trkpt>
      <trkpt lat="42.81194" lon="2.37595">
        <ele>339</ele>
        <time>2021-06-06T10:24:37Z</time>
      </trkpt>
      <trkpt lat="42.81185" lon="2.37604">
        <ele>339</ele>
        <time>2021-06-06T10:24:41Z</time>
      </trkpt>
      <trkpt lat="42.81175" lon="2.37616">
        <ele>339.4</ele>
        <time>2021-06-06T10:24:45Z</time>
      </trkpt>
      <trkpt lat="42.81167" lon="2.37625">
        <ele>339.8</ele>
        <time>2021-06-06T10:24:48Z</time>
      </trkpt>
      <trkpt lat="42.81155" lon="2.37634">
        <ele>339.6</ele>
        <time>2021-06-06T10:24:52Z</time>
      </trkpt>
      <trkpt lat="42.81142" lon="2.37642">
        <ele>339.4</ele>
        <time>2021-06-06T10:24:56Z</time>
      </trkpt>
      <trkpt lat="42.81128" lon="2.3765">
        <ele>338.6</ele>
        <time>2021-06-06T10:25:00Z</time>
      </trkpt>
      <trkpt lat="42.81114" lon="2.37659">
        <ele>339.6</ele>
        <time>2021-06-06T10:25:04Z</time>
      </trkpt>
      <trkpt lat="42.81098" lon="2.37668">
        <ele>339.4</ele>
        <time>2021-06-06T10:25:08Z</time>
      </trkpt>
      <trkpt lat="42.81081" lon="2.37676">
        <ele>339.4</ele>
        <time>2021-06-06T10:25:12Z</time>
      </trkpt>
      <trkpt lat="42.81069" lon="2.37684">
        <ele>339.8</ele>
        <time>2021-06-06T10:25:15Z</time>
      </trkpt>
      <trkpt lat="42.81054" lon="2.37694">
        <ele>339.8</ele>
        <time>2021-06-06T10:25:19Z</time>
      </trkpt>
      <trkpt lat="42.81039" lon="2.37703">
        <ele>340.2</ele>
        <time>2021-06-06T10:25:23Z</time>
      </trkpt>
      <trkpt lat="42.81023" lon="2.37709">
        <ele>340.8</ele>
        <time>2021-06-06T10:25:27Z</time>
      </trkpt>
      <trkpt lat="42.8101" lon="2.37713">
        <ele>341.6</ele>
        <time>2021-06-06T10:25:31Z</time>
      </trkpt>
      <trkpt lat="42.80998" lon="2.37718">
        <ele>341.2</ele>
        <time>2021-06-06T10:25:35Z</time>
      </trkpt>
      <trkpt lat="42.80989" lon="2.37723">
        <ele>341.4</ele>
        <time>2021-06-06T10:25:38Z</time>
      </trkpt>
      <trkpt lat="42.80977" lon="2.37738">
        <ele>341.4</ele>
        <time>2021-06-06T10:25:42Z</time>
      </trkpt>
      <trkpt lat="42.80965" lon="2.3776">
        <ele>340.2</ele>
        <time>2021-06-06T10:25:46Z</time>
      </trkpt>
      <trkpt lat="42.80951" lon="2.37784">
        <ele>339.6</ele>
        <time>2021-06-06T10:25:50Z</time>
      </trkpt>
      <trkpt lat="42.80934" lon="2.3781">
        <ele>339.4</ele>
        <time>2021-06-06T10:25:54Z</time>
      </trkpt>
      <trkpt lat="42.80913" lon="2.37833">
        <ele>339.2</ele>
        <time>2021-06-06T10:25:58Z</time>
      </trkpt>
      <trkpt lat="42.80894" lon="2.37859">
        <ele>338.6</ele>
        <time>2021-06-06T10:26:02Z</time>
      </trkpt>
      <trkpt lat="42.80882" lon="2.37882">
        <ele>338.4</ele>
        <time>2021-06-06T10:26:05Z</time>
      </trkpt>
      <trkpt lat="42.80865" lon="2.3791">
        <ele>337.6</ele>
        <time>2021-06-06T10:26:09Z</time>
      </trkpt>
      <trkpt lat="42.80845" lon="2.37935">
        <ele>337.6</ele>
        <time>2021-06-06T10:26:13Z</time>
      </trkpt>
      <trkpt lat="42.80824" lon="2.3796">
        <ele>337.4</ele>
        <time>2021-06-06T10:26:17Z</time>
      </trkpt>
      <trkpt lat="42.80803" lon="2.37981">
        <ele>338.2</ele>
        <time>2021-06-06T10:26:21Z</time>
      </trkpt>
      <trkpt lat="42.80782" lon="2.38003">
        <ele>337.8</ele>
        <time>2021-06-06T10:26:25Z</time>
      </trkpt>
      <trkpt lat="42.80761" lon="2.38022">
        <ele>337.2</ele>
        <time>2021-06-06T10:26:29Z</time>
      </trkpt>
      <trkpt lat="42.80745" lon="2.38037">
        <ele>337.2</ele>
        <time>2021-06-06T10:26:32Z</time>
      </trkpt>
      <trkpt lat="42.80726" lon="2.38055">
        <ele>338.4</ele>
        <time>2021-06-06T10:26:36Z</time>
      </trkpt>
      <trkpt lat="42.80711" lon="2.3807">
        <ele>338.4</ele>
        <time>2021-06-06T10:26:40Z</time>
      </trkpt>
      <trkpt lat="42.80698" lon="2.38082">
        <ele>339</ele>
        <time>2021-06-06T10:26:44Z</time>
      </trkpt>
      <trkpt lat="42.80686" lon="2.38092">
        <ele>340.6</ele>
        <time>2021-06-06T10:26:48Z</time>
      </trkpt>
      <trkpt lat="42.80675" lon="2.38104">
        <ele>341.4</ele>
        <time>2021-06-06T10:26:52Z</time>
      </trkpt>
      <trkpt lat="42.80664" lon="2.38114">
        <ele>341.8</ele>
        <time>2021-06-06T10:26:56Z</time>
      </trkpt>
      <trkpt lat="42.80657" lon="2.3812">
        <ele>342.6</ele>
        <time>2021-06-06T10:26:59Z</time>
      </trkpt>
      <trkpt lat="42.80648" lon="2.38128">
        <ele>343.2</ele>
        <time>2021-06-06T10:27:03Z</time>
      </trkpt>
      <trkpt lat="42.80639" lon="2.38136">
        <ele>343.8</ele>
        <time>2021-06-06T10:27:07Z</time>
      </trkpt>
      <trkpt lat="42.8063" lon="2.38143">
        <ele>344.6</ele>
        <time>2021-06-06T10:27:11Z</time>
      </trkpt>
      <trkpt lat="42.80622" lon="2.38151">
        <ele>345.6</ele>
        <time>2021-06-06T10:27:15Z</time>
      </trkpt>
      <trkpt lat="42.80614" lon="2.38158">
        <ele>346.6</ele>
        <time>2021-06-06T10:27:19Z</time>
      </trkpt>
      <trkpt lat="42.80607" lon="2.38165">
        <ele>347.2</ele>
        <time>2021-06-06T10:27:23Z</time>
      </trkpt>
      <trkpt lat="42.80603" lon="2.38169">
        <ele>347.4</ele>
        <time>2021-06-06T10:27:26Z</time>
      </trkpt>
      <trkpt lat="42.80596" lon="2.38176">
        <ele>348.2</ele>
        <time>2021-06-06T10:27:30Z</time>
      </trkpt>
      <trkpt lat="42.8059" lon="2.38185">
        <ele>348.4</ele>
        <time>2021-06-06T10:27:34Z</time>
      </trkpt>
      <trkpt lat="42.80582" lon="2.38195">
        <ele>349</ele>
        <time>2021-06-06T10:27:38Z</time>
      </trkpt>
      <trkpt lat="42.80575" lon="2.38206">
        <ele>349.6</ele>
        <time>2021-06-06T10:27:42Z</time>
      </trkpt>
      <trkpt lat="42.80568" lon="2.38216">
        <ele>350.4</ele>
        <time>2021-06-06T10:27:46Z</time>
      </trkpt>
      <trkpt lat="42.80561" lon="2.38227">
        <ele>350.4</ele>
        <time>2021-06-06T10:27:50Z</time>
      </trkpt>
      <trkpt lat="42.80556" lon="2.38235">
        <ele>351</ele>
        <time>2021-06-06T10:27:53Z</time>
      </trkpt>
      <trkpt lat="42.8055" lon="2.38247">
        <ele>351.2</ele>
        <time>2021-06-06T10:27:57Z</time>
      </trkpt>
      <trkpt lat="42.80543" lon="2.38259">
        <ele>351.8</ele>
        <time>2021-06-06T10:28:01Z</time>
      </trkpt>
      <trkpt lat="42.80536" lon="2.38273">
        <ele>351.8</ele>
        <time>2021-06-06T10:28:05Z</time>
      </trkpt>
      <trkpt lat="42.80527" lon="2.38287">
        <ele>351.8</ele>
        <time>2021-06-06T10:28:09Z</time>
      </trkpt>
      <trkpt lat="42.80518" lon="2.38298">
        <ele>352.6</ele>
        <time>2021-06-06T10:28:13Z</time>
      </trkpt>
      <trkpt lat="42.80511" lon="2.38307">
        <ele>353.6</ele>
        <time>2021-06-06T10:28:16Z</time>
      </trkpt>
      <trkpt lat="42.80502" lon="2.38321">
        <ele>354.4</ele>
        <time>2021-06-06T10:28:20Z</time>
      </trkpt>
      <trkpt lat="42.80494" lon="2.38333">
        <ele>354.2</ele>
        <time>2021-06-06T10:28:24Z</time>
      </trkpt>
      <trkpt lat="42.80486" lon="2.38346">
        <ele>355.2</ele>
        <time>2021-06-06T10:28:28Z</time>
      </trkpt>
      <trkpt lat="42.80477" lon="2.38359">
        <ele>355.2</ele>
        <time>2021-06-06T10:28:32Z</time>
      </trkpt>
      <trkpt lat="42.80467" lon="2.38374">
        <ele>355</ele>
        <time>2021-06-06T10:28:36Z</time>
      </trkpt>
      <trkpt lat="42.80455" lon="2.38389">
        <ele>354.2</ele>
        <time>2021-06-06T10:28:40Z</time>
      </trkpt>
      <trkpt lat="42.80446" lon="2.38399">
        <ele>355.4</ele>
        <time>2021-06-06T10:28:43Z</time>
      </trkpt>
      <trkpt lat="42.80431" lon="2.38411">
        <ele>354.2</ele>
        <time>2021-06-06T10:28:47Z</time>
      </trkpt>
      <trkpt lat="42.80416" lon="2.3842">
        <ele>354.6</ele>
        <time>2021-06-06T10:28:51Z</time>
      </trkpt>
      <trkpt lat="42.804" lon="2.38429">
        <ele>355.4</ele>
        <time>2021-06-06T10:28:55Z</time>
      </trkpt>
      <trkpt lat="42.80386" lon="2.38436">
        <ele>355.2</ele>
        <time>2021-06-06T10:28:59Z</time>
      </trkpt>
      <trkpt lat="42.80371" lon="2.38444">
        <ele>355.6</ele>
        <time>2021-06-06T10:29:03Z</time>
      </trkpt>
      <trkpt lat="42.80356" lon="2.38452">
        <ele>355.8</ele>
        <time>2021-06-06T10:29:07Z</time>
      </trkpt>
      <trkpt lat="42.80347" lon="2.38459">
        <ele>356</ele>
        <time>2021-06-06T10:29:10Z</time>
      </trkpt>
      <trkpt lat="42.80336" lon="2.3847">
        <ele>356.8</ele>
        <time>2021-06-06T10:29:14Z</time>
      </trkpt>
      <trkpt lat="42.80325" lon="2.38485">
        <ele>356.6</ele>
        <time>2021-06-06T10:29:18Z</time>
      </trkpt>
      <trkpt lat="42.80315" lon="2.38505">
        <ele>355.8</ele>
        <time>2021-06-06T10:29:22Z</time>
      </trkpt>
      <trkpt lat="42.80307" lon="2.38531">
        <ele>356</ele>
        <time>2021-06-06T10:29:26Z</time>
      </trkpt>
      <trkpt lat="42.80297" lon="2.38557">
        <ele>356</ele>
        <time>2021-06-06T10:29:30Z</time>
      </trkpt>
      <trkpt lat="42.80287" lon="2.38578">
        <ele>356.2</ele>
        <time>2021-06-06T10:29:34Z</time>
      </trkpt>
      <trkpt lat="42.80278" lon="2.38593">
        <ele>356.6</ele>
        <time>2021-06-06T10:29:37Z</time>
      </trkpt>
      <trkpt lat="42.80267" lon="2.38613">
        <ele>357</ele>
        <time>2021-06-06T10:29:41Z</time>
      </trkpt>
      <trkpt lat="42.80256" lon="2.38632">
        <ele>357.8</ele>
        <time>2021-06-06T10:29:45Z</time>
      </trkpt>
      <trkpt lat="42.80246" lon="2.3865">
        <ele>358.2</ele>
        <time>2021-06-06T10:29:49Z</time>
      </trkpt>
      <trkpt lat="42.80236" lon="2.38668">
        <ele>358.6</ele>
        <time>2021-06-06T10:29:53Z</time>
      </trkpt>
      <trkpt lat="42.80226" lon="2.38686">
        <ele>359.4</ele>
        <time>2021-06-06T10:29:57Z</time>
      </trkpt>
      <trkpt lat="42.80215" lon="2.38702">
        <ele>360.2</ele>
        <time>2021-06-06T10:30:01Z</time>
      </trkpt>
      <trkpt lat="42.80204" lon="2.38709">
        <ele>360.6</ele>
        <time>2021-06-06T10:30:04Z</time>
      </trkpt>
      <trkpt lat="42.8019" lon="2.38708">
        <ele>361</ele>
        <time>2021-06-06T10:30:08Z</time>
      </trkpt>
      <trkpt lat="42.80187" lon="2.38698">
        <ele>361.4</ele>
        <time>2021-06-06T10:30:12Z</time>
      </trkpt>
      <trkpt lat="42.80183" lon="2.3869">
        <ele>362.2</ele>
        <time>2021-06-06T10:30:16Z</time>
      </trkpt>
      <trkpt lat="42.80179" lon="2.38683">
        <ele>362.6</ele>
        <time>2021-06-06T10:30:20Z</time>
      </trkpt>
      <trkpt lat="42.80175" lon="2.38675">
        <ele>363</ele>
        <time>2021-06-06T10:30:24Z</time>
      </trkpt>
      <trkpt lat="42.80172" lon="2.38669">
        <ele>363.8</ele>
        <time>2021-06-06T10:30:27Z</time>
      </trkpt>
      <trkpt lat="42.80169" lon="2.3866">
        <ele>364.6</ele>
        <time>2021-06-06T10:30:31Z</time>
      </trkpt>
      <trkpt lat="42.80166" lon="2.38651">
        <ele>364.6</ele>
        <time>2021-06-06T10:30:35Z</time>
      </trkpt>
      <trkpt lat="42.80163" lon="2.38642">
        <ele>365</ele>
        <time>2021-06-06T10:30:39Z</time>
      </trkpt>
      <trkpt lat="42.80161" lon="2.38632">
        <ele>365.4</ele>
        <time>2021-06-06T10:30:43Z</time>
      </trkpt>
      <trkpt lat="42.8016" lon="2.38622">
        <ele>365.8</ele>
        <time>2021-06-06T10:30:47Z</time>
      </trkpt>
      <trkpt lat="42.80162" lon="2.3861">
        <ele>366.6</ele>
        <time>2021-06-06T10:30:51Z</time>
      </trkpt>
      <trkpt lat="42.80161" lon="2.38603">
        <ele>366.8</ele>
        <time>2021-06-06T10:30:54Z</time>
      </trkpt>
      <trkpt lat="42.80162" lon="2.38594">
        <ele>366.8</ele>
        <time>2021-06-06T10:30:58Z</time>
      </trkpt>
      <trkpt lat="42.80163" lon="2.38584">
        <ele>367.4</ele>
        <time>2021-06-06T10:31:02Z</time>
      </trkpt>
      <trkpt lat="42.80164" lon="2.38572">
        <ele>367.8</ele>
        <time>2021-06-06T10:31:06Z</time>
      </trkpt>
      <trkpt lat="42.80166" lon="2.38563">
        <ele>368.2</ele>
        <time>2021-06-06T10:31:10Z</time>
      </trkpt>
      <trkpt lat="42.80168" lon="2.38552">
        <ele>368.4</ele>
        <time>2021-06-06T10:31:14Z</time>
      </trkpt>
      <trkpt lat="42.8017" lon="2.38544">
        <ele>368.8</ele>
        <time>2021-06-06T10:31:18Z</time>
      </trkpt>
      <trkpt lat="42.80173" lon="2.38539">
        <ele>369.2</ele>
        <time>2021-06-06T10:31:21Z</time>
      </trkpt>
      <trkpt lat="42.80175" lon="2.38536">
        <ele>369.6</ele>
        <time>2021-06-06T10:31:25Z</time>
      </trkpt>
      <trkpt lat="42.80173" lon="2.38541">
        <ele>370.2</ele>
        <time>2021-06-06T10:31:29Z</time>
      </trkpt>
      <trkpt lat="42.80171" lon="2.38546">
        <ele>371</ele>
        <time>2021-06-06T10:31:33Z</time>
      </trkpt>
      <trkpt lat="42.8017" lon="2.38556">
        <ele>371.6</ele>
        <time>2021-06-06T10:31:37Z</time>
      </trkpt>
      <trkpt lat="42.80174" lon="2.38565">
        <ele>372</ele>
        <time>2021-06-06T10:31:41Z</time>
      </trkpt>
      <trkpt lat="42.80178" lon="2.38562">
        <ele>371.8</ele>
        <time>2021-06-06T10:31:45Z</time>
      </trkpt>
      <trkpt lat="42.80176" lon="2.38558">
        <ele>372.6</ele>
        <time>2021-06-06T10:31:48Z</time>
      </trkpt>
      <trkpt lat="42.80179" lon="2.38552">
        <ele>373</ele>
        <time>2021-06-06T10:31:52Z</time>
      </trkpt>
      <trkpt lat="42.80182" lon="2.38547">
        <ele>373.8</ele>
        <time>2021-06-06T10:31:56Z</time>
      </trkpt>
      <trkpt lat="42.80184" lon="2.3854">
        <ele>374.2</ele>
        <time>2021-06-06T10:32:00Z</time>
      </trkpt>
      <trkpt lat="42.80184" lon="2.38533">
        <ele>375.2</ele>
        <time>2021-06-06T10:32:04Z</time>
      </trkpt>
      <trkpt lat="42.80185" lon="2.38527">
        <ele>375.2</ele>
        <time>2021-06-06T10:32:08Z</time>
      </trkpt>
      <trkpt lat="42.80185" lon="2.38519">
        <ele>375.8</ele>
        <time>2021-06-06T10:32:12Z</time>
      </trkpt>
      <trkpt lat="42.80187" lon="2.3851">
        <ele>375.4</ele>
        <time>2021-06-06T10:32:15Z</time>
      </trkpt>
      <trkpt lat="42.80187" lon="2.38503">
        <ele>375.4</ele>
        <time>2021-06-06T10:32:19Z</time>
      </trkpt>
      <trkpt lat="42.80189" lon="2.38498">
        <ele>375.2</ele>
        <time>2021-06-06T10:32:23Z</time>
      </trkpt>
      <trkpt lat="42.80191" lon="2.38492">
        <ele>375.2</ele>
        <time>2021-06-06T10:32:27Z</time>
      </trkpt>
      <trkpt lat="42.80197" lon="2.38491">
        <ele>375</ele>
        <time>2021-06-06T10:32:31Z</time>
      </trkpt>
      <trkpt lat="42.80202" lon="2.38493">
        <ele>375</ele>
        <time>2021-06-06T10:32:35Z</time>
      </trkpt>
      <trkpt lat="42.80207" lon="2.38495">
        <ele>375.6</ele>
        <time>2021-06-06T10:32:39Z</time>
      </trkpt>
      <trkpt lat="42.80208" lon="2.38494">
        <ele>375.8</ele>
        <time>2021-06-06T10:32:42Z</time>
      </trkpt>
      <trkpt lat="42.80209" lon="2.38495">
        <ele>375.4</ele>
        <time>2021-06-06T10:32:46Z</time>
      </trkpt>
      <trkpt lat="42.80208" lon="2.38516">
        <ele>374.8</ele>
        <time>2021-06-06T10:32:58Z</time>
      </trkpt>
      <trkpt lat="42.80204" lon="2.3852">
        <ele>374.4</ele>
        <time>2021-06-06T10:33:02Z</time>
      </trkpt>
      <trkpt lat="42.80198" lon="2.38524">
        <ele>374.6</ele>
        <time>2021-06-06T10:33:06Z</time>
      </trkpt>
      <trkpt lat="42.80195" lon="2.38524">
        <ele>374.8</ele>
        <time>2021-06-06T10:33:10Z</time>
      </trkpt>
      <trkpt lat="42.80195" lon="2.38525">
        <ele>374.8</ele>
        <time>2021-06-06T10:33:13Z</time>
      </trkpt>
      <trkpt lat="42.80196" lon="2.38526">
        <ele>375</ele>
        <time>2021-06-06T10:33:17Z</time>
      </trkpt>
      <trkpt lat="42.80183" lon="2.3855">
        <ele>369.4</ele>
        <time>2021-06-06T11:09:14Z</time>
      </trkpt>
      <trkpt lat="42.80181" lon="2.38558">
        <ele>368.8</ele>
        <time>2021-06-06T11:09:18Z</time>
      </trkpt>
      <trkpt lat="42.80175" lon="2.38561">
        <ele>367.8</ele>
        <time>2021-06-06T11:09:22Z</time>
      </trkpt>
      <trkpt lat="42.80175" lon="2.3855">
        <ele>366.8</ele>
        <time>2021-06-06T11:09:26Z</time>
      </trkpt>
      <trkpt lat="42.80178" lon="2.38539">
        <ele>365.8</ele>
        <time>2021-06-06T11:09:30Z</time>
      </trkpt>
      <trkpt lat="42.80179" lon="2.38533">
        <ele>365.4</ele>
        <time>2021-06-06T11:09:33Z</time>
      </trkpt>
      <trkpt lat="42.80176" lon="2.38531">
        <ele>365</ele>
        <time>2021-06-06T11:09:37Z</time>
      </trkpt>
      <trkpt lat="42.80172" lon="2.3854">
        <ele>364.6</ele>
        <time>2021-06-06T11:09:41Z</time>
      </trkpt>
      <trkpt lat="42.80168" lon="2.38554">
        <ele>363.8</ele>
        <time>2021-06-06T11:09:45Z</time>
      </trkpt>
      <trkpt lat="42.80165" lon="2.38572">
        <ele>363</ele>
        <time>2021-06-06T11:09:49Z</time>
      </trkpt>
      <trkpt lat="42.80164" lon="2.38586">
        <ele>362.4</ele>
        <time>2021-06-06T11:09:53Z</time>
      </trkpt>
      <trkpt lat="42.80162" lon="2.38603">
        <ele>361.6</ele>
        <time>2021-06-06T11:09:57Z</time>
      </trkpt>
      <trkpt lat="42.80162" lon="2.38617">
        <ele>361.2</ele>
        <time>2021-06-06T11:10:00Z</time>
      </trkpt>
      <trkpt lat="42.80164" lon="2.38635">
        <ele>360.6</ele>
        <time>2021-06-06T11:10:04Z</time>
      </trkpt>
      <trkpt lat="42.80169" lon="2.38653">
        <ele>359.6</ele>
        <time>2021-06-06T11:10:08Z</time>
      </trkpt>
      <trkpt lat="42.80175" lon="2.38667">
        <ele>359</ele>
        <time>2021-06-06T11:10:12Z</time>
      </trkpt>
      <trkpt lat="42.8018" lon="2.38682">
        <ele>358</ele>
        <time>2021-06-06T11:10:16Z</time>
      </trkpt>
      <trkpt lat="42.80185" lon="2.38693">
        <ele>357.2</ele>
        <time>2021-06-06T11:10:20Z</time>
      </trkpt>
      <trkpt lat="42.80185" lon="2.38701">
        <ele>356.2</ele>
        <time>2021-06-06T11:10:24Z</time>
      </trkpt>
      <trkpt lat="42.80181" lon="2.38698">
        <ele>356.2</ele>
        <time>2021-06-06T11:10:27Z</time>
      </trkpt>
      <trkpt lat="42.80175" lon="2.38687">
        <ele>356</ele>
        <time>2021-06-06T11:10:31Z</time>
      </trkpt>
      <trkpt lat="42.80169" lon="2.38671">
        <ele>355.8</ele>
        <time>2021-06-06T11:10:35Z</time>
      </trkpt>
      <trkpt lat="42.80162" lon="2.38654">
        <ele>355.8</ele>
        <time>2021-06-06T11:10:39Z</time>
      </trkpt>
      <trkpt lat="42.80157" lon="2.38636">
        <ele>356</ele>
        <time>2021-06-06T11:10:43Z</time>
      </trkpt>
      <trkpt lat="42.80154" lon="2.38617">
        <ele>356.2</ele>
        <time>2021-06-06T11:10:47Z</time>
      </trkpt>
      <trkpt lat="42.80151" lon="2.38598">
        <ele>356.4</ele>
        <time>2021-06-06T11:10:51Z</time>
      </trkpt>
      <trkpt lat="42.80149" lon="2.38584">
        <ele>356.8</ele>
        <time>2021-06-06T11:10:54Z</time>
      </trkpt>
      <trkpt lat="42.80143" lon="2.38567">
        <ele>356.8</ele>
        <time>2021-06-06T11:10:58Z</time>
      </trkpt>
      <trkpt lat="42.80132" lon="2.38552">
        <ele>357</ele>
        <time>2021-06-06T11:11:02Z</time>
      </trkpt>
      <trkpt lat="42.80121" lon="2.38541">
        <ele>356.2</ele>
        <time>2021-06-06T11:11:06Z</time>
      </trkpt>
      <trkpt lat="42.80109" lon="2.38531">
        <ele>356.2</ele>
        <time>2021-06-06T11:11:10Z</time>
      </trkpt>
      <trkpt lat="42.80097" lon="2.3852">
        <ele>357.2</ele>
        <time>2021-06-06T11:11:14Z</time>
      </trkpt>
      <trkpt lat="42.80085" lon="2.38509">
        <ele>357.2</ele>
        <time>2021-06-06T11:11:18Z</time>
      </trkpt>
      <trkpt lat="42.8008" lon="2.38495">
        <ele>356.8</ele>
        <time>2021-06-06T11:11:21Z</time>
      </trkpt>
      <trkpt lat="42.80077" lon="2.38474">
        <ele>357.4</ele>
        <time>2021-06-06T11:11:25Z</time>
      </trkpt>
      <trkpt lat="42.80077" lon="2.38453">
        <ele>357.8</ele>
        <time>2021-06-06T11:11:29Z</time>
      </trkpt>
      <trkpt lat="42.80072" lon="2.38431">
        <ele>357.2</ele>
        <time>2021-06-06T11:11:33Z</time>
      </trkpt>
      <trkpt lat="42.80068" lon="2.38408">
        <ele>357.4</ele>
        <time>2021-06-06T11:11:37Z</time>
      </trkpt>
      <trkpt lat="42.8006" lon="2.38386">
        <ele>357.6</ele>
        <time>2021-06-06T11:11:41Z</time>
      </trkpt>
      <trkpt lat="42.80055" lon="2.38371">
        <ele>357.6</ele>
        <time>2021-06-06T11:11:44Z</time>
      </trkpt>
      <trkpt lat="42.80044" lon="2.38351">
        <ele>357.8</ele>
        <time>2021-06-06T11:11:48Z</time>
      </trkpt>
      <trkpt lat="42.80027" lon="2.38338">
        <ele>358</ele>
        <time>2021-06-06T11:11:52Z</time>
      </trkpt>
      <trkpt lat="42.8001" lon="2.38328">
        <ele>358.4</ele>
        <time>2021-06-06T11:11:56Z</time>
      </trkpt>
      <trkpt lat="42.79993" lon="2.38325">
        <ele>358.6</ele>
        <time>2021-06-06T11:12:00Z</time>
      </trkpt>
      <trkpt lat="42.79976" lon="2.38327">
        <ele>358.8</ele>
        <time>2021-06-06T11:12:04Z</time>
      </trkpt>
      <trkpt lat="42.7996" lon="2.38325">
        <ele>358.8</ele>
        <time>2021-06-06T11:12:08Z</time>
      </trkpt>
      <trkpt lat="42.79948" lon="2.38323">
        <ele>359</ele>
        <time>2021-06-06T11:12:11Z</time>
      </trkpt>
      <trkpt lat="42.79934" lon="2.38316">
        <ele>359.2</ele>
        <time>2021-06-06T11:12:15Z</time>
      </trkpt>
      <trkpt lat="42.79925" lon="2.38303">
        <ele>359.6</ele>
        <time>2021-06-06T11:12:19Z</time>
      </trkpt>
      <trkpt lat="42.79917" lon="2.38294">
        <ele>359.8</ele>
        <time>2021-06-06T11:12:23Z</time>
      </trkpt>
      <trkpt lat="42.79906" lon="2.38297">
        <ele>360.2</ele>
        <time>2021-06-06T11:12:27Z</time>
      </trkpt>
      <trkpt lat="42.79897" lon="2.38305">
        <ele>360.6</ele>
        <time>2021-06-06T11:12:31Z</time>
      </trkpt>
      <trkpt lat="42.79891" lon="2.38315">
        <ele>361</ele>
        <time>2021-06-06T11:12:35Z</time>
      </trkpt>
      <trkpt lat="42.79889" lon="2.38322">
        <ele>361</ele>
        <time>2021-06-06T11:12:38Z</time>
      </trkpt>
      <trkpt lat="42.79889" lon="2.38332">
        <ele>361.6</ele>
        <time>2021-06-06T11:12:42Z</time>
      </trkpt>
      <trkpt lat="42.79891" lon="2.38341">
        <ele>362</ele>
        <time>2021-06-06T11:12:46Z</time>
      </trkpt>
      <trkpt lat="42.79895" lon="2.3835">
        <ele>362</ele>
        <time>2021-06-06T11:12:50Z</time>
      </trkpt>
      <trkpt lat="42.79901" lon="2.38358">
        <ele>362.2</ele>
        <time>2021-06-06T11:12:54Z</time>
      </trkpt>
      <trkpt lat="42.79907" lon="2.38364">
        <ele>362.4</ele>
        <time>2021-06-06T11:12:58Z</time>
      </trkpt>
      <trkpt lat="42.79912" lon="2.3837">
        <ele>363.4</ele>
        <time>2021-06-06T11:13:02Z</time>
      </trkpt>
      <trkpt lat="42.79916" lon="2.38375">
        <ele>364</ele>
        <time>2021-06-06T11:13:05Z</time>
      </trkpt>
      <trkpt lat="42.79919" lon="2.38383">
        <ele>364.2</ele>
        <time>2021-06-06T11:13:09Z</time>
      </trkpt>
      <trkpt lat="42.79921" lon="2.38391">
        <ele>364.2</ele>
        <time>2021-06-06T11:13:13Z</time>
      </trkpt>
      <trkpt lat="42.79924" lon="2.38401">
        <ele>364.2</ele>
        <time>2021-06-06T11:13:17Z</time>
      </trkpt>
      <trkpt lat="42.79925" lon="2.3841">
        <ele>364.2</ele>
        <time>2021-06-06T11:13:21Z</time>
      </trkpt>
      <trkpt lat="42.79926" lon="2.38419">
        <ele>364.6</ele>
        <time>2021-06-06T11:13:25Z</time>
      </trkpt>
      <trkpt lat="42.79929" lon="2.38428">
        <ele>365.4</ele>
        <time>2021-06-06T11:13:29Z</time>
      </trkpt>
      <trkpt lat="42.7993" lon="2.38435">
        <ele>366</ele>
        <time>2021-06-06T11:13:32Z</time>
      </trkpt>
      <trkpt lat="42.79929" lon="2.38443">
        <ele>366.4</ele>
        <time>2021-06-06T11:13:36Z</time>
      </trkpt>
      <trkpt lat="42.79928" lon="2.38452">
        <ele>367.2</ele>
        <time>2021-06-06T11:13:40Z</time>
      </trkpt>
      <trkpt lat="42.79927" lon="2.38461">
        <ele>366.4</ele>
        <time>2021-06-06T11:13:44Z</time>
      </trkpt>
      <trkpt lat="42.79926" lon="2.3847">
        <ele>367</ele>
        <time>2021-06-06T11:13:48Z</time>
      </trkpt>
      <trkpt lat="42.79925" lon="2.38479">
        <ele>367.6</ele>
        <time>2021-06-06T11:13:52Z</time>
      </trkpt>
      <trkpt lat="42.79924" lon="2.38486">
        <ele>368.2</ele>
        <time>2021-06-06T11:13:55Z</time>
      </trkpt>
      <trkpt lat="42.79923" lon="2.38495">
        <ele>369</ele>
        <time>2021-06-06T11:13:59Z</time>
      </trkpt>
      <trkpt lat="42.79922" lon="2.38504">
        <ele>369.4</ele>
        <time>2021-06-06T11:14:03Z</time>
      </trkpt>
      <trkpt lat="42.79921" lon="2.38513">
        <ele>369.8</ele>
        <time>2021-06-06T11:14:07Z</time>
      </trkpt>
      <trkpt lat="42.79919" lon="2.38521">
        <ele>370.4</ele>
        <time>2021-06-06T11:14:11Z</time>
      </trkpt>
      <trkpt lat="42.79918" lon="2.3853">
        <ele>370.8</ele>
        <time>2021-06-06T11:14:15Z</time>
      </trkpt>
      <trkpt lat="42.79917" lon="2.38538">
        <ele>371.2</ele>
        <time>2021-06-06T11:14:19Z</time>
      </trkpt>
      <trkpt lat="42.79916" lon="2.38545">
        <ele>371.4</ele>
        <time>2021-06-06T11:14:22Z</time>
      </trkpt>
      <trkpt lat="42.79915" lon="2.38554">
        <ele>371.6</ele>
        <time>2021-06-06T11:14:26Z</time>
      </trkpt>
      <trkpt lat="42.79914" lon="2.38563">
        <ele>371.8</ele>
        <time>2021-06-06T11:14:30Z</time>
      </trkpt>
      <trkpt lat="42.79913" lon="2.38572">
        <ele>372.4</ele>
        <time>2021-06-06T11:14:34Z</time>
      </trkpt>
      <trkpt lat="42.79913" lon="2.38582">
        <ele>373.2</ele>
        <time>2021-06-06T11:14:38Z</time>
      </trkpt>
      <trkpt lat="42.79914" lon="2.38592">
        <ele>374</ele>
        <time>2021-06-06T11:14:42Z</time>
      </trkpt>
      <trkpt lat="42.79915" lon="2.38601">
        <ele>374.2</ele>
        <time>2021-06-06T11:14:46Z</time>
      </trkpt>
      <trkpt lat="42.79915" lon="2.38607">
        <ele>374.2</ele>
        <time>2021-06-06T11:14:49Z</time>
      </trkpt>
      <trkpt lat="42.79917" lon="2.38616">
        <ele>374.6</ele>
        <time>2021-06-06T11:14:53Z</time>
      </trkpt>
      <trkpt lat="42.79917" lon="2.38625">
        <ele>375.2</ele>
        <time>2021-06-06T11:14:57Z</time>
      </trkpt>
      <trkpt lat="42.79918" lon="2.38634">
        <ele>375.6</ele>
        <time>2021-06-06T11:15:01Z</time>
      </trkpt>
      <trkpt lat="42.79918" lon="2.38643">
        <ele>376.4</ele>
        <time>2021-06-06T11:15:05Z</time>
      </trkpt>
      <trkpt lat="42.79918" lon="2.38652">
        <ele>377</ele>
        <time>2021-06-06T11:15:09Z</time>
      </trkpt>
      <trkpt lat="42.79919" lon="2.38661">
        <ele>377.8</ele>
        <time>2021-06-06T11:15:13Z</time>
      </trkpt>
      <trkpt lat="42.7992" lon="2.38668">
        <ele>378.2</ele>
        <time>2021-06-06T11:15:16Z</time>
      </trkpt>
      <trkpt lat="42.79921" lon="2.38677">
        <ele>378.8</ele>
        <time>2021-06-06T11:15:20Z</time>
      </trkpt>
      <trkpt lat="42.79922" lon="2.38687">
        <ele>381</ele>
        <time>2021-06-06T11:15:24Z</time>
      </trkpt>
      <trkpt lat="42.79923" lon="2.38696">
        <ele>380.8</ele>
        <time>2021-06-06T11:15:28Z</time>
      </trkpt>
      <trkpt lat="42.79924" lon="2.38705">
        <ele>380.6</ele>
        <time>2021-06-06T11:15:32Z</time>
      </trkpt>
      <trkpt lat="42.79924" lon="2.38713">
        <ele>380.4</ele>
        <time>2021-06-06T11:15:36Z</time>
      </trkpt>
      <trkpt lat="42.79924" lon="2.38722">
        <ele>380.6</ele>
        <time>2021-06-06T11:15:40Z</time>
      </trkpt>
      <trkpt lat="42.79925" lon="2.38728">
        <ele>381</ele>
        <time>2021-06-06T11:15:43Z</time>
      </trkpt>
      <trkpt lat="42.79926" lon="2.38738">
        <ele>381</ele>
        <time>2021-06-06T11:15:47Z</time>
      </trkpt>
      <trkpt lat="42.79928" lon="2.38747">
        <ele>381.8</ele>
        <time>2021-06-06T11:15:51Z</time>
      </trkpt>
      <trkpt lat="42.79931" lon="2.38756">
        <ele>382.8</ele>
        <time>2021-06-06T11:15:55Z</time>
      </trkpt>
      <trkpt lat="42.79933" lon="2.38765">
        <ele>383.2</ele>
        <time>2021-06-06T11:15:59Z</time>
      </trkpt>
      <trkpt lat="42.79936" lon="2.38774">
        <ele>384</ele>
        <time>2021-06-06T11:16:03Z</time>
      </trkpt>
      <trkpt lat="42.79939" lon="2.38783">
        <ele>384.2</ele>
        <time>2021-06-06T11:16:07Z</time>
      </trkpt>
      <trkpt lat="42.79942" lon="2.38789">
        <ele>384.4</ele>
        <time>2021-06-06T11:16:10Z</time>
      </trkpt>
      <trkpt lat="42.79946" lon="2.38796">
        <ele>384.4</ele>
        <time>2021-06-06T11:16:14Z</time>
      </trkpt>
      <trkpt lat="42.79951" lon="2.38804">
        <ele>385.6</ele>
        <time>2021-06-06T11:16:18Z</time>
      </trkpt>
      <trkpt lat="42.79955" lon="2.38812">
        <ele>385.8</ele>
        <time>2021-06-06T11:16:22Z</time>
      </trkpt>
      <trkpt lat="42.79958" lon="2.3882">
        <ele>386.2</ele>
        <time>2021-06-06T11:16:26Z</time>
      </trkpt>
      <trkpt lat="42.79961" lon="2.38828">
        <ele>386.4</ele>
        <time>2021-06-06T11:16:30Z</time>
      </trkpt>
      <trkpt lat="42.79963" lon="2.38834">
        <ele>386.2</ele>
        <time>2021-06-06T11:16:33Z</time>
      </trkpt>
      <trkpt lat="42.79963" lon="2.38843">
        <ele>388</ele>
        <time>2021-06-06T11:16:37Z</time>
      </trkpt>
      <trkpt lat="42.79962" lon="2.38851">
        <ele>387.6</ele>
        <time>2021-06-06T11:16:41Z</time>
      </trkpt>
      <trkpt lat="42.79962" lon="2.3886">
        <ele>389.2</ele>
        <time>2021-06-06T11:16:45Z</time>
      </trkpt>
      <trkpt lat="42.79961" lon="2.38869">
        <ele>389.4</ele>
        <time>2021-06-06T11:16:49Z</time>
      </trkpt>
      <trkpt lat="42.79958" lon="2.38879">
        <ele>390.6</ele>
        <time>2021-06-06T11:16:53Z</time>
      </trkpt>
      <trkpt lat="42.79953" lon="2.38886">
        <ele>391.2</ele>
        <time>2021-06-06T11:16:57Z</time>
      </trkpt>
      <trkpt lat="42.79949" lon="2.3889">
        <ele>391.6</ele>
        <time>2021-06-06T11:17:00Z</time>
      </trkpt>
      <trkpt lat="42.79942" lon="2.38892">
        <ele>391.8</ele>
        <time>2021-06-06T11:17:04Z</time>
      </trkpt>
      <trkpt lat="42.79935" lon="2.38891">
        <ele>392.8</ele>
        <time>2021-06-06T11:17:08Z</time>
      </trkpt>
      <trkpt lat="42.79929" lon="2.38887">
        <ele>393.8</ele>
        <time>2021-06-06T11:17:12Z</time>
      </trkpt>
      <trkpt lat="42.79924" lon="2.38883">
        <ele>394.6</ele>
        <time>2021-06-06T11:17:16Z</time>
      </trkpt>
      <trkpt lat="42.79918" lon="2.38877">
        <ele>394.4</ele>
        <time>2021-06-06T11:17:20Z</time>
      </trkpt>
      <trkpt lat="42.79913" lon="2.38872">
        <ele>394.8</ele>
        <time>2021-06-06T11:17:24Z</time>
      </trkpt>
      <trkpt lat="42.7991" lon="2.38867">
        <ele>395</ele>
        <time>2021-06-06T11:17:27Z</time>
      </trkpt>
      <trkpt lat="42.79907" lon="2.38859">
        <ele>395.2</ele>
        <time>2021-06-06T11:17:31Z</time>
      </trkpt>
      <trkpt lat="42.79904" lon="2.38851">
        <ele>397</ele>
        <time>2021-06-06T11:17:35Z</time>
      </trkpt>
      <trkpt lat="42.79901" lon="2.38844">
        <ele>396.4</ele>
        <time>2021-06-06T11:17:39Z</time>
      </trkpt>
      <trkpt lat="42.799" lon="2.38836">
        <ele>397.2</ele>
        <time>2021-06-06T11:17:43Z</time>
      </trkpt>
      <trkpt lat="42.799" lon="2.38828">
        <ele>398.2</ele>
        <time>2021-06-06T11:17:47Z</time>
      </trkpt>
      <trkpt lat="42.79902" lon="2.3882">
        <ele>398.6</ele>
        <time>2021-06-06T11:17:51Z</time>
      </trkpt>
      <trkpt lat="42.79903" lon="2.38814">
        <ele>398</ele>
        <time>2021-06-06T11:17:54Z</time>
      </trkpt>
      <trkpt lat="42.79903" lon="2.38805">
        <ele>399</ele>
        <time>2021-06-06T11:17:58Z</time>
      </trkpt>
      <trkpt lat="42.79903" lon="2.38795">
        <ele>399.8</ele>
        <time>2021-06-06T11:18:02Z</time>
      </trkpt>
      <trkpt lat="42.79903" lon="2.38786">
        <ele>399.6</ele>
        <time>2021-06-06T11:18:06Z</time>
      </trkpt>
      <trkpt lat="42.79902" lon="2.38776">
        <ele>399.8</ele>
        <time>2021-06-06T11:18:10Z</time>
      </trkpt>
      <trkpt lat="42.79901" lon="2.38766">
        <ele>400.2</ele>
        <time>2021-06-06T11:18:14Z</time>
      </trkpt>
      <trkpt lat="42.79901" lon="2.38757">
        <ele>400</ele>
        <time>2021-06-06T11:18:18Z</time>
      </trkpt>
      <trkpt lat="42.79901" lon="2.3875">
        <ele>400</ele>
        <time>2021-06-06T11:18:21Z</time>
      </trkpt>
      <trkpt lat="42.79899" lon="2.38741">
        <ele>400</ele>
        <time>2021-06-06T11:18:25Z</time>
      </trkpt>
      <trkpt lat="42.79898" lon="2.38732">
        <ele>400.2</ele>
        <time>2021-06-06T11:18:29Z</time>
      </trkpt>
      <trkpt lat="42.79897" lon="2.38723">
        <ele>400.6</ele>
        <time>2021-06-06T11:18:33Z</time>
      </trkpt>
      <trkpt lat="42.79896" lon="2.38713">
        <ele>400.4</ele>
        <time>2021-06-06T11:18:37Z</time>
      </trkpt>
      <trkpt lat="42.79896" lon="2.38703">
        <ele>400.6</ele>
        <time>2021-06-06T11:18:41Z</time>
      </trkpt>
      <trkpt lat="42.79895" lon="2.38693">
        <ele>401</ele>
        <time>2021-06-06T11:18:45Z</time>
      </trkpt>
      <trkpt lat="42.79894" lon="2.38686">
        <ele>400.8</ele>
        <time>2021-06-06T11:18:48Z</time>
      </trkpt>
      <trkpt lat="42.79892" lon="2.38677">
        <ele>401.2</ele>
        <time>2021-06-06T11:18:52Z</time>
      </trkpt>
      <trkpt lat="42.79891" lon="2.38669">
        <ele>401.2</ele>
        <time>2021-06-06T11:18:56Z</time>
      </trkpt>
      <trkpt lat="42.7989" lon="2.3866">
        <ele>401.2</ele>
        <time>2021-06-06T11:19:00Z</time>
      </trkpt>
      <trkpt lat="42.79889" lon="2.38651">
        <ele>401.6</ele>
        <time>2021-06-06T11:19:04Z</time>
      </trkpt>
      <trkpt lat="42.79888" lon="2.38642">
        <ele>401.6</ele>
        <time>2021-06-06T11:19:08Z</time>
      </trkpt>
      <trkpt lat="42.79888" lon="2.38635">
        <ele>402.4</ele>
        <time>2021-06-06T11:19:11Z</time>
      </trkpt>
      <trkpt lat="42.79888" lon="2.38627">
        <ele>403</ele>
        <time>2021-06-06T11:19:15Z</time>
      </trkpt>
      <trkpt lat="42.79886" lon="2.38618">
        <ele>403.4</ele>
        <time>2021-06-06T11:19:19Z</time>
      </trkpt>
      <trkpt lat="42.79884" lon="2.38609">
        <ele>403.4</ele>
        <time>2021-06-06T11:19:23Z</time>
      </trkpt>
      <trkpt lat="42.79882" lon="2.38599">
        <ele>403.8</ele>
        <time>2021-06-06T11:19:27Z</time>
      </trkpt>
      <trkpt lat="42.7988" lon="2.38589">
        <ele>404.4</ele>
        <time>2021-06-06T11:19:31Z</time>
      </trkpt>
      <trkpt lat="42.79878" lon="2.38581">
        <ele>405</ele>
        <time>2021-06-06T11:19:35Z</time>
      </trkpt>
      <trkpt lat="42.79877" lon="2.38573">
        <ele>405.6</ele>
        <time>2021-06-06T11:19:38Z</time>
      </trkpt>
      <trkpt lat="42.79876" lon="2.38564">
        <ele>405</ele>
        <time>2021-06-06T11:19:42Z</time>
      </trkpt>
      <trkpt lat="42.79875" lon="2.38554">
        <ele>406.4</ele>
        <time>2021-06-06T11:19:46Z</time>
      </trkpt>
      <trkpt lat="42.79875" lon="2.38545">
        <ele>406.2</ele>
        <time>2021-06-06T11:19:50Z</time>
      </trkpt>
      <trkpt lat="42.79874" lon="2.38537">
        <ele>406.6</ele>
        <time>2021-06-06T11:19:54Z</time>
      </trkpt>
      <trkpt lat="42.79874" lon="2.38535">
        <ele>406.6</ele>
        <time>2021-06-06T11:19:58Z</time>
      </trkpt>
      <trkpt lat="42.79873" lon="2.38535">
        <ele>406.6</ele>
        <time>2021-06-06T11:20:02Z</time>
      </trkpt>
      <trkpt lat="42.79872" lon="2.38507">
        <ele>407.4</ele>
        <time>2021-06-06T11:20:52Z</time>
      </trkpt>
      <trkpt lat="42.79872" lon="2.38497">
        <ele>408.4</ele>
        <time>2021-06-06T11:20:57Z</time>
      </trkpt>
      <trkpt lat="42.79873" lon="2.38488">
        <ele>409.8</ele>
        <time>2021-06-06T11:21:02Z</time>
      </trkpt>
      <trkpt lat="42.79872" lon="2.38485">
        <ele>409</ele>
        <time>2021-06-06T11:21:08Z</time>
      </trkpt>
      <trkpt lat="42.79861" lon="2.38466">
        <ele>411.8</ele>
        <time>2021-06-06T11:21:58Z</time>
      </trkpt>
      <trkpt lat="42.79852" lon="2.38459">
        <ele>412.4</ele>
        <time>2021-06-06T11:22:03Z</time>
      </trkpt>
      <trkpt lat="42.79835" lon="2.38453">
        <ele>413</ele>
        <time>2021-06-06T11:22:09Z</time>
      </trkpt>
      <trkpt lat="42.79823" lon="2.3845">
        <ele>413.8</ele>
        <time>2021-06-06T11:22:13Z</time>
      </trkpt>
      <trkpt lat="42.79812" lon="2.38446">
        <ele>414.2</ele>
        <time>2021-06-06T11:22:17Z</time>
      </trkpt>
      <trkpt lat="42.798" lon="2.38443">
        <ele>415.2</ele>
        <time>2021-06-06T11:22:21Z</time>
      </trkpt>
      <trkpt lat="42.79785" lon="2.38442">
        <ele>416.4</ele>
        <time>2021-06-06T11:22:25Z</time>
      </trkpt>
      <trkpt lat="42.79769" lon="2.38445">
        <ele>417.2</ele>
        <time>2021-06-06T11:22:29Z</time>
      </trkpt>
      <trkpt lat="42.79752" lon="2.38452">
        <ele>417.8</ele>
        <time>2021-06-06T11:22:33Z</time>
      </trkpt>
      <trkpt lat="42.79735" lon="2.3846">
        <ele>418</ele>
        <time>2021-06-06T11:22:37Z</time>
      </trkpt>
      <trkpt lat="42.79723" lon="2.38467">
        <ele>418.6</ele>
        <time>2021-06-06T11:22:40Z</time>
      </trkpt>
      <trkpt lat="42.79708" lon="2.38475">
        <ele>418.8</ele>
        <time>2021-06-06T11:22:44Z</time>
      </trkpt>
      <trkpt lat="42.79694" lon="2.38466">
        <ele>419</ele>
        <time>2021-06-06T11:22:48Z</time>
      </trkpt>
      <trkpt lat="42.79685" lon="2.38451">
        <ele>420.8</ele>
        <time>2021-06-06T11:22:52Z</time>
      </trkpt>
      <trkpt lat="42.79676" lon="2.38437">
        <ele>422</ele>
        <time>2021-06-06T11:22:56Z</time>
      </trkpt>
      <trkpt lat="42.79667" lon="2.38422">
        <ele>423.4</ele>
        <time>2021-06-06T11:23:00Z</time>
      </trkpt>
      <trkpt lat="42.79661" lon="2.38411">
        <ele>423.8</ele>
        <time>2021-06-06T11:23:03Z</time>
      </trkpt>
      <trkpt lat="42.79654" lon="2.38393">
        <ele>424.6</ele>
        <time>2021-06-06T11:23:07Z</time>
      </trkpt>
      <trkpt lat="42.79649" lon="2.38374">
        <ele>425.2</ele>
        <time>2021-06-06T11:23:11Z</time>
      </trkpt>
      <trkpt lat="42.79644" lon="2.38357">
        <ele>425.2</ele>
        <time>2021-06-06T11:23:15Z</time>
      </trkpt>
      <trkpt lat="42.79642" lon="2.38338">
        <ele>425.6</ele>
        <time>2021-06-06T11:23:19Z</time>
      </trkpt>
      <trkpt lat="42.79642" lon="2.38321">
        <ele>426</ele>
        <time>2021-06-06T11:23:23Z</time>
      </trkpt>
      <trkpt lat="42.79641" lon="2.38305">
        <ele>426.4</ele>
        <time>2021-06-06T11:23:27Z</time>
      </trkpt>
      <trkpt lat="42.79636" lon="2.38295">
        <ele>427.2</ele>
        <time>2021-06-06T11:23:30Z</time>
      </trkpt>
      <trkpt lat="42.79627" lon="2.38291">
        <ele>427.8</ele>
        <time>2021-06-06T11:23:34Z</time>
      </trkpt>
      <trkpt lat="42.79618" lon="2.38296">
        <ele>428.8</ele>
        <time>2021-06-06T11:23:38Z</time>
      </trkpt>
      <trkpt lat="42.7961" lon="2.38307">
        <ele>429.4</ele>
        <time>2021-06-06T11:23:42Z</time>
      </trkpt>
      <trkpt lat="42.79601" lon="2.38319">
        <ele>429.8</ele>
        <time>2021-06-06T11:23:46Z</time>
      </trkpt>
      <trkpt lat="42.79591" lon="2.38325">
        <ele>430.6</ele>
        <time>2021-06-06T11:23:50Z</time>
      </trkpt>
      <trkpt lat="42.79581" lon="2.38335">
        <ele>431</ele>
        <time>2021-06-06T11:23:54Z</time>
      </trkpt>
      <trkpt lat="42.79575" lon="2.38345">
        <ele>431.2</ele>
        <time>2021-06-06T11:23:57Z</time>
      </trkpt>
      <trkpt lat="42.79569" lon="2.3836">
        <ele>432</ele>
        <time>2021-06-06T11:24:01Z</time>
      </trkpt>
      <trkpt lat="42.79562" lon="2.38376">
        <ele>432.4</ele>
        <time>2021-06-06T11:24:05Z</time>
      </trkpt>
      <trkpt lat="42.79551" lon="2.38382">
        <ele>432.4</ele>
        <time>2021-06-06T11:24:09Z</time>
      </trkpt>
      <trkpt lat="42.79538" lon="2.38378">
        <ele>432.6</ele>
        <time>2021-06-06T11:24:13Z</time>
      </trkpt>
      <trkpt lat="42.79526" lon="2.3837">
        <ele>433</ele>
        <time>2021-06-06T11:24:17Z</time>
      </trkpt>
      <trkpt lat="42.79513" lon="2.38363">
        <ele>433.6</ele>
        <time>2021-06-06T11:24:21Z</time>
      </trkpt>
      <trkpt lat="42.79502" lon="2.38363">
        <ele>433.8</ele>
        <time>2021-06-06T11:24:24Z</time>
      </trkpt>
      <trkpt lat="42.7949" lon="2.38365">
        <ele>434.2</ele>
        <time>2021-06-06T11:24:28Z</time>
      </trkpt>
      <trkpt lat="42.79479" lon="2.38367">
        <ele>434.8</ele>
        <time>2021-06-06T11:24:32Z</time>
      </trkpt>
      <trkpt lat="42.79467" lon="2.38365">
        <ele>435</ele>
        <time>2021-06-06T11:24:36Z</time>
      </trkpt>
      <trkpt lat="42.79455" lon="2.38361">
        <ele>435.8</ele>
        <time>2021-06-06T11:24:40Z</time>
      </trkpt>
      <trkpt lat="42.79443" lon="2.38361">
        <ele>436</ele>
        <time>2021-06-06T11:24:44Z</time>
      </trkpt>
      <trkpt lat="42.79431" lon="2.38364">
        <ele>436.8</ele>
        <time>2021-06-06T11:24:48Z</time>
      </trkpt>
      <trkpt lat="42.79422" lon="2.38366">
        <ele>437.4</ele>
        <time>2021-06-06T11:24:51Z</time>
      </trkpt>
      <trkpt lat="42.79411" lon="2.38363">
        <ele>438</ele>
        <time>2021-06-06T11:24:55Z</time>
      </trkpt>
      <trkpt lat="42.79402" lon="2.38355">
        <ele>438.2</ele>
        <time>2021-06-06T11:24:59Z</time>
      </trkpt>
      <trkpt lat="42.79394" lon="2.38346">
        <ele>439</ele>
        <time>2021-06-06T11:25:03Z</time>
      </trkpt>
      <trkpt lat="42.79385" lon="2.38339">
        <ele>439.2</ele>
        <time>2021-06-06T11:25:07Z</time>
      </trkpt>
      <trkpt lat="42.79377" lon="2.3833">
        <ele>439.6</ele>
        <time>2021-06-06T11:25:11Z</time>
      </trkpt>
      <trkpt lat="42.79373" lon="2.38316">
        <ele>440</ele>
        <time>2021-06-06T11:25:15Z</time>
      </trkpt>
      <trkpt lat="42.79372" lon="2.38305">
        <ele>441.4</ele>
        <time>2021-06-06T11:25:18Z</time>
      </trkpt>
      <trkpt lat="42.79367" lon="2.38293">
        <ele>443.4</ele>
        <time>2021-06-06T11:25:22Z</time>
      </trkpt>
      <trkpt lat="42.79356" lon="2.38284">
        <ele>443.8</ele>
        <time>2021-06-06T11:25:26Z</time>
      </trkpt>
      <trkpt lat="42.79345" lon="2.38275">
        <ele>443.8</ele>
        <time>2021-06-06T11:25:30Z</time>
      </trkpt>
      <trkpt lat="42.79335" lon="2.38269">
        <ele>444.2</ele>
        <time>2021-06-06T11:25:34Z</time>
      </trkpt>
      <trkpt lat="42.79324" lon="2.38268">
        <ele>444.6</ele>
        <time>2021-06-06T11:25:38Z</time>
      </trkpt>
      <trkpt lat="42.79315" lon="2.3827">
        <ele>445.4</ele>
        <time>2021-06-06T11:25:41Z</time>
      </trkpt>
      <trkpt lat="42.79304" lon="2.38275">
        <ele>446.2</ele>
        <time>2021-06-06T11:25:45Z</time>
      </trkpt>
      <trkpt lat="42.79293" lon="2.38276">
        <ele>446.4</ele>
        <time>2021-06-06T11:25:49Z</time>
      </trkpt>
      <trkpt lat="42.79281" lon="2.38275">
        <ele>444.4</ele>
        <time>2021-06-06T11:25:53Z</time>
      </trkpt>
      <trkpt lat="42.7927" lon="2.38274">
        <ele>446.6</ele>
        <time>2021-06-06T11:25:57Z</time>
      </trkpt>
      <trkpt lat="42.79258" lon="2.3828">
        <ele>445.8</ele>
        <time>2021-06-06T11:26:01Z</time>
      </trkpt>
      <trkpt lat="42.7925" lon="2.38291">
        <ele>445.6</ele>
        <time>2021-06-06T11:26:05Z</time>
      </trkpt>
      <trkpt lat="42.79245" lon="2.38301">
        <ele>446.2</ele>
        <time>2021-06-06T11:26:08Z</time>
      </trkpt>
      <trkpt lat="42.79239" lon="2.38314">
        <ele>449</ele>
        <time>2021-06-06T11:26:12Z</time>
      </trkpt>
      <trkpt lat="42.79232" lon="2.38325">
        <ele>448.2</ele>
        <time>2021-06-06T11:26:16Z</time>
      </trkpt>
      <trkpt lat="42.79223" lon="2.38333">
        <ele>448.8</ele>
        <time>2021-06-06T11:26:20Z</time>
      </trkpt>
      <trkpt lat="42.79212" lon="2.38339">
        <ele>449.4</ele>
        <time>2021-06-06T11:26:24Z</time>
      </trkpt>
      <trkpt lat="42.79203" lon="2.38347">
        <ele>448.8</ele>
        <time>2021-06-06T11:26:28Z</time>
      </trkpt>
      <trkpt lat="42.79194" lon="2.38358">
        <ele>449.2</ele>
        <time>2021-06-06T11:26:32Z</time>
      </trkpt>
      <trkpt lat="42.79188" lon="2.38368">
        <ele>449.6</ele>
        <time>2021-06-06T11:26:35Z</time>
      </trkpt>
      <trkpt lat="42.79179" lon="2.38381">
        <ele>449.6</ele>
        <time>2021-06-06T11:26:39Z</time>
      </trkpt>
      <trkpt lat="42.79168" lon="2.38387">
        <ele>450</ele>
        <time>2021-06-06T11:26:43Z</time>
      </trkpt>
      <trkpt lat="42.79157" lon="2.38387">
        <ele>450</ele>
        <time>2021-06-06T11:26:47Z</time>
      </trkpt>
      <trkpt lat="42.79146" lon="2.38389">
        <ele>451</ele>
        <time>2021-06-06T11:26:51Z</time>
      </trkpt>
      <trkpt lat="42.79135" lon="2.38394">
        <ele>452.8</ele>
        <time>2021-06-06T11:26:55Z</time>
      </trkpt>
      <trkpt lat="42.79124" lon="2.384">
        <ele>451.2</ele>
        <time>2021-06-06T11:26:59Z</time>
      </trkpt>
      <trkpt lat="42.79118" lon="2.38406">
        <ele>451.4</ele>
        <time>2021-06-06T11:27:02Z</time>
      </trkpt>
      <trkpt lat="42.79112" lon="2.3841">
        <ele>452.4</ele>
        <time>2021-06-06T11:27:06Z</time>
      </trkpt>
      <trkpt lat="42.7911" lon="2.38412">
        <ele>454.4</ele>
        <time>2021-06-06T11:27:10Z</time>
      </trkpt>
      <trkpt lat="42.7911" lon="2.38412">
        <ele>453.8</ele>
        <time>2021-06-06T11:27:14Z</time>
      </trkpt>
      <trkpt lat="42.79091" lon="2.38437">
        <ele>458</ele>
        <time>2021-06-06T11:29:23Z</time>
      </trkpt>
      <trkpt lat="42.79083" lon="2.38445">
        <ele>458.4</ele>
        <time>2021-06-06T11:29:27Z</time>
      </trkpt>
      <trkpt lat="42.79074" lon="2.38453">
        <ele>459</ele>
        <time>2021-06-06T11:29:31Z</time>
      </trkpt>
      <trkpt lat="42.79068" lon="2.38458">
        <ele>459.6</ele>
        <time>2021-06-06T11:29:34Z</time>
      </trkpt>
      <trkpt lat="42.79059" lon="2.38464">
        <ele>460.2</ele>
        <time>2021-06-06T11:29:38Z</time>
      </trkpt>
      <trkpt lat="42.7905" lon="2.3847">
        <ele>461</ele>
        <time>2021-06-06T11:29:42Z</time>
      </trkpt>
      <trkpt lat="42.79041" lon="2.38476">
        <ele>461.8</ele>
        <time>2021-06-06T11:29:46Z</time>
      </trkpt>
      <trkpt lat="42.79032" lon="2.38482">
        <ele>462.4</ele>
        <time>2021-06-06T11:29:50Z</time>
      </trkpt>
      <trkpt lat="42.79024" lon="2.38487">
        <ele>463.2</ele>
        <time>2021-06-06T11:29:54Z</time>
      </trkpt>
      <trkpt lat="42.79018" lon="2.3849">
        <ele>463.4</ele>
        <time>2021-06-06T11:29:57Z</time>
      </trkpt>
      <trkpt lat="42.79012" lon="2.38496">
        <ele>463.6</ele>
        <time>2021-06-06T11:30:01Z</time>
      </trkpt>
      <trkpt lat="42.79006" lon="2.38503">
        <ele>464</ele>
        <time>2021-06-06T11:30:05Z</time>
      </trkpt>
      <trkpt lat="42.79002" lon="2.3851">
        <ele>464.4</ele>
        <time>2021-06-06T11:30:09Z</time>
      </trkpt>
      <trkpt lat="42.78997" lon="2.38518">
        <ele>465.4</ele>
        <time>2021-06-06T11:30:13Z</time>
      </trkpt>
      <trkpt lat="42.78992" lon="2.38526">
        <ele>466.4</ele>
        <time>2021-06-06T11:30:17Z</time>
      </trkpt>
      <trkpt lat="42.78988" lon="2.38534">
        <ele>467</ele>
        <time>2021-06-06T11:30:21Z</time>
      </trkpt>
      <trkpt lat="42.78985" lon="2.3854">
        <ele>467.2</ele>
        <time>2021-06-06T11:30:24Z</time>
      </trkpt>
      <trkpt lat="42.78981" lon="2.3855">
        <ele>467.8</ele>
        <time>2021-06-06T11:30:28Z</time>
      </trkpt>
      <trkpt lat="42.78977" lon="2.3856">
        <ele>468.4</ele>
        <time>2021-06-06T11:30:32Z</time>
      </trkpt>
      <trkpt lat="42.78974" lon="2.3857">
        <ele>468.8</ele>
        <time>2021-06-06T11:30:36Z</time>
      </trkpt>
      <trkpt lat="42.78971" lon="2.3858">
        <ele>469.4</ele>
        <time>2021-06-06T11:30:40Z</time>
      </trkpt>
      <trkpt lat="42.78969" lon="2.38591">
        <ele>469.8</ele>
        <time>2021-06-06T11:30:44Z</time>
      </trkpt>
      <trkpt lat="42.78966" lon="2.38603">
        <ele>470.2</ele>
        <time>2021-06-06T11:30:48Z</time>
      </trkpt>
      <trkpt lat="42.78965" lon="2.38611">
        <ele>470.4</ele>
        <time>2021-06-06T11:30:51Z</time>
      </trkpt>
      <trkpt lat="42.78962" lon="2.38622">
        <ele>471.2</ele>
        <time>2021-06-06T11:30:55Z</time>
      </trkpt>
      <trkpt lat="42.78959" lon="2.38633">
        <ele>472</ele>
        <time>2021-06-06T11:30:59Z</time>
      </trkpt>
      <trkpt lat="42.78957" lon="2.38644">
        <ele>472.4</ele>
        <time>2021-06-06T11:31:03Z</time>
      </trkpt>
      <trkpt lat="42.78954" lon="2.38654">
        <ele>473.2</ele>
        <time>2021-06-06T11:31:07Z</time>
      </trkpt>
      <trkpt lat="42.78952" lon="2.38664">
        <ele>473.8</ele>
        <time>2021-06-06T11:31:11Z</time>
      </trkpt>
      <trkpt lat="42.78949" lon="2.38675">
        <ele>474.8</ele>
        <time>2021-06-06T11:31:15Z</time>
      </trkpt>
      <trkpt lat="42.78946" lon="2.38682">
        <ele>475.6</ele>
        <time>2021-06-06T11:31:18Z</time>
      </trkpt>
      <trkpt lat="42.78943" lon="2.38692">
        <ele>475.6</ele>
        <time>2021-06-06T11:31:22Z</time>
      </trkpt>
      <trkpt lat="42.78939" lon="2.38701">
        <ele>475.4</ele>
        <time>2021-06-06T11:31:26Z</time>
      </trkpt>
      <trkpt lat="42.78934" lon="2.3871">
        <ele>475.6</ele>
        <time>2021-06-06T11:31:30Z</time>
      </trkpt>
      <trkpt lat="42.7893" lon="2.38718">
        <ele>475.8</ele>
        <time>2021-06-06T11:31:34Z</time>
      </trkpt>
      <trkpt lat="42.78926" lon="2.38726">
        <ele>476</ele>
        <time>2021-06-06T11:31:38Z</time>
      </trkpt>
      <trkpt lat="42.78921" lon="2.38736">
        <ele>476.4</ele>
        <time>2021-06-06T11:31:42Z</time>
      </trkpt>
      <trkpt lat="42.78919" lon="2.38743">
        <ele>476.6</ele>
        <time>2021-06-06T11:31:45Z</time>
      </trkpt>
      <trkpt lat="42.78917" lon="2.38752">
        <ele>476.8</ele>
        <time>2021-06-06T11:31:49Z</time>
      </trkpt>
      <trkpt lat="42.78914" lon="2.38761">
        <ele>477</ele>
        <time>2021-06-06T11:31:53Z</time>
      </trkpt>
      <trkpt lat="42.78912" lon="2.38771">
        <ele>477.4</ele>
        <time>2021-06-06T11:31:57Z</time>
      </trkpt>
      <trkpt lat="42.78911" lon="2.38781">
        <ele>478</ele>
        <time>2021-06-06T11:32:01Z</time>
      </trkpt>
      <trkpt lat="42.78909" lon="2.3879">
        <ele>478.6</ele>
        <time>2021-06-06T11:32:05Z</time>
      </trkpt>
      <trkpt lat="42.78908" lon="2.38798">
        <ele>479.2</ele>
        <time>2021-06-06T11:32:09Z</time>
      </trkpt>
      <trkpt lat="42.78907" lon="2.38806">
        <ele>479.6</ele>
        <time>2021-06-06T11:32:12Z</time>
      </trkpt>
      <trkpt lat="42.78905" lon="2.38817">
        <ele>480</ele>
        <time>2021-06-06T11:32:16Z</time>
      </trkpt>
      <trkpt lat="42.78904" lon="2.38827">
        <ele>480.8</ele>
        <time>2021-06-06T11:32:20Z</time>
      </trkpt>
      <trkpt lat="42.78903" lon="2.38838">
        <ele>481.4</ele>
        <time>2021-06-06T11:32:24Z</time>
      </trkpt>
      <trkpt lat="42.78901" lon="2.38847">
        <ele>481.6</ele>
        <time>2021-06-06T11:32:28Z</time>
      </trkpt>
      <trkpt lat="42.789" lon="2.38858">
        <ele>481.8</ele>
        <time>2021-06-06T11:32:32Z</time>
      </trkpt>
      <trkpt lat="42.78899" lon="2.38865">
        <ele>482</ele>
        <time>2021-06-06T11:32:35Z</time>
      </trkpt>
      <trkpt lat="42.78898" lon="2.38875">
        <ele>482.4</ele>
        <time>2021-06-06T11:32:39Z</time>
      </trkpt>
      <trkpt lat="42.78896" lon="2.38886">
        <ele>482.8</ele>
        <time>2021-06-06T11:32:43Z</time>
      </trkpt>
      <trkpt lat="42.78893" lon="2.38897">
        <ele>482.8</ele>
        <time>2021-06-06T11:32:47Z</time>
      </trkpt>
      <trkpt lat="42.78891" lon="2.38907">
        <ele>482.8</ele>
        <time>2021-06-06T11:32:51Z</time>
      </trkpt>
      <trkpt lat="42.7889" lon="2.38917">
        <ele>483</ele>
        <time>2021-06-06T11:32:55Z</time>
      </trkpt>
      <trkpt lat="42.78886" lon="2.38928">
        <ele>483.8</ele>
        <time>2021-06-06T11:32:59Z</time>
      </trkpt>
      <trkpt lat="42.78883" lon="2.38935">
        <ele>484.4</ele>
        <time>2021-06-06T11:33:02Z</time>
      </trkpt>
      <trkpt lat="42.7888" lon="2.38945">
        <ele>485</ele>
        <time>2021-06-06T11:33:06Z</time>
      </trkpt>
      <trkpt lat="42.78878" lon="2.38956">
        <ele>485.2</ele>
        <time>2021-06-06T11:33:10Z</time>
      </trkpt>
      <trkpt lat="42.78877" lon="2.38966">
        <ele>485.6</ele>
        <time>2021-06-06T11:33:14Z</time>
      </trkpt>
      <trkpt lat="42.78877" lon="2.38976">
        <ele>486.4</ele>
        <time>2021-06-06T11:33:18Z</time>
      </trkpt>
      <trkpt lat="42.78879" lon="2.38988">
        <ele>486.2</ele>
        <time>2021-06-06T11:33:22Z</time>
      </trkpt>
      <trkpt lat="42.78881" lon="2.38999">
        <ele>486</ele>
        <time>2021-06-06T11:33:26Z</time>
      </trkpt>
      <trkpt lat="42.78883" lon="2.39008">
        <ele>486.6</ele>
        <time>2021-06-06T11:33:29Z</time>
      </trkpt>
      <trkpt lat="42.78886" lon="2.39019">
        <ele>486.8</ele>
        <time>2021-06-06T11:33:33Z</time>
      </trkpt>
      <trkpt lat="42.78888" lon="2.39032">
        <ele>486.8</ele>
        <time>2021-06-06T11:33:37Z</time>
      </trkpt>
      <trkpt lat="42.78889" lon="2.39044">
        <ele>487.6</ele>
        <time>2021-06-06T11:33:41Z</time>
      </trkpt>
      <trkpt lat="42.78891" lon="2.39055">
        <ele>487.8</ele>
        <time>2021-06-06T11:33:45Z</time>
      </trkpt>
      <trkpt lat="42.78893" lon="2.39066">
        <ele>489</ele>
        <time>2021-06-06T11:33:49Z</time>
      </trkpt>
      <trkpt lat="42.78894" lon="2.39076">
        <ele>491</ele>
        <time>2021-06-06T11:33:53Z</time>
      </trkpt>
      <trkpt lat="42.78897" lon="2.39084">
        <ele>491</ele>
        <time>2021-06-06T11:33:56Z</time>
      </trkpt>
      <trkpt lat="42.789" lon="2.39095">
        <ele>490.4</ele>
        <time>2021-06-06T11:34:00Z</time>
      </trkpt>
      <trkpt lat="42.78902" lon="2.39104">
        <ele>491</ele>
        <time>2021-06-06T11:34:04Z</time>
      </trkpt>
      <trkpt lat="42.78906" lon="2.39114">
        <ele>491.2</ele>
        <time>2021-06-06T11:34:08Z</time>
      </trkpt>
      <trkpt lat="42.78909" lon="2.39124">
        <ele>491.8</ele>
        <time>2021-06-06T11:34:12Z</time>
      </trkpt>
      <trkpt lat="42.78912" lon="2.39135">
        <ele>493</ele>
        <time>2021-06-06T11:34:16Z</time>
      </trkpt>
      <trkpt lat="42.78912" lon="2.39145">
        <ele>493.4</ele>
        <time>2021-06-06T11:34:20Z</time>
      </trkpt>
      <trkpt lat="42.7891" lon="2.39153">
        <ele>493.6</ele>
        <time>2021-06-06T11:34:23Z</time>
      </trkpt>
      <trkpt lat="42.78906" lon="2.39163">
        <ele>493.6</ele>
        <time>2021-06-06T11:34:27Z</time>
      </trkpt>
      <trkpt lat="42.78902" lon="2.39171">
        <ele>493.8</ele>
        <time>2021-06-06T11:34:31Z</time>
      </trkpt>
      <trkpt lat="42.78897" lon="2.39179">
        <ele>494.4</ele>
        <time>2021-06-06T11:34:35Z</time>
      </trkpt>
      <trkpt lat="42.78893" lon="2.39187">
        <ele>494.8</ele>
        <time>2021-06-06T11:34:39Z</time>
      </trkpt>
      <trkpt lat="42.78889" lon="2.39198">
        <ele>495</ele>
        <time>2021-06-06T11:34:43Z</time>
      </trkpt>
      <trkpt lat="42.78886" lon="2.39208">
        <ele>495.2</ele>
        <time>2021-06-06T11:34:47Z</time>
      </trkpt>
      <trkpt lat="42.78884" lon="2.39215">
        <ele>495.4</ele>
        <time>2021-06-06T11:34:50Z</time>
      </trkpt>
      <trkpt lat="42.78881" lon="2.39226">
        <ele>496</ele>
        <time>2021-06-06T11:34:54Z</time>
      </trkpt>
      <trkpt lat="42.78878" lon="2.39237">
        <ele>497.2</ele>
        <time>2021-06-06T11:34:58Z</time>
      </trkpt>
      <trkpt lat="42.78875" lon="2.39246">
        <ele>498</ele>
        <time>2021-06-06T11:35:02Z</time>
      </trkpt>
      <trkpt lat="42.78873" lon="2.39257">
        <ele>499.8</ele>
        <time>2021-06-06T11:35:06Z</time>
      </trkpt>
      <trkpt lat="42.78872" lon="2.39267">
        <ele>500.2</ele>
        <time>2021-06-06T11:35:10Z</time>
      </trkpt>
      <trkpt lat="42.78871" lon="2.39274">
        <ele>500</ele>
        <time>2021-06-06T11:35:13Z</time>
      </trkpt>
      <trkpt lat="42.78871" lon="2.39284">
        <ele>500</ele>
        <time>2021-06-06T11:35:17Z</time>
      </trkpt>
      <trkpt lat="42.78871" lon="2.39295">
        <ele>500.4</ele>
        <time>2021-06-06T11:35:21Z</time>
      </trkpt>
      <trkpt lat="42.78871" lon="2.39305">
        <ele>501</ele>
        <time>2021-06-06T11:35:25Z</time>
      </trkpt>
      <trkpt lat="42.78871" lon="2.39315">
        <ele>501.4</ele>
        <time>2021-06-06T11:35:29Z</time>
      </trkpt>
      <trkpt lat="42.7887" lon="2.39324">
        <ele>501.6</ele>
        <time>2021-06-06T11:35:33Z</time>
      </trkpt>
      <trkpt lat="42.78871" lon="2.39335">
        <ele>502</ele>
        <time>2021-06-06T11:35:37Z</time>
      </trkpt>
      <trkpt lat="42.78871" lon="2.39343">
        <ele>503</ele>
        <time>2021-06-06T11:35:40Z</time>
      </trkpt>
      <trkpt lat="42.7887" lon="2.39354">
        <ele>503.2</ele>
        <time>2021-06-06T11:35:44Z</time>
      </trkpt>
      <trkpt lat="42.78869" lon="2.39363">
        <ele>503</ele>
        <time>2021-06-06T11:35:48Z</time>
      </trkpt>
      <trkpt lat="42.78867" lon="2.39374">
        <ele>503.8</ele>
        <time>2021-06-06T11:35:52Z</time>
      </trkpt>
      <trkpt lat="42.78866" lon="2.39384">
        <ele>504.2</ele>
        <time>2021-06-06T11:35:56Z</time>
      </trkpt>
      <trkpt lat="42.78865" lon="2.39394">
        <ele>503.8</ele>
        <time>2021-06-06T11:36:00Z</time>
      </trkpt>
      <trkpt lat="42.78864" lon="2.39404">
        <ele>505</ele>
        <time>2021-06-06T11:36:04Z</time>
      </trkpt>
      <trkpt lat="42.78864" lon="2.39412">
        <ele>505.6</ele>
        <time>2021-06-06T11:36:07Z</time>
      </trkpt>
      <trkpt lat="42.78862" lon="2.39422">
        <ele>506</ele>
        <time>2021-06-06T11:36:11Z</time>
      </trkpt>
      <trkpt lat="42.78861" lon="2.39433">
        <ele>506.6</ele>
        <time>2021-06-06T11:36:15Z</time>
      </trkpt>
      <trkpt lat="42.7886" lon="2.39443">
        <ele>507</ele>
        <time>2021-06-06T11:36:19Z</time>
      </trkpt>
      <trkpt lat="42.78859" lon="2.39452">
        <ele>507.2</ele>
        <time>2021-06-06T11:36:23Z</time>
      </trkpt>
      <trkpt lat="42.78858" lon="2.39461">
        <ele>507.2</ele>
        <time>2021-06-06T11:36:27Z</time>
      </trkpt>
      <trkpt lat="42.78858" lon="2.3947">
        <ele>508.2</ele>
        <time>2021-06-06T11:36:31Z</time>
      </trkpt>
      <trkpt lat="42.78858" lon="2.39477">
        <ele>508.6</ele>
        <time>2021-06-06T11:36:34Z</time>
      </trkpt>
      <trkpt lat="42.78858" lon="2.39487">
        <ele>509.8</ele>
        <time>2021-06-06T11:36:38Z</time>
      </trkpt>
      <trkpt lat="42.78857" lon="2.39497">
        <ele>509.6</ele>
        <time>2021-06-06T11:36:42Z</time>
      </trkpt>
      <trkpt lat="42.78857" lon="2.39506">
        <ele>511</ele>
        <time>2021-06-06T11:36:46Z</time>
      </trkpt>
      <trkpt lat="42.78857" lon="2.39516">
        <ele>511</ele>
        <time>2021-06-06T11:36:50Z</time>
      </trkpt>
      <trkpt lat="42.78856" lon="2.39526">
        <ele>511.6</ele>
        <time>2021-06-06T11:36:54Z</time>
      </trkpt>
      <trkpt lat="42.78856" lon="2.39535">
        <ele>511</ele>
        <time>2021-06-06T11:36:58Z</time>
      </trkpt>
      <trkpt lat="42.78856" lon="2.39543">
        <ele>512.6</ele>
        <time>2021-06-06T11:37:01Z</time>
      </trkpt>
      <trkpt lat="42.78855" lon="2.39552">
        <ele>512.2</ele>
        <time>2021-06-06T11:37:05Z</time>
      </trkpt>
      <trkpt lat="42.78855" lon="2.39563">
        <ele>512.4</ele>
        <time>2021-06-06T11:37:09Z</time>
      </trkpt>
      <trkpt lat="42.78854" lon="2.39572">
        <ele>513.4</ele>
        <time>2021-06-06T11:37:13Z</time>
      </trkpt>
      <trkpt lat="42.78853" lon="2.39582">
        <ele>514</ele>
        <time>2021-06-06T11:37:17Z</time>
      </trkpt>
      <trkpt lat="42.78853" lon="2.39591">
        <ele>514.2</ele>
        <time>2021-06-06T11:37:21Z</time>
      </trkpt>
      <trkpt lat="42.78852" lon="2.39598">
        <ele>514.4</ele>
        <time>2021-06-06T11:37:24Z</time>
      </trkpt>
      <trkpt lat="42.78851" lon="2.39608">
        <ele>516.4</ele>
        <time>2021-06-06T11:37:28Z</time>
      </trkpt>
      <trkpt lat="42.78851" lon="2.39616">
        <ele>515.8</ele>
        <time>2021-06-06T11:37:32Z</time>
      </trkpt>
      <trkpt lat="42.78851" lon="2.39626">
        <ele>516.4</ele>
        <time>2021-06-06T11:37:36Z</time>
      </trkpt>
      <trkpt lat="42.78851" lon="2.39636">
        <ele>516.2</ele>
        <time>2021-06-06T11:37:40Z</time>
      </trkpt>
      <trkpt lat="42.78851" lon="2.39645">
        <ele>516.8</ele>
        <time>2021-06-06T11:37:44Z</time>
      </trkpt>
      <trkpt lat="42.7885" lon="2.39655">
        <ele>517.4</ele>
        <time>2021-06-06T11:37:48Z</time>
      </trkpt>
      <trkpt lat="42.78849" lon="2.39663">
        <ele>518.4</ele>
        <time>2021-06-06T11:37:51Z</time>
      </trkpt>
      <trkpt lat="42.78847" lon="2.39673">
        <ele>518.8</ele>
        <time>2021-06-06T11:37:55Z</time>
      </trkpt>
      <trkpt lat="42.78846" lon="2.39682">
        <ele>519</ele>
        <time>2021-06-06T11:37:59Z</time>
      </trkpt>
      <trkpt lat="42.78844" lon="2.39692">
        <ele>519.4</ele>
        <time>2021-06-06T11:38:03Z</time>
      </trkpt>
      <trkpt lat="42.78843" lon="2.39703">
        <ele>520.8</ele>
        <time>2021-06-06T11:38:07Z</time>
      </trkpt>
      <trkpt lat="42.78842" lon="2.39713">
        <ele>520.6</ele>
        <time>2021-06-06T11:38:11Z</time>
      </trkpt>
      <trkpt lat="42.78841" lon="2.39723">
        <ele>521.2</ele>
        <time>2021-06-06T11:38:15Z</time>
      </trkpt>
      <trkpt lat="42.7884" lon="2.39729">
        <ele>521.8</ele>
        <time>2021-06-06T11:38:18Z</time>
      </trkpt>
      <trkpt lat="42.78839" lon="2.39738">
        <ele>522.8</ele>
        <time>2021-06-06T11:38:22Z</time>
      </trkpt>
      <trkpt lat="42.78838" lon="2.39747">
        <ele>523.4</ele>
        <time>2021-06-06T11:38:26Z</time>
      </trkpt>
      <trkpt lat="42.78838" lon="2.39756">
        <ele>523.8</ele>
        <time>2021-06-06T11:38:30Z</time>
      </trkpt>
      <trkpt lat="42.78837" lon="2.39766">
        <ele>523.8</ele>
        <time>2021-06-06T11:38:34Z</time>
      </trkpt>
      <trkpt lat="42.78835" lon="2.39776">
        <ele>524.2</ele>
        <time>2021-06-06T11:38:38Z</time>
      </trkpt>
      <trkpt lat="42.78834" lon="2.39786">
        <ele>524.6</ele>
        <time>2021-06-06T11:38:42Z</time>
      </trkpt>
      <trkpt lat="42.78834" lon="2.39794">
        <ele>524.8</ele>
        <time>2021-06-06T11:38:45Z</time>
      </trkpt>
      <trkpt lat="42.78833" lon="2.39803">
        <ele>525.8</ele>
        <time>2021-06-06T11:38:49Z</time>
      </trkpt>
      <trkpt lat="42.78833" lon="2.39812">
        <ele>524.8</ele>
        <time>2021-06-06T11:38:53Z</time>
      </trkpt>
      <trkpt lat="42.78833" lon="2.39821">
        <ele>525.4</ele>
        <time>2021-06-06T11:38:57Z</time>
      </trkpt>
      <trkpt lat="42.78831" lon="2.3983">
        <ele>525.8</ele>
        <time>2021-06-06T11:39:01Z</time>
      </trkpt>
      <trkpt lat="42.78829" lon="2.39839">
        <ele>526.8</ele>
        <time>2021-06-06T11:39:05Z</time>
      </trkpt>
      <trkpt lat="42.78828" lon="2.39849">
        <ele>527.4</ele>
        <time>2021-06-06T11:39:09Z</time>
      </trkpt>
      <trkpt lat="42.78827" lon="2.39856">
        <ele>527.8</ele>
        <time>2021-06-06T11:39:12Z</time>
      </trkpt>
      <trkpt lat="42.78826" lon="2.39866">
        <ele>528</ele>
        <time>2021-06-06T11:39:16Z</time>
      </trkpt>
      <trkpt lat="42.78824" lon="2.39876">
        <ele>528.8</ele>
        <time>2021-06-06T11:39:20Z</time>
      </trkpt>
      <trkpt lat="42.78823" lon="2.39886">
        <ele>529.6</ele>
        <time>2021-06-06T11:39:24Z</time>
      </trkpt>
      <trkpt lat="42.78821" lon="2.39896">
        <ele>530</ele>
        <time>2021-06-06T11:39:28Z</time>
      </trkpt>
      <trkpt lat="42.7882" lon="2.39906">
        <ele>530.4</ele>
        <time>2021-06-06T11:39:32Z</time>
      </trkpt>
      <trkpt lat="42.78819" lon="2.39916">
        <ele>530.8</ele>
        <time>2021-06-06T11:39:36Z</time>
      </trkpt>
      <trkpt lat="42.78818" lon="2.39923">
        <ele>531.6</ele>
        <time>2021-06-06T11:39:39Z</time>
      </trkpt>
      <trkpt lat="42.78818" lon="2.39935">
        <ele>532.6</ele>
        <time>2021-06-06T11:39:43Z</time>
      </trkpt>
      <trkpt lat="42.78818" lon="2.39946">
        <ele>534.2</ele>
        <time>2021-06-06T11:39:47Z</time>
      </trkpt>
      <trkpt lat="42.7882" lon="2.39955">
        <ele>535</ele>
        <time>2021-06-06T11:39:51Z</time>
      </trkpt>
      <trkpt lat="42.78822" lon="2.39964">
        <ele>534.4</ele>
        <time>2021-06-06T11:39:55Z</time>
      </trkpt>
      <trkpt lat="42.78824" lon="2.39973">
        <ele>534.6</ele>
        <time>2021-06-06T11:39:59Z</time>
      </trkpt>
      <trkpt lat="42.78825" lon="2.39981">
        <ele>535</ele>
        <time>2021-06-06T11:40:02Z</time>
      </trkpt>
      <trkpt lat="42.78827" lon="2.39991">
        <ele>535.6</ele>
        <time>2021-06-06T11:40:06Z</time>
      </trkpt>
      <trkpt lat="42.78827" lon="2.4">
        <ele>536.8</ele>
        <time>2021-06-06T11:40:10Z</time>
      </trkpt>
      <trkpt lat="42.78827" lon="2.40009">
        <ele>536.6</ele>
        <time>2021-06-06T11:40:14Z</time>
      </trkpt>
      <trkpt lat="42.78826" lon="2.40019">
        <ele>537.2</ele>
        <time>2021-06-06T11:40:18Z</time>
      </trkpt>
      <trkpt lat="42.78826" lon="2.40029">
        <ele>538</ele>
        <time>2021-06-06T11:40:22Z</time>
      </trkpt>
      <trkpt lat="42.78824" lon="2.40039">
        <ele>537.6</ele>
        <time>2021-06-06T11:40:26Z</time>
      </trkpt>
      <trkpt lat="42.78823" lon="2.40048">
        <ele>537</ele>
        <time>2021-06-06T11:40:29Z</time>
      </trkpt>
      <trkpt lat="42.78822" lon="2.40059">
        <ele>537.6</ele>
        <time>2021-06-06T11:40:33Z</time>
      </trkpt>
      <trkpt lat="42.7882" lon="2.40069">
        <ele>538.4</ele>
        <time>2021-06-06T11:40:37Z</time>
      </trkpt>
      <trkpt lat="42.78818" lon="2.40079">
        <ele>539.2</ele>
        <time>2021-06-06T11:40:41Z</time>
      </trkpt>
      <trkpt lat="42.78814" lon="2.40088">
        <ele>539</ele>
        <time>2021-06-06T11:40:45Z</time>
      </trkpt>
      <trkpt lat="42.78811" lon="2.40098">
        <ele>540</ele>
        <time>2021-06-06T11:40:49Z</time>
      </trkpt>
      <trkpt lat="42.78808" lon="2.40107">
        <ele>540.4</ele>
        <time>2021-06-06T11:40:53Z</time>
      </trkpt>
      <trkpt lat="42.78805" lon="2.40115">
        <ele>541.4</ele>
        <time>2021-06-06T11:40:56Z</time>
      </trkpt>
      <trkpt lat="42.78803" lon="2.40124">
        <ele>542</ele>
        <time>2021-06-06T11:41:00Z</time>
      </trkpt>
      <trkpt lat="42.788" lon="2.40133">
        <ele>542.6</ele>
        <time>2021-06-06T11:41:04Z</time>
      </trkpt>
      <trkpt lat="42.78796" lon="2.40142">
        <ele>543.6</ele>
        <time>2021-06-06T11:41:08Z</time>
      </trkpt>
      <trkpt lat="42.78793" lon="2.40151">
        <ele>543.6</ele>
        <time>2021-06-06T11:41:12Z</time>
      </trkpt>
      <trkpt lat="42.7879" lon="2.4016">
        <ele>544.4</ele>
        <time>2021-06-06T11:41:16Z</time>
      </trkpt>
      <trkpt lat="42.78787" lon="2.40169">
        <ele>545.2</ele>
        <time>2021-06-06T11:41:20Z</time>
      </trkpt>
      <trkpt lat="42.78785" lon="2.40175">
        <ele>544.8</ele>
        <time>2021-06-06T11:41:23Z</time>
      </trkpt>
      <trkpt lat="42.78782" lon="2.40183">
        <ele>547.2</ele>
        <time>2021-06-06T11:41:27Z</time>
      </trkpt>
      <trkpt lat="42.78781" lon="2.40191">
        <ele>546.6</ele>
        <time>2021-06-06T11:41:31Z</time>
      </trkpt>
      <trkpt lat="42.78778" lon="2.40199">
        <ele>547.6</ele>
        <time>2021-06-06T11:41:35Z</time>
      </trkpt>
      <trkpt lat="42.78775" lon="2.40207">
        <ele>548.2</ele>
        <time>2021-06-06T11:41:39Z</time>
      </trkpt>
      <trkpt lat="42.78773" lon="2.40215">
        <ele>548</ele>
        <time>2021-06-06T11:41:43Z</time>
      </trkpt>
      <trkpt lat="42.78771" lon="2.40222">
        <ele>547.6</ele>
        <time>2021-06-06T11:41:47Z</time>
      </trkpt>
      <trkpt lat="42.78772" lon="2.40226">
        <ele>547.6</ele>
        <time>2021-06-06T11:41:50Z</time>
      </trkpt>
      <trkpt lat="42.78772" lon="2.40228">
        <ele>548.8</ele>
        <time>2021-06-06T11:41:54Z</time>
      </trkpt>
      <trkpt lat="42.78772" lon="2.40227">
        <ele>547.6</ele>
        <time>2021-06-06T11:41:58Z</time>
      </trkpt>
      <trkpt lat="42.78753" lon="2.40273">
        <ele>546.2</ele>
        <time>2021-06-06T11:43:10Z</time>
      </trkpt>
      <trkpt lat="42.78745" lon="2.403">
        <ele>544.6</ele>
        <time>2021-06-06T11:43:14Z</time>
      </trkpt>
      <trkpt lat="42.78737" lon="2.40326">
        <ele>543.2</ele>
        <time>2021-06-06T11:43:18Z</time>
      </trkpt>
      <trkpt lat="42.78729" lon="2.4035">
        <ele>543</ele>
        <time>2021-06-06T11:43:22Z</time>
      </trkpt>
      <trkpt lat="42.78723" lon="2.40366">
        <ele>543</ele>
        <time>2021-06-06T11:43:25Z</time>
      </trkpt>
      <trkpt lat="42.78714" lon="2.40393">
        <ele>542.4</ele>
        <time>2021-06-06T11:43:29Z</time>
      </trkpt>
      <trkpt lat="42.78702" lon="2.40426">
        <ele>541</ele>
        <time>2021-06-06T11:43:33Z</time>
      </trkpt>
      <trkpt lat="42.78684" lon="2.40458">
        <ele>539</ele>
        <time>2021-06-06T11:43:37Z</time>
      </trkpt>
      <trkpt lat="42.78668" lon="2.40495">
        <ele>538</ele>
        <time>2021-06-06T11:43:41Z</time>
      </trkpt>
      <trkpt lat="42.78655" lon="2.4054">
        <ele>537</ele>
        <time>2021-06-06T11:43:45Z</time>
      </trkpt>
      <trkpt lat="42.78646" lon="2.40575">
        <ele>535.4</ele>
        <time>2021-06-06T11:43:48Z</time>
      </trkpt>
      <trkpt lat="42.78631" lon="2.40626">
        <ele>532.8</ele>
        <time>2021-06-06T11:43:52Z</time>
      </trkpt>
      <trkpt lat="42.78612" lon="2.40676">
        <ele>531.4</ele>
        <time>2021-06-06T11:43:56Z</time>
      </trkpt>
      <trkpt lat="42.78592" lon="2.40727">
        <ele>530.2</ele>
        <time>2021-06-06T11:44:00Z</time>
      </trkpt>
      <trkpt lat="42.78574" lon="2.40777">
        <ele>528.6</ele>
        <time>2021-06-06T11:44:04Z</time>
      </trkpt>
      <trkpt lat="42.78557" lon="2.40828">
        <ele>527.4</ele>
        <time>2021-06-06T11:44:08Z</time>
      </trkpt>
      <trkpt lat="42.78538" lon="2.40871">
        <ele>526.8</ele>
        <time>2021-06-06T11:44:12Z</time>
      </trkpt>
      <trkpt lat="42.78528" lon="2.40903">
        <ele>525.6</ele>
        <time>2021-06-06T11:44:15Z</time>
      </trkpt>
      <trkpt lat="42.78523" lon="2.40948">
        <ele>524</ele>
        <time>2021-06-06T11:44:19Z</time>
      </trkpt>
      <trkpt lat="42.78518" lon="2.40997">
        <ele>523</ele>
        <time>2021-06-06T11:44:23Z</time>
      </trkpt>
      <trkpt lat="42.78513" lon="2.41045">
        <ele>521.8</ele>
        <time>2021-06-06T11:44:27Z</time>
      </trkpt>
      <trkpt lat="42.78507" lon="2.41094">
        <ele>521</ele>
        <time>2021-06-06T11:44:31Z</time>
      </trkpt>
      <trkpt lat="42.78496" lon="2.41141">
        <ele>519.2</ele>
        <time>2021-06-06T11:44:35Z</time>
      </trkpt>
      <trkpt lat="42.78483" lon="2.41189">
        <ele>518</ele>
        <time>2021-06-06T11:44:39Z</time>
      </trkpt>
      <trkpt lat="42.78482" lon="2.41226">
        <ele>516.6</ele>
        <time>2021-06-06T11:44:42Z</time>
      </trkpt>
      <trkpt lat="42.78485" lon="2.4128">
        <ele>516.2</ele>
        <time>2021-06-06T11:44:46Z</time>
      </trkpt>
      <trkpt lat="42.78486" lon="2.41331">
        <ele>514</ele>
        <time>2021-06-06T11:44:50Z</time>
      </trkpt>
      <trkpt lat="42.78481" lon="2.41381">
        <ele>513</ele>
        <time>2021-06-06T11:44:54Z</time>
      </trkpt>
      <trkpt lat="42.78476" lon="2.41432">
        <ele>512.4</ele>
        <time>2021-06-06T11:44:58Z</time>
      </trkpt>
      <trkpt lat="42.78477" lon="2.41483">
        <ele>511.4</ele>
        <time>2021-06-06T11:45:02Z</time>
      </trkpt>
      <trkpt lat="42.78479" lon="2.41532">
        <ele>509.8</ele>
        <time>2021-06-06T11:45:06Z</time>
      </trkpt>
      <trkpt lat="42.78485" lon="2.41568">
        <ele>508.8</ele>
        <time>2021-06-06T11:45:09Z</time>
      </trkpt>
      <trkpt lat="42.78489" lon="2.41618">
        <ele>507.8</ele>
        <time>2021-06-06T11:45:13Z</time>
      </trkpt>
      <trkpt lat="42.7849" lon="2.41668">
        <ele>505.8</ele>
        <time>2021-06-06T11:45:17Z</time>
      </trkpt>
      <trkpt lat="42.78486" lon="2.41718">
        <ele>504.8</ele>
        <time>2021-06-06T11:45:21Z</time>
      </trkpt>
      <trkpt lat="42.7848" lon="2.41769">
        <ele>504.2</ele>
        <time>2021-06-06T11:45:25Z</time>
      </trkpt>
      <trkpt lat="42.78474" lon="2.41819">
        <ele>502.8</ele>
        <time>2021-06-06T11:45:29Z</time>
      </trkpt>
      <trkpt lat="42.7847" lon="2.41869">
        <ele>500.6</ele>
        <time>2021-06-06T11:45:33Z</time>
      </trkpt>
      <trkpt lat="42.78466" lon="2.41908">
        <ele>500.6</ele>
        <time>2021-06-06T11:45:36Z</time>
      </trkpt>
      <trkpt lat="42.78468" lon="2.4196">
        <ele>500.2</ele>
        <time>2021-06-06T11:45:40Z</time>
      </trkpt>
      <trkpt lat="42.78474" lon="2.4201">
        <ele>497.2</ele>
        <time>2021-06-06T11:45:44Z</time>
      </trkpt>
      <trkpt lat="42.78477" lon="2.42063">
        <ele>497.2</ele>
        <time>2021-06-06T11:45:48Z</time>
      </trkpt>
      <trkpt lat="42.78478" lon="2.42116">
        <ele>496.6</ele>
        <time>2021-06-06T11:45:52Z</time>
      </trkpt>
      <trkpt lat="42.7848" lon="2.4217">
        <ele>495.8</ele>
        <time>2021-06-06T11:45:56Z</time>
      </trkpt>
      <trkpt lat="42.78482" lon="2.42211">
        <ele>495.2</ele>
        <time>2021-06-06T11:45:59Z</time>
      </trkpt>
      <trkpt lat="42.78483" lon="2.42266">
        <ele>493.8</ele>
        <time>2021-06-06T11:46:03Z</time>
      </trkpt>
      <trkpt lat="42.78481" lon="2.42321">
        <ele>492.8</ele>
        <time>2021-06-06T11:46:07Z</time>
      </trkpt>
      <trkpt lat="42.7848" lon="2.42376">
        <ele>491.8</ele>
        <time>2021-06-06T11:46:11Z</time>
      </trkpt>
      <trkpt lat="42.7848" lon="2.42429">
        <ele>490.4</ele>
        <time>2021-06-06T11:46:15Z</time>
      </trkpt>
      <trkpt lat="42.78479" lon="2.42482">
        <ele>489.4</ele>
        <time>2021-06-06T11:46:19Z</time>
      </trkpt>
      <trkpt lat="42.78477" lon="2.42533">
        <ele>488.2</ele>
        <time>2021-06-06T11:46:23Z</time>
      </trkpt>
      <trkpt lat="42.78475" lon="2.42571">
        <ele>487.2</ele>
        <time>2021-06-06T11:46:26Z</time>
      </trkpt>
      <trkpt lat="42.78473" lon="2.42621">
        <ele>486.4</ele>
        <time>2021-06-06T11:46:30Z</time>
      </trkpt>
      <trkpt lat="42.78472" lon="2.4267">
        <ele>485.4</ele>
        <time>2021-06-06T11:46:34Z</time>
      </trkpt>
      <trkpt lat="42.78471" lon="2.42718">
        <ele>484.2</ele>
        <time>2021-06-06T11:46:38Z</time>
      </trkpt>
      <trkpt lat="42.7847" lon="2.42766">
        <ele>484.4</ele>
        <time>2021-06-06T11:46:42Z</time>
      </trkpt>
      <trkpt lat="42.78466" lon="2.42813">
        <ele>485</ele>
        <time>2021-06-06T11:46:46Z</time>
      </trkpt>
      <trkpt lat="42.78461" lon="2.42861">
        <ele>484.2</ele>
        <time>2021-06-06T11:46:50Z</time>
      </trkpt>
      <trkpt lat="42.78457" lon="2.42895">
        <ele>483.4</ele>
        <time>2021-06-06T11:46:53Z</time>
      </trkpt>
      <trkpt lat="42.7845" lon="2.42935">
        <ele>483.2</ele>
        <time>2021-06-06T11:46:57Z</time>
      </trkpt>
      <trkpt lat="42.78434" lon="2.42969">
        <ele>483</ele>
        <time>2021-06-06T11:47:01Z</time>
      </trkpt>
      <trkpt lat="42.7841" lon="2.42986">
        <ele>482.6</ele>
        <time>2021-06-06T11:47:05Z</time>
      </trkpt>
      <trkpt lat="42.78387" lon="2.43003">
        <ele>484.4</ele>
        <time>2021-06-06T11:47:09Z</time>
      </trkpt>
      <trkpt lat="42.7837" lon="2.43023">
        <ele>484.6</ele>
        <time>2021-06-06T11:47:13Z</time>
      </trkpt>
      <trkpt lat="42.78359" lon="2.43047">
        <ele>485.2</ele>
        <time>2021-06-06T11:47:17Z</time>
      </trkpt>
      <trkpt lat="42.78355" lon="2.43066">
        <ele>485.2</ele>
        <time>2021-06-06T11:47:20Z</time>
      </trkpt>
      <trkpt lat="42.78353" lon="2.43091">
        <ele>487</ele>
        <time>2021-06-06T11:47:24Z</time>
      </trkpt>
      <trkpt lat="42.78345" lon="2.43118">
        <ele>486.8</ele>
        <time>2021-06-06T11:47:28Z</time>
      </trkpt>
      <trkpt lat="42.78339" lon="2.43132">
        <ele>487.6</ele>
        <time>2021-06-06T11:47:32Z</time>
      </trkpt>
      <trkpt lat="42.7833" lon="2.43152">
        <ele>487.4</ele>
        <time>2021-06-06T11:47:36Z</time>
      </trkpt>
      <trkpt lat="42.78319" lon="2.43174">
        <ele>487.4</ele>
        <time>2021-06-06T11:47:40Z</time>
      </trkpt>
      <trkpt lat="42.78309" lon="2.43197">
        <ele>486.6</ele>
        <time>2021-06-06T11:47:44Z</time>
      </trkpt>
      <trkpt lat="42.78297" lon="2.43222">
        <ele>486.6</ele>
        <time>2021-06-06T11:47:47Z</time>
      </trkpt>
      <trkpt lat="42.78288" lon="2.43241">
        <ele>486.4</ele>
        <time>2021-06-06T11:47:51Z</time>
      </trkpt>
      <trkpt lat="42.78275" lon="2.4327">
        <ele>485.2</ele>
        <time>2021-06-06T11:47:55Z</time>
      </trkpt>
      <trkpt lat="42.78261" lon="2.43301">
        <ele>484</ele>
        <time>2021-06-06T11:47:59Z</time>
      </trkpt>
      <trkpt lat="42.78245" lon="2.43335">
        <ele>483</ele>
        <time>2021-06-06T11:48:03Z</time>
      </trkpt>
      <trkpt lat="42.78227" lon="2.43372">
        <ele>481.8</ele>
        <time>2021-06-06T11:48:07Z</time>
      </trkpt>
      <trkpt lat="42.782" lon="2.43404">
        <ele>480.6</ele>
        <time>2021-06-06T11:48:11Z</time>
      </trkpt>
      <trkpt lat="42.78175" lon="2.43422">
        <ele>480.6</ele>
        <time>2021-06-06T11:48:14Z</time>
      </trkpt>
      <trkpt lat="42.78144" lon="2.43449">
        <ele>479</ele>
        <time>2021-06-06T11:48:18Z</time>
      </trkpt>
      <trkpt lat="42.78109" lon="2.43487">
        <ele>476.4</ele>
        <time>2021-06-06T11:48:22Z</time>
      </trkpt>
      <trkpt lat="42.78092" lon="2.43511">
        <ele>475.4</ele>
        <time>2021-06-06T11:48:26Z</time>
      </trkpt>
      <trkpt lat="42.78071" lon="2.43545">
        <ele>473.8</ele>
        <time>2021-06-06T11:48:30Z</time>
      </trkpt>
      <trkpt lat="42.78053" lon="2.43577">
        <ele>472.8</ele>
        <time>2021-06-06T11:48:34Z</time>
      </trkpt>
      <trkpt lat="42.78047" lon="2.43616">
        <ele>472.6</ele>
        <time>2021-06-06T11:48:37Z</time>
      </trkpt>
      <trkpt lat="42.78051" lon="2.43646">
        <ele>471.6</ele>
        <time>2021-06-06T11:48:41Z</time>
      </trkpt>
      <trkpt lat="42.78047" lon="2.43684">
        <ele>470.4</ele>
        <time>2021-06-06T11:48:45Z</time>
      </trkpt>
      <trkpt lat="42.78026" lon="2.43709">
        <ele>470.6</ele>
        <time>2021-06-06T11:48:49Z</time>
      </trkpt>
      <trkpt lat="42.78003" lon="2.43746">
        <ele>470.2</ele>
        <time>2021-06-06T11:48:53Z</time>
      </trkpt>
      <trkpt lat="42.77989" lon="2.43782">
        <ele>469.2</ele>
        <time>2021-06-06T11:48:57Z</time>
      </trkpt>
      <trkpt lat="42.77978" lon="2.43825">
        <ele>467.6</ele>
        <time>2021-06-06T11:49:01Z</time>
      </trkpt>
      <trkpt lat="42.77973" lon="2.43847">
        <ele>466.2</ele>
        <time>2021-06-06T11:49:04Z</time>
      </trkpt>
      <trkpt lat="42.77963" lon="2.43895">
        <ele>465</ele>
        <time>2021-06-06T11:49:08Z</time>
      </trkpt>
      <trkpt lat="42.77962" lon="2.43945">
        <ele>464</ele>
        <time>2021-06-06T11:49:12Z</time>
      </trkpt>
      <trkpt lat="42.7796" lon="2.43995">
        <ele>462.2</ele>
        <time>2021-06-06T11:49:16Z</time>
      </trkpt>
      <trkpt lat="42.77952" lon="2.44044">
        <ele>461.2</ele>
        <time>2021-06-06T11:49:20Z</time>
      </trkpt>
      <trkpt lat="42.77945" lon="2.44108">
        <ele>459.8</ele>
        <time>2021-06-06T11:49:24Z</time>
      </trkpt>
      <trkpt lat="42.77936" lon="2.44159">
        <ele>458.6</ele>
        <time>2021-06-06T11:49:28Z</time>
      </trkpt>
      <trkpt lat="42.77923" lon="2.44193">
        <ele>458.2</ele>
        <time>2021-06-06T11:49:31Z</time>
      </trkpt>
      <trkpt lat="42.77909" lon="2.44244">
        <ele>456</ele>
        <time>2021-06-06T11:49:35Z</time>
      </trkpt>
      <trkpt lat="42.77899" lon="2.44302">
        <ele>453.6</ele>
        <time>2021-06-06T11:49:39Z</time>
      </trkpt>
      <trkpt lat="42.77886" lon="2.44364">
        <ele>450.4</ele>
        <time>2021-06-06T11:49:43Z</time>
      </trkpt>
      <trkpt lat="42.7787" lon="2.44428">
        <ele>447.4</ele>
        <time>2021-06-06T11:49:47Z</time>
      </trkpt>
      <trkpt lat="42.77843" lon="2.44487">
        <ele>444.4</ele>
        <time>2021-06-06T11:49:51Z</time>
      </trkpt>
      <trkpt lat="42.77825" lon="2.44552">
        <ele>441</ele>
        <time>2021-06-06T11:49:55Z</time>
      </trkpt>
      <trkpt lat="42.77808" lon="2.44598">
        <ele>439.2</ele>
        <time>2021-06-06T11:49:58Z</time>
      </trkpt>
      <trkpt lat="42.77781" lon="2.44649">
        <ele>439.4</ele>
        <time>2021-06-06T11:50:02Z</time>
      </trkpt>
      <trkpt lat="42.77765" lon="2.44696">
        <ele>440.8</ele>
        <time>2021-06-06T11:50:06Z</time>
      </trkpt>
      <trkpt lat="42.7775" lon="2.44738">
        <ele>440.2</ele>
        <time>2021-06-06T11:50:10Z</time>
      </trkpt>
      <trkpt lat="42.77738" lon="2.44778">
        <ele>440.6</ele>
        <time>2021-06-06T11:50:14Z</time>
      </trkpt>
      <trkpt lat="42.7773" lon="2.44817">
        <ele>441</ele>
        <time>2021-06-06T11:50:18Z</time>
      </trkpt>
      <trkpt lat="42.77723" lon="2.44855">
        <ele>441</ele>
        <time>2021-06-06T11:50:22Z</time>
      </trkpt>
      <trkpt lat="42.77717" lon="2.44883">
        <ele>441.4</ele>
        <time>2021-06-06T11:50:25Z</time>
      </trkpt>
      <trkpt lat="42.77703" lon="2.44917">
        <ele>441.4</ele>
        <time>2021-06-06T11:50:29Z</time>
      </trkpt>
      <trkpt lat="42.77686" lon="2.44947">
        <ele>441.6</ele>
        <time>2021-06-06T11:50:33Z</time>
      </trkpt>
      <trkpt lat="42.77666" lon="2.44978">
        <ele>440.4</ele>
        <time>2021-06-06T11:50:37Z</time>
      </trkpt>
      <trkpt lat="42.77648" lon="2.45016">
        <ele>438.4</ele>
        <time>2021-06-06T11:50:41Z</time>
      </trkpt>
      <trkpt lat="42.77629" lon="2.45063">
        <ele>436.2</ele>
        <time>2021-06-06T11:50:45Z</time>
      </trkpt>
      <trkpt lat="42.77602" lon="2.4511">
        <ele>433.6</ele>
        <time>2021-06-06T11:50:49Z</time>
      </trkpt>
      <trkpt lat="42.77581" lon="2.45145">
        <ele>433</ele>
        <time>2021-06-06T11:50:52Z</time>
      </trkpt>
      <trkpt lat="42.77547" lon="2.45175">
        <ele>432.8</ele>
        <time>2021-06-06T11:50:56Z</time>
      </trkpt>
      <trkpt lat="42.77509" lon="2.45172">
        <ele>433</ele>
        <time>2021-06-06T11:51:00Z</time>
      </trkpt>
      <trkpt lat="42.77478" lon="2.45169">
        <ele>434</ele>
        <time>2021-06-06T11:51:04Z</time>
      </trkpt>
      <trkpt lat="42.77455" lon="2.45178">
        <ele>434.8</ele>
        <time>2021-06-06T11:51:08Z</time>
      </trkpt>
      <trkpt lat="42.77439" lon="2.45193">
        <ele>434.2</ele>
        <time>2021-06-06T11:51:12Z</time>
      </trkpt>
      <trkpt lat="42.7743" lon="2.45212">
        <ele>434.2</ele>
        <time>2021-06-06T11:51:15Z</time>
      </trkpt>
      <trkpt lat="42.77415" lon="2.45236">
        <ele>432.8</ele>
        <time>2021-06-06T11:51:19Z</time>
      </trkpt>
      <trkpt lat="42.77398" lon="2.45248">
        <ele>433.2</ele>
        <time>2021-06-06T11:51:23Z</time>
      </trkpt>
      <trkpt lat="42.77382" lon="2.45265">
        <ele>433.2</ele>
        <time>2021-06-06T11:51:27Z</time>
      </trkpt>
      <trkpt lat="42.77369" lon="2.45287">
        <ele>433.2</ele>
        <time>2021-06-06T11:51:31Z</time>
      </trkpt>
      <trkpt lat="42.77358" lon="2.45311">
        <ele>432.8</ele>
        <time>2021-06-06T11:51:35Z</time>
      </trkpt>
      <trkpt lat="42.77346" lon="2.45336">
        <ele>432</ele>
        <time>2021-06-06T11:51:39Z</time>
      </trkpt>
      <trkpt lat="42.77336" lon="2.45353">
        <ele>431.6</ele>
        <time>2021-06-06T11:51:42Z</time>
      </trkpt>
      <trkpt lat="42.7732" lon="2.45376">
        <ele>431.4</ele>
        <time>2021-06-06T11:51:46Z</time>
      </trkpt>
      <trkpt lat="42.77304" lon="2.45404">
        <ele>431.2</ele>
        <time>2021-06-06T11:51:50Z</time>
      </trkpt>
      <trkpt lat="42.77286" lon="2.45431">
        <ele>431</ele>
        <time>2021-06-06T11:51:54Z</time>
      </trkpt>
      <trkpt lat="42.77265" lon="2.45453">
        <ele>430</ele>
        <time>2021-06-06T11:51:58Z</time>
      </trkpt>
      <trkpt lat="42.77244" lon="2.45474">
        <ele>429.6</ele>
        <time>2021-06-06T11:52:02Z</time>
      </trkpt>
      <trkpt lat="42.77223" lon="2.45489">
        <ele>429.4</ele>
        <time>2021-06-06T11:52:06Z</time>
      </trkpt>
      <trkpt lat="42.77207" lon="2.45479">
        <ele>429</ele>
        <time>2021-06-06T11:52:09Z</time>
      </trkpt>
      <trkpt lat="42.77192" lon="2.45449">
        <ele>427.8</ele>
        <time>2021-06-06T11:52:13Z</time>
      </trkpt>
      <trkpt lat="42.77173" lon="2.4542">
        <ele>426.6</ele>
        <time>2021-06-06T11:52:17Z</time>
      </trkpt>
      <trkpt lat="42.77155" lon="2.45395">
        <ele>426.2</ele>
        <time>2021-06-06T11:52:21Z</time>
      </trkpt>
      <trkpt lat="42.77138" lon="2.45376">
        <ele>426</ele>
        <time>2021-06-06T11:52:25Z</time>
      </trkpt>
      <trkpt lat="42.7712" lon="2.45369">
        <ele>425.6</ele>
        <time>2021-06-06T11:52:29Z</time>
      </trkpt>
      <trkpt lat="42.77104" lon="2.45378">
        <ele>426.2</ele>
        <time>2021-06-06T11:52:33Z</time>
      </trkpt>
      <trkpt lat="42.77102" lon="2.45394">
        <ele>429.4</ele>
        <time>2021-06-06T11:52:36Z</time>
      </trkpt>
      <trkpt lat="42.77106" lon="2.45411">
        <ele>427.2</ele>
        <time>2021-06-06T11:52:40Z</time>
      </trkpt>
      <trkpt lat="42.77113" lon="2.45426">
        <ele>428.2</ele>
        <time>2021-06-06T11:52:44Z</time>
      </trkpt>
      <trkpt lat="42.77119" lon="2.4544">
        <ele>430</ele>
        <time>2021-06-06T11:52:48Z</time>
      </trkpt>
      <trkpt lat="42.77122" lon="2.45456">
        <ele>429.6</ele>
        <time>2021-06-06T11:52:52Z</time>
      </trkpt>
      <trkpt lat="42.77124" lon="2.45471">
        <ele>430.6</ele>
        <time>2021-06-06T11:52:56Z</time>
      </trkpt>
      <trkpt lat="42.77123" lon="2.45486">
        <ele>432</ele>
        <time>2021-06-06T11:53:00Z</time>
      </trkpt>
      <trkpt lat="42.77121" lon="2.45496">
        <ele>432.6</ele>
        <time>2021-06-06T11:53:03Z</time>
      </trkpt>
      <trkpt lat="42.77118" lon="2.45507">
        <ele>433.2</ele>
        <time>2021-06-06T11:53:07Z</time>
      </trkpt>
      <trkpt lat="42.77114" lon="2.45518">
        <ele>433.8</ele>
        <time>2021-06-06T11:53:11Z</time>
      </trkpt>
      <trkpt lat="42.7711" lon="2.45528">
        <ele>433.8</ele>
        <time>2021-06-06T11:53:15Z</time>
      </trkpt>
      <trkpt lat="42.77106" lon="2.45537">
        <ele>435.2</ele>
        <time>2021-06-06T11:53:19Z</time>
      </trkpt>
      <trkpt lat="42.77104" lon="2.45546">
        <ele>434.8</ele>
        <time>2021-06-06T11:53:23Z</time>
      </trkpt>
      <trkpt lat="42.77102" lon="2.45552">
        <ele>435.2</ele>
        <time>2021-06-06T11:53:26Z</time>
      </trkpt>
      <trkpt lat="42.771" lon="2.4556">
        <ele>436.4</ele>
        <time>2021-06-06T11:53:30Z</time>
      </trkpt>
      <trkpt lat="42.77097" lon="2.4557">
        <ele>437.4</ele>
        <time>2021-06-06T11:53:34Z</time>
      </trkpt>
      <trkpt lat="42.77094" lon="2.45579">
        <ele>438.8</ele>
        <time>2021-06-06T11:53:38Z</time>
      </trkpt>
      <trkpt lat="42.77092" lon="2.45589">
        <ele>439.6</ele>
        <time>2021-06-06T11:53:42Z</time>
      </trkpt>
      <trkpt lat="42.7709" lon="2.45599">
        <ele>440</ele>
        <time>2021-06-06T11:53:46Z</time>
      </trkpt>
      <trkpt lat="42.77087" lon="2.45609">
        <ele>440.8</ele>
        <time>2021-06-06T11:53:50Z</time>
      </trkpt>
      <trkpt lat="42.77084" lon="2.45616">
        <ele>441.4</ele>
        <time>2021-06-06T11:53:53Z</time>
      </trkpt>
      <trkpt lat="42.7708" lon="2.45623">
        <ele>442</ele>
        <time>2021-06-06T11:53:57Z</time>
      </trkpt>
      <trkpt lat="42.77073" lon="2.45626">
        <ele>442</ele>
        <time>2021-06-06T11:54:01Z</time>
      </trkpt>
      <trkpt lat="42.77062" lon="2.45628">
        <ele>441.8</ele>
        <time>2021-06-06T11:54:05Z</time>
      </trkpt>
      <trkpt lat="42.77051" lon="2.45626">
        <ele>441.6</ele>
        <time>2021-06-06T11:54:09Z</time>
      </trkpt>
      <trkpt lat="42.77037" lon="2.45626">
        <ele>441.4</ele>
        <time>2021-06-06T11:54:13Z</time>
      </trkpt>
      <trkpt lat="42.7702" lon="2.45632">
        <ele>440.6</ele>
        <time>2021-06-06T11:54:17Z</time>
      </trkpt>
      <trkpt lat="42.77005" lon="2.45643">
        <ele>439.4</ele>
        <time>2021-06-06T11:54:20Z</time>
      </trkpt>
      <trkpt lat="42.76986" lon="2.45668">
        <ele>437.2</ele>
        <time>2021-06-06T11:54:24Z</time>
      </trkpt>
      <trkpt lat="42.76964" lon="2.45699">
        <ele>435.4</ele>
        <time>2021-06-06T11:54:28Z</time>
      </trkpt>
      <trkpt lat="42.76935" lon="2.45713">
        <ele>434.4</ele>
        <time>2021-06-06T11:54:32Z</time>
      </trkpt>
      <trkpt lat="42.76908" lon="2.45691">
        <ele>432.6</ele>
        <time>2021-06-06T11:54:36Z</time>
      </trkpt>
      <trkpt lat="42.76879" lon="2.4567">
        <ele>431.2</ele>
        <time>2021-06-06T11:54:40Z</time>
      </trkpt>
      <trkpt lat="42.76845" lon="2.45661">
        <ele>429.2</ele>
        <time>2021-06-06T11:54:44Z</time>
      </trkpt>
      <trkpt lat="42.76819" lon="2.45654">
        <ele>427.4</ele>
        <time>2021-06-06T11:54:47Z</time>
      </trkpt>
      <trkpt lat="42.76785" lon="2.45655">
        <ele>425.6</ele>
        <time>2021-06-06T11:54:51Z</time>
      </trkpt>
      <trkpt lat="42.76779" lon="2.45692">
        <ele>425.8</ele>
        <time>2021-06-06T11:54:55Z</time>
      </trkpt>
      <trkpt lat="42.76787" lon="2.45722">
        <ele>426.6</ele>
        <time>2021-06-06T11:54:59Z</time>
      </trkpt>
      <trkpt lat="42.76792" lon="2.45744">
        <ele>427.2</ele>
        <time>2021-06-06T11:55:03Z</time>
      </trkpt>
      <trkpt lat="42.76794" lon="2.45762">
        <ele>429</ele>
        <time>2021-06-06T11:55:07Z</time>
      </trkpt>
      <trkpt lat="42.76795" lon="2.45777">
        <ele>429.4</ele>
        <time>2021-06-06T11:55:11Z</time>
      </trkpt>
      <trkpt lat="42.76796" lon="2.45788">
        <ele>429.8</ele>
        <time>2021-06-06T11:55:14Z</time>
      </trkpt>
      <trkpt lat="42.76794" lon="2.45803">
        <ele>431</ele>
        <time>2021-06-06T11:55:18Z</time>
      </trkpt>
      <trkpt lat="42.76789" lon="2.45816">
        <ele>431.4</ele>
        <time>2021-06-06T11:55:22Z</time>
      </trkpt>
      <trkpt lat="42.76783" lon="2.45826">
        <ele>432.2</ele>
        <time>2021-06-06T11:55:26Z</time>
      </trkpt>
      <trkpt lat="42.76777" lon="2.45837">
        <ele>433.2</ele>
        <time>2021-06-06T11:55:30Z</time>
      </trkpt>
      <trkpt lat="42.76771" lon="2.45847">
        <ele>434</ele>
        <time>2021-06-06T11:55:34Z</time>
      </trkpt>
      <trkpt lat="42.76765" lon="2.45856">
        <ele>433.8</ele>
        <time>2021-06-06T11:55:38Z</time>
      </trkpt>
      <trkpt lat="42.76759" lon="2.45864">
        <ele>434.6</ele>
        <time>2021-06-06T11:55:41Z</time>
      </trkpt>
      <trkpt lat="42.76748" lon="2.45874">
        <ele>433.6</ele>
        <time>2021-06-06T11:55:45Z</time>
      </trkpt>
      <trkpt lat="42.76735" lon="2.4589">
        <ele>432.2</ele>
        <time>2021-06-06T11:55:49Z</time>
      </trkpt>
      <trkpt lat="42.76722" lon="2.4591">
        <ele>431.8</ele>
        <time>2021-06-06T11:55:53Z</time>
      </trkpt>
      <trkpt lat="42.76712" lon="2.45935">
        <ele>431.2</ele>
        <time>2021-06-06T11:55:57Z</time>
      </trkpt>
      <trkpt lat="42.76703" lon="2.45966">
        <ele>429.6</ele>
        <time>2021-06-06T11:56:01Z</time>
      </trkpt>
      <trkpt lat="42.76698" lon="2.45993">
        <ele>428.4</ele>
        <time>2021-06-06T11:56:04Z</time>
      </trkpt>
      <trkpt lat="42.76692" lon="2.46034">
        <ele>426.8</ele>
        <time>2021-06-06T11:56:08Z</time>
      </trkpt>
      <trkpt lat="42.76686" lon="2.46078">
        <ele>425.6</ele>
        <time>2021-06-06T11:56:12Z</time>
      </trkpt>
      <trkpt lat="42.76673" lon="2.46125">
        <ele>424.2</ele>
        <time>2021-06-06T11:56:16Z</time>
      </trkpt>
      <trkpt lat="42.76665" lon="2.46172">
        <ele>422.4</ele>
        <time>2021-06-06T11:56:20Z</time>
      </trkpt>
      <trkpt lat="42.76658" lon="2.46217">
        <ele>421</ele>
        <time>2021-06-06T11:56:24Z</time>
      </trkpt>
      <trkpt lat="42.76662" lon="2.46262">
        <ele>419.8</ele>
        <time>2021-06-06T11:56:28Z</time>
      </trkpt>
      <trkpt lat="42.76676" lon="2.46291">
        <ele>418</ele>
        <time>2021-06-06T11:56:31Z</time>
      </trkpt>
      <trkpt lat="42.76696" lon="2.46327">
        <ele>415.8</ele>
        <time>2021-06-06T11:56:35Z</time>
      </trkpt>
      <trkpt lat="42.76713" lon="2.46362">
        <ele>411.8</ele>
        <time>2021-06-06T11:56:39Z</time>
      </trkpt>
      <trkpt lat="42.76735" lon="2.46384">
        <ele>408</ele>
        <time>2021-06-06T11:56:43Z</time>
      </trkpt>
      <trkpt lat="42.76758" lon="2.46403">
        <ele>407.2</ele>
        <time>2021-06-06T11:56:47Z</time>
      </trkpt>
      <trkpt lat="42.76784" lon="2.46416">
        <ele>407.8</ele>
        <time>2021-06-06T11:56:51Z</time>
      </trkpt>
      <trkpt lat="42.76815" lon="2.46421">
        <ele>407.4</ele>
        <time>2021-06-06T11:56:55Z</time>
      </trkpt>
      <trkpt lat="42.76835" lon="2.4643">
        <ele>405.4</ele>
        <time>2021-06-06T11:56:58Z</time>
      </trkpt>
      <trkpt lat="42.76861" lon="2.46444">
        <ele>407.2</ele>
        <time>2021-06-06T11:57:02Z</time>
      </trkpt>
      <trkpt lat="42.76889" lon="2.46464">
        <ele>407.4</ele>
        <time>2021-06-06T11:57:06Z</time>
      </trkpt>
      <trkpt lat="42.76912" lon="2.46496">
        <ele>408</ele>
        <time>2021-06-06T11:57:10Z</time>
      </trkpt>
      <trkpt lat="42.76913" lon="2.46541">
        <ele>408.2</ele>
        <time>2021-06-06T11:57:14Z</time>
      </trkpt>
      <trkpt lat="42.76893" lon="2.46582">
        <ele>407.6</ele>
        <time>2021-06-06T11:57:18Z</time>
      </trkpt>
      <trkpt lat="42.76864" lon="2.4661">
        <ele>404</ele>
        <time>2021-06-06T11:57:22Z</time>
      </trkpt>
      <trkpt lat="42.76837" lon="2.46617">
        <ele>401.4</ele>
        <time>2021-06-06T11:57:25Z</time>
      </trkpt>
      <trkpt lat="42.76798" lon="2.4661">
        <ele>403</ele>
        <time>2021-06-06T11:57:29Z</time>
      </trkpt>
      <trkpt lat="42.76762" lon="2.46618">
        <ele>399.6</ele>
        <time>2021-06-06T11:57:33Z</time>
      </trkpt>
      <trkpt lat="42.76737" lon="2.46653">
        <ele>395.6</ele>
        <time>2021-06-06T11:57:37Z</time>
      </trkpt>
      <trkpt lat="42.76723" lon="2.46699">
        <ele>391.4</ele>
        <time>2021-06-06T11:57:41Z</time>
      </trkpt>
      <trkpt lat="42.7672" lon="2.46747">
        <ele>388.8</ele>
        <time>2021-06-06T11:57:45Z</time>
      </trkpt>
      <trkpt lat="42.76711" lon="2.46787">
        <ele>389</ele>
        <time>2021-06-06T11:57:49Z</time>
      </trkpt>
      <trkpt lat="42.7669" lon="2.46794">
        <ele>389.2</ele>
        <time>2021-06-06T11:57:52Z</time>
      </trkpt>
      <trkpt lat="42.76658" lon="2.4679">
        <ele>387</ele>
        <time>2021-06-06T11:57:56Z</time>
      </trkpt>
      <trkpt lat="42.76624" lon="2.46788">
        <ele>384.8</ele>
        <time>2021-06-06T11:58:00Z</time>
      </trkpt>
      <trkpt lat="42.76598" lon="2.46808">
        <ele>382.8</ele>
        <time>2021-06-06T11:58:04Z</time>
      </trkpt>
      <trkpt lat="42.76582" lon="2.4685">
        <ele>379.6</ele>
        <time>2021-06-06T11:58:08Z</time>
      </trkpt>
      <trkpt lat="42.76572" lon="2.46896">
        <ele>375.8</ele>
        <time>2021-06-06T11:58:12Z</time>
      </trkpt>
      <trkpt lat="42.7656" lon="2.4693">
        <ele>373.4</ele>
        <time>2021-06-06T11:58:15Z</time>
      </trkpt>
      <trkpt lat="42.76541" lon="2.46977">
        <ele>370.6</ele>
        <time>2021-06-06T11:58:19Z</time>
      </trkpt>
      <trkpt lat="42.76527" lon="2.47029">
        <ele>368.6</ele>
        <time>2021-06-06T11:58:23Z</time>
      </trkpt>
      <trkpt lat="42.76523" lon="2.47084">
        <ele>364.4</ele>
        <time>2021-06-06T11:58:27Z</time>
      </trkpt>
      <trkpt lat="42.76525" lon="2.47135">
        <ele>362</ele>
        <time>2021-06-06T11:58:31Z</time>
      </trkpt>
      <trkpt lat="42.76537" lon="2.47185">
        <ele>360.4</ele>
        <time>2021-06-06T11:58:35Z</time>
      </trkpt>
      <trkpt lat="42.76558" lon="2.47233">
        <ele>358.6</ele>
        <time>2021-06-06T11:58:39Z</time>
      </trkpt>
      <trkpt lat="42.76564" lon="2.4727">
        <ele>356.8</ele>
        <time>2021-06-06T11:58:42Z</time>
      </trkpt>
      <trkpt lat="42.76555" lon="2.4731">
        <ele>354.4</ele>
        <time>2021-06-06T11:58:46Z</time>
      </trkpt>
      <trkpt lat="42.76523" lon="2.4732">
        <ele>353.2</ele>
        <time>2021-06-06T11:58:50Z</time>
      </trkpt>
      <trkpt lat="42.76498" lon="2.47332">
        <ele>352.8</ele>
        <time>2021-06-06T11:58:54Z</time>
      </trkpt>
      <trkpt lat="42.76482" lon="2.47359">
        <ele>352.4</ele>
        <time>2021-06-06T11:58:58Z</time>
      </trkpt>
      <trkpt lat="42.76465" lon="2.47367">
        <ele>353.2</ele>
        <time>2021-06-06T11:59:02Z</time>
      </trkpt>
      <trkpt lat="42.76448" lon="2.47369">
        <ele>353.6</ele>
        <time>2021-06-06T11:59:06Z</time>
      </trkpt>
      <trkpt lat="42.7644" lon="2.47373">
        <ele>353.2</ele>
        <time>2021-06-06T11:59:09Z</time>
      </trkpt>
      <trkpt lat="42.7644" lon="2.47374">
        <ele>352.6</ele>
        <time>2021-06-06T11:59:13Z</time>
      </trkpt>
      <trkpt lat="42.7644" lon="2.47374">
        <ele>353.6</ele>
        <time>2021-06-06T11:59:17Z</time>
      </trkpt>
      <trkpt lat="42.76415" lon="2.47419">
        <ele>351.2</ele>
        <time>2021-06-06T11:59:30Z</time>
      </trkpt>
      <trkpt lat="42.76396" lon="2.47439">
        <ele>349.2</ele>
        <time>2021-06-06T11:59:34Z</time>
      </trkpt>
      <trkpt lat="42.76371" lon="2.47455">
        <ele>346.8</ele>
        <time>2021-06-06T11:59:38Z</time>
      </trkpt>
      <trkpt lat="42.76351" lon="2.47486">
        <ele>345.2</ele>
        <time>2021-06-06T11:59:42Z</time>
      </trkpt>
      <trkpt lat="42.76338" lon="2.47518">
        <ele>343.6</ele>
        <time>2021-06-06T11:59:45Z</time>
      </trkpt>
      <trkpt lat="42.76306" lon="2.47542">
        <ele>342.2</ele>
        <time>2021-06-06T11:59:49Z</time>
      </trkpt>
      <trkpt lat="42.76269" lon="2.47569">
        <ele>339</ele>
        <time>2021-06-06T11:59:53Z</time>
      </trkpt>
      <trkpt lat="42.7623" lon="2.476">
        <ele>336</ele>
        <time>2021-06-06T11:59:57Z</time>
      </trkpt>
      <trkpt lat="42.76191" lon="2.47634">
        <ele>333</ele>
        <time>2021-06-06T12:00:01Z</time>
      </trkpt>
      <trkpt lat="42.76148" lon="2.4766">
        <ele>329.6</ele>
        <time>2021-06-06T12:00:05Z</time>
      </trkpt>
      <trkpt lat="42.76103" lon="2.47675">
        <ele>326.4</ele>
        <time>2021-06-06T12:00:09Z</time>
      </trkpt>
      <trkpt lat="42.76072" lon="2.47691">
        <ele>324.6</ele>
        <time>2021-06-06T12:00:12Z</time>
      </trkpt>
      <trkpt lat="42.76035" lon="2.47723">
        <ele>321.2</ele>
        <time>2021-06-06T12:00:16Z</time>
      </trkpt>
      <trkpt lat="42.76007" lon="2.47766">
        <ele>318.2</ele>
        <time>2021-06-06T12:00:20Z</time>
      </trkpt>
      <trkpt lat="42.75978" lon="2.47774">
        <ele>317.8</ele>
        <time>2021-06-06T12:00:24Z</time>
      </trkpt>
      <trkpt lat="42.75954" lon="2.47784">
        <ele>317</ele>
        <time>2021-06-06T12:00:28Z</time>
      </trkpt>
      <trkpt lat="42.75941" lon="2.47815">
        <ele>316.4</ele>
        <time>2021-06-06T12:00:32Z</time>
      </trkpt>
      <trkpt lat="42.7593" lon="2.47847">
        <ele>316.2</ele>
        <time>2021-06-06T12:00:36Z</time>
      </trkpt>
      <trkpt lat="42.7592" lon="2.47869">
        <ele>315.6</ele>
        <time>2021-06-06T12:00:39Z</time>
      </trkpt>
      <trkpt lat="42.75907" lon="2.47898">
        <ele>315.2</ele>
        <time>2021-06-06T12:00:43Z</time>
      </trkpt>
      <trkpt lat="42.75893" lon="2.47924">
        <ele>314.8</ele>
        <time>2021-06-06T12:00:47Z</time>
      </trkpt>
      <trkpt lat="42.75878" lon="2.47952">
        <ele>314.2</ele>
        <time>2021-06-06T12:00:51Z</time>
      </trkpt>
      <trkpt lat="42.75859" lon="2.47976">
        <ele>313.6</ele>
        <time>2021-06-06T12:00:55Z</time>
      </trkpt>
      <trkpt lat="42.75841" lon="2.47998">
        <ele>313.4</ele>
        <time>2021-06-06T12:00:59Z</time>
      </trkpt>
      <trkpt lat="42.75831" lon="2.48019">
        <ele>313.2</ele>
        <time>2021-06-06T12:01:02Z</time>
      </trkpt>
      <trkpt lat="42.75836" lon="2.48052">
        <ele>312.6</ele>
        <time>2021-06-06T12:01:06Z</time>
      </trkpt>
      <trkpt lat="42.75839" lon="2.48077">
        <ele>312.4</ele>
        <time>2021-06-06T12:01:10Z</time>
      </trkpt>
      <trkpt lat="42.75839" lon="2.48102">
        <ele>312.2</ele>
        <time>2021-06-06T12:01:14Z</time>
      </trkpt>
      <trkpt lat="42.75841" lon="2.48127">
        <ele>312.4</ele>
        <time>2021-06-06T12:01:18Z</time>
      </trkpt>
      <trkpt lat="42.75843" lon="2.48153">
        <ele>312.4</ele>
        <time>2021-06-06T12:01:22Z</time>
      </trkpt>
      <trkpt lat="42.7585" lon="2.48177">
        <ele>312</ele>
        <time>2021-06-06T12:01:26Z</time>
      </trkpt>
      <trkpt lat="42.75857" lon="2.48198">
        <ele>312.4</ele>
        <time>2021-06-06T12:01:29Z</time>
      </trkpt>
      <trkpt lat="42.75866" lon="2.48229">
        <ele>311.8</ele>
        <time>2021-06-06T12:01:33Z</time>
      </trkpt>
      <trkpt lat="42.75878" lon="2.48259">
        <ele>311.4</ele>
        <time>2021-06-06T12:01:37Z</time>
      </trkpt>
      <trkpt lat="42.7589" lon="2.48288">
        <ele>311.6</ele>
        <time>2021-06-06T12:01:41Z</time>
      </trkpt>
      <trkpt lat="42.75873" lon="2.48312">
        <ele>311.8</ele>
        <time>2021-06-06T12:01:45Z</time>
      </trkpt>
      <trkpt lat="42.75849" lon="2.48326">
        <ele>312.6</ele>
        <time>2021-06-06T12:01:49Z</time>
      </trkpt>
      <trkpt lat="42.75826" lon="2.48338">
        <ele>313.2</ele>
        <time>2021-06-06T12:01:53Z</time>
      </trkpt>
      <trkpt lat="42.75809" lon="2.48347">
        <ele>312.8</ele>
        <time>2021-06-06T12:01:56Z</time>
      </trkpt>
      <trkpt lat="42.75787" lon="2.48357">
        <ele>312.4</ele>
        <time>2021-06-06T12:02:00Z</time>
      </trkpt>
      <trkpt lat="42.75767" lon="2.48368">
        <ele>312.2</ele>
        <time>2021-06-06T12:02:04Z</time>
      </trkpt>
      <trkpt lat="42.7575" lon="2.48384">
        <ele>312</ele>
        <time>2021-06-06T12:02:08Z</time>
      </trkpt>
      <trkpt lat="42.75739" lon="2.48411">
        <ele>312</ele>
        <time>2021-06-06T12:02:12Z</time>
      </trkpt>
      <trkpt lat="42.75732" lon="2.48443">
        <ele>311.4</ele>
        <time>2021-06-06T12:02:16Z</time>
      </trkpt>
      <trkpt lat="42.75728" lon="2.48472">
        <ele>311.4</ele>
        <time>2021-06-06T12:02:20Z</time>
      </trkpt>
      <trkpt lat="42.75724" lon="2.48493">
        <ele>312.8</ele>
        <time>2021-06-06T12:02:23Z</time>
      </trkpt>
      <trkpt lat="42.75719" lon="2.48518">
        <ele>311.6</ele>
        <time>2021-06-06T12:02:27Z</time>
      </trkpt>
      <trkpt lat="42.75717" lon="2.48545">
        <ele>310.8</ele>
        <time>2021-06-06T12:02:31Z</time>
      </trkpt>
      <trkpt lat="42.7572" lon="2.48575">
        <ele>310.8</ele>
        <time>2021-06-06T12:02:35Z</time>
      </trkpt>
      <trkpt lat="42.75706" lon="2.48598">
        <ele>311</ele>
        <time>2021-06-06T12:02:39Z</time>
      </trkpt>
      <trkpt lat="42.75684" lon="2.48587">
        <ele>309</ele>
        <time>2021-06-06T12:02:43Z</time>
      </trkpt>
      <trkpt lat="42.75667" lon="2.48568">
        <ele>308.2</ele>
        <time>2021-06-06T12:02:47Z</time>
      </trkpt>
      <trkpt lat="42.75659" lon="2.48547">
        <ele>310</ele>
        <time>2021-06-06T12:02:50Z</time>
      </trkpt>
      <trkpt lat="42.75647" lon="2.48519">
        <ele>309.2</ele>
        <time>2021-06-06T12:02:54Z</time>
      </trkpt>
      <trkpt lat="42.75627" lon="2.48504">
        <ele>308.8</ele>
        <time>2021-06-06T12:02:58Z</time>
      </trkpt>
      <trkpt lat="42.75605" lon="2.48498">
        <ele>308.6</ele>
        <time>2021-06-06T12:03:02Z</time>
      </trkpt>
      <trkpt lat="42.75582" lon="2.48501">
        <ele>307.4</ele>
        <time>2021-06-06T12:03:06Z</time>
      </trkpt>
      <trkpt lat="42.75559" lon="2.48494">
        <ele>306.2</ele>
        <time>2021-06-06T12:03:10Z</time>
      </trkpt>
      <trkpt lat="42.75545" lon="2.48468">
        <ele>305.8</ele>
        <time>2021-06-06T12:03:14Z</time>
      </trkpt>
      <trkpt lat="42.75538" lon="2.4845">
        <ele>305.6</ele>
        <time>2021-06-06T12:03:17Z</time>
      </trkpt>
      <trkpt lat="42.75515" lon="2.48442">
        <ele>305.8</ele>
        <time>2021-06-06T12:03:21Z</time>
      </trkpt>
      <trkpt lat="42.75508" lon="2.48471">
        <ele>303.6</ele>
        <time>2021-06-06T12:03:25Z</time>
      </trkpt>
      <trkpt lat="42.75508" lon="2.48509">
        <ele>301.2</ele>
        <time>2021-06-06T12:03:29Z</time>
      </trkpt>
      <trkpt lat="42.75495" lon="2.48548">
        <ele>299.8</ele>
        <time>2021-06-06T12:03:33Z</time>
      </trkpt>
      <trkpt lat="42.7548" lon="2.48586">
        <ele>298.4</ele>
        <time>2021-06-06T12:03:37Z</time>
      </trkpt>
      <trkpt lat="42.75469" lon="2.48615">
        <ele>298.2</ele>
        <time>2021-06-06T12:03:40Z</time>
      </trkpt>
      <trkpt lat="42.75453" lon="2.48654">
        <ele>296.8</ele>
        <time>2021-06-06T12:03:44Z</time>
      </trkpt>
      <trkpt lat="42.75437" lon="2.48695">
        <ele>295.4</ele>
        <time>2021-06-06T12:03:48Z</time>
      </trkpt>
      <trkpt lat="42.75425" lon="2.48739">
        <ele>295.2</ele>
        <time>2021-06-06T12:03:52Z</time>
      </trkpt>
      <trkpt lat="42.75411" lon="2.48785">
        <ele>294</ele>
        <time>2021-06-06T12:03:56Z</time>
      </trkpt>
      <trkpt lat="42.75423" lon="2.48828">
        <ele>292.6</ele>
        <time>2021-06-06T12:04:00Z</time>
      </trkpt>
      <trkpt lat="42.75431" lon="2.48869">
        <ele>291.4</ele>
        <time>2021-06-06T12:04:04Z</time>
      </trkpt>
      <trkpt lat="42.75434" lon="2.489">
        <ele>290</ele>
        <time>2021-06-06T12:04:07Z</time>
      </trkpt>
      <trkpt lat="42.7544" lon="2.48938">
        <ele>289.2</ele>
        <time>2021-06-06T12:04:11Z</time>
      </trkpt>
      <trkpt lat="42.75453" lon="2.48973">
        <ele>289.2</ele>
        <time>2021-06-06T12:04:15Z</time>
      </trkpt>
      <trkpt lat="42.75467" lon="2.49006">
        <ele>287.8</ele>
        <time>2021-06-06T12:04:19Z</time>
      </trkpt>
      <trkpt lat="42.75473" lon="2.49044">
        <ele>289.2</ele>
        <time>2021-06-06T12:04:23Z</time>
      </trkpt>
      <trkpt lat="42.75463" lon="2.49079">
        <ele>290.4</ele>
        <time>2021-06-06T12:04:27Z</time>
      </trkpt>
      <trkpt lat="42.75447" lon="2.49109">
        <ele>290</ele>
        <time>2021-06-06T12:04:31Z</time>
      </trkpt>
      <trkpt lat="42.75434" lon="2.4913">
        <ele>290</ele>
        <time>2021-06-06T12:04:34Z</time>
      </trkpt>
      <trkpt lat="42.75413" lon="2.49154">
        <ele>289.8</ele>
        <time>2021-06-06T12:04:38Z</time>
      </trkpt>
      <trkpt lat="42.75396" lon="2.49183">
        <ele>290</ele>
        <time>2021-06-06T12:04:42Z</time>
      </trkpt>
      <trkpt lat="42.75393" lon="2.49221">
        <ele>288.6</ele>
        <time>2021-06-06T12:04:46Z</time>
      </trkpt>
      <trkpt lat="42.75384" lon="2.49261">
        <ele>285.4</ele>
        <time>2021-06-06T12:04:50Z</time>
      </trkpt>
      <trkpt lat="42.75364" lon="2.49291">
        <ele>285</ele>
        <time>2021-06-06T12:04:54Z</time>
      </trkpt>
      <trkpt lat="42.75329" lon="2.49285">
        <ele>282.2</ele>
        <time>2021-06-06T12:04:58Z</time>
      </trkpt>
      <trkpt lat="42.753" lon="2.49281">
        <ele>279</ele>
        <time>2021-06-06T12:05:01Z</time>
      </trkpt>
      <trkpt lat="42.75262" lon="2.49293">
        <ele>276</ele>
        <time>2021-06-06T12:05:05Z</time>
      </trkpt>
      <trkpt lat="42.75233" lon="2.49317">
        <ele>271.8</ele>
        <time>2021-06-06T12:05:09Z</time>
      </trkpt>
      <trkpt lat="42.75208" lon="2.49321">
        <ele>268.6</ele>
        <time>2021-06-06T12:05:13Z</time>
      </trkpt>
      <trkpt lat="42.7519" lon="2.49308">
        <ele>268.6</ele>
        <time>2021-06-06T12:05:17Z</time>
      </trkpt>
      <trkpt lat="42.75184" lon="2.49319">
        <ele>269.4</ele>
        <time>2021-06-06T12:05:21Z</time>
      </trkpt>
      <trkpt lat="42.75194" lon="2.49336">
        <ele>266.8</ele>
        <time>2021-06-06T12:05:25Z</time>
      </trkpt>
      <trkpt lat="42.75206" lon="2.49346">
        <ele>265.8</ele>
        <time>2021-06-06T12:05:28Z</time>
      </trkpt>
      <trkpt lat="42.75227" lon="2.49349">
        <ele>265</ele>
        <time>2021-06-06T12:05:32Z</time>
      </trkpt>
      <trkpt lat="42.75251" lon="2.49342">
        <ele>264</ele>
        <time>2021-06-06T12:05:36Z</time>
      </trkpt>
      <trkpt lat="42.75278" lon="2.49345">
        <ele>263.4</ele>
        <time>2021-06-06T12:05:40Z</time>
      </trkpt>
      <trkpt lat="42.75307" lon="2.49347">
        <ele>262</ele>
        <time>2021-06-06T12:05:44Z</time>
      </trkpt>
      <trkpt lat="42.75335" lon="2.49361">
        <ele>260.4</ele>
        <time>2021-06-06T12:05:48Z</time>
      </trkpt>
      <trkpt lat="42.75353" lon="2.49374">
        <ele>260</ele>
        <time>2021-06-06T12:05:51Z</time>
      </trkpt>
      <trkpt lat="42.75364" lon="2.49409">
        <ele>260</ele>
        <time>2021-06-06T12:05:55Z</time>
      </trkpt>
      <trkpt lat="42.75358" lon="2.49442">
        <ele>259.8</ele>
        <time>2021-06-06T12:05:59Z</time>
      </trkpt>
      <trkpt lat="42.75347" lon="2.49471">
        <ele>260.4</ele>
        <time>2021-06-06T12:06:03Z</time>
      </trkpt>
      <trkpt lat="42.75337" lon="2.49499">
        <ele>260</ele>
        <time>2021-06-06T12:06:07Z</time>
      </trkpt>
      <trkpt lat="42.75328" lon="2.49529">
        <ele>260</ele>
        <time>2021-06-06T12:06:11Z</time>
      </trkpt>
      <trkpt lat="42.7533" lon="2.4956">
        <ele>260</ele>
        <time>2021-06-06T12:06:15Z</time>
      </trkpt>
      <trkpt lat="42.75333" lon="2.49582">
        <ele>260</ele>
        <time>2021-06-06T12:06:18Z</time>
      </trkpt>
      <trkpt lat="42.7533" lon="2.49611">
        <ele>259.6</ele>
        <time>2021-06-06T12:06:22Z</time>
      </trkpt>
      <trkpt lat="42.7532" lon="2.49637">
        <ele>259.8</ele>
        <time>2021-06-06T12:06:26Z</time>
      </trkpt>
      <trkpt lat="42.75311" lon="2.4966">
        <ele>258.6</ele>
        <time>2021-06-06T12:06:30Z</time>
      </trkpt>
      <trkpt lat="42.75303" lon="2.49685">
        <ele>258.2</ele>
        <time>2021-06-06T12:06:34Z</time>
      </trkpt>
      <trkpt lat="42.75299" lon="2.49712">
        <ele>257.4</ele>
        <time>2021-06-06T12:06:38Z</time>
      </trkpt>
      <trkpt lat="42.75297" lon="2.4974">
        <ele>258</ele>
        <time>2021-06-06T12:06:42Z</time>
      </trkpt>
      <trkpt lat="42.75295" lon="2.4976">
        <ele>258</ele>
        <time>2021-06-06T12:06:45Z</time>
      </trkpt>
      <trkpt lat="42.75291" lon="2.49786">
        <ele>256.8</ele>
        <time>2021-06-06T12:06:49Z</time>
      </trkpt>
      <trkpt lat="42.75287" lon="2.49812">
        <ele>255.8</ele>
        <time>2021-06-06T12:06:53Z</time>
      </trkpt>
      <trkpt lat="42.75275" lon="2.49834">
        <ele>255.8</ele>
        <time>2021-06-06T12:06:57Z</time>
      </trkpt>
      <trkpt lat="42.75261" lon="2.49854">
        <ele>256.4</ele>
        <time>2021-06-06T12:07:01Z</time>
      </trkpt>
      <trkpt lat="42.75248" lon="2.49875">
        <ele>254.6</ele>
        <time>2021-06-06T12:07:05Z</time>
      </trkpt>
      <trkpt lat="42.75232" lon="2.49895">
        <ele>255</ele>
        <time>2021-06-06T12:07:09Z</time>
      </trkpt>
      <trkpt lat="42.75218" lon="2.49906">
        <ele>256.6</ele>
        <time>2021-06-06T12:07:12Z</time>
      </trkpt>
      <trkpt lat="42.75205" lon="2.49929">
        <ele>256</ele>
        <time>2021-06-06T12:07:16Z</time>
      </trkpt>
      <trkpt lat="42.75196" lon="2.49956">
        <ele>254.6</ele>
        <time>2021-06-06T12:07:20Z</time>
      </trkpt>
      <trkpt lat="42.75189" lon="2.49984">
        <ele>255.2</ele>
        <time>2021-06-06T12:07:24Z</time>
      </trkpt>
      <trkpt lat="42.75186" lon="2.50015">
        <ele>255</ele>
        <time>2021-06-06T12:07:28Z</time>
      </trkpt>
      <trkpt lat="42.75194" lon="2.50045">
        <ele>254.8</ele>
        <time>2021-06-06T12:07:32Z</time>
      </trkpt>
      <trkpt lat="42.75204" lon="2.50074">
        <ele>254.8</ele>
        <time>2021-06-06T12:07:36Z</time>
      </trkpt>
      <trkpt lat="42.75207" lon="2.50099">
        <ele>254.4</ele>
        <time>2021-06-06T12:07:39Z</time>
      </trkpt>
      <trkpt lat="42.75206" lon="2.5013">
        <ele>254.2</ele>
        <time>2021-06-06T12:07:43Z</time>
      </trkpt>
      <trkpt lat="42.75204" lon="2.50161">
        <ele>253.6</ele>
        <time>2021-06-06T12:07:47Z</time>
      </trkpt>
      <trkpt lat="42.75202" lon="2.50191">
        <ele>253.8</ele>
        <time>2021-06-06T12:07:51Z</time>
      </trkpt>
      <trkpt lat="42.75206" lon="2.50223">
        <ele>253.6</ele>
        <time>2021-06-06T12:07:55Z</time>
      </trkpt>
      <trkpt lat="42.75214" lon="2.50254">
        <ele>253.2</ele>
        <time>2021-06-06T12:07:59Z</time>
      </trkpt>
      <trkpt lat="42.75222" lon="2.50284">
        <ele>253.6</ele>
        <time>2021-06-06T12:08:03Z</time>
      </trkpt>
      <trkpt lat="42.75224" lon="2.50308">
        <ele>253.2</ele>
        <time>2021-06-06T12:08:06Z</time>
      </trkpt>
      <trkpt lat="42.75221" lon="2.50339">
        <ele>253</ele>
        <time>2021-06-06T12:08:10Z</time>
      </trkpt>
      <trkpt lat="42.75223" lon="2.50368">
        <ele>252.8</ele>
        <time>2021-06-06T12:08:14Z</time>
      </trkpt>
      <trkpt lat="42.75233" lon="2.50392">
        <ele>252.6</ele>
        <time>2021-06-06T12:08:18Z</time>
      </trkpt>
      <trkpt lat="42.75236" lon="2.50421">
        <ele>252</ele>
        <time>2021-06-06T12:08:22Z</time>
      </trkpt>
      <trkpt lat="42.75224" lon="2.50444">
        <ele>252</ele>
        <time>2021-06-06T12:08:26Z</time>
      </trkpt>
      <trkpt lat="42.75214" lon="2.50458">
        <ele>252.4</ele>
        <time>2021-06-06T12:08:29Z</time>
      </trkpt>
      <trkpt lat="42.75205" lon="2.50479">
        <ele>253.2</ele>
        <time>2021-06-06T12:08:33Z</time>
      </trkpt>
      <trkpt lat="42.75202" lon="2.505">
        <ele>253.6</ele>
        <time>2021-06-06T12:08:37Z</time>
      </trkpt>
      <trkpt lat="42.75199" lon="2.5052">
        <ele>253.6</ele>
        <time>2021-06-06T12:08:41Z</time>
      </trkpt>
      <trkpt lat="42.75194" lon="2.50538">
        <ele>254.4</ele>
        <time>2021-06-06T12:08:45Z</time>
      </trkpt>
      <trkpt lat="42.75189" lon="2.50555">
        <ele>255.6</ele>
        <time>2021-06-06T12:08:49Z</time>
      </trkpt>
      <trkpt lat="42.75185" lon="2.50572">
        <ele>256.6</ele>
        <time>2021-06-06T12:08:53Z</time>
      </trkpt>
      <trkpt lat="42.75182" lon="2.50587">
        <ele>256.4</ele>
        <time>2021-06-06T12:08:56Z</time>
      </trkpt>
      <trkpt lat="42.75178" lon="2.50608">
        <ele>256.4</ele>
        <time>2021-06-06T12:09:00Z</time>
      </trkpt>
      <trkpt lat="42.75175" lon="2.50632">
        <ele>255.8</ele>
        <time>2021-06-06T12:09:04Z</time>
      </trkpt>
      <trkpt lat="42.75173" lon="2.50658">
        <ele>255.4</ele>
        <time>2021-06-06T12:09:08Z</time>
      </trkpt>
      <trkpt lat="42.75168" lon="2.50682">
        <ele>255.2</ele>
        <time>2021-06-06T12:09:12Z</time>
      </trkpt>
      <trkpt lat="42.75162" lon="2.50706">
        <ele>255</ele>
        <time>2021-06-06T12:09:16Z</time>
      </trkpt>
      <trkpt lat="42.75153" lon="2.50729">
        <ele>254.4</ele>
        <time>2021-06-06T12:09:20Z</time>
      </trkpt>
      <trkpt lat="42.75146" lon="2.50746">
        <ele>254.2</ele>
        <time>2021-06-06T12:09:23Z</time>
      </trkpt>
      <trkpt lat="42.75137" lon="2.50771">
        <ele>254.2</ele>
        <time>2021-06-06T12:09:27Z</time>
      </trkpt>
      <trkpt lat="42.75128" lon="2.50795">
        <ele>254.4</ele>
        <time>2021-06-06T12:09:31Z</time>
      </trkpt>
      <trkpt lat="42.75118" lon="2.50818">
        <ele>254.6</ele>
        <time>2021-06-06T12:09:35Z</time>
      </trkpt>
      <trkpt lat="42.75112" lon="2.50842">
        <ele>254.4</ele>
        <time>2021-06-06T12:09:39Z</time>
      </trkpt>
      <trkpt lat="42.7512" lon="2.50864">
        <ele>253.8</ele>
        <time>2021-06-06T12:09:43Z</time>
      </trkpt>
      <trkpt lat="42.75136" lon="2.50876">
        <ele>254.8</ele>
        <time>2021-06-06T12:09:47Z</time>
      </trkpt>
      <trkpt lat="42.75149" lon="2.50885">
        <ele>255</ele>
        <time>2021-06-06T12:09:50Z</time>
      </trkpt>
      <trkpt lat="42.75165" lon="2.50896">
        <ele>254.8</ele>
        <time>2021-06-06T12:09:54Z</time>
      </trkpt>
      <trkpt lat="42.75183" lon="2.50904">
        <ele>254.8</ele>
        <time>2021-06-06T12:09:58Z</time>
      </trkpt>
      <trkpt lat="42.75201" lon="2.5091">
        <ele>254.6</ele>
        <time>2021-06-06T12:10:02Z</time>
      </trkpt>
      <trkpt lat="42.75218" lon="2.50923">
        <ele>254</ele>
        <time>2021-06-06T12:10:06Z</time>
      </trkpt>
      <trkpt lat="42.75227" lon="2.50944">
        <ele>253.6</ele>
        <time>2021-06-06T12:10:10Z</time>
      </trkpt>
      <trkpt lat="42.75238" lon="2.50965">
        <ele>253.4</ele>
        <time>2021-06-06T12:10:14Z</time>
      </trkpt>
      <trkpt lat="42.75245" lon="2.50983">
        <ele>253.2</ele>
        <time>2021-06-06T12:10:17Z</time>
      </trkpt>
      <trkpt lat="42.75253" lon="2.51007">
        <ele>253</ele>
        <time>2021-06-06T12:10:21Z</time>
      </trkpt>
      <trkpt lat="42.75263" lon="2.51029">
        <ele>253.4</ele>
        <time>2021-06-06T12:10:25Z</time>
      </trkpt>
      <trkpt lat="42.75279" lon="2.51029">
        <ele>253</ele>
        <time>2021-06-06T12:10:29Z</time>
      </trkpt>
      <trkpt lat="42.75295" lon="2.51017">
        <ele>253.4</ele>
        <time>2021-06-06T12:10:33Z</time>
      </trkpt>
      <trkpt lat="42.75312" lon="2.51009">
        <ele>253.2</ele>
        <time>2021-06-06T12:10:37Z</time>
      </trkpt>
      <trkpt lat="42.7533" lon="2.51004">
        <ele>253</ele>
        <time>2021-06-06T12:10:41Z</time>
      </trkpt>
      <trkpt lat="42.75344" lon="2.50998">
        <ele>252.6</ele>
        <time>2021-06-06T12:10:44Z</time>
      </trkpt>
      <trkpt lat="42.75362" lon="2.50998">
        <ele>252.8</ele>
        <time>2021-06-06T12:10:48Z</time>
      </trkpt>
      <trkpt lat="42.75379" lon="2.50991">
        <ele>252.8</ele>
        <time>2021-06-06T12:10:52Z</time>
      </trkpt>
      <trkpt lat="42.75395" lon="2.50978">
        <ele>252.4</ele>
        <time>2021-06-06T12:10:56Z</time>
      </trkpt>
      <trkpt lat="42.75415" lon="2.50969">
        <ele>251.8</ele>
        <time>2021-06-06T12:11:00Z</time>
      </trkpt>
      <trkpt lat="42.75436" lon="2.50972">
        <ele>252.4</ele>
        <time>2021-06-06T12:11:04Z</time>
      </trkpt>
      <trkpt lat="42.75451" lon="2.50974">
        <ele>252.4</ele>
        <time>2021-06-06T12:11:07Z</time>
      </trkpt>
      <trkpt lat="42.75471" lon="2.5097">
        <ele>252.4</ele>
        <time>2021-06-06T12:11:11Z</time>
      </trkpt>
      <trkpt lat="42.75494" lon="2.50973">
        <ele>252</ele>
        <time>2021-06-06T12:11:15Z</time>
      </trkpt>
      <trkpt lat="42.75513" lon="2.50988">
        <ele>252.4</ele>
        <time>2021-06-06T12:11:19Z</time>
      </trkpt>
      <trkpt lat="42.75531" lon="2.51003">
        <ele>252.8</ele>
        <time>2021-06-06T12:11:23Z</time>
      </trkpt>
      <trkpt lat="42.75546" lon="2.50992">
        <ele>253</ele>
        <time>2021-06-06T12:11:27Z</time>
      </trkpt>
      <trkpt lat="42.7555" lon="2.5097">
        <ele>253.2</ele>
        <time>2021-06-06T12:11:31Z</time>
      </trkpt>
      <trkpt lat="42.75555" lon="2.50952">
        <ele>253</ele>
        <time>2021-06-06T12:11:34Z</time>
      </trkpt>
      <trkpt lat="42.75568" lon="2.50934">
        <ele>253.2</ele>
        <time>2021-06-06T12:11:38Z</time>
      </trkpt>
      <trkpt lat="42.75588" lon="2.50923">
        <ele>252.8</ele>
        <time>2021-06-06T12:11:42Z</time>
      </trkpt>
      <trkpt lat="42.75606" lon="2.50933">
        <ele>252.8</ele>
        <time>2021-06-06T12:11:46Z</time>
      </trkpt>
      <trkpt lat="42.75613" lon="2.50959">
        <ele>252.6</ele>
        <time>2021-06-06T12:11:50Z</time>
      </trkpt>
      <trkpt lat="42.7562" lon="2.50987">
        <ele>251.8</ele>
        <time>2021-06-06T12:11:54Z</time>
      </trkpt>
      <trkpt lat="42.75625" lon="2.51017">
        <ele>251.2</ele>
        <time>2021-06-06T12:11:58Z</time>
      </trkpt>
      <trkpt lat="42.75629" lon="2.51039">
        <ele>251.4</ele>
        <time>2021-06-06T12:12:01Z</time>
      </trkpt>
      <trkpt lat="42.75638" lon="2.51066">
        <ele>252</ele>
        <time>2021-06-06T12:12:05Z</time>
      </trkpt>
      <trkpt lat="42.75652" lon="2.51087">
        <ele>252.2</ele>
        <time>2021-06-06T12:12:09Z</time>
      </trkpt>
      <trkpt lat="42.75668" lon="2.51107">
        <ele>252</ele>
        <time>2021-06-06T12:12:13Z</time>
      </trkpt>
      <trkpt lat="42.75682" lon="2.51131">
        <ele>252</ele>
        <time>2021-06-06T12:12:17Z</time>
      </trkpt>
      <trkpt lat="42.75696" lon="2.51156">
        <ele>251.6</ele>
        <time>2021-06-06T12:12:21Z</time>
      </trkpt>
      <trkpt lat="42.75711" lon="2.5118">
        <ele>251.2</ele>
        <time>2021-06-06T12:12:25Z</time>
      </trkpt>
      <trkpt lat="42.75721" lon="2.51198">
        <ele>251.4</ele>
        <time>2021-06-06T12:12:28Z</time>
      </trkpt>
      <trkpt lat="42.75733" lon="2.51224">
        <ele>251.2</ele>
        <time>2021-06-06T12:12:32Z</time>
      </trkpt>
      <trkpt lat="42.75745" lon="2.51245">
        <ele>252</ele>
        <time>2021-06-06T12:12:36Z</time>
      </trkpt>
      <trkpt lat="42.75762" lon="2.51242">
        <ele>251.6</ele>
        <time>2021-06-06T12:12:40Z</time>
      </trkpt>
      <trkpt lat="42.75776" lon="2.51223">
        <ele>250.2</ele>
        <time>2021-06-06T12:12:44Z</time>
      </trkpt>
      <trkpt lat="42.75792" lon="2.512">
        <ele>250</ele>
        <time>2021-06-06T12:12:48Z</time>
      </trkpt>
      <trkpt lat="42.75808" lon="2.51179">
        <ele>249.6</ele>
        <time>2021-06-06T12:12:52Z</time>
      </trkpt>
      <trkpt lat="42.7582" lon="2.51166">
        <ele>249.6</ele>
        <time>2021-06-06T12:12:55Z</time>
      </trkpt>
      <trkpt lat="42.75839" lon="2.51157">
        <ele>250.8</ele>
        <time>2021-06-06T12:12:59Z</time>
      </trkpt>
      <trkpt lat="42.75857" lon="2.51151">
        <ele>250.6</ele>
        <time>2021-06-06T12:13:03Z</time>
      </trkpt>
      <trkpt lat="42.75876" lon="2.51144">
        <ele>249.6</ele>
        <time>2021-06-06T12:13:07Z</time>
      </trkpt>
      <trkpt lat="42.75897" lon="2.51146">
        <ele>249.8</ele>
        <time>2021-06-06T12:13:11Z</time>
      </trkpt>
      <trkpt lat="42.75912" lon="2.51167">
        <ele>250.2</ele>
        <time>2021-06-06T12:13:15Z</time>
      </trkpt>
      <trkpt lat="42.75918" lon="2.51184">
        <ele>249.4</ele>
        <time>2021-06-06T12:13:18Z</time>
      </trkpt>
      <trkpt lat="42.75924" lon="2.51205">
        <ele>248.2</ele>
        <time>2021-06-06T12:13:22Z</time>
      </trkpt>
      <trkpt lat="42.75932" lon="2.51222">
        <ele>250.4</ele>
        <time>2021-06-06T12:13:26Z</time>
      </trkpt>
      <trkpt lat="42.75945" lon="2.51236">
        <ele>250.2</ele>
        <time>2021-06-06T12:13:30Z</time>
      </trkpt>
      <trkpt lat="42.75961" lon="2.51252">
        <ele>249.2</ele>
        <time>2021-06-06T12:13:34Z</time>
      </trkpt>
      <trkpt lat="42.75976" lon="2.51272">
        <ele>248.8</ele>
        <time>2021-06-06T12:13:38Z</time>
      </trkpt>
      <trkpt lat="42.75984" lon="2.51299">
        <ele>249</ele>
        <time>2021-06-06T12:13:42Z</time>
      </trkpt>
      <trkpt lat="42.75986" lon="2.51322">
        <ele>248.8</ele>
        <time>2021-06-06T12:13:45Z</time>
      </trkpt>
      <trkpt lat="42.75984" lon="2.51353">
        <ele>248.2</ele>
        <time>2021-06-06T12:13:49Z</time>
      </trkpt>
      <trkpt lat="42.75978" lon="2.51382">
        <ele>248.2</ele>
        <time>2021-06-06T12:13:53Z</time>
      </trkpt>
      <trkpt lat="42.75972" lon="2.51409">
        <ele>248.4</ele>
        <time>2021-06-06T12:13:57Z</time>
      </trkpt>
      <trkpt lat="42.75966" lon="2.51436">
        <ele>248.6</ele>
        <time>2021-06-06T12:14:01Z</time>
      </trkpt>
      <trkpt lat="42.75962" lon="2.51462">
        <ele>249.6</ele>
        <time>2021-06-06T12:14:05Z</time>
      </trkpt>
      <trkpt lat="42.75963" lon="2.5149">
        <ele>249</ele>
        <time>2021-06-06T12:14:09Z</time>
      </trkpt>
      <trkpt lat="42.75965" lon="2.51508">
        <ele>249.6</ele>
        <time>2021-06-06T12:14:12Z</time>
      </trkpt>
      <trkpt lat="42.75969" lon="2.51528">
        <ele>250.2</ele>
        <time>2021-06-06T12:14:16Z</time>
      </trkpt>
      <trkpt lat="42.75972" lon="2.51549">
        <ele>250.8</ele>
        <time>2021-06-06T12:14:20Z</time>
      </trkpt>
      <trkpt lat="42.75977" lon="2.51572">
        <ele>249.6</ele>
        <time>2021-06-06T12:14:24Z</time>
      </trkpt>
      <trkpt lat="42.75982" lon="2.51597">
        <ele>249.8</ele>
        <time>2021-06-06T12:14:28Z</time>
      </trkpt>
      <trkpt lat="42.75986" lon="2.51619">
        <ele>250.2</ele>
        <time>2021-06-06T12:14:32Z</time>
      </trkpt>
      <trkpt lat="42.75988" lon="2.51636">
        <ele>247.6</ele>
        <time>2021-06-06T12:14:36Z</time>
      </trkpt>
      <trkpt lat="42.75991" lon="2.51648">
        <ele>248.8</ele>
        <time>2021-06-06T12:14:39Z</time>
      </trkpt>
      <trkpt lat="42.75995" lon="2.51663">
        <ele>251.8</ele>
        <time>2021-06-06T12:14:43Z</time>
      </trkpt>
      <trkpt lat="42.76" lon="2.5167">
        <ele>251.2</ele>
        <time>2021-06-06T12:14:47Z</time>
      </trkpt>
      <trkpt lat="42.75998" lon="2.51674">
        <ele>251.6</ele>
        <time>2021-06-06T12:14:51Z</time>
      </trkpt>
      <trkpt lat="42.75994" lon="2.5168">
        <ele>251.8</ele>
        <time>2021-06-06T12:14:55Z</time>
      </trkpt>
      <trkpt lat="42.75992" lon="2.5169">
        <ele>252.6</ele>
        <time>2021-06-06T12:14:59Z</time>
      </trkpt>
      <trkpt lat="42.75989" lon="2.517">
        <ele>252.4</ele>
        <time>2021-06-06T12:15:03Z</time>
      </trkpt>
      <trkpt lat="42.75987" lon="2.51708">
        <ele>252.2</ele>
        <time>2021-06-06T12:15:06Z</time>
      </trkpt>
      <trkpt lat="42.75985" lon="2.51717">
        <ele>252.4</ele>
        <time>2021-06-06T12:15:10Z</time>
      </trkpt>
      <trkpt lat="42.75989" lon="2.51722">
        <ele>252.6</ele>
        <time>2021-06-06T12:15:14Z</time>
      </trkpt>
      <trkpt lat="42.7599" lon="2.51732">
        <ele>252.2</ele>
        <time>2021-06-06T12:15:18Z</time>
      </trkpt>
      <trkpt lat="42.7599" lon="2.51736">
        <ele>251.8</ele>
        <time>2021-06-06T12:15:22Z</time>
      </trkpt>
      <trkpt lat="42.7599" lon="2.51736">
        <ele>252</ele>
        <time>2021-06-06T12:15:26Z</time>
      </trkpt>
      <trkpt lat="42.75988" lon="2.51723">
        <ele>254.8</ele>
        <time>2021-06-06T12:15:39Z</time>
      </trkpt>
      <trkpt lat="42.75987" lon="2.5172">
        <ele>254</ele>
        <time>2021-06-06T12:15:42Z</time>
      </trkpt>
      <trkpt lat="42.75992" lon="2.51708">
        <ele>252.8</ele>
        <time>2021-06-06T12:15:46Z</time>
      </trkpt>
      <trkpt lat="42.75996" lon="2.51694">
        <ele>253</ele>
        <time>2021-06-06T12:15:50Z</time>
      </trkpt>
      <trkpt lat="42.76001" lon="2.51681">
        <ele>252</ele>
        <time>2021-06-06T12:15:54Z</time>
      </trkpt>
      <trkpt lat="42.76007" lon="2.51674">
        <ele>252</ele>
        <time>2021-06-06T12:15:58Z</time>
      </trkpt>
      <trkpt lat="42.76014" lon="2.51667">
        <ele>252.8</ele>
        <time>2021-06-06T12:16:02Z</time>
      </trkpt>
      <trkpt lat="42.76019" lon="2.51662">
        <ele>254.2</ele>
        <time>2021-06-06T12:16:05Z</time>
      </trkpt>
      <trkpt lat="42.76024" lon="2.51656">
        <ele>253</ele>
        <time>2021-06-06T12:16:09Z</time>
      </trkpt>
      <trkpt lat="42.76028" lon="2.51656">
        <ele>253.6</ele>
        <time>2021-06-06T12:16:13Z</time>
      </trkpt>
      <trkpt lat="42.76029" lon="2.51656">
        <ele>253.8</ele>
        <time>2021-06-06T12:16:17Z</time>
      </trkpt>
      <trkpt lat="42.76029" lon="2.51656">
        <ele>254</ele>
        <time>2021-06-06T12:16:21Z</time>
      </trkpt>
      <trkpt lat="42.76028" lon="2.5164">
        <ele>254.8</ele>
        <time>2021-06-06T12:19:31Z</time>
      </trkpt>
      <trkpt lat="42.76029" lon="2.51642">
        <ele>255</ele>
        <time>2021-06-06T12:19:35Z</time>
      </trkpt>
      <trkpt lat="42.76049" lon="2.51629">
        <ele>254.6</ele>
        <time>2021-06-06T12:20:02Z</time>
      </trkpt>
      <trkpt lat="42.76057" lon="2.51623">
        <ele>253.8</ele>
        <time>2021-06-06T12:20:06Z</time>
      </trkpt>
      <trkpt lat="42.76066" lon="2.51612">
        <ele>253.2</ele>
        <time>2021-06-06T12:20:10Z</time>
      </trkpt>
      <trkpt lat="42.76077" lon="2.51603">
        <ele>251.6</ele>
        <time>2021-06-06T12:20:14Z</time>
      </trkpt>
      <trkpt lat="42.76091" lon="2.5159">
        <ele>250.2</ele>
        <time>2021-06-06T12:20:18Z</time>
      </trkpt>
      <trkpt lat="42.76109" lon="2.51573">
        <ele>248.6</ele>
        <time>2021-06-06T12:20:22Z</time>
      </trkpt>
      <trkpt lat="42.76126" lon="2.51555">
        <ele>246.2</ele>
        <time>2021-06-06T12:20:26Z</time>
      </trkpt>
      <trkpt lat="42.76134" lon="2.51549">
        <ele>245</ele>
        <time>2021-06-06T12:20:29Z</time>
      </trkpt>
      <trkpt lat="42.76141" lon="2.51555">
        <ele>244.6</ele>
        <time>2021-06-06T12:20:33Z</time>
      </trkpt>
      <trkpt lat="42.76144" lon="2.51555">
        <ele>244.6</ele>
        <time>2021-06-06T12:20:37Z</time>
      </trkpt>
      <trkpt lat="42.76144" lon="2.51554">
        <ele>244.4</ele>
        <time>2021-06-06T12:20:41Z</time>
      </trkpt>
      <trkpt lat="42.76144" lon="2.51575">
        <ele>244.8</ele>
        <time>2021-06-06T12:21:25Z</time>
      </trkpt>
      <trkpt lat="42.76143" lon="2.51589">
        <ele>244</ele>
        <time>2021-06-06T12:21:29Z</time>
      </trkpt>
      <trkpt lat="42.7614" lon="2.51607">
        <ele>242.6</ele>
        <time>2021-06-06T12:21:33Z</time>
      </trkpt>
      <trkpt lat="42.76136" lon="2.51621">
        <ele>242.2</ele>
        <time>2021-06-06T12:21:36Z</time>
      </trkpt>
      <trkpt lat="42.7613" lon="2.51644">
        <ele>241.8</ele>
        <time>2021-06-06T12:21:40Z</time>
      </trkpt>
      <trkpt lat="42.76121" lon="2.51672">
        <ele>241.6</ele>
        <time>2021-06-06T12:21:44Z</time>
      </trkpt>
      <trkpt lat="42.76105" lon="2.51701">
        <ele>240</ele>
        <time>2021-06-06T12:21:48Z</time>
      </trkpt>
      <trkpt lat="42.76084" lon="2.5173">
        <ele>239.2</ele>
        <time>2021-06-06T12:21:52Z</time>
      </trkpt>
      <trkpt lat="42.7606" lon="2.51758">
        <ele>237.8</ele>
        <time>2021-06-06T12:21:56Z</time>
      </trkpt>
      <trkpt lat="42.76036" lon="2.51789">
        <ele>235.6</ele>
        <time>2021-06-06T12:22:00Z</time>
      </trkpt>
      <trkpt lat="42.76014" lon="2.51809">
        <ele>234.2</ele>
        <time>2021-06-06T12:22:03Z</time>
      </trkpt>
      <trkpt lat="42.75984" lon="2.51836">
        <ele>232.4</ele>
        <time>2021-06-06T12:22:07Z</time>
      </trkpt>
      <trkpt lat="42.75954" lon="2.51864">
        <ele>230</ele>
        <time>2021-06-06T12:22:11Z</time>
      </trkpt>
      <trkpt lat="42.75924" lon="2.51888">
        <ele>227.6</ele>
        <time>2021-06-06T12:22:15Z</time>
      </trkpt>
      <trkpt lat="42.75903" lon="2.51915">
        <ele>225.8</ele>
        <time>2021-06-06T12:22:19Z</time>
      </trkpt>
      <trkpt lat="42.75882" lon="2.51946">
        <ele>224</ele>
        <time>2021-06-06T12:22:23Z</time>
      </trkpt>
      <trkpt lat="42.75853" lon="2.51964">
        <ele>223</ele>
        <time>2021-06-06T12:22:27Z</time>
      </trkpt>
      <trkpt lat="42.75835" lon="2.5199">
        <ele>221.4</ele>
        <time>2021-06-06T12:22:30Z</time>
      </trkpt>
      <trkpt lat="42.75805" lon="2.52012">
        <ele>219.6</ele>
        <time>2021-06-06T12:22:34Z</time>
      </trkpt>
      <trkpt lat="42.75786" lon="2.52032">
        <ele>217.6</ele>
        <time>2021-06-06T12:22:38Z</time>
      </trkpt>
      <trkpt lat="42.75783" lon="2.52067">
        <ele>216</ele>
        <time>2021-06-06T12:22:42Z</time>
      </trkpt>
      <trkpt lat="42.75769" lon="2.52105">
        <ele>214</ele>
        <time>2021-06-06T12:22:46Z</time>
      </trkpt>
      <trkpt lat="42.75752" lon="2.52146">
        <ele>212.2</ele>
        <time>2021-06-06T12:22:50Z</time>
      </trkpt>
      <trkpt lat="42.75743" lon="2.5218">
        <ele>210</ele>
        <time>2021-06-06T12:22:53Z</time>
      </trkpt>
      <trkpt lat="42.75724" lon="2.52225">
        <ele>208.6</ele>
        <time>2021-06-06T12:22:57Z</time>
      </trkpt>
      <trkpt lat="42.75699" lon="2.52268">
        <ele>207.2</ele>
        <time>2021-06-06T12:23:01Z</time>
      </trkpt>
      <trkpt lat="42.75681" lon="2.52316">
        <ele>204.8</ele>
        <time>2021-06-06T12:23:05Z</time>
      </trkpt>
      <trkpt lat="42.75673" lon="2.5237">
        <ele>203.6</ele>
        <time>2021-06-06T12:23:09Z</time>
      </trkpt>
      <trkpt lat="42.75659" lon="2.52413">
        <ele>201</ele>
        <time>2021-06-06T12:23:13Z</time>
      </trkpt>
      <trkpt lat="42.75629" lon="2.52436">
        <ele>199.2</ele>
        <time>2021-06-06T12:23:17Z</time>
      </trkpt>
      <trkpt lat="42.75602" lon="2.52451">
        <ele>197</ele>
        <time>2021-06-06T12:23:20Z</time>
      </trkpt>
      <trkpt lat="42.75565" lon="2.52472">
        <ele>195</ele>
        <time>2021-06-06T12:23:24Z</time>
      </trkpt>
      <trkpt lat="42.75531" lon="2.5249">
        <ele>194.6</ele>
        <time>2021-06-06T12:23:28Z</time>
      </trkpt>
      <trkpt lat="42.75516" lon="2.52524">
        <ele>195</ele>
        <time>2021-06-06T12:23:32Z</time>
      </trkpt>
      <trkpt lat="42.75523" lon="2.5256">
        <ele>195.2</ele>
        <time>2021-06-06T12:23:36Z</time>
      </trkpt>
      <trkpt lat="42.75536" lon="2.52586">
        <ele>195.2</ele>
        <time>2021-06-06T12:23:40Z</time>
      </trkpt>
      <trkpt lat="42.7555" lon="2.52601">
        <ele>194.8</ele>
        <time>2021-06-06T12:23:44Z</time>
      </trkpt>
      <trkpt lat="42.75557" lon="2.52615">
        <ele>194.8</ele>
        <time>2021-06-06T12:23:47Z</time>
      </trkpt>
      <trkpt lat="42.75565" lon="2.52634">
        <ele>194.8</ele>
        <time>2021-06-06T12:23:51Z</time>
      </trkpt>
      <trkpt lat="42.75572" lon="2.52653">
        <ele>195.4</ele>
        <time>2021-06-06T12:23:55Z</time>
      </trkpt>
      <trkpt lat="42.75581" lon="2.52671">
        <ele>195.4</ele>
        <time>2021-06-06T12:23:59Z</time>
      </trkpt>
      <trkpt lat="42.75592" lon="2.52687">
        <ele>197</ele>
        <time>2021-06-06T12:24:03Z</time>
      </trkpt>
      <trkpt lat="42.75603" lon="2.52703">
        <ele>195.4</ele>
        <time>2021-06-06T12:24:07Z</time>
      </trkpt>
      <trkpt lat="42.75615" lon="2.52717">
        <ele>194</ele>
        <time>2021-06-06T12:24:11Z</time>
      </trkpt>
      <trkpt lat="42.75623" lon="2.52727">
        <ele>194</ele>
        <time>2021-06-06T12:24:14Z</time>
      </trkpt>
      <trkpt lat="42.75634" lon="2.52742">
        <ele>194</ele>
        <time>2021-06-06T12:24:18Z</time>
      </trkpt>
      <trkpt lat="42.75644" lon="2.52756">
        <ele>193.4</ele>
        <time>2021-06-06T12:24:22Z</time>
      </trkpt>
      <trkpt lat="42.75654" lon="2.52768">
        <ele>194.4</ele>
        <time>2021-06-06T12:24:26Z</time>
      </trkpt>
      <trkpt lat="42.75666" lon="2.52783">
        <ele>193.8</ele>
        <time>2021-06-06T12:24:30Z</time>
      </trkpt>
      <trkpt lat="42.75678" lon="2.52796">
        <ele>193.8</ele>
        <time>2021-06-06T12:24:34Z</time>
      </trkpt>
      <trkpt lat="42.7569" lon="2.5281">
        <ele>195</ele>
        <time>2021-06-06T12:24:38Z</time>
      </trkpt>
      <trkpt lat="42.75698" lon="2.5282">
        <ele>196.4</ele>
        <time>2021-06-06T12:24:41Z</time>
      </trkpt>
      <trkpt lat="42.75711" lon="2.52833">
        <ele>193.8</ele>
        <time>2021-06-06T12:24:45Z</time>
      </trkpt>
      <trkpt lat="42.75723" lon="2.52845">
        <ele>196.2</ele>
        <time>2021-06-06T12:24:49Z</time>
      </trkpt>
      <trkpt lat="42.75735" lon="2.52856">
        <ele>194.2</ele>
        <time>2021-06-06T12:24:53Z</time>
      </trkpt>
      <trkpt lat="42.75747" lon="2.52867">
        <ele>192.8</ele>
        <time>2021-06-06T12:24:57Z</time>
      </trkpt>
      <trkpt lat="42.75758" lon="2.5288">
        <ele>192.6</ele>
        <time>2021-06-06T12:25:01Z</time>
      </trkpt>
      <trkpt lat="42.75765" lon="2.52892">
        <ele>195.6</ele>
        <time>2021-06-06T12:25:04Z</time>
      </trkpt>
      <trkpt lat="42.75774" lon="2.52911">
        <ele>194.8</ele>
        <time>2021-06-06T12:25:08Z</time>
      </trkpt>
      <trkpt lat="42.75782" lon="2.52931">
        <ele>195</ele>
        <time>2021-06-06T12:25:12Z</time>
      </trkpt>
      <trkpt lat="42.75789" lon="2.52952">
        <ele>197.8</ele>
        <time>2021-06-06T12:25:16Z</time>
      </trkpt>
      <trkpt lat="42.75795" lon="2.52974">
        <ele>197.2</ele>
        <time>2021-06-06T12:25:20Z</time>
      </trkpt>
      <trkpt lat="42.75801" lon="2.52998">
        <ele>197.4</ele>
        <time>2021-06-06T12:25:24Z</time>
      </trkpt>
      <trkpt lat="42.75802" lon="2.53022">
        <ele>197.8</ele>
        <time>2021-06-06T12:25:28Z</time>
      </trkpt>
      <trkpt lat="42.75801" lon="2.53039">
        <ele>198.4</ele>
        <time>2021-06-06T12:25:31Z</time>
      </trkpt>
      <trkpt lat="42.75794" lon="2.53059">
        <ele>198.2</ele>
        <time>2021-06-06T12:25:35Z</time>
      </trkpt>
      <trkpt lat="42.75785" lon="2.53078">
        <ele>198.8</ele>
        <time>2021-06-06T12:25:39Z</time>
      </trkpt>
      <trkpt lat="42.75775" lon="2.53097">
        <ele>199</ele>
        <time>2021-06-06T12:25:43Z</time>
      </trkpt>
      <trkpt lat="42.75764" lon="2.53118">
        <ele>197</ele>
        <time>2021-06-06T12:25:47Z</time>
      </trkpt>
      <trkpt lat="42.75753" lon="2.53144">
        <ele>197.4</ele>
        <time>2021-06-06T12:25:51Z</time>
      </trkpt>
      <trkpt lat="42.75747" lon="2.53176">
        <ele>199</ele>
        <time>2021-06-06T12:25:55Z</time>
      </trkpt>
      <trkpt lat="42.75746" lon="2.53201">
        <ele>197</ele>
        <time>2021-06-06T12:25:58Z</time>
      </trkpt>
      <trkpt lat="42.75748" lon="2.53235">
        <ele>197</ele>
        <time>2021-06-06T12:26:02Z</time>
      </trkpt>
      <trkpt lat="42.7575" lon="2.5327">
        <ele>197.4</ele>
        <time>2021-06-06T12:26:06Z</time>
      </trkpt>
      <trkpt lat="42.75751" lon="2.53306">
        <ele>197.6</ele>
        <time>2021-06-06T12:26:10Z</time>
      </trkpt>
      <trkpt lat="42.75752" lon="2.5334">
        <ele>194</ele>
        <time>2021-06-06T12:26:14Z</time>
      </trkpt>
      <trkpt lat="42.75745" lon="2.53374">
        <ele>194.4</ele>
        <time>2021-06-06T12:26:18Z</time>
      </trkpt>
      <trkpt lat="42.75728" lon="2.53399">
        <ele>192.8</ele>
        <time>2021-06-06T12:26:22Z</time>
      </trkpt>
      <trkpt lat="42.75715" lon="2.53412">
        <ele>194.2</ele>
        <time>2021-06-06T12:26:25Z</time>
      </trkpt>
      <trkpt lat="42.75699" lon="2.53427">
        <ele>192.2</ele>
        <time>2021-06-06T12:26:29Z</time>
      </trkpt>
      <trkpt lat="42.75684" lon="2.5344">
        <ele>190.4</ele>
        <time>2021-06-06T12:26:33Z</time>
      </trkpt>
      <trkpt lat="42.75669" lon="2.53452">
        <ele>193.4</ele>
        <time>2021-06-06T12:26:37Z</time>
      </trkpt>
      <trkpt lat="42.75656" lon="2.53462">
        <ele>194.2</ele>
        <time>2021-06-06T12:26:41Z</time>
      </trkpt>
      <trkpt lat="42.75645" lon="2.53473">
        <ele>195.4</ele>
        <time>2021-06-06T12:26:45Z</time>
      </trkpt>
      <trkpt lat="42.75634" lon="2.53486">
        <ele>196.2</ele>
        <time>2021-06-06T12:26:49Z</time>
      </trkpt>
      <trkpt lat="42.75627" lon="2.53495">
        <ele>196.6</ele>
        <time>2021-06-06T12:26:52Z</time>
      </trkpt>
      <trkpt lat="42.75619" lon="2.53509">
        <ele>196.8</ele>
        <time>2021-06-06T12:26:56Z</time>
      </trkpt>
      <trkpt lat="42.75613" lon="2.53523">
        <ele>197.4</ele>
        <time>2021-06-06T12:27:00Z</time>
      </trkpt>
      <trkpt lat="42.75608" lon="2.53538">
        <ele>197</ele>
        <time>2021-06-06T12:27:04Z</time>
      </trkpt>
      <trkpt lat="42.75603" lon="2.53555">
        <ele>197.2</ele>
        <time>2021-06-06T12:27:08Z</time>
      </trkpt>
      <trkpt lat="42.75598" lon="2.53572">
        <ele>196.6</ele>
        <time>2021-06-06T12:27:12Z</time>
      </trkpt>
      <trkpt lat="42.75593" lon="2.53589">
        <ele>196.2</ele>
        <time>2021-06-06T12:27:16Z</time>
      </trkpt>
      <trkpt lat="42.7559" lon="2.53601">
        <ele>196.6</ele>
        <time>2021-06-06T12:27:19Z</time>
      </trkpt>
      <trkpt lat="42.75586" lon="2.53617">
        <ele>196.8</ele>
        <time>2021-06-06T12:27:23Z</time>
      </trkpt>
      <trkpt lat="42.75582" lon="2.53633">
        <ele>196</ele>
        <time>2021-06-06T12:27:27Z</time>
      </trkpt>
      <trkpt lat="42.75577" lon="2.5365">
        <ele>196.6</ele>
        <time>2021-06-06T12:27:31Z</time>
      </trkpt>
      <trkpt lat="42.75571" lon="2.53668">
        <ele>196.8</ele>
        <time>2021-06-06T12:27:35Z</time>
      </trkpt>
      <trkpt lat="42.75566" lon="2.53686">
        <ele>196.6</ele>
        <time>2021-06-06T12:27:39Z</time>
      </trkpt>
      <trkpt lat="42.75562" lon="2.537">
        <ele>196.2</ele>
        <time>2021-06-06T12:27:42Z</time>
      </trkpt>
      <trkpt lat="42.75555" lon="2.53717">
        <ele>195.6</ele>
        <time>2021-06-06T12:27:46Z</time>
      </trkpt>
      <trkpt lat="42.75546" lon="2.53734">
        <ele>195</ele>
        <time>2021-06-06T12:27:50Z</time>
      </trkpt>
      <trkpt lat="42.75535" lon="2.5375">
        <ele>195.8</ele>
        <time>2021-06-06T12:27:54Z</time>
      </trkpt>
      <trkpt lat="42.75526" lon="2.53767">
        <ele>196.2</ele>
        <time>2021-06-06T12:27:58Z</time>
      </trkpt>
      <trkpt lat="42.75518" lon="2.53785">
        <ele>196</ele>
        <time>2021-06-06T12:28:02Z</time>
      </trkpt>
      <trkpt lat="42.75512" lon="2.53806">
        <ele>195.8</ele>
        <time>2021-06-06T12:28:06Z</time>
      </trkpt>
      <trkpt lat="42.75509" lon="2.53824">
        <ele>196.2</ele>
        <time>2021-06-06T12:28:09Z</time>
      </trkpt>
      <trkpt lat="42.75507" lon="2.5385">
        <ele>196</ele>
        <time>2021-06-06T12:28:13Z</time>
      </trkpt>
      <trkpt lat="42.75504" lon="2.53878">
        <ele>196</ele>
        <time>2021-06-06T12:28:17Z</time>
      </trkpt>
      <trkpt lat="42.75499" lon="2.53906">
        <ele>195.8</ele>
        <time>2021-06-06T12:28:21Z</time>
      </trkpt>
      <trkpt lat="42.75493" lon="2.53932">
        <ele>195.2</ele>
        <time>2021-06-06T12:28:25Z</time>
      </trkpt>
      <trkpt lat="42.75486" lon="2.53955">
        <ele>195.8</ele>
        <time>2021-06-06T12:28:29Z</time>
      </trkpt>
      <trkpt lat="42.75478" lon="2.53975">
        <ele>197.6</ele>
        <time>2021-06-06T12:28:33Z</time>
      </trkpt>
      <trkpt lat="42.75472" lon="2.53987">
        <ele>198.8</ele>
        <time>2021-06-06T12:28:36Z</time>
      </trkpt>
      <trkpt lat="42.75464" lon="2.54001">
        <ele>199.6</ele>
        <time>2021-06-06T12:28:40Z</time>
      </trkpt>
      <trkpt lat="42.75458" lon="2.54015">
        <ele>200.4</ele>
        <time>2021-06-06T12:28:44Z</time>
      </trkpt>
      <trkpt lat="42.75452" lon="2.54028">
        <ele>200.6</ele>
        <time>2021-06-06T12:28:48Z</time>
      </trkpt>
      <trkpt lat="42.75446" lon="2.54043">
        <ele>201.2</ele>
        <time>2021-06-06T12:28:52Z</time>
      </trkpt>
      <trkpt lat="42.75441" lon="2.54057">
        <ele>201.4</ele>
        <time>2021-06-06T12:28:56Z</time>
      </trkpt>
      <trkpt lat="42.75436" lon="2.54072">
        <ele>202</ele>
        <time>2021-06-06T12:29:00Z</time>
      </trkpt>
      <trkpt lat="42.75432" lon="2.54083">
        <ele>202.2</ele>
        <time>2021-06-06T12:29:03Z</time>
      </trkpt>
      <trkpt lat="42.75427" lon="2.54099">
        <ele>201.2</ele>
        <time>2021-06-06T12:29:07Z</time>
      </trkpt>
      <trkpt lat="42.75424" lon="2.54117">
        <ele>202</ele>
        <time>2021-06-06T12:29:11Z</time>
      </trkpt>
      <trkpt lat="42.75419" lon="2.54136">
        <ele>202.4</ele>
        <time>2021-06-06T12:29:15Z</time>
      </trkpt>
      <trkpt lat="42.75415" lon="2.54156">
        <ele>202.4</ele>
        <time>2021-06-06T12:29:19Z</time>
      </trkpt>
      <trkpt lat="42.7541" lon="2.54176">
        <ele>202.4</ele>
        <time>2021-06-06T12:29:23Z</time>
      </trkpt>
      <trkpt lat="42.75406" lon="2.54196">
        <ele>202.4</ele>
        <time>2021-06-06T12:29:27Z</time>
      </trkpt>
      <trkpt lat="42.75403" lon="2.54211">
        <ele>202.4</ele>
        <time>2021-06-06T12:29:30Z</time>
      </trkpt>
      <trkpt lat="42.75397" lon="2.54231">
        <ele>202.4</ele>
        <time>2021-06-06T12:29:34Z</time>
      </trkpt>
      <trkpt lat="42.75391" lon="2.54249">
        <ele>202.2</ele>
        <time>2021-06-06T12:29:38Z</time>
      </trkpt>
      <trkpt lat="42.75384" lon="2.54267">
        <ele>201.6</ele>
        <time>2021-06-06T12:29:42Z</time>
      </trkpt>
      <trkpt lat="42.75376" lon="2.54284">
        <ele>201.2</ele>
        <time>2021-06-06T12:29:46Z</time>
      </trkpt>
      <trkpt lat="42.75364" lon="2.54305">
        <ele>203</ele>
        <time>2021-06-06T12:29:51Z</time>
      </trkpt>
      <trkpt lat="42.75357" lon="2.54317">
        <ele>202.4</ele>
        <time>2021-06-06T12:29:54Z</time>
      </trkpt>
      <trkpt lat="42.75344" lon="2.54338">
        <ele>202.2</ele>
        <time>2021-06-06T12:29:59Z</time>
      </trkpt>
      <trkpt lat="42.75333" lon="2.54356">
        <ele>203.2</ele>
        <time>2021-06-06T12:30:03Z</time>
      </trkpt>
      <trkpt lat="42.75323" lon="2.54374">
        <ele>204</ele>
        <time>2021-06-06T12:30:07Z</time>
      </trkpt>
      <trkpt lat="42.75307" lon="2.54407">
        <ele>203.8</ele>
        <time>2021-06-06T12:30:14Z</time>
      </trkpt>
      <trkpt lat="42.75296" lon="2.54431">
        <ele>203.6</ele>
        <time>2021-06-06T12:30:19Z</time>
      </trkpt>
      <trkpt lat="42.75286" lon="2.54454">
        <ele>203.4</ele>
        <time>2021-06-06T12:30:24Z</time>
      </trkpt>
      <trkpt lat="42.7528" lon="2.54468">
        <ele>202.8</ele>
        <time>2021-06-06T12:30:27Z</time>
      </trkpt>
      <trkpt lat="42.75271" lon="2.54491">
        <ele>203.8</ele>
        <time>2021-06-06T12:30:32Z</time>
      </trkpt>
      <trkpt lat="42.75263" lon="2.54514">
        <ele>204.4</ele>
        <time>2021-06-06T12:30:38Z</time>
      </trkpt>
      <trkpt lat="42.75252" lon="2.54543">
        <ele>203.6</ele>
        <time>2021-06-06T12:30:43Z</time>
      </trkpt>
      <trkpt lat="42.75242" lon="2.54569">
        <ele>204.6</ele>
        <time>2021-06-06T12:30:49Z</time>
      </trkpt>
      <trkpt lat="42.75225" lon="2.54597">
        <ele>204.8</ele>
        <time>2021-06-06T12:30:54Z</time>
      </trkpt>
      <trkpt lat="42.75209" lon="2.54617">
        <ele>204.6</ele>
        <time>2021-06-06T12:30:59Z</time>
      </trkpt>
      <trkpt lat="42.75196" lon="2.54633">
        <ele>204.8</ele>
        <time>2021-06-06T12:31:04Z</time>
      </trkpt>
      <trkpt lat="42.75175" lon="2.54656">
        <ele>206.2</ele>
        <time>2021-06-06T12:31:10Z</time>
      </trkpt>
      <trkpt lat="42.75155" lon="2.54681">
        <ele>207.4</ele>
        <time>2021-06-06T12:31:16Z</time>
      </trkpt>
      <trkpt lat="42.75143" lon="2.54701">
        <ele>207.2</ele>
        <time>2021-06-06T12:31:20Z</time>
      </trkpt>
      <trkpt lat="42.75132" lon="2.54722">
        <ele>207.4</ele>
        <time>2021-06-06T12:31:24Z</time>
      </trkpt>
      <trkpt lat="42.75122" lon="2.54744">
        <ele>207.6</ele>
        <time>2021-06-06T12:31:28Z</time>
      </trkpt>
      <trkpt lat="42.75114" lon="2.54766">
        <ele>207.8</ele>
        <time>2021-06-06T12:31:32Z</time>
      </trkpt>
      <trkpt lat="42.75109" lon="2.54784">
        <ele>207.8</ele>
        <time>2021-06-06T12:31:35Z</time>
      </trkpt>
      <trkpt lat="42.75103" lon="2.54807">
        <ele>208.6</ele>
        <time>2021-06-06T12:31:39Z</time>
      </trkpt>
      <trkpt lat="42.75098" lon="2.54829">
        <ele>207.8</ele>
        <time>2021-06-06T12:31:43Z</time>
      </trkpt>
      <trkpt lat="42.75095" lon="2.54851">
        <ele>207.6</ele>
        <time>2021-06-06T12:31:47Z</time>
      </trkpt>
      <trkpt lat="42.75092" lon="2.54874">
        <ele>207</ele>
        <time>2021-06-06T12:31:51Z</time>
      </trkpt>
      <trkpt lat="42.75091" lon="2.54897">
        <ele>207.2</ele>
        <time>2021-06-06T12:31:55Z</time>
      </trkpt>
      <trkpt lat="42.75091" lon="2.5492">
        <ele>206.8</ele>
        <time>2021-06-06T12:31:59Z</time>
      </trkpt>
      <trkpt lat="42.75092" lon="2.54939">
        <ele>206.8</ele>
        <time>2021-06-06T12:32:02Z</time>
      </trkpt>
      <trkpt lat="42.75094" lon="2.54965">
        <ele>206.4</ele>
        <time>2021-06-06T12:32:06Z</time>
      </trkpt>
      <trkpt lat="42.75098" lon="2.54995">
        <ele>205.2</ele>
        <time>2021-06-06T12:32:10Z</time>
      </trkpt>
      <trkpt lat="42.75105" lon="2.55029">
        <ele>204</ele>
        <time>2021-06-06T12:32:14Z</time>
      </trkpt>
      <trkpt lat="42.75114" lon="2.55067">
        <ele>202.4</ele>
        <time>2021-06-06T12:32:18Z</time>
      </trkpt>
      <trkpt lat="42.75124" lon="2.55109">
        <ele>200.6</ele>
        <time>2021-06-06T12:32:22Z</time>
      </trkpt>
      <trkpt lat="42.75133" lon="2.55155">
        <ele>198.2</ele>
        <time>2021-06-06T12:32:26Z</time>
      </trkpt>
      <trkpt lat="42.75137" lon="2.55192">
        <ele>198.8</ele>
        <time>2021-06-06T12:32:29Z</time>
      </trkpt>
      <trkpt lat="42.75134" lon="2.55239">
        <ele>199</ele>
        <time>2021-06-06T12:32:33Z</time>
      </trkpt>
      <trkpt lat="42.75126" lon="2.55281">
        <ele>197.2</ele>
        <time>2021-06-06T12:32:37Z</time>
      </trkpt>
      <trkpt lat="42.75113" lon="2.55316">
        <ele>197.4</ele>
        <time>2021-06-06T12:32:41Z</time>
      </trkpt>
      <trkpt lat="42.751" lon="2.55344">
        <ele>198.2</ele>
        <time>2021-06-06T12:32:45Z</time>
      </trkpt>
      <trkpt lat="42.75087" lon="2.55365">
        <ele>199.2</ele>
        <time>2021-06-06T12:32:49Z</time>
      </trkpt>
      <trkpt lat="42.75077" lon="2.55381">
        <ele>199.4</ele>
        <time>2021-06-06T12:32:52Z</time>
      </trkpt>
      <trkpt lat="42.75065" lon="2.55401">
        <ele>200</ele>
        <time>2021-06-06T12:32:56Z</time>
      </trkpt>
      <trkpt lat="42.75053" lon="2.5542">
        <ele>200.4</ele>
        <time>2021-06-06T12:33:00Z</time>
      </trkpt>
      <trkpt lat="42.75042" lon="2.5544">
        <ele>200.4</ele>
        <time>2021-06-06T12:33:04Z</time>
      </trkpt>
      <trkpt lat="42.75032" lon="2.55459">
        <ele>200.6</ele>
        <time>2021-06-06T12:33:08Z</time>
      </trkpt>
      <trkpt lat="42.75025" lon="2.55475">
        <ele>201.4</ele>
        <time>2021-06-06T12:33:12Z</time>
      </trkpt>
      <trkpt lat="42.75019" lon="2.55489">
        <ele>201.2</ele>
        <time>2021-06-06T12:33:16Z</time>
      </trkpt>
      <trkpt lat="42.75015" lon="2.55501">
        <ele>202</ele>
        <time>2021-06-06T12:33:19Z</time>
      </trkpt>
      <trkpt lat="42.7501" lon="2.55517">
        <ele>202.6</ele>
        <time>2021-06-06T12:33:23Z</time>
      </trkpt>
      <trkpt lat="42.75007" lon="2.55534">
        <ele>202.2</ele>
        <time>2021-06-06T12:33:27Z</time>
      </trkpt>
      <trkpt lat="42.75004" lon="2.55552">
        <ele>202.8</ele>
        <time>2021-06-06T12:33:31Z</time>
      </trkpt>
      <trkpt lat="42.75002" lon="2.55571">
        <ele>203.2</ele>
        <time>2021-06-06T12:33:35Z</time>
      </trkpt>
      <trkpt lat="42.75" lon="2.55589">
        <ele>203</ele>
        <time>2021-06-06T12:33:39Z</time>
      </trkpt>
      <trkpt lat="42.75" lon="2.55608">
        <ele>202.8</ele>
        <time>2021-06-06T12:33:43Z</time>
      </trkpt>
      <trkpt lat="42.74999" lon="2.55623">
        <ele>204.2</ele>
        <time>2021-06-06T12:33:46Z</time>
      </trkpt>
      <trkpt lat="42.74999" lon="2.55644">
        <ele>204.2</ele>
        <time>2021-06-06T12:33:50Z</time>
      </trkpt>
      <trkpt lat="42.75" lon="2.55665">
        <ele>204.4</ele>
        <time>2021-06-06T12:33:54Z</time>
      </trkpt>
      <trkpt lat="42.74999" lon="2.55687">
        <ele>204.4</ele>
        <time>2021-06-06T12:33:58Z</time>
      </trkpt>
      <trkpt lat="42.74999" lon="2.55709">
        <ele>206.4</ele>
        <time>2021-06-06T12:34:02Z</time>
      </trkpt>
      <trkpt lat="42.74998" lon="2.5573">
        <ele>206.6</ele>
        <time>2021-06-06T12:34:06Z</time>
      </trkpt>
      <trkpt lat="42.74998" lon="2.55752">
        <ele>207.2</ele>
        <time>2021-06-06T12:34:10Z</time>
      </trkpt>
      <trkpt lat="42.74998" lon="2.55769">
        <ele>207</ele>
        <time>2021-06-06T12:34:13Z</time>
      </trkpt>
      <trkpt lat="42.74998" lon="2.55791">
        <ele>207.2</ele>
        <time>2021-06-06T12:34:17Z</time>
      </trkpt>
      <trkpt lat="42.74997" lon="2.55813">
        <ele>207</ele>
        <time>2021-06-06T12:34:21Z</time>
      </trkpt>
      <trkpt lat="42.74997" lon="2.55835">
        <ele>206.6</ele>
        <time>2021-06-06T12:34:25Z</time>
      </trkpt>
      <trkpt lat="42.74996" lon="2.55856">
        <ele>207.2</ele>
        <time>2021-06-06T12:34:29Z</time>
      </trkpt>
      <trkpt lat="42.74995" lon="2.55877">
        <ele>206.6</ele>
        <time>2021-06-06T12:34:33Z</time>
      </trkpt>
      <trkpt lat="42.74993" lon="2.55897">
        <ele>206.4</ele>
        <time>2021-06-06T12:34:37Z</time>
      </trkpt>
      <trkpt lat="42.7499" lon="2.55911">
        <ele>206.6</ele>
        <time>2021-06-06T12:34:40Z</time>
      </trkpt>
      <trkpt lat="42.74985" lon="2.5593">
        <ele>206.6</ele>
        <time>2021-06-06T12:34:44Z</time>
      </trkpt>
      <trkpt lat="42.74979" lon="2.55949">
        <ele>206.2</ele>
        <time>2021-06-06T12:34:48Z</time>
      </trkpt>
      <trkpt lat="42.74972" lon="2.55965">
        <ele>206.6</ele>
        <time>2021-06-06T12:34:52Z</time>
      </trkpt>
      <trkpt lat="42.74964" lon="2.55981">
        <ele>205.2</ele>
        <time>2021-06-06T12:34:56Z</time>
      </trkpt>
      <trkpt lat="42.74955" lon="2.55997">
        <ele>205.8</ele>
        <time>2021-06-06T12:35:00Z</time>
      </trkpt>
      <trkpt lat="42.74945" lon="2.56013">
        <ele>206.4</ele>
        <time>2021-06-06T12:35:04Z</time>
      </trkpt>
      <trkpt lat="42.74937" lon="2.56025">
        <ele>208.2</ele>
        <time>2021-06-06T12:35:07Z</time>
      </trkpt>
      <trkpt lat="42.74926" lon="2.56041">
        <ele>207</ele>
        <time>2021-06-06T12:35:11Z</time>
      </trkpt>
      <trkpt lat="42.74915" lon="2.56057">
        <ele>207.8</ele>
        <time>2021-06-06T12:35:15Z</time>
      </trkpt>
      <trkpt lat="42.74905" lon="2.56072">
        <ele>207.6</ele>
        <time>2021-06-06T12:35:19Z</time>
      </trkpt>
      <trkpt lat="42.74895" lon="2.56088">
        <ele>208.4</ele>
        <time>2021-06-06T12:35:23Z</time>
      </trkpt>
      <trkpt lat="42.74885" lon="2.56104">
        <ele>209.2</ele>
        <time>2021-06-06T12:35:27Z</time>
      </trkpt>
      <trkpt lat="42.74878" lon="2.56116">
        <ele>210</ele>
        <time>2021-06-06T12:35:30Z</time>
      </trkpt>
      <trkpt lat="42.74869" lon="2.56133">
        <ele>210.4</ele>
        <time>2021-06-06T12:35:34Z</time>
      </trkpt>
      <trkpt lat="42.74862" lon="2.56151">
        <ele>210.6</ele>
        <time>2021-06-06T12:35:38Z</time>
      </trkpt>
      <trkpt lat="42.74856" lon="2.56168">
        <ele>211.2</ele>
        <time>2021-06-06T12:35:42Z</time>
      </trkpt>
      <trkpt lat="42.74853" lon="2.56187">
        <ele>211.4</ele>
        <time>2021-06-06T12:35:46Z</time>
      </trkpt>
      <trkpt lat="42.74851" lon="2.56204">
        <ele>212.2</ele>
        <time>2021-06-06T12:35:50Z</time>
      </trkpt>
      <trkpt lat="42.7485" lon="2.56221">
        <ele>212.6</ele>
        <time>2021-06-06T12:35:54Z</time>
      </trkpt>
      <trkpt lat="42.7485" lon="2.56232">
        <ele>213.6</ele>
        <time>2021-06-06T12:35:57Z</time>
      </trkpt>
      <trkpt lat="42.74851" lon="2.56245">
        <ele>214.2</ele>
        <time>2021-06-06T12:36:01Z</time>
      </trkpt>
      <trkpt lat="42.74853" lon="2.56258">
        <ele>214.2</ele>
        <time>2021-06-06T12:36:05Z</time>
      </trkpt>
      <trkpt lat="42.74855" lon="2.5627">
        <ele>213.8</ele>
        <time>2021-06-06T12:36:09Z</time>
      </trkpt>
      <trkpt lat="42.74857" lon="2.56281">
        <ele>214</ele>
        <time>2021-06-06T12:36:13Z</time>
      </trkpt>
      <trkpt lat="42.74858" lon="2.56291">
        <ele>214.6</ele>
        <time>2021-06-06T12:36:17Z</time>
      </trkpt>
      <trkpt lat="42.74858" lon="2.56297">
        <ele>214.6</ele>
        <time>2021-06-06T12:36:21Z</time>
      </trkpt>
      <trkpt lat="42.74858" lon="2.56297">
        <ele>214.2</ele>
        <time>2021-06-06T12:36:24Z</time>
      </trkpt>
      <trkpt lat="42.7486" lon="2.56316">
        <ele>215.2</ele>
        <time>2021-06-06T12:36:40Z</time>
      </trkpt>
      <trkpt lat="42.74861" lon="2.56327">
        <ele>215.4</ele>
        <time>2021-06-06T12:36:44Z</time>
      </trkpt>
      <trkpt lat="42.74861" lon="2.56338">
        <ele>215.8</ele>
        <time>2021-06-06T12:36:48Z</time>
      </trkpt>
      <trkpt lat="42.7486" lon="2.56348">
        <ele>216.8</ele>
        <time>2021-06-06T12:36:52Z</time>
      </trkpt>
      <trkpt lat="42.7486" lon="2.56358">
        <ele>217.8</ele>
        <time>2021-06-06T12:36:56Z</time>
      </trkpt>
      <trkpt lat="42.74859" lon="2.56368">
        <ele>218.6</ele>
        <time>2021-06-06T12:37:00Z</time>
      </trkpt>
      <trkpt lat="42.74858" lon="2.56376">
        <ele>218.8</ele>
        <time>2021-06-06T12:37:03Z</time>
      </trkpt>
      <trkpt lat="42.74858" lon="2.56387">
        <ele>219.4</ele>
        <time>2021-06-06T12:37:07Z</time>
      </trkpt>
      <trkpt lat="42.74857" lon="2.56397">
        <ele>219.8</ele>
        <time>2021-06-06T12:37:11Z</time>
      </trkpt>
      <trkpt lat="42.74856" lon="2.56407">
        <ele>220.4</ele>
        <time>2021-06-06T12:37:15Z</time>
      </trkpt>
      <trkpt lat="42.74856" lon="2.56417">
        <ele>221.2</ele>
        <time>2021-06-06T12:37:19Z</time>
      </trkpt>
      <trkpt lat="42.74855" lon="2.56428">
        <ele>221.4</ele>
        <time>2021-06-06T12:37:23Z</time>
      </trkpt>
      <trkpt lat="42.74854" lon="2.56438">
        <ele>221.8</ele>
        <time>2021-06-06T12:37:27Z</time>
      </trkpt>
      <trkpt lat="42.74853" lon="2.56445">
        <ele>222.4</ele>
        <time>2021-06-06T12:37:30Z</time>
      </trkpt>
      <trkpt lat="42.74852" lon="2.56455">
        <ele>223</ele>
        <time>2021-06-06T12:37:34Z</time>
      </trkpt>
      <trkpt lat="42.74851" lon="2.56464">
        <ele>223.6</ele>
        <time>2021-06-06T12:37:38Z</time>
      </trkpt>
      <trkpt lat="42.74851" lon="2.56473">
        <ele>224</ele>
        <time>2021-06-06T12:37:42Z</time>
      </trkpt>
      <trkpt lat="42.7485" lon="2.56482">
        <ele>224.8</ele>
        <time>2021-06-06T12:37:46Z</time>
      </trkpt>
      <trkpt lat="42.74849" lon="2.5649">
        <ele>225.2</ele>
        <time>2021-06-06T12:37:50Z</time>
      </trkpt>
      <trkpt lat="42.74849" lon="2.56496">
        <ele>225.4</ele>
        <time>2021-06-06T12:37:53Z</time>
      </trkpt>
      <trkpt lat="42.74847" lon="2.56505">
        <ele>226</ele>
        <time>2021-06-06T12:37:57Z</time>
      </trkpt>
      <trkpt lat="42.74847" lon="2.56514">
        <ele>225.6</ele>
        <time>2021-06-06T12:38:01Z</time>
      </trkpt>
      <trkpt lat="42.74845" lon="2.56523">
        <ele>227</ele>
        <time>2021-06-06T12:38:05Z</time>
      </trkpt>
      <trkpt lat="42.74844" lon="2.56531">
        <ele>228</ele>
        <time>2021-06-06T12:38:09Z</time>
      </trkpt>
      <trkpt lat="42.74844" lon="2.56539">
        <ele>229</ele>
        <time>2021-06-06T12:38:13Z</time>
      </trkpt>
      <trkpt lat="42.74843" lon="2.56547">
        <ele>229.8</ele>
        <time>2021-06-06T12:38:17Z</time>
      </trkpt>
      <trkpt lat="42.74842" lon="2.56553">
        <ele>229.8</ele>
        <time>2021-06-06T12:38:20Z</time>
      </trkpt>
      <trkpt lat="42.74841" lon="2.5656">
        <ele>230.2</ele>
        <time>2021-06-06T12:38:24Z</time>
      </trkpt>
      <trkpt lat="42.7484" lon="2.56568">
        <ele>230.8</ele>
        <time>2021-06-06T12:38:28Z</time>
      </trkpt>
      <trkpt lat="42.74839" lon="2.56577">
        <ele>230.8</ele>
        <time>2021-06-06T12:38:32Z</time>
      </trkpt>
      <trkpt lat="42.74837" lon="2.56585">
        <ele>230.8</ele>
        <time>2021-06-06T12:38:36Z</time>
      </trkpt>
      <trkpt lat="42.74835" lon="2.56593">
        <ele>231.6</ele>
        <time>2021-06-06T12:38:40Z</time>
      </trkpt>
      <trkpt lat="42.74834" lon="2.566">
        <ele>232.4</ele>
        <time>2021-06-06T12:38:44Z</time>
      </trkpt>
      <trkpt lat="42.74833" lon="2.56606">
        <ele>232.6</ele>
        <time>2021-06-06T12:38:47Z</time>
      </trkpt>
      <trkpt lat="42.74831" lon="2.56613">
        <ele>233</ele>
        <time>2021-06-06T12:38:51Z</time>
      </trkpt>
      <trkpt lat="42.74829" lon="2.56621">
        <ele>233.8</ele>
        <time>2021-06-06T12:38:55Z</time>
      </trkpt>
      <trkpt lat="42.74828" lon="2.56629">
        <ele>234.4</ele>
        <time>2021-06-06T12:38:59Z</time>
      </trkpt>
      <trkpt lat="42.74826" lon="2.56637">
        <ele>234.6</ele>
        <time>2021-06-06T12:39:03Z</time>
      </trkpt>
      <trkpt lat="42.74824" lon="2.56645">
        <ele>235</ele>
        <time>2021-06-06T12:39:07Z</time>
      </trkpt>
      <trkpt lat="42.74822" lon="2.56652">
        <ele>235.4</ele>
        <time>2021-06-06T12:39:11Z</time>
      </trkpt>
      <trkpt lat="42.74821" lon="2.56658">
        <ele>235.8</ele>
        <time>2021-06-06T12:39:14Z</time>
      </trkpt>
      <trkpt lat="42.74819" lon="2.56665">
        <ele>236.4</ele>
        <time>2021-06-06T12:39:18Z</time>
      </trkpt>
      <trkpt lat="42.74817" lon="2.56673">
        <ele>236.8</ele>
        <time>2021-06-06T12:39:22Z</time>
      </trkpt>
      <trkpt lat="42.74815" lon="2.56681">
        <ele>237</ele>
        <time>2021-06-06T12:39:26Z</time>
      </trkpt>
      <trkpt lat="42.74813" lon="2.56689">
        <ele>237.8</ele>
        <time>2021-06-06T12:39:30Z</time>
      </trkpt>
      <trkpt lat="42.74812" lon="2.56697">
        <ele>238.2</ele>
        <time>2021-06-06T12:39:34Z</time>
      </trkpt>
      <trkpt lat="42.7481" lon="2.56705">
        <ele>238.6</ele>
        <time>2021-06-06T12:39:38Z</time>
      </trkpt>
      <trkpt lat="42.74809" lon="2.5671">
        <ele>239.8</ele>
        <time>2021-06-06T12:39:41Z</time>
      </trkpt>
      <trkpt lat="42.74808" lon="2.56718">
        <ele>240.2</ele>
        <time>2021-06-06T12:39:45Z</time>
      </trkpt>
      <trkpt lat="42.74806" lon="2.56727">
        <ele>241</ele>
        <time>2021-06-06T12:39:49Z</time>
      </trkpt>
      <trkpt lat="42.74805" lon="2.56735">
        <ele>241.2</ele>
        <time>2021-06-06T12:39:53Z</time>
      </trkpt>
      <trkpt lat="42.74805" lon="2.56743">
        <ele>241.4</ele>
        <time>2021-06-06T12:39:57Z</time>
      </trkpt>
      <trkpt lat="42.74805" lon="2.56751">
        <ele>241.6</ele>
        <time>2021-06-06T12:40:01Z</time>
      </trkpt>
      <trkpt lat="42.74804" lon="2.5676">
        <ele>242</ele>
        <time>2021-06-06T12:40:05Z</time>
      </trkpt>
      <trkpt lat="42.74805" lon="2.56766">
        <ele>242.6</ele>
        <time>2021-06-06T12:40:08Z</time>
      </trkpt>
      <trkpt lat="42.74805" lon="2.56774">
        <ele>243.4</ele>
        <time>2021-06-06T12:40:12Z</time>
      </trkpt>
      <trkpt lat="42.74806" lon="2.56782">
        <ele>244</ele>
        <time>2021-06-06T12:40:16Z</time>
      </trkpt>
      <trkpt lat="42.74807" lon="2.5679">
        <ele>244.8</ele>
        <time>2021-06-06T12:40:20Z</time>
      </trkpt>
      <trkpt lat="42.74808" lon="2.56798">
        <ele>245.4</ele>
        <time>2021-06-06T12:40:24Z</time>
      </trkpt>
      <trkpt lat="42.7481" lon="2.56806">
        <ele>245.6</ele>
        <time>2021-06-06T12:40:28Z</time>
      </trkpt>
      <trkpt lat="42.74811" lon="2.56811">
        <ele>245.8</ele>
        <time>2021-06-06T12:40:31Z</time>
      </trkpt>
      <trkpt lat="42.74813" lon="2.56819">
        <ele>246.4</ele>
        <time>2021-06-06T12:40:35Z</time>
      </trkpt>
      <trkpt lat="42.74815" lon="2.56826">
        <ele>246.8</ele>
        <time>2021-06-06T12:40:39Z</time>
      </trkpt>
      <trkpt lat="42.74817" lon="2.56833">
        <ele>247</ele>
        <time>2021-06-06T12:40:43Z</time>
      </trkpt>
      <trkpt lat="42.7482" lon="2.5684">
        <ele>247.6</ele>
        <time>2021-06-06T12:40:47Z</time>
      </trkpt>
      <trkpt lat="42.74822" lon="2.56848">
        <ele>248.2</ele>
        <time>2021-06-06T12:40:51Z</time>
      </trkpt>
      <trkpt lat="42.74825" lon="2.56855">
        <ele>249.2</ele>
        <time>2021-06-06T12:40:55Z</time>
      </trkpt>
      <trkpt lat="42.74827" lon="2.5686">
        <ele>249.2</ele>
        <time>2021-06-06T12:40:58Z</time>
      </trkpt>
      <trkpt lat="42.7483" lon="2.56866">
        <ele>249.8</ele>
        <time>2021-06-06T12:41:02Z</time>
      </trkpt>
      <trkpt lat="42.74834" lon="2.56873">
        <ele>250.4</ele>
        <time>2021-06-06T12:41:06Z</time>
      </trkpt>
      <trkpt lat="42.74837" lon="2.56879">
        <ele>250.6</ele>
        <time>2021-06-06T12:41:10Z</time>
      </trkpt>
      <trkpt lat="42.7484" lon="2.56886">
        <ele>251</ele>
        <time>2021-06-06T12:41:14Z</time>
      </trkpt>
      <trkpt lat="42.74843" lon="2.56893">
        <ele>251.2</ele>
        <time>2021-06-06T12:41:18Z</time>
      </trkpt>
      <trkpt lat="42.74847" lon="2.56899">
        <ele>251.4</ele>
        <time>2021-06-06T12:41:22Z</time>
      </trkpt>
      <trkpt lat="42.74849" lon="2.56905">
        <ele>251.8</ele>
        <time>2021-06-06T12:41:25Z</time>
      </trkpt>
      <trkpt lat="42.74852" lon="2.56911">
        <ele>252.4</ele>
        <time>2021-06-06T12:41:29Z</time>
      </trkpt>
      <trkpt lat="42.74855" lon="2.56918">
        <ele>253.4</ele>
        <time>2021-06-06T12:41:33Z</time>
      </trkpt>
      <trkpt lat="42.74858" lon="2.56925">
        <ele>254.2</ele>
        <time>2021-06-06T12:41:37Z</time>
      </trkpt>
      <trkpt lat="42.74861" lon="2.56932">
        <ele>254.8</ele>
        <time>2021-06-06T12:41:41Z</time>
      </trkpt>
      <trkpt lat="42.74864" lon="2.5694">
        <ele>255.6</ele>
        <time>2021-06-06T12:41:45Z</time>
      </trkpt>
      <trkpt lat="42.74867" lon="2.56948">
        <ele>256.4</ele>
        <time>2021-06-06T12:41:49Z</time>
      </trkpt>
      <trkpt lat="42.74869" lon="2.56953">
        <ele>256.4</ele>
        <time>2021-06-06T12:41:52Z</time>
      </trkpt>
      <trkpt lat="42.74872" lon="2.5696">
        <ele>257</ele>
        <time>2021-06-06T12:41:56Z</time>
      </trkpt>
      <trkpt lat="42.74874" lon="2.56967">
        <ele>257.2</ele>
        <time>2021-06-06T12:42:00Z</time>
      </trkpt>
      <trkpt lat="42.74876" lon="2.56974">
        <ele>257.8</ele>
        <time>2021-06-06T12:42:04Z</time>
      </trkpt>
      <trkpt lat="42.74879" lon="2.56981">
        <ele>258.8</ele>
        <time>2021-06-06T12:42:08Z</time>
      </trkpt>
      <trkpt lat="42.74881" lon="2.56989">
        <ele>259</ele>
        <time>2021-06-06T12:42:12Z</time>
      </trkpt>
      <trkpt lat="42.74883" lon="2.56996">
        <ele>259.8</ele>
        <time>2021-06-06T12:42:16Z</time>
      </trkpt>
      <trkpt lat="42.74885" lon="2.57002">
        <ele>260.2</ele>
        <time>2021-06-06T12:42:19Z</time>
      </trkpt>
      <trkpt lat="42.74887" lon="2.57009">
        <ele>260.6</ele>
        <time>2021-06-06T12:42:23Z</time>
      </trkpt>
      <trkpt lat="42.74888" lon="2.57017">
        <ele>260.6</ele>
        <time>2021-06-06T12:42:27Z</time>
      </trkpt>
      <trkpt lat="42.7489" lon="2.57024">
        <ele>260.6</ele>
        <time>2021-06-06T12:42:31Z</time>
      </trkpt>
      <trkpt lat="42.74892" lon="2.57032">
        <ele>261.2</ele>
        <time>2021-06-06T12:42:35Z</time>
      </trkpt>
      <trkpt lat="42.74894" lon="2.5704">
        <ele>261.8</ele>
        <time>2021-06-06T12:42:39Z</time>
      </trkpt>
      <trkpt lat="42.74895" lon="2.57048">
        <ele>262.4</ele>
        <time>2021-06-06T12:42:43Z</time>
      </trkpt>
      <trkpt lat="42.74897" lon="2.57053">
        <ele>262.8</ele>
        <time>2021-06-06T12:42:46Z</time>
      </trkpt>
      <trkpt lat="42.74898" lon="2.57061">
        <ele>263</ele>
        <time>2021-06-06T12:42:50Z</time>
      </trkpt>
      <trkpt lat="42.74899" lon="2.5707">
        <ele>263.2</ele>
        <time>2021-06-06T12:42:54Z</time>
      </trkpt>
      <trkpt lat="42.749" lon="2.57077">
        <ele>263.6</ele>
        <time>2021-06-06T12:42:58Z</time>
      </trkpt>
      <trkpt lat="42.74901" lon="2.57085">
        <ele>264.2</ele>
        <time>2021-06-06T12:43:02Z</time>
      </trkpt>
      <trkpt lat="42.74903" lon="2.57092">
        <ele>264.8</ele>
        <time>2021-06-06T12:43:06Z</time>
      </trkpt>
      <trkpt lat="42.74904" lon="2.57099">
        <ele>265.2</ele>
        <time>2021-06-06T12:43:09Z</time>
      </trkpt>
      <trkpt lat="42.74905" lon="2.57106">
        <ele>265.6</ele>
        <time>2021-06-06T12:43:13Z</time>
      </trkpt>
      <trkpt lat="42.74905" lon="2.57114">
        <ele>266.2</ele>
        <time>2021-06-06T12:43:17Z</time>
      </trkpt>
      <trkpt lat="42.74907" lon="2.57121">
        <ele>266.8</ele>
        <time>2021-06-06T12:43:21Z</time>
      </trkpt>
      <trkpt lat="42.74908" lon="2.57128">
        <ele>267.6</ele>
        <time>2021-06-06T12:43:25Z</time>
      </trkpt>
      <trkpt lat="42.74909" lon="2.57136">
        <ele>268.4</ele>
        <time>2021-06-06T12:43:29Z</time>
      </trkpt>
      <trkpt lat="42.7491" lon="2.57144">
        <ele>268.4</ele>
        <time>2021-06-06T12:43:33Z</time>
      </trkpt>
      <trkpt lat="42.74911" lon="2.5715">
        <ele>268.6</ele>
        <time>2021-06-06T12:43:36Z</time>
      </trkpt>
      <trkpt lat="42.74912" lon="2.57158">
        <ele>269.4</ele>
        <time>2021-06-06T12:43:40Z</time>
      </trkpt>
      <trkpt lat="42.74913" lon="2.57165">
        <ele>270.2</ele>
        <time>2021-06-06T12:43:44Z</time>
      </trkpt>
      <trkpt lat="42.74914" lon="2.57174">
        <ele>270.4</ele>
        <time>2021-06-06T12:43:48Z</time>
      </trkpt>
      <trkpt lat="42.74915" lon="2.57182">
        <ele>271</ele>
        <time>2021-06-06T12:43:52Z</time>
      </trkpt>
      <trkpt lat="42.74917" lon="2.57189">
        <ele>271.8</ele>
        <time>2021-06-06T12:43:56Z</time>
      </trkpt>
      <trkpt lat="42.74918" lon="2.57198">
        <ele>272.4</ele>
        <time>2021-06-06T12:44:00Z</time>
      </trkpt>
      <trkpt lat="42.74918" lon="2.57204">
        <ele>273</ele>
        <time>2021-06-06T12:44:03Z</time>
      </trkpt>
      <trkpt lat="42.74918" lon="2.57212">
        <ele>273.6</ele>
        <time>2021-06-06T12:44:07Z</time>
      </trkpt>
      <trkpt lat="42.74919" lon="2.5722">
        <ele>273.8</ele>
        <time>2021-06-06T12:44:11Z</time>
      </trkpt>
      <trkpt lat="42.7492" lon="2.57227">
        <ele>274.2</ele>
        <time>2021-06-06T12:44:15Z</time>
      </trkpt>
      <trkpt lat="42.7492" lon="2.57235">
        <ele>275.2</ele>
        <time>2021-06-06T12:44:19Z</time>
      </trkpt>
      <trkpt lat="42.74921" lon="2.57243">
        <ele>275.8</ele>
        <time>2021-06-06T12:44:23Z</time>
      </trkpt>
      <trkpt lat="42.7492" lon="2.57251">
        <ele>275.6</ele>
        <time>2021-06-06T12:44:27Z</time>
      </trkpt>
      <trkpt lat="42.7492" lon="2.57257">
        <ele>275.6</ele>
        <time>2021-06-06T12:44:30Z</time>
      </trkpt>
      <trkpt lat="42.7492" lon="2.57265">
        <ele>276</ele>
        <time>2021-06-06T12:44:34Z</time>
      </trkpt>
      <trkpt lat="42.74919" lon="2.57273">
        <ele>276.6</ele>
        <time>2021-06-06T12:44:38Z</time>
      </trkpt>
      <trkpt lat="42.74918" lon="2.57282">
        <ele>277.4</ele>
        <time>2021-06-06T12:44:42Z</time>
      </trkpt>
      <trkpt lat="42.74916" lon="2.5729">
        <ele>278</ele>
        <time>2021-06-06T12:44:46Z</time>
      </trkpt>
      <trkpt lat="42.74914" lon="2.57299">
        <ele>277.8</ele>
        <time>2021-06-06T12:44:50Z</time>
      </trkpt>
      <trkpt lat="42.74911" lon="2.57308">
        <ele>278.2</ele>
        <time>2021-06-06T12:44:54Z</time>
      </trkpt>
      <trkpt lat="42.74909" lon="2.57316">
        <ele>278.2</ele>
        <time>2021-06-06T12:44:57Z</time>
      </trkpt>
      <trkpt lat="42.74906" lon="2.57326">
        <ele>278.8</ele>
        <time>2021-06-06T12:45:01Z</time>
      </trkpt>
      <trkpt lat="42.74903" lon="2.57336">
        <ele>279.2</ele>
        <time>2021-06-06T12:45:05Z</time>
      </trkpt>
      <trkpt lat="42.749" lon="2.57345">
        <ele>279.4</ele>
        <time>2021-06-06T12:45:09Z</time>
      </trkpt>
      <trkpt lat="42.74896" lon="2.57355">
        <ele>279.8</ele>
        <time>2021-06-06T12:45:13Z</time>
      </trkpt>
      <trkpt lat="42.74892" lon="2.57365">
        <ele>280.6</ele>
        <time>2021-06-06T12:45:17Z</time>
      </trkpt>
      <trkpt lat="42.74888" lon="2.57372">
        <ele>281.2</ele>
        <time>2021-06-06T12:45:20Z</time>
      </trkpt>
      <trkpt lat="42.74884" lon="2.57382">
        <ele>281.4</ele>
        <time>2021-06-06T12:45:24Z</time>
      </trkpt>
      <trkpt lat="42.7488" lon="2.57394">
        <ele>281.8</ele>
        <time>2021-06-06T12:45:28Z</time>
      </trkpt>
      <trkpt lat="42.74877" lon="2.57406">
        <ele>282.2</ele>
        <time>2021-06-06T12:45:32Z</time>
      </trkpt>
      <trkpt lat="42.74875" lon="2.5742">
        <ele>282.4</ele>
        <time>2021-06-06T12:45:36Z</time>
      </trkpt>
      <trkpt lat="42.74875" lon="2.57436">
        <ele>282.4</ele>
        <time>2021-06-06T12:45:40Z</time>
      </trkpt>
      <trkpt lat="42.74876" lon="2.57452">
        <ele>282.2</ele>
        <time>2021-06-06T12:45:44Z</time>
      </trkpt>
      <trkpt lat="42.7488" lon="2.57463">
        <ele>282.2</ele>
        <time>2021-06-06T12:45:47Z</time>
      </trkpt>
      <trkpt lat="42.74887" lon="2.57476">
        <ele>282</ele>
        <time>2021-06-06T12:45:51Z</time>
      </trkpt>
      <trkpt lat="42.74898" lon="2.57487">
        <ele>281.6</ele>
        <time>2021-06-06T12:45:55Z</time>
      </trkpt>
      <trkpt lat="42.74903" lon="2.57487">
        <ele>281.4</ele>
        <time>2021-06-06T12:45:59Z</time>
      </trkpt>
      <trkpt lat="42.74903" lon="2.57487">
        <ele>281.4</ele>
        <time>2021-06-06T12:46:03Z</time>
      </trkpt>
      <trkpt lat="42.74902" lon="2.57484">
        <ele>281.4</ele>
        <time>2021-06-06T12:46:07Z</time>
      </trkpt>
      <trkpt lat="42.74907" lon="2.57467">
        <ele>282.4</ele>
        <time>2021-06-06T12:46:18Z</time>
      </trkpt>
      <trkpt lat="42.74907" lon="2.57467">
        <ele>281.8</ele>
        <time>2021-06-06T12:46:21Z</time>
      </trkpt>
      <trkpt lat="42.74908" lon="2.57467">
        <ele>281.8</ele>
        <time>2021-06-06T12:46:25Z</time>
      </trkpt>
      <trkpt lat="42.74909" lon="2.57491">
        <ele>283.8</ele>
        <time>2021-06-06T12:59:26Z</time>
      </trkpt>
      <trkpt lat="42.74922" lon="2.57492">
        <ele>283.2</ele>
        <time>2021-06-06T12:59:30Z</time>
      </trkpt>
      <trkpt lat="42.74938" lon="2.57487">
        <ele>282.4</ele>
        <time>2021-06-06T12:59:34Z</time>
      </trkpt>
      <trkpt lat="42.74955" lon="2.57468">
        <ele>282.2</ele>
        <time>2021-06-06T12:59:38Z</time>
      </trkpt>
      <trkpt lat="42.74973" lon="2.57445">
        <ele>280.8</ele>
        <time>2021-06-06T12:59:42Z</time>
      </trkpt>
      <trkpt lat="42.74994" lon="2.57437">
        <ele>279.8</ele>
        <time>2021-06-06T12:59:45Z</time>
      </trkpt>
      <trkpt lat="42.75021" lon="2.57456">
        <ele>278.4</ele>
        <time>2021-06-06T12:59:49Z</time>
      </trkpt>
      <trkpt lat="42.75038" lon="2.57497">
        <ele>276.8</ele>
        <time>2021-06-06T12:59:53Z</time>
      </trkpt>
      <trkpt lat="42.75054" lon="2.57542">
        <ele>274.8</ele>
        <time>2021-06-06T12:59:57Z</time>
      </trkpt>
      <trkpt lat="42.75068" lon="2.57589">
        <ele>273</ele>
        <time>2021-06-06T13:00:01Z</time>
      </trkpt>
      <trkpt lat="42.7508" lon="2.57641">
        <ele>270.6</ele>
        <time>2021-06-06T13:00:05Z</time>
      </trkpt>
      <trkpt lat="42.75089" lon="2.57695">
        <ele>267</ele>
        <time>2021-06-06T13:00:09Z</time>
      </trkpt>
      <trkpt lat="42.75093" lon="2.57736">
        <ele>264.6</ele>
        <time>2021-06-06T13:00:12Z</time>
      </trkpt>
      <trkpt lat="42.75095" lon="2.57796">
        <ele>262</ele>
        <time>2021-06-06T13:00:16Z</time>
      </trkpt>
      <trkpt lat="42.75099" lon="2.57858">
        <ele>259</ele>
        <time>2021-06-06T13:00:20Z</time>
      </trkpt>
      <trkpt lat="42.75111" lon="2.5791">
        <ele>256.2</ele>
        <time>2021-06-06T13:00:24Z</time>
      </trkpt>
      <trkpt lat="42.7514" lon="2.5794">
        <ele>253.8</ele>
        <time>2021-06-06T13:00:28Z</time>
      </trkpt>
      <trkpt lat="42.75177" lon="2.57937">
        <ele>251.4</ele>
        <time>2021-06-06T13:00:32Z</time>
      </trkpt>
      <trkpt lat="42.75203" lon="2.57905">
        <ele>249.8</ele>
        <time>2021-06-06T13:00:36Z</time>
      </trkpt>
      <trkpt lat="42.75213" lon="2.57871">
        <ele>248</ele>
        <time>2021-06-06T13:00:39Z</time>
      </trkpt>
      <trkpt lat="42.75222" lon="2.57827">
        <ele>246.2</ele>
        <time>2021-06-06T13:00:43Z</time>
      </trkpt>
      <trkpt lat="42.75224" lon="2.57789">
        <ele>244.6</ele>
        <time>2021-06-06T13:00:47Z</time>
      </trkpt>
      <trkpt lat="42.75215" lon="2.57758">
        <ele>243</ele>
        <time>2021-06-06T13:00:51Z</time>
      </trkpt>
      <trkpt lat="42.75204" lon="2.57732">
        <ele>240.8</ele>
        <time>2021-06-06T13:00:55Z</time>
      </trkpt>
      <trkpt lat="42.75195" lon="2.57706">
        <ele>238.6</ele>
        <time>2021-06-06T13:00:59Z</time>
      </trkpt>
      <trkpt lat="42.75194" lon="2.57684">
        <ele>238</ele>
        <time>2021-06-06T13:01:02Z</time>
      </trkpt>
      <trkpt lat="42.75209" lon="2.57657">
        <ele>237.6</ele>
        <time>2021-06-06T13:01:06Z</time>
      </trkpt>
      <trkpt lat="42.75238" lon="2.57657">
        <ele>237.6</ele>
        <time>2021-06-06T13:01:10Z</time>
      </trkpt>
      <trkpt lat="42.75267" lon="2.57683">
        <ele>235.4</ele>
        <time>2021-06-06T13:01:14Z</time>
      </trkpt>
      <trkpt lat="42.75297" lon="2.57719">
        <ele>232.2</ele>
        <time>2021-06-06T13:01:18Z</time>
      </trkpt>
      <trkpt lat="42.75323" lon="2.57768">
        <ele>228.2</ele>
        <time>2021-06-06T13:01:22Z</time>
      </trkpt>
      <trkpt lat="42.75339" lon="2.57825">
        <ele>223.8</ele>
        <time>2021-06-06T13:01:26Z</time>
      </trkpt>
      <trkpt lat="42.75346" lon="2.57871">
        <ele>220.6</ele>
        <time>2021-06-06T13:01:29Z</time>
      </trkpt>
      <trkpt lat="42.75347" lon="2.57934">
        <ele>216.6</ele>
        <time>2021-06-06T13:01:33Z</time>
      </trkpt>
      <trkpt lat="42.75344" lon="2.57999">
        <ele>213.2</ele>
        <time>2021-06-06T13:01:37Z</time>
      </trkpt>
      <trkpt lat="42.7535" lon="2.58063">
        <ele>209.4</ele>
        <time>2021-06-06T13:01:41Z</time>
      </trkpt>
      <trkpt lat="42.75372" lon="2.58124">
        <ele>205.2</ele>
        <time>2021-06-06T13:01:45Z</time>
      </trkpt>
      <trkpt lat="42.75397" lon="2.58184">
        <ele>201.6</ele>
        <time>2021-06-06T13:01:49Z</time>
      </trkpt>
      <trkpt lat="42.75428" lon="2.58239">
        <ele>196</ele>
        <time>2021-06-06T13:01:53Z</time>
      </trkpt>
      <trkpt lat="42.75454" lon="2.58275">
        <ele>192</ele>
        <time>2021-06-06T13:01:56Z</time>
      </trkpt>
      <trkpt lat="42.7547" lon="2.58328">
        <ele>188.4</ele>
        <time>2021-06-06T13:02:00Z</time>
      </trkpt>
      <trkpt lat="42.75466" lon="2.58386">
        <ele>186</ele>
        <time>2021-06-06T13:02:04Z</time>
      </trkpt>
      <trkpt lat="42.75472" lon="2.58444">
        <ele>184.2</ele>
        <time>2021-06-06T13:02:08Z</time>
      </trkpt>
      <trkpt lat="42.75482" lon="2.585">
        <ele>182.6</ele>
        <time>2021-06-06T13:02:12Z</time>
      </trkpt>
      <trkpt lat="42.75491" lon="2.58556">
        <ele>180</ele>
        <time>2021-06-06T13:02:16Z</time>
      </trkpt>
      <trkpt lat="42.75508" lon="2.58611">
        <ele>176.4</ele>
        <time>2021-06-06T13:02:20Z</time>
      </trkpt>
      <trkpt lat="42.75531" lon="2.58648">
        <ele>173.4</ele>
        <time>2021-06-06T13:02:23Z</time>
      </trkpt>
      <trkpt lat="42.75562" lon="2.58699">
        <ele>169.8</ele>
        <time>2021-06-06T13:02:27Z</time>
      </trkpt>
      <trkpt lat="42.75593" lon="2.58748">
        <ele>165.8</ele>
        <time>2021-06-06T13:02:31Z</time>
      </trkpt>
      <trkpt lat="42.75623" lon="2.58797">
        <ele>162.8</ele>
        <time>2021-06-06T13:02:35Z</time>
      </trkpt>
      <trkpt lat="42.75642" lon="2.58856">
        <ele>160.2</ele>
        <time>2021-06-06T13:02:39Z</time>
      </trkpt>
      <trkpt lat="42.75651" lon="2.58917">
        <ele>157.8</ele>
        <time>2021-06-06T13:02:43Z</time>
      </trkpt>
      <trkpt lat="42.75671" lon="2.58966">
        <ele>156.8</ele>
        <time>2021-06-06T13:02:47Z</time>
      </trkpt>
      <trkpt lat="42.75689" lon="2.58993">
        <ele>157.6</ele>
        <time>2021-06-06T13:02:50Z</time>
      </trkpt>
      <trkpt lat="42.75709" lon="2.59023">
        <ele>158.8</ele>
        <time>2021-06-06T13:02:54Z</time>
      </trkpt>
      <trkpt lat="42.75725" lon="2.59046">
        <ele>160</ele>
        <time>2021-06-06T13:02:58Z</time>
      </trkpt>
      <trkpt lat="42.75744" lon="2.5906">
        <ele>160.6</ele>
        <time>2021-06-06T13:03:02Z</time>
      </trkpt>
      <trkpt lat="42.75761" lon="2.5907">
        <ele>161.4</ele>
        <time>2021-06-06T13:03:06Z</time>
      </trkpt>
      <trkpt lat="42.7578" lon="2.59082">
        <ele>161.2</ele>
        <time>2021-06-06T13:03:10Z</time>
      </trkpt>
      <trkpt lat="42.75795" lon="2.59092">
        <ele>160.8</ele>
        <time>2021-06-06T13:03:13Z</time>
      </trkpt>
      <trkpt lat="42.75811" lon="2.59111">
        <ele>161.2</ele>
        <time>2021-06-06T13:03:17Z</time>
      </trkpt>
      <trkpt lat="42.75822" lon="2.59135">
        <ele>160.6</ele>
        <time>2021-06-06T13:03:21Z</time>
      </trkpt>
      <trkpt lat="42.75831" lon="2.59163">
        <ele>159.6</ele>
        <time>2021-06-06T13:03:25Z</time>
      </trkpt>
      <trkpt lat="42.75835" lon="2.59194">
        <ele>158.8</ele>
        <time>2021-06-06T13:03:29Z</time>
      </trkpt>
      <trkpt lat="42.75831" lon="2.59224">
        <ele>158</ele>
        <time>2021-06-06T13:03:33Z</time>
      </trkpt>
      <trkpt lat="42.7582" lon="2.5925">
        <ele>157.2</ele>
        <time>2021-06-06T13:03:37Z</time>
      </trkpt>
      <trkpt lat="42.75813" lon="2.59272">
        <ele>157</ele>
        <time>2021-06-06T13:03:40Z</time>
      </trkpt>
      <trkpt lat="42.7581" lon="2.59306">
        <ele>156.2</ele>
        <time>2021-06-06T13:03:44Z</time>
      </trkpt>
      <trkpt lat="42.7581" lon="2.5934">
        <ele>155.6</ele>
        <time>2021-06-06T13:03:48Z</time>
      </trkpt>
      <trkpt lat="42.75818" lon="2.59372">
        <ele>154.8</ele>
        <time>2021-06-06T13:03:52Z</time>
      </trkpt>
      <trkpt lat="42.75833" lon="2.59401">
        <ele>154.2</ele>
        <time>2021-06-06T13:03:56Z</time>
      </trkpt>
      <trkpt lat="42.75851" lon="2.59432">
        <ele>153.4</ele>
        <time>2021-06-06T13:04:00Z</time>
      </trkpt>
      <trkpt lat="42.7587" lon="2.5946">
        <ele>153.4</ele>
        <time>2021-06-06T13:04:04Z</time>
      </trkpt>
      <trkpt lat="42.75884" lon="2.5948">
        <ele>153</ele>
        <time>2021-06-06T13:04:07Z</time>
      </trkpt>
      <trkpt lat="42.759" lon="2.5951">
        <ele>152.6</ele>
        <time>2021-06-06T13:04:11Z</time>
      </trkpt>
      <trkpt lat="42.7591" lon="2.59545">
        <ele>152</ele>
        <time>2021-06-06T13:04:15Z</time>
      </trkpt>
      <trkpt lat="42.75917" lon="2.59582">
        <ele>151</ele>
        <time>2021-06-06T13:04:19Z</time>
      </trkpt>
      <trkpt lat="42.75936" lon="2.59609">
        <ele>150.6</ele>
        <time>2021-06-06T13:04:23Z</time>
      </trkpt>
      <trkpt lat="42.75961" lon="2.59626">
        <ele>149.8</ele>
        <time>2021-06-06T13:04:27Z</time>
      </trkpt>
      <trkpt lat="42.75989" lon="2.59633">
        <ele>149.6</ele>
        <time>2021-06-06T13:04:31Z</time>
      </trkpt>
      <trkpt lat="42.76009" lon="2.59646">
        <ele>148.8</ele>
        <time>2021-06-06T13:04:34Z</time>
      </trkpt>
      <trkpt lat="42.7603" lon="2.59674">
        <ele>148.4</ele>
        <time>2021-06-06T13:04:38Z</time>
      </trkpt>
      <trkpt lat="42.76047" lon="2.59707">
        <ele>147.6</ele>
        <time>2021-06-06T13:04:42Z</time>
      </trkpt>
      <trkpt lat="42.7606" lon="2.59741">
        <ele>146.4</ele>
        <time>2021-06-06T13:04:46Z</time>
      </trkpt>
      <trkpt lat="42.76073" lon="2.59775">
        <ele>145.4</ele>
        <time>2021-06-06T13:04:50Z</time>
      </trkpt>
      <trkpt lat="42.7608" lon="2.59813">
        <ele>144.2</ele>
        <time>2021-06-06T13:04:54Z</time>
      </trkpt>
      <trkpt lat="42.76086" lon="2.59854">
        <ele>143.4</ele>
        <time>2021-06-06T13:04:58Z</time>
      </trkpt>
      <trkpt lat="42.76088" lon="2.59884">
        <ele>142.2</ele>
        <time>2021-06-06T13:05:01Z</time>
      </trkpt>
      <trkpt lat="42.76092" lon="2.59922">
        <ele>140.6</ele>
        <time>2021-06-06T13:05:05Z</time>
      </trkpt>
      <trkpt lat="42.76096" lon="2.5996">
        <ele>139</ele>
        <time>2021-06-06T13:05:09Z</time>
      </trkpt>
      <trkpt lat="42.76094" lon="2.6">
        <ele>137.8</ele>
        <time>2021-06-06T13:05:13Z</time>
      </trkpt>
      <trkpt lat="42.76092" lon="2.60037">
        <ele>137</ele>
        <time>2021-06-06T13:05:17Z</time>
      </trkpt>
      <trkpt lat="42.7609" lon="2.60073">
        <ele>136.2</ele>
        <time>2021-06-06T13:05:21Z</time>
      </trkpt>
      <trkpt lat="42.76089" lon="2.60108">
        <ele>136</ele>
        <time>2021-06-06T13:05:25Z</time>
      </trkpt>
      <trkpt lat="42.76088" lon="2.6013">
        <ele>136.4</ele>
        <time>2021-06-06T13:05:28Z</time>
      </trkpt>
      <trkpt lat="42.76087" lon="2.60157">
        <ele>136.4</ele>
        <time>2021-06-06T13:05:32Z</time>
      </trkpt>
      <trkpt lat="42.76086" lon="2.6018">
        <ele>136.8</ele>
        <time>2021-06-06T13:05:36Z</time>
      </trkpt>
      <trkpt lat="42.76086" lon="2.60203">
        <ele>137</ele>
        <time>2021-06-06T13:05:40Z</time>
      </trkpt>
      <trkpt lat="42.76088" lon="2.60225">
        <ele>137.2</ele>
        <time>2021-06-06T13:05:44Z</time>
      </trkpt>
      <trkpt lat="42.76089" lon="2.60246">
        <ele>137.4</ele>
        <time>2021-06-06T13:05:48Z</time>
      </trkpt>
      <trkpt lat="42.7609" lon="2.60259">
        <ele>137.8</ele>
        <time>2021-06-06T13:05:51Z</time>
      </trkpt>
      <trkpt lat="42.76092" lon="2.60275">
        <ele>138</ele>
        <time>2021-06-06T13:05:55Z</time>
      </trkpt>
      <trkpt lat="42.76093" lon="2.60287">
        <ele>138</ele>
        <time>2021-06-06T13:05:59Z</time>
      </trkpt>
      <trkpt lat="42.76094" lon="2.60302">
        <ele>138</ele>
        <time>2021-06-06T13:06:03Z</time>
      </trkpt>
      <trkpt lat="42.76096" lon="2.60318">
        <ele>138.2</ele>
        <time>2021-06-06T13:06:07Z</time>
      </trkpt>
      <trkpt lat="42.76098" lon="2.60335">
        <ele>138.4</ele>
        <time>2021-06-06T13:06:11Z</time>
      </trkpt>
      <trkpt lat="42.76099" lon="2.60351">
        <ele>138.8</ele>
        <time>2021-06-06T13:06:15Z</time>
      </trkpt>
      <trkpt lat="42.76099" lon="2.60361">
        <ele>139</ele>
        <time>2021-06-06T13:06:18Z</time>
      </trkpt>
      <trkpt lat="42.76099" lon="2.60373">
        <ele>139.2</ele>
        <time>2021-06-06T13:06:22Z</time>
      </trkpt>
      <trkpt lat="42.76094" lon="2.60376">
        <ele>139</ele>
        <time>2021-06-06T13:06:26Z</time>
      </trkpt>
      <trkpt lat="42.76092" lon="2.60365">
        <ele>138.2</ele>
        <time>2021-06-06T13:06:30Z</time>
      </trkpt>
      <trkpt lat="42.76088" lon="2.60344">
        <ele>136</ele>
        <time>2021-06-06T13:06:34Z</time>
      </trkpt>
      <trkpt lat="42.76084" lon="2.60318">
        <ele>133.2</ele>
        <time>2021-06-06T13:06:38Z</time>
      </trkpt>
      <trkpt lat="42.7608" lon="2.60291">
        <ele>130.6</ele>
        <time>2021-06-06T13:06:42Z</time>
      </trkpt>
      <trkpt lat="42.76078" lon="2.60276">
        <ele>130</ele>
        <time>2021-06-06T13:06:45Z</time>
      </trkpt>
      <trkpt lat="42.76075" lon="2.60262">
        <ele>129.8</ele>
        <time>2021-06-06T13:06:49Z</time>
      </trkpt>
      <trkpt lat="42.76072" lon="2.60245">
        <ele>127.8</ele>
        <time>2021-06-06T13:06:53Z</time>
      </trkpt>
      <trkpt lat="42.76069" lon="2.60229">
        <ele>127.8</ele>
        <time>2021-06-06T13:06:57Z</time>
      </trkpt>
      <trkpt lat="42.7607" lon="2.60217">
        <ele>127</ele>
        <time>2021-06-06T13:07:01Z</time>
      </trkpt>
      <trkpt lat="42.76071" lon="2.60206">
        <ele>127</ele>
        <time>2021-06-06T13:07:05Z</time>
      </trkpt>
      <trkpt lat="42.76071" lon="2.60197">
        <ele>127.8</ele>
        <time>2021-06-06T13:07:09Z</time>
      </trkpt>
      <trkpt lat="42.7607" lon="2.60195">
        <ele>127.8</ele>
        <time>2021-06-06T13:07:12Z</time>
      </trkpt>
      <trkpt lat="42.7607" lon="2.60193">
        <ele>127.4</ele>
        <time>2021-06-06T13:07:16Z</time>
      </trkpt>
      <trkpt lat="42.76066" lon="2.60165">
        <ele>127</ele>
        <time>2021-06-06T13:07:39Z</time>
      </trkpt>
      <trkpt lat="42.76067" lon="2.6016">
        <ele>127.6</ele>
        <time>2021-06-06T13:07:43Z</time>
      </trkpt>
      <trkpt lat="42.76067" lon="2.60155">
        <ele>127.8</ele>
        <time>2021-06-06T13:07:47Z</time>
      </trkpt>
      <trkpt lat="42.76067" lon="2.6015">
        <ele>127.6</ele>
        <time>2021-06-06T13:07:51Z</time>
      </trkpt>
      <trkpt lat="42.76068" lon="2.60145">
        <ele>127.2</ele>
        <time>2021-06-06T13:07:55Z</time>
      </trkpt>
      <trkpt lat="42.76067" lon="2.60142">
        <ele>127.2</ele>
        <time>2021-06-06T13:07:58Z</time>
      </trkpt>
      <trkpt lat="42.76066" lon="2.60138">
        <ele>127.2</ele>
        <time>2021-06-06T13:08:02Z</time>
      </trkpt>
      <trkpt lat="42.76066" lon="2.60136">
        <ele>127</ele>
        <time>2021-06-06T13:08:06Z</time>
      </trkpt>
      <trkpt lat="42.76069" lon="2.60112">
        <ele>127</ele>
        <time>2021-06-06T13:08:36Z</time>
      </trkpt>
      <trkpt lat="42.7607" lon="2.60107">
        <ele>126.6</ele>
        <time>2021-06-06T13:08:40Z</time>
      </trkpt>
      <trkpt lat="42.76071" lon="2.60102">
        <ele>125.6</ele>
        <time>2021-06-06T13:08:44Z</time>
      </trkpt>
      <trkpt lat="42.76073" lon="2.60097">
        <ele>126.2</ele>
        <time>2021-06-06T13:08:48Z</time>
      </trkpt>
      <trkpt lat="42.76074" lon="2.60093">
        <ele>126.4</ele>
        <time>2021-06-06T13:08:51Z</time>
      </trkpt>
      <trkpt lat="42.76075" lon="2.60089">
        <ele>126.8</ele>
        <time>2021-06-06T13:08:55Z</time>
      </trkpt>
      <trkpt lat="42.76076" lon="2.60085">
        <ele>127.2</ele>
        <time>2021-06-06T13:08:59Z</time>
      </trkpt>
      <trkpt lat="42.76078" lon="2.60081">
        <ele>127.6</ele>
        <time>2021-06-06T13:09:03Z</time>
      </trkpt>
      <trkpt lat="42.76076" lon="2.60115">
        <ele>127.6</ele>
        <time>2021-06-06T13:35:11Z</time>
      </trkpt>
      <trkpt lat="42.76074" lon="2.60128">
        <ele>127.4</ele>
        <time>2021-06-06T13:35:15Z</time>
      </trkpt>
      <trkpt lat="42.76073" lon="2.60137">
        <ele>127.6</ele>
        <time>2021-06-06T13:35:18Z</time>
      </trkpt>
      <trkpt lat="42.76071" lon="2.60149">
        <ele>127.8</ele>
        <time>2021-06-06T13:35:22Z</time>
      </trkpt>
      <trkpt lat="42.76069" lon="2.60159">
        <ele>128</ele>
        <time>2021-06-06T13:35:26Z</time>
      </trkpt>
      <trkpt lat="42.7607" lon="2.6017">
        <ele>128</ele>
        <time>2021-06-06T13:35:30Z</time>
      </trkpt>
      <trkpt lat="42.76072" lon="2.60174">
        <ele>128</ele>
        <time>2021-06-06T13:35:34Z</time>
      </trkpt>
      <trkpt lat="42.76071" lon="2.60177">
        <ele>127.6</ele>
        <time>2021-06-06T13:35:38Z</time>
      </trkpt>
      <trkpt lat="42.7607" lon="2.60191">
        <ele>126.8</ele>
        <time>2021-06-06T13:35:56Z</time>
      </trkpt>
      <trkpt lat="42.7607" lon="2.60192">
        <ele>126.4</ele>
        <time>2021-06-06T13:35:59Z</time>
      </trkpt>
      <trkpt lat="42.76073" lon="2.60221">
        <ele>125</ele>
        <time>2021-06-06T13:36:18Z</time>
      </trkpt>
      <trkpt lat="42.76074" lon="2.60234">
        <ele>125.8</ele>
        <time>2021-06-06T13:36:22Z</time>
      </trkpt>
      <trkpt lat="42.76073" lon="2.60247">
        <ele>126.6</ele>
        <time>2021-06-06T13:36:26Z</time>
      </trkpt>
      <trkpt lat="42.76074" lon="2.60258">
        <ele>127.2</ele>
        <time>2021-06-06T13:36:30Z</time>
      </trkpt>
      <trkpt lat="42.76076" lon="2.60267">
        <ele>127.8</ele>
        <time>2021-06-06T13:36:34Z</time>
      </trkpt>
      <trkpt lat="42.76077" lon="2.60276">
        <ele>128.6</ele>
        <time>2021-06-06T13:36:38Z</time>
      </trkpt>
      <trkpt lat="42.76078" lon="2.60283">
        <ele>129.4</ele>
        <time>2021-06-06T13:36:41Z</time>
      </trkpt>
      <trkpt lat="42.7608" lon="2.60293">
        <ele>130.4</ele>
        <time>2021-06-06T13:36:45Z</time>
      </trkpt>
      <trkpt lat="42.76082" lon="2.60301">
        <ele>131</ele>
        <time>2021-06-06T13:36:49Z</time>
      </trkpt>
      <trkpt lat="42.76084" lon="2.6031">
        <ele>131.2</ele>
        <time>2021-06-06T13:36:53Z</time>
      </trkpt>
      <trkpt lat="42.76085" lon="2.6032">
        <ele>131.8</ele>
        <time>2021-06-06T13:36:57Z</time>
      </trkpt>
      <trkpt lat="42.76087" lon="2.60329">
        <ele>132.8</ele>
        <time>2021-06-06T13:37:01Z</time>
      </trkpt>
      <trkpt lat="42.76088" lon="2.60337">
        <ele>134.2</ele>
        <time>2021-06-06T13:37:05Z</time>
      </trkpt>
      <trkpt lat="42.76089" lon="2.60342">
        <ele>135</ele>
        <time>2021-06-06T13:37:08Z</time>
      </trkpt>
      <trkpt lat="42.76091" lon="2.6035">
        <ele>136</ele>
        <time>2021-06-06T13:37:12Z</time>
      </trkpt>
      <trkpt lat="42.76092" lon="2.60357">
        <ele>137.4</ele>
        <time>2021-06-06T13:37:16Z</time>
      </trkpt>
      <trkpt lat="42.76093" lon="2.60364">
        <ele>138.2</ele>
        <time>2021-06-06T13:37:20Z</time>
      </trkpt>
      <trkpt lat="42.76093" lon="2.60371">
        <ele>138.6</ele>
        <time>2021-06-06T13:37:24Z</time>
      </trkpt>
      <trkpt lat="42.76095" lon="2.60378">
        <ele>138.4</ele>
        <time>2021-06-06T13:37:28Z</time>
      </trkpt>
      <trkpt lat="42.76094" lon="2.60382">
        <ele>138.2</ele>
        <time>2021-06-06T13:37:32Z</time>
      </trkpt>
      <trkpt lat="42.76094" lon="2.60383">
        <ele>138</ele>
        <time>2021-06-06T13:37:35Z</time>
      </trkpt>
      <trkpt lat="42.7609" lon="2.60405">
        <ele>138.6</ele>
        <time>2021-06-06T13:38:23Z</time>
      </trkpt>
      <trkpt lat="42.76085" lon="2.60421">
        <ele>138.8</ele>
        <time>2021-06-06T13:38:28Z</time>
      </trkpt>
      <trkpt lat="42.76083" lon="2.60437">
        <ele>138.6</ele>
        <time>2021-06-06T13:38:32Z</time>
      </trkpt>
      <trkpt lat="42.76083" lon="2.60453">
        <ele>138.4</ele>
        <time>2021-06-06T13:38:36Z</time>
      </trkpt>
      <trkpt lat="42.76084" lon="2.60469">
        <ele>138.6</ele>
        <time>2021-06-06T13:38:40Z</time>
      </trkpt>
      <trkpt lat="42.76086" lon="2.60482">
        <ele>138.6</ele>
        <time>2021-06-06T13:38:43Z</time>
      </trkpt>
      <trkpt lat="42.7609" lon="2.605">
        <ele>138.2</ele>
        <time>2021-06-06T13:38:47Z</time>
      </trkpt>
      <trkpt lat="42.76094" lon="2.60519">
        <ele>138</ele>
        <time>2021-06-06T13:38:51Z</time>
      </trkpt>
      <trkpt lat="42.76098" lon="2.60536">
        <ele>138.2</ele>
        <time>2021-06-06T13:38:55Z</time>
      </trkpt>
      <trkpt lat="42.76104" lon="2.60559">
        <ele>137.6</ele>
        <time>2021-06-06T13:39:00Z</time>
      </trkpt>
      <trkpt lat="42.7611" lon="2.60582">
        <ele>138</ele>
        <time>2021-06-06T13:39:05Z</time>
      </trkpt>
      <trkpt lat="42.76118" lon="2.60614">
        <ele>138.6</ele>
        <time>2021-06-06T13:39:11Z</time>
      </trkpt>
      <trkpt lat="42.76124" lon="2.60634">
        <ele>139</ele>
        <time>2021-06-06T13:39:15Z</time>
      </trkpt>
      <trkpt lat="42.76134" lon="2.60659">
        <ele>139.2</ele>
        <time>2021-06-06T13:39:20Z</time>
      </trkpt>
      <trkpt lat="42.76153" lon="2.60677">
        <ele>138.6</ele>
        <time>2021-06-06T13:39:25Z</time>
      </trkpt>
      <trkpt lat="42.76174" lon="2.60681">
        <ele>138.2</ele>
        <time>2021-06-06T13:39:30Z</time>
      </trkpt>
      <trkpt lat="42.76213" lon="2.60682">
        <ele>136.4</ele>
        <time>2021-06-06T13:39:35Z</time>
      </trkpt>
      <trkpt lat="42.76242" lon="2.60682">
        <ele>135.6</ele>
        <time>2021-06-06T13:39:39Z</time>
      </trkpt>
      <trkpt lat="42.76276" lon="2.60696">
        <ele>133.8</ele>
        <time>2021-06-06T13:39:45Z</time>
      </trkpt>
      <trkpt lat="42.76312" lon="2.60714">
        <ele>135.2</ele>
        <time>2021-06-06T13:39:50Z</time>
      </trkpt>
      <trkpt lat="42.76341" lon="2.60734">
        <ele>135.4</ele>
        <time>2021-06-06T13:39:56Z</time>
      </trkpt>
      <trkpt lat="42.76356" lon="2.60751">
        <ele>136.2</ele>
        <time>2021-06-06T13:40:00Z</time>
      </trkpt>
      <trkpt lat="42.76368" lon="2.6077">
        <ele>137.2</ele>
        <time>2021-06-06T13:40:04Z</time>
      </trkpt>
      <trkpt lat="42.76372" lon="2.60798">
        <ele>138</ele>
        <time>2021-06-06T13:40:09Z</time>
      </trkpt>
      <trkpt lat="42.76373" lon="2.60826">
        <ele>138.4</ele>
        <time>2021-06-06T13:40:15Z</time>
      </trkpt>
      <trkpt lat="42.76383" lon="2.60856">
        <ele>137.8</ele>
        <time>2021-06-06T13:40:20Z</time>
      </trkpt>
      <trkpt lat="42.76393" lon="2.60875">
        <ele>137</ele>
        <time>2021-06-06T13:40:23Z</time>
      </trkpt>
      <trkpt lat="42.76407" lon="2.60903">
        <ele>136.4</ele>
        <time>2021-06-06T13:40:27Z</time>
      </trkpt>
      <trkpt lat="42.76425" lon="2.60929">
        <ele>135.6</ele>
        <time>2021-06-06T13:40:31Z</time>
      </trkpt>
      <trkpt lat="42.76451" lon="2.60946">
        <ele>134.4</ele>
        <time>2021-06-06T13:40:35Z</time>
      </trkpt>
      <trkpt lat="42.76478" lon="2.6096">
        <ele>133.6</ele>
        <time>2021-06-06T13:40:39Z</time>
      </trkpt>
      <trkpt lat="42.76508" lon="2.60969">
        <ele>132.2</ele>
        <time>2021-06-06T13:40:43Z</time>
      </trkpt>
      <trkpt lat="42.76537" lon="2.60979">
        <ele>130.6</ele>
        <time>2021-06-06T13:40:47Z</time>
      </trkpt>
      <trkpt lat="42.76559" lon="2.60987">
        <ele>128.6</ele>
        <time>2021-06-06T13:40:50Z</time>
      </trkpt>
      <trkpt lat="42.76582" lon="2.6101">
        <ele>128.6</ele>
        <time>2021-06-06T13:40:54Z</time>
      </trkpt>
      <trkpt lat="42.76587" lon="2.6104">
        <ele>128</ele>
        <time>2021-06-06T13:40:58Z</time>
      </trkpt>
      <trkpt lat="42.76573" lon="2.61054">
        <ele>129</ele>
        <time>2021-06-06T13:41:02Z</time>
      </trkpt>
      <trkpt lat="42.7656" lon="2.61059">
        <ele>129.6</ele>
        <time>2021-06-06T13:41:06Z</time>
      </trkpt>
      <trkpt lat="42.76547" lon="2.61062">
        <ele>129.8</ele>
        <time>2021-06-06T13:41:10Z</time>
      </trkpt>
      <trkpt lat="42.76534" lon="2.61064">
        <ele>131.8</ele>
        <time>2021-06-06T13:41:14Z</time>
      </trkpt>
      <trkpt lat="42.76525" lon="2.61066">
        <ele>132.8</ele>
        <time>2021-06-06T13:41:17Z</time>
      </trkpt>
      <trkpt lat="42.76513" lon="2.61065">
        <ele>132</ele>
        <time>2021-06-06T13:41:21Z</time>
      </trkpt>
      <trkpt lat="42.76503" lon="2.61068">
        <ele>131.6</ele>
        <time>2021-06-06T13:41:25Z</time>
      </trkpt>
      <trkpt lat="42.76493" lon="2.61069">
        <ele>132.4</ele>
        <time>2021-06-06T13:41:29Z</time>
      </trkpt>
      <trkpt lat="42.76481" lon="2.61072">
        <ele>133.4</ele>
        <time>2021-06-06T13:41:33Z</time>
      </trkpt>
      <trkpt lat="42.76471" lon="2.61076">
        <ele>134.2</ele>
        <time>2021-06-06T13:41:37Z</time>
      </trkpt>
      <trkpt lat="42.76464" lon="2.61082">
        <ele>134.8</ele>
        <time>2021-06-06T13:41:40Z</time>
      </trkpt>
      <trkpt lat="42.76458" lon="2.61093">
        <ele>135.6</ele>
        <time>2021-06-06T13:41:44Z</time>
      </trkpt>
      <trkpt lat="42.76454" lon="2.61106">
        <ele>135.8</ele>
        <time>2021-06-06T13:41:48Z</time>
      </trkpt>
      <trkpt lat="42.76454" lon="2.61124">
        <ele>135.8</ele>
        <time>2021-06-06T13:41:52Z</time>
      </trkpt>
      <trkpt lat="42.76462" lon="2.61144">
        <ele>135.6</ele>
        <time>2021-06-06T13:41:56Z</time>
      </trkpt>
      <trkpt lat="42.76473" lon="2.61164">
        <ele>135.6</ele>
        <time>2021-06-06T13:42:00Z</time>
      </trkpt>
      <trkpt lat="42.76485" lon="2.61184">
        <ele>135.8</ele>
        <time>2021-06-06T13:42:04Z</time>
      </trkpt>
      <trkpt lat="42.76494" lon="2.61199">
        <ele>136.2</ele>
        <time>2021-06-06T13:42:07Z</time>
      </trkpt>
      <trkpt lat="42.76506" lon="2.61219">
        <ele>136</ele>
        <time>2021-06-06T13:42:11Z</time>
      </trkpt>
      <trkpt lat="42.76519" lon="2.61238">
        <ele>136.2</ele>
        <time>2021-06-06T13:42:15Z</time>
      </trkpt>
      <trkpt lat="42.76531" lon="2.61257">
        <ele>136.4</ele>
        <time>2021-06-06T13:42:19Z</time>
      </trkpt>
      <trkpt lat="42.76544" lon="2.61275">
        <ele>136.6</ele>
        <time>2021-06-06T13:42:23Z</time>
      </trkpt>
      <trkpt lat="42.76558" lon="2.61293">
        <ele>136.8</ele>
        <time>2021-06-06T13:42:27Z</time>
      </trkpt>
      <trkpt lat="42.76571" lon="2.61312">
        <ele>137</ele>
        <time>2021-06-06T13:42:31Z</time>
      </trkpt>
      <trkpt lat="42.76581" lon="2.61324">
        <ele>137</ele>
        <time>2021-06-06T13:42:34Z</time>
      </trkpt>
      <trkpt lat="42.76593" lon="2.6134">
        <ele>136.4</ele>
        <time>2021-06-06T13:42:38Z</time>
      </trkpt>
      <trkpt lat="42.76605" lon="2.61355">
        <ele>134.4</ele>
        <time>2021-06-06T13:42:42Z</time>
      </trkpt>
      <trkpt lat="42.76618" lon="2.61371">
        <ele>134.4</ele>
        <time>2021-06-06T13:42:46Z</time>
      </trkpt>
      <trkpt lat="42.76631" lon="2.61391">
        <ele>136.8</ele>
        <time>2021-06-06T13:42:50Z</time>
      </trkpt>
      <trkpt lat="42.76643" lon="2.61413">
        <ele>137.4</ele>
        <time>2021-06-06T13:42:54Z</time>
      </trkpt>
      <trkpt lat="42.76653" lon="2.61435">
        <ele>138.2</ele>
        <time>2021-06-06T13:42:58Z</time>
      </trkpt>
      <trkpt lat="42.7666" lon="2.61451">
        <ele>138.6</ele>
        <time>2021-06-06T13:43:01Z</time>
      </trkpt>
      <trkpt lat="42.7667" lon="2.61474">
        <ele>139.2</ele>
        <time>2021-06-06T13:43:05Z</time>
      </trkpt>
      <trkpt lat="42.76681" lon="2.61497">
        <ele>140</ele>
        <time>2021-06-06T13:43:09Z</time>
      </trkpt>
      <trkpt lat="42.76692" lon="2.6152">
        <ele>140</ele>
        <time>2021-06-06T13:43:13Z</time>
      </trkpt>
      <trkpt lat="42.76704" lon="2.61541">
        <ele>140.8</ele>
        <time>2021-06-06T13:43:17Z</time>
      </trkpt>
      <trkpt lat="42.76713" lon="2.6156">
        <ele>141</ele>
        <time>2021-06-06T13:43:21Z</time>
      </trkpt>
      <trkpt lat="42.76721" lon="2.61578">
        <ele>141</ele>
        <time>2021-06-06T13:43:25Z</time>
      </trkpt>
      <trkpt lat="42.76724" lon="2.61592">
        <ele>141.8</ele>
        <time>2021-06-06T13:43:28Z</time>
      </trkpt>
      <trkpt lat="42.76723" lon="2.61608">
        <ele>142</ele>
        <time>2021-06-06T13:43:32Z</time>
      </trkpt>
      <trkpt lat="42.76719" lon="2.61621">
        <ele>142.4</ele>
        <time>2021-06-06T13:43:36Z</time>
      </trkpt>
      <trkpt lat="42.76715" lon="2.6163">
        <ele>142.2</ele>
        <time>2021-06-06T13:43:40Z</time>
      </trkpt>
      <trkpt lat="42.76713" lon="2.61641">
        <ele>142.6</ele>
        <time>2021-06-06T13:43:44Z</time>
      </trkpt>
      <trkpt lat="42.76713" lon="2.61652">
        <ele>141</ele>
        <time>2021-06-06T13:43:48Z</time>
      </trkpt>
      <trkpt lat="42.76713" lon="2.61663">
        <ele>143.6</ele>
        <time>2021-06-06T13:43:52Z</time>
      </trkpt>
      <trkpt lat="42.76713" lon="2.61672">
        <ele>142.4</ele>
        <time>2021-06-06T13:43:55Z</time>
      </trkpt>
      <trkpt lat="42.76714" lon="2.61682">
        <ele>142.4</ele>
        <time>2021-06-06T13:43:59Z</time>
      </trkpt>
      <trkpt lat="42.76715" lon="2.61692">
        <ele>146.8</ele>
        <time>2021-06-06T13:44:03Z</time>
      </trkpt>
      <trkpt lat="42.76714" lon="2.61703">
        <ele>147.2</ele>
        <time>2021-06-06T13:44:07Z</time>
      </trkpt>
      <trkpt lat="42.76713" lon="2.61714">
        <ele>148.2</ele>
        <time>2021-06-06T13:44:11Z</time>
      </trkpt>
      <trkpt lat="42.7671" lon="2.61724">
        <ele>148.4</ele>
        <time>2021-06-06T13:44:15Z</time>
      </trkpt>
      <trkpt lat="42.76707" lon="2.61731">
        <ele>149</ele>
        <time>2021-06-06T13:44:18Z</time>
      </trkpt>
      <trkpt lat="42.76703" lon="2.61739">
        <ele>149.4</ele>
        <time>2021-06-06T13:44:22Z</time>
      </trkpt>
      <trkpt lat="42.76698" lon="2.61747">
        <ele>150</ele>
        <time>2021-06-06T13:44:26Z</time>
      </trkpt>
      <trkpt lat="42.76693" lon="2.61755">
        <ele>149.2</ele>
        <time>2021-06-06T13:44:30Z</time>
      </trkpt>
      <trkpt lat="42.76687" lon="2.61763">
        <ele>149.8</ele>
        <time>2021-06-06T13:44:34Z</time>
      </trkpt>
      <trkpt lat="42.76683" lon="2.61772">
        <ele>150.2</ele>
        <time>2021-06-06T13:44:38Z</time>
      </trkpt>
      <trkpt lat="42.7668" lon="2.61782">
        <ele>150.6</ele>
        <time>2021-06-06T13:44:42Z</time>
      </trkpt>
      <trkpt lat="42.76679" lon="2.6179">
        <ele>151</ele>
        <time>2021-06-06T13:44:45Z</time>
      </trkpt>
      <trkpt lat="42.76679" lon="2.61801">
        <ele>152.8</ele>
        <time>2021-06-06T13:44:49Z</time>
      </trkpt>
      <trkpt lat="42.7668" lon="2.61812">
        <ele>152.8</ele>
        <time>2021-06-06T13:44:53Z</time>
      </trkpt>
      <trkpt lat="42.76679" lon="2.61822">
        <ele>153.6</ele>
        <time>2021-06-06T13:44:57Z</time>
      </trkpt>
      <trkpt lat="42.76679" lon="2.61834">
        <ele>154</ele>
        <time>2021-06-06T13:45:01Z</time>
      </trkpt>
      <trkpt lat="42.76677" lon="2.61845">
        <ele>153.4</ele>
        <time>2021-06-06T13:45:05Z</time>
      </trkpt>
      <trkpt lat="42.76676" lon="2.61855">
        <ele>154.6</ele>
        <time>2021-06-06T13:45:09Z</time>
      </trkpt>
      <trkpt lat="42.76675" lon="2.61863">
        <ele>154.8</ele>
        <time>2021-06-06T13:45:12Z</time>
      </trkpt>
      <trkpt lat="42.76672" lon="2.61878">
        <ele>154</ele>
        <time>2021-06-06T13:45:16Z</time>
      </trkpt>
      <trkpt lat="42.76672" lon="2.61899">
        <ele>153.6</ele>
        <time>2021-06-06T13:45:20Z</time>
      </trkpt>
      <trkpt lat="42.76679" lon="2.61918">
        <ele>152.2</ele>
        <time>2021-06-06T13:45:24Z</time>
      </trkpt>
      <trkpt lat="42.76688" lon="2.61935">
        <ele>153.4</ele>
        <time>2021-06-06T13:45:28Z</time>
      </trkpt>
      <trkpt lat="42.76695" lon="2.61949">
        <ele>153.4</ele>
        <time>2021-06-06T13:45:32Z</time>
      </trkpt>
      <trkpt lat="42.76698" lon="2.61955">
        <ele>153.6</ele>
        <time>2021-06-06T13:45:36Z</time>
      </trkpt>
      <trkpt lat="42.76699" lon="2.61957">
        <ele>153.2</ele>
        <time>2021-06-06T13:45:39Z</time>
      </trkpt>
      <trkpt lat="42.76698" lon="2.61958">
        <ele>152.8</ele>
        <time>2021-06-06T13:45:43Z</time>
      </trkpt>
      <trkpt lat="42.76698" lon="2.61958">
        <ele>152.2</ele>
        <time>2021-06-06T13:45:47Z</time>
      </trkpt>
      <trkpt lat="42.76689" lon="2.62015">
        <ele>149.6</ele>
        <time>2021-06-06T13:46:14Z</time>
      </trkpt>
      <trkpt lat="42.76661" lon="2.62011">
        <ele>146</ele>
        <time>2021-06-06T13:46:18Z</time>
      </trkpt>
      <trkpt lat="42.76633" lon="2.61999">
        <ele>143.4</ele>
        <time>2021-06-06T13:46:22Z</time>
      </trkpt>
      <trkpt lat="42.76607" lon="2.62023">
        <ele>141</ele>
        <time>2021-06-06T13:46:26Z</time>
      </trkpt>
      <trkpt lat="42.76595" lon="2.62054">
        <ele>141</ele>
        <time>2021-06-06T13:46:29Z</time>
      </trkpt>
      <trkpt lat="42.76584" lon="2.62096">
        <ele>138.4</ele>
        <time>2021-06-06T13:46:33Z</time>
      </trkpt>
      <trkpt lat="42.76574" lon="2.62139">
        <ele>137.6</ele>
        <time>2021-06-06T13:46:37Z</time>
      </trkpt>
      <trkpt lat="42.76567" lon="2.62186">
        <ele>136.6</ele>
        <time>2021-06-06T13:46:41Z</time>
      </trkpt>
      <trkpt lat="42.76562" lon="2.62236">
        <ele>135.4</ele>
        <time>2021-06-06T13:46:45Z</time>
      </trkpt>
      <trkpt lat="42.76554" lon="2.62286">
        <ele>135.6</ele>
        <time>2021-06-06T13:46:49Z</time>
      </trkpt>
      <trkpt lat="42.76547" lon="2.6232">
        <ele>134.6</ele>
        <time>2021-06-06T13:46:52Z</time>
      </trkpt>
      <trkpt lat="42.76537" lon="2.62362">
        <ele>133.4</ele>
        <time>2021-06-06T13:46:56Z</time>
      </trkpt>
      <trkpt lat="42.76527" lon="2.62409">
        <ele>132.2</ele>
        <time>2021-06-06T13:47:00Z</time>
      </trkpt>
      <trkpt lat="42.76515" lon="2.62458">
        <ele>132</ele>
        <time>2021-06-06T13:47:04Z</time>
      </trkpt>
      <trkpt lat="42.76504" lon="2.62504">
        <ele>132.8</ele>
        <time>2021-06-06T13:47:08Z</time>
      </trkpt>
      <trkpt lat="42.76493" lon="2.62543">
        <ele>134.8</ele>
        <time>2021-06-06T13:47:12Z</time>
      </trkpt>
      <trkpt lat="42.76479" lon="2.62577">
        <ele>135.4</ele>
        <time>2021-06-06T13:47:16Z</time>
      </trkpt>
      <trkpt lat="42.76468" lon="2.62602">
        <ele>135.4</ele>
        <time>2021-06-06T13:47:19Z</time>
      </trkpt>
      <trkpt lat="42.76456" lon="2.62635">
        <ele>135.2</ele>
        <time>2021-06-06T13:47:23Z</time>
      </trkpt>
      <trkpt lat="42.76446" lon="2.62668">
        <ele>135</ele>
        <time>2021-06-06T13:47:27Z</time>
      </trkpt>
      <trkpt lat="42.76437" lon="2.62698">
        <ele>134.6</ele>
        <time>2021-06-06T13:47:31Z</time>
      </trkpt>
      <trkpt lat="42.76429" lon="2.62725">
        <ele>135.6</ele>
        <time>2021-06-06T13:47:35Z</time>
      </trkpt>
      <trkpt lat="42.7642" lon="2.62746">
        <ele>136.4</ele>
        <time>2021-06-06T13:47:39Z</time>
      </trkpt>
      <trkpt lat="42.7641" lon="2.62761">
        <ele>137</ele>
        <time>2021-06-06T13:47:43Z</time>
      </trkpt>
      <trkpt lat="42.76402" lon="2.62771">
        <ele>137</ele>
        <time>2021-06-06T13:47:46Z</time>
      </trkpt>
      <trkpt lat="42.76391" lon="2.62782">
        <ele>139.6</ele>
        <time>2021-06-06T13:47:50Z</time>
      </trkpt>
      <trkpt lat="42.76379" lon="2.62793">
        <ele>140</ele>
        <time>2021-06-06T13:47:54Z</time>
      </trkpt>
      <trkpt lat="42.76369" lon="2.62805">
        <ele>141</ele>
        <time>2021-06-06T13:47:58Z</time>
      </trkpt>
      <trkpt lat="42.76361" lon="2.6282">
        <ele>142.2</ele>
        <time>2021-06-06T13:48:02Z</time>
      </trkpt>
      <trkpt lat="42.76355" lon="2.62838">
        <ele>141.4</ele>
        <time>2021-06-06T13:48:06Z</time>
      </trkpt>
      <trkpt lat="42.76352" lon="2.62861">
        <ele>141</ele>
        <time>2021-06-06T13:48:10Z</time>
      </trkpt>
      <trkpt lat="42.7635" lon="2.62879">
        <ele>142</ele>
        <time>2021-06-06T13:48:13Z</time>
      </trkpt>
      <trkpt lat="42.76345" lon="2.62904">
        <ele>142.6</ele>
        <time>2021-06-06T13:48:17Z</time>
      </trkpt>
      <trkpt lat="42.76337" lon="2.62926">
        <ele>142.8</ele>
        <time>2021-06-06T13:48:21Z</time>
      </trkpt>
      <trkpt lat="42.7633" lon="2.62948">
        <ele>143</ele>
        <time>2021-06-06T13:48:25Z</time>
      </trkpt>
      <trkpt lat="42.76322" lon="2.62972">
        <ele>142.4</ele>
        <time>2021-06-06T13:48:29Z</time>
      </trkpt>
      <trkpt lat="42.76315" lon="2.62999">
        <ele>142.2</ele>
        <time>2021-06-06T13:48:33Z</time>
      </trkpt>
      <trkpt lat="42.76314" lon="2.63033">
        <ele>142.2</ele>
        <time>2021-06-06T13:48:37Z</time>
      </trkpt>
      <trkpt lat="42.76317" lon="2.6306">
        <ele>141.8</ele>
        <time>2021-06-06T13:48:40Z</time>
      </trkpt>
      <trkpt lat="42.76325" lon="2.63095">
        <ele>141.4</ele>
        <time>2021-06-06T13:48:44Z</time>
      </trkpt>
      <trkpt lat="42.76332" lon="2.63131">
        <ele>140.8</ele>
        <time>2021-06-06T13:48:48Z</time>
      </trkpt>
      <trkpt lat="42.7634" lon="2.63167">
        <ele>140.4</ele>
        <time>2021-06-06T13:48:52Z</time>
      </trkpt>
      <trkpt lat="42.76347" lon="2.63205">
        <ele>140.2</ele>
        <time>2021-06-06T13:48:56Z</time>
      </trkpt>
      <trkpt lat="42.76356" lon="2.63245">
        <ele>139.4</ele>
        <time>2021-06-06T13:49:00Z</time>
      </trkpt>
      <trkpt lat="42.76369" lon="2.63286">
        <ele>138.8</ele>
        <time>2021-06-06T13:49:04Z</time>
      </trkpt>
      <trkpt lat="42.76379" lon="2.63318">
        <ele>136.4</ele>
        <time>2021-06-06T13:49:07Z</time>
      </trkpt>
      <trkpt lat="42.76388" lon="2.63365">
        <ele>134.4</ele>
        <time>2021-06-06T13:49:11Z</time>
      </trkpt>
      <trkpt lat="42.7639" lon="2.63419">
        <ele>131.8</ele>
        <time>2021-06-06T13:49:15Z</time>
      </trkpt>
      <trkpt lat="42.76401" lon="2.63476">
        <ele>129.2</ele>
        <time>2021-06-06T13:49:19Z</time>
      </trkpt>
      <trkpt lat="42.7642" lon="2.63531">
        <ele>126.6</ele>
        <time>2021-06-06T13:49:23Z</time>
      </trkpt>
      <trkpt lat="42.76441" lon="2.63584">
        <ele>124.2</ele>
        <time>2021-06-06T13:49:27Z</time>
      </trkpt>
      <trkpt lat="42.7646" lon="2.63621">
        <ele>122.2</ele>
        <time>2021-06-06T13:49:30Z</time>
      </trkpt>
      <trkpt lat="42.76485" lon="2.63673">
        <ele>120.4</ele>
        <time>2021-06-06T13:49:34Z</time>
      </trkpt>
      <trkpt lat="42.76511" lon="2.63723">
        <ele>119.6</ele>
        <time>2021-06-06T13:49:38Z</time>
      </trkpt>
      <trkpt lat="42.76527" lon="2.63773">
        <ele>118.8</ele>
        <time>2021-06-06T13:49:42Z</time>
      </trkpt>
      <trkpt lat="42.76538" lon="2.63823">
        <ele>117.6</ele>
        <time>2021-06-06T13:49:46Z</time>
      </trkpt>
      <trkpt lat="42.76538" lon="2.63875">
        <ele>116.6</ele>
        <time>2021-06-06T13:49:50Z</time>
      </trkpt>
      <trkpt lat="42.76537" lon="2.63923">
        <ele>115.4</ele>
        <time>2021-06-06T13:49:54Z</time>
      </trkpt>
      <trkpt lat="42.76533" lon="2.63956">
        <ele>116</ele>
        <time>2021-06-06T13:49:57Z</time>
      </trkpt>
      <trkpt lat="42.76528" lon="2.63993">
        <ele>117</ele>
        <time>2021-06-06T13:50:01Z</time>
      </trkpt>
      <trkpt lat="42.76525" lon="2.64027">
        <ele>118</ele>
        <time>2021-06-06T13:50:05Z</time>
      </trkpt>
      <trkpt lat="42.76525" lon="2.64057">
        <ele>119</ele>
        <time>2021-06-06T13:50:09Z</time>
      </trkpt>
      <trkpt lat="42.76525" lon="2.64085">
        <ele>120</ele>
        <time>2021-06-06T13:50:13Z</time>
      </trkpt>
      <trkpt lat="42.76524" lon="2.6411">
        <ele>120.6</ele>
        <time>2021-06-06T13:50:17Z</time>
      </trkpt>
      <trkpt lat="42.76523" lon="2.64133">
        <ele>120.8</ele>
        <time>2021-06-06T13:50:21Z</time>
      </trkpt>
      <trkpt lat="42.76522" lon="2.64149">
        <ele>121.2</ele>
        <time>2021-06-06T13:50:24Z</time>
      </trkpt>
      <trkpt lat="42.7652" lon="2.64169">
        <ele>121.6</ele>
        <time>2021-06-06T13:50:28Z</time>
      </trkpt>
      <trkpt lat="42.76519" lon="2.64191">
        <ele>121.8</ele>
        <time>2021-06-06T13:50:32Z</time>
      </trkpt>
      <trkpt lat="42.76522" lon="2.64214">
        <ele>121.8</ele>
        <time>2021-06-06T13:50:36Z</time>
      </trkpt>
      <trkpt lat="42.76529" lon="2.64238">
        <ele>121.4</ele>
        <time>2021-06-06T13:50:40Z</time>
      </trkpt>
      <trkpt lat="42.76539" lon="2.64265">
        <ele>120.6</ele>
        <time>2021-06-06T13:50:44Z</time>
      </trkpt>
      <trkpt lat="42.76551" lon="2.64297">
        <ele>119</ele>
        <time>2021-06-06T13:50:48Z</time>
      </trkpt>
      <trkpt lat="42.7656" lon="2.64325">
        <ele>117.6</ele>
        <time>2021-06-06T13:50:51Z</time>
      </trkpt>
      <trkpt lat="42.76566" lon="2.64368">
        <ele>116.2</ele>
        <time>2021-06-06T13:50:55Z</time>
      </trkpt>
      <trkpt lat="42.76571" lon="2.64414">
        <ele>114</ele>
        <time>2021-06-06T13:50:59Z</time>
      </trkpt>
      <trkpt lat="42.76577" lon="2.64462">
        <ele>113.2</ele>
        <time>2021-06-06T13:51:03Z</time>
      </trkpt>
      <trkpt lat="42.76583" lon="2.64509">
        <ele>112.2</ele>
        <time>2021-06-06T13:51:07Z</time>
      </trkpt>
      <trkpt lat="42.76594" lon="2.64553">
        <ele>109.4</ele>
        <time>2021-06-06T13:51:11Z</time>
      </trkpt>
      <trkpt lat="42.76617" lon="2.64595">
        <ele>109.2</ele>
        <time>2021-06-06T13:51:15Z</time>
      </trkpt>
      <trkpt lat="42.76636" lon="2.64623">
        <ele>109</ele>
        <time>2021-06-06T13:51:18Z</time>
      </trkpt>
      <trkpt lat="42.76659" lon="2.64656">
        <ele>109</ele>
        <time>2021-06-06T13:51:22Z</time>
      </trkpt>
      <trkpt lat="42.7668" lon="2.64688">
        <ele>108.6</ele>
        <time>2021-06-06T13:51:26Z</time>
      </trkpt>
      <trkpt lat="42.767" lon="2.64716">
        <ele>108.8</ele>
        <time>2021-06-06T13:51:30Z</time>
      </trkpt>
      <trkpt lat="42.76718" lon="2.64741">
        <ele>108.6</ele>
        <time>2021-06-06T13:51:34Z</time>
      </trkpt>
      <trkpt lat="42.76738" lon="2.64762">
        <ele>108.6</ele>
        <time>2021-06-06T13:51:38Z</time>
      </trkpt>
      <trkpt lat="42.76758" lon="2.64784">
        <ele>108.6</ele>
        <time>2021-06-06T13:51:42Z</time>
      </trkpt>
      <trkpt lat="42.76773" lon="2.64799">
        <ele>109.6</ele>
        <time>2021-06-06T13:51:45Z</time>
      </trkpt>
      <trkpt lat="42.76792" lon="2.64818">
        <ele>108.8</ele>
        <time>2021-06-06T13:51:49Z</time>
      </trkpt>
      <trkpt lat="42.76808" lon="2.64836">
        <ele>108</ele>
        <time>2021-06-06T13:51:53Z</time>
      </trkpt>
      <trkpt lat="42.76826" lon="2.64854">
        <ele>109.6</ele>
        <time>2021-06-06T13:51:57Z</time>
      </trkpt>
      <trkpt lat="42.76845" lon="2.64874">
        <ele>108.4</ele>
        <time>2021-06-06T13:52:01Z</time>
      </trkpt>
      <trkpt lat="42.76864" lon="2.64892">
        <ele>108.2</ele>
        <time>2021-06-06T13:52:05Z</time>
      </trkpt>
      <trkpt lat="42.76877" lon="2.64904">
        <ele>109.4</ele>
        <time>2021-06-06T13:52:08Z</time>
      </trkpt>
      <trkpt lat="42.76894" lon="2.64918">
        <ele>107.4</ele>
        <time>2021-06-06T13:52:12Z</time>
      </trkpt>
      <trkpt lat="42.76909" lon="2.64927">
        <ele>107.6</ele>
        <time>2021-06-06T13:52:16Z</time>
      </trkpt>
      <trkpt lat="42.76918" lon="2.64934">
        <ele>108.2</ele>
        <time>2021-06-06T13:52:20Z</time>
      </trkpt>
      <trkpt lat="42.76918" lon="2.64934">
        <ele>108.6</ele>
        <time>2021-06-06T13:52:24Z</time>
      </trkpt>
      <trkpt lat="42.76918" lon="2.64934">
        <ele>108.6</ele>
        <time>2021-06-06T13:52:28Z</time>
      </trkpt>
      <trkpt lat="42.76932" lon="2.6497">
        <ele>107.8</ele>
        <time>2021-06-06T13:53:22Z</time>
      </trkpt>
      <trkpt lat="42.76937" lon="2.64981">
        <ele>107.4</ele>
        <time>2021-06-06T13:53:25Z</time>
      </trkpt>
      <trkpt lat="42.76942" lon="2.64994">
        <ele>107.4</ele>
        <time>2021-06-06T13:53:29Z</time>
      </trkpt>
      <trkpt lat="42.76946" lon="2.65006">
        <ele>107.4</ele>
        <time>2021-06-06T13:53:33Z</time>
      </trkpt>
      <trkpt lat="42.76948" lon="2.65017">
        <ele>108</ele>
        <time>2021-06-06T13:53:37Z</time>
      </trkpt>
      <trkpt lat="42.76948" lon="2.6503">
        <ele>108.6</ele>
        <time>2021-06-06T13:53:41Z</time>
      </trkpt>
      <trkpt lat="42.76947" lon="2.6504">
        <ele>109</ele>
        <time>2021-06-06T13:53:45Z</time>
      </trkpt>
      <trkpt lat="42.76945" lon="2.65051">
        <ele>110.2</ele>
        <time>2021-06-06T13:53:49Z</time>
      </trkpt>
      <trkpt lat="42.76944" lon="2.65059">
        <ele>111.2</ele>
        <time>2021-06-06T13:53:52Z</time>
      </trkpt>
      <trkpt lat="42.76941" lon="2.65071">
        <ele>111.6</ele>
        <time>2021-06-06T13:53:56Z</time>
      </trkpt>
      <trkpt lat="42.76937" lon="2.65087">
        <ele>110.6</ele>
        <time>2021-06-06T13:54:00Z</time>
      </trkpt>
      <trkpt lat="42.76933" lon="2.65106">
        <ele>110.6</ele>
        <time>2021-06-06T13:54:04Z</time>
      </trkpt>
      <trkpt lat="42.76929" lon="2.65127">
        <ele>111</ele>
        <time>2021-06-06T13:54:08Z</time>
      </trkpt>
      <trkpt lat="42.76925" lon="2.65147">
        <ele>111.6</ele>
        <time>2021-06-06T13:54:12Z</time>
      </trkpt>
      <trkpt lat="42.76921" lon="2.65167">
        <ele>111.4</ele>
        <time>2021-06-06T13:54:16Z</time>
      </trkpt>
      <trkpt lat="42.76916" lon="2.65179">
        <ele>112</ele>
        <time>2021-06-06T13:54:19Z</time>
      </trkpt>
      <trkpt lat="42.76904" lon="2.65182">
        <ele>112.4</ele>
        <time>2021-06-06T13:54:23Z</time>
      </trkpt>
      <trkpt lat="42.76891" lon="2.65178">
        <ele>113.2</ele>
        <time>2021-06-06T13:54:27Z</time>
      </trkpt>
      <trkpt lat="42.7688" lon="2.65175">
        <ele>114.4</ele>
        <time>2021-06-06T13:54:31Z</time>
      </trkpt>
      <trkpt lat="42.76869" lon="2.65173">
        <ele>115.6</ele>
        <time>2021-06-06T13:54:35Z</time>
      </trkpt>
      <trkpt lat="42.76858" lon="2.6517">
        <ele>116.4</ele>
        <time>2021-06-06T13:54:39Z</time>
      </trkpt>
      <trkpt lat="42.76847" lon="2.65167">
        <ele>116.6</ele>
        <time>2021-06-06T13:54:43Z</time>
      </trkpt>
      <trkpt lat="42.7684" lon="2.65165">
        <ele>117.2</ele>
        <time>2021-06-06T13:54:46Z</time>
      </trkpt>
      <trkpt lat="42.76831" lon="2.65162">
        <ele>117</ele>
        <time>2021-06-06T13:54:50Z</time>
      </trkpt>
      <trkpt lat="42.76822" lon="2.65159">
        <ele>125.8</ele>
        <time>2021-06-06T13:54:54Z</time>
      </trkpt>
      <trkpt lat="42.76814" lon="2.65153">
        <ele>125.8</ele>
        <time>2021-06-06T13:54:58Z</time>
      </trkpt>
      <trkpt lat="42.76807" lon="2.65146">
        <ele>119.4</ele>
        <time>2021-06-06T13:55:02Z</time>
      </trkpt>
      <trkpt lat="42.76801" lon="2.6514">
        <ele>118.8</ele>
        <time>2021-06-06T13:55:06Z</time>
      </trkpt>
      <trkpt lat="42.76795" lon="2.65134">
        <ele>119.2</ele>
        <time>2021-06-06T13:55:09Z</time>
      </trkpt>
      <trkpt lat="42.76788" lon="2.65124">
        <ele>121</ele>
        <time>2021-06-06T13:55:13Z</time>
      </trkpt>
      <trkpt lat="42.76781" lon="2.65115">
        <ele>120.4</ele>
        <time>2021-06-06T13:55:17Z</time>
      </trkpt>
      <trkpt lat="42.76773" lon="2.65106">
        <ele>121.2</ele>
        <time>2021-06-06T13:55:21Z</time>
      </trkpt>
      <trkpt lat="42.76766" lon="2.65099">
        <ele>123.8</ele>
        <time>2021-06-06T13:55:25Z</time>
      </trkpt>
      <trkpt lat="42.76757" lon="2.65094">
        <ele>124.4</ele>
        <time>2021-06-06T13:55:29Z</time>
      </trkpt>
      <trkpt lat="42.76748" lon="2.65094">
        <ele>124.8</ele>
        <time>2021-06-06T13:55:33Z</time>
      </trkpt>
      <trkpt lat="42.76742" lon="2.65097">
        <ele>124.6</ele>
        <time>2021-06-06T13:55:36Z</time>
      </trkpt>
      <trkpt lat="42.76735" lon="2.65103">
        <ele>125.2</ele>
        <time>2021-06-06T13:55:40Z</time>
      </trkpt>
      <trkpt lat="42.7673" lon="2.65111">
        <ele>126</ele>
        <time>2021-06-06T13:55:44Z</time>
      </trkpt>
      <trkpt lat="42.76725" lon="2.6512">
        <ele>126.8</ele>
        <time>2021-06-06T13:55:48Z</time>
      </trkpt>
      <trkpt lat="42.76722" lon="2.6513">
        <ele>127.2</ele>
        <time>2021-06-06T13:55:52Z</time>
      </trkpt>
      <trkpt lat="42.76719" lon="2.65141">
        <ele>128.8</ele>
        <time>2021-06-06T13:55:56Z</time>
      </trkpt>
      <trkpt lat="42.76718" lon="2.65149">
        <ele>127.6</ele>
        <time>2021-06-06T13:56:00Z</time>
      </trkpt>
      <trkpt lat="42.76718" lon="2.65152">
        <ele>127.6</ele>
        <time>2021-06-06T13:56:03Z</time>
      </trkpt>
      <trkpt lat="42.76717" lon="2.65155">
        <ele>130</ele>
        <time>2021-06-06T13:56:07Z</time>
      </trkpt>
      <trkpt lat="42.76717" lon="2.65155">
        <ele>128.8</ele>
        <time>2021-06-06T13:56:11Z</time>
      </trkpt>
      <trkpt lat="42.76716" lon="2.65199">
        <ele>129.4</ele>
        <time>2021-06-06T13:56:40Z</time>
      </trkpt>
      <trkpt lat="42.76716" lon="2.65218">
        <ele>130</ele>
        <time>2021-06-06T13:56:44Z</time>
      </trkpt>
      <trkpt lat="42.76716" lon="2.65234">
        <ele>129.4</ele>
        <time>2021-06-06T13:56:48Z</time>
      </trkpt>
      <trkpt lat="42.76715" lon="2.65253">
        <ele>128.6</ele>
        <time>2021-06-06T13:56:52Z</time>
      </trkpt>
      <trkpt lat="42.76714" lon="2.6527">
        <ele>127.6</ele>
        <time>2021-06-06T13:56:55Z</time>
      </trkpt>
      <trkpt lat="42.76713" lon="2.65293">
        <ele>126.6</ele>
        <time>2021-06-06T13:56:59Z</time>
      </trkpt>
      <trkpt lat="42.76729" lon="2.65307">
        <ele>125.4</ele>
        <time>2021-06-06T13:57:03Z</time>
      </trkpt>
      <trkpt lat="42.7675" lon="2.65317">
        <ele>124.2</ele>
        <time>2021-06-06T13:57:07Z</time>
      </trkpt>
      <trkpt lat="42.76769" lon="2.65336">
        <ele>122.2</ele>
        <time>2021-06-06T13:57:11Z</time>
      </trkpt>
      <trkpt lat="42.76788" lon="2.65358">
        <ele>120.6</ele>
        <time>2021-06-06T13:57:15Z</time>
      </trkpt>
      <trkpt lat="42.76807" lon="2.65378">
        <ele>118.6</ele>
        <time>2021-06-06T13:57:19Z</time>
      </trkpt>
      <trkpt lat="42.76819" lon="2.65395">
        <ele>118</ele>
        <time>2021-06-06T13:57:22Z</time>
      </trkpt>
      <trkpt lat="42.76833" lon="2.65418">
        <ele>117.6</ele>
        <time>2021-06-06T13:57:26Z</time>
      </trkpt>
      <trkpt lat="42.76851" lon="2.65446">
        <ele>117.4</ele>
        <time>2021-06-06T13:57:30Z</time>
      </trkpt>
      <trkpt lat="42.76863" lon="2.65471">
        <ele>116.6</ele>
        <time>2021-06-06T13:57:34Z</time>
      </trkpt>
      <trkpt lat="42.76873" lon="2.65488">
        <ele>115.6</ele>
        <time>2021-06-06T13:57:38Z</time>
      </trkpt>
      <trkpt lat="42.76874" lon="2.65503">
        <ele>115.4</ele>
        <time>2021-06-06T13:57:42Z</time>
      </trkpt>
      <trkpt lat="42.76871" lon="2.65521">
        <ele>113.6</ele>
        <time>2021-06-06T13:57:46Z</time>
      </trkpt>
      <trkpt lat="42.76864" lon="2.65537">
        <ele>112.4</ele>
        <time>2021-06-06T13:57:49Z</time>
      </trkpt>
      <trkpt lat="42.76857" lon="2.65565">
        <ele>111</ele>
        <time>2021-06-06T13:57:53Z</time>
      </trkpt>
      <trkpt lat="42.76848" lon="2.65594">
        <ele>110.2</ele>
        <time>2021-06-06T13:57:57Z</time>
      </trkpt>
      <trkpt lat="42.76844" lon="2.65624">
        <ele>109.2</ele>
        <time>2021-06-06T13:58:01Z</time>
      </trkpt>
      <trkpt lat="42.76838" lon="2.65655">
        <ele>108.2</ele>
        <time>2021-06-06T13:58:05Z</time>
      </trkpt>
      <trkpt lat="42.76832" lon="2.65691">
        <ele>107.4</ele>
        <time>2021-06-06T13:58:09Z</time>
      </trkpt>
      <trkpt lat="42.76826" lon="2.6572">
        <ele>106.8</ele>
        <time>2021-06-06T13:58:12Z</time>
      </trkpt>
      <trkpt lat="42.7682" lon="2.65757">
        <ele>106.4</ele>
        <time>2021-06-06T13:58:16Z</time>
      </trkpt>
      <trkpt lat="42.76812" lon="2.65793">
        <ele>105.6</ele>
        <time>2021-06-06T13:58:20Z</time>
      </trkpt>
      <trkpt lat="42.76804" lon="2.65828">
        <ele>105.4</ele>
        <time>2021-06-06T13:58:24Z</time>
      </trkpt>
      <trkpt lat="42.76797" lon="2.65863">
        <ele>105.4</ele>
        <time>2021-06-06T13:58:28Z</time>
      </trkpt>
      <trkpt lat="42.76789" lon="2.65897">
        <ele>105.2</ele>
        <time>2021-06-06T13:58:32Z</time>
      </trkpt>
      <trkpt lat="42.76782" lon="2.65933">
        <ele>105</ele>
        <time>2021-06-06T13:58:36Z</time>
      </trkpt>
      <trkpt lat="42.76776" lon="2.6596">
        <ele>105</ele>
        <time>2021-06-06T13:58:39Z</time>
      </trkpt>
      <trkpt lat="42.76769" lon="2.65998">
        <ele>104.4</ele>
        <time>2021-06-06T13:58:43Z</time>
      </trkpt>
      <trkpt lat="42.76762" lon="2.66035">
        <ele>105.4</ele>
        <time>2021-06-06T13:58:47Z</time>
      </trkpt>
      <trkpt lat="42.76753" lon="2.66071">
        <ele>103.8</ele>
        <time>2021-06-06T13:58:51Z</time>
      </trkpt>
      <trkpt lat="42.76745" lon="2.66108">
        <ele>103.8</ele>
        <time>2021-06-06T13:58:55Z</time>
      </trkpt>
      <trkpt lat="42.76737" lon="2.66145">
        <ele>103.6</ele>
        <time>2021-06-06T13:58:59Z</time>
      </trkpt>
      <trkpt lat="42.76728" lon="2.66181">
        <ele>103.2</ele>
        <time>2021-06-06T13:59:03Z</time>
      </trkpt>
      <trkpt lat="42.7672" lon="2.66206">
        <ele>102.6</ele>
        <time>2021-06-06T13:59:06Z</time>
      </trkpt>
      <trkpt lat="42.76706" lon="2.66239">
        <ele>102.6</ele>
        <time>2021-06-06T13:59:10Z</time>
      </trkpt>
      <trkpt lat="42.76692" lon="2.6627">
        <ele>102.6</ele>
        <time>2021-06-06T13:59:14Z</time>
      </trkpt>
      <trkpt lat="42.76678" lon="2.663">
        <ele>103.6</ele>
        <time>2021-06-06T13:59:18Z</time>
      </trkpt>
      <trkpt lat="42.76665" lon="2.66327">
        <ele>102.6</ele>
        <time>2021-06-06T13:59:22Z</time>
      </trkpt>
      <trkpt lat="42.76653" lon="2.66356">
        <ele>102.6</ele>
        <time>2021-06-06T13:59:26Z</time>
      </trkpt>
      <trkpt lat="42.76641" lon="2.66383">
        <ele>102.6</ele>
        <time>2021-06-06T13:59:30Z</time>
      </trkpt>
      <trkpt lat="42.76632" lon="2.66405">
        <ele>102.6</ele>
        <time>2021-06-06T13:59:33Z</time>
      </trkpt>
      <trkpt lat="42.76618" lon="2.66435">
        <ele>101.8</ele>
        <time>2021-06-06T13:59:37Z</time>
      </trkpt>
      <trkpt lat="42.76605" lon="2.66466">
        <ele>103.2</ele>
        <time>2021-06-06T13:59:41Z</time>
      </trkpt>
      <trkpt lat="42.76591" lon="2.66497">
        <ele>101.8</ele>
        <time>2021-06-06T13:59:45Z</time>
      </trkpt>
      <trkpt lat="42.76576" lon="2.66527">
        <ele>102</ele>
        <time>2021-06-06T13:59:49Z</time>
      </trkpt>
      <trkpt lat="42.7656" lon="2.66555">
        <ele>102.2</ele>
        <time>2021-06-06T13:59:53Z</time>
      </trkpt>
      <trkpt lat="42.76544" lon="2.66579">
        <ele>102.6</ele>
        <time>2021-06-06T13:59:57Z</time>
      </trkpt>
      <trkpt lat="42.76533" lon="2.66597">
        <ele>102.2</ele>
        <time>2021-06-06T14:00:00Z</time>
      </trkpt>
      <trkpt lat="42.76519" lon="2.66624">
        <ele>102.4</ele>
        <time>2021-06-06T14:00:04Z</time>
      </trkpt>
      <trkpt lat="42.76506" lon="2.66652">
        <ele>101.8</ele>
        <time>2021-06-06T14:00:08Z</time>
      </trkpt>
      <trkpt lat="42.76493" lon="2.66681">
        <ele>101.4</ele>
        <time>2021-06-06T14:00:12Z</time>
      </trkpt>
      <trkpt lat="42.7648" lon="2.6671">
        <ele>101.8</ele>
        <time>2021-06-06T14:00:16Z</time>
      </trkpt>
      <trkpt lat="42.76469" lon="2.66741">
        <ele>102</ele>
        <time>2021-06-06T14:00:20Z</time>
      </trkpt>
      <trkpt lat="42.76462" lon="2.66766">
        <ele>102.4</ele>
        <time>2021-06-06T14:00:23Z</time>
      </trkpt>
      <trkpt lat="42.76455" lon="2.66801">
        <ele>102</ele>
        <time>2021-06-06T14:00:27Z</time>
      </trkpt>
      <trkpt lat="42.76448" lon="2.66838">
        <ele>102</ele>
        <time>2021-06-06T14:00:31Z</time>
      </trkpt>
      <trkpt lat="42.76441" lon="2.66876">
        <ele>101.2</ele>
        <time>2021-06-06T14:00:35Z</time>
      </trkpt>
      <trkpt lat="42.76433" lon="2.66915">
        <ele>101</ele>
        <time>2021-06-06T14:00:39Z</time>
      </trkpt>
      <trkpt lat="42.76427" lon="2.66954">
        <ele>101</ele>
        <time>2021-06-06T14:00:43Z</time>
      </trkpt>
      <trkpt lat="42.7642" lon="2.66993">
        <ele>101</ele>
        <time>2021-06-06T14:00:47Z</time>
      </trkpt>
      <trkpt lat="42.76415" lon="2.67021">
        <ele>101.2</ele>
        <time>2021-06-06T14:00:50Z</time>
      </trkpt>
      <trkpt lat="42.76408" lon="2.67057">
        <ele>101.2</ele>
        <time>2021-06-06T14:00:54Z</time>
      </trkpt>
      <trkpt lat="42.76402" lon="2.67093">
        <ele>101.4</ele>
        <time>2021-06-06T14:00:58Z</time>
      </trkpt>
      <trkpt lat="42.76395" lon="2.67129">
        <ele>101.4</ele>
        <time>2021-06-06T14:01:02Z</time>
      </trkpt>
      <trkpt lat="42.76389" lon="2.67163">
        <ele>102</ele>
        <time>2021-06-06T14:01:06Z</time>
      </trkpt>
      <trkpt lat="42.76384" lon="2.67196">
        <ele>103</ele>
        <time>2021-06-06T14:01:10Z</time>
      </trkpt>
      <trkpt lat="42.7638" lon="2.67224">
        <ele>103.2</ele>
        <time>2021-06-06T14:01:14Z</time>
      </trkpt>
      <trkpt lat="42.76378" lon="2.67245">
        <ele>103.6</ele>
        <time>2021-06-06T14:01:17Z</time>
      </trkpt>
      <trkpt lat="42.76378" lon="2.67273">
        <ele>104.2</ele>
        <time>2021-06-06T14:01:21Z</time>
      </trkpt>
      <trkpt lat="42.76383" lon="2.67301">
        <ele>103.8</ele>
        <time>2021-06-06T14:01:25Z</time>
      </trkpt>
      <trkpt lat="42.76392" lon="2.67339">
        <ele>103.4</ele>
        <time>2021-06-06T14:01:29Z</time>
      </trkpt>
      <trkpt lat="42.76399" lon="2.67364">
        <ele>102.8</ele>
        <time>2021-06-06T14:01:33Z</time>
      </trkpt>
      <trkpt lat="42.76408" lon="2.67397">
        <ele>102.2</ele>
        <time>2021-06-06T14:01:37Z</time>
      </trkpt>
      <trkpt lat="42.76416" lon="2.6743">
        <ele>101.4</ele>
        <time>2021-06-06T14:01:41Z</time>
      </trkpt>
      <trkpt lat="42.76423" lon="2.67455">
        <ele>100.8</ele>
        <time>2021-06-06T14:01:44Z</time>
      </trkpt>
      <trkpt lat="42.76431" lon="2.67489">
        <ele>101</ele>
        <time>2021-06-06T14:01:48Z</time>
      </trkpt>
      <trkpt lat="42.76442" lon="2.67528">
        <ele>100.4</ele>
        <time>2021-06-06T14:01:52Z</time>
      </trkpt>
      <trkpt lat="42.76448" lon="2.6755">
        <ele>100.6</ele>
        <time>2021-06-06T14:01:56Z</time>
      </trkpt>
      <trkpt lat="42.76455" lon="2.67579">
        <ele>101.4</ele>
        <time>2021-06-06T14:02:00Z</time>
      </trkpt>
      <trkpt lat="42.76465" lon="2.67615">
        <ele>101.6</ele>
        <time>2021-06-06T14:02:04Z</time>
      </trkpt>
      <trkpt lat="42.76471" lon="2.67635">
        <ele>101.4</ele>
        <time>2021-06-06T14:02:08Z</time>
      </trkpt>
      <trkpt lat="42.76476" lon="2.67655">
        <ele>101.6</ele>
        <time>2021-06-06T14:02:11Z</time>
      </trkpt>
      <trkpt lat="42.76483" lon="2.67684">
        <ele>101.6</ele>
        <time>2021-06-06T14:02:15Z</time>
      </trkpt>
      <trkpt lat="42.76494" lon="2.67722">
        <ele>102.2</ele>
        <time>2021-06-06T14:02:19Z</time>
      </trkpt>
      <trkpt lat="42.765" lon="2.67745">
        <ele>100.8</ele>
        <time>2021-06-06T14:02:23Z</time>
      </trkpt>
      <trkpt lat="42.76508" lon="2.67776">
        <ele>101</ele>
        <time>2021-06-06T14:02:27Z</time>
      </trkpt>
      <trkpt lat="42.76521" lon="2.67815">
        <ele>100.2</ele>
        <time>2021-06-06T14:02:31Z</time>
      </trkpt>
      <trkpt lat="42.76531" lon="2.67837">
        <ele>99.8</ele>
        <time>2021-06-06T14:02:35Z</time>
      </trkpt>
      <trkpt lat="42.76542" lon="2.67859">
        <ele>100</ele>
        <time>2021-06-06T14:02:38Z</time>
      </trkpt>
      <trkpt lat="42.76559" lon="2.67886">
        <ele>99.4</ele>
        <time>2021-06-06T14:02:42Z</time>
      </trkpt>
      <trkpt lat="42.76581" lon="2.67918">
        <ele>98.6</ele>
        <time>2021-06-06T14:02:46Z</time>
      </trkpt>
      <trkpt lat="42.76597" lon="2.67943">
        <ele>99</ele>
        <time>2021-06-06T14:02:50Z</time>
      </trkpt>
      <trkpt lat="42.7661" lon="2.67971">
        <ele>99</ele>
        <time>2021-06-06T14:02:54Z</time>
      </trkpt>
      <trkpt lat="42.76618" lon="2.67994">
        <ele>98.8</ele>
        <time>2021-06-06T14:02:58Z</time>
      </trkpt>
      <trkpt lat="42.76625" lon="2.68016">
        <ele>99</ele>
        <time>2021-06-06T14:03:01Z</time>
      </trkpt>
      <trkpt lat="42.76636" lon="2.68052">
        <ele>98.4</ele>
        <time>2021-06-06T14:03:05Z</time>
      </trkpt>
      <trkpt lat="42.76645" lon="2.68081">
        <ele>98</ele>
        <time>2021-06-06T14:03:09Z</time>
      </trkpt>
      <trkpt lat="42.76654" lon="2.6811">
        <ele>98.6</ele>
        <time>2021-06-06T14:03:13Z</time>
      </trkpt>
      <trkpt lat="42.76662" lon="2.68138">
        <ele>98.2</ele>
        <time>2021-06-06T14:03:17Z</time>
      </trkpt>
      <trkpt lat="42.76669" lon="2.68158">
        <ele>98.4</ele>
        <time>2021-06-06T14:03:21Z</time>
      </trkpt>
      <trkpt lat="42.7668" lon="2.68191">
        <ele>98.4</ele>
        <time>2021-06-06T14:03:25Z</time>
      </trkpt>
      <trkpt lat="42.76688" lon="2.6821">
        <ele>98.2</ele>
        <time>2021-06-06T14:03:28Z</time>
      </trkpt>
      <trkpt lat="42.76703" lon="2.68235">
        <ele>98.2</ele>
        <time>2021-06-06T14:03:32Z</time>
      </trkpt>
      <trkpt lat="42.76715" lon="2.68253">
        <ele>97.8</ele>
        <time>2021-06-06T14:03:36Z</time>
      </trkpt>
      <trkpt lat="42.76735" lon="2.68284">
        <ele>97.4</ele>
        <time>2021-06-06T14:03:40Z</time>
      </trkpt>
      <trkpt lat="42.7675" lon="2.68312">
        <ele>97.4</ele>
        <time>2021-06-06T14:03:44Z</time>
      </trkpt>
      <trkpt lat="42.76763" lon="2.68341">
        <ele>97.2</ele>
        <time>2021-06-06T14:03:48Z</time>
      </trkpt>
      <trkpt lat="42.76775" lon="2.68369">
        <ele>97</ele>
        <time>2021-06-06T14:03:52Z</time>
      </trkpt>
      <trkpt lat="42.76784" lon="2.6839">
        <ele>96.8</ele>
        <time>2021-06-06T14:03:55Z</time>
      </trkpt>
      <trkpt lat="42.76796" lon="2.68419">
        <ele>96.2</ele>
        <time>2021-06-06T14:03:59Z</time>
      </trkpt>
      <trkpt lat="42.76809" lon="2.68448">
        <ele>96.2</ele>
        <time>2021-06-06T14:04:03Z</time>
      </trkpt>
      <trkpt lat="42.76823" lon="2.68478">
        <ele>96</ele>
        <time>2021-06-06T14:04:07Z</time>
      </trkpt>
      <trkpt lat="42.76835" lon="2.68508">
        <ele>96.4</ele>
        <time>2021-06-06T14:04:11Z</time>
      </trkpt>
      <trkpt lat="42.76847" lon="2.68535">
        <ele>96.4</ele>
        <time>2021-06-06T14:04:15Z</time>
      </trkpt>
      <trkpt lat="42.76859" lon="2.68563">
        <ele>95.4</ele>
        <time>2021-06-06T14:04:19Z</time>
      </trkpt>
      <trkpt lat="42.76868" lon="2.68584">
        <ele>95.4</ele>
        <time>2021-06-06T14:04:22Z</time>
      </trkpt>
      <trkpt lat="42.7688" lon="2.68611">
        <ele>95.4</ele>
        <time>2021-06-06T14:04:26Z</time>
      </trkpt>
      <trkpt lat="42.76892" lon="2.68638">
        <ele>95.2</ele>
        <time>2021-06-06T14:04:30Z</time>
      </trkpt>
      <trkpt lat="42.76904" lon="2.68663">
        <ele>94.8</ele>
        <time>2021-06-06T14:04:34Z</time>
      </trkpt>
      <trkpt lat="42.76917" lon="2.68688">
        <ele>94.6</ele>
        <time>2021-06-06T14:04:38Z</time>
      </trkpt>
      <trkpt lat="42.76931" lon="2.68711">
        <ele>95</ele>
        <time>2021-06-06T14:04:42Z</time>
      </trkpt>
      <trkpt lat="42.76945" lon="2.68734">
        <ele>94.6</ele>
        <time>2021-06-06T14:04:46Z</time>
      </trkpt>
      <trkpt lat="42.76956" lon="2.6875">
        <ele>94.8</ele>
        <time>2021-06-06T14:04:49Z</time>
      </trkpt>
      <trkpt lat="42.76971" lon="2.68772">
        <ele>95.2</ele>
        <time>2021-06-06T14:04:53Z</time>
      </trkpt>
      <trkpt lat="42.76985" lon="2.68795">
        <ele>95.4</ele>
        <time>2021-06-06T14:04:57Z</time>
      </trkpt>
      <trkpt lat="42.76998" lon="2.68818">
        <ele>95</ele>
        <time>2021-06-06T14:05:01Z</time>
      </trkpt>
      <trkpt lat="42.77011" lon="2.68841">
        <ele>95</ele>
        <time>2021-06-06T14:05:05Z</time>
      </trkpt>
      <trkpt lat="42.77022" lon="2.68865">
        <ele>95</ele>
        <time>2021-06-06T14:05:09Z</time>
      </trkpt>
      <trkpt lat="42.77033" lon="2.6889">
        <ele>95</ele>
        <time>2021-06-06T14:05:13Z</time>
      </trkpt>
      <trkpt lat="42.7704" lon="2.68909">
        <ele>95</ele>
        <time>2021-06-06T14:05:16Z</time>
      </trkpt>
      <trkpt lat="42.77047" lon="2.68934">
        <ele>94.8</ele>
        <time>2021-06-06T14:05:20Z</time>
      </trkpt>
      <trkpt lat="42.77055" lon="2.6896">
        <ele>95</ele>
        <time>2021-06-06T14:05:24Z</time>
      </trkpt>
      <trkpt lat="42.77062" lon="2.68987">
        <ele>94.8</ele>
        <time>2021-06-06T14:05:28Z</time>
      </trkpt>
      <trkpt lat="42.77069" lon="2.69014">
        <ele>94.8</ele>
        <time>2021-06-06T14:05:32Z</time>
      </trkpt>
      <trkpt lat="42.77076" lon="2.69042">
        <ele>94.8</ele>
        <time>2021-06-06T14:05:36Z</time>
      </trkpt>
      <trkpt lat="42.77082" lon="2.69062">
        <ele>94.8</ele>
        <time>2021-06-06T14:05:39Z</time>
      </trkpt>
      <trkpt lat="42.77089" lon="2.6909">
        <ele>95.4</ele>
        <time>2021-06-06T14:05:43Z</time>
      </trkpt>
      <trkpt lat="42.77096" lon="2.69119">
        <ele>95</ele>
        <time>2021-06-06T14:05:47Z</time>
      </trkpt>
      <trkpt lat="42.77104" lon="2.69152">
        <ele>93</ele>
        <time>2021-06-06T14:05:51Z</time>
      </trkpt>
      <trkpt lat="42.77113" lon="2.69185">
        <ele>93.4</ele>
        <time>2021-06-06T14:05:55Z</time>
      </trkpt>
      <trkpt lat="42.7712" lon="2.69219">
        <ele>93.4</ele>
        <time>2021-06-06T14:05:59Z</time>
      </trkpt>
      <trkpt lat="42.77127" lon="2.69252">
        <ele>92.8</ele>
        <time>2021-06-06T14:06:03Z</time>
      </trkpt>
      <trkpt lat="42.77132" lon="2.69277">
        <ele>93</ele>
        <time>2021-06-06T14:06:06Z</time>
      </trkpt>
      <trkpt lat="42.7714" lon="2.69308">
        <ele>92.8</ele>
        <time>2021-06-06T14:06:10Z</time>
      </trkpt>
      <trkpt lat="42.77146" lon="2.6934">
        <ele>92.6</ele>
        <time>2021-06-06T14:06:14Z</time>
      </trkpt>
      <trkpt lat="42.77152" lon="2.6937">
        <ele>92.4</ele>
        <time>2021-06-06T14:06:18Z</time>
      </trkpt>
      <trkpt lat="42.77156" lon="2.69404">
        <ele>92.2</ele>
        <time>2021-06-06T14:06:22Z</time>
      </trkpt>
      <trkpt lat="42.7716" lon="2.69438">
        <ele>92</ele>
        <time>2021-06-06T14:06:26Z</time>
      </trkpt>
      <trkpt lat="42.77162" lon="2.69472">
        <ele>91.8</ele>
        <time>2021-06-06T14:06:30Z</time>
      </trkpt>
      <trkpt lat="42.77163" lon="2.69496">
        <ele>91.8</ele>
        <time>2021-06-06T14:06:33Z</time>
      </trkpt>
      <trkpt lat="42.77164" lon="2.69523">
        <ele>91</ele>
        <time>2021-06-06T14:06:37Z</time>
      </trkpt>
      <trkpt lat="42.77164" lon="2.69553">
        <ele>91.2</ele>
        <time>2021-06-06T14:06:41Z</time>
      </trkpt>
      <trkpt lat="42.77164" lon="2.69584">
        <ele>91.6</ele>
        <time>2021-06-06T14:06:45Z</time>
      </trkpt>
      <trkpt lat="42.77163" lon="2.69615">
        <ele>91.4</ele>
        <time>2021-06-06T14:06:49Z</time>
      </trkpt>
      <trkpt lat="42.77162" lon="2.69645">
        <ele>91.4</ele>
        <time>2021-06-06T14:06:53Z</time>
      </trkpt>
      <trkpt lat="42.77159" lon="2.69675">
        <ele>91</ele>
        <time>2021-06-06T14:06:57Z</time>
      </trkpt>
      <trkpt lat="42.77158" lon="2.69696">
        <ele>91</ele>
        <time>2021-06-06T14:07:00Z</time>
      </trkpt>
      <trkpt lat="42.77156" lon="2.69718">
        <ele>91.4</ele>
        <time>2021-06-06T14:07:04Z</time>
      </trkpt>
      <trkpt lat="42.77159" lon="2.69732">
        <ele>91</ele>
        <time>2021-06-06T14:07:08Z</time>
      </trkpt>
      <trkpt lat="42.77171" lon="2.69745">
        <ele>90.8</ele>
        <time>2021-06-06T14:07:12Z</time>
      </trkpt>
      <trkpt lat="42.77183" lon="2.69755">
        <ele>90.8</ele>
        <time>2021-06-06T14:07:16Z</time>
      </trkpt>
      <trkpt lat="42.77197" lon="2.69763">
        <ele>90.2</ele>
        <time>2021-06-06T14:07:20Z</time>
      </trkpt>
      <trkpt lat="42.77213" lon="2.69772">
        <ele>89</ele>
        <time>2021-06-06T14:07:24Z</time>
      </trkpt>
      <trkpt lat="42.77225" lon="2.69774">
        <ele>89.4</ele>
        <time>2021-06-06T14:07:27Z</time>
      </trkpt>
      <trkpt lat="42.77242" lon="2.69782">
        <ele>88.6</ele>
        <time>2021-06-06T14:07:31Z</time>
      </trkpt>
      <trkpt lat="42.77257" lon="2.69794">
        <ele>88.4</ele>
        <time>2021-06-06T14:07:35Z</time>
      </trkpt>
      <trkpt lat="42.77269" lon="2.69806">
        <ele>88.8</ele>
        <time>2021-06-06T14:07:39Z</time>
      </trkpt>
      <trkpt lat="42.77273" lon="2.69817">
        <ele>88.4</ele>
        <time>2021-06-06T14:07:43Z</time>
      </trkpt>
      <trkpt lat="42.77272" lon="2.69831">
        <ele>88.6</ele>
        <time>2021-06-06T14:07:47Z</time>
      </trkpt>
      <trkpt lat="42.77269" lon="2.69842">
        <ele>88.4</ele>
        <time>2021-06-06T14:07:50Z</time>
      </trkpt>
      <trkpt lat="42.77265" lon="2.6986">
        <ele>89</ele>
        <time>2021-06-06T14:07:54Z</time>
      </trkpt>
      <trkpt lat="42.7726" lon="2.69879">
        <ele>89.2</ele>
        <time>2021-06-06T14:07:58Z</time>
      </trkpt>
      <trkpt lat="42.77256" lon="2.699">
        <ele>89.4</ele>
        <time>2021-06-06T14:08:02Z</time>
      </trkpt>
      <trkpt lat="42.77251" lon="2.69915">
        <ele>89.8</ele>
        <time>2021-06-06T14:08:06Z</time>
      </trkpt>
      <trkpt lat="42.77248" lon="2.69929">
        <ele>90</ele>
        <time>2021-06-06T14:08:10Z</time>
      </trkpt>
      <trkpt lat="42.77244" lon="2.6994">
        <ele>89.8</ele>
        <time>2021-06-06T14:08:14Z</time>
      </trkpt>
      <trkpt lat="42.77241" lon="2.69948">
        <ele>89.6</ele>
        <time>2021-06-06T14:08:17Z</time>
      </trkpt>
      <trkpt lat="42.77236" lon="2.69948">
        <ele>89.2</ele>
        <time>2021-06-06T14:08:21Z</time>
      </trkpt>
      <trkpt lat="42.77231" lon="2.69947">
        <ele>89.6</ele>
        <time>2021-06-06T14:08:25Z</time>
      </trkpt>
      <trkpt lat="42.77227" lon="2.69947">
        <ele>89.8</ele>
        <time>2021-06-06T14:08:29Z</time>
      </trkpt>
      <trkpt lat="42.77226" lon="2.69948">
        <ele>89.8</ele>
        <time>2021-06-06T14:08:33Z</time>
      </trkpt>
      <trkpt lat="42.77236" lon="2.69959">
        <ele>89.2</ele>
        <time>2021-06-06T14:19:57Z</time>
      </trkpt>
      <trkpt lat="42.77237" lon="2.69958">
        <ele>89</ele>
        <time>2021-06-06T14:20:01Z</time>
      </trkpt>
      <trkpt lat="42.7724" lon="2.69959">
        <ele>88.4</ele>
        <time>2021-06-06T14:20:04Z</time>
      </trkpt>
      <trkpt lat="42.77254" lon="2.69955">
        <ele>88.8</ele>
        <time>2021-06-06T14:20:14Z</time>
      </trkpt>
      <trkpt lat="42.77262" lon="2.69961">
        <ele>89</ele>
        <time>2021-06-06T14:20:18Z</time>
      </trkpt>
      <trkpt lat="42.77277" lon="2.69969">
        <ele>88.8</ele>
        <time>2021-06-06T14:20:22Z</time>
      </trkpt>
      <trkpt lat="42.77293" lon="2.69974">
        <ele>88.4</ele>
        <time>2021-06-06T14:20:26Z</time>
      </trkpt>
      <trkpt lat="42.7731" lon="2.69971">
        <ele>88.4</ele>
        <time>2021-06-06T14:20:30Z</time>
      </trkpt>
      <trkpt lat="42.77333" lon="2.69971">
        <ele>88.4</ele>
        <time>2021-06-06T14:20:34Z</time>
      </trkpt>
      <trkpt lat="42.77347" lon="2.69973">
        <ele>88.2</ele>
        <time>2021-06-06T14:20:37Z</time>
      </trkpt>
      <trkpt lat="42.77371" lon="2.69977">
        <ele>87.4</ele>
        <time>2021-06-06T14:20:41Z</time>
      </trkpt>
      <trkpt lat="42.7739" lon="2.69981">
        <ele>86.8</ele>
        <time>2021-06-06T14:20:45Z</time>
      </trkpt>
      <trkpt lat="42.77405" lon="2.69991">
        <ele>87</ele>
        <time>2021-06-06T14:20:49Z</time>
      </trkpt>
      <trkpt lat="42.7742" lon="2.70002">
        <ele>86.4</ele>
        <time>2021-06-06T14:20:53Z</time>
      </trkpt>
      <trkpt lat="42.77434" lon="2.70011">
        <ele>86.8</ele>
        <time>2021-06-06T14:20:57Z</time>
      </trkpt>
      <trkpt lat="42.77443" lon="2.70017">
        <ele>87.2</ele>
        <time>2021-06-06T14:21:01Z</time>
      </trkpt>
      <trkpt lat="42.77451" lon="2.70022">
        <ele>87.2</ele>
        <time>2021-06-06T14:21:04Z</time>
      </trkpt>
      <trkpt lat="42.77457" lon="2.70029">
        <ele>86.4</ele>
        <time>2021-06-06T14:21:08Z</time>
      </trkpt>
      <trkpt lat="42.7746" lon="2.70032">
        <ele>86.2</ele>
        <time>2021-06-06T14:21:12Z</time>
      </trkpt>
      <trkpt lat="42.77498" lon="2.70057">
        <ele>83</ele>
        <time>2021-06-06T14:21:29Z</time>
      </trkpt>
      <trkpt lat="42.77514" lon="2.70067">
        <ele>82.6</ele>
        <time>2021-06-06T14:21:33Z</time>
      </trkpt>
      <trkpt lat="42.77527" lon="2.70076">
        <ele>82.6</ele>
        <time>2021-06-06T14:21:37Z</time>
      </trkpt>
      <trkpt lat="42.77539" lon="2.70083">
        <ele>83.2</ele>
        <time>2021-06-06T14:21:41Z</time>
      </trkpt>
      <trkpt lat="42.77548" lon="2.70081">
        <ele>84</ele>
        <time>2021-06-06T14:21:44Z</time>
      </trkpt>
      <trkpt lat="42.77551" lon="2.70069">
        <ele>85</ele>
        <time>2021-06-06T14:21:48Z</time>
      </trkpt>
      <trkpt lat="42.77552" lon="2.70057">
        <ele>86.6</ele>
        <time>2021-06-06T14:21:52Z</time>
      </trkpt>
      <trkpt lat="42.77557" lon="2.70048">
        <ele>87.6</ele>
        <time>2021-06-06T14:21:56Z</time>
      </trkpt>
      <trkpt lat="42.77564" lon="2.70047">
        <ele>88</ele>
        <time>2021-06-06T14:22:00Z</time>
      </trkpt>
      <trkpt lat="42.7757" lon="2.70054">
        <ele>87.4</ele>
        <time>2021-06-06T14:22:04Z</time>
      </trkpt>
      <trkpt lat="42.7757" lon="2.70064">
        <ele>86.8</ele>
        <time>2021-06-06T14:22:07Z</time>
      </trkpt>
      <trkpt lat="42.77567" lon="2.70081">
        <ele>86.4</ele>
        <time>2021-06-06T14:22:11Z</time>
      </trkpt>
      <trkpt lat="42.7756" lon="2.70096">
        <ele>86.4</ele>
        <time>2021-06-06T14:22:15Z</time>
      </trkpt>
      <trkpt lat="42.77554" lon="2.70113">
        <ele>86</ele>
        <time>2021-06-06T14:22:19Z</time>
      </trkpt>
      <trkpt lat="42.77549" lon="2.70129">
        <ele>86</ele>
        <time>2021-06-06T14:22:23Z</time>
      </trkpt>
      <trkpt lat="42.77546" lon="2.70135">
        <ele>86.6</ele>
        <time>2021-06-06T14:22:27Z</time>
      </trkpt>
      <trkpt lat="42.77546" lon="2.70135">
        <ele>86.8</ele>
        <time>2021-06-06T14:22:31Z</time>
      </trkpt>
      <trkpt lat="42.77543" lon="2.70171">
        <ele>86.4</ele>
        <time>2021-06-06T14:22:53Z</time>
      </trkpt>
      <trkpt lat="42.77543" lon="2.70197">
        <ele>86.2</ele>
        <time>2021-06-06T14:22:57Z</time>
      </trkpt>
      <trkpt lat="42.77543" lon="2.70227">
        <ele>85.8</ele>
        <time>2021-06-06T14:23:01Z</time>
      </trkpt>
      <trkpt lat="42.77543" lon="2.7026">
        <ele>85.4</ele>
        <time>2021-06-06T14:23:05Z</time>
      </trkpt>
      <trkpt lat="42.77543" lon="2.70295">
        <ele>85.2</ele>
        <time>2021-06-06T14:23:09Z</time>
      </trkpt>
      <trkpt lat="42.77546" lon="2.70334">
        <ele>84.6</ele>
        <time>2021-06-06T14:23:13Z</time>
      </trkpt>
      <trkpt lat="42.77549" lon="2.70373">
        <ele>84.4</ele>
        <time>2021-06-06T14:23:17Z</time>
      </trkpt>
      <trkpt lat="42.77552" lon="2.70402">
        <ele>84</ele>
        <time>2021-06-06T14:23:20Z</time>
      </trkpt>
      <trkpt lat="42.77556" lon="2.70441">
        <ele>83.4</ele>
        <time>2021-06-06T14:23:24Z</time>
      </trkpt>
      <trkpt lat="42.77561" lon="2.70482">
        <ele>83.6</ele>
        <time>2021-06-06T14:23:28Z</time>
      </trkpt>
      <trkpt lat="42.77567" lon="2.70521">
        <ele>84</ele>
        <time>2021-06-06T14:23:32Z</time>
      </trkpt>
      <trkpt lat="42.77577" lon="2.70557">
        <ele>83.4</ele>
        <time>2021-06-06T14:23:36Z</time>
      </trkpt>
      <trkpt lat="42.77588" lon="2.70591">
        <ele>83.6</ele>
        <time>2021-06-06T14:23:40Z</time>
      </trkpt>
      <trkpt lat="42.77596" lon="2.70612">
        <ele>83.4</ele>
        <time>2021-06-06T14:23:44Z</time>
      </trkpt>
      <trkpt lat="42.77597" lon="2.70615">
        <ele>84.4</ele>
        <time>2021-06-06T14:23:47Z</time>
      </trkpt>
      <trkpt lat="42.77597" lon="2.70618">
        <ele>83.8</ele>
        <time>2021-06-06T14:23:51Z</time>
      </trkpt>
      <trkpt lat="42.77605" lon="2.70635">
        <ele>83.8</ele>
        <time>2021-06-06T14:23:59Z</time>
      </trkpt>
      <trkpt lat="42.77613" lon="2.70651">
        <ele>83.8</ele>
        <time>2021-06-06T14:24:03Z</time>
      </trkpt>
      <trkpt lat="42.77627" lon="2.70675">
        <ele>83</ele>
        <time>2021-06-06T14:24:07Z</time>
      </trkpt>
      <trkpt lat="42.77644" lon="2.70702">
        <ele>83.2</ele>
        <time>2021-06-06T14:24:11Z</time>
      </trkpt>
      <trkpt lat="42.77662" lon="2.70732">
        <ele>83.4</ele>
        <time>2021-06-06T14:24:15Z</time>
      </trkpt>
      <trkpt lat="42.77672" lon="2.70758">
        <ele>83.6</ele>
        <time>2021-06-06T14:24:18Z</time>
      </trkpt>
      <trkpt lat="42.7768" lon="2.70792">
        <ele>82.6</ele>
        <time>2021-06-06T14:24:22Z</time>
      </trkpt>
      <trkpt lat="42.77692" lon="2.70822">
        <ele>84</ele>
        <time>2021-06-06T14:24:26Z</time>
      </trkpt>
      <trkpt lat="42.77703" lon="2.70855">
        <ele>83.4</ele>
        <time>2021-06-06T14:24:30Z</time>
      </trkpt>
      <trkpt lat="42.77713" lon="2.70886">
        <ele>83.2</ele>
        <time>2021-06-06T14:24:34Z</time>
      </trkpt>
      <trkpt lat="42.77726" lon="2.70897">
        <ele>83.2</ele>
        <time>2021-06-06T14:24:38Z</time>
      </trkpt>
      <trkpt lat="42.77731" lon="2.70892">
        <ele>82.8</ele>
        <time>2021-06-06T14:24:42Z</time>
      </trkpt>
      <trkpt lat="42.77733" lon="2.70901">
        <ele>83</ele>
        <time>2021-06-06T14:24:45Z</time>
      </trkpt>
      <trkpt lat="42.77738" lon="2.70919">
        <ele>83.4</ele>
        <time>2021-06-06T14:24:49Z</time>
      </trkpt>
      <trkpt lat="42.77744" lon="2.70944">
        <ele>83.2</ele>
        <time>2021-06-06T14:24:53Z</time>
      </trkpt>
      <trkpt lat="42.7775" lon="2.70973">
        <ele>83</ele>
        <time>2021-06-06T14:24:57Z</time>
      </trkpt>
      <trkpt lat="42.7776" lon="2.71001">
        <ele>83.4</ele>
        <time>2021-06-06T14:25:01Z</time>
      </trkpt>
      <trkpt lat="42.77771" lon="2.71032">
        <ele>84</ele>
        <time>2021-06-06T14:25:05Z</time>
      </trkpt>
      <trkpt lat="42.77776" lon="2.71055">
        <ele>84.2</ele>
        <time>2021-06-06T14:25:08Z</time>
      </trkpt>
      <trkpt lat="42.77779" lon="2.71085">
        <ele>84.2</ele>
        <time>2021-06-06T14:25:12Z</time>
      </trkpt>
      <trkpt lat="42.77779" lon="2.71117">
        <ele>83.8</ele>
        <time>2021-06-06T14:25:16Z</time>
      </trkpt>
      <trkpt lat="42.77779" lon="2.71149">
        <ele>83.8</ele>
        <time>2021-06-06T14:25:20Z</time>
      </trkpt>
      <trkpt lat="42.77781" lon="2.71182">
        <ele>83.8</ele>
        <time>2021-06-06T14:25:24Z</time>
      </trkpt>
      <trkpt lat="42.77784" lon="2.71212">
        <ele>83.6</ele>
        <time>2021-06-06T14:25:28Z</time>
      </trkpt>
      <trkpt lat="42.77787" lon="2.71238">
        <ele>83.2</ele>
        <time>2021-06-06T14:25:32Z</time>
      </trkpt>
      <trkpt lat="42.77789" lon="2.71257">
        <ele>83.2</ele>
        <time>2021-06-06T14:25:35Z</time>
      </trkpt>
      <trkpt lat="42.7779" lon="2.71284">
        <ele>83</ele>
        <time>2021-06-06T14:25:39Z</time>
      </trkpt>
      <trkpt lat="42.77785" lon="2.71315">
        <ele>82.4</ele>
        <time>2021-06-06T14:25:43Z</time>
      </trkpt>
      <trkpt lat="42.77779" lon="2.71343">
        <ele>82.2</ele>
        <time>2021-06-06T14:25:47Z</time>
      </trkpt>
      <trkpt lat="42.77782" lon="2.71373">
        <ele>81.8</ele>
        <time>2021-06-06T14:25:51Z</time>
      </trkpt>
      <trkpt lat="42.77791" lon="2.71399">
        <ele>81.8</ele>
        <time>2021-06-06T14:25:55Z</time>
      </trkpt>
      <trkpt lat="42.77799" lon="2.71429">
        <ele>81.8</ele>
        <time>2021-06-06T14:25:59Z</time>
      </trkpt>
      <trkpt lat="42.77801" lon="2.71451">
        <ele>81.6</ele>
        <time>2021-06-06T14:26:02Z</time>
      </trkpt>
      <trkpt lat="42.77802" lon="2.71483">
        <ele>81</ele>
        <time>2021-06-06T14:26:06Z</time>
      </trkpt>
      <trkpt lat="42.77805" lon="2.71515">
        <ele>80.6</ele>
        <time>2021-06-06T14:26:10Z</time>
      </trkpt>
      <trkpt lat="42.77809" lon="2.71548">
        <ele>80.2</ele>
        <time>2021-06-06T14:26:14Z</time>
      </trkpt>
      <trkpt lat="42.77815" lon="2.71579">
        <ele>80.2</ele>
        <time>2021-06-06T14:26:18Z</time>
      </trkpt>
      <trkpt lat="42.77821" lon="2.7161">
        <ele>80.2</ele>
        <time>2021-06-06T14:26:22Z</time>
      </trkpt>
      <trkpt lat="42.77829" lon="2.71641">
        <ele>80.6</ele>
        <time>2021-06-06T14:26:26Z</time>
      </trkpt>
      <trkpt lat="42.77836" lon="2.71664">
        <ele>80.4</ele>
        <time>2021-06-06T14:26:29Z</time>
      </trkpt>
      <trkpt lat="42.77846" lon="2.71689">
        <ele>81</ele>
        <time>2021-06-06T14:26:33Z</time>
      </trkpt>
      <trkpt lat="42.77861" lon="2.71695">
        <ele>81.8</ele>
        <time>2021-06-06T14:26:37Z</time>
      </trkpt>
      <trkpt lat="42.77869" lon="2.71681">
        <ele>82.8</ele>
        <time>2021-06-06T14:26:41Z</time>
      </trkpt>
      <trkpt lat="42.77872" lon="2.71663">
        <ele>83</ele>
        <time>2021-06-06T14:26:45Z</time>
      </trkpt>
      <trkpt lat="42.77877" lon="2.71644">
        <ele>82.6</ele>
        <time>2021-06-06T14:26:49Z</time>
      </trkpt>
      <trkpt lat="42.77888" lon="2.71633">
        <ele>83</ele>
        <time>2021-06-06T14:26:53Z</time>
      </trkpt>
      <trkpt lat="42.77899" lon="2.71635">
        <ele>83.2</ele>
        <time>2021-06-06T14:26:56Z</time>
      </trkpt>
      <trkpt lat="42.77914" lon="2.71639">
        <ele>84.8</ele>
        <time>2021-06-06T14:27:00Z</time>
      </trkpt>
      <trkpt lat="42.77929" lon="2.71642">
        <ele>84</ele>
        <time>2021-06-06T14:27:04Z</time>
      </trkpt>
      <trkpt lat="42.77946" lon="2.71645">
        <ele>83.4</ele>
        <time>2021-06-06T14:27:08Z</time>
      </trkpt>
      <trkpt lat="42.7796" lon="2.71651">
        <ele>84.2</ele>
        <time>2021-06-06T14:27:12Z</time>
      </trkpt>
      <trkpt lat="42.77969" lon="2.71662">
        <ele>85.2</ele>
        <time>2021-06-06T14:27:16Z</time>
      </trkpt>
      <trkpt lat="42.77973" lon="2.71672">
        <ele>85.8</ele>
        <time>2021-06-06T14:27:19Z</time>
      </trkpt>
      <trkpt lat="42.77975" lon="2.71688">
        <ele>85.6</ele>
        <time>2021-06-06T14:27:23Z</time>
      </trkpt>
      <trkpt lat="42.77974" lon="2.71709">
        <ele>85.4</ele>
        <time>2021-06-06T14:27:27Z</time>
      </trkpt>
      <trkpt lat="42.77973" lon="2.7173">
        <ele>85.4</ele>
        <time>2021-06-06T14:27:31Z</time>
      </trkpt>
      <trkpt lat="42.77974" lon="2.71752">
        <ele>85.4</ele>
        <time>2021-06-06T14:27:35Z</time>
      </trkpt>
      <trkpt lat="42.77975" lon="2.71771">
        <ele>86.2</ele>
        <time>2021-06-06T14:27:39Z</time>
      </trkpt>
      <trkpt lat="42.77977" lon="2.7179">
        <ele>86.6</ele>
        <time>2021-06-06T14:27:43Z</time>
      </trkpt>
      <trkpt lat="42.77977" lon="2.71803">
        <ele>87</ele>
        <time>2021-06-06T14:27:46Z</time>
      </trkpt>
      <trkpt lat="42.77975" lon="2.71821">
        <ele>86.8</ele>
        <time>2021-06-06T14:27:50Z</time>
      </trkpt>
      <trkpt lat="42.77971" lon="2.7184">
        <ele>86.2</ele>
        <time>2021-06-06T14:27:54Z</time>
      </trkpt>
      <trkpt lat="42.77965" lon="2.71866">
        <ele>84.8</ele>
        <time>2021-06-06T14:27:58Z</time>
      </trkpt>
      <trkpt lat="42.77957" lon="2.71894">
        <ele>84.8</ele>
        <time>2021-06-06T14:28:02Z</time>
      </trkpt>
      <trkpt lat="42.77951" lon="2.71921">
        <ele>85</ele>
        <time>2021-06-06T14:28:06Z</time>
      </trkpt>
      <trkpt lat="42.77948" lon="2.71949">
        <ele>85.2</ele>
        <time>2021-06-06T14:28:10Z</time>
      </trkpt>
      <trkpt lat="42.77948" lon="2.71968">
        <ele>85.8</ele>
        <time>2021-06-06T14:28:13Z</time>
      </trkpt>
      <trkpt lat="42.7795" lon="2.71991">
        <ele>86.2</ele>
        <time>2021-06-06T14:28:17Z</time>
      </trkpt>
      <trkpt lat="42.77953" lon="2.72017">
        <ele>86.4</ele>
        <time>2021-06-06T14:28:21Z</time>
      </trkpt>
      <trkpt lat="42.77958" lon="2.7204">
        <ele>86.6</ele>
        <time>2021-06-06T14:28:25Z</time>
      </trkpt>
      <trkpt lat="42.77965" lon="2.72065">
        <ele>86</ele>
        <time>2021-06-06T14:28:29Z</time>
      </trkpt>
      <trkpt lat="42.77972" lon="2.72097">
        <ele>84.6</ele>
        <time>2021-06-06T14:28:33Z</time>
      </trkpt>
      <trkpt lat="42.77979" lon="2.7213">
        <ele>84</ele>
        <time>2021-06-06T14:28:37Z</time>
      </trkpt>
      <trkpt lat="42.77985" lon="2.72153">
        <ele>84.6</ele>
        <time>2021-06-06T14:28:40Z</time>
      </trkpt>
      <trkpt lat="42.77994" lon="2.72182">
        <ele>84.2</ele>
        <time>2021-06-06T14:28:44Z</time>
      </trkpt>
      <trkpt lat="42.78001" lon="2.72211">
        <ele>83.6</ele>
        <time>2021-06-06T14:28:48Z</time>
      </trkpt>
      <trkpt lat="42.78009" lon="2.72239">
        <ele>83.6</ele>
        <time>2021-06-06T14:28:52Z</time>
      </trkpt>
      <trkpt lat="42.78016" lon="2.72258">
        <ele>84.8</ele>
        <time>2021-06-06T14:28:56Z</time>
      </trkpt>
      <trkpt lat="42.7802" lon="2.72275">
        <ele>85.4</ele>
        <time>2021-06-06T14:29:00Z</time>
      </trkpt>
      <trkpt lat="42.78023" lon="2.72291">
        <ele>85.2</ele>
        <time>2021-06-06T14:29:04Z</time>
      </trkpt>
      <trkpt lat="42.78025" lon="2.72298">
        <ele>85.2</ele>
        <time>2021-06-06T14:29:07Z</time>
      </trkpt>
      <trkpt lat="42.78025" lon="2.72298">
        <ele>85.4</ele>
        <time>2021-06-06T14:29:11Z</time>
      </trkpt>
      <trkpt lat="42.7803" lon="2.72355">
        <ele>83.4</ele>
        <time>2021-06-06T14:29:31Z</time>
      </trkpt>
      <trkpt lat="42.78032" lon="2.72388">
        <ele>82.6</ele>
        <time>2021-06-06T14:29:35Z</time>
      </trkpt>
      <trkpt lat="42.78033" lon="2.72422">
        <ele>82.4</ele>
        <time>2021-06-06T14:29:39Z</time>
      </trkpt>
      <trkpt lat="42.78031" lon="2.72454">
        <ele>82.4</ele>
        <time>2021-06-06T14:29:43Z</time>
      </trkpt>
      <trkpt lat="42.78027" lon="2.72483">
        <ele>82.6</ele>
        <time>2021-06-06T14:29:47Z</time>
      </trkpt>
      <trkpt lat="42.78022" lon="2.72501">
        <ele>82.8</ele>
        <time>2021-06-06T14:29:50Z</time>
      </trkpt>
      <trkpt lat="42.78011" lon="2.72518">
        <ele>82.2</ele>
        <time>2021-06-06T14:29:54Z</time>
      </trkpt>
      <trkpt lat="42.7799" lon="2.72526">
        <ele>80.4</ele>
        <time>2021-06-06T14:29:58Z</time>
      </trkpt>
      <trkpt lat="42.77969" lon="2.7253">
        <ele>78.6</ele>
        <time>2021-06-06T14:30:02Z</time>
      </trkpt>
      <trkpt lat="42.77963" lon="2.72558">
        <ele>77.6</ele>
        <time>2021-06-06T14:30:06Z</time>
      </trkpt>
      <trkpt lat="42.77955" lon="2.72588">
        <ele>77.2</ele>
        <time>2021-06-06T14:30:10Z</time>
      </trkpt>
      <trkpt lat="42.77945" lon="2.72611">
        <ele>77</ele>
        <time>2021-06-06T14:30:13Z</time>
      </trkpt>
      <trkpt lat="42.77937" lon="2.72648">
        <ele>77.4</ele>
        <time>2021-06-06T14:30:17Z</time>
      </trkpt>
      <trkpt lat="42.77931" lon="2.72683">
        <ele>77.6</ele>
        <time>2021-06-06T14:30:21Z</time>
      </trkpt>
      <trkpt lat="42.77924" lon="2.72716">
        <ele>77.4</ele>
        <time>2021-06-06T14:30:25Z</time>
      </trkpt>
      <trkpt lat="42.77915" lon="2.72746">
        <ele>77.4</ele>
        <time>2021-06-06T14:30:29Z</time>
      </trkpt>
      <trkpt lat="42.77907" lon="2.72772">
        <ele>77.8</ele>
        <time>2021-06-06T14:30:33Z</time>
      </trkpt>
      <trkpt lat="42.779" lon="2.72794">
        <ele>78</ele>
        <time>2021-06-06T14:30:37Z</time>
      </trkpt>
      <trkpt lat="42.77896" lon="2.72809">
        <ele>78</ele>
        <time>2021-06-06T14:30:40Z</time>
      </trkpt>
      <trkpt lat="42.77891" lon="2.72827">
        <ele>78.2</ele>
        <time>2021-06-06T14:30:44Z</time>
      </trkpt>
      <trkpt lat="42.77885" lon="2.72845">
        <ele>78.4</ele>
        <time>2021-06-06T14:30:48Z</time>
      </trkpt>
      <trkpt lat="42.7788" lon="2.72861">
        <ele>78.6</ele>
        <time>2021-06-06T14:30:52Z</time>
      </trkpt>
      <trkpt lat="42.77876" lon="2.72874">
        <ele>78.4</ele>
        <time>2021-06-06T14:30:56Z</time>
      </trkpt>
      <trkpt lat="42.77875" lon="2.72876">
        <ele>78.6</ele>
        <time>2021-06-06T14:31:00Z</time>
      </trkpt>
      <trkpt lat="42.77875" lon="2.72876">
        <ele>78.4</ele>
        <time>2021-06-06T14:31:04Z</time>
      </trkpt>
      <trkpt lat="42.77866" lon="2.72903">
        <ele>78.2</ele>
        <time>2021-06-06T14:31:31Z</time>
      </trkpt>
      <trkpt lat="42.77861" lon="2.72918">
        <ele>77.8</ele>
        <time>2021-06-06T14:31:35Z</time>
      </trkpt>
      <trkpt lat="42.77856" lon="2.72935">
        <ele>77.8</ele>
        <time>2021-06-06T14:31:39Z</time>
      </trkpt>
      <trkpt lat="42.7785" lon="2.72954">
        <ele>77.2</ele>
        <time>2021-06-06T14:31:43Z</time>
      </trkpt>
      <trkpt lat="42.77844" lon="2.72975">
        <ele>77</ele>
        <time>2021-06-06T14:31:47Z</time>
      </trkpt>
      <trkpt lat="42.77837" lon="2.72994">
        <ele>77.2</ele>
        <time>2021-06-06T14:31:51Z</time>
      </trkpt>
      <trkpt lat="42.77831" lon="2.73016">
        <ele>77.2</ele>
        <time>2021-06-06T14:31:55Z</time>
      </trkpt>
      <trkpt lat="42.77826" lon="2.73033">
        <ele>77</ele>
        <time>2021-06-06T14:31:58Z</time>
      </trkpt>
      <trkpt lat="42.77819" lon="2.73054">
        <ele>76.8</ele>
        <time>2021-06-06T14:32:02Z</time>
      </trkpt>
      <trkpt lat="42.77812" lon="2.73076">
        <ele>76.8</ele>
        <time>2021-06-06T14:32:06Z</time>
      </trkpt>
      <trkpt lat="42.77805" lon="2.73099">
        <ele>77</ele>
        <time>2021-06-06T14:32:10Z</time>
      </trkpt>
      <trkpt lat="42.77797" lon="2.73119">
        <ele>77</ele>
        <time>2021-06-06T14:32:14Z</time>
      </trkpt>
      <trkpt lat="42.77787" lon="2.73137">
        <ele>76.4</ele>
        <time>2021-06-06T14:32:18Z</time>
      </trkpt>
      <trkpt lat="42.77778" lon="2.73158">
        <ele>76.4</ele>
        <time>2021-06-06T14:32:22Z</time>
      </trkpt>
      <trkpt lat="42.77772" lon="2.73174">
        <ele>76.6</ele>
        <time>2021-06-06T14:32:25Z</time>
      </trkpt>
      <trkpt lat="42.77765" lon="2.73195">
        <ele>76.6</ele>
        <time>2021-06-06T14:32:29Z</time>
      </trkpt>
      <trkpt lat="42.7776" lon="2.73218">
        <ele>76.6</ele>
        <time>2021-06-06T14:32:33Z</time>
      </trkpt>
      <trkpt lat="42.77755" lon="2.73241">
        <ele>76.4</ele>
        <time>2021-06-06T14:32:37Z</time>
      </trkpt>
      <trkpt lat="42.77752" lon="2.73264">
        <ele>76.4</ele>
        <time>2021-06-06T14:32:41Z</time>
      </trkpt>
      <trkpt lat="42.77751" lon="2.73287">
        <ele>76.4</ele>
        <time>2021-06-06T14:32:45Z</time>
      </trkpt>
      <trkpt lat="42.7775" lon="2.73312">
        <ele>76.2</ele>
        <time>2021-06-06T14:32:49Z</time>
      </trkpt>
      <trkpt lat="42.7775" lon="2.73331">
        <ele>76</ele>
        <time>2021-06-06T14:32:52Z</time>
      </trkpt>
      <trkpt lat="42.7775" lon="2.73354">
        <ele>75.8</ele>
        <time>2021-06-06T14:32:56Z</time>
      </trkpt>
      <trkpt lat="42.77749" lon="2.73377">
        <ele>75.4</ele>
        <time>2021-06-06T14:33:00Z</time>
      </trkpt>
      <trkpt lat="42.77748" lon="2.734">
        <ele>75.4</ele>
        <time>2021-06-06T14:33:04Z</time>
      </trkpt>
      <trkpt lat="42.77747" lon="2.73424">
        <ele>75.6</ele>
        <time>2021-06-06T14:33:08Z</time>
      </trkpt>
      <trkpt lat="42.77745" lon="2.73448">
        <ele>75.6</ele>
        <time>2021-06-06T14:33:12Z</time>
      </trkpt>
      <trkpt lat="42.77744" lon="2.73466">
        <ele>75.4</ele>
        <time>2021-06-06T14:33:15Z</time>
      </trkpt>
      <trkpt lat="42.77743" lon="2.73491">
        <ele>75.2</ele>
        <time>2021-06-06T14:33:19Z</time>
      </trkpt>
      <trkpt lat="42.77741" lon="2.73515">
        <ele>75</ele>
        <time>2021-06-06T14:33:23Z</time>
      </trkpt>
      <trkpt lat="42.7774" lon="2.7354">
        <ele>75</ele>
        <time>2021-06-06T14:33:27Z</time>
      </trkpt>
      <trkpt lat="42.77739" lon="2.73565">
        <ele>75</ele>
        <time>2021-06-06T14:33:31Z</time>
      </trkpt>
      <trkpt lat="42.77738" lon="2.7359">
        <ele>74.8</ele>
        <time>2021-06-06T14:33:35Z</time>
      </trkpt>
      <trkpt lat="42.77737" lon="2.73616">
        <ele>75</ele>
        <time>2021-06-06T14:33:39Z</time>
      </trkpt>
      <trkpt lat="42.77735" lon="2.73636">
        <ele>75.2</ele>
        <time>2021-06-06T14:33:42Z</time>
      </trkpt>
      <trkpt lat="42.77733" lon="2.73661">
        <ele>75.8</ele>
        <time>2021-06-06T14:33:46Z</time>
      </trkpt>
      <trkpt lat="42.77732" lon="2.73687">
        <ele>76</ele>
        <time>2021-06-06T14:33:50Z</time>
      </trkpt>
      <trkpt lat="42.77729" lon="2.73711">
        <ele>76</ele>
        <time>2021-06-06T14:33:54Z</time>
      </trkpt>
      <trkpt lat="42.77726" lon="2.73735">
        <ele>76.2</ele>
        <time>2021-06-06T14:33:58Z</time>
      </trkpt>
      <trkpt lat="42.77721" lon="2.73758">
        <ele>76.4</ele>
        <time>2021-06-06T14:34:02Z</time>
      </trkpt>
      <trkpt lat="42.77716" lon="2.73781">
        <ele>76.6</ele>
        <time>2021-06-06T14:34:06Z</time>
      </trkpt>
      <trkpt lat="42.77711" lon="2.73797">
        <ele>76.6</ele>
        <time>2021-06-06T14:34:09Z</time>
      </trkpt>
      <trkpt lat="42.77705" lon="2.73816">
        <ele>76.4</ele>
        <time>2021-06-06T14:34:13Z</time>
      </trkpt>
      <trkpt lat="42.77702" lon="2.73839">
        <ele>76.2</ele>
        <time>2021-06-06T14:34:17Z</time>
      </trkpt>
      <trkpt lat="42.77699" lon="2.7386">
        <ele>76.4</ele>
        <time>2021-06-06T14:34:21Z</time>
      </trkpt>
      <trkpt lat="42.77695" lon="2.73881">
        <ele>76.6</ele>
        <time>2021-06-06T14:34:25Z</time>
      </trkpt>
      <trkpt lat="42.77691" lon="2.73898">
        <ele>77</ele>
        <time>2021-06-06T14:34:29Z</time>
      </trkpt>
      <trkpt lat="42.77689" lon="2.73904">
        <ele>77.6</ele>
        <time>2021-06-06T14:34:33Z</time>
      </trkpt>
      <trkpt lat="42.77689" lon="2.73905">
        <ele>77.8</ele>
        <time>2021-06-06T14:34:36Z</time>
      </trkpt>
      <trkpt lat="42.77682" lon="2.73934">
        <ele>78.6</ele>
        <time>2021-06-06T14:35:12Z</time>
      </trkpt>
      <trkpt lat="42.77677" lon="2.73953">
        <ele>78.6</ele>
        <time>2021-06-06T14:35:16Z</time>
      </trkpt>
      <trkpt lat="42.77671" lon="2.73976">
        <ele>78.4</ele>
        <time>2021-06-06T14:35:20Z</time>
      </trkpt>
      <trkpt lat="42.77666" lon="2.74001">
        <ele>78.2</ele>
        <time>2021-06-06T14:35:24Z</time>
      </trkpt>
      <trkpt lat="42.77659" lon="2.74027">
        <ele>77.8</ele>
        <time>2021-06-06T14:35:28Z</time>
      </trkpt>
      <trkpt lat="42.77654" lon="2.74054">
        <ele>77.8</ele>
        <time>2021-06-06T14:35:32Z</time>
      </trkpt>
      <trkpt lat="42.7765" lon="2.74075">
        <ele>78</ele>
        <time>2021-06-06T14:35:35Z</time>
      </trkpt>
      <trkpt lat="42.77643" lon="2.74105">
        <ele>78</ele>
        <time>2021-06-06T14:35:39Z</time>
      </trkpt>
      <trkpt lat="42.77637" lon="2.74134">
        <ele>78</ele>
        <time>2021-06-06T14:35:43Z</time>
      </trkpt>
      <trkpt lat="42.7763" lon="2.74164">
        <ele>78</ele>
        <time>2021-06-06T14:35:47Z</time>
      </trkpt>
      <trkpt lat="42.77623" lon="2.74194">
        <ele>77.8</ele>
        <time>2021-06-06T14:35:51Z</time>
      </trkpt>
      <trkpt lat="42.77616" lon="2.74223">
        <ele>76.8</ele>
        <time>2021-06-06T14:35:55Z</time>
      </trkpt>
      <trkpt lat="42.77611" lon="2.74246">
        <ele>76.4</ele>
        <time>2021-06-06T14:35:58Z</time>
      </trkpt>
      <trkpt lat="42.77604" lon="2.74277">
        <ele>76.2</ele>
        <time>2021-06-06T14:36:02Z</time>
      </trkpt>
      <trkpt lat="42.77597" lon="2.74308">
        <ele>76.2</ele>
        <time>2021-06-06T14:36:06Z</time>
      </trkpt>
      <trkpt lat="42.77589" lon="2.7434">
        <ele>76.4</ele>
        <time>2021-06-06T14:36:10Z</time>
      </trkpt>
      <trkpt lat="42.77582" lon="2.74372">
        <ele>76.4</ele>
        <time>2021-06-06T14:36:14Z</time>
      </trkpt>
      <trkpt lat="42.77574" lon="2.74404">
        <ele>76.4</ele>
        <time>2021-06-06T14:36:18Z</time>
      </trkpt>
      <trkpt lat="42.77567" lon="2.74435">
        <ele>76.6</ele>
        <time>2021-06-06T14:36:22Z</time>
      </trkpt>
      <trkpt lat="42.77561" lon="2.74459">
        <ele>77.2</ele>
        <time>2021-06-06T14:36:25Z</time>
      </trkpt>
      <trkpt lat="42.77554" lon="2.74493">
        <ele>76</ele>
        <time>2021-06-06T14:36:29Z</time>
      </trkpt>
      <trkpt lat="42.77547" lon="2.74527">
        <ele>76.4</ele>
        <time>2021-06-06T14:36:33Z</time>
      </trkpt>
      <trkpt lat="42.77542" lon="2.74561">
        <ele>76.2</ele>
        <time>2021-06-06T14:36:37Z</time>
      </trkpt>
      <trkpt lat="42.77538" lon="2.74595">
        <ele>76.2</ele>
        <time>2021-06-06T14:36:41Z</time>
      </trkpt>
      <trkpt lat="42.77535" lon="2.74629">
        <ele>75.8</ele>
        <time>2021-06-06T14:36:45Z</time>
      </trkpt>
      <trkpt lat="42.77533" lon="2.74664">
        <ele>75.4</ele>
        <time>2021-06-06T14:36:49Z</time>
      </trkpt>
      <trkpt lat="42.77531" lon="2.74691">
        <ele>75.2</ele>
        <time>2021-06-06T14:36:52Z</time>
      </trkpt>
      <trkpt lat="42.77528" lon="2.74728">
        <ele>75</ele>
        <time>2021-06-06T14:36:56Z</time>
      </trkpt>
      <trkpt lat="42.77525" lon="2.74764">
        <ele>75</ele>
        <time>2021-06-06T14:37:00Z</time>
      </trkpt>
      <trkpt lat="42.77522" lon="2.74801">
        <ele>74.8</ele>
        <time>2021-06-06T14:37:04Z</time>
      </trkpt>
      <trkpt lat="42.77519" lon="2.74838">
        <ele>74.8</ele>
        <time>2021-06-06T14:37:08Z</time>
      </trkpt>
      <trkpt lat="42.77516" lon="2.74874">
        <ele>74.8</ele>
        <time>2021-06-06T14:37:12Z</time>
      </trkpt>
      <trkpt lat="42.77512" lon="2.74912">
        <ele>74.6</ele>
        <time>2021-06-06T14:37:16Z</time>
      </trkpt>
      <trkpt lat="42.77509" lon="2.74938">
        <ele>74.6</ele>
        <time>2021-06-06T14:37:19Z</time>
      </trkpt>
      <trkpt lat="42.77505" lon="2.74973">
        <ele>74.6</ele>
        <time>2021-06-06T14:37:23Z</time>
      </trkpt>
      <trkpt lat="42.77502" lon="2.75007">
        <ele>74.4</ele>
        <time>2021-06-06T14:37:27Z</time>
      </trkpt>
      <trkpt lat="42.77499" lon="2.7504">
        <ele>74.4</ele>
        <time>2021-06-06T14:37:31Z</time>
      </trkpt>
      <trkpt lat="42.77496" lon="2.75074">
        <ele>74.2</ele>
        <time>2021-06-06T14:37:35Z</time>
      </trkpt>
      <trkpt lat="42.77494" lon="2.7511">
        <ele>74.2</ele>
        <time>2021-06-06T14:37:39Z</time>
      </trkpt>
      <trkpt lat="42.77494" lon="2.75147">
        <ele>74.6</ele>
        <time>2021-06-06T14:37:43Z</time>
      </trkpt>
      <trkpt lat="42.77492" lon="2.75174">
        <ele>74.2</ele>
        <time>2021-06-06T14:37:46Z</time>
      </trkpt>
      <trkpt lat="42.77491" lon="2.75211">
        <ele>74</ele>
        <time>2021-06-06T14:37:50Z</time>
      </trkpt>
      <trkpt lat="42.77489" lon="2.75248">
        <ele>73.8</ele>
        <time>2021-06-06T14:37:54Z</time>
      </trkpt>
      <trkpt lat="42.77488" lon="2.75287">
        <ele>73.6</ele>
        <time>2021-06-06T14:37:58Z</time>
      </trkpt>
      <trkpt lat="42.77486" lon="2.75325">
        <ele>73.6</ele>
        <time>2021-06-06T14:38:02Z</time>
      </trkpt>
      <trkpt lat="42.77486" lon="2.75362">
        <ele>73.4</ele>
        <time>2021-06-06T14:38:06Z</time>
      </trkpt>
      <trkpt lat="42.77483" lon="2.75398">
        <ele>74</ele>
        <time>2021-06-06T14:38:10Z</time>
      </trkpt>
      <trkpt lat="42.77482" lon="2.75424">
        <ele>73.2</ele>
        <time>2021-06-06T14:38:13Z</time>
      </trkpt>
      <trkpt lat="42.7748" lon="2.75458">
        <ele>73.2</ele>
        <time>2021-06-06T14:38:17Z</time>
      </trkpt>
      <trkpt lat="42.77479" lon="2.7549">
        <ele>73</ele>
        <time>2021-06-06T14:38:21Z</time>
      </trkpt>
      <trkpt lat="42.77478" lon="2.75522">
        <ele>72.6</ele>
        <time>2021-06-06T14:38:25Z</time>
      </trkpt>
      <trkpt lat="42.77477" lon="2.75553">
        <ele>72.8</ele>
        <time>2021-06-06T14:38:29Z</time>
      </trkpt>
      <trkpt lat="42.77476" lon="2.75585">
        <ele>72.8</ele>
        <time>2021-06-06T14:38:33Z</time>
      </trkpt>
      <trkpt lat="42.77476" lon="2.75608">
        <ele>72.8</ele>
        <time>2021-06-06T14:38:36Z</time>
      </trkpt>
      <trkpt lat="42.77475" lon="2.75639">
        <ele>72.8</ele>
        <time>2021-06-06T14:38:40Z</time>
      </trkpt>
      <trkpt lat="42.77476" lon="2.75671">
        <ele>72.4</ele>
        <time>2021-06-06T14:38:44Z</time>
      </trkpt>
      <trkpt lat="42.77477" lon="2.75703">
        <ele>72.6</ele>
        <time>2021-06-06T14:38:48Z</time>
      </trkpt>
      <trkpt lat="42.77478" lon="2.75735">
        <ele>72.2</ele>
        <time>2021-06-06T14:38:52Z</time>
      </trkpt>
      <trkpt lat="42.7748" lon="2.75767">
        <ele>72</ele>
        <time>2021-06-06T14:38:56Z</time>
      </trkpt>
      <trkpt lat="42.77481" lon="2.75799">
        <ele>71.8</ele>
        <time>2021-06-06T14:39:00Z</time>
      </trkpt>
      <trkpt lat="42.77482" lon="2.75823">
        <ele>71.8</ele>
        <time>2021-06-06T14:39:03Z</time>
      </trkpt>
      <trkpt lat="42.77485" lon="2.75854">
        <ele>72</ele>
        <time>2021-06-06T14:39:07Z</time>
      </trkpt>
      <trkpt lat="42.77488" lon="2.75886">
        <ele>71.8</ele>
        <time>2021-06-06T14:39:11Z</time>
      </trkpt>
      <trkpt lat="42.77492" lon="2.75918">
        <ele>71.8</ele>
        <time>2021-06-06T14:39:15Z</time>
      </trkpt>
      <trkpt lat="42.77496" lon="2.75949">
        <ele>71.6</ele>
        <time>2021-06-06T14:39:19Z</time>
      </trkpt>
      <trkpt lat="42.775" lon="2.75978">
        <ele>72</ele>
        <time>2021-06-06T14:39:23Z</time>
      </trkpt>
      <trkpt lat="42.77502" lon="2.76005">
        <ele>71.8</ele>
        <time>2021-06-06T14:39:27Z</time>
      </trkpt>
      <trkpt lat="42.77504" lon="2.76025">
        <ele>71.8</ele>
        <time>2021-06-06T14:39:30Z</time>
      </trkpt>
      <trkpt lat="42.77508" lon="2.76053">
        <ele>70.4</ele>
        <time>2021-06-06T14:39:34Z</time>
      </trkpt>
      <trkpt lat="42.77511" lon="2.76082">
        <ele>70.8</ele>
        <time>2021-06-06T14:39:38Z</time>
      </trkpt>
      <trkpt lat="42.77513" lon="2.76109">
        <ele>70.4</ele>
        <time>2021-06-06T14:39:42Z</time>
      </trkpt>
      <trkpt lat="42.77517" lon="2.76137">
        <ele>70.6</ele>
        <time>2021-06-06T14:39:46Z</time>
      </trkpt>
      <trkpt lat="42.77521" lon="2.76163">
        <ele>71</ele>
        <time>2021-06-06T14:39:50Z</time>
      </trkpt>
      <trkpt lat="42.77525" lon="2.76189">
        <ele>71.2</ele>
        <time>2021-06-06T14:39:54Z</time>
      </trkpt>
      <trkpt lat="42.77528" lon="2.76207">
        <ele>71.6</ele>
        <time>2021-06-06T14:39:57Z</time>
      </trkpt>
      <trkpt lat="42.77532" lon="2.7623">
        <ele>72.2</ele>
        <time>2021-06-06T14:40:01Z</time>
      </trkpt>
      <trkpt lat="42.77538" lon="2.76249">
        <ele>72.8</ele>
        <time>2021-06-06T14:40:05Z</time>
      </trkpt>
      <trkpt lat="42.77544" lon="2.76267">
        <ele>73.8</ele>
        <time>2021-06-06T14:40:09Z</time>
      </trkpt>
      <trkpt lat="42.7755" lon="2.76285">
        <ele>74</ele>
        <time>2021-06-06T14:40:13Z</time>
      </trkpt>
      <trkpt lat="42.77556" lon="2.76303">
        <ele>74.4</ele>
        <time>2021-06-06T14:40:17Z</time>
      </trkpt>
      <trkpt lat="42.77563" lon="2.7632">
        <ele>74.8</ele>
        <time>2021-06-06T14:40:21Z</time>
      </trkpt>
      <trkpt lat="42.77568" lon="2.76334">
        <ele>74.8</ele>
        <time>2021-06-06T14:40:24Z</time>
      </trkpt>
      <trkpt lat="42.77576" lon="2.76354">
        <ele>75</ele>
        <time>2021-06-06T14:40:28Z</time>
      </trkpt>
      <trkpt lat="42.77586" lon="2.76372">
        <ele>74.8</ele>
        <time>2021-06-06T14:40:32Z</time>
      </trkpt>
      <trkpt lat="42.77599" lon="2.76388">
        <ele>74.6</ele>
        <time>2021-06-06T14:40:36Z</time>
      </trkpt>
      <trkpt lat="42.77613" lon="2.76402">
        <ele>74.4</ele>
        <time>2021-06-06T14:40:40Z</time>
      </trkpt>
      <trkpt lat="42.77629" lon="2.76412">
        <ele>74.4</ele>
        <time>2021-06-06T14:40:44Z</time>
      </trkpt>
      <trkpt lat="42.77641" lon="2.76417">
        <ele>74.6</ele>
        <time>2021-06-06T14:40:47Z</time>
      </trkpt>
      <trkpt lat="42.77657" lon="2.76419">
        <ele>75.2</ele>
        <time>2021-06-06T14:40:51Z</time>
      </trkpt>
      <trkpt lat="42.77671" lon="2.76421">
        <ele>75.2</ele>
        <time>2021-06-06T14:40:55Z</time>
      </trkpt>
      <trkpt lat="42.77684" lon="2.76423">
        <ele>75.8</ele>
        <time>2021-06-06T14:40:59Z</time>
      </trkpt>
      <trkpt lat="42.77697" lon="2.76425">
        <ele>75.8</ele>
        <time>2021-06-06T14:41:03Z</time>
      </trkpt>
      <trkpt lat="42.77709" lon="2.76427">
        <ele>77.4</ele>
        <time>2021-06-06T14:41:07Z</time>
      </trkpt>
      <trkpt lat="42.77722" lon="2.7643">
        <ele>77.6</ele>
        <time>2021-06-06T14:41:11Z</time>
      </trkpt>
      <trkpt lat="42.7773" lon="2.76431">
        <ele>77.4</ele>
        <time>2021-06-06T14:41:14Z</time>
      </trkpt>
      <trkpt lat="42.77741" lon="2.76433">
        <ele>77.6</ele>
        <time>2021-06-06T14:41:18Z</time>
      </trkpt>
      <trkpt lat="42.77752" lon="2.76436">
        <ele>78.8</ele>
        <time>2021-06-06T14:41:22Z</time>
      </trkpt>
      <trkpt lat="42.77763" lon="2.76438">
        <ele>79.2</ele>
        <time>2021-06-06T14:41:26Z</time>
      </trkpt>
      <trkpt lat="42.77775" lon="2.76439">
        <ele>79.6</ele>
        <time>2021-06-06T14:41:30Z</time>
      </trkpt>
      <trkpt lat="42.77784" lon="2.76438">
        <ele>81</ele>
        <time>2021-06-06T14:41:34Z</time>
      </trkpt>
      <trkpt lat="42.77791" lon="2.76435">
        <ele>80.6</ele>
        <time>2021-06-06T14:41:38Z</time>
      </trkpt>
      <trkpt lat="42.77797" lon="2.76432">
        <ele>79.6</ele>
        <time>2021-06-06T14:41:41Z</time>
      </trkpt>
      <trkpt lat="42.77805" lon="2.76426">
        <ele>80.2</ele>
        <time>2021-06-06T14:41:45Z</time>
      </trkpt>
      <trkpt lat="42.77815" lon="2.76419">
        <ele>80.2</ele>
        <time>2021-06-06T14:41:49Z</time>
      </trkpt>
      <trkpt lat="42.77823" lon="2.76414">
        <ele>81.2</ele>
        <time>2021-06-06T14:41:53Z</time>
      </trkpt>
      <trkpt lat="42.77832" lon="2.76413">
        <ele>81.2</ele>
        <time>2021-06-06T14:41:57Z</time>
      </trkpt>
      <trkpt lat="42.77842" lon="2.76411">
        <ele>81.4</ele>
        <time>2021-06-06T14:42:01Z</time>
      </trkpt>
      <trkpt lat="42.77853" lon="2.76413">
        <ele>81.6</ele>
        <time>2021-06-06T14:42:05Z</time>
      </trkpt>
      <trkpt lat="42.77863" lon="2.76415">
        <ele>81</ele>
        <time>2021-06-06T14:42:08Z</time>
      </trkpt>
      <trkpt lat="42.77877" lon="2.7642">
        <ele>80.4</ele>
        <time>2021-06-06T14:42:12Z</time>
      </trkpt>
      <trkpt lat="42.77892" lon="2.76427">
        <ele>79.4</ele>
        <time>2021-06-06T14:42:16Z</time>
      </trkpt>
      <trkpt lat="42.77909" lon="2.76436">
        <ele>80.2</ele>
        <time>2021-06-06T14:42:20Z</time>
      </trkpt>
      <trkpt lat="42.77926" lon="2.76444">
        <ele>78.6</ele>
        <time>2021-06-06T14:42:24Z</time>
      </trkpt>
      <trkpt lat="42.77943" lon="2.76452">
        <ele>79</ele>
        <time>2021-06-06T14:42:28Z</time>
      </trkpt>
      <trkpt lat="42.77961" lon="2.76461">
        <ele>78.4</ele>
        <time>2021-06-06T14:42:32Z</time>
      </trkpt>
      <trkpt lat="42.77974" lon="2.76466">
        <ele>78.4</ele>
        <time>2021-06-06T14:42:35Z</time>
      </trkpt>
      <trkpt lat="42.7799" lon="2.76475">
        <ele>79</ele>
        <time>2021-06-06T14:42:39Z</time>
      </trkpt>
      <trkpt lat="42.78004" lon="2.76482">
        <ele>79</ele>
        <time>2021-06-06T14:42:43Z</time>
      </trkpt>
      <trkpt lat="42.78017" lon="2.76487">
        <ele>79</ele>
        <time>2021-06-06T14:42:47Z</time>
      </trkpt>
      <trkpt lat="42.7803" lon="2.76493">
        <ele>79.4</ele>
        <time>2021-06-06T14:42:51Z</time>
      </trkpt>
      <trkpt lat="42.78042" lon="2.765">
        <ele>78.6</ele>
        <time>2021-06-06T14:42:55Z</time>
      </trkpt>
      <trkpt lat="42.78056" lon="2.76508">
        <ele>80</ele>
        <time>2021-06-06T14:42:59Z</time>
      </trkpt>
      <trkpt lat="42.78068" lon="2.76515">
        <ele>79.4</ele>
        <time>2021-06-06T14:43:02Z</time>
      </trkpt>
      <trkpt lat="42.78087" lon="2.76525">
        <ele>79</ele>
        <time>2021-06-06T14:43:06Z</time>
      </trkpt>
      <trkpt lat="42.78107" lon="2.76535">
        <ele>79</ele>
        <time>2021-06-06T14:43:10Z</time>
      </trkpt>
      <trkpt lat="42.78128" lon="2.76545">
        <ele>79</ele>
        <time>2021-06-06T14:43:14Z</time>
      </trkpt>
      <trkpt lat="42.78148" lon="2.76554">
        <ele>78.2</ele>
        <time>2021-06-06T14:43:18Z</time>
      </trkpt>
      <trkpt lat="42.78168" lon="2.76563">
        <ele>77.4</ele>
        <time>2021-06-06T14:43:22Z</time>
      </trkpt>
      <trkpt lat="42.78183" lon="2.7657">
        <ele>77.6</ele>
        <time>2021-06-06T14:43:25Z</time>
      </trkpt>
      <trkpt lat="42.78204" lon="2.76582">
        <ele>77.4</ele>
        <time>2021-06-06T14:43:29Z</time>
      </trkpt>
      <trkpt lat="42.78223" lon="2.766">
        <ele>76.8</ele>
        <time>2021-06-06T14:43:33Z</time>
      </trkpt>
      <trkpt lat="42.78242" lon="2.7662">
        <ele>76.8</ele>
        <time>2021-06-06T14:43:37Z</time>
      </trkpt>
      <trkpt lat="42.78265" lon="2.76634">
        <ele>75.6</ele>
        <time>2021-06-06T14:43:41Z</time>
      </trkpt>
      <trkpt lat="42.78289" lon="2.76647">
        <ele>76</ele>
        <time>2021-06-06T14:43:45Z</time>
      </trkpt>
      <trkpt lat="42.78312" lon="2.76661">
        <ele>75.2</ele>
        <time>2021-06-06T14:43:49Z</time>
      </trkpt>
      <trkpt lat="42.7833" lon="2.76671">
        <ele>74.2</ele>
        <time>2021-06-06T14:43:52Z</time>
      </trkpt>
      <trkpt lat="42.78353" lon="2.76686">
        <ele>76.2</ele>
        <time>2021-06-06T14:43:56Z</time>
      </trkpt>
      <trkpt lat="42.78373" lon="2.7671">
        <ele>75</ele>
        <time>2021-06-06T14:44:00Z</time>
      </trkpt>
      <trkpt lat="42.78389" lon="2.76737">
        <ele>75.8</ele>
        <time>2021-06-06T14:44:04Z</time>
      </trkpt>
      <trkpt lat="42.78401" lon="2.76765">
        <ele>75.2</ele>
        <time>2021-06-06T14:44:08Z</time>
      </trkpt>
      <trkpt lat="42.78411" lon="2.76793">
        <ele>74.4</ele>
        <time>2021-06-06T14:44:12Z</time>
      </trkpt>
      <trkpt lat="42.78421" lon="2.76824">
        <ele>74</ele>
        <time>2021-06-06T14:44:16Z</time>
      </trkpt>
      <trkpt lat="42.78428" lon="2.76849">
        <ele>72.8</ele>
        <time>2021-06-06T14:44:19Z</time>
      </trkpt>
      <trkpt lat="42.78439" lon="2.76884">
        <ele>71.8</ele>
        <time>2021-06-06T14:44:23Z</time>
      </trkpt>
      <trkpt lat="42.7845" lon="2.76917">
        <ele>71.2</ele>
        <time>2021-06-06T14:44:27Z</time>
      </trkpt>
      <trkpt lat="42.78461" lon="2.76948">
        <ele>70.8</ele>
        <time>2021-06-06T14:44:31Z</time>
      </trkpt>
      <trkpt lat="42.78472" lon="2.76978">
        <ele>70.6</ele>
        <time>2021-06-06T14:44:35Z</time>
      </trkpt>
      <trkpt lat="42.78482" lon="2.77007">
        <ele>70.4</ele>
        <time>2021-06-06T14:44:39Z</time>
      </trkpt>
      <trkpt lat="42.78493" lon="2.77036">
        <ele>70</ele>
        <time>2021-06-06T14:44:43Z</time>
      </trkpt>
      <trkpt lat="42.785" lon="2.77059">
        <ele>69.8</ele>
        <time>2021-06-06T14:44:46Z</time>
      </trkpt>
      <trkpt lat="42.7851" lon="2.77092">
        <ele>69.4</ele>
        <time>2021-06-06T14:44:50Z</time>
      </trkpt>
      <trkpt lat="42.78517" lon="2.77125">
        <ele>69.4</ele>
        <time>2021-06-06T14:44:54Z</time>
      </trkpt>
      <trkpt lat="42.78523" lon="2.7716">
        <ele>69.6</ele>
        <time>2021-06-06T14:44:58Z</time>
      </trkpt>
      <trkpt lat="42.78528" lon="2.77193">
        <ele>70</ele>
        <time>2021-06-06T14:45:02Z</time>
      </trkpt>
      <trkpt lat="42.78529" lon="2.77222">
        <ele>69</ele>
        <time>2021-06-06T14:45:06Z</time>
      </trkpt>
      <trkpt lat="42.78527" lon="2.77251">
        <ele>69</ele>
        <time>2021-06-06T14:45:10Z</time>
      </trkpt>
      <trkpt lat="42.78523" lon="2.77272">
        <ele>68.6</ele>
        <time>2021-06-06T14:45:13Z</time>
      </trkpt>
      <trkpt lat="42.78515" lon="2.77298">
        <ele>68.2</ele>
        <time>2021-06-06T14:45:17Z</time>
      </trkpt>
      <trkpt lat="42.78505" lon="2.77325">
        <ele>67.6</ele>
        <time>2021-06-06T14:45:21Z</time>
      </trkpt>
      <trkpt lat="42.78493" lon="2.77351">
        <ele>67.8</ele>
        <time>2021-06-06T14:45:25Z</time>
      </trkpt>
      <trkpt lat="42.78485" lon="2.77379">
        <ele>67.8</ele>
        <time>2021-06-06T14:45:29Z</time>
      </trkpt>
      <trkpt lat="42.78476" lon="2.77406">
        <ele>68.2</ele>
        <time>2021-06-06T14:45:33Z</time>
      </trkpt>
      <trkpt lat="42.78468" lon="2.77431">
        <ele>68.8</ele>
        <time>2021-06-06T14:45:37Z</time>
      </trkpt>
      <trkpt lat="42.78461" lon="2.7745">
        <ele>68</ele>
        <time>2021-06-06T14:45:40Z</time>
      </trkpt>
      <trkpt lat="42.78453" lon="2.77476">
        <ele>68</ele>
        <time>2021-06-06T14:45:44Z</time>
      </trkpt>
      <trkpt lat="42.78443" lon="2.77501">
        <ele>67.6</ele>
        <time>2021-06-06T14:45:48Z</time>
      </trkpt>
      <trkpt lat="42.78433" lon="2.77528">
        <ele>66.8</ele>
        <time>2021-06-06T14:45:52Z</time>
      </trkpt>
      <trkpt lat="42.78424" lon="2.77557">
        <ele>67</ele>
        <time>2021-06-06T14:45:56Z</time>
      </trkpt>
      <trkpt lat="42.78415" lon="2.77586">
        <ele>66.8</ele>
        <time>2021-06-06T14:46:00Z</time>
      </trkpt>
      <trkpt lat="42.78408" lon="2.77607">
        <ele>66.6</ele>
        <time>2021-06-06T14:46:03Z</time>
      </trkpt>
      <trkpt lat="42.78396" lon="2.77635">
        <ele>66.8</ele>
        <time>2021-06-06T14:46:07Z</time>
      </trkpt>
      <trkpt lat="42.78382" lon="2.77662">
        <ele>67</ele>
        <time>2021-06-06T14:46:11Z</time>
      </trkpt>
      <trkpt lat="42.78367" lon="2.77689">
        <ele>67.8</ele>
        <time>2021-06-06T14:46:15Z</time>
      </trkpt>
      <trkpt lat="42.78353" lon="2.77716">
        <ele>67.6</ele>
        <time>2021-06-06T14:46:19Z</time>
      </trkpt>
      <trkpt lat="42.78338" lon="2.77744">
        <ele>67.6</ele>
        <time>2021-06-06T14:46:23Z</time>
      </trkpt>
      <trkpt lat="42.78323" lon="2.77773">
        <ele>67.4</ele>
        <time>2021-06-06T14:46:27Z</time>
      </trkpt>
      <trkpt lat="42.78313" lon="2.77793">
        <ele>68</ele>
        <time>2021-06-06T14:46:30Z</time>
      </trkpt>
      <trkpt lat="42.78299" lon="2.7782">
        <ele>68</ele>
        <time>2021-06-06T14:46:34Z</time>
      </trkpt>
      <trkpt lat="42.78285" lon="2.77846">
        <ele>68.4</ele>
        <time>2021-06-06T14:46:38Z</time>
      </trkpt>
      <trkpt lat="42.78272" lon="2.7787">
        <ele>68.4</ele>
        <time>2021-06-06T14:46:42Z</time>
      </trkpt>
      <trkpt lat="42.78259" lon="2.77893">
        <ele>68.2</ele>
        <time>2021-06-06T14:46:46Z</time>
      </trkpt>
      <trkpt lat="42.78247" lon="2.77918">
        <ele>68</ele>
        <time>2021-06-06T14:46:50Z</time>
      </trkpt>
      <trkpt lat="42.78235" lon="2.77944">
        <ele>68</ele>
        <time>2021-06-06T14:46:54Z</time>
      </trkpt>
      <trkpt lat="42.78227" lon="2.77963">
        <ele>68</ele>
        <time>2021-06-06T14:46:57Z</time>
      </trkpt>
      <trkpt lat="42.78216" lon="2.77988">
        <ele>68</ele>
        <time>2021-06-06T14:47:01Z</time>
      </trkpt>
      <trkpt lat="42.78205" lon="2.78011">
        <ele>67.8</ele>
        <time>2021-06-06T14:47:05Z</time>
      </trkpt>
      <trkpt lat="42.78191" lon="2.78032">
        <ele>67.8</ele>
        <time>2021-06-06T14:47:09Z</time>
      </trkpt>
      <trkpt lat="42.78176" lon="2.78051">
        <ele>67.8</ele>
        <time>2021-06-06T14:47:13Z</time>
      </trkpt>
      <trkpt lat="42.78162" lon="2.78069">
        <ele>68</ele>
        <time>2021-06-06T14:47:17Z</time>
      </trkpt>
      <trkpt lat="42.78148" lon="2.78085">
        <ele>68.6</ele>
        <time>2021-06-06T14:47:21Z</time>
      </trkpt>
      <trkpt lat="42.78139" lon="2.78098">
        <ele>68.6</ele>
        <time>2021-06-06T14:47:24Z</time>
      </trkpt>
      <trkpt lat="42.78127" lon="2.78117">
        <ele>68.6</ele>
        <time>2021-06-06T14:47:28Z</time>
      </trkpt>
      <trkpt lat="42.78116" lon="2.78135">
        <ele>68.8</ele>
        <time>2021-06-06T14:47:32Z</time>
      </trkpt>
      <trkpt lat="42.78103" lon="2.78151">
        <ele>69.2</ele>
        <time>2021-06-06T14:47:36Z</time>
      </trkpt>
      <trkpt lat="42.78094" lon="2.78168">
        <ele>70.2</ele>
        <time>2021-06-06T14:47:40Z</time>
      </trkpt>
      <trkpt lat="42.78086" lon="2.78185">
        <ele>71.2</ele>
        <time>2021-06-06T14:47:44Z</time>
      </trkpt>
      <trkpt lat="42.78079" lon="2.78203">
        <ele>72</ele>
        <time>2021-06-06T14:47:48Z</time>
      </trkpt>
      <trkpt lat="42.78075" lon="2.78216">
        <ele>72.2</ele>
        <time>2021-06-06T14:47:51Z</time>
      </trkpt>
      <trkpt lat="42.7807" lon="2.78233">
        <ele>72.8</ele>
        <time>2021-06-06T14:47:55Z</time>
      </trkpt>
      <trkpt lat="42.78067" lon="2.78251">
        <ele>73.2</ele>
        <time>2021-06-06T14:47:59Z</time>
      </trkpt>
      <trkpt lat="42.78065" lon="2.78268">
        <ele>73.2</ele>
        <time>2021-06-06T14:48:03Z</time>
      </trkpt>
      <trkpt lat="42.78065" lon="2.78284">
        <ele>73.2</ele>
        <time>2021-06-06T14:48:07Z</time>
      </trkpt>
      <trkpt lat="42.78064" lon="2.78304">
        <ele>73.4</ele>
        <time>2021-06-06T14:48:12Z</time>
      </trkpt>
      <trkpt lat="42.78064" lon="2.78317">
        <ele>73.6</ele>
        <time>2021-06-06T14:48:15Z</time>
      </trkpt>
      <trkpt lat="42.78062" lon="2.78334">
        <ele>74.2</ele>
        <time>2021-06-06T14:48:19Z</time>
      </trkpt>
      <trkpt lat="42.78055" lon="2.78354">
        <ele>74.8</ele>
        <time>2021-06-06T14:48:24Z</time>
      </trkpt>
      <trkpt lat="42.78044" lon="2.78364">
        <ele>75.6</ele>
        <time>2021-06-06T14:48:28Z</time>
      </trkpt>
      <trkpt lat="42.7803" lon="2.7837">
        <ele>76.8</ele>
        <time>2021-06-06T14:48:33Z</time>
      </trkpt>
      <trkpt lat="42.78015" lon="2.78375">
        <ele>77</ele>
        <time>2021-06-06T14:48:38Z</time>
      </trkpt>
      <trkpt lat="42.78006" lon="2.78387">
        <ele>77.8</ele>
        <time>2021-06-06T14:48:43Z</time>
      </trkpt>
      <trkpt lat="42.78" lon="2.784">
        <ele>78.2</ele>
        <time>2021-06-06T14:48:47Z</time>
      </trkpt>
      <trkpt lat="42.77993" lon="2.78421">
        <ele>79.4</ele>
        <time>2021-06-06T14:48:53Z</time>
      </trkpt>
      <trkpt lat="42.77988" lon="2.78434">
        <ele>79.6</ele>
        <time>2021-06-06T14:48:58Z</time>
      </trkpt>
      <trkpt lat="42.77982" lon="2.78451">
        <ele>80.6</ele>
        <time>2021-06-06T14:49:03Z</time>
      </trkpt>
      <trkpt lat="42.77976" lon="2.78471">
        <ele>81</ele>
        <time>2021-06-06T14:49:09Z</time>
      </trkpt>
      <trkpt lat="42.77969" lon="2.78489">
        <ele>82.6</ele>
        <time>2021-06-06T14:49:13Z</time>
      </trkpt>
      <trkpt lat="42.77964" lon="2.78506">
        <ele>83</ele>
        <time>2021-06-06T14:49:18Z</time>
      </trkpt>
      <trkpt lat="42.77956" lon="2.78528">
        <ele>83.8</ele>
        <time>2021-06-06T14:49:23Z</time>
      </trkpt>
      <trkpt lat="42.77953" lon="2.78551">
        <ele>83.2</ele>
        <time>2021-06-06T14:49:28Z</time>
      </trkpt>
      <trkpt lat="42.77951" lon="2.78568">
        <ele>83.2</ele>
        <time>2021-06-06T14:49:32Z</time>
      </trkpt>
      <trkpt lat="42.77949" lon="2.78583">
        <ele>83.2</ele>
        <time>2021-06-06T14:49:36Z</time>
      </trkpt>
      <trkpt lat="42.77945" lon="2.78595">
        <ele>83.6</ele>
        <time>2021-06-06T14:49:40Z</time>
      </trkpt>
      <trkpt lat="42.77944" lon="2.78598">
        <ele>82.8</ele>
        <time>2021-06-06T14:49:44Z</time>
      </trkpt>
      <trkpt lat="42.77942" lon="2.78597">
        <ele>82.6</ele>
        <time>2021-06-06T14:49:48Z</time>
      </trkpt>
      <trkpt lat="42.77927" lon="2.78589">
        <ele>82</ele>
        <time>2021-06-06T14:49:55Z</time>
      </trkpt>
      <trkpt lat="42.77912" lon="2.78581">
        <ele>80.6</ele>
        <time>2021-06-06T14:49:59Z</time>
      </trkpt>
      <trkpt lat="42.77899" lon="2.78577">
        <ele>80.6</ele>
        <time>2021-06-06T14:50:03Z</time>
      </trkpt>
      <trkpt lat="42.7789" lon="2.78584">
        <ele>79</ele>
        <time>2021-06-06T14:50:07Z</time>
      </trkpt>
      <trkpt lat="42.77888" lon="2.78605">
        <ele>78.2</ele>
        <time>2021-06-06T14:50:11Z</time>
      </trkpt>
      <trkpt lat="42.77897" lon="2.78617">
        <ele>78</ele>
        <time>2021-06-06T14:50:15Z</time>
      </trkpt>
      <trkpt lat="42.77902" lon="2.78623">
        <ele>78.2</ele>
        <time>2021-06-06T14:50:19Z</time>
      </trkpt>
      <trkpt lat="42.779" lon="2.78634">
        <ele>77.8</ele>
        <time>2021-06-06T14:50:22Z</time>
      </trkpt>
      <trkpt lat="42.77897" lon="2.78653">
        <ele>75.4</ele>
        <time>2021-06-06T14:50:26Z</time>
      </trkpt>
      <trkpt lat="42.77893" lon="2.78678">
        <ele>71.8</ele>
        <time>2021-06-06T14:50:30Z</time>
      </trkpt>
      <trkpt lat="42.7789" lon="2.78703">
        <ele>69.2</ele>
        <time>2021-06-06T14:50:34Z</time>
      </trkpt>
      <trkpt lat="42.77888" lon="2.78726">
        <ele>67.2</ele>
        <time>2021-06-06T14:50:38Z</time>
      </trkpt>
      <trkpt lat="42.77886" lon="2.78745">
        <ele>65.4</ele>
        <time>2021-06-06T14:50:42Z</time>
      </trkpt>
      <trkpt lat="42.77881" lon="2.78753">
        <ele>65</ele>
        <time>2021-06-06T14:50:46Z</time>
      </trkpt>
      <trkpt lat="42.77877" lon="2.78757">
        <ele>64.8</ele>
        <time>2021-06-06T14:50:49Z</time>
      </trkpt>
      <trkpt lat="42.77873" lon="2.78758">
        <ele>65</ele>
        <time>2021-06-06T14:50:53Z</time>
      </trkpt>
      <trkpt lat="42.77873" lon="2.7876">
        <ele>66</ele>
        <time>2021-06-06T14:50:57Z</time>
      </trkpt>
      <trkpt lat="42.77873" lon="2.78759">
        <ele>65.6</ele>
        <time>2021-06-06T14:51:00Z</time>
      </trkpt>
    </trkseg>
  </trk>
</gpx>